<?xml version="1.0" encoding="UTF-8"?><gpx version="1.1" creator="Exported from Strava via extension e-ivanov.ru"  xsi:schemaLocation="http://www.topografix.com/GPX/1/1 http://www.topografix.com/GPX/1/1/gpx.xsd http://www.garmin.com/xmlschemas/GpxExtensions/v3 http://www.garmin.com/xmlschemas/GpxExtensionsv3.xsd http://www.garmin.com/xmlschemas/TrackPointExtension/v1 http://www.garmin.com/xmlschemas/TrackPointExtensionv1.xsd"  xmlns="http://www.topografix.com/GPX/1/1"  xmlns:gpxtpx="http://www.garmin.com/xmlschemas/TrackPointExtension/v1"  xmlns:gpxx="http://www.garmin.com/xmlschemas/GpxExtensions/v3" xmlns:xsi="http://www.w3.org/2001/XMLSchema-instance"><metadata><link href="http://e-ivanov.ru/projects/strava-export-gpx/"><text>Strava gpx export</text></link><time>2022-03-20T11:59:58.626Z</time></metadata><trk><name>RR 22/03 - Montfort | Fietsrit | Strava</name><trkseg><trkpt lon="5.742062" lat="51.144905"><ele>-5.2</ele><time>2022-03-20T07:59:00.000Z</time></trkpt><trkpt lon="5.742062" lat="51.144905"><ele>-5.2</ele><time>2022-03-20T07:59:01.000Z</time></trkpt><trkpt lon="5.742062" lat="51.144905"><ele>-5.2</ele><time>2022-03-20T07:59:02.000Z</time></trkpt><trkpt lon="5.742062" lat="51.144905"><ele>-5.2</ele><time>2022-03-20T07:59:03.000Z</time></trkpt><trkpt lon="5.742062" lat="51.144905"><ele>-5.2</ele><time>2022-03-20T07:59:04.000Z</time></trkpt><trkpt lon="5.742113" lat="51.144923"><ele>-5.2</ele><time>2022-03-20T07:59:05.000Z</time></trkpt><trkpt lon="5.742149" lat="51.144925"><ele>-5.2</ele><time>2022-03-20T07:59:06.000Z</time></trkpt><trkpt lon="5.742179" lat="51.144921"><ele>-5.2</ele><time>2022-03-20T07:59:07.000Z</time></trkpt><trkpt lon="5.742216" lat="51.144917"><ele>-5.2</ele><time>2022-03-20T07:59:08.000Z</time></trkpt><trkpt lon="5.742257" lat="51.144917"><ele>-5.2</ele><time>2022-03-20T07:59:09.000Z</time></trkpt><trkpt lon="5.742301" lat="51.144917"><ele>-5.2</ele><time>2022-03-20T07:59:10.000Z</time></trkpt><trkpt lon="5.74235" lat="51.144914"><ele>-5.2</ele><time>2022-03-20T07:59:11.000Z</time></trkpt><trkpt lon="5.742404" lat="51.144916"><ele>-5.2</ele><time>2022-03-20T07:59:12.000Z</time></trkpt><trkpt lon="5.742458" lat="51.144919"><ele>-5.2</ele><time>2022-03-20T07:59:13.000Z</time></trkpt><trkpt lon="5.742507" lat="51.14492"><ele>-5</ele><time>2022-03-20T07:59:14.000Z</time></trkpt><trkpt lon="5.742552" lat="51.144915"><ele>-5</ele><time>2022-03-20T07:59:15.000Z</time></trkpt><trkpt lon="5.742595" lat="51.144901"><ele>-5</ele><time>2022-03-20T07:59:16.000Z</time></trkpt><trkpt lon="5.742638" lat="51.14488"><ele>-5</ele><time>2022-03-20T07:59:17.000Z</time></trkpt><trkpt lon="5.742682" lat="51.144854"><ele>-5</ele><time>2022-03-20T07:59:18.000Z</time></trkpt><trkpt lon="5.742724" lat="51.144827"><ele>-5</ele><time>2022-03-20T07:59:19.000Z</time></trkpt><trkpt lon="5.742769" lat="51.144798"><ele>-5</ele><time>2022-03-20T07:59:20.000Z</time></trkpt><trkpt lon="5.742821" lat="51.144764"><ele>-5.2</ele><time>2022-03-20T07:59:21.000Z</time></trkpt><trkpt lon="5.742873" lat="51.14473"><ele>-5.2</ele><time>2022-03-20T07:59:22.000Z</time></trkpt><trkpt lon="5.742926" lat="51.144696"><ele>-5.2</ele><time>2022-03-20T07:59:23.000Z</time></trkpt><trkpt lon="5.742982" lat="51.144661"><ele>-5</ele><time>2022-03-20T07:59:24.000Z</time></trkpt><trkpt lon="5.743036" lat="51.144627"><ele>-5</ele><time>2022-03-20T07:59:25.000Z</time></trkpt><trkpt lon="5.743091" lat="51.144595"><ele>-5</ele><time>2022-03-20T07:59:26.000Z</time></trkpt><trkpt lon="5.743144" lat="51.144559"><ele>-4.8</ele><time>2022-03-20T07:59:27.000Z</time></trkpt><trkpt lon="5.743197" lat="51.144527"><ele>-4.8</ele><time>2022-03-20T07:59:28.000Z</time></trkpt><trkpt lon="5.743247" lat="51.144493"><ele>-4.8</ele><time>2022-03-20T07:59:29.000Z</time></trkpt><trkpt lon="5.743297" lat="51.14446"><ele>-4.8</ele><time>2022-03-20T07:59:30.000Z</time></trkpt><trkpt lon="5.743351" lat="51.144425"><ele>-4.8</ele><time>2022-03-20T07:59:31.000Z</time></trkpt><trkpt lon="5.743406" lat="51.144393"><ele>-4.8</ele><time>2022-03-20T07:59:32.000Z</time></trkpt><trkpt lon="5.743458" lat="51.14436"><ele>-5</ele><time>2022-03-20T07:59:33.000Z</time></trkpt><trkpt lon="5.743509" lat="51.144328"><ele>-5</ele><time>2022-03-20T07:59:34.000Z</time></trkpt><trkpt lon="5.743559" lat="51.144295"><ele>-5</ele><time>2022-03-20T07:59:35.000Z</time></trkpt><trkpt lon="5.743609" lat="51.144261"><ele>-5</ele><time>2022-03-20T07:59:36.000Z</time></trkpt><trkpt lon="5.743654" lat="51.14423"><ele>-5</ele><time>2022-03-20T07:59:37.000Z</time></trkpt><trkpt lon="5.743698" lat="51.144199"><ele>-5</ele><time>2022-03-20T07:59:38.000Z</time></trkpt><trkpt lon="5.743739" lat="51.144165"><ele>-5</ele><time>2022-03-20T07:59:39.000Z</time></trkpt><trkpt lon="5.743768" lat="51.144134"><ele>-5</ele><time>2022-03-20T07:59:40.000Z</time></trkpt><trkpt lon="5.743781" lat="51.1441"><ele>-5</ele><time>2022-03-20T07:59:41.000Z</time></trkpt><trkpt lon="5.743783" lat="51.144066"><ele>-5</ele><time>2022-03-20T07:59:42.000Z</time></trkpt><trkpt lon="5.743783" lat="51.144032"><ele>-5</ele><time>2022-03-20T07:59:43.000Z</time></trkpt><trkpt lon="5.743794" lat="51.143995"><ele>-5</ele><time>2022-03-20T07:59:44.000Z</time></trkpt><trkpt lon="5.743817" lat="51.143959"><ele>-5</ele><time>2022-03-20T07:59:45.000Z</time></trkpt><trkpt lon="5.743853" lat="51.143925"><ele>-5.2</ele><time>2022-03-20T07:59:46.000Z</time></trkpt><trkpt lon="5.743901" lat="51.143899"><ele>-5</ele><time>2022-03-20T07:59:47.000Z</time></trkpt><trkpt lon="5.743958" lat="51.143888"><ele>-5</ele><time>2022-03-20T07:59:48.000Z</time></trkpt><trkpt lon="5.744018" lat="51.143878"><ele>-5.2</ele><time>2022-03-20T07:59:49.000Z</time></trkpt><trkpt lon="5.74408" lat="51.143872"><ele>-5.2</ele><time>2022-03-20T07:59:50.000Z</time></trkpt><trkpt lon="5.744146" lat="51.143863"><ele>-5.2</ele><time>2022-03-20T07:59:51.000Z</time></trkpt><trkpt lon="5.744218" lat="51.143851"><ele>-5.4</ele><time>2022-03-20T07:59:52.000Z</time></trkpt><trkpt lon="5.74429" lat="51.143831"><ele>-5.4</ele><time>2022-03-20T07:59:53.000Z</time></trkpt><trkpt lon="5.744359" lat="51.143802"><ele>-5.4</ele><time>2022-03-20T07:59:54.000Z</time></trkpt><trkpt lon="5.744423" lat="51.143763"><ele>-5.4</ele><time>2022-03-20T07:59:55.000Z</time></trkpt><trkpt lon="5.744487" lat="51.143718"><ele>-5.6</ele><time>2022-03-20T07:59:56.000Z</time></trkpt><trkpt lon="5.744554" lat="51.143672"><ele>-5.6</ele><time>2022-03-20T07:59:57.000Z</time></trkpt><trkpt lon="5.744624" lat="51.143629"><ele>-5.6</ele><time>2022-03-20T07:59:58.000Z</time></trkpt><trkpt lon="5.744694" lat="51.143584"><ele>-5.6</ele><time>2022-03-20T07:59:59.000Z</time></trkpt><trkpt lon="5.744763" lat="51.143541"><ele>-5.4</ele><time>2022-03-20T08:00:00.000Z</time></trkpt><trkpt lon="5.744831" lat="51.143497"><ele>-5.4</ele><time>2022-03-20T08:00:01.000Z</time></trkpt><trkpt lon="5.744899" lat="51.143451"><ele>-5.4</ele><time>2022-03-20T08:00:02.000Z</time></trkpt><trkpt lon="5.744967" lat="51.143405"><ele>-5.4</ele><time>2022-03-20T08:00:03.000Z</time></trkpt><trkpt lon="5.745034" lat="51.143359"><ele>-5.4</ele><time>2022-03-20T08:00:04.000Z</time></trkpt><trkpt lon="5.745102" lat="51.143316"><ele>-5.4</ele><time>2022-03-20T08:00:05.000Z</time></trkpt><trkpt lon="5.745168" lat="51.143271"><ele>-5.4</ele><time>2022-03-20T08:00:06.000Z</time></trkpt><trkpt lon="5.745235" lat="51.143226"><ele>-5.4</ele><time>2022-03-20T08:00:07.000Z</time></trkpt><trkpt lon="5.7453" lat="51.143183"><ele>-5.4</ele><time>2022-03-20T08:00:08.000Z</time></trkpt><trkpt lon="5.745366" lat="51.143138"><ele>-5.4</ele><time>2022-03-20T08:00:09.000Z</time></trkpt><trkpt lon="5.745433" lat="51.143092"><ele>-5.4</ele><time>2022-03-20T08:00:10.000Z</time></trkpt><trkpt lon="5.745498" lat="51.143048"><ele>-5.4</ele><time>2022-03-20T08:00:11.000Z</time></trkpt><trkpt lon="5.745567" lat="51.143001"><ele>-5.4</ele><time>2022-03-20T08:00:12.000Z</time></trkpt><trkpt lon="5.745634" lat="51.142958"><ele>-5.4</ele><time>2022-03-20T08:00:13.000Z</time></trkpt><trkpt lon="5.745699" lat="51.142911"><ele>-5.4</ele><time>2022-03-20T08:00:14.000Z</time></trkpt><trkpt lon="5.745767" lat="51.142866"><ele>-5.4</ele><time>2022-03-20T08:00:15.000Z</time></trkpt><trkpt lon="5.745836" lat="51.142821"><ele>-5.4</ele><time>2022-03-20T08:00:16.000Z</time></trkpt><trkpt lon="5.745903" lat="51.142776"><ele>-5.4</ele><time>2022-03-20T08:00:17.000Z</time></trkpt><trkpt lon="5.745971" lat="51.142733"><ele>-5.4</ele><time>2022-03-20T08:00:18.000Z</time></trkpt><trkpt lon="5.746038" lat="51.142685"><ele>-5.4</ele><time>2022-03-20T08:00:19.000Z</time></trkpt><trkpt lon="5.746106" lat="51.142641"><ele>-5.4</ele><time>2022-03-20T08:00:20.000Z</time></trkpt><trkpt lon="5.746172" lat="51.142597"><ele>-5.4</ele><time>2022-03-20T08:00:21.000Z</time></trkpt><trkpt lon="5.746241" lat="51.142551"><ele>-5.4</ele><time>2022-03-20T08:00:22.000Z</time></trkpt><trkpt lon="5.746308" lat="51.142505"><ele>-5.6</ele><time>2022-03-20T08:00:23.000Z</time></trkpt><trkpt lon="5.746379" lat="51.142459"><ele>-5.6</ele><time>2022-03-20T08:00:24.000Z</time></trkpt><trkpt lon="5.746448" lat="51.142413"><ele>-5.6</ele><time>2022-03-20T08:00:25.000Z</time></trkpt><trkpt lon="5.746513" lat="51.142367"><ele>-5.6</ele><time>2022-03-20T08:00:26.000Z</time></trkpt><trkpt lon="5.746581" lat="51.142322"><ele>-5.6</ele><time>2022-03-20T08:00:27.000Z</time></trkpt><trkpt lon="5.74665" lat="51.142273"><ele>-5.6</ele><time>2022-03-20T08:00:28.000Z</time></trkpt><trkpt lon="5.746715" lat="51.142226"><ele>-5.6</ele><time>2022-03-20T08:00:29.000Z</time></trkpt><trkpt lon="5.746781" lat="51.142178"><ele>-5.6</ele><time>2022-03-20T08:00:30.000Z</time></trkpt><trkpt lon="5.746847" lat="51.142128"><ele>-5.6</ele><time>2022-03-20T08:00:31.000Z</time></trkpt><trkpt lon="5.746914" lat="51.142081"><ele>-5.6</ele><time>2022-03-20T08:00:32.000Z</time></trkpt><trkpt lon="5.746984" lat="51.142033"><ele>-5.6</ele><time>2022-03-20T08:00:33.000Z</time></trkpt><trkpt lon="5.747053" lat="51.141986"><ele>-5.6</ele><time>2022-03-20T08:00:34.000Z</time></trkpt><trkpt lon="5.74712" lat="51.14194"><ele>-5.6</ele><time>2022-03-20T08:00:35.000Z</time></trkpt><trkpt lon="5.747186" lat="51.141894"><ele>-5.6</ele><time>2022-03-20T08:00:36.000Z</time></trkpt><trkpt lon="5.747252" lat="51.141849"><ele>-5.8</ele><time>2022-03-20T08:00:37.000Z</time></trkpt><trkpt lon="5.747318" lat="51.1418"><ele>-5.8</ele><time>2022-03-20T08:00:38.000Z</time></trkpt><trkpt lon="5.747385" lat="51.141757"><ele>-5.8</ele><time>2022-03-20T08:00:39.000Z</time></trkpt><trkpt lon="5.747455" lat="51.141709"><ele>-5.8</ele><time>2022-03-20T08:00:40.000Z</time></trkpt><trkpt lon="5.747524" lat="51.141665"><ele>-5.8</ele><time>2022-03-20T08:00:41.000Z</time></trkpt><trkpt lon="5.747593" lat="51.141617"><ele>-5.8</ele><time>2022-03-20T08:00:42.000Z</time></trkpt><trkpt lon="5.747664" lat="51.141573"><ele>-5.8</ele><time>2022-03-20T08:00:43.000Z</time></trkpt><trkpt lon="5.747734" lat="51.141525"><ele>-5.8</ele><time>2022-03-20T08:00:44.000Z</time></trkpt><trkpt lon="5.747804" lat="51.141481"><ele>-5.8</ele><time>2022-03-20T08:00:45.000Z</time></trkpt><trkpt lon="5.747875" lat="51.141437"><ele>-5.8</ele><time>2022-03-20T08:00:46.000Z</time></trkpt><trkpt lon="5.747942" lat="51.141391"><ele>-6</ele><time>2022-03-20T08:00:47.000Z</time></trkpt><trkpt lon="5.748012" lat="51.141348"><ele>-6</ele><time>2022-03-20T08:00:48.000Z</time></trkpt><trkpt lon="5.748079" lat="51.141304"><ele>-6</ele><time>2022-03-20T08:00:49.000Z</time></trkpt><trkpt lon="5.74815" lat="51.141258"><ele>-6</ele><time>2022-03-20T08:00:50.000Z</time></trkpt><trkpt lon="5.74822" lat="51.141211"><ele>-6</ele><time>2022-03-20T08:00:51.000Z</time></trkpt><trkpt lon="5.748289" lat="51.141166"><ele>-6</ele><time>2022-03-20T08:00:52.000Z</time></trkpt><trkpt lon="5.748359" lat="51.14112"><ele>-6</ele><time>2022-03-20T08:00:53.000Z</time></trkpt><trkpt lon="5.748429" lat="51.141074"><ele>-6</ele><time>2022-03-20T08:00:54.000Z</time></trkpt><trkpt lon="5.748496" lat="51.141028"><ele>-6</ele><time>2022-03-20T08:00:55.000Z</time></trkpt><trkpt lon="5.748563" lat="51.140986"><ele>-6</ele><time>2022-03-20T08:00:56.000Z</time></trkpt><trkpt lon="5.748629" lat="51.140944"><ele>-6</ele><time>2022-03-20T08:00:57.000Z</time></trkpt><trkpt lon="5.748701" lat="51.140899"><ele>-6</ele><time>2022-03-20T08:00:58.000Z</time></trkpt><trkpt lon="5.748775" lat="51.140856"><ele>-6</ele><time>2022-03-20T08:00:59.000Z</time></trkpt><trkpt lon="5.748847" lat="51.140814"><ele>-5.8</ele><time>2022-03-20T08:01:00.000Z</time></trkpt><trkpt lon="5.748917" lat="51.140769"><ele>-5.8</ele><time>2022-03-20T08:01:01.000Z</time></trkpt><trkpt lon="5.748985" lat="51.140727"><ele>-5.8</ele><time>2022-03-20T08:01:02.000Z</time></trkpt><trkpt lon="5.749056" lat="51.140684"><ele>-5.8</ele><time>2022-03-20T08:01:03.000Z</time></trkpt><trkpt lon="5.749126" lat="51.140639"><ele>-5.8</ele><time>2022-03-20T08:01:04.000Z</time></trkpt><trkpt lon="5.749193" lat="51.140594"><ele>-5.8</ele><time>2022-03-20T08:01:05.000Z</time></trkpt><trkpt lon="5.749257" lat="51.140545"><ele>-5.8</ele><time>2022-03-20T08:01:06.000Z</time></trkpt><trkpt lon="5.749315" lat="51.140493"><ele>-5.8</ele><time>2022-03-20T08:01:07.000Z</time></trkpt><trkpt lon="5.749373" lat="51.140442"><ele>-5.8</ele><time>2022-03-20T08:01:08.000Z</time></trkpt><trkpt lon="5.749437" lat="51.140393"><ele>-5.8</ele><time>2022-03-20T08:01:09.000Z</time></trkpt><trkpt lon="5.749506" lat="51.140346"><ele>-5.8</ele><time>2022-03-20T08:01:10.000Z</time></trkpt><trkpt lon="5.749576" lat="51.140297"><ele>-5.8</ele><time>2022-03-20T08:01:11.000Z</time></trkpt><trkpt lon="5.749647" lat="51.140251"><ele>-6</ele><time>2022-03-20T08:01:12.000Z</time></trkpt><trkpt lon="5.749718" lat="51.140202"><ele>-6</ele><time>2022-03-20T08:01:13.000Z</time></trkpt><trkpt lon="5.74979" lat="51.140158"><ele>-6</ele><time>2022-03-20T08:01:14.000Z</time></trkpt><trkpt lon="5.74986" lat="51.140113"><ele>-6.2</ele><time>2022-03-20T08:01:15.000Z</time></trkpt><trkpt lon="5.749931" lat="51.140067"><ele>-6.4</ele><time>2022-03-20T08:01:16.000Z</time></trkpt><trkpt lon="5.750001" lat="51.140021"><ele>-6.4</ele><time>2022-03-20T08:01:17.000Z</time></trkpt><trkpt lon="5.75007" lat="51.139976"><ele>-6.4</ele><time>2022-03-20T08:01:18.000Z</time></trkpt><trkpt lon="5.750137" lat="51.13993"><ele>-6.4</ele><time>2022-03-20T08:01:19.000Z</time></trkpt><trkpt lon="5.750208" lat="51.139884"><ele>-6.4</ele><time>2022-03-20T08:01:20.000Z</time></trkpt><trkpt lon="5.750278" lat="51.139838"><ele>-6.2</ele><time>2022-03-20T08:01:21.000Z</time></trkpt><trkpt lon="5.750346" lat="51.139792"><ele>-6.2</ele><time>2022-03-20T08:01:22.000Z</time></trkpt><trkpt lon="5.750414" lat="51.139747"><ele>-6.2</ele><time>2022-03-20T08:01:23.000Z</time></trkpt><trkpt lon="5.750483" lat="51.139701"><ele>-6.2</ele><time>2022-03-20T08:01:24.000Z</time></trkpt><trkpt lon="5.750551" lat="51.139658"><ele>-6.2</ele><time>2022-03-20T08:01:25.000Z</time></trkpt><trkpt lon="5.750619" lat="51.13961"><ele>-6.2</ele><time>2022-03-20T08:01:26.000Z</time></trkpt><trkpt lon="5.750688" lat="51.139564"><ele>-6.2</ele><time>2022-03-20T08:01:27.000Z</time></trkpt><trkpt lon="5.750756" lat="51.139521"><ele>-6.2</ele><time>2022-03-20T08:01:28.000Z</time></trkpt><trkpt lon="5.750825" lat="51.139476"><ele>-6.2</ele><time>2022-03-20T08:01:29.000Z</time></trkpt><trkpt lon="5.750894" lat="51.13943"><ele>-6.2</ele><time>2022-03-20T08:01:30.000Z</time></trkpt><trkpt lon="5.750961" lat="51.139385"><ele>-6.2</ele><time>2022-03-20T08:01:31.000Z</time></trkpt><trkpt lon="5.751031" lat="51.139339"><ele>-6.2</ele><time>2022-03-20T08:01:32.000Z</time></trkpt><trkpt lon="5.751099" lat="51.139293"><ele>-6.2</ele><time>2022-03-20T08:01:33.000Z</time></trkpt><trkpt lon="5.751168" lat="51.139247"><ele>-6.2</ele><time>2022-03-20T08:01:34.000Z</time></trkpt><trkpt lon="5.751235" lat="51.139202"><ele>-6</ele><time>2022-03-20T08:01:35.000Z</time></trkpt><trkpt lon="5.751305" lat="51.139156"><ele>-5.8</ele><time>2022-03-20T08:01:36.000Z</time></trkpt><trkpt lon="5.751374" lat="51.13911"><ele>-5.8</ele><time>2022-03-20T08:01:37.000Z</time></trkpt><trkpt lon="5.751442" lat="51.139064"><ele>-5.8</ele><time>2022-03-20T08:01:38.000Z</time></trkpt><trkpt lon="5.75151" lat="51.139018"><ele>-5.8</ele><time>2022-03-20T08:01:39.000Z</time></trkpt><trkpt lon="5.751579" lat="51.138972"><ele>-5.6</ele><time>2022-03-20T08:01:40.000Z</time></trkpt><trkpt lon="5.751647" lat="51.138927"><ele>-5.6</ele><time>2022-03-20T08:01:41.000Z</time></trkpt><trkpt lon="5.751717" lat="51.138881"><ele>-5.4</ele><time>2022-03-20T08:01:42.000Z</time></trkpt><trkpt lon="5.75179" lat="51.138832"><ele>-5.4</ele><time>2022-03-20T08:01:43.000Z</time></trkpt><trkpt lon="5.751863" lat="51.138786"><ele>-5.4</ele><time>2022-03-20T08:01:44.000Z</time></trkpt><trkpt lon="5.751933" lat="51.138735"><ele>-5.4</ele><time>2022-03-20T08:01:45.000Z</time></trkpt><trkpt lon="5.752006" lat="51.138686"><ele>-5.4</ele><time>2022-03-20T08:01:46.000Z</time></trkpt><trkpt lon="5.752079" lat="51.138638"><ele>-5.4</ele><time>2022-03-20T08:01:47.000Z</time></trkpt><trkpt lon="5.752151" lat="51.138588"><ele>-5.4</ele><time>2022-03-20T08:01:48.000Z</time></trkpt><trkpt lon="5.752226" lat="51.138538"><ele>-5.4</ele><time>2022-03-20T08:01:49.000Z</time></trkpt><trkpt lon="5.7523" lat="51.138489"><ele>-5.6</ele><time>2022-03-20T08:01:50.000Z</time></trkpt><trkpt lon="5.752374" lat="51.138439"><ele>-5.4</ele><time>2022-03-20T08:01:51.000Z</time></trkpt><trkpt lon="5.75245" lat="51.138389"><ele>-5.4</ele><time>2022-03-20T08:01:52.000Z</time></trkpt><trkpt lon="5.752523" lat="51.13834"><ele>-5.4</ele><time>2022-03-20T08:01:53.000Z</time></trkpt><trkpt lon="5.752596" lat="51.138291"><ele>-5.4</ele><time>2022-03-20T08:01:54.000Z</time></trkpt><trkpt lon="5.75267" lat="51.138241"><ele>-5.4</ele><time>2022-03-20T08:01:55.000Z</time></trkpt><trkpt lon="5.752746" lat="51.138191"><ele>-5.6</ele><time>2022-03-20T08:01:56.000Z</time></trkpt><trkpt lon="5.752818" lat="51.138145"><ele>-5.6</ele><time>2022-03-20T08:01:57.000Z</time></trkpt><trkpt lon="5.75289" lat="51.138096"><ele>-5.6</ele><time>2022-03-20T08:01:58.000Z</time></trkpt><trkpt lon="5.752963" lat="51.138046"><ele>-5.6</ele><time>2022-03-20T08:01:59.000Z</time></trkpt><trkpt lon="5.753036" lat="51.138"><ele>-5.6</ele><time>2022-03-20T08:02:00.000Z</time></trkpt><trkpt lon="5.75311" lat="51.137954"><ele>-5.6</ele><time>2022-03-20T08:02:01.000Z</time></trkpt><trkpt lon="5.753183" lat="51.137905"><ele>-5.6</ele><time>2022-03-20T08:02:02.000Z</time></trkpt><trkpt lon="5.753256" lat="51.137856"><ele>-5.6</ele><time>2022-03-20T08:02:03.000Z</time></trkpt><trkpt lon="5.753328" lat="51.137809"><ele>-5.4</ele><time>2022-03-20T08:02:04.000Z</time></trkpt><trkpt lon="5.753401" lat="51.13776"><ele>-5.4</ele><time>2022-03-20T08:02:05.000Z</time></trkpt><trkpt lon="5.753472" lat="51.137714"><ele>-5.4</ele><time>2022-03-20T08:02:06.000Z</time></trkpt><trkpt lon="5.753546" lat="51.137668"><ele>-5.4</ele><time>2022-03-20T08:02:07.000Z</time></trkpt><trkpt lon="5.753625" lat="51.137625"><ele>-5.4</ele><time>2022-03-20T08:02:08.000Z</time></trkpt><trkpt lon="5.753705" lat="51.137583"><ele>-5.4</ele><time>2022-03-20T08:02:09.000Z</time></trkpt><trkpt lon="5.75378" lat="51.137538"><ele>-5.4</ele><time>2022-03-20T08:02:10.000Z</time></trkpt><trkpt lon="5.753853" lat="51.137492"><ele>-5.4</ele><time>2022-03-20T08:02:11.000Z</time></trkpt><trkpt lon="5.753922" lat="51.13745"><ele>-5.4</ele><time>2022-03-20T08:02:12.000Z</time></trkpt><trkpt lon="5.753992" lat="51.137402"><ele>-5.4</ele><time>2022-03-20T08:02:13.000Z</time></trkpt><trkpt lon="5.754064" lat="51.137356"><ele>-5.4</ele><time>2022-03-20T08:02:14.000Z</time></trkpt><trkpt lon="5.754137" lat="51.137309"><ele>-5.4</ele><time>2022-03-20T08:02:15.000Z</time></trkpt><trkpt lon="5.754207" lat="51.13726"><ele>-5.4</ele><time>2022-03-20T08:02:16.000Z</time></trkpt><trkpt lon="5.754277" lat="51.137214"><ele>-5.4</ele><time>2022-03-20T08:02:17.000Z</time></trkpt><trkpt lon="5.754349" lat="51.137168"><ele>-5.4</ele><time>2022-03-20T08:02:18.000Z</time></trkpt><trkpt lon="5.754417" lat="51.13712"><ele>-5.2</ele><time>2022-03-20T08:02:19.000Z</time></trkpt><trkpt lon="5.754488" lat="51.137073"><ele>-5.2</ele><time>2022-03-20T08:02:20.000Z</time></trkpt><trkpt lon="5.754558" lat="51.137028"><ele>-5.2</ele><time>2022-03-20T08:02:21.000Z</time></trkpt><trkpt lon="5.754631" lat="51.136981"><ele>-5.2</ele><time>2022-03-20T08:02:22.000Z</time></trkpt><trkpt lon="5.754702" lat="51.136935"><ele>-5.2</ele><time>2022-03-20T08:02:23.000Z</time></trkpt><trkpt lon="5.754772" lat="51.136887"><ele>-5.4</ele><time>2022-03-20T08:02:24.000Z</time></trkpt><trkpt lon="5.754842" lat="51.13684"><ele>-5.4</ele><time>2022-03-20T08:02:25.000Z</time></trkpt><trkpt lon="5.754911" lat="51.136792"><ele>-5.4</ele><time>2022-03-20T08:02:26.000Z</time></trkpt><trkpt lon="5.754981" lat="51.136745"><ele>-5.2</ele><time>2022-03-20T08:02:27.000Z</time></trkpt><trkpt lon="5.755053" lat="51.136699"><ele>-5.2</ele><time>2022-03-20T08:02:28.000Z</time></trkpt><trkpt lon="5.755126" lat="51.13665"><ele>-5.2</ele><time>2022-03-20T08:02:29.000Z</time></trkpt><trkpt lon="5.755199" lat="51.136603"><ele>-5.2</ele><time>2022-03-20T08:02:30.000Z</time></trkpt><trkpt lon="5.755269" lat="51.136555"><ele>-5.2</ele><time>2022-03-20T08:02:31.000Z</time></trkpt><trkpt lon="5.755338" lat="51.13651"><ele>-5.2</ele><time>2022-03-20T08:02:32.000Z</time></trkpt><trkpt lon="5.755411" lat="51.136463"><ele>-5.2</ele><time>2022-03-20T08:02:33.000Z</time></trkpt><trkpt lon="5.755485" lat="51.136416"><ele>-5.2</ele><time>2022-03-20T08:02:34.000Z</time></trkpt><trkpt lon="5.755556" lat="51.136371"><ele>-5.2</ele><time>2022-03-20T08:02:35.000Z</time></trkpt><trkpt lon="5.755626" lat="51.136322"><ele>-5.2</ele><time>2022-03-20T08:02:36.000Z</time></trkpt><trkpt lon="5.755694" lat="51.136272"><ele>-5.2</ele><time>2022-03-20T08:02:37.000Z</time></trkpt><trkpt lon="5.755764" lat="51.136226"><ele>-5.2</ele><time>2022-03-20T08:02:38.000Z</time></trkpt><trkpt lon="5.755834" lat="51.13618"><ele>-5.2</ele><time>2022-03-20T08:02:39.000Z</time></trkpt><trkpt lon="5.755904" lat="51.136131"><ele>-5.2</ele><time>2022-03-20T08:02:40.000Z</time></trkpt><trkpt lon="5.755974" lat="51.136085"><ele>-5.2</ele><time>2022-03-20T08:02:41.000Z</time></trkpt><trkpt lon="5.756044" lat="51.136039"><ele>-5.2</ele><time>2022-03-20T08:02:42.000Z</time></trkpt><trkpt lon="5.756114" lat="51.135993"><ele>-5.2</ele><time>2022-03-20T08:02:43.000Z</time></trkpt><trkpt lon="5.756183" lat="51.135945"><ele>-5.2</ele><time>2022-03-20T08:02:44.000Z</time></trkpt><trkpt lon="5.756252" lat="51.135898"><ele>-5.2</ele><time>2022-03-20T08:02:45.000Z</time></trkpt><trkpt lon="5.756322" lat="51.135852"><ele>-5.2</ele><time>2022-03-20T08:02:46.000Z</time></trkpt><trkpt lon="5.756394" lat="51.135806"><ele>-5.2</ele><time>2022-03-20T08:02:47.000Z</time></trkpt><trkpt lon="5.756463" lat="51.13576"><ele>-5.2</ele><time>2022-03-20T08:02:48.000Z</time></trkpt><trkpt lon="5.756531" lat="51.135715"><ele>-5.2</ele><time>2022-03-20T08:02:49.000Z</time></trkpt><trkpt lon="5.756601" lat="51.135669"><ele>-5.2</ele><time>2022-03-20T08:02:50.000Z</time></trkpt><trkpt lon="5.756669" lat="51.135626"><ele>-5.2</ele><time>2022-03-20T08:02:51.000Z</time></trkpt><trkpt lon="5.756739" lat="51.135581"><ele>-5.2</ele><time>2022-03-20T08:02:52.000Z</time></trkpt><trkpt lon="5.756807" lat="51.135539"><ele>-5.2</ele><time>2022-03-20T08:02:53.000Z</time></trkpt><trkpt lon="5.756876" lat="51.135496"><ele>-5.2</ele><time>2022-03-20T08:02:54.000Z</time></trkpt><trkpt lon="5.756945" lat="51.135455"><ele>-5.4</ele><time>2022-03-20T08:02:55.000Z</time></trkpt><trkpt lon="5.757015" lat="51.135413"><ele>-5.4</ele><time>2022-03-20T08:02:56.000Z</time></trkpt><trkpt lon="5.757085" lat="51.135374"><ele>-5.6</ele><time>2022-03-20T08:02:57.000Z</time></trkpt><trkpt lon="5.757162" lat="51.135332"><ele>-5.6</ele><time>2022-03-20T08:02:58.000Z</time></trkpt><trkpt lon="5.757236" lat="51.135288"><ele>-5.4</ele><time>2022-03-20T08:02:59.000Z</time></trkpt><trkpt lon="5.757309" lat="51.135245"><ele>-5.4</ele><time>2022-03-20T08:03:00.000Z</time></trkpt><trkpt lon="5.757383" lat="51.135205"><ele>-5.4</ele><time>2022-03-20T08:03:01.000Z</time></trkpt><trkpt lon="5.757459" lat="51.13517"><ele>-5.4</ele><time>2022-03-20T08:03:02.000Z</time></trkpt><trkpt lon="5.757545" lat="51.135148"><ele>-5.2</ele><time>2022-03-20T08:03:03.000Z</time></trkpt><trkpt lon="5.757631" lat="51.135143"><ele>-5.2</ele><time>2022-03-20T08:03:04.000Z</time></trkpt><trkpt lon="5.757716" lat="51.135158"><ele>-5.2</ele><time>2022-03-20T08:03:05.000Z</time></trkpt><trkpt lon="5.757809" lat="51.135174"><ele>-5.2</ele><time>2022-03-20T08:03:06.000Z</time></trkpt><trkpt lon="5.757917" lat="51.135178"><ele>-5.4</ele><time>2022-03-20T08:03:07.000Z</time></trkpt><trkpt lon="5.758022" lat="51.135169"><ele>-5.4</ele><time>2022-03-20T08:03:08.000Z</time></trkpt><trkpt lon="5.758124" lat="51.135149"><ele>-5.4</ele><time>2022-03-20T08:03:09.000Z</time></trkpt><trkpt lon="5.758221" lat="51.135129"><ele>-5.4</ele><time>2022-03-20T08:03:10.000Z</time></trkpt><trkpt lon="5.758317" lat="51.135104"><ele>-5.4</ele><time>2022-03-20T08:03:11.000Z</time></trkpt><trkpt lon="5.758415" lat="51.13508"><ele>-5.4</ele><time>2022-03-20T08:03:12.000Z</time></trkpt><trkpt lon="5.758512" lat="51.135057"><ele>-5.4</ele><time>2022-03-20T08:03:13.000Z</time></trkpt><trkpt lon="5.758608" lat="51.135031"><ele>-5.6</ele><time>2022-03-20T08:03:14.000Z</time></trkpt><trkpt lon="5.758702" lat="51.135002"><ele>-5.6</ele><time>2022-03-20T08:03:15.000Z</time></trkpt><trkpt lon="5.758796" lat="51.134977"><ele>-5.6</ele><time>2022-03-20T08:03:16.000Z</time></trkpt><trkpt lon="5.758892" lat="51.134951"><ele>-5.6</ele><time>2022-03-20T08:03:17.000Z</time></trkpt><trkpt lon="5.758989" lat="51.134927"><ele>-5.6</ele><time>2022-03-20T08:03:18.000Z</time></trkpt><trkpt lon="5.759085" lat="51.134901"><ele>-5.8</ele><time>2022-03-20T08:03:19.000Z</time></trkpt><trkpt lon="5.759182" lat="51.134875"><ele>-5.8</ele><time>2022-03-20T08:03:20.000Z</time></trkpt><trkpt lon="5.759281" lat="51.134848"><ele>-5.8</ele><time>2022-03-20T08:03:21.000Z</time></trkpt><trkpt lon="5.75938" lat="51.134824"><ele>-5.8</ele><time>2022-03-20T08:03:22.000Z</time></trkpt><trkpt lon="5.759475" lat="51.134801"><ele>-6</ele><time>2022-03-20T08:03:23.000Z</time></trkpt><trkpt lon="5.759569" lat="51.134779"><ele>-6</ele><time>2022-03-20T08:03:24.000Z</time></trkpt><trkpt lon="5.759661" lat="51.134753"><ele>-6</ele><time>2022-03-20T08:03:25.000Z</time></trkpt><trkpt lon="5.759756" lat="51.134732"><ele>-5.8</ele><time>2022-03-20T08:03:26.000Z</time></trkpt><trkpt lon="5.759849" lat="51.13471"><ele>-5.8</ele><time>2022-03-20T08:03:27.000Z</time></trkpt><trkpt lon="5.759946" lat="51.134687"><ele>-6</ele><time>2022-03-20T08:03:28.000Z</time></trkpt><trkpt lon="5.760044" lat="51.134667"><ele>-6</ele><time>2022-03-20T08:03:29.000Z</time></trkpt><trkpt lon="5.760141" lat="51.134648"><ele>-6</ele><time>2022-03-20T08:03:30.000Z</time></trkpt><trkpt lon="5.760239" lat="51.134626"><ele>-6</ele><time>2022-03-20T08:03:31.000Z</time></trkpt><trkpt lon="5.760339" lat="51.134606"><ele>-6</ele><time>2022-03-20T08:03:32.000Z</time></trkpt><trkpt lon="5.760438" lat="51.13459"><ele>-6</ele><time>2022-03-20T08:03:33.000Z</time></trkpt><trkpt lon="5.760533" lat="51.134572"><ele>-6</ele><time>2022-03-20T08:03:34.000Z</time></trkpt><trkpt lon="5.760629" lat="51.134556"><ele>-5.8</ele><time>2022-03-20T08:03:35.000Z</time></trkpt><trkpt lon="5.760725" lat="51.13454"><ele>-5.8</ele><time>2022-03-20T08:03:36.000Z</time></trkpt><trkpt lon="5.760823" lat="51.134525"><ele>-5.8</ele><time>2022-03-20T08:03:37.000Z</time></trkpt><trkpt lon="5.760919" lat="51.134513"><ele>-5.8</ele><time>2022-03-20T08:03:38.000Z</time></trkpt><trkpt lon="5.761016" lat="51.134498"><ele>-5.8</ele><time>2022-03-20T08:03:39.000Z</time></trkpt><trkpt lon="5.761114" lat="51.134483"><ele>-5.8</ele><time>2022-03-20T08:03:40.000Z</time></trkpt><trkpt lon="5.761211" lat="51.134465"><ele>-5.8</ele><time>2022-03-20T08:03:41.000Z</time></trkpt><trkpt lon="5.761311" lat="51.134449"><ele>-5.8</ele><time>2022-03-20T08:03:42.000Z</time></trkpt><trkpt lon="5.761412" lat="51.134433"><ele>-5.8</ele><time>2022-03-20T08:03:43.000Z</time></trkpt><trkpt lon="5.761514" lat="51.134421"><ele>-5.8</ele><time>2022-03-20T08:03:44.000Z</time></trkpt><trkpt lon="5.761618" lat="51.134407"><ele>-5.8</ele><time>2022-03-20T08:03:45.000Z</time></trkpt><trkpt lon="5.761717" lat="51.134392"><ele>-5.8</ele><time>2022-03-20T08:03:46.000Z</time></trkpt><trkpt lon="5.761818" lat="51.134377"><ele>-5.8</ele><time>2022-03-20T08:03:47.000Z</time></trkpt><trkpt lon="5.761923" lat="51.134361"><ele>-5.8</ele><time>2022-03-20T08:03:48.000Z</time></trkpt><trkpt lon="5.762023" lat="51.134349"><ele>-5.8</ele><time>2022-03-20T08:03:49.000Z</time></trkpt><trkpt lon="5.762122" lat="51.134334"><ele>-5.8</ele><time>2022-03-20T08:03:50.000Z</time></trkpt><trkpt lon="5.762223" lat="51.134319"><ele>-5.8</ele><time>2022-03-20T08:03:51.000Z</time></trkpt><trkpt lon="5.762323" lat="51.134304"><ele>-5.8</ele><time>2022-03-20T08:03:52.000Z</time></trkpt><trkpt lon="5.762426" lat="51.134289"><ele>-5.8</ele><time>2022-03-20T08:03:53.000Z</time></trkpt><trkpt lon="5.762527" lat="51.134276"><ele>-5.6</ele><time>2022-03-20T08:03:54.000Z</time></trkpt><trkpt lon="5.762631" lat="51.134262"><ele>-5.6</ele><time>2022-03-20T08:03:55.000Z</time></trkpt><trkpt lon="5.762733" lat="51.134247"><ele>-5.6</ele><time>2022-03-20T08:03:56.000Z</time></trkpt><trkpt lon="5.762833" lat="51.134231"><ele>-5.4</ele><time>2022-03-20T08:03:57.000Z</time></trkpt><trkpt lon="5.762934" lat="51.134216"><ele>-5.4</ele><time>2022-03-20T08:03:58.000Z</time></trkpt><trkpt lon="5.763031" lat="51.134201"><ele>-5.4</ele><time>2022-03-20T08:03:59.000Z</time></trkpt><trkpt lon="5.763129" lat="51.134183"><ele>-5.4</ele><time>2022-03-20T08:04:00.000Z</time></trkpt><trkpt lon="5.763224" lat="51.134169"><ele>-5.6</ele><time>2022-03-20T08:04:01.000Z</time></trkpt><trkpt lon="5.763317" lat="51.134155"><ele>-5.8</ele><time>2022-03-20T08:04:02.000Z</time></trkpt><trkpt lon="5.763414" lat="51.13414"><ele>-5.8</ele><time>2022-03-20T08:04:03.000Z</time></trkpt><trkpt lon="5.763514" lat="51.134124"><ele>-5.8</ele><time>2022-03-20T08:04:04.000Z</time></trkpt><trkpt lon="5.763614" lat="51.134112"><ele>-5.8</ele><time>2022-03-20T08:04:05.000Z</time></trkpt><trkpt lon="5.763714" lat="51.134101"><ele>-5.8</ele><time>2022-03-20T08:04:06.000Z</time></trkpt><trkpt lon="5.763814" lat="51.134089"><ele>-5.8</ele><time>2022-03-20T08:04:07.000Z</time></trkpt><trkpt lon="5.76392" lat="51.134081"><ele>-5.8</ele><time>2022-03-20T08:04:08.000Z</time></trkpt><trkpt lon="5.764025" lat="51.134073"><ele>-5.8</ele><time>2022-03-20T08:04:09.000Z</time></trkpt><trkpt lon="5.764131" lat="51.134066"><ele>-5.8</ele><time>2022-03-20T08:04:10.000Z</time></trkpt><trkpt lon="5.764238" lat="51.134061"><ele>-6</ele><time>2022-03-20T08:04:11.000Z</time></trkpt><trkpt lon="5.764342" lat="51.134054"><ele>-5.8</ele><time>2022-03-20T08:04:12.000Z</time></trkpt><trkpt lon="5.764446" lat="51.134049"><ele>-5.8</ele><time>2022-03-20T08:04:13.000Z</time></trkpt><trkpt lon="5.764548" lat="51.134046"><ele>-5.8</ele><time>2022-03-20T08:04:14.000Z</time></trkpt><trkpt lon="5.764649" lat="51.134042"><ele>-5.8</ele><time>2022-03-20T08:04:15.000Z</time></trkpt><trkpt lon="5.76475" lat="51.134041"><ele>-5.8</ele><time>2022-03-20T08:04:16.000Z</time></trkpt><trkpt lon="5.764853" lat="51.134038"><ele>-5.8</ele><time>2022-03-20T08:04:17.000Z</time></trkpt><trkpt lon="5.764954" lat="51.134034"><ele>-5.6</ele><time>2022-03-20T08:04:18.000Z</time></trkpt><trkpt lon="5.765057" lat="51.134033"><ele>-5.6</ele><time>2022-03-20T08:04:19.000Z</time></trkpt><trkpt lon="5.76516" lat="51.13403"><ele>-5.6</ele><time>2022-03-20T08:04:20.000Z</time></trkpt><trkpt lon="5.765261" lat="51.134024"><ele>-5.6</ele><time>2022-03-20T08:04:21.000Z</time></trkpt><trkpt lon="5.765362" lat="51.134022"><ele>-5.4</ele><time>2022-03-20T08:04:22.000Z</time></trkpt><trkpt lon="5.76546" lat="51.134019"><ele>-5.4</ele><time>2022-03-20T08:04:23.000Z</time></trkpt><trkpt lon="5.76556" lat="51.134012"><ele>-5.4</ele><time>2022-03-20T08:04:24.000Z</time></trkpt><trkpt lon="5.765657" lat="51.13401"><ele>-5.2</ele><time>2022-03-20T08:04:25.000Z</time></trkpt><trkpt lon="5.765757" lat="51.134007"><ele>-5.2</ele><time>2022-03-20T08:04:26.000Z</time></trkpt><trkpt lon="5.765855" lat="51.134004"><ele>-5.2</ele><time>2022-03-20T08:04:27.000Z</time></trkpt><trkpt lon="5.765954" lat="51.134"><ele>-5.2</ele><time>2022-03-20T08:04:28.000Z</time></trkpt><trkpt lon="5.766055" lat="51.133996"><ele>-5.4</ele><time>2022-03-20T08:04:29.000Z</time></trkpt><trkpt lon="5.766159" lat="51.133995"><ele>-5.6</ele><time>2022-03-20T08:04:30.000Z</time></trkpt><trkpt lon="5.766262" lat="51.133992"><ele>-5.8</ele><time>2022-03-20T08:04:31.000Z</time></trkpt><trkpt lon="5.766362" lat="51.133988"><ele>-5.8</ele><time>2022-03-20T08:04:32.000Z</time></trkpt><trkpt lon="5.766457" lat="51.133985"><ele>-6</ele><time>2022-03-20T08:04:33.000Z</time></trkpt><trkpt lon="5.766555" lat="51.133984"><ele>-6</ele><time>2022-03-20T08:04:34.000Z</time></trkpt><trkpt lon="5.76665" lat="51.133981"><ele>-6</ele><time>2022-03-20T08:04:35.000Z</time></trkpt><trkpt lon="5.766743" lat="51.133977"><ele>-6</ele><time>2022-03-20T08:04:36.000Z</time></trkpt><trkpt lon="5.766834" lat="51.133973"><ele>-6</ele><time>2022-03-20T08:04:37.000Z</time></trkpt><trkpt lon="5.766923" lat="51.133969"><ele>-6</ele><time>2022-03-20T08:04:38.000Z</time></trkpt><trkpt lon="5.767006" lat="51.133968"><ele>-5.8</ele><time>2022-03-20T08:04:39.000Z</time></trkpt><trkpt lon="5.767079" lat="51.13396"><ele>-5.8</ele><time>2022-03-20T08:04:40.000Z</time></trkpt><trkpt lon="5.767135" lat="51.133943"><ele>-5.8</ele><time>2022-03-20T08:04:41.000Z</time></trkpt><trkpt lon="5.767174" lat="51.133907"><ele>-5.6</ele><time>2022-03-20T08:04:42.000Z</time></trkpt><trkpt lon="5.767196" lat="51.133854"><ele>-5.6</ele><time>2022-03-20T08:04:43.000Z</time></trkpt><trkpt lon="5.767208" lat="51.133789"><ele>-5.6</ele><time>2022-03-20T08:04:44.000Z</time></trkpt><trkpt lon="5.767219" lat="51.133725"><ele>-5.6</ele><time>2022-03-20T08:04:45.000Z</time></trkpt><trkpt lon="5.767234" lat="51.133657"><ele>-5.6</ele><time>2022-03-20T08:04:46.000Z</time></trkpt><trkpt lon="5.767246" lat="51.133585"><ele>-5.8</ele><time>2022-03-20T08:04:47.000Z</time></trkpt><trkpt lon="5.767256" lat="51.133515"><ele>-5.8</ele><time>2022-03-20T08:04:48.000Z</time></trkpt><trkpt lon="5.767266" lat="51.133447"><ele>-5.8</ele><time>2022-03-20T08:04:49.000Z</time></trkpt><trkpt lon="5.767277" lat="51.133379"><ele>-6</ele><time>2022-03-20T08:04:50.000Z</time></trkpt><trkpt lon="5.767289" lat="51.133314"><ele>-6</ele><time>2022-03-20T08:04:51.000Z</time></trkpt><trkpt lon="5.767302" lat="51.133245"><ele>-6.2</ele><time>2022-03-20T08:04:52.000Z</time></trkpt><trkpt lon="5.767315" lat="51.133178"><ele>-6.2</ele><time>2022-03-20T08:04:53.000Z</time></trkpt><trkpt lon="5.767326" lat="51.13311"><ele>-6.4</ele><time>2022-03-20T08:04:54.000Z</time></trkpt><trkpt lon="5.767336" lat="51.133042"><ele>-6.6</ele><time>2022-03-20T08:04:55.000Z</time></trkpt><trkpt lon="5.767346" lat="51.132974"><ele>-6.8</ele><time>2022-03-20T08:04:56.000Z</time></trkpt><trkpt lon="5.767357" lat="51.132905"><ele>-6.8</ele><time>2022-03-20T08:04:57.000Z</time></trkpt><trkpt lon="5.767368" lat="51.132836"><ele>-7</ele><time>2022-03-20T08:04:58.000Z</time></trkpt><trkpt lon="5.76738" lat="51.132767"><ele>-7</ele><time>2022-03-20T08:04:59.000Z</time></trkpt><trkpt lon="5.767392" lat="51.132701"><ele>-7</ele><time>2022-03-20T08:05:00.000Z</time></trkpt><trkpt lon="5.767405" lat="51.132637"><ele>-7.2</ele><time>2022-03-20T08:05:01.000Z</time></trkpt><trkpt lon="5.767421" lat="51.13257"><ele>-7.2</ele><time>2022-03-20T08:05:02.000Z</time></trkpt><trkpt lon="5.76744" lat="51.132503"><ele>-7.2</ele><time>2022-03-20T08:05:03.000Z</time></trkpt><trkpt lon="5.767463" lat="51.132435"><ele>-7.2</ele><time>2022-03-20T08:05:04.000Z</time></trkpt><trkpt lon="5.767485" lat="51.132369"><ele>-7.2</ele><time>2022-03-20T08:05:05.000Z</time></trkpt><trkpt lon="5.767507" lat="51.132305"><ele>-7.2</ele><time>2022-03-20T08:05:06.000Z</time></trkpt><trkpt lon="5.767528" lat="51.132246"><ele>-7.2</ele><time>2022-03-20T08:05:07.000Z</time></trkpt><trkpt lon="5.76755" lat="51.132186"><ele>-7.2</ele><time>2022-03-20T08:05:08.000Z</time></trkpt><trkpt lon="5.767574" lat="51.132125"><ele>-7.2</ele><time>2022-03-20T08:05:09.000Z</time></trkpt><trkpt lon="5.7676" lat="51.132069"><ele>-7</ele><time>2022-03-20T08:05:10.000Z</time></trkpt><trkpt lon="5.767625" lat="51.132008"><ele>-7</ele><time>2022-03-20T08:05:11.000Z</time></trkpt><trkpt lon="5.767652" lat="51.131946"><ele>-7</ele><time>2022-03-20T08:05:12.000Z</time></trkpt><trkpt lon="5.76768" lat="51.131881"><ele>-7</ele><time>2022-03-20T08:05:13.000Z</time></trkpt><trkpt lon="5.76771" lat="51.13182"><ele>-7</ele><time>2022-03-20T08:05:14.000Z</time></trkpt><trkpt lon="5.767742" lat="51.131758"><ele>-7</ele><time>2022-03-20T08:05:15.000Z</time></trkpt><trkpt lon="5.767777" lat="51.131697"><ele>-7</ele><time>2022-03-20T08:05:16.000Z</time></trkpt><trkpt lon="5.767813" lat="51.131637"><ele>-7</ele><time>2022-03-20T08:05:17.000Z</time></trkpt><trkpt lon="5.767851" lat="51.131576"><ele>-7</ele><time>2022-03-20T08:05:18.000Z</time></trkpt><trkpt lon="5.76789" lat="51.131511"><ele>-7</ele><time>2022-03-20T08:05:19.000Z</time></trkpt><trkpt lon="5.767926" lat="51.13145"><ele>-7</ele><time>2022-03-20T08:05:20.000Z</time></trkpt><trkpt lon="5.767961" lat="51.131387"><ele>-7</ele><time>2022-03-20T08:05:21.000Z</time></trkpt><trkpt lon="5.767997" lat="51.131324"><ele>-6.8</ele><time>2022-03-20T08:05:22.000Z</time></trkpt><trkpt lon="5.768028" lat="51.131259"><ele>-6.8</ele><time>2022-03-20T08:05:23.000Z</time></trkpt><trkpt lon="5.768058" lat="51.131198"><ele>-6.6</ele><time>2022-03-20T08:05:24.000Z</time></trkpt><trkpt lon="5.768087" lat="51.131137"><ele>-6.4</ele><time>2022-03-20T08:05:25.000Z</time></trkpt><trkpt lon="5.768115" lat="51.131074"><ele>-6.4</ele><time>2022-03-20T08:05:26.000Z</time></trkpt><trkpt lon="5.768143" lat="51.131012"><ele>-6.2</ele><time>2022-03-20T08:05:27.000Z</time></trkpt><trkpt lon="5.76817" lat="51.130948"><ele>-6.2</ele><time>2022-03-20T08:05:28.000Z</time></trkpt><trkpt lon="5.768193" lat="51.130883"><ele>-6.2</ele><time>2022-03-20T08:05:29.000Z</time></trkpt><trkpt lon="5.768216" lat="51.130817"><ele>-6.2</ele><time>2022-03-20T08:05:30.000Z</time></trkpt><trkpt lon="5.76824" lat="51.130752"><ele>-6.2</ele><time>2022-03-20T08:05:31.000Z</time></trkpt><trkpt lon="5.768262" lat="51.130684"><ele>-6.2</ele><time>2022-03-20T08:05:32.000Z</time></trkpt><trkpt lon="5.76828" lat="51.130622"><ele>-6.2</ele><time>2022-03-20T08:05:33.000Z</time></trkpt><trkpt lon="5.768298" lat="51.130554"><ele>-6.2</ele><time>2022-03-20T08:05:34.000Z</time></trkpt><trkpt lon="5.768313" lat="51.130489"><ele>-6.2</ele><time>2022-03-20T08:05:35.000Z</time></trkpt><trkpt lon="5.76833" lat="51.130421"><ele>-6</ele><time>2022-03-20T08:05:36.000Z</time></trkpt><trkpt lon="5.768346" lat="51.130357"><ele>-6.2</ele><time>2022-03-20T08:05:37.000Z</time></trkpt><trkpt lon="5.768364" lat="51.130289"><ele>-6.2</ele><time>2022-03-20T08:05:38.000Z</time></trkpt><trkpt lon="5.768384" lat="51.130219"><ele>-6.2</ele><time>2022-03-20T08:05:39.000Z</time></trkpt><trkpt lon="5.768405" lat="51.13015"><ele>-6.2</ele><time>2022-03-20T08:05:40.000Z</time></trkpt><trkpt lon="5.768427" lat="51.130081"><ele>-6.2</ele><time>2022-03-20T08:05:41.000Z</time></trkpt><trkpt lon="5.768447" lat="51.13001"><ele>-6.2</ele><time>2022-03-20T08:05:42.000Z</time></trkpt><trkpt lon="5.768467" lat="51.129939"><ele>-6.4</ele><time>2022-03-20T08:05:43.000Z</time></trkpt><trkpt lon="5.76849" lat="51.129866"><ele>-6.4</ele><time>2022-03-20T08:05:44.000Z</time></trkpt><trkpt lon="5.768509" lat="51.129797"><ele>-6.4</ele><time>2022-03-20T08:05:45.000Z</time></trkpt><trkpt lon="5.768528" lat="51.129729"><ele>-6.6</ele><time>2022-03-20T08:05:46.000Z</time></trkpt><trkpt lon="5.768547" lat="51.129659"><ele>-6.6</ele><time>2022-03-20T08:05:47.000Z</time></trkpt><trkpt lon="5.768566" lat="51.129592"><ele>-6.8</ele><time>2022-03-20T08:05:48.000Z</time></trkpt><trkpt lon="5.768588" lat="51.129522"><ele>-7</ele><time>2022-03-20T08:05:49.000Z</time></trkpt><trkpt lon="5.76861" lat="51.129453"><ele>-6.8</ele><time>2022-03-20T08:05:50.000Z</time></trkpt><trkpt lon="5.768633" lat="51.129384"><ele>-7</ele><time>2022-03-20T08:05:51.000Z</time></trkpt><trkpt lon="5.768655" lat="51.129315"><ele>-7</ele><time>2022-03-20T08:05:52.000Z</time></trkpt><trkpt lon="5.768676" lat="51.129247"><ele>-7</ele><time>2022-03-20T08:05:53.000Z</time></trkpt><trkpt lon="5.768698" lat="51.129178"><ele>-7</ele><time>2022-03-20T08:05:54.000Z</time></trkpt><trkpt lon="5.768719" lat="51.129107"><ele>-7</ele><time>2022-03-20T08:05:55.000Z</time></trkpt><trkpt lon="5.76874" lat="51.129034"><ele>-7</ele><time>2022-03-20T08:05:56.000Z</time></trkpt><trkpt lon="5.768763" lat="51.128964"><ele>-7</ele><time>2022-03-20T08:05:57.000Z</time></trkpt><trkpt lon="5.768785" lat="51.128898"><ele>-7.2</ele><time>2022-03-20T08:05:58.000Z</time></trkpt><trkpt lon="5.768806" lat="51.128832"><ele>-7.2</ele><time>2022-03-20T08:05:59.000Z</time></trkpt><trkpt lon="5.768827" lat="51.128762"><ele>-7.2</ele><time>2022-03-20T08:06:00.000Z</time></trkpt><trkpt lon="5.768846" lat="51.128696"><ele>-7</ele><time>2022-03-20T08:06:01.000Z</time></trkpt><trkpt lon="5.768865" lat="51.128629"><ele>-7</ele><time>2022-03-20T08:06:02.000Z</time></trkpt><trkpt lon="5.768885" lat="51.128564"><ele>-7</ele><time>2022-03-20T08:06:03.000Z</time></trkpt><trkpt lon="5.768907" lat="51.128498"><ele>-7</ele><time>2022-03-20T08:06:04.000Z</time></trkpt><trkpt lon="5.768928" lat="51.128433"><ele>-6.8</ele><time>2022-03-20T08:06:05.000Z</time></trkpt><trkpt lon="5.76895" lat="51.128366"><ele>-6.8</ele><time>2022-03-20T08:06:06.000Z</time></trkpt><trkpt lon="5.76897" lat="51.1283"><ele>-6.8</ele><time>2022-03-20T08:06:07.000Z</time></trkpt><trkpt lon="5.76899" lat="51.128232"><ele>-6.8</ele><time>2022-03-20T08:06:08.000Z</time></trkpt><trkpt lon="5.769009" lat="51.128166"><ele>-6.6</ele><time>2022-03-20T08:06:09.000Z</time></trkpt><trkpt lon="5.769028" lat="51.128103"><ele>-6.6</ele><time>2022-03-20T08:06:10.000Z</time></trkpt><trkpt lon="5.769048" lat="51.128038"><ele>-6.6</ele><time>2022-03-20T08:06:11.000Z</time></trkpt><trkpt lon="5.769069" lat="51.127972"><ele>-6.6</ele><time>2022-03-20T08:06:12.000Z</time></trkpt><trkpt lon="5.769089" lat="51.127908"><ele>-6.6</ele><time>2022-03-20T08:06:13.000Z</time></trkpt><trkpt lon="5.769112" lat="51.127843"><ele>-6.6</ele><time>2022-03-20T08:06:14.000Z</time></trkpt><trkpt lon="5.769137" lat="51.12778"><ele>-6.6</ele><time>2022-03-20T08:06:15.000Z</time></trkpt><trkpt lon="5.769163" lat="51.127719"><ele>-6.8</ele><time>2022-03-20T08:06:16.000Z</time></trkpt><trkpt lon="5.76919" lat="51.127655"><ele>-6.8</ele><time>2022-03-20T08:06:17.000Z</time></trkpt><trkpt lon="5.769219" lat="51.127589"><ele>-6.6</ele><time>2022-03-20T08:06:18.000Z</time></trkpt><trkpt lon="5.769247" lat="51.127528"><ele>-6.6</ele><time>2022-03-20T08:06:19.000Z</time></trkpt><trkpt lon="5.769276" lat="51.127464"><ele>-6.6</ele><time>2022-03-20T08:06:20.000Z</time></trkpt><trkpt lon="5.769308" lat="51.127404"><ele>-6.6</ele><time>2022-03-20T08:06:21.000Z</time></trkpt><trkpt lon="5.769342" lat="51.127339"><ele>-6.6</ele><time>2022-03-20T08:06:22.000Z</time></trkpt><trkpt lon="5.769377" lat="51.127276"><ele>-6.6</ele><time>2022-03-20T08:06:23.000Z</time></trkpt><trkpt lon="5.769414" lat="51.127216"><ele>-6.6</ele><time>2022-03-20T08:06:24.000Z</time></trkpt><trkpt lon="5.769454" lat="51.127154"><ele>-6.6</ele><time>2022-03-20T08:06:25.000Z</time></trkpt><trkpt lon="5.769493" lat="51.127093"><ele>-6.4</ele><time>2022-03-20T08:06:26.000Z</time></trkpt><trkpt lon="5.769535" lat="51.127032"><ele>-6.4</ele><time>2022-03-20T08:06:27.000Z</time></trkpt><trkpt lon="5.769577" lat="51.126968"><ele>-6.6</ele><time>2022-03-20T08:06:28.000Z</time></trkpt><trkpt lon="5.769621" lat="51.12691"><ele>-6.6</ele><time>2022-03-20T08:06:29.000Z</time></trkpt><trkpt lon="5.769668" lat="51.12685"><ele>-6.6</ele><time>2022-03-20T08:06:30.000Z</time></trkpt><trkpt lon="5.769717" lat="51.126789"><ele>-6.6</ele><time>2022-03-20T08:06:31.000Z</time></trkpt><trkpt lon="5.769768" lat="51.126727"><ele>-6.6</ele><time>2022-03-20T08:06:32.000Z</time></trkpt><trkpt lon="5.769824" lat="51.126668"><ele>-6.6</ele><time>2022-03-20T08:06:33.000Z</time></trkpt><trkpt lon="5.769883" lat="51.126611"><ele>-6.6</ele><time>2022-03-20T08:06:34.000Z</time></trkpt><trkpt lon="5.769948" lat="51.126557"><ele>-6.6</ele><time>2022-03-20T08:06:35.000Z</time></trkpt><trkpt lon="5.77002" lat="51.126507"><ele>-6.6</ele><time>2022-03-20T08:06:36.000Z</time></trkpt><trkpt lon="5.770099" lat="51.126463"><ele>-6.8</ele><time>2022-03-20T08:06:37.000Z</time></trkpt><trkpt lon="5.770183" lat="51.126418"><ele>-6.8</ele><time>2022-03-20T08:06:38.000Z</time></trkpt><trkpt lon="5.770265" lat="51.126376"><ele>-6.8</ele><time>2022-03-20T08:06:39.000Z</time></trkpt><trkpt lon="5.770351" lat="51.126336"><ele>-6.8</ele><time>2022-03-20T08:06:40.000Z</time></trkpt><trkpt lon="5.770434" lat="51.126298"><ele>-6.8</ele><time>2022-03-20T08:06:41.000Z</time></trkpt><trkpt lon="5.770518" lat="51.126257"><ele>-6.8</ele><time>2022-03-20T08:06:42.000Z</time></trkpt><trkpt lon="5.770602" lat="51.126219"><ele>-6.8</ele><time>2022-03-20T08:06:43.000Z</time></trkpt><trkpt lon="5.770688" lat="51.12618"><ele>-6.8</ele><time>2022-03-20T08:06:44.000Z</time></trkpt><trkpt lon="5.770771" lat="51.126143"><ele>-6.8</ele><time>2022-03-20T08:06:45.000Z</time></trkpt><trkpt lon="5.770854" lat="51.126104"><ele>-6.8</ele><time>2022-03-20T08:06:46.000Z</time></trkpt><trkpt lon="5.770937" lat="51.126066"><ele>-6.8</ele><time>2022-03-20T08:06:47.000Z</time></trkpt><trkpt lon="5.771021" lat="51.126027"><ele>-6.8</ele><time>2022-03-20T08:06:48.000Z</time></trkpt><trkpt lon="5.771104" lat="51.125987"><ele>-6.8</ele><time>2022-03-20T08:06:49.000Z</time></trkpt><trkpt lon="5.771189" lat="51.125947"><ele>-6.6</ele><time>2022-03-20T08:06:50.000Z</time></trkpt><trkpt lon="5.771272" lat="51.125909"><ele>-6.6</ele><time>2022-03-20T08:06:51.000Z</time></trkpt><trkpt lon="5.771355" lat="51.125871"><ele>-6.6</ele><time>2022-03-20T08:06:52.000Z</time></trkpt><trkpt lon="5.771439" lat="51.125833"><ele>-6.6</ele><time>2022-03-20T08:06:53.000Z</time></trkpt><trkpt lon="5.771522" lat="51.125795"><ele>-6.4</ele><time>2022-03-20T08:06:54.000Z</time></trkpt><trkpt lon="5.771605" lat="51.125754"><ele>-6.4</ele><time>2022-03-20T08:06:55.000Z</time></trkpt><trkpt lon="5.771688" lat="51.125715"><ele>-6.2</ele><time>2022-03-20T08:06:56.000Z</time></trkpt><trkpt lon="5.771771" lat="51.125674"><ele>-6.2</ele><time>2022-03-20T08:06:57.000Z</time></trkpt><trkpt lon="5.771853" lat="51.125634"><ele>-6.2</ele><time>2022-03-20T08:06:58.000Z</time></trkpt><trkpt lon="5.771936" lat="51.125593"><ele>-6.2</ele><time>2022-03-20T08:06:59.000Z</time></trkpt><trkpt lon="5.77202" lat="51.125554"><ele>-6</ele><time>2022-03-20T08:07:00.000Z</time></trkpt><trkpt lon="5.772103" lat="51.125514"><ele>-6</ele><time>2022-03-20T08:07:01.000Z</time></trkpt><trkpt lon="5.772186" lat="51.125475"><ele>-6</ele><time>2022-03-20T08:07:02.000Z</time></trkpt><trkpt lon="5.77227" lat="51.125436"><ele>-6</ele><time>2022-03-20T08:07:03.000Z</time></trkpt><trkpt lon="5.772354" lat="51.125395"><ele>-5.8</ele><time>2022-03-20T08:07:04.000Z</time></trkpt><trkpt lon="5.772436" lat="51.125357"><ele>-5.8</ele><time>2022-03-20T08:07:05.000Z</time></trkpt><trkpt lon="5.772522" lat="51.125318"><ele>-5.6</ele><time>2022-03-20T08:07:06.000Z</time></trkpt><trkpt lon="5.772604" lat="51.12528"><ele>-5.6</ele><time>2022-03-20T08:07:07.000Z</time></trkpt><trkpt lon="5.772687" lat="51.125242"><ele>-5.6</ele><time>2022-03-20T08:07:08.000Z</time></trkpt><trkpt lon="5.772769" lat="51.125204"><ele>-5.6</ele><time>2022-03-20T08:07:09.000Z</time></trkpt><trkpt lon="5.772851" lat="51.125162"><ele>-5.6</ele><time>2022-03-20T08:07:10.000Z</time></trkpt><trkpt lon="5.772933" lat="51.125124"><ele>-5.6</ele><time>2022-03-20T08:07:11.000Z</time></trkpt><trkpt lon="5.773019" lat="51.125086"><ele>-5.6</ele><time>2022-03-20T08:07:12.000Z</time></trkpt><trkpt lon="5.773106" lat="51.125047"><ele>-5.6</ele><time>2022-03-20T08:07:13.000Z</time></trkpt><trkpt lon="5.773193" lat="51.125009"><ele>-5.6</ele><time>2022-03-20T08:07:14.000Z</time></trkpt><trkpt lon="5.773281" lat="51.124974"><ele>-5.6</ele><time>2022-03-20T08:07:15.000Z</time></trkpt><trkpt lon="5.77337" lat="51.124939"><ele>-5.6</ele><time>2022-03-20T08:07:16.000Z</time></trkpt><trkpt lon="5.77346" lat="51.124908"><ele>-5.6</ele><time>2022-03-20T08:07:17.000Z</time></trkpt><trkpt lon="5.773553" lat="51.124874"><ele>-5.6</ele><time>2022-03-20T08:07:18.000Z</time></trkpt><trkpt lon="5.773647" lat="51.124846"><ele>-5.6</ele><time>2022-03-20T08:07:19.000Z</time></trkpt><trkpt lon="5.773742" lat="51.12482"><ele>-5.4</ele><time>2022-03-20T08:07:20.000Z</time></trkpt><trkpt lon="5.77384" lat="51.124793"><ele>-5.4</ele><time>2022-03-20T08:07:21.000Z</time></trkpt><trkpt lon="5.773939" lat="51.124769"><ele>-5.6</ele><time>2022-03-20T08:07:22.000Z</time></trkpt><trkpt lon="5.774037" lat="51.124743"><ele>-5.6</ele><time>2022-03-20T08:07:23.000Z</time></trkpt><trkpt lon="5.774138" lat="51.124722"><ele>-5.6</ele><time>2022-03-20T08:07:24.000Z</time></trkpt><trkpt lon="5.774238" lat="51.124703"><ele>-5.6</ele><time>2022-03-20T08:07:25.000Z</time></trkpt><trkpt lon="5.774337" lat="51.124684"><ele>-5.6</ele><time>2022-03-20T08:07:26.000Z</time></trkpt><trkpt lon="5.774437" lat="51.124668"><ele>-5.6</ele><time>2022-03-20T08:07:27.000Z</time></trkpt><trkpt lon="5.774537" lat="51.124652"><ele>-5.8</ele><time>2022-03-20T08:07:28.000Z</time></trkpt><trkpt lon="5.774636" lat="51.124637"><ele>-5.8</ele><time>2022-03-20T08:07:29.000Z</time></trkpt><trkpt lon="5.774738" lat="51.124625"><ele>-5.6</ele><time>2022-03-20T08:07:30.000Z</time></trkpt><trkpt lon="5.774839" lat="51.124611"><ele>-5.4</ele><time>2022-03-20T08:07:31.000Z</time></trkpt><trkpt lon="5.77494" lat="51.124595"><ele>-5.4</ele><time>2022-03-20T08:07:32.000Z</time></trkpt><trkpt lon="5.775041" lat="51.12458"><ele>-5.4</ele><time>2022-03-20T08:07:33.000Z</time></trkpt><trkpt lon="5.775145" lat="51.124565"><ele>-5.4</ele><time>2022-03-20T08:07:34.000Z</time></trkpt><trkpt lon="5.775248" lat="51.124549"><ele>-5.4</ele><time>2022-03-20T08:07:35.000Z</time></trkpt><trkpt lon="5.775346" lat="51.124532"><ele>-5.4</ele><time>2022-03-20T08:07:36.000Z</time></trkpt><trkpt lon="5.775444" lat="51.124513"><ele>-5.4</ele><time>2022-03-20T08:07:37.000Z</time></trkpt><trkpt lon="5.775549" lat="51.124493"><ele>-5.4</ele><time>2022-03-20T08:07:38.000Z</time></trkpt><trkpt lon="5.775649" lat="51.124475"><ele>-5.4</ele><time>2022-03-20T08:07:39.000Z</time></trkpt><trkpt lon="5.77575" lat="51.124453"><ele>-5.2</ele><time>2022-03-20T08:07:40.000Z</time></trkpt><trkpt lon="5.775854" lat="51.124432"><ele>-5.2</ele><time>2022-03-20T08:07:41.000Z</time></trkpt><trkpt lon="5.775954" lat="51.12441"><ele>-5.2</ele><time>2022-03-20T08:07:42.000Z</time></trkpt><trkpt lon="5.776052" lat="51.124388"><ele>-5.2</ele><time>2022-03-20T08:07:43.000Z</time></trkpt><trkpt lon="5.776153" lat="51.124365"><ele>-5.4</ele><time>2022-03-20T08:07:44.000Z</time></trkpt><trkpt lon="5.776251" lat="51.124339"><ele>-5.2</ele><time>2022-03-20T08:07:45.000Z</time></trkpt><trkpt lon="5.776348" lat="51.124315"><ele>-5.4</ele><time>2022-03-20T08:07:46.000Z</time></trkpt><trkpt lon="5.776445" lat="51.124292"><ele>-5.4</ele><time>2022-03-20T08:07:47.000Z</time></trkpt><trkpt lon="5.776542" lat="51.124266"><ele>-5.4</ele><time>2022-03-20T08:07:48.000Z</time></trkpt><trkpt lon="5.77664" lat="51.124242"><ele>-5.4</ele><time>2022-03-20T08:07:49.000Z</time></trkpt><trkpt lon="5.776735" lat="51.12422"><ele>-5.6</ele><time>2022-03-20T08:07:50.000Z</time></trkpt><trkpt lon="5.776832" lat="51.124194"><ele>-5.6</ele><time>2022-03-20T08:07:51.000Z</time></trkpt><trkpt lon="5.776932" lat="51.12417"><ele>-5.6</ele><time>2022-03-20T08:07:52.000Z</time></trkpt><trkpt lon="5.777032" lat="51.124147"><ele>-5.6</ele><time>2022-03-20T08:07:53.000Z</time></trkpt><trkpt lon="5.777131" lat="51.124121"><ele>-5.8</ele><time>2022-03-20T08:07:54.000Z</time></trkpt><trkpt lon="5.777227" lat="51.124095"><ele>-5.8</ele><time>2022-03-20T08:07:55.000Z</time></trkpt><trkpt lon="5.777325" lat="51.124071"><ele>-5.8</ele><time>2022-03-20T08:07:56.000Z</time></trkpt><trkpt lon="5.777423" lat="51.124048"><ele>-5.6</ele><time>2022-03-20T08:07:57.000Z</time></trkpt><trkpt lon="5.777519" lat="51.124025"><ele>-5.6</ele><time>2022-03-20T08:07:58.000Z</time></trkpt><trkpt lon="5.777614" lat="51.124002"><ele>-5.6</ele><time>2022-03-20T08:07:59.000Z</time></trkpt><trkpt lon="5.77771" lat="51.123982"><ele>-5.6</ele><time>2022-03-20T08:08:00.000Z</time></trkpt><trkpt lon="5.777804" lat="51.123963"><ele>-5.8</ele><time>2022-03-20T08:08:01.000Z</time></trkpt><trkpt lon="5.777902" lat="51.123944"><ele>-5.8</ele><time>2022-03-20T08:08:02.000Z</time></trkpt><trkpt lon="5.778001" lat="51.123925"><ele>-5.8</ele><time>2022-03-20T08:08:03.000Z</time></trkpt><trkpt lon="5.778097" lat="51.123906"><ele>-6</ele><time>2022-03-20T08:08:04.000Z</time></trkpt><trkpt lon="5.778194" lat="51.123887"><ele>-6</ele><time>2022-03-20T08:08:05.000Z</time></trkpt><trkpt lon="5.778293" lat="51.123868"><ele>-6</ele><time>2022-03-20T08:08:06.000Z</time></trkpt><trkpt lon="5.778394" lat="51.123849"><ele>-6.2</ele><time>2022-03-20T08:08:07.000Z</time></trkpt><trkpt lon="5.778491" lat="51.123832"><ele>-6.2</ele><time>2022-03-20T08:08:08.000Z</time></trkpt><trkpt lon="5.778591" lat="51.123814"><ele>-6.2</ele><time>2022-03-20T08:08:09.000Z</time></trkpt><trkpt lon="5.77869" lat="51.123798"><ele>-6</ele><time>2022-03-20T08:08:10.000Z</time></trkpt><trkpt lon="5.778785" lat="51.12378"><ele>-6</ele><time>2022-03-20T08:08:11.000Z</time></trkpt><trkpt lon="5.778884" lat="51.123764"><ele>-5.8</ele><time>2022-03-20T08:08:12.000Z</time></trkpt><trkpt lon="5.77898" lat="51.123748"><ele>-6</ele><time>2022-03-20T08:08:13.000Z</time></trkpt><trkpt lon="5.779076" lat="51.12373"><ele>-6</ele><time>2022-03-20T08:08:14.000Z</time></trkpt><trkpt lon="5.779172" lat="51.123711"><ele>-6</ele><time>2022-03-20T08:08:15.000Z</time></trkpt><trkpt lon="5.779268" lat="51.123695"><ele>-6</ele><time>2022-03-20T08:08:16.000Z</time></trkpt><trkpt lon="5.779362" lat="51.123677"><ele>-6</ele><time>2022-03-20T08:08:17.000Z</time></trkpt><trkpt lon="5.77946" lat="51.123658"><ele>-6</ele><time>2022-03-20T08:08:18.000Z</time></trkpt><trkpt lon="5.779559" lat="51.123642"><ele>-6</ele><time>2022-03-20T08:08:19.000Z</time></trkpt><trkpt lon="5.779656" lat="51.123623"><ele>-6.2</ele><time>2022-03-20T08:08:20.000Z</time></trkpt><trkpt lon="5.779754" lat="51.123604"><ele>-6.2</ele><time>2022-03-20T08:08:21.000Z</time></trkpt><trkpt lon="5.779852" lat="51.123588"><ele>-6.4</ele><time>2022-03-20T08:08:22.000Z</time></trkpt><trkpt lon="5.77995" lat="51.12357"><ele>-6.2</ele><time>2022-03-20T08:08:23.000Z</time></trkpt><trkpt lon="5.780047" lat="51.123551"><ele>-6</ele><time>2022-03-20T08:08:24.000Z</time></trkpt><trkpt lon="5.780145" lat="51.123535"><ele>-6</ele><time>2022-03-20T08:08:25.000Z</time></trkpt><trkpt lon="5.780243" lat="51.12352"><ele>-5.8</ele><time>2022-03-20T08:08:26.000Z</time></trkpt><trkpt lon="5.780343" lat="51.123501"><ele>-6</ele><time>2022-03-20T08:08:27.000Z</time></trkpt><trkpt lon="5.780443" lat="51.123485"><ele>-5.8</ele><time>2022-03-20T08:08:28.000Z</time></trkpt><trkpt lon="5.780539" lat="51.123467"><ele>-6</ele><time>2022-03-20T08:08:29.000Z</time></trkpt><trkpt lon="5.78064" lat="51.123448"><ele>-5.8</ele><time>2022-03-20T08:08:30.000Z</time></trkpt><trkpt lon="5.780737" lat="51.123432"><ele>-5.8</ele><time>2022-03-20T08:08:31.000Z</time></trkpt><trkpt lon="5.780837" lat="51.123414"><ele>-5.8</ele><time>2022-03-20T08:08:32.000Z</time></trkpt><trkpt lon="5.780936" lat="51.123398"><ele>-5.8</ele><time>2022-03-20T08:08:33.000Z</time></trkpt><trkpt lon="5.781035" lat="51.123382"><ele>-5.8</ele><time>2022-03-20T08:08:34.000Z</time></trkpt><trkpt lon="5.781134" lat="51.123364"><ele>-6</ele><time>2022-03-20T08:08:35.000Z</time></trkpt><trkpt lon="5.781232" lat="51.123345"><ele>-6</ele><time>2022-03-20T08:08:36.000Z</time></trkpt><trkpt lon="5.781332" lat="51.123326"><ele>-6</ele><time>2022-03-20T08:08:37.000Z</time></trkpt><trkpt lon="5.781431" lat="51.12331"><ele>-6</ele><time>2022-03-20T08:08:38.000Z</time></trkpt><trkpt lon="5.781531" lat="51.123295"><ele>-5.8</ele><time>2022-03-20T08:08:39.000Z</time></trkpt><trkpt lon="5.781628" lat="51.123277"><ele>-5.8</ele><time>2022-03-20T08:08:40.000Z</time></trkpt><trkpt lon="5.781727" lat="51.12326"><ele>-5.8</ele><time>2022-03-20T08:08:41.000Z</time></trkpt><trkpt lon="5.781827" lat="51.123242"><ele>-5.6</ele><time>2022-03-20T08:08:42.000Z</time></trkpt><trkpt lon="5.781924" lat="51.123223"><ele>-5.6</ele><time>2022-03-20T08:08:43.000Z</time></trkpt><trkpt lon="5.782021" lat="51.123207"><ele>-5.8</ele><time>2022-03-20T08:08:44.000Z</time></trkpt><trkpt lon="5.782118" lat="51.123192"><ele>-5.8</ele><time>2022-03-20T08:08:45.000Z</time></trkpt><trkpt lon="5.782215" lat="51.123176"><ele>-5.8</ele><time>2022-03-20T08:08:46.000Z</time></trkpt><trkpt lon="5.782312" lat="51.123158"><ele>-5.8</ele><time>2022-03-20T08:08:47.000Z</time></trkpt><trkpt lon="5.782411" lat="51.123142"><ele>-5.8</ele><time>2022-03-20T08:08:48.000Z</time></trkpt><trkpt lon="5.782507" lat="51.123124"><ele>-5.8</ele><time>2022-03-20T08:08:49.000Z</time></trkpt><trkpt lon="5.782606" lat="51.123108"><ele>-5.8</ele><time>2022-03-20T08:08:50.000Z</time></trkpt><trkpt lon="5.782707" lat="51.123092"><ele>-5.8</ele><time>2022-03-20T08:08:51.000Z</time></trkpt><trkpt lon="5.782806" lat="51.123074"><ele>-5.8</ele><time>2022-03-20T08:08:52.000Z</time></trkpt><trkpt lon="5.782903" lat="51.123058"><ele>-5.6</ele><time>2022-03-20T08:08:53.000Z</time></trkpt><trkpt lon="5.783001" lat="51.12304"><ele>-5.6</ele><time>2022-03-20T08:08:54.000Z</time></trkpt><trkpt lon="5.783098" lat="51.123024"><ele>-5.4</ele><time>2022-03-20T08:08:55.000Z</time></trkpt><trkpt lon="5.783196" lat="51.123006"><ele>-5.4</ele><time>2022-03-20T08:08:56.000Z</time></trkpt><trkpt lon="5.783294" lat="51.122989"><ele>-5.2</ele><time>2022-03-20T08:08:57.000Z</time></trkpt><trkpt lon="5.783392" lat="51.122971"><ele>-5.2</ele><time>2022-03-20T08:08:58.000Z</time></trkpt><trkpt lon="5.783489" lat="51.122955"><ele>-5.4</ele><time>2022-03-20T08:08:59.000Z</time></trkpt><trkpt lon="5.783583" lat="51.12294"><ele>-5.2</ele><time>2022-03-20T08:09:00.000Z</time></trkpt><trkpt lon="5.783677" lat="51.122922"><ele>-5.2</ele><time>2022-03-20T08:09:01.000Z</time></trkpt><trkpt lon="5.783773" lat="51.122903"><ele>-5</ele><time>2022-03-20T08:09:02.000Z</time></trkpt><trkpt lon="5.783871" lat="51.122886"><ele>-5.2</ele><time>2022-03-20T08:09:03.000Z</time></trkpt><trkpt lon="5.783968" lat="51.122871"><ele>-5.2</ele><time>2022-03-20T08:09:04.000Z</time></trkpt><trkpt lon="5.784063" lat="51.122856"><ele>-5.2</ele><time>2022-03-20T08:09:05.000Z</time></trkpt><trkpt lon="5.78416" lat="51.122841"><ele>-5.2</ele><time>2022-03-20T08:09:06.000Z</time></trkpt><trkpt lon="5.784259" lat="51.122825"><ele>-5</ele><time>2022-03-20T08:09:07.000Z</time></trkpt><trkpt lon="5.784357" lat="51.122813"><ele>-5</ele><time>2022-03-20T08:09:08.000Z</time></trkpt><trkpt lon="5.784455" lat="51.122807"><ele>-5.2</ele><time>2022-03-20T08:09:09.000Z</time></trkpt><trkpt lon="5.784548" lat="51.12281"><ele>-5.2</ele><time>2022-03-20T08:09:10.000Z</time></trkpt><trkpt lon="5.784636" lat="51.122828"><ele>-5</ele><time>2022-03-20T08:09:11.000Z</time></trkpt><trkpt lon="5.784722" lat="51.122853"><ele>-5</ele><time>2022-03-20T08:09:12.000Z</time></trkpt><trkpt lon="5.784804" lat="51.122889"><ele>-5</ele><time>2022-03-20T08:09:13.000Z</time></trkpt><trkpt lon="5.784884" lat="51.122927"><ele>-5</ele><time>2022-03-20T08:09:14.000Z</time></trkpt><trkpt lon="5.784965" lat="51.122962"><ele>-5</ele><time>2022-03-20T08:09:15.000Z</time></trkpt><trkpt lon="5.78505" lat="51.122997"><ele>-5</ele><time>2022-03-20T08:09:16.000Z</time></trkpt><trkpt lon="5.785138" lat="51.123028"><ele>-5</ele><time>2022-03-20T08:09:17.000Z</time></trkpt><trkpt lon="5.785228" lat="51.123053"><ele>-5.2</ele><time>2022-03-20T08:09:18.000Z</time></trkpt><trkpt lon="5.785321" lat="51.12307"><ele>-5.2</ele><time>2022-03-20T08:09:19.000Z</time></trkpt><trkpt lon="5.78541" lat="51.123082"><ele>-5.2</ele><time>2022-03-20T08:09:20.000Z</time></trkpt><trkpt lon="5.785504" lat="51.123088"><ele>-5.2</ele><time>2022-03-20T08:09:21.000Z</time></trkpt><trkpt lon="5.785608" lat="51.123092"><ele>-5.2</ele><time>2022-03-20T08:09:22.000Z</time></trkpt><trkpt lon="5.785713" lat="51.123096"><ele>-5.2</ele><time>2022-03-20T08:09:23.000Z</time></trkpt><trkpt lon="5.785824" lat="51.123096"><ele>-5.2</ele><time>2022-03-20T08:09:24.000Z</time></trkpt><trkpt lon="5.785935" lat="51.123096"><ele>-5.2</ele><time>2022-03-20T08:09:25.000Z</time></trkpt><trkpt lon="5.786046" lat="51.123096"><ele>-5.2</ele><time>2022-03-20T08:09:26.000Z</time></trkpt><trkpt lon="5.786155" lat="51.123096"><ele>-5</ele><time>2022-03-20T08:09:27.000Z</time></trkpt><trkpt lon="5.786264" lat="51.123096"><ele>-5</ele><time>2022-03-20T08:09:28.000Z</time></trkpt><trkpt lon="5.786368" lat="51.123099"><ele>-4.8</ele><time>2022-03-20T08:09:29.000Z</time></trkpt><trkpt lon="5.786479" lat="51.123103"><ele>-5</ele><time>2022-03-20T08:09:30.000Z</time></trkpt><trkpt lon="5.786588" lat="51.123107"><ele>-5</ele><time>2022-03-20T08:09:31.000Z</time></trkpt><trkpt lon="5.786698" lat="51.123111"><ele>-4.8</ele><time>2022-03-20T08:09:32.000Z</time></trkpt><trkpt lon="5.786807" lat="51.123112"><ele>-4.8</ele><time>2022-03-20T08:09:33.000Z</time></trkpt><trkpt lon="5.786916" lat="51.123115"><ele>-4.8</ele><time>2022-03-20T08:09:34.000Z</time></trkpt><trkpt lon="5.787023" lat="51.123116"><ele>-4.8</ele><time>2022-03-20T08:09:35.000Z</time></trkpt><trkpt lon="5.787134" lat="51.123118"><ele>-4.8</ele><time>2022-03-20T08:09:36.000Z</time></trkpt><trkpt lon="5.787243" lat="51.123122"><ele>-4.8</ele><time>2022-03-20T08:09:37.000Z</time></trkpt><trkpt lon="5.787353" lat="51.123123"><ele>-4.8</ele><time>2022-03-20T08:09:38.000Z</time></trkpt><trkpt lon="5.787463" lat="51.123123"><ele>-4.8</ele><time>2022-03-20T08:09:39.000Z</time></trkpt><trkpt lon="5.787571" lat="51.123126"><ele>-5</ele><time>2022-03-20T08:09:40.000Z</time></trkpt><trkpt lon="5.787683" lat="51.12313"><ele>-5</ele><time>2022-03-20T08:09:41.000Z</time></trkpt><trkpt lon="5.787796" lat="51.123134"><ele>-5.2</ele><time>2022-03-20T08:09:42.000Z</time></trkpt><trkpt lon="5.787904" lat="51.123138"><ele>-5.4</ele><time>2022-03-20T08:09:43.000Z</time></trkpt><trkpt lon="5.78801" lat="51.123144"><ele>-5.6</ele><time>2022-03-20T08:09:44.000Z</time></trkpt><trkpt lon="5.78811" lat="51.123155"><ele>-5.6</ele><time>2022-03-20T08:09:45.000Z</time></trkpt><trkpt lon="5.788209" lat="51.123169"><ele>-5.8</ele><time>2022-03-20T08:09:46.000Z</time></trkpt><trkpt lon="5.788305" lat="51.12319"><ele>-5.8</ele><time>2022-03-20T08:09:47.000Z</time></trkpt><trkpt lon="5.788401" lat="51.123213"><ele>-5.8</ele><time>2022-03-20T08:09:48.000Z</time></trkpt><trkpt lon="5.788497" lat="51.123239"><ele>-6</ele><time>2022-03-20T08:09:49.000Z</time></trkpt><trkpt lon="5.788594" lat="51.123263"><ele>-6</ele><time>2022-03-20T08:09:50.000Z</time></trkpt><trkpt lon="5.788687" lat="51.123288"><ele>-6</ele><time>2022-03-20T08:09:51.000Z</time></trkpt><trkpt lon="5.78878" lat="51.123315"><ele>-6</ele><time>2022-03-20T08:09:52.000Z</time></trkpt><trkpt lon="5.78887" lat="51.123342"><ele>-6</ele><time>2022-03-20T08:09:53.000Z</time></trkpt><trkpt lon="5.788952" lat="51.123366"><ele>-5.8</ele><time>2022-03-20T08:09:54.000Z</time></trkpt><trkpt lon="5.789028" lat="51.123383"><ele>-5.8</ele><time>2022-03-20T08:09:55.000Z</time></trkpt><trkpt lon="5.789094" lat="51.123381"><ele>-5.8</ele><time>2022-03-20T08:09:56.000Z</time></trkpt><trkpt lon="5.789139" lat="51.123356"><ele>-5.6</ele><time>2022-03-20T08:09:57.000Z</time></trkpt><trkpt lon="5.789151" lat="51.123313"><ele>-5.6</ele><time>2022-03-20T08:09:58.000Z</time></trkpt><trkpt lon="5.789127" lat="51.123267"><ele>-5.4</ele><time>2022-03-20T08:09:59.000Z</time></trkpt><trkpt lon="5.789085" lat="51.123218"><ele>-5.4</ele><time>2022-03-20T08:10:00.000Z</time></trkpt><trkpt lon="5.789043" lat="51.123166"><ele>-5.4</ele><time>2022-03-20T08:10:01.000Z</time></trkpt><trkpt lon="5.789006" lat="51.12311"><ele>-5.4</ele><time>2022-03-20T08:10:02.000Z</time></trkpt><trkpt lon="5.788979" lat="51.123051"><ele>-5.2</ele><time>2022-03-20T08:10:03.000Z</time></trkpt><trkpt lon="5.78896" lat="51.122989"><ele>-5.2</ele><time>2022-03-20T08:10:04.000Z</time></trkpt><trkpt lon="5.788951" lat="51.122924"><ele>-5.4</ele><time>2022-03-20T08:10:05.000Z</time></trkpt><trkpt lon="5.78895" lat="51.122857"><ele>-5.2</ele><time>2022-03-20T08:10:06.000Z</time></trkpt><trkpt lon="5.788954" lat="51.122789"><ele>-5.4</ele><time>2022-03-20T08:10:07.000Z</time></trkpt><trkpt lon="5.788958" lat="51.122722"><ele>-5.4</ele><time>2022-03-20T08:10:08.000Z</time></trkpt><trkpt lon="5.78896" lat="51.122652"><ele>-5.4</ele><time>2022-03-20T08:10:09.000Z</time></trkpt><trkpt lon="5.788955" lat="51.122582"><ele>-5.6</ele><time>2022-03-20T08:10:10.000Z</time></trkpt><trkpt lon="5.788942" lat="51.122514"><ele>-5.6</ele><time>2022-03-20T08:10:11.000Z</time></trkpt><trkpt lon="5.788921" lat="51.122445"><ele>-5.4</ele><time>2022-03-20T08:10:12.000Z</time></trkpt><trkpt lon="5.788893" lat="51.122376"><ele>-5.4</ele><time>2022-03-20T08:10:13.000Z</time></trkpt><trkpt lon="5.788861" lat="51.122311"><ele>-5.4</ele><time>2022-03-20T08:10:14.000Z</time></trkpt><trkpt lon="5.788827" lat="51.122242"><ele>-5.4</ele><time>2022-03-20T08:10:15.000Z</time></trkpt><trkpt lon="5.788793" lat="51.122177"><ele>-5.2</ele><time>2022-03-20T08:10:16.000Z</time></trkpt><trkpt lon="5.788758" lat="51.122115"><ele>-5.2</ele><time>2022-03-20T08:10:17.000Z</time></trkpt><trkpt lon="5.788723" lat="51.122051"><ele>-5.2</ele><time>2022-03-20T08:10:18.000Z</time></trkpt><trkpt lon="5.788686" lat="51.121989"><ele>-5.2</ele><time>2022-03-20T08:10:19.000Z</time></trkpt><trkpt lon="5.788646" lat="51.121925"><ele>-5.2</ele><time>2022-03-20T08:10:20.000Z</time></trkpt><trkpt lon="5.788604" lat="51.121864"><ele>-5.2</ele><time>2022-03-20T08:10:21.000Z</time></trkpt><trkpt lon="5.788557" lat="51.121802"><ele>-5.2</ele><time>2022-03-20T08:10:22.000Z</time></trkpt><trkpt lon="5.788507" lat="51.121741"><ele>-5</ele><time>2022-03-20T08:10:23.000Z</time></trkpt><trkpt lon="5.788457" lat="51.121682"><ele>-5</ele><time>2022-03-20T08:10:24.000Z</time></trkpt><trkpt lon="5.788408" lat="51.121622"><ele>-5</ele><time>2022-03-20T08:10:25.000Z</time></trkpt><trkpt lon="5.788353" lat="51.121561"><ele>-5</ele><time>2022-03-20T08:10:26.000Z</time></trkpt><trkpt lon="5.788301" lat="51.121501"><ele>-5</ele><time>2022-03-20T08:10:27.000Z</time></trkpt><trkpt lon="5.788247" lat="51.12144"><ele>-4.8</ele><time>2022-03-20T08:10:28.000Z</time></trkpt><trkpt lon="5.788194" lat="51.121382"><ele>-4.8</ele><time>2022-03-20T08:10:29.000Z</time></trkpt><trkpt lon="5.788142" lat="51.121319"><ele>-5</ele><time>2022-03-20T08:10:30.000Z</time></trkpt><trkpt lon="5.788092" lat="51.121257"><ele>-5</ele><time>2022-03-20T08:10:31.000Z</time></trkpt><trkpt lon="5.788043" lat="51.121196"><ele>-5</ele><time>2022-03-20T08:10:32.000Z</time></trkpt><trkpt lon="5.787995" lat="51.121135"><ele>-5</ele><time>2022-03-20T08:10:33.000Z</time></trkpt><trkpt lon="5.787946" lat="51.12107"><ele>-4.8</ele><time>2022-03-20T08:10:34.000Z</time></trkpt><trkpt lon="5.787897" lat="51.121009"><ele>-5</ele><time>2022-03-20T08:10:35.000Z</time></trkpt><trkpt lon="5.787848" lat="51.120948"><ele>-5</ele><time>2022-03-20T08:10:36.000Z</time></trkpt><trkpt lon="5.787802" lat="51.120884"><ele>-5</ele><time>2022-03-20T08:10:37.000Z</time></trkpt><trkpt lon="5.787758" lat="51.120822"><ele>-5</ele><time>2022-03-20T08:10:38.000Z</time></trkpt><trkpt lon="5.787718" lat="51.120761"><ele>-5.2</ele><time>2022-03-20T08:10:39.000Z</time></trkpt><trkpt lon="5.787677" lat="51.120697"><ele>-5.2</ele><time>2022-03-20T08:10:40.000Z</time></trkpt><trkpt lon="5.787639" lat="51.120635"><ele>-5.2</ele><time>2022-03-20T08:10:41.000Z</time></trkpt><trkpt lon="5.7876" lat="51.120571"><ele>-5.2</ele><time>2022-03-20T08:10:42.000Z</time></trkpt><trkpt lon="5.787561" lat="51.120506"><ele>-5.2</ele><time>2022-03-20T08:10:43.000Z</time></trkpt><trkpt lon="5.787521" lat="51.120441"><ele>-5.2</ele><time>2022-03-20T08:10:44.000Z</time></trkpt><trkpt lon="5.787481" lat="51.120376"><ele>-5.2</ele><time>2022-03-20T08:10:45.000Z</time></trkpt><trkpt lon="5.787441" lat="51.120308"><ele>-5.2</ele><time>2022-03-20T08:10:46.000Z</time></trkpt><trkpt lon="5.787401" lat="51.12024"><ele>-5.2</ele><time>2022-03-20T08:10:47.000Z</time></trkpt><trkpt lon="5.787362" lat="51.120171"><ele>-5.2</ele><time>2022-03-20T08:10:48.000Z</time></trkpt><trkpt lon="5.787326" lat="51.120103"><ele>-5</ele><time>2022-03-20T08:10:49.000Z</time></trkpt><trkpt lon="5.787288" lat="51.120035"><ele>-5.2</ele><time>2022-03-20T08:10:50.000Z</time></trkpt><trkpt lon="5.78725" lat="51.119969"><ele>-5.2</ele><time>2022-03-20T08:10:51.000Z</time></trkpt><trkpt lon="5.787214" lat="51.119901"><ele>-5.2</ele><time>2022-03-20T08:10:52.000Z</time></trkpt><trkpt lon="5.787176" lat="51.119835"><ele>-5.2</ele><time>2022-03-20T08:10:53.000Z</time></trkpt><trkpt lon="5.787139" lat="51.119769"><ele>-5</ele><time>2022-03-20T08:10:54.000Z</time></trkpt><trkpt lon="5.787103" lat="51.119702"><ele>-5</ele><time>2022-03-20T08:10:55.000Z</time></trkpt><trkpt lon="5.787071" lat="51.119634"><ele>-5</ele><time>2022-03-20T08:10:56.000Z</time></trkpt><trkpt lon="5.787038" lat="51.119565"><ele>-5</ele><time>2022-03-20T08:10:57.000Z</time></trkpt><trkpt lon="5.787005" lat="51.119499"><ele>-5</ele><time>2022-03-20T08:10:58.000Z</time></trkpt><trkpt lon="5.786972" lat="51.119432"><ele>-5.2</ele><time>2022-03-20T08:10:59.000Z</time></trkpt><trkpt lon="5.786939" lat="51.119363"><ele>-5.2</ele><time>2022-03-20T08:11:00.000Z</time></trkpt><trkpt lon="5.786906" lat="51.119297"><ele>-5.2</ele><time>2022-03-20T08:11:01.000Z</time></trkpt><trkpt lon="5.786873" lat="51.11923"><ele>-5.2</ele><time>2022-03-20T08:11:02.000Z</time></trkpt><trkpt lon="5.786841" lat="51.119161"><ele>-5.4</ele><time>2022-03-20T08:11:03.000Z</time></trkpt><trkpt lon="5.786809" lat="51.119088"><ele>-5.2</ele><time>2022-03-20T08:11:04.000Z</time></trkpt><trkpt lon="5.78678" lat="51.119019"><ele>-5.4</ele><time>2022-03-20T08:11:05.000Z</time></trkpt><trkpt lon="5.786753" lat="51.118955"><ele>-5.4</ele><time>2022-03-20T08:11:06.000Z</time></trkpt><trkpt lon="5.786728" lat="51.118886"><ele>-5.4</ele><time>2022-03-20T08:11:07.000Z</time></trkpt><trkpt lon="5.786705" lat="51.118814"><ele>-5.4</ele><time>2022-03-20T08:11:08.000Z</time></trkpt><trkpt lon="5.786691" lat="51.118745"><ele>-5.4</ele><time>2022-03-20T08:11:09.000Z</time></trkpt><trkpt lon="5.786686" lat="51.118676"><ele>-5.2</ele><time>2022-03-20T08:11:10.000Z</time></trkpt><trkpt lon="5.786694" lat="51.11861"><ele>-5.2</ele><time>2022-03-20T08:11:11.000Z</time></trkpt><trkpt lon="5.786713" lat="51.118542"><ele>-5.2</ele><time>2022-03-20T08:11:12.000Z</time></trkpt><trkpt lon="5.786741" lat="51.118474"><ele>-5.4</ele><time>2022-03-20T08:11:13.000Z</time></trkpt><trkpt lon="5.786778" lat="51.118408"><ele>-5.4</ele><time>2022-03-20T08:11:14.000Z</time></trkpt><trkpt lon="5.78682" lat="51.118343"><ele>-5.4</ele><time>2022-03-20T08:11:15.000Z</time></trkpt><trkpt lon="5.786862" lat="51.118278"><ele>-5.6</ele><time>2022-03-20T08:11:16.000Z</time></trkpt><trkpt lon="5.786898" lat="51.118214"><ele>-5.6</ele><time>2022-03-20T08:11:17.000Z</time></trkpt><trkpt lon="5.786927" lat="51.118149"><ele>-5.8</ele><time>2022-03-20T08:11:18.000Z</time></trkpt><trkpt lon="5.786944" lat="51.118078"><ele>-5.8</ele><time>2022-03-20T08:11:19.000Z</time></trkpt><trkpt lon="5.786947" lat="51.118006"><ele>-6</ele><time>2022-03-20T08:11:20.000Z</time></trkpt><trkpt lon="5.786938" lat="51.117936"><ele>-6</ele><time>2022-03-20T08:11:21.000Z</time></trkpt><trkpt lon="5.786922" lat="51.117862"><ele>-6</ele><time>2022-03-20T08:11:22.000Z</time></trkpt><trkpt lon="5.786903" lat="51.117791"><ele>-6</ele><time>2022-03-20T08:11:23.000Z</time></trkpt><trkpt lon="5.78688" lat="51.117722"><ele>-5.8</ele><time>2022-03-20T08:11:24.000Z</time></trkpt><trkpt lon="5.786857" lat="51.117651"><ele>-5.8</ele><time>2022-03-20T08:11:25.000Z</time></trkpt><trkpt lon="5.786834" lat="51.117582"><ele>-5.8</ele><time>2022-03-20T08:11:26.000Z</time></trkpt><trkpt lon="5.786811" lat="51.117516"><ele>-5.8</ele><time>2022-03-20T08:11:27.000Z</time></trkpt><trkpt lon="5.786788" lat="51.117447"><ele>-5.8</ele><time>2022-03-20T08:11:28.000Z</time></trkpt><trkpt lon="5.786765" lat="51.117382"><ele>-5.8</ele><time>2022-03-20T08:11:29.000Z</time></trkpt><trkpt lon="5.786741" lat="51.117314"><ele>-5.8</ele><time>2022-03-20T08:11:30.000Z</time></trkpt><trkpt lon="5.786716" lat="51.117249"><ele>-5.8</ele><time>2022-03-20T08:11:31.000Z</time></trkpt><trkpt lon="5.786692" lat="51.117181"><ele>-5.8</ele><time>2022-03-20T08:11:32.000Z</time></trkpt><trkpt lon="5.78667" lat="51.117117"><ele>-5.8</ele><time>2022-03-20T08:11:33.000Z</time></trkpt><trkpt lon="5.786647" lat="51.117047"><ele>-5.8</ele><time>2022-03-20T08:11:34.000Z</time></trkpt><trkpt lon="5.786628" lat="51.116978"><ele>-5.8</ele><time>2022-03-20T08:11:35.000Z</time></trkpt><trkpt lon="5.786613" lat="51.116907"><ele>-5.8</ele><time>2022-03-20T08:11:36.000Z</time></trkpt><trkpt lon="5.786601" lat="51.116837"><ele>-5.8</ele><time>2022-03-20T08:11:37.000Z</time></trkpt><trkpt lon="5.786592" lat="51.116768"><ele>-6</ele><time>2022-03-20T08:11:38.000Z</time></trkpt><trkpt lon="5.786589" lat="51.116697"><ele>-6</ele><time>2022-03-20T08:11:39.000Z</time></trkpt><trkpt lon="5.786588" lat="51.116628"><ele>-6</ele><time>2022-03-20T08:11:40.000Z</time></trkpt><trkpt lon="5.786591" lat="51.116556"><ele>-6</ele><time>2022-03-20T08:11:41.000Z</time></trkpt><trkpt lon="5.786601" lat="51.116486"><ele>-6</ele><time>2022-03-20T08:11:42.000Z</time></trkpt><trkpt lon="5.786612" lat="51.116418"><ele>-6</ele><time>2022-03-20T08:11:43.000Z</time></trkpt><trkpt lon="5.786628" lat="51.116349"><ele>-6</ele><time>2022-03-20T08:11:44.000Z</time></trkpt><trkpt lon="5.786647" lat="51.116281"><ele>-6</ele><time>2022-03-20T08:11:45.000Z</time></trkpt><trkpt lon="5.786671" lat="51.116212"><ele>-6</ele><time>2022-03-20T08:11:46.000Z</time></trkpt><trkpt lon="5.786693" lat="51.116144"><ele>-6.2</ele><time>2022-03-20T08:11:47.000Z</time></trkpt><trkpt lon="5.786717" lat="51.116075"><ele>-6.2</ele><time>2022-03-20T08:11:48.000Z</time></trkpt><trkpt lon="5.786741" lat="51.116006"><ele>-6.2</ele><time>2022-03-20T08:11:49.000Z</time></trkpt><trkpt lon="5.786766" lat="51.115938"><ele>-6.2</ele><time>2022-03-20T08:11:50.000Z</time></trkpt><trkpt lon="5.786788" lat="51.115868"><ele>-6.2</ele><time>2022-03-20T08:11:51.000Z</time></trkpt><trkpt lon="5.786813" lat="51.115799"><ele>-6.2</ele><time>2022-03-20T08:11:52.000Z</time></trkpt><trkpt lon="5.786834" lat="51.115731"><ele>-6.2</ele><time>2022-03-20T08:11:53.000Z</time></trkpt><trkpt lon="5.786851" lat="51.11566"><ele>-6.2</ele><time>2022-03-20T08:11:54.000Z</time></trkpt><trkpt lon="5.786868" lat="51.115593"><ele>-6.2</ele><time>2022-03-20T08:11:55.000Z</time></trkpt><trkpt lon="5.786881" lat="51.115522"><ele>-6.2</ele><time>2022-03-20T08:11:56.000Z</time></trkpt><trkpt lon="5.786892" lat="51.115455"><ele>-6.2</ele><time>2022-03-20T08:11:57.000Z</time></trkpt><trkpt lon="5.786902" lat="51.115387"><ele>-6.2</ele><time>2022-03-20T08:11:58.000Z</time></trkpt><trkpt lon="5.786911" lat="51.115319"><ele>-6.2</ele><time>2022-03-20T08:11:59.000Z</time></trkpt><trkpt lon="5.786919" lat="51.115253"><ele>-6.2</ele><time>2022-03-20T08:12:00.000Z</time></trkpt><trkpt lon="5.786924" lat="51.115185"><ele>-6.2</ele><time>2022-03-20T08:12:01.000Z</time></trkpt><trkpt lon="5.786927" lat="51.115114"><ele>-6</ele><time>2022-03-20T08:12:02.000Z</time></trkpt><trkpt lon="5.786928" lat="51.115045"><ele>-6</ele><time>2022-03-20T08:12:03.000Z</time></trkpt><trkpt lon="5.786927" lat="51.114978"><ele>-6.2</ele><time>2022-03-20T08:12:04.000Z</time></trkpt><trkpt lon="5.786925" lat="51.11491"><ele>-6.2</ele><time>2022-03-20T08:12:05.000Z</time></trkpt><trkpt lon="5.786925" lat="51.114842"><ele>-6.2</ele><time>2022-03-20T08:12:06.000Z</time></trkpt><trkpt lon="5.786925" lat="51.114773"><ele>-6.4</ele><time>2022-03-20T08:12:07.000Z</time></trkpt><trkpt lon="5.786924" lat="51.114705"><ele>-6.2</ele><time>2022-03-20T08:12:08.000Z</time></trkpt><trkpt lon="5.786923" lat="51.114641"><ele>-6.2</ele><time>2022-03-20T08:12:09.000Z</time></trkpt><trkpt lon="5.786924" lat="51.114572"><ele>-6.2</ele><time>2022-03-20T08:12:10.000Z</time></trkpt><trkpt lon="5.786929" lat="51.114505"><ele>-6</ele><time>2022-03-20T08:12:11.000Z</time></trkpt><trkpt lon="5.786938" lat="51.114438"><ele>-5.8</ele><time>2022-03-20T08:12:12.000Z</time></trkpt><trkpt lon="5.786945" lat="51.114373"><ele>-5.8</ele><time>2022-03-20T08:12:13.000Z</time></trkpt><trkpt lon="5.78695" lat="51.114305"><ele>-5.6</ele><time>2022-03-20T08:12:14.000Z</time></trkpt><trkpt lon="5.786954" lat="51.114236"><ele>-5.4</ele><time>2022-03-20T08:12:15.000Z</time></trkpt><trkpt lon="5.786955" lat="51.114167"><ele>-5.4</ele><time>2022-03-20T08:12:16.000Z</time></trkpt><trkpt lon="5.786952" lat="51.1141"><ele>-5.4</ele><time>2022-03-20T08:12:17.000Z</time></trkpt><trkpt lon="5.786946" lat="51.11403"><ele>-5.4</ele><time>2022-03-20T08:12:18.000Z</time></trkpt><trkpt lon="5.786936" lat="51.113961"><ele>-5.4</ele><time>2022-03-20T08:12:19.000Z</time></trkpt><trkpt lon="5.786917" lat="51.113895"><ele>-5.4</ele><time>2022-03-20T08:12:20.000Z</time></trkpt><trkpt lon="5.786888" lat="51.11383"><ele>-5.2</ele><time>2022-03-20T08:12:21.000Z</time></trkpt><trkpt lon="5.786851" lat="51.113768"><ele>-5.2</ele><time>2022-03-20T08:12:22.000Z</time></trkpt><trkpt lon="5.786805" lat="51.113708"><ele>-5.2</ele><time>2022-03-20T08:12:23.000Z</time></trkpt><trkpt lon="5.786752" lat="51.11365"><ele>-5.2</ele><time>2022-03-20T08:12:24.000Z</time></trkpt><trkpt lon="5.786693" lat="51.113593"><ele>-5.2</ele><time>2022-03-20T08:12:25.000Z</time></trkpt><trkpt lon="5.786631" lat="51.113536"><ele>-5.2</ele><time>2022-03-20T08:12:26.000Z</time></trkpt><trkpt lon="5.786566" lat="51.113481"><ele>-5</ele><time>2022-03-20T08:12:27.000Z</time></trkpt><trkpt lon="5.786499" lat="51.113427"><ele>-5</ele><time>2022-03-20T08:12:28.000Z</time></trkpt><trkpt lon="5.786432" lat="51.113377"><ele>-4.8</ele><time>2022-03-20T08:12:29.000Z</time></trkpt><trkpt lon="5.786367" lat="51.113324"><ele>-5</ele><time>2022-03-20T08:12:30.000Z</time></trkpt><trkpt lon="5.786302" lat="51.113268"><ele>-4.8</ele><time>2022-03-20T08:12:31.000Z</time></trkpt><trkpt lon="5.786237" lat="51.113211"><ele>-4.8</ele><time>2022-03-20T08:12:32.000Z</time></trkpt><trkpt lon="5.786174" lat="51.113154"><ele>-4.6</ele><time>2022-03-20T08:12:33.000Z</time></trkpt><trkpt lon="5.786116" lat="51.113096"><ele>-4.6</ele><time>2022-03-20T08:12:34.000Z</time></trkpt><trkpt lon="5.786065" lat="51.113033"><ele>-4.4</ele><time>2022-03-20T08:12:35.000Z</time></trkpt><trkpt lon="5.786021" lat="51.112968"><ele>-4.4</ele><time>2022-03-20T08:12:36.000Z</time></trkpt><trkpt lon="5.785984" lat="51.112905"><ele>-4.4</ele><time>2022-03-20T08:12:37.000Z</time></trkpt><trkpt lon="5.785949" lat="51.112839"><ele>-4.2</ele><time>2022-03-20T08:12:38.000Z</time></trkpt><trkpt lon="5.785918" lat="51.112774"><ele>-4.2</ele><time>2022-03-20T08:12:39.000Z</time></trkpt><trkpt lon="5.785883" lat="51.112709"><ele>-4.2</ele><time>2022-03-20T08:12:40.000Z</time></trkpt><trkpt lon="5.785851" lat="51.112642"><ele>-4.2</ele><time>2022-03-20T08:12:41.000Z</time></trkpt><trkpt lon="5.785818" lat="51.112575"><ele>-4.4</ele><time>2022-03-20T08:12:42.000Z</time></trkpt><trkpt lon="5.785786" lat="51.11251"><ele>-4.4</ele><time>2022-03-20T08:12:43.000Z</time></trkpt><trkpt lon="5.785756" lat="51.112443"><ele>-4.4</ele><time>2022-03-20T08:12:44.000Z</time></trkpt><trkpt lon="5.785726" lat="51.112377"><ele>-4.2</ele><time>2022-03-20T08:12:45.000Z</time></trkpt><trkpt lon="5.785694" lat="51.112309"><ele>-4.4</ele><time>2022-03-20T08:12:46.000Z</time></trkpt><trkpt lon="5.785662" lat="51.112244"><ele>-4.4</ele><time>2022-03-20T08:12:47.000Z</time></trkpt><trkpt lon="5.785629" lat="51.112179"><ele>-4.4</ele><time>2022-03-20T08:12:48.000Z</time></trkpt><trkpt lon="5.785596" lat="51.112111"><ele>-4.2</ele><time>2022-03-20T08:12:49.000Z</time></trkpt><trkpt lon="5.785562" lat="51.112046"><ele>-4.2</ele><time>2022-03-20T08:12:50.000Z</time></trkpt><trkpt lon="5.785525" lat="51.11198"><ele>-4.2</ele><time>2022-03-20T08:12:51.000Z</time></trkpt><trkpt lon="5.785486" lat="51.111918"><ele>-4.4</ele><time>2022-03-20T08:12:52.000Z</time></trkpt><trkpt lon="5.78544" lat="51.111858"><ele>-4.4</ele><time>2022-03-20T08:12:53.000Z</time></trkpt><trkpt lon="5.785388" lat="51.111796"><ele>-4.4</ele><time>2022-03-20T08:12:54.000Z</time></trkpt><trkpt lon="5.78533" lat="51.111738"><ele>-4.4</ele><time>2022-03-20T08:12:55.000Z</time></trkpt><trkpt lon="5.78527" lat="51.111678"><ele>-4.4</ele><time>2022-03-20T08:12:56.000Z</time></trkpt><trkpt lon="5.785208" lat="51.111621"><ele>-4.4</ele><time>2022-03-20T08:12:57.000Z</time></trkpt><trkpt lon="5.785146" lat="51.11156"><ele>-4.4</ele><time>2022-03-20T08:12:58.000Z</time></trkpt><trkpt lon="5.785084" lat="51.111502"><ele>-4.6</ele><time>2022-03-20T08:12:59.000Z</time></trkpt><trkpt lon="5.785023" lat="51.111441"><ele>-4.8</ele><time>2022-03-20T08:13:00.000Z</time></trkpt><trkpt lon="5.784959" lat="51.111383"><ele>-4.8</ele><time>2022-03-20T08:13:01.000Z</time></trkpt><trkpt lon="5.784897" lat="51.111324"><ele>-4.8</ele><time>2022-03-20T08:13:02.000Z</time></trkpt><trkpt lon="5.784835" lat="51.111263"><ele>-4.8</ele><time>2022-03-20T08:13:03.000Z</time></trkpt><trkpt lon="5.784773" lat="51.111201"><ele>-5</ele><time>2022-03-20T08:13:04.000Z</time></trkpt><trkpt lon="5.784716" lat="51.111141"><ele>-4.8</ele><time>2022-03-20T08:13:05.000Z</time></trkpt><trkpt lon="5.784659" lat="51.111076"><ele>-4.8</ele><time>2022-03-20T08:13:06.000Z</time></trkpt><trkpt lon="5.784607" lat="51.111011"><ele>-4.8</ele><time>2022-03-20T08:13:07.000Z</time></trkpt><trkpt lon="5.784555" lat="51.110946"><ele>-4.8</ele><time>2022-03-20T08:13:08.000Z</time></trkpt><trkpt lon="5.7845" lat="51.110884"><ele>-4.8</ele><time>2022-03-20T08:13:09.000Z</time></trkpt><trkpt lon="5.784445" lat="51.110821"><ele>-5</ele><time>2022-03-20T08:13:10.000Z</time></trkpt><trkpt lon="5.784392" lat="51.110759"><ele>-5</ele><time>2022-03-20T08:13:11.000Z</time></trkpt><trkpt lon="5.784339" lat="51.110694"><ele>-5</ele><time>2022-03-20T08:13:12.000Z</time></trkpt><trkpt lon="5.784285" lat="51.11063"><ele>-5</ele><time>2022-03-20T08:13:13.000Z</time></trkpt><trkpt lon="5.784235" lat="51.110568"><ele>-5.2</ele><time>2022-03-20T08:13:14.000Z</time></trkpt><trkpt lon="5.784184" lat="51.110504"><ele>-5.2</ele><time>2022-03-20T08:13:15.000Z</time></trkpt><trkpt lon="5.784132" lat="51.11044"><ele>-5.2</ele><time>2022-03-20T08:13:16.000Z</time></trkpt><trkpt lon="5.784081" lat="51.110375"><ele>-5.2</ele><time>2022-03-20T08:13:17.000Z</time></trkpt><trkpt lon="5.784029" lat="51.110312"><ele>-5.2</ele><time>2022-03-20T08:13:18.000Z</time></trkpt><trkpt lon="5.783977" lat="51.110249"><ele>-5.4</ele><time>2022-03-20T08:13:19.000Z</time></trkpt><trkpt lon="5.783927" lat="51.110184"><ele>-5.4</ele><time>2022-03-20T08:13:20.000Z</time></trkpt><trkpt lon="5.783881" lat="51.110121"><ele>-5.4</ele><time>2022-03-20T08:13:21.000Z</time></trkpt><trkpt lon="5.783835" lat="51.110054"><ele>-5.4</ele><time>2022-03-20T08:13:22.000Z</time></trkpt><trkpt lon="5.783793" lat="51.109989"><ele>-5.2</ele><time>2022-03-20T08:13:23.000Z</time></trkpt><trkpt lon="5.783754" lat="51.109921"><ele>-5.2</ele><time>2022-03-20T08:13:24.000Z</time></trkpt><trkpt lon="5.78372" lat="51.109853"><ele>-5.2</ele><time>2022-03-20T08:13:25.000Z</time></trkpt><trkpt lon="5.783687" lat="51.109788"><ele>-5.2</ele><time>2022-03-20T08:13:26.000Z</time></trkpt><trkpt lon="5.783654" lat="51.109719"><ele>-5.2</ele><time>2022-03-20T08:13:27.000Z</time></trkpt><trkpt lon="5.783622" lat="51.10965"><ele>-5.2</ele><time>2022-03-20T08:13:28.000Z</time></trkpt><trkpt lon="5.783591" lat="51.109585"><ele>-5.2</ele><time>2022-03-20T08:13:29.000Z</time></trkpt><trkpt lon="5.783559" lat="51.109517"><ele>-5</ele><time>2022-03-20T08:13:30.000Z</time></trkpt><trkpt lon="5.783529" lat="51.109449"><ele>-5.2</ele><time>2022-03-20T08:13:31.000Z</time></trkpt><trkpt lon="5.783501" lat="51.109381"><ele>-5.2</ele><time>2022-03-20T08:13:32.000Z</time></trkpt><trkpt lon="5.783471" lat="51.109315"><ele>-5.2</ele><time>2022-03-20T08:13:33.000Z</time></trkpt><trkpt lon="5.783439" lat="51.109246"><ele>-5.2</ele><time>2022-03-20T08:13:34.000Z</time></trkpt><trkpt lon="5.783403" lat="51.10918"><ele>-5.2</ele><time>2022-03-20T08:13:35.000Z</time></trkpt><trkpt lon="5.783365" lat="51.109115"><ele>-5.2</ele><time>2022-03-20T08:13:36.000Z</time></trkpt><trkpt lon="5.783326" lat="51.109051"><ele>-5.4</ele><time>2022-03-20T08:13:37.000Z</time></trkpt><trkpt lon="5.783286" lat="51.108983"><ele>-5.4</ele><time>2022-03-20T08:13:38.000Z</time></trkpt><trkpt lon="5.783245" lat="51.108914"><ele>-5.4</ele><time>2022-03-20T08:13:39.000Z</time></trkpt><trkpt lon="5.783202" lat="51.108849"><ele>-5.4</ele><time>2022-03-20T08:13:40.000Z</time></trkpt><trkpt lon="5.783158" lat="51.108781"><ele>-5.4</ele><time>2022-03-20T08:13:41.000Z</time></trkpt><trkpt lon="5.783113" lat="51.108715"><ele>-5.4</ele><time>2022-03-20T08:13:42.000Z</time></trkpt><trkpt lon="5.783063" lat="51.108648"><ele>-5.4</ele><time>2022-03-20T08:13:43.000Z</time></trkpt><trkpt lon="5.783011" lat="51.108581"><ele>-5.6</ele><time>2022-03-20T08:13:44.000Z</time></trkpt><trkpt lon="5.782957" lat="51.10852"><ele>-5.6</ele><time>2022-03-20T08:13:45.000Z</time></trkpt><trkpt lon="5.782902" lat="51.108461"><ele>-5.6</ele><time>2022-03-20T08:13:46.000Z</time></trkpt><trkpt lon="5.782846" lat="51.108404"><ele>-5.6</ele><time>2022-03-20T08:13:47.000Z</time></trkpt><trkpt lon="5.78279" lat="51.108344"><ele>-5.6</ele><time>2022-03-20T08:13:48.000Z</time></trkpt><trkpt lon="5.782736" lat="51.108283"><ele>-5.6</ele><time>2022-03-20T08:13:49.000Z</time></trkpt><trkpt lon="5.782686" lat="51.108226"><ele>-5.4</ele><time>2022-03-20T08:13:50.000Z</time></trkpt><trkpt lon="5.782638" lat="51.108165"><ele>-5.4</ele><time>2022-03-20T08:13:51.000Z</time></trkpt><trkpt lon="5.782595" lat="51.108103"><ele>-5.4</ele><time>2022-03-20T08:13:52.000Z</time></trkpt><trkpt lon="5.782562" lat="51.108039"><ele>-5.6</ele><time>2022-03-20T08:13:53.000Z</time></trkpt><trkpt lon="5.782538" lat="51.107972"><ele>-5.6</ele><time>2022-03-20T08:13:54.000Z</time></trkpt><trkpt lon="5.782522" lat="51.107903"><ele>-5.6</ele><time>2022-03-20T08:13:55.000Z</time></trkpt><trkpt lon="5.782513" lat="51.10784"><ele>-5.6</ele><time>2022-03-20T08:13:56.000Z</time></trkpt><trkpt lon="5.78251" lat="51.107774"><ele>-5.6</ele><time>2022-03-20T08:13:57.000Z</time></trkpt><trkpt lon="5.782512" lat="51.107702"><ele>-5.4</ele><time>2022-03-20T08:13:58.000Z</time></trkpt><trkpt lon="5.782518" lat="51.107633"><ele>-5.4</ele><time>2022-03-20T08:13:59.000Z</time></trkpt><trkpt lon="5.782526" lat="51.107561"><ele>-5.4</ele><time>2022-03-20T08:14:00.000Z</time></trkpt><trkpt lon="5.782536" lat="51.107488"><ele>-5.4</ele><time>2022-03-20T08:14:01.000Z</time></trkpt><trkpt lon="5.782545" lat="51.107413"><ele>-5.4</ele><time>2022-03-20T08:14:02.000Z</time></trkpt><trkpt lon="5.782552" lat="51.107342"><ele>-5.6</ele><time>2022-03-20T08:14:03.000Z</time></trkpt><trkpt lon="5.782558" lat="51.107271"><ele>-5.6</ele><time>2022-03-20T08:14:04.000Z</time></trkpt><trkpt lon="5.782565" lat="51.107199"><ele>-5.6</ele><time>2022-03-20T08:14:05.000Z</time></trkpt><trkpt lon="5.782572" lat="51.107126"><ele>-5.8</ele><time>2022-03-20T08:14:06.000Z</time></trkpt><trkpt lon="5.78258" lat="51.107054"><ele>-6</ele><time>2022-03-20T08:14:07.000Z</time></trkpt><trkpt lon="5.782587" lat="51.106979"><ele>-6</ele><time>2022-03-20T08:14:08.000Z</time></trkpt><trkpt lon="5.782592" lat="51.106908"><ele>-6</ele><time>2022-03-20T08:14:09.000Z</time></trkpt><trkpt lon="5.782598" lat="51.106833"><ele>-6</ele><time>2022-03-20T08:14:10.000Z</time></trkpt><trkpt lon="5.782605" lat="51.106763"><ele>-6</ele><time>2022-03-20T08:14:11.000Z</time></trkpt><trkpt lon="5.782612" lat="51.106691"><ele>-6</ele><time>2022-03-20T08:14:12.000Z</time></trkpt><trkpt lon="5.782621" lat="51.106625"><ele>-6.2</ele><time>2022-03-20T08:14:13.000Z</time></trkpt><trkpt lon="5.782631" lat="51.106557"><ele>-6.2</ele><time>2022-03-20T08:14:14.000Z</time></trkpt><trkpt lon="5.782637" lat="51.106485"><ele>-6.2</ele><time>2022-03-20T08:14:15.000Z</time></trkpt><trkpt lon="5.782641" lat="51.106416"><ele>-6.2</ele><time>2022-03-20T08:14:16.000Z</time></trkpt><trkpt lon="5.78264" lat="51.106351"><ele>-6.2</ele><time>2022-03-20T08:14:17.000Z</time></trkpt><trkpt lon="5.782636" lat="51.106285"><ele>-6.4</ele><time>2022-03-20T08:14:18.000Z</time></trkpt><trkpt lon="5.782631" lat="51.106216"><ele>-6.4</ele><time>2022-03-20T08:14:19.000Z</time></trkpt><trkpt lon="5.782625" lat="51.106145"><ele>-6.2</ele><time>2022-03-20T08:14:20.000Z</time></trkpt><trkpt lon="5.782618" lat="51.106073"><ele>-6.4</ele><time>2022-03-20T08:14:21.000Z</time></trkpt><trkpt lon="5.782612" lat="51.106001"><ele>-6.4</ele><time>2022-03-20T08:14:22.000Z</time></trkpt><trkpt lon="5.782607" lat="51.105932"><ele>-6.2</ele><time>2022-03-20T08:14:23.000Z</time></trkpt><trkpt lon="5.782608" lat="51.10586"><ele>-6.2</ele><time>2022-03-20T08:14:24.000Z</time></trkpt><trkpt lon="5.782614" lat="51.105787"><ele>-6.2</ele><time>2022-03-20T08:14:25.000Z</time></trkpt><trkpt lon="5.782624" lat="51.105714"><ele>-6.2</ele><time>2022-03-20T08:14:26.000Z</time></trkpt><trkpt lon="5.782638" lat="51.105642"><ele>-6.2</ele><time>2022-03-20T08:14:27.000Z</time></trkpt><trkpt lon="5.782658" lat="51.105572"><ele>-6.2</ele><time>2022-03-20T08:14:28.000Z</time></trkpt><trkpt lon="5.782685" lat="51.105504"><ele>-6.2</ele><time>2022-03-20T08:14:29.000Z</time></trkpt><trkpt lon="5.782716" lat="51.105438"><ele>-6.4</ele><time>2022-03-20T08:14:30.000Z</time></trkpt><trkpt lon="5.782747" lat="51.105371"><ele>-6.2</ele><time>2022-03-20T08:14:31.000Z</time></trkpt><trkpt lon="5.782783" lat="51.105305"><ele>-6.2</ele><time>2022-03-20T08:14:32.000Z</time></trkpt><trkpt lon="5.782823" lat="51.10524"><ele>-6.2</ele><time>2022-03-20T08:14:33.000Z</time></trkpt><trkpt lon="5.782871" lat="51.105174"><ele>-6</ele><time>2022-03-20T08:14:34.000Z</time></trkpt><trkpt lon="5.782928" lat="51.105113"><ele>-6</ele><time>2022-03-20T08:14:35.000Z</time></trkpt><trkpt lon="5.782995" lat="51.105058"><ele>-5.8</ele><time>2022-03-20T08:14:36.000Z</time></trkpt><trkpt lon="5.78307" lat="51.105005"><ele>-5.8</ele><time>2022-03-20T08:14:37.000Z</time></trkpt><trkpt lon="5.783147" lat="51.104954"><ele>-5.8</ele><time>2022-03-20T08:14:38.000Z</time></trkpt><trkpt lon="5.783226" lat="51.104908"><ele>-5.8</ele><time>2022-03-20T08:14:39.000Z</time></trkpt><trkpt lon="5.783312" lat="51.104862"><ele>-5.8</ele><time>2022-03-20T08:14:40.000Z</time></trkpt><trkpt lon="5.783398" lat="51.104821"><ele>-5.8</ele><time>2022-03-20T08:14:41.000Z</time></trkpt><trkpt lon="5.783487" lat="51.104781"><ele>-5.8</ele><time>2022-03-20T08:14:42.000Z</time></trkpt><trkpt lon="5.783578" lat="51.104741"><ele>-6</ele><time>2022-03-20T08:14:43.000Z</time></trkpt><trkpt lon="5.783665" lat="51.104706"><ele>-6</ele><time>2022-03-20T08:14:44.000Z</time></trkpt><trkpt lon="5.783754" lat="51.104666"><ele>-6</ele><time>2022-03-20T08:14:45.000Z</time></trkpt><trkpt lon="5.783841" lat="51.10463"><ele>-6</ele><time>2022-03-20T08:14:46.000Z</time></trkpt><trkpt lon="5.783922" lat="51.104593"><ele>-6</ele><time>2022-03-20T08:14:47.000Z</time></trkpt><trkpt lon="5.784005" lat="51.104558"><ele>-5.8</ele><time>2022-03-20T08:14:48.000Z</time></trkpt><trkpt lon="5.784083" lat="51.104523"><ele>-5.8</ele><time>2022-03-20T08:14:49.000Z</time></trkpt><trkpt lon="5.784145" lat="51.104484"><ele>-5.6</ele><time>2022-03-20T08:14:50.000Z</time></trkpt><trkpt lon="5.784184" lat="51.104442"><ele>-5.4</ele><time>2022-03-20T08:14:51.000Z</time></trkpt><trkpt lon="5.784192" lat="51.104393"><ele>-5.4</ele><time>2022-03-20T08:14:52.000Z</time></trkpt><trkpt lon="5.784173" lat="51.104344"><ele>-5.2</ele><time>2022-03-20T08:14:53.000Z</time></trkpt><trkpt lon="5.784137" lat="51.104291"><ele>-5.2</ele><time>2022-03-20T08:14:54.000Z</time></trkpt><trkpt lon="5.784095" lat="51.104238"><ele>-5.2</ele><time>2022-03-20T08:14:55.000Z</time></trkpt><trkpt lon="5.78405" lat="51.104184"><ele>-5.2</ele><time>2022-03-20T08:14:56.000Z</time></trkpt><trkpt lon="5.784007" lat="51.104131"><ele>-5.2</ele><time>2022-03-20T08:14:57.000Z</time></trkpt><trkpt lon="5.78397" lat="51.104077"><ele>-5.2</ele><time>2022-03-20T08:14:58.000Z</time></trkpt><trkpt lon="5.78395" lat="51.104021"><ele>-5.2</ele><time>2022-03-20T08:14:59.000Z</time></trkpt><trkpt lon="5.783956" lat="51.103964"><ele>-5</ele><time>2022-03-20T08:15:00.000Z</time></trkpt><trkpt lon="5.783989" lat="51.103919"><ele>-5</ele><time>2022-03-20T08:15:01.000Z</time></trkpt><trkpt lon="5.784053" lat="51.103885"><ele>-5</ele><time>2022-03-20T08:15:02.000Z</time></trkpt><trkpt lon="5.784143" lat="51.103866"><ele>-5.2</ele><time>2022-03-20T08:15:03.000Z</time></trkpt><trkpt lon="5.784243" lat="51.103857"><ele>-5.4</ele><time>2022-03-20T08:15:04.000Z</time></trkpt><trkpt lon="5.784344" lat="51.103855"><ele>-5.8</ele><time>2022-03-20T08:15:05.000Z</time></trkpt><trkpt lon="5.784446" lat="51.103855"><ele>-6</ele><time>2022-03-20T08:15:06.000Z</time></trkpt><trkpt lon="5.784544" lat="51.103855"><ele>-6.2</ele><time>2022-03-20T08:15:07.000Z</time></trkpt><trkpt lon="5.784641" lat="51.103858"><ele>-6.4</ele><time>2022-03-20T08:15:08.000Z</time></trkpt><trkpt lon="5.78474" lat="51.103865"><ele>-6.4</ele><time>2022-03-20T08:15:09.000Z</time></trkpt><trkpt lon="5.784844" lat="51.10387"><ele>-6.6</ele><time>2022-03-20T08:15:10.000Z</time></trkpt><trkpt lon="5.78495" lat="51.10387"><ele>-6.8</ele><time>2022-03-20T08:15:11.000Z</time></trkpt><trkpt lon="5.785057" lat="51.103868"><ele>-7</ele><time>2022-03-20T08:15:12.000Z</time></trkpt><trkpt lon="5.785166" lat="51.103855"><ele>-7.2</ele><time>2022-03-20T08:15:13.000Z</time></trkpt><trkpt lon="5.785277" lat="51.103837"><ele>-7.2</ele><time>2022-03-20T08:15:14.000Z</time></trkpt><trkpt lon="5.785389" lat="51.103818"><ele>-7.2</ele><time>2022-03-20T08:15:15.000Z</time></trkpt><trkpt lon="5.785498" lat="51.103801"><ele>-7.4</ele><time>2022-03-20T08:15:16.000Z</time></trkpt><trkpt lon="5.785606" lat="51.103783"><ele>-7.4</ele><time>2022-03-20T08:15:17.000Z</time></trkpt><trkpt lon="5.785714" lat="51.103767"><ele>-7.4</ele><time>2022-03-20T08:15:18.000Z</time></trkpt><trkpt lon="5.785822" lat="51.103752"><ele>-7.6</ele><time>2022-03-20T08:15:19.000Z</time></trkpt><trkpt lon="5.78593" lat="51.103734"><ele>-7.6</ele><time>2022-03-20T08:15:20.000Z</time></trkpt><trkpt lon="5.786035" lat="51.103715"><ele>-7.8</ele><time>2022-03-20T08:15:21.000Z</time></trkpt><trkpt lon="5.786139" lat="51.103695"><ele>-7.8</ele><time>2022-03-20T08:15:22.000Z</time></trkpt><trkpt lon="5.786238" lat="51.103674"><ele>-7.8</ele><time>2022-03-20T08:15:23.000Z</time></trkpt><trkpt lon="5.786338" lat="51.103648"><ele>-7.8</ele><time>2022-03-20T08:15:24.000Z</time></trkpt><trkpt lon="5.786438" lat="51.103621"><ele>-7.8</ele><time>2022-03-20T08:15:25.000Z</time></trkpt><trkpt lon="5.786538" lat="51.103597"><ele>-7.8</ele><time>2022-03-20T08:15:26.000Z</time></trkpt><trkpt lon="5.786636" lat="51.103572"><ele>-7.6</ele><time>2022-03-20T08:15:27.000Z</time></trkpt><trkpt lon="5.786736" lat="51.103545"><ele>-7.6</ele><time>2022-03-20T08:15:28.000Z</time></trkpt><trkpt lon="5.786833" lat="51.103518"><ele>-7.6</ele><time>2022-03-20T08:15:29.000Z</time></trkpt><trkpt lon="5.786928" lat="51.103491"><ele>-7.6</ele><time>2022-03-20T08:15:30.000Z</time></trkpt><trkpt lon="5.787024" lat="51.103462"><ele>-7.4</ele><time>2022-03-20T08:15:31.000Z</time></trkpt><trkpt lon="5.78712" lat="51.103434"><ele>-7.4</ele><time>2022-03-20T08:15:32.000Z</time></trkpt><trkpt lon="5.787215" lat="51.103408"><ele>-7.4</ele><time>2022-03-20T08:15:33.000Z</time></trkpt><trkpt lon="5.787311" lat="51.10338"><ele>-7.4</ele><time>2022-03-20T08:15:34.000Z</time></trkpt><trkpt lon="5.7874" lat="51.103354"><ele>-7.4</ele><time>2022-03-20T08:15:35.000Z</time></trkpt><trkpt lon="5.787486" lat="51.103327"><ele>-7.4</ele><time>2022-03-20T08:15:36.000Z</time></trkpt><trkpt lon="5.787569" lat="51.1033"><ele>-7.4</ele><time>2022-03-20T08:15:37.000Z</time></trkpt><trkpt lon="5.787648" lat="51.103277"><ele>-7.4</ele><time>2022-03-20T08:15:38.000Z</time></trkpt><trkpt lon="5.787727" lat="51.103254"><ele>-7.4</ele><time>2022-03-20T08:15:39.000Z</time></trkpt><trkpt lon="5.787794" lat="51.103228"><ele>-7.2</ele><time>2022-03-20T08:15:40.000Z</time></trkpt><trkpt lon="5.787833" lat="51.103193"><ele>-7.2</ele><time>2022-03-20T08:15:41.000Z</time></trkpt><trkpt lon="5.787826" lat="51.103152"><ele>-7</ele><time>2022-03-20T08:15:42.000Z</time></trkpt><trkpt lon="5.787781" lat="51.103107"><ele>-6.8</ele><time>2022-03-20T08:15:43.000Z</time></trkpt><trkpt lon="5.787722" lat="51.103061"><ele>-6.8</ele><time>2022-03-20T08:15:44.000Z</time></trkpt><trkpt lon="5.787666" lat="51.10301"><ele>-6.8</ele><time>2022-03-20T08:15:45.000Z</time></trkpt><trkpt lon="5.787613" lat="51.102953"><ele>-6.8</ele><time>2022-03-20T08:15:46.000Z</time></trkpt><trkpt lon="5.787568" lat="51.102893"><ele>-6.8</ele><time>2022-03-20T08:15:47.000Z</time></trkpt><trkpt lon="5.787531" lat="51.102833"><ele>-7</ele><time>2022-03-20T08:15:48.000Z</time></trkpt><trkpt lon="5.787495" lat="51.102771"><ele>-7</ele><time>2022-03-20T08:15:49.000Z</time></trkpt><trkpt lon="5.787465" lat="51.102707"><ele>-7</ele><time>2022-03-20T08:15:50.000Z</time></trkpt><trkpt lon="5.787446" lat="51.10264"><ele>-7</ele><time>2022-03-20T08:15:51.000Z</time></trkpt><trkpt lon="5.787442" lat="51.102573"><ele>-7</ele><time>2022-03-20T08:15:52.000Z</time></trkpt><trkpt lon="5.787448" lat="51.102506"><ele>-6.8</ele><time>2022-03-20T08:15:53.000Z</time></trkpt><trkpt lon="5.787458" lat="51.102443"><ele>-6.8</ele><time>2022-03-20T08:15:54.000Z</time></trkpt><trkpt lon="5.787468" lat="51.102376"><ele>-6.8</ele><time>2022-03-20T08:15:55.000Z</time></trkpt><trkpt lon="5.787482" lat="51.102307"><ele>-6.8</ele><time>2022-03-20T08:15:56.000Z</time></trkpt><trkpt lon="5.787495" lat="51.102238"><ele>-6.8</ele><time>2022-03-20T08:15:57.000Z</time></trkpt><trkpt lon="5.787511" lat="51.10217"><ele>-6.8</ele><time>2022-03-20T08:15:58.000Z</time></trkpt><trkpt lon="5.787528" lat="51.102101"><ele>-6.8</ele><time>2022-03-20T08:15:59.000Z</time></trkpt><trkpt lon="5.787546" lat="51.102033"><ele>-6.6</ele><time>2022-03-20T08:16:00.000Z</time></trkpt><trkpt lon="5.787562" lat="51.101967"><ele>-6.8</ele><time>2022-03-20T08:16:01.000Z</time></trkpt><trkpt lon="5.787576" lat="51.101903"><ele>-6.8</ele><time>2022-03-20T08:16:02.000Z</time></trkpt><trkpt lon="5.787591" lat="51.101837"><ele>-6.8</ele><time>2022-03-20T08:16:03.000Z</time></trkpt><trkpt lon="5.787605" lat="51.101769"><ele>-6.6</ele><time>2022-03-20T08:16:04.000Z</time></trkpt><trkpt lon="5.78762" lat="51.101701"><ele>-6.6</ele><time>2022-03-20T08:16:05.000Z</time></trkpt><trkpt lon="5.787635" lat="51.101632"><ele>-6.6</ele><time>2022-03-20T08:16:06.000Z</time></trkpt><trkpt lon="5.78765" lat="51.101563"><ele>-6.6</ele><time>2022-03-20T08:16:07.000Z</time></trkpt><trkpt lon="5.787664" lat="51.101495"><ele>-6.8</ele><time>2022-03-20T08:16:08.000Z</time></trkpt><trkpt lon="5.787678" lat="51.101427"><ele>-6.8</ele><time>2022-03-20T08:16:09.000Z</time></trkpt><trkpt lon="5.787691" lat="51.101358"><ele>-6.8</ele><time>2022-03-20T08:16:10.000Z</time></trkpt><trkpt lon="5.787702" lat="51.101289"><ele>-6.8</ele><time>2022-03-20T08:16:11.000Z</time></trkpt><trkpt lon="5.787715" lat="51.10122"><ele>-6.8</ele><time>2022-03-20T08:16:12.000Z</time></trkpt><trkpt lon="5.78773" lat="51.101151"><ele>-6.8</ele><time>2022-03-20T08:16:13.000Z</time></trkpt><trkpt lon="5.787742" lat="51.101082"><ele>-7</ele><time>2022-03-20T08:16:14.000Z</time></trkpt><trkpt lon="5.787755" lat="51.101014"><ele>-7</ele><time>2022-03-20T08:16:15.000Z</time></trkpt><trkpt lon="5.787769" lat="51.100948"><ele>-7</ele><time>2022-03-20T08:16:16.000Z</time></trkpt><trkpt lon="5.787784" lat="51.100881"><ele>-6.8</ele><time>2022-03-20T08:16:17.000Z</time></trkpt><trkpt lon="5.787801" lat="51.100809"><ele>-6.8</ele><time>2022-03-20T08:16:18.000Z</time></trkpt><trkpt lon="5.787818" lat="51.100739"><ele>-7</ele><time>2022-03-20T08:16:19.000Z</time></trkpt><trkpt lon="5.787834" lat="51.100672"><ele>-7</ele><time>2022-03-20T08:16:20.000Z</time></trkpt><trkpt lon="5.78785" lat="51.100603"><ele>-7</ele><time>2022-03-20T08:16:21.000Z</time></trkpt><trkpt lon="5.787866" lat="51.10053"><ele>-7.2</ele><time>2022-03-20T08:16:22.000Z</time></trkpt><trkpt lon="5.787884" lat="51.10046"><ele>-7.4</ele><time>2022-03-20T08:16:23.000Z</time></trkpt><trkpt lon="5.787901" lat="51.100392"><ele>-7.4</ele><time>2022-03-20T08:16:24.000Z</time></trkpt><trkpt lon="5.787916" lat="51.100324"><ele>-7.4</ele><time>2022-03-20T08:16:25.000Z</time></trkpt><trkpt lon="5.787933" lat="51.100255"><ele>-7.4</ele><time>2022-03-20T08:16:26.000Z</time></trkpt><trkpt lon="5.787948" lat="51.100189"><ele>-7.4</ele><time>2022-03-20T08:16:27.000Z</time></trkpt><trkpt lon="5.787963" lat="51.100122"><ele>-7.4</ele><time>2022-03-20T08:16:28.000Z</time></trkpt><trkpt lon="5.787979" lat="51.100056"><ele>-7.4</ele><time>2022-03-20T08:16:29.000Z</time></trkpt><trkpt lon="5.787995" lat="51.099991"><ele>-7.4</ele><time>2022-03-20T08:16:30.000Z</time></trkpt><trkpt lon="5.788012" lat="51.099929"><ele>-7.4</ele><time>2022-03-20T08:16:31.000Z</time></trkpt><trkpt lon="5.788031" lat="51.099865"><ele>-7.4</ele><time>2022-03-20T08:16:32.000Z</time></trkpt><trkpt lon="5.78805" lat="51.099803"><ele>-7.4</ele><time>2022-03-20T08:16:33.000Z</time></trkpt><trkpt lon="5.788069" lat="51.099741"><ele>-7.4</ele><time>2022-03-20T08:16:34.000Z</time></trkpt><trkpt lon="5.788086" lat="51.099687"><ele>-7.2</ele><time>2022-03-20T08:16:35.000Z</time></trkpt><trkpt lon="5.788099" lat="51.099636"><ele>-7.2</ele><time>2022-03-20T08:16:36.000Z</time></trkpt><trkpt lon="5.7881" lat="51.099587"><ele>-7</ele><time>2022-03-20T08:16:37.000Z</time></trkpt><trkpt lon="5.788089" lat="51.09954"><ele>-6.8</ele><time>2022-03-20T08:16:38.000Z</time></trkpt><trkpt lon="5.788079" lat="51.099494"><ele>-6.6</ele><time>2022-03-20T08:16:39.000Z</time></trkpt><trkpt lon="5.788091" lat="51.099445"><ele>-6.4</ele><time>2022-03-20T08:16:40.000Z</time></trkpt><trkpt lon="5.788133" lat="51.099405"><ele>-6.2</ele><time>2022-03-20T08:16:41.000Z</time></trkpt><trkpt lon="5.788198" lat="51.09939"><ele>-6.2</ele><time>2022-03-20T08:16:42.000Z</time></trkpt><trkpt lon="5.788276" lat="51.099399"><ele>-6</ele><time>2022-03-20T08:16:43.000Z</time></trkpt><trkpt lon="5.788368" lat="51.099418"><ele>-6.2</ele><time>2022-03-20T08:16:44.000Z</time></trkpt><trkpt lon="5.788469" lat="51.099428"><ele>-6.4</ele><time>2022-03-20T08:16:45.000Z</time></trkpt><trkpt lon="5.788572" lat="51.099439"><ele>-6.4</ele><time>2022-03-20T08:16:46.000Z</time></trkpt><trkpt lon="5.788679" lat="51.099447"><ele>-6.4</ele><time>2022-03-20T08:16:47.000Z</time></trkpt><trkpt lon="5.788786" lat="51.099455"><ele>-6.4</ele><time>2022-03-20T08:16:48.000Z</time></trkpt><trkpt lon="5.788894" lat="51.099466"><ele>-6.4</ele><time>2022-03-20T08:16:49.000Z</time></trkpt><trkpt lon="5.789004" lat="51.099477"><ele>-6.6</ele><time>2022-03-20T08:16:50.000Z</time></trkpt><trkpt lon="5.789115" lat="51.099488"><ele>-6.6</ele><time>2022-03-20T08:16:51.000Z</time></trkpt><trkpt lon="5.789224" lat="51.099497"><ele>-6.6</ele><time>2022-03-20T08:16:52.000Z</time></trkpt><trkpt lon="5.789332" lat="51.099508"><ele>-6.8</ele><time>2022-03-20T08:16:53.000Z</time></trkpt><trkpt lon="5.789439" lat="51.099519"><ele>-6.8</ele><time>2022-03-20T08:16:54.000Z</time></trkpt><trkpt lon="5.789547" lat="51.099527"><ele>-7</ele><time>2022-03-20T08:16:55.000Z</time></trkpt><trkpt lon="5.789655" lat="51.099535"><ele>-6.8</ele><time>2022-03-20T08:16:56.000Z</time></trkpt><trkpt lon="5.789765" lat="51.099543"><ele>-6.8</ele><time>2022-03-20T08:16:57.000Z</time></trkpt><trkpt lon="5.789874" lat="51.099547"><ele>-6.8</ele><time>2022-03-20T08:16:58.000Z</time></trkpt><trkpt lon="5.789981" lat="51.099554"><ele>-6.8</ele><time>2022-03-20T08:16:59.000Z</time></trkpt><trkpt lon="5.790081" lat="51.099559"><ele>-6.8</ele><time>2022-03-20T08:17:00.000Z</time></trkpt><trkpt lon="5.790192" lat="51.09956"><ele>-6.8</ele><time>2022-03-20T08:17:01.000Z</time></trkpt><trkpt lon="5.790307" lat="51.099563"><ele>-7</ele><time>2022-03-20T08:17:02.000Z</time></trkpt><trkpt lon="5.790416" lat="51.099567"><ele>-7</ele><time>2022-03-20T08:17:03.000Z</time></trkpt><trkpt lon="5.790526" lat="51.09957"><ele>-7.2</ele><time>2022-03-20T08:17:04.000Z</time></trkpt><trkpt lon="5.790634" lat="51.099571"><ele>-7</ele><time>2022-03-20T08:17:05.000Z</time></trkpt><trkpt lon="5.790745" lat="51.099571"><ele>-7</ele><time>2022-03-20T08:17:06.000Z</time></trkpt><trkpt lon="5.790856" lat="51.099574"><ele>-7</ele><time>2022-03-20T08:17:07.000Z</time></trkpt><trkpt lon="5.790965" lat="51.099575"><ele>-7</ele><time>2022-03-20T08:17:08.000Z</time></trkpt><trkpt lon="5.791074" lat="51.099572"><ele>-7</ele><time>2022-03-20T08:17:09.000Z</time></trkpt><trkpt lon="5.791182" lat="51.099568"><ele>-7</ele><time>2022-03-20T08:17:10.000Z</time></trkpt><trkpt lon="5.79129" lat="51.099564"><ele>-7</ele><time>2022-03-20T08:17:11.000Z</time></trkpt><trkpt lon="5.791398" lat="51.099561"><ele>-7</ele><time>2022-03-20T08:17:12.000Z</time></trkpt><trkpt lon="5.791504" lat="51.099557"><ele>-7</ele><time>2022-03-20T08:17:13.000Z</time></trkpt><trkpt lon="5.791611" lat="51.099553"><ele>-6.8</ele><time>2022-03-20T08:17:14.000Z</time></trkpt><trkpt lon="5.791716" lat="51.099549"><ele>-6.8</ele><time>2022-03-20T08:17:15.000Z</time></trkpt><trkpt lon="5.79182" lat="51.099545"><ele>-6.8</ele><time>2022-03-20T08:17:16.000Z</time></trkpt><trkpt lon="5.791927" lat="51.099539"><ele>-6.8</ele><time>2022-03-20T08:17:17.000Z</time></trkpt><trkpt lon="5.792032" lat="51.099531"><ele>-6.8</ele><time>2022-03-20T08:17:18.000Z</time></trkpt><trkpt lon="5.792137" lat="51.099523"><ele>-6.8</ele><time>2022-03-20T08:17:19.000Z</time></trkpt><trkpt lon="5.792242" lat="51.099516"><ele>-6.8</ele><time>2022-03-20T08:17:20.000Z</time></trkpt><trkpt lon="5.79235" lat="51.099508"><ele>-6.8</ele><time>2022-03-20T08:17:21.000Z</time></trkpt><trkpt lon="5.792458" lat="51.099498"><ele>-6.8</ele><time>2022-03-20T08:17:22.000Z</time></trkpt><trkpt lon="5.792567" lat="51.099486"><ele>-6.8</ele><time>2022-03-20T08:17:23.000Z</time></trkpt><trkpt lon="5.792677" lat="51.099475"><ele>-6.8</ele><time>2022-03-20T08:17:24.000Z</time></trkpt><trkpt lon="5.792785" lat="51.099466"><ele>-7</ele><time>2022-03-20T08:17:25.000Z</time></trkpt><trkpt lon="5.792892" lat="51.099453"><ele>-7</ele><time>2022-03-20T08:17:26.000Z</time></trkpt><trkpt lon="5.792997" lat="51.09944"><ele>-7</ele><time>2022-03-20T08:17:27.000Z</time></trkpt><trkpt lon="5.793104" lat="51.099426"><ele>-7</ele><time>2022-03-20T08:17:28.000Z</time></trkpt><trkpt lon="5.79321" lat="51.099411"><ele>-7.2</ele><time>2022-03-20T08:17:29.000Z</time></trkpt><trkpt lon="5.793316" lat="51.099398"><ele>-7.4</ele><time>2022-03-20T08:17:30.000Z</time></trkpt><trkpt lon="5.793421" lat="51.099384"><ele>-7.4</ele><time>2022-03-20T08:17:31.000Z</time></trkpt><trkpt lon="5.793526" lat="51.099369"><ele>-7.2</ele><time>2022-03-20T08:17:32.000Z</time></trkpt><trkpt lon="5.793631" lat="51.099354"><ele>-7.4</ele><time>2022-03-20T08:17:33.000Z</time></trkpt><trkpt lon="5.793736" lat="51.099335"><ele>-7.4</ele><time>2022-03-20T08:17:34.000Z</time></trkpt><trkpt lon="5.79384" lat="51.099316"><ele>-7.4</ele><time>2022-03-20T08:17:35.000Z</time></trkpt><trkpt lon="5.793942" lat="51.0993"><ele>-7.4</ele><time>2022-03-20T08:17:36.000Z</time></trkpt><trkpt lon="5.794045" lat="51.099282"><ele>-7.4</ele><time>2022-03-20T08:17:37.000Z</time></trkpt><trkpt lon="5.794148" lat="51.099263"><ele>-7.2</ele><time>2022-03-20T08:17:38.000Z</time></trkpt><trkpt lon="5.794249" lat="51.099244"><ele>-7.2</ele><time>2022-03-20T08:17:39.000Z</time></trkpt><trkpt lon="5.794351" lat="51.099222"><ele>-7.2</ele><time>2022-03-20T08:17:40.000Z</time></trkpt><trkpt lon="5.794455" lat="51.099202"><ele>-7.2</ele><time>2022-03-20T08:17:41.000Z</time></trkpt><trkpt lon="5.794556" lat="51.099183"><ele>-7.2</ele><time>2022-03-20T08:17:42.000Z</time></trkpt><trkpt lon="5.794659" lat="51.099164"><ele>-7.2</ele><time>2022-03-20T08:17:43.000Z</time></trkpt><trkpt lon="5.794762" lat="51.099142"><ele>-7.2</ele><time>2022-03-20T08:17:44.000Z</time></trkpt><trkpt lon="5.794863" lat="51.099119"><ele>-7.2</ele><time>2022-03-20T08:17:45.000Z</time></trkpt><trkpt lon="5.794963" lat="51.099093"><ele>-7.2</ele><time>2022-03-20T08:17:46.000Z</time></trkpt><trkpt lon="5.795065" lat="51.099066"><ele>-7.2</ele><time>2022-03-20T08:17:47.000Z</time></trkpt><trkpt lon="5.795166" lat="51.099045"><ele>-7</ele><time>2022-03-20T08:17:48.000Z</time></trkpt><trkpt lon="5.795267" lat="51.099023"><ele>-7</ele><time>2022-03-20T08:17:49.000Z</time></trkpt><trkpt lon="5.795363" lat="51.099001"><ele>-7</ele><time>2022-03-20T08:17:50.000Z</time></trkpt><trkpt lon="5.795455" lat="51.098978"><ele>-6.8</ele><time>2022-03-20T08:17:51.000Z</time></trkpt><trkpt lon="5.795544" lat="51.098955"><ele>-6.6</ele><time>2022-03-20T08:17:52.000Z</time></trkpt><trkpt lon="5.795631" lat="51.098935"><ele>-6.6</ele><time>2022-03-20T08:17:53.000Z</time></trkpt><trkpt lon="5.795711" lat="51.098913"><ele>-6.4</ele><time>2022-03-20T08:17:54.000Z</time></trkpt><trkpt lon="5.795787" lat="51.098887"><ele>-6.2</ele><time>2022-03-20T08:17:55.000Z</time></trkpt><trkpt lon="5.795859" lat="51.09886"><ele>-6.2</ele><time>2022-03-20T08:17:56.000Z</time></trkpt><trkpt lon="5.795937" lat="51.098834"><ele>-6.2</ele><time>2022-03-20T08:17:57.000Z</time></trkpt><trkpt lon="5.79602" lat="51.098816"><ele>-6.2</ele><time>2022-03-20T08:17:58.000Z</time></trkpt><trkpt lon="5.796113" lat="51.098806"><ele>-6</ele><time>2022-03-20T08:17:59.000Z</time></trkpt><trkpt lon="5.796212" lat="51.098805"><ele>-6</ele><time>2022-03-20T08:18:00.000Z</time></trkpt><trkpt lon="5.796312" lat="51.098807"><ele>-6.2</ele><time>2022-03-20T08:18:01.000Z</time></trkpt><trkpt lon="5.796416" lat="51.098808"><ele>-6.4</ele><time>2022-03-20T08:18:02.000Z</time></trkpt><trkpt lon="5.79652" lat="51.0988"><ele>-6.4</ele><time>2022-03-20T08:18:03.000Z</time></trkpt><trkpt lon="5.796625" lat="51.098785"><ele>-6.4</ele><time>2022-03-20T08:18:04.000Z</time></trkpt><trkpt lon="5.796724" lat="51.098761"><ele>-6.4</ele><time>2022-03-20T08:18:05.000Z</time></trkpt><trkpt lon="5.796822" lat="51.098732"><ele>-6.4</ele><time>2022-03-20T08:18:06.000Z</time></trkpt><trkpt lon="5.79692" lat="51.098704"><ele>-6.4</ele><time>2022-03-20T08:18:07.000Z</time></trkpt><trkpt lon="5.797017" lat="51.098674"><ele>-6.4</ele><time>2022-03-20T08:18:08.000Z</time></trkpt><trkpt lon="5.797116" lat="51.098644"><ele>-6.4</ele><time>2022-03-20T08:18:09.000Z</time></trkpt><trkpt lon="5.79721" lat="51.098608"><ele>-6.4</ele><time>2022-03-20T08:18:10.000Z</time></trkpt><trkpt lon="5.797306" lat="51.098572"><ele>-6.4</ele><time>2022-03-20T08:18:11.000Z</time></trkpt><trkpt lon="5.797399" lat="51.098538"><ele>-6.4</ele><time>2022-03-20T08:18:12.000Z</time></trkpt><trkpt lon="5.797487" lat="51.098498"><ele>-6.6</ele><time>2022-03-20T08:18:13.000Z</time></trkpt><trkpt lon="5.797575" lat="51.098459"><ele>-6.6</ele><time>2022-03-20T08:18:14.000Z</time></trkpt><trkpt lon="5.797661" lat="51.098415"><ele>-6.6</ele><time>2022-03-20T08:18:15.000Z</time></trkpt><trkpt lon="5.797742" lat="51.098369"><ele>-6.6</ele><time>2022-03-20T08:18:16.000Z</time></trkpt><trkpt lon="5.797818" lat="51.098324"><ele>-6.6</ele><time>2022-03-20T08:18:17.000Z</time></trkpt><trkpt lon="5.797896" lat="51.098274"><ele>-6.6</ele><time>2022-03-20T08:18:18.000Z</time></trkpt><trkpt lon="5.797971" lat="51.098222"><ele>-6.6</ele><time>2022-03-20T08:18:19.000Z</time></trkpt><trkpt lon="5.798046" lat="51.098171"><ele>-6.6</ele><time>2022-03-20T08:18:20.000Z</time></trkpt><trkpt lon="5.798121" lat="51.098119"><ele>-6.6</ele><time>2022-03-20T08:18:21.000Z</time></trkpt><trkpt lon="5.798198" lat="51.098065"><ele>-6.6</ele><time>2022-03-20T08:18:22.000Z</time></trkpt><trkpt lon="5.798273" lat="51.098015"><ele>-6.6</ele><time>2022-03-20T08:18:23.000Z</time></trkpt><trkpt lon="5.798349" lat="51.097962"><ele>-6.8</ele><time>2022-03-20T08:18:24.000Z</time></trkpt><trkpt lon="5.798424" lat="51.097909"><ele>-6.8</ele><time>2022-03-20T08:18:25.000Z</time></trkpt><trkpt lon="5.798497" lat="51.097856"><ele>-7</ele><time>2022-03-20T08:18:26.000Z</time></trkpt><trkpt lon="5.79857" lat="51.097802"><ele>-7.2</ele><time>2022-03-20T08:18:27.000Z</time></trkpt><trkpt lon="5.798641" lat="51.097751"><ele>-7.4</ele><time>2022-03-20T08:18:28.000Z</time></trkpt><trkpt lon="5.79871" lat="51.097702"><ele>-7.6</ele><time>2022-03-20T08:18:29.000Z</time></trkpt><trkpt lon="5.798778" lat="51.097655"><ele>-7.6</ele><time>2022-03-20T08:18:30.000Z</time></trkpt><trkpt lon="5.798845" lat="51.097607"><ele>-7.6</ele><time>2022-03-20T08:18:31.000Z</time></trkpt><trkpt lon="5.798914" lat="51.097557"><ele>-7.6</ele><time>2022-03-20T08:18:32.000Z</time></trkpt><trkpt lon="5.798981" lat="51.09751"><ele>-7.6</ele><time>2022-03-20T08:18:33.000Z</time></trkpt><trkpt lon="5.799046" lat="51.097464"><ele>-7.8</ele><time>2022-03-20T08:18:34.000Z</time></trkpt><trkpt lon="5.799109" lat="51.097419"><ele>-7.6</ele><time>2022-03-20T08:18:35.000Z</time></trkpt><trkpt lon="5.799172" lat="51.097376"><ele>-7.4</ele><time>2022-03-20T08:18:36.000Z</time></trkpt><trkpt lon="5.799235" lat="51.097334"><ele>-7.4</ele><time>2022-03-20T08:18:37.000Z</time></trkpt><trkpt lon="5.799298" lat="51.097293"><ele>-7.2</ele><time>2022-03-20T08:18:38.000Z</time></trkpt><trkpt lon="5.799358" lat="51.097251"><ele>-7.2</ele><time>2022-03-20T08:18:39.000Z</time></trkpt><trkpt lon="5.799415" lat="51.097208"><ele>-7.2</ele><time>2022-03-20T08:18:40.000Z</time></trkpt><trkpt lon="5.799468" lat="51.097157"><ele>-7.2</ele><time>2022-03-20T08:18:41.000Z</time></trkpt><trkpt lon="5.799507" lat="51.097104"><ele>-7.2</ele><time>2022-03-20T08:18:42.000Z</time></trkpt><trkpt lon="5.799524" lat="51.097045"><ele>-7.2</ele><time>2022-03-20T08:18:43.000Z</time></trkpt><trkpt lon="5.79952" lat="51.096987"><ele>-7.2</ele><time>2022-03-20T08:18:44.000Z</time></trkpt><trkpt lon="5.799496" lat="51.096924"><ele>-7.2</ele><time>2022-03-20T08:18:45.000Z</time></trkpt><trkpt lon="5.799463" lat="51.096856"><ele>-7.2</ele><time>2022-03-20T08:18:46.000Z</time></trkpt><trkpt lon="5.79943" lat="51.09679"><ele>-7.2</ele><time>2022-03-20T08:18:47.000Z</time></trkpt><trkpt lon="5.799395" lat="51.096722"><ele>-7.2</ele><time>2022-03-20T08:18:48.000Z</time></trkpt><trkpt lon="5.799357" lat="51.096653"><ele>-7.2</ele><time>2022-03-20T08:18:49.000Z</time></trkpt><trkpt lon="5.799318" lat="51.096585"><ele>-7.2</ele><time>2022-03-20T08:18:50.000Z</time></trkpt><trkpt lon="5.799278" lat="51.096516"><ele>-7.2</ele><time>2022-03-20T08:18:51.000Z</time></trkpt><trkpt lon="5.799236" lat="51.096451"><ele>-7.2</ele><time>2022-03-20T08:18:52.000Z</time></trkpt><trkpt lon="5.799192" lat="51.096386"><ele>-7</ele><time>2022-03-20T08:18:53.000Z</time></trkpt><trkpt lon="5.799146" lat="51.096324"><ele>-7</ele><time>2022-03-20T08:18:54.000Z</time></trkpt><trkpt lon="5.7991" lat="51.09626"><ele>-7</ele><time>2022-03-20T08:18:55.000Z</time></trkpt><trkpt lon="5.799054" lat="51.096195"><ele>-7</ele><time>2022-03-20T08:18:56.000Z</time></trkpt><trkpt lon="5.799008" lat="51.096134"><ele>-7</ele><time>2022-03-20T08:18:57.000Z</time></trkpt><trkpt lon="5.798959" lat="51.096073"><ele>-7</ele><time>2022-03-20T08:18:58.000Z</time></trkpt><trkpt lon="5.798907" lat="51.096012"><ele>-7</ele><time>2022-03-20T08:18:59.000Z</time></trkpt><trkpt lon="5.798853" lat="51.09595"><ele>-7</ele><time>2022-03-20T08:19:00.000Z</time></trkpt><trkpt lon="5.798801" lat="51.095889"><ele>-7</ele><time>2022-03-20T08:19:01.000Z</time></trkpt><trkpt lon="5.798746" lat="51.095831"><ele>-7</ele><time>2022-03-20T08:19:02.000Z</time></trkpt><trkpt lon="5.798692" lat="51.095772"><ele>-7</ele><time>2022-03-20T08:19:03.000Z</time></trkpt><trkpt lon="5.798635" lat="51.095713"><ele>-7</ele><time>2022-03-20T08:19:04.000Z</time></trkpt><trkpt lon="5.798578" lat="51.095656"><ele>-7</ele><time>2022-03-20T08:19:05.000Z</time></trkpt><trkpt lon="5.798523" lat="51.095595"><ele>-7</ele><time>2022-03-20T08:19:06.000Z</time></trkpt><trkpt lon="5.798467" lat="51.095537"><ele>-6.8</ele><time>2022-03-20T08:19:07.000Z</time></trkpt><trkpt lon="5.798409" lat="51.09548"><ele>-6.8</ele><time>2022-03-20T08:19:08.000Z</time></trkpt><trkpt lon="5.79835" lat="51.095422"><ele>-6.8</ele><time>2022-03-20T08:19:09.000Z</time></trkpt><trkpt lon="5.798291" lat="51.095368"><ele>-6.8</ele><time>2022-03-20T08:19:10.000Z</time></trkpt><trkpt lon="5.79823" lat="51.095312"><ele>-6.8</ele><time>2022-03-20T08:19:11.000Z</time></trkpt><trkpt lon="5.798164" lat="51.095258"><ele>-6.6</ele><time>2022-03-20T08:19:12.000Z</time></trkpt><trkpt lon="5.798098" lat="51.095205"><ele>-6.6</ele><time>2022-03-20T08:19:13.000Z</time></trkpt><trkpt lon="5.798035" lat="51.095152"><ele>-6.6</ele><time>2022-03-20T08:19:14.000Z</time></trkpt><trkpt lon="5.797976" lat="51.095098"><ele>-6.6</ele><time>2022-03-20T08:19:15.000Z</time></trkpt><trkpt lon="5.797919" lat="51.095041"><ele>-6.6</ele><time>2022-03-20T08:19:16.000Z</time></trkpt><trkpt lon="5.79786" lat="51.094987"><ele>-6.6</ele><time>2022-03-20T08:19:17.000Z</time></trkpt><trkpt lon="5.797802" lat="51.09493"><ele>-6.6</ele><time>2022-03-20T08:19:18.000Z</time></trkpt><trkpt lon="5.797746" lat="51.094877"><ele>-6.4</ele><time>2022-03-20T08:19:19.000Z</time></trkpt><trkpt lon="5.797686" lat="51.094823"><ele>-6.4</ele><time>2022-03-20T08:19:20.000Z</time></trkpt><trkpt lon="5.797621" lat="51.094773"><ele>-6.4</ele><time>2022-03-20T08:19:21.000Z</time></trkpt><trkpt lon="5.797546" lat="51.094732"><ele>-6.6</ele><time>2022-03-20T08:19:22.000Z</time></trkpt><trkpt lon="5.79746" lat="51.094705"><ele>-6.4</ele><time>2022-03-20T08:19:23.000Z</time></trkpt><trkpt lon="5.797366" lat="51.094697"><ele>-6.4</ele><time>2022-03-20T08:19:24.000Z</time></trkpt><trkpt lon="5.797268" lat="51.094693"><ele>-6.4</ele><time>2022-03-20T08:19:25.000Z</time></trkpt><trkpt lon="5.797165" lat="51.094689"><ele>-6.4</ele><time>2022-03-20T08:19:26.000Z</time></trkpt><trkpt lon="5.797065" lat="51.09468"><ele>-6.4</ele><time>2022-03-20T08:19:27.000Z</time></trkpt><trkpt lon="5.796975" lat="51.094662"><ele>-6.4</ele><time>2022-03-20T08:19:28.000Z</time></trkpt><trkpt lon="5.796907" lat="51.094629"><ele>-6.2</ele><time>2022-03-20T08:19:29.000Z</time></trkpt><trkpt lon="5.796862" lat="51.094575"><ele>-6.2</ele><time>2022-03-20T08:19:30.000Z</time></trkpt><trkpt lon="5.79683" lat="51.094512"><ele>-6.2</ele><time>2022-03-20T08:19:31.000Z</time></trkpt><trkpt lon="5.796805" lat="51.094442"><ele>-6.4</ele><time>2022-03-20T08:19:32.000Z</time></trkpt><trkpt lon="5.796782" lat="51.094373"><ele>-6.4</ele><time>2022-03-20T08:19:33.000Z</time></trkpt><trkpt lon="5.796759" lat="51.094304"><ele>-6.4</ele><time>2022-03-20T08:19:34.000Z</time></trkpt><trkpt lon="5.796736" lat="51.094238"><ele>-6.4</ele><time>2022-03-20T08:19:35.000Z</time></trkpt><trkpt lon="5.79671" lat="51.094176"><ele>-6.4</ele><time>2022-03-20T08:19:36.000Z</time></trkpt><trkpt lon="5.796682" lat="51.094115"><ele>-6.4</ele><time>2022-03-20T08:19:37.000Z</time></trkpt><trkpt lon="5.796649" lat="51.094057"><ele>-6.4</ele><time>2022-03-20T08:19:38.000Z</time></trkpt><trkpt lon="5.796614" lat="51.094"><ele>-6.4</ele><time>2022-03-20T08:19:39.000Z</time></trkpt><trkpt lon="5.796575" lat="51.093945"><ele>-6.4</ele><time>2022-03-20T08:19:40.000Z</time></trkpt><trkpt lon="5.796541" lat="51.093893"><ele>-6.6</ele><time>2022-03-20T08:19:41.000Z</time></trkpt><trkpt lon="5.796508" lat="51.09384"><ele>-6.6</ele><time>2022-03-20T08:19:42.000Z</time></trkpt><trkpt lon="5.796476" lat="51.093786"><ele>-6.6</ele><time>2022-03-20T08:19:43.000Z</time></trkpt><trkpt lon="5.796445" lat="51.093736"><ele>-6.4</ele><time>2022-03-20T08:19:44.000Z</time></trkpt><trkpt lon="5.79642" lat="51.093682"><ele>-6.4</ele><time>2022-03-20T08:19:45.000Z</time></trkpt><trkpt lon="5.796415" lat="51.093629"><ele>-6.2</ele><time>2022-03-20T08:19:46.000Z</time></trkpt><trkpt lon="5.796437" lat="51.093576"><ele>-6.2</ele><time>2022-03-20T08:19:47.000Z</time></trkpt><trkpt lon="5.796481" lat="51.093526"><ele>-6</ele><time>2022-03-20T08:19:48.000Z</time></trkpt><trkpt lon="5.796546" lat="51.093478"><ele>-5.8</ele><time>2022-03-20T08:19:49.000Z</time></trkpt><trkpt lon="5.796626" lat="51.093441"><ele>-5.8</ele><time>2022-03-20T08:19:50.000Z</time></trkpt><trkpt lon="5.796716" lat="51.093428"><ele>-5.8</ele><time>2022-03-20T08:19:51.000Z</time></trkpt><trkpt lon="5.79681" lat="51.093429"><ele>-5.6</ele><time>2022-03-20T08:19:52.000Z</time></trkpt><trkpt lon="5.796901" lat="51.093432"><ele>-5.4</ele><time>2022-03-20T08:19:53.000Z</time></trkpt><trkpt lon="5.796989" lat="51.093428"><ele>-5.4</ele><time>2022-03-20T08:19:54.000Z</time></trkpt><trkpt lon="5.797075" lat="51.093411"><ele>-5.2</ele><time>2022-03-20T08:19:55.000Z</time></trkpt><trkpt lon="5.797167" lat="51.093392"><ele>-5</ele><time>2022-03-20T08:19:56.000Z</time></trkpt><trkpt lon="5.797262" lat="51.09337"><ele>-4.8</ele><time>2022-03-20T08:19:57.000Z</time></trkpt><trkpt lon="5.797355" lat="51.093345"><ele>-4.6</ele><time>2022-03-20T08:19:58.000Z</time></trkpt><trkpt lon="5.797448" lat="51.093315"><ele>-4.4</ele><time>2022-03-20T08:19:59.000Z</time></trkpt><trkpt lon="5.797527" lat="51.093284"><ele>-4</ele><time>2022-03-20T08:20:00.000Z</time></trkpt><trkpt lon="5.797599" lat="51.093251"><ele>-3.6</ele><time>2022-03-20T08:20:01.000Z</time></trkpt><trkpt lon="5.797667" lat="51.093216"><ele>-3.4</ele><time>2022-03-20T08:20:02.000Z</time></trkpt><trkpt lon="5.797728" lat="51.093181"><ele>-3</ele><time>2022-03-20T08:20:03.000Z</time></trkpt><trkpt lon="5.797795" lat="51.093139"><ele>-2.6</ele><time>2022-03-20T08:20:04.000Z</time></trkpt><trkpt lon="5.797862" lat="51.093099"><ele>-2.4</ele><time>2022-03-20T08:20:05.000Z</time></trkpt><trkpt lon="5.797928" lat="51.09306"><ele>-2</ele><time>2022-03-20T08:20:06.000Z</time></trkpt><trkpt lon="5.797994" lat="51.09302"><ele>-1.6</ele><time>2022-03-20T08:20:07.000Z</time></trkpt><trkpt lon="5.798064" lat="51.092978"><ele>-1.4</ele><time>2022-03-20T08:20:08.000Z</time></trkpt><trkpt lon="5.798132" lat="51.092936"><ele>-1.2</ele><time>2022-03-20T08:20:09.000Z</time></trkpt><trkpt lon="5.798203" lat="51.092894"><ele>-1</ele><time>2022-03-20T08:20:10.000Z</time></trkpt><trkpt lon="5.798276" lat="51.092852"><ele>-0.8</ele><time>2022-03-20T08:20:11.000Z</time></trkpt><trkpt lon="5.798349" lat="51.09281"><ele>-0.6</ele><time>2022-03-20T08:20:12.000Z</time></trkpt><trkpt lon="5.798421" lat="51.092765"><ele>-0.4</ele><time>2022-03-20T08:20:13.000Z</time></trkpt><trkpt lon="5.798494" lat="51.092723"><ele>-0.2</ele><time>2022-03-20T08:20:14.000Z</time></trkpt><trkpt lon="5.798571" lat="51.092677"><ele>-0.2</ele><time>2022-03-20T08:20:15.000Z</time></trkpt><trkpt lon="5.798646" lat="51.092635"><ele>-0.2</ele><time>2022-03-20T08:20:16.000Z</time></trkpt><trkpt lon="5.798721" lat="51.092589"><ele>0</ele><time>2022-03-20T08:20:17.000Z</time></trkpt><trkpt lon="5.798799" lat="51.092544"><ele>0</ele><time>2022-03-20T08:20:18.000Z</time></trkpt><trkpt lon="5.798876" lat="51.092498"><ele>0</ele><time>2022-03-20T08:20:19.000Z</time></trkpt><trkpt lon="5.798953" lat="51.092452"><ele>0</ele><time>2022-03-20T08:20:20.000Z</time></trkpt><trkpt lon="5.79903" lat="51.092407"><ele>0</ele><time>2022-03-20T08:20:21.000Z</time></trkpt><trkpt lon="5.799105" lat="51.092361"><ele>0</ele><time>2022-03-20T08:20:22.000Z</time></trkpt><trkpt lon="5.799182" lat="51.092315"><ele>-0.2</ele><time>2022-03-20T08:20:23.000Z</time></trkpt><trkpt lon="5.799257" lat="51.092269"><ele>-0.4</ele><time>2022-03-20T08:20:24.000Z</time></trkpt><trkpt lon="5.799333" lat="51.092226"><ele>-0.6</ele><time>2022-03-20T08:20:25.000Z</time></trkpt><trkpt lon="5.799409" lat="51.092181"><ele>-1</ele><time>2022-03-20T08:20:26.000Z</time></trkpt><trkpt lon="5.799485" lat="51.092136"><ele>-1.2</ele><time>2022-03-20T08:20:27.000Z</time></trkpt><trkpt lon="5.799562" lat="51.09209"><ele>-1.6</ele><time>2022-03-20T08:20:28.000Z</time></trkpt><trkpt lon="5.799644" lat="51.092044"><ele>-1.8</ele><time>2022-03-20T08:20:29.000Z</time></trkpt><trkpt lon="5.799729" lat="51.091995"><ele>-2.4</ele><time>2022-03-20T08:20:30.000Z</time></trkpt><trkpt lon="5.799811" lat="51.091946"><ele>-3</ele><time>2022-03-20T08:20:31.000Z</time></trkpt><trkpt lon="5.799891" lat="51.091894"><ele>-3.6</ele><time>2022-03-20T08:20:32.000Z</time></trkpt><trkpt lon="5.799969" lat="51.091834"><ele>-3.8</ele><time>2022-03-20T08:20:33.000Z</time></trkpt><trkpt lon="5.800042" lat="51.09177"><ele>-4</ele><time>2022-03-20T08:20:34.000Z</time></trkpt><trkpt lon="5.800112" lat="51.0917"><ele>-4.2</ele><time>2022-03-20T08:20:35.000Z</time></trkpt><trkpt lon="5.800183" lat="51.091627"><ele>-4.6</ele><time>2022-03-20T08:20:36.000Z</time></trkpt><trkpt lon="5.800251" lat="51.091554"><ele>-5</ele><time>2022-03-20T08:20:37.000Z</time></trkpt><trkpt lon="5.800313" lat="51.091479"><ele>-5.2</ele><time>2022-03-20T08:20:38.000Z</time></trkpt><trkpt lon="5.800359" lat="51.0914"><ele>-5.4</ele><time>2022-03-20T08:20:39.000Z</time></trkpt><trkpt lon="5.80039" lat="51.091316"><ele>-5.6</ele><time>2022-03-20T08:20:40.000Z</time></trkpt><trkpt lon="5.800412" lat="51.091233"><ele>-5.8</ele><time>2022-03-20T08:20:41.000Z</time></trkpt><trkpt lon="5.800423" lat="51.091149"><ele>-5.8</ele><time>2022-03-20T08:20:42.000Z</time></trkpt><trkpt lon="5.800429" lat="51.091062"><ele>-6</ele><time>2022-03-20T08:20:43.000Z</time></trkpt><trkpt lon="5.800429" lat="51.090978"><ele>-6</ele><time>2022-03-20T08:20:44.000Z</time></trkpt><trkpt lon="5.800427" lat="51.090896"><ele>-6</ele><time>2022-03-20T08:20:45.000Z</time></trkpt><trkpt lon="5.800423" lat="51.090813"><ele>-6</ele><time>2022-03-20T08:20:46.000Z</time></trkpt><trkpt lon="5.800418" lat="51.090732"><ele>-5.8</ele><time>2022-03-20T08:20:47.000Z</time></trkpt><trkpt lon="5.800411" lat="51.090658"><ele>-5.8</ele><time>2022-03-20T08:20:48.000Z</time></trkpt><trkpt lon="5.800406" lat="51.090586"><ele>-5.8</ele><time>2022-03-20T08:20:49.000Z</time></trkpt><trkpt lon="5.800404" lat="51.090515"><ele>-5.8</ele><time>2022-03-20T08:20:50.000Z</time></trkpt><trkpt lon="5.800402" lat="51.090442"><ele>-5.6</ele><time>2022-03-20T08:20:51.000Z</time></trkpt><trkpt lon="5.800403" lat="51.09037"><ele>-5.6</ele><time>2022-03-20T08:20:52.000Z</time></trkpt><trkpt lon="5.800408" lat="51.090299"><ele>-5.4</ele><time>2022-03-20T08:20:53.000Z</time></trkpt><trkpt lon="5.800417" lat="51.090227"><ele>-5.4</ele><time>2022-03-20T08:20:54.000Z</time></trkpt><trkpt lon="5.80043" lat="51.090157"><ele>-5.4</ele><time>2022-03-20T08:20:55.000Z</time></trkpt><trkpt lon="5.800448" lat="51.090089"><ele>-5.2</ele><time>2022-03-20T08:20:56.000Z</time></trkpt><trkpt lon="5.800474" lat="51.09002"><ele>-5.2</ele><time>2022-03-20T08:20:57.000Z</time></trkpt><trkpt lon="5.800504" lat="51.089951"><ele>-5.2</ele><time>2022-03-20T08:20:58.000Z</time></trkpt><trkpt lon="5.800541" lat="51.089886"><ele>-5.2</ele><time>2022-03-20T08:20:59.000Z</time></trkpt><trkpt lon="5.800584" lat="51.089818"><ele>-5.2</ele><time>2022-03-20T08:21:00.000Z</time></trkpt><trkpt lon="5.800633" lat="51.089752"><ele>-5.2</ele><time>2022-03-20T08:21:01.000Z</time></trkpt><trkpt lon="5.800685" lat="51.089691"><ele>-5.4</ele><time>2022-03-20T08:21:02.000Z</time></trkpt><trkpt lon="5.800739" lat="51.089629"><ele>-5.4</ele><time>2022-03-20T08:21:03.000Z</time></trkpt><trkpt lon="5.800796" lat="51.089568"><ele>-5.4</ele><time>2022-03-20T08:21:04.000Z</time></trkpt><trkpt lon="5.80085" lat="51.089511"><ele>-5.4</ele><time>2022-03-20T08:21:05.000Z</time></trkpt><trkpt lon="5.80091" lat="51.08945"><ele>-5.4</ele><time>2022-03-20T08:21:06.000Z</time></trkpt><trkpt lon="5.800971" lat="51.089388"><ele>-5.4</ele><time>2022-03-20T08:21:07.000Z</time></trkpt><trkpt lon="5.801033" lat="51.089327"><ele>-5.4</ele><time>2022-03-20T08:21:08.000Z</time></trkpt><trkpt lon="5.801093" lat="51.08927"><ele>-5.4</ele><time>2022-03-20T08:21:09.000Z</time></trkpt><trkpt lon="5.801154" lat="51.08921"><ele>-5.4</ele><time>2022-03-20T08:21:10.000Z</time></trkpt><trkpt lon="5.801214" lat="51.089148"><ele>-5.4</ele><time>2022-03-20T08:21:11.000Z</time></trkpt><trkpt lon="5.801276" lat="51.089088"><ele>-5.4</ele><time>2022-03-20T08:21:12.000Z</time></trkpt><trkpt lon="5.801334" lat="51.089029"><ele>-5.4</ele><time>2022-03-20T08:21:13.000Z</time></trkpt><trkpt lon="5.801394" lat="51.088972"><ele>-5.4</ele><time>2022-03-20T08:21:14.000Z</time></trkpt><trkpt lon="5.801454" lat="51.088912"><ele>-5.4</ele><time>2022-03-20T08:21:15.000Z</time></trkpt><trkpt lon="5.801512" lat="51.088852"><ele>-5.4</ele><time>2022-03-20T08:21:16.000Z</time></trkpt><trkpt lon="5.801571" lat="51.088791"><ele>-5.4</ele><time>2022-03-20T08:21:17.000Z</time></trkpt><trkpt lon="5.801632" lat="51.088733"><ele>-5.4</ele><time>2022-03-20T08:21:18.000Z</time></trkpt><trkpt lon="5.80169" lat="51.088673"><ele>-5.4</ele><time>2022-03-20T08:21:19.000Z</time></trkpt><trkpt lon="5.801752" lat="51.088611"><ele>-5.4</ele><time>2022-03-20T08:21:20.000Z</time></trkpt><trkpt lon="5.801814" lat="51.088552"><ele>-5.4</ele><time>2022-03-20T08:21:21.000Z</time></trkpt><trkpt lon="5.801874" lat="51.088492"><ele>-5.4</ele><time>2022-03-20T08:21:22.000Z</time></trkpt><trkpt lon="5.801935" lat="51.088431"><ele>-5.4</ele><time>2022-03-20T08:21:23.000Z</time></trkpt><trkpt lon="5.801995" lat="51.088374"><ele>-5.4</ele><time>2022-03-20T08:21:24.000Z</time></trkpt><trkpt lon="5.802055" lat="51.088317"><ele>-5.2</ele><time>2022-03-20T08:21:25.000Z</time></trkpt><trkpt lon="5.802116" lat="51.088259"><ele>-5.2</ele><time>2022-03-20T08:21:26.000Z</time></trkpt><trkpt lon="5.802176" lat="51.088202"><ele>-5.2</ele><time>2022-03-20T08:21:27.000Z</time></trkpt><trkpt lon="5.802236" lat="51.088144"><ele>-5</ele><time>2022-03-20T08:21:28.000Z</time></trkpt><trkpt lon="5.802297" lat="51.088084"><ele>-5</ele><time>2022-03-20T08:21:29.000Z</time></trkpt><trkpt lon="5.802358" lat="51.088029"><ele>-4.8</ele><time>2022-03-20T08:21:30.000Z</time></trkpt><trkpt lon="5.802417" lat="51.087973"><ele>-4.8</ele><time>2022-03-20T08:21:31.000Z</time></trkpt><trkpt lon="5.802476" lat="51.087916"><ele>-4.8</ele><time>2022-03-20T08:21:32.000Z</time></trkpt><trkpt lon="5.802533" lat="51.087861"><ele>-4.6</ele><time>2022-03-20T08:21:33.000Z</time></trkpt><trkpt lon="5.802595" lat="51.087801"><ele>-4.6</ele><time>2022-03-20T08:21:34.000Z</time></trkpt><trkpt lon="5.802654" lat="51.087743"><ele>-4.4</ele><time>2022-03-20T08:21:35.000Z</time></trkpt><trkpt lon="5.802711" lat="51.087687"><ele>-4.4</ele><time>2022-03-20T08:21:36.000Z</time></trkpt><trkpt lon="5.80277" lat="51.08763"><ele>-4.6</ele><time>2022-03-20T08:21:37.000Z</time></trkpt><trkpt lon="5.802832" lat="51.087572"><ele>-4.6</ele><time>2022-03-20T08:21:38.000Z</time></trkpt><trkpt lon="5.802894" lat="51.087515"><ele>-4.6</ele><time>2022-03-20T08:21:39.000Z</time></trkpt><trkpt lon="5.802957" lat="51.087455"><ele>-4.4</ele><time>2022-03-20T08:21:40.000Z</time></trkpt><trkpt lon="5.803019" lat="51.087397"><ele>-4.4</ele><time>2022-03-20T08:21:41.000Z</time></trkpt><trkpt lon="5.80308" lat="51.087337"><ele>-4.4</ele><time>2022-03-20T08:21:42.000Z</time></trkpt><trkpt lon="5.803141" lat="51.087278"><ele>-4.6</ele><time>2022-03-20T08:21:43.000Z</time></trkpt><trkpt lon="5.803202" lat="51.087221"><ele>-4.6</ele><time>2022-03-20T08:21:44.000Z</time></trkpt><trkpt lon="5.803265" lat="51.087161"><ele>-4.8</ele><time>2022-03-20T08:21:45.000Z</time></trkpt><trkpt lon="5.803327" lat="51.087103"><ele>-5</ele><time>2022-03-20T08:21:46.000Z</time></trkpt><trkpt lon="5.803388" lat="51.087043"><ele>-5.2</ele><time>2022-03-20T08:21:47.000Z</time></trkpt><trkpt lon="5.80345" lat="51.086985"><ele>-5.4</ele><time>2022-03-20T08:21:48.000Z</time></trkpt><trkpt lon="5.803509" lat="51.086929"><ele>-5.4</ele><time>2022-03-20T08:21:49.000Z</time></trkpt><trkpt lon="5.803571" lat="51.086871"><ele>-5.4</ele><time>2022-03-20T08:21:50.000Z</time></trkpt><trkpt lon="5.803632" lat="51.08681"><ele>-5.6</ele><time>2022-03-20T08:21:51.000Z</time></trkpt><trkpt lon="5.803693" lat="51.086752"><ele>-5.6</ele><time>2022-03-20T08:21:52.000Z</time></trkpt><trkpt lon="5.803753" lat="51.086695"><ele>-5.6</ele><time>2022-03-20T08:21:53.000Z</time></trkpt><trkpt lon="5.803816" lat="51.086635"><ele>-5.6</ele><time>2022-03-20T08:21:54.000Z</time></trkpt><trkpt lon="5.803878" lat="51.086576"><ele>-5.6</ele><time>2022-03-20T08:21:55.000Z</time></trkpt><trkpt lon="5.803939" lat="51.086519"><ele>-5.8</ele><time>2022-03-20T08:21:56.000Z</time></trkpt><trkpt lon="5.803999" lat="51.08646"><ele>-5.8</ele><time>2022-03-20T08:21:57.000Z</time></trkpt><trkpt lon="5.804059" lat="51.086402"><ele>-5.8</ele><time>2022-03-20T08:21:58.000Z</time></trkpt><trkpt lon="5.804122" lat="51.086344"><ele>-5.8</ele><time>2022-03-20T08:21:59.000Z</time></trkpt><trkpt lon="5.804185" lat="51.086287"><ele>-6</ele><time>2022-03-20T08:22:00.000Z</time></trkpt><trkpt lon="5.804247" lat="51.08623"><ele>-6</ele><time>2022-03-20T08:22:01.000Z</time></trkpt><trkpt lon="5.804308" lat="51.086169"><ele>-6</ele><time>2022-03-20T08:22:02.000Z</time></trkpt><trkpt lon="5.804368" lat="51.086112"><ele>-6</ele><time>2022-03-20T08:22:03.000Z</time></trkpt><trkpt lon="5.804431" lat="51.086051"><ele>-6.2</ele><time>2022-03-20T08:22:04.000Z</time></trkpt><trkpt lon="5.804493" lat="51.085992"><ele>-6.2</ele><time>2022-03-20T08:22:05.000Z</time></trkpt><trkpt lon="5.804556" lat="51.085935"><ele>-6.2</ele><time>2022-03-20T08:22:06.000Z</time></trkpt><trkpt lon="5.804616" lat="51.085878"><ele>-6.2</ele><time>2022-03-20T08:22:07.000Z</time></trkpt><trkpt lon="5.804676" lat="51.085819"><ele>-6.2</ele><time>2022-03-20T08:22:08.000Z</time></trkpt><trkpt lon="5.804734" lat="51.085761"><ele>-6.2</ele><time>2022-03-20T08:22:09.000Z</time></trkpt><trkpt lon="5.804793" lat="51.085704"><ele>-6.2</ele><time>2022-03-20T08:22:10.000Z</time></trkpt><trkpt lon="5.804855" lat="51.085646"><ele>-6.2</ele><time>2022-03-20T08:22:11.000Z</time></trkpt><trkpt lon="5.804917" lat="51.085588"><ele>-6.2</ele><time>2022-03-20T08:22:12.000Z</time></trkpt><trkpt lon="5.80498" lat="51.085531"><ele>-6.2</ele><time>2022-03-20T08:22:13.000Z</time></trkpt><trkpt lon="5.805044" lat="51.085474"><ele>-6.2</ele><time>2022-03-20T08:22:14.000Z</time></trkpt><trkpt lon="5.805108" lat="51.08542"><ele>-6.2</ele><time>2022-03-20T08:22:15.000Z</time></trkpt><trkpt lon="5.805175" lat="51.085366"><ele>-6.2</ele><time>2022-03-20T08:22:16.000Z</time></trkpt><trkpt lon="5.805245" lat="51.085316"><ele>-6.2</ele><time>2022-03-20T08:22:17.000Z</time></trkpt><trkpt lon="5.805318" lat="51.085266"><ele>-6.2</ele><time>2022-03-20T08:22:18.000Z</time></trkpt><trkpt lon="5.805391" lat="51.085217"><ele>-6.2</ele><time>2022-03-20T08:22:19.000Z</time></trkpt><trkpt lon="5.805465" lat="51.08517"><ele>-6.2</ele><time>2022-03-20T08:22:20.000Z</time></trkpt><trkpt lon="5.805542" lat="51.085124"><ele>-6.2</ele><time>2022-03-20T08:22:21.000Z</time></trkpt><trkpt lon="5.805616" lat="51.085082"><ele>-6.4</ele><time>2022-03-20T08:22:22.000Z</time></trkpt><trkpt lon="5.805687" lat="51.08504"><ele>-6.4</ele><time>2022-03-20T08:22:23.000Z</time></trkpt><trkpt lon="5.80576" lat="51.084994"><ele>-6.4</ele><time>2022-03-20T08:22:24.000Z</time></trkpt><trkpt lon="5.805833" lat="51.084955"><ele>-6.4</ele><time>2022-03-20T08:22:25.000Z</time></trkpt><trkpt lon="5.805906" lat="51.084917"><ele>-6.4</ele><time>2022-03-20T08:22:26.000Z</time></trkpt><trkpt lon="5.805981" lat="51.084878"><ele>-6.4</ele><time>2022-03-20T08:22:27.000Z</time></trkpt><trkpt lon="5.80606" lat="51.08484"><ele>-6.4</ele><time>2022-03-20T08:22:28.000Z</time></trkpt><trkpt lon="5.806141" lat="51.084799"><ele>-6.4</ele><time>2022-03-20T08:22:29.000Z</time></trkpt><trkpt lon="5.80622" lat="51.08476"><ele>-6.4</ele><time>2022-03-20T08:22:30.000Z</time></trkpt><trkpt lon="5.8063" lat="51.084722"><ele>-6.4</ele><time>2022-03-20T08:22:31.000Z</time></trkpt><trkpt lon="5.806379" lat="51.084684"><ele>-6.4</ele><time>2022-03-20T08:22:32.000Z</time></trkpt><trkpt lon="5.806458" lat="51.084643"><ele>-6.4</ele><time>2022-03-20T08:22:33.000Z</time></trkpt><trkpt lon="5.806536" lat="51.0846"><ele>-6.4</ele><time>2022-03-20T08:22:34.000Z</time></trkpt><trkpt lon="5.806612" lat="51.084559"><ele>-6.4</ele><time>2022-03-20T08:22:35.000Z</time></trkpt><trkpt lon="5.806683" lat="51.08452"><ele>-6.4</ele><time>2022-03-20T08:22:36.000Z</time></trkpt><trkpt lon="5.806752" lat="51.084479"><ele>-6.4</ele><time>2022-03-20T08:22:37.000Z</time></trkpt><trkpt lon="5.806813" lat="51.08444"><ele>-6.4</ele><time>2022-03-20T08:22:38.000Z</time></trkpt><trkpt lon="5.80687" lat="51.084404"><ele>-6.4</ele><time>2022-03-20T08:22:39.000Z</time></trkpt><trkpt lon="5.806926" lat="51.084367"><ele>-6.4</ele><time>2022-03-20T08:22:40.000Z</time></trkpt><trkpt lon="5.806979" lat="51.084329"><ele>-6.4</ele><time>2022-03-20T08:22:41.000Z</time></trkpt><trkpt lon="5.807035" lat="51.084294"><ele>-6.4</ele><time>2022-03-20T08:22:42.000Z</time></trkpt><trkpt lon="5.80709" lat="51.084263"><ele>-6.4</ele><time>2022-03-20T08:22:43.000Z</time></trkpt><trkpt lon="5.807139" lat="51.08423"><ele>-6.4</ele><time>2022-03-20T08:22:44.000Z</time></trkpt><trkpt lon="5.80719" lat="51.084198"><ele>-6.4</ele><time>2022-03-20T08:22:45.000Z</time></trkpt><trkpt lon="5.807237" lat="51.08417"><ele>-6.4</ele><time>2022-03-20T08:22:46.000Z</time></trkpt><trkpt lon="5.807278" lat="51.084143"><ele>-6.4</ele><time>2022-03-20T08:22:47.000Z</time></trkpt><trkpt lon="5.807306" lat="51.08412"><ele>-6.4</ele><time>2022-03-20T08:22:48.000Z</time></trkpt><trkpt lon="5.807331" lat="51.084099"><ele>-6.4</ele><time>2022-03-20T08:22:49.000Z</time></trkpt><trkpt lon="5.807358" lat="51.084083"><ele>-6.4</ele><time>2022-03-20T08:22:50.000Z</time></trkpt><trkpt lon="5.807393" lat="51.084077"><ele>-6.4</ele><time>2022-03-20T08:22:51.000Z</time></trkpt><trkpt lon="5.80743" lat="51.084079"><ele>-6.2</ele><time>2022-03-20T08:22:52.000Z</time></trkpt><trkpt lon="5.80747" lat="51.084088"><ele>-6.2</ele><time>2022-03-20T08:22:53.000Z</time></trkpt><trkpt lon="5.807512" lat="51.084103"><ele>-6.2</ele><time>2022-03-20T08:22:54.000Z</time></trkpt><trkpt lon="5.807553" lat="51.084126"><ele>-6.2</ele><time>2022-03-20T08:22:55.000Z</time></trkpt><trkpt lon="5.807596" lat="51.084159"><ele>-6.4</ele><time>2022-03-20T08:22:56.000Z</time></trkpt><trkpt lon="5.807644" lat="51.0842"><ele>-6.4</ele><time>2022-03-20T08:22:57.000Z</time></trkpt><trkpt lon="5.807702" lat="51.084245"><ele>-6.4</ele><time>2022-03-20T08:22:58.000Z</time></trkpt><trkpt lon="5.807773" lat="51.08429"><ele>-6.4</ele><time>2022-03-20T08:22:59.000Z</time></trkpt><trkpt lon="5.807842" lat="51.084339"><ele>-6.6</ele><time>2022-03-20T08:23:00.000Z</time></trkpt><trkpt lon="5.807908" lat="51.084388"><ele>-6.6</ele><time>2022-03-20T08:23:01.000Z</time></trkpt><trkpt lon="5.807971" lat="51.084438"><ele>-6.8</ele><time>2022-03-20T08:23:02.000Z</time></trkpt><trkpt lon="5.808021" lat="51.084482"><ele>-6.8</ele><time>2022-03-20T08:23:03.000Z</time></trkpt><trkpt lon="5.808076" lat="51.084536"><ele>-6.8</ele><time>2022-03-20T08:23:04.000Z</time></trkpt><trkpt lon="5.808122" lat="51.084584"><ele>-6.8</ele><time>2022-03-20T08:23:05.000Z</time></trkpt><trkpt lon="5.808165" lat="51.08463"><ele>-6.8</ele><time>2022-03-20T08:23:06.000Z</time></trkpt><trkpt lon="5.808208" lat="51.084675"><ele>-6.6</ele><time>2022-03-20T08:23:07.000Z</time></trkpt><trkpt lon="5.808253" lat="51.084724"><ele>-6.6</ele><time>2022-03-20T08:23:08.000Z</time></trkpt><trkpt lon="5.8083" lat="51.084777"><ele>-6.6</ele><time>2022-03-20T08:23:09.000Z</time></trkpt><trkpt lon="5.808352" lat="51.08483"><ele>-6.8</ele><time>2022-03-20T08:23:10.000Z</time></trkpt><trkpt lon="5.808406" lat="51.084887"><ele>-6.8</ele><time>2022-03-20T08:23:11.000Z</time></trkpt><trkpt lon="5.808456" lat="51.08494"><ele>-6.8</ele><time>2022-03-20T08:23:12.000Z</time></trkpt><trkpt lon="5.808499" lat="51.085"><ele>-6.8</ele><time>2022-03-20T08:23:13.000Z</time></trkpt><trkpt lon="5.808534" lat="51.085061"><ele>-6.8</ele><time>2022-03-20T08:23:14.000Z</time></trkpt><trkpt lon="5.808567" lat="51.085125"><ele>-6.8</ele><time>2022-03-20T08:23:15.000Z</time></trkpt><trkpt lon="5.808601" lat="51.08519"><ele>-6.8</ele><time>2022-03-20T08:23:16.000Z</time></trkpt><trkpt lon="5.808633" lat="51.085255"><ele>-7</ele><time>2022-03-20T08:23:17.000Z</time></trkpt><trkpt lon="5.808665" lat="51.085319"><ele>-7</ele><time>2022-03-20T08:23:18.000Z</time></trkpt><trkpt lon="5.808699" lat="51.085382"><ele>-7.2</ele><time>2022-03-20T08:23:19.000Z</time></trkpt><trkpt lon="5.808731" lat="51.085442"><ele>-7.2</ele><time>2022-03-20T08:23:20.000Z</time></trkpt><trkpt lon="5.808769" lat="51.0855"><ele>-7.4</ele><time>2022-03-20T08:23:21.000Z</time></trkpt><trkpt lon="5.808816" lat="51.085557"><ele>-7.4</ele><time>2022-03-20T08:23:22.000Z</time></trkpt><trkpt lon="5.808872" lat="51.085615"><ele>-7.4</ele><time>2022-03-20T08:23:23.000Z</time></trkpt><trkpt lon="5.808934" lat="51.085663"><ele>-7.4</ele><time>2022-03-20T08:23:24.000Z</time></trkpt><trkpt lon="5.808996" lat="51.085709"><ele>-7.4</ele><time>2022-03-20T08:23:25.000Z</time></trkpt><trkpt lon="5.809055" lat="51.085752"><ele>-7.4</ele><time>2022-03-20T08:23:26.000Z</time></trkpt><trkpt lon="5.809114" lat="51.0858"><ele>-7.4</ele><time>2022-03-20T08:23:27.000Z</time></trkpt><trkpt lon="5.809175" lat="51.085846"><ele>-7.4</ele><time>2022-03-20T08:23:28.000Z</time></trkpt><trkpt lon="5.809234" lat="51.085892"><ele>-7.4</ele><time>2022-03-20T08:23:29.000Z</time></trkpt><trkpt lon="5.809282" lat="51.085929"><ele>-7.6</ele><time>2022-03-20T08:23:30.000Z</time></trkpt><trkpt lon="5.80935" lat="51.085977"><ele>-7.6</ele><time>2022-03-20T08:23:31.000Z</time></trkpt><trkpt lon="5.809425" lat="51.086032"><ele>-7.6</ele><time>2022-03-20T08:23:32.000Z</time></trkpt><trkpt lon="5.809495" lat="51.086083"><ele>-7.6</ele><time>2022-03-20T08:23:33.000Z</time></trkpt><trkpt lon="5.809564" lat="51.086133"><ele>-7.6</ele><time>2022-03-20T08:23:34.000Z</time></trkpt><trkpt lon="5.80963" lat="51.086185"><ele>-7.6</ele><time>2022-03-20T08:23:35.000Z</time></trkpt><trkpt lon="5.809693" lat="51.086244"><ele>-7.6</ele><time>2022-03-20T08:23:36.000Z</time></trkpt><trkpt lon="5.809749" lat="51.086305"><ele>-7.6</ele><time>2022-03-20T08:23:37.000Z</time></trkpt><trkpt lon="5.809803" lat="51.086368"><ele>-7.6</ele><time>2022-03-20T08:23:38.000Z</time></trkpt><trkpt lon="5.809856" lat="51.086436"><ele>-7.6</ele><time>2022-03-20T08:23:39.000Z</time></trkpt><trkpt lon="5.80991" lat="51.086502"><ele>-7.6</ele><time>2022-03-20T08:23:40.000Z</time></trkpt><trkpt lon="5.809965" lat="51.086563"><ele>-7.6</ele><time>2022-03-20T08:23:41.000Z</time></trkpt><trkpt lon="5.810017" lat="51.086628"><ele>-7.4</ele><time>2022-03-20T08:23:42.000Z</time></trkpt><trkpt lon="5.810069" lat="51.086693"><ele>-7.4</ele><time>2022-03-20T08:23:43.000Z</time></trkpt><trkpt lon="5.810124" lat="51.086755"><ele>-7.4</ele><time>2022-03-20T08:23:44.000Z</time></trkpt><trkpt lon="5.81018" lat="51.086816"><ele>-7.4</ele><time>2022-03-20T08:23:45.000Z</time></trkpt><trkpt lon="5.810242" lat="51.086877"><ele>-7.4</ele><time>2022-03-20T08:23:46.000Z</time></trkpt><trkpt lon="5.810303" lat="51.086937"><ele>-7.4</ele><time>2022-03-20T08:23:47.000Z</time></trkpt><trkpt lon="5.810368" lat="51.086996"><ele>-7.4</ele><time>2022-03-20T08:23:48.000Z</time></trkpt><trkpt lon="5.810434" lat="51.08705"><ele>-7.2</ele><time>2022-03-20T08:23:49.000Z</time></trkpt><trkpt lon="5.810507" lat="51.08711"><ele>-7.2</ele><time>2022-03-20T08:23:50.000Z</time></trkpt><trkpt lon="5.81058" lat="51.087168"><ele>-7</ele><time>2022-03-20T08:23:51.000Z</time></trkpt><trkpt lon="5.810651" lat="51.087225"><ele>-7</ele><time>2022-03-20T08:23:52.000Z</time></trkpt><trkpt lon="5.810725" lat="51.087279"><ele>-7</ele><time>2022-03-20T08:23:53.000Z</time></trkpt><trkpt lon="5.810799" lat="51.087336"><ele>-7.2</ele><time>2022-03-20T08:23:54.000Z</time></trkpt><trkpt lon="5.810876" lat="51.087389"><ele>-7.4</ele><time>2022-03-20T08:23:55.000Z</time></trkpt><trkpt lon="5.810955" lat="51.08744"><ele>-7.6</ele><time>2022-03-20T08:23:56.000Z</time></trkpt><trkpt lon="5.811039" lat="51.087487"><ele>-7.8</ele><time>2022-03-20T08:23:57.000Z</time></trkpt><trkpt lon="5.811128" lat="51.087527"><ele>-7.8</ele><time>2022-03-20T08:23:58.000Z</time></trkpt><trkpt lon="5.811219" lat="51.087562"><ele>-7.6</ele><time>2022-03-20T08:23:59.000Z</time></trkpt><trkpt lon="5.811314" lat="51.087596"><ele>-7.4</ele><time>2022-03-20T08:24:00.000Z</time></trkpt><trkpt lon="5.811414" lat="51.087625"><ele>-7.2</ele><time>2022-03-20T08:24:01.000Z</time></trkpt><trkpt lon="5.811516" lat="51.087655"><ele>-7.2</ele><time>2022-03-20T08:24:02.000Z</time></trkpt><trkpt lon="5.811619" lat="51.087682"><ele>-7</ele><time>2022-03-20T08:24:03.000Z</time></trkpt><trkpt lon="5.811723" lat="51.087709"><ele>-7</ele><time>2022-03-20T08:24:04.000Z</time></trkpt><trkpt lon="5.811827" lat="51.087736"><ele>-6.8</ele><time>2022-03-20T08:24:05.000Z</time></trkpt><trkpt lon="5.811931" lat="51.087763"><ele>-6.8</ele><time>2022-03-20T08:24:06.000Z</time></trkpt><trkpt lon="5.812028" lat="51.087788"><ele>-6.8</ele><time>2022-03-20T08:24:07.000Z</time></trkpt><trkpt lon="5.812129" lat="51.087812"><ele>-6.8</ele><time>2022-03-20T08:24:08.000Z</time></trkpt><trkpt lon="5.812233" lat="51.087839"><ele>-7</ele><time>2022-03-20T08:24:09.000Z</time></trkpt><trkpt lon="5.812336" lat="51.087862"><ele>-7</ele><time>2022-03-20T08:24:10.000Z</time></trkpt><trkpt lon="5.812443" lat="51.087885"><ele>-7</ele><time>2022-03-20T08:24:11.000Z</time></trkpt><trkpt lon="5.81255" lat="51.087902"><ele>-7</ele><time>2022-03-20T08:24:12.000Z</time></trkpt><trkpt lon="5.812661" lat="51.087915"><ele>-7</ele><time>2022-03-20T08:24:13.000Z</time></trkpt><trkpt lon="5.81277" lat="51.087923"><ele>-7</ele><time>2022-03-20T08:24:14.000Z</time></trkpt><trkpt lon="5.812884" lat="51.087928"><ele>-7.2</ele><time>2022-03-20T08:24:15.000Z</time></trkpt><trkpt lon="5.812996" lat="51.087935"><ele>-7.2</ele><time>2022-03-20T08:24:16.000Z</time></trkpt><trkpt lon="5.813105" lat="51.087942"><ele>-7</ele><time>2022-03-20T08:24:17.000Z</time></trkpt><trkpt lon="5.81321" lat="51.087953"><ele>-7</ele><time>2022-03-20T08:24:18.000Z</time></trkpt><trkpt lon="5.813318" lat="51.087964"><ele>-7</ele><time>2022-03-20T08:24:19.000Z</time></trkpt><trkpt lon="5.813424" lat="51.087978"><ele>-7</ele><time>2022-03-20T08:24:20.000Z</time></trkpt><trkpt lon="5.813529" lat="51.087997"><ele>-7.2</ele><time>2022-03-20T08:24:21.000Z</time></trkpt><trkpt lon="5.813633" lat="51.088016"><ele>-7.4</ele><time>2022-03-20T08:24:22.000Z</time></trkpt><trkpt lon="5.813736" lat="51.088035"><ele>-7.6</ele><time>2022-03-20T08:24:23.000Z</time></trkpt><trkpt lon="5.813839" lat="51.088057"><ele>-7.8</ele><time>2022-03-20T08:24:24.000Z</time></trkpt><trkpt lon="5.813943" lat="51.088077"><ele>-8</ele><time>2022-03-20T08:24:25.000Z</time></trkpt><trkpt lon="5.814044" lat="51.088096"><ele>-8.2</ele><time>2022-03-20T08:24:26.000Z</time></trkpt><trkpt lon="5.814147" lat="51.088118"><ele>-8</ele><time>2022-03-20T08:24:27.000Z</time></trkpt><trkpt lon="5.814251" lat="51.088141"><ele>-7.8</ele><time>2022-03-20T08:24:28.000Z</time></trkpt><trkpt lon="5.814354" lat="51.088161"><ele>-7.6</ele><time>2022-03-20T08:24:29.000Z</time></trkpt><trkpt lon="5.814459" lat="51.088183"><ele>-7.4</ele><time>2022-03-20T08:24:30.000Z</time></trkpt><trkpt lon="5.814564" lat="51.088203"><ele>-7.4</ele><time>2022-03-20T08:24:31.000Z</time></trkpt><trkpt lon="5.814668" lat="51.088222"><ele>-7.4</ele><time>2022-03-20T08:24:32.000Z</time></trkpt><trkpt lon="5.814773" lat="51.088238"><ele>-7.4</ele><time>2022-03-20T08:24:33.000Z</time></trkpt><trkpt lon="5.814879" lat="51.088253"><ele>-7.2</ele><time>2022-03-20T08:24:34.000Z</time></trkpt><trkpt lon="5.814984" lat="51.088266"><ele>-7.2</ele><time>2022-03-20T08:24:35.000Z</time></trkpt><trkpt lon="5.815091" lat="51.088277"><ele>-7.2</ele><time>2022-03-20T08:24:36.000Z</time></trkpt><trkpt lon="5.815198" lat="51.08828"><ele>-7.2</ele><time>2022-03-20T08:24:37.000Z</time></trkpt><trkpt lon="5.815305" lat="51.088277"><ele>-7.2</ele><time>2022-03-20T08:24:38.000Z</time></trkpt><trkpt lon="5.815415" lat="51.08827"><ele>-7.2</ele><time>2022-03-20T08:24:39.000Z</time></trkpt><trkpt lon="5.815521" lat="51.088259"><ele>-7.2</ele><time>2022-03-20T08:24:40.000Z</time></trkpt><trkpt lon="5.81563" lat="51.088251"><ele>-7.2</ele><time>2022-03-20T08:24:41.000Z</time></trkpt><trkpt lon="5.815736" lat="51.088243"><ele>-7.2</ele><time>2022-03-20T08:24:42.000Z</time></trkpt><trkpt lon="5.815843" lat="51.088233"><ele>-7</ele><time>2022-03-20T08:24:43.000Z</time></trkpt><trkpt lon="5.81595" lat="51.088221"><ele>-7.2</ele><time>2022-03-20T08:24:44.000Z</time></trkpt><trkpt lon="5.816056" lat="51.088207"><ele>-7.2</ele><time>2022-03-20T08:24:45.000Z</time></trkpt><trkpt lon="5.81616" lat="51.088183"><ele>-7.2</ele><time>2022-03-20T08:24:46.000Z</time></trkpt><trkpt lon="5.816261" lat="51.088156"><ele>-7.2</ele><time>2022-03-20T08:24:47.000Z</time></trkpt><trkpt lon="5.81636" lat="51.088124"><ele>-7.2</ele><time>2022-03-20T08:24:48.000Z</time></trkpt><trkpt lon="5.816455" lat="51.088089"><ele>-7.2</ele><time>2022-03-20T08:24:49.000Z</time></trkpt><trkpt lon="5.816542" lat="51.08805"><ele>-7.2</ele><time>2022-03-20T08:24:50.000Z</time></trkpt><trkpt lon="5.816626" lat="51.088001"><ele>-7</ele><time>2022-03-20T08:24:51.000Z</time></trkpt><trkpt lon="5.816698" lat="51.087949"><ele>-7</ele><time>2022-03-20T08:24:52.000Z</time></trkpt><trkpt lon="5.816763" lat="51.087896"><ele>-7</ele><time>2022-03-20T08:24:53.000Z</time></trkpt><trkpt lon="5.816821" lat="51.087839"><ele>-7</ele><time>2022-03-20T08:24:54.000Z</time></trkpt><trkpt lon="5.816872" lat="51.087782"><ele>-7</ele><time>2022-03-20T08:24:55.000Z</time></trkpt><trkpt lon="5.816915" lat="51.087722"><ele>-7</ele><time>2022-03-20T08:24:56.000Z</time></trkpt><trkpt lon="5.816954" lat="51.087658"><ele>-7</ele><time>2022-03-20T08:24:57.000Z</time></trkpt><trkpt lon="5.816991" lat="51.087593"><ele>-7</ele><time>2022-03-20T08:24:58.000Z</time></trkpt><trkpt lon="5.81703" lat="51.087529"><ele>-7</ele><time>2022-03-20T08:24:59.000Z</time></trkpt><trkpt lon="5.817071" lat="51.087464"><ele>-7</ele><time>2022-03-20T08:25:00.000Z</time></trkpt><trkpt lon="5.817112" lat="51.087399"><ele>-7</ele><time>2022-03-20T08:25:01.000Z</time></trkpt><trkpt lon="5.817151" lat="51.087331"><ele>-7.2</ele><time>2022-03-20T08:25:02.000Z</time></trkpt><trkpt lon="5.817187" lat="51.087267"><ele>-7.2</ele><time>2022-03-20T08:25:03.000Z</time></trkpt><trkpt lon="5.817226" lat="51.0872"><ele>-7.2</ele><time>2022-03-20T08:25:04.000Z</time></trkpt><trkpt lon="5.817265" lat="51.087135"><ele>-7.2</ele><time>2022-03-20T08:25:05.000Z</time></trkpt><trkpt lon="5.817303" lat="51.08707"><ele>-7.2</ele><time>2022-03-20T08:25:06.000Z</time></trkpt><trkpt lon="5.817342" lat="51.087006"><ele>-7.2</ele><time>2022-03-20T08:25:07.000Z</time></trkpt><trkpt lon="5.817378" lat="51.086944"><ele>-7.2</ele><time>2022-03-20T08:25:08.000Z</time></trkpt><trkpt lon="5.817413" lat="51.086883"><ele>-7.2</ele><time>2022-03-20T08:25:09.000Z</time></trkpt><trkpt lon="5.817451" lat="51.086819"><ele>-7.2</ele><time>2022-03-20T08:25:10.000Z</time></trkpt><trkpt lon="5.817488" lat="51.086757"><ele>-7.2</ele><time>2022-03-20T08:25:11.000Z</time></trkpt><trkpt lon="5.817523" lat="51.08669"><ele>-7.2</ele><time>2022-03-20T08:25:12.000Z</time></trkpt><trkpt lon="5.817553" lat="51.086624"><ele>-7.2</ele><time>2022-03-20T08:25:13.000Z</time></trkpt><trkpt lon="5.817578" lat="51.086559"><ele>-7.2</ele><time>2022-03-20T08:25:14.000Z</time></trkpt><trkpt lon="5.817595" lat="51.086495"><ele>-7</ele><time>2022-03-20T08:25:15.000Z</time></trkpt><trkpt lon="5.81761" lat="51.08643"><ele>-7</ele><time>2022-03-20T08:25:16.000Z</time></trkpt><trkpt lon="5.817622" lat="51.086365"><ele>-7</ele><time>2022-03-20T08:25:17.000Z</time></trkpt><trkpt lon="5.817629" lat="51.086303"><ele>-7</ele><time>2022-03-20T08:25:18.000Z</time></trkpt><trkpt lon="5.817632" lat="51.086245"><ele>-7.2</ele><time>2022-03-20T08:25:19.000Z</time></trkpt><trkpt lon="5.81764" lat="51.086185"><ele>-7.2</ele><time>2022-03-20T08:25:20.000Z</time></trkpt><trkpt lon="5.817652" lat="51.08613"><ele>-7.2</ele><time>2022-03-20T08:25:21.000Z</time></trkpt><trkpt lon="5.81767" lat="51.086079"><ele>-7.2</ele><time>2022-03-20T08:25:22.000Z</time></trkpt><trkpt lon="5.817698" lat="51.086032"><ele>-7.4</ele><time>2022-03-20T08:25:23.000Z</time></trkpt><trkpt lon="5.817739" lat="51.085993"><ele>-7.4</ele><time>2022-03-20T08:25:24.000Z</time></trkpt><trkpt lon="5.817796" lat="51.085972"><ele>-7.4</ele><time>2022-03-20T08:25:25.000Z</time></trkpt><trkpt lon="5.817873" lat="51.085971"><ele>-7.4</ele><time>2022-03-20T08:25:26.000Z</time></trkpt><trkpt lon="5.817962" lat="51.085992"><ele>-7.4</ele><time>2022-03-20T08:25:27.000Z</time></trkpt><trkpt lon="5.818064" lat="51.086022"><ele>-7.6</ele><time>2022-03-20T08:25:28.000Z</time></trkpt><trkpt lon="5.818168" lat="51.086053"><ele>-7.6</ele><time>2022-03-20T08:25:29.000Z</time></trkpt><trkpt lon="5.818267" lat="51.086084"><ele>-7.8</ele><time>2022-03-20T08:25:30.000Z</time></trkpt><trkpt lon="5.818378" lat="51.086117"><ele>-7.8</ele><time>2022-03-20T08:25:31.000Z</time></trkpt><trkpt lon="5.818487" lat="51.086147"><ele>-8</ele><time>2022-03-20T08:25:32.000Z</time></trkpt><trkpt lon="5.818596" lat="51.086181"><ele>-8</ele><time>2022-03-20T08:25:33.000Z</time></trkpt><trkpt lon="5.818703" lat="51.086213"><ele>-8</ele><time>2022-03-20T08:25:34.000Z</time></trkpt><trkpt lon="5.818806" lat="51.086246"><ele>-8</ele><time>2022-03-20T08:25:35.000Z</time></trkpt><trkpt lon="5.81891" lat="51.08628"><ele>-8</ele><time>2022-03-20T08:25:36.000Z</time></trkpt><trkpt lon="5.819012" lat="51.086312"><ele>-8.2</ele><time>2022-03-20T08:25:37.000Z</time></trkpt><trkpt lon="5.819115" lat="51.086342"><ele>-8.2</ele><time>2022-03-20T08:25:38.000Z</time></trkpt><trkpt lon="5.819214" lat="51.086373"><ele>-8.2</ele><time>2022-03-20T08:25:39.000Z</time></trkpt><trkpt lon="5.819314" lat="51.086403"><ele>-8.2</ele><time>2022-03-20T08:25:40.000Z</time></trkpt><trkpt lon="5.819414" lat="51.086434"><ele>-8.2</ele><time>2022-03-20T08:25:41.000Z</time></trkpt><trkpt lon="5.819512" lat="51.086464"><ele>-8.2</ele><time>2022-03-20T08:25:42.000Z</time></trkpt><trkpt lon="5.819608" lat="51.086491"><ele>-8.4</ele><time>2022-03-20T08:25:43.000Z</time></trkpt><trkpt lon="5.819704" lat="51.086521"><ele>-8.4</ele><time>2022-03-20T08:25:44.000Z</time></trkpt><trkpt lon="5.819798" lat="51.086552"><ele>-8.4</ele><time>2022-03-20T08:25:45.000Z</time></trkpt><trkpt lon="5.819891" lat="51.086582"><ele>-8.6</ele><time>2022-03-20T08:25:46.000Z</time></trkpt><trkpt lon="5.819985" lat="51.086613"><ele>-8.6</ele><time>2022-03-20T08:25:47.000Z</time></trkpt><trkpt lon="5.820079" lat="51.086646"><ele>-8.6</ele><time>2022-03-20T08:25:48.000Z</time></trkpt><trkpt lon="5.82017" lat="51.086683"><ele>-8.6</ele><time>2022-03-20T08:25:49.000Z</time></trkpt><trkpt lon="5.82026" lat="51.086719"><ele>-8.6</ele><time>2022-03-20T08:25:50.000Z</time></trkpt><trkpt lon="5.820352" lat="51.086756"><ele>-8.6</ele><time>2022-03-20T08:25:51.000Z</time></trkpt><trkpt lon="5.820443" lat="51.086798"><ele>-8.6</ele><time>2022-03-20T08:25:52.000Z</time></trkpt><trkpt lon="5.820531" lat="51.086839"><ele>-8.6</ele><time>2022-03-20T08:25:53.000Z</time></trkpt><trkpt lon="5.820621" lat="51.086881"><ele>-8.6</ele><time>2022-03-20T08:25:54.000Z</time></trkpt><trkpt lon="5.820712" lat="51.086923"><ele>-8.6</ele><time>2022-03-20T08:25:55.000Z</time></trkpt><trkpt lon="5.820801" lat="51.086962"><ele>-8.6</ele><time>2022-03-20T08:25:56.000Z</time></trkpt><trkpt lon="5.820889" lat="51.087"><ele>-8.6</ele><time>2022-03-20T08:25:57.000Z</time></trkpt><trkpt lon="5.820977" lat="51.087037"><ele>-8.4</ele><time>2022-03-20T08:25:58.000Z</time></trkpt><trkpt lon="5.82107" lat="51.087079"><ele>-8.4</ele><time>2022-03-20T08:25:59.000Z</time></trkpt><trkpt lon="5.821162" lat="51.087116"><ele>-8.4</ele><time>2022-03-20T08:26:00.000Z</time></trkpt><trkpt lon="5.821256" lat="51.087153"><ele>-8.4</ele><time>2022-03-20T08:26:01.000Z</time></trkpt><trkpt lon="5.821349" lat="51.087191"><ele>-8.4</ele><time>2022-03-20T08:26:02.000Z</time></trkpt><trkpt lon="5.821443" lat="51.087226"><ele>-8.2</ele><time>2022-03-20T08:26:03.000Z</time></trkpt><trkpt lon="5.821538" lat="51.087261"><ele>-8.2</ele><time>2022-03-20T08:26:04.000Z</time></trkpt><trkpt lon="5.821632" lat="51.087295"><ele>-8.2</ele><time>2022-03-20T08:26:05.000Z</time></trkpt><trkpt lon="5.821728" lat="51.087329"><ele>-8.2</ele><time>2022-03-20T08:26:06.000Z</time></trkpt><trkpt lon="5.821823" lat="51.087363"><ele>-8.2</ele><time>2022-03-20T08:26:07.000Z</time></trkpt><trkpt lon="5.821918" lat="51.087394"><ele>-8.2</ele><time>2022-03-20T08:26:08.000Z</time></trkpt><trkpt lon="5.822016" lat="51.087428"><ele>-8.2</ele><time>2022-03-20T08:26:09.000Z</time></trkpt><trkpt lon="5.822114" lat="51.087463"><ele>-8.2</ele><time>2022-03-20T08:26:10.000Z</time></trkpt><trkpt lon="5.822211" lat="51.087494"><ele>-8.2</ele><time>2022-03-20T08:26:11.000Z</time></trkpt><trkpt lon="5.822308" lat="51.087525"><ele>-8.2</ele><time>2022-03-20T08:26:12.000Z</time></trkpt><trkpt lon="5.822408" lat="51.087555"><ele>-8.2</ele><time>2022-03-20T08:26:13.000Z</time></trkpt><trkpt lon="5.822506" lat="51.087586"><ele>-8.2</ele><time>2022-03-20T08:26:14.000Z</time></trkpt><trkpt lon="5.822605" lat="51.087616"><ele>-8.2</ele><time>2022-03-20T08:26:15.000Z</time></trkpt><trkpt lon="5.822704" lat="51.08765"><ele>-8.2</ele><time>2022-03-20T08:26:16.000Z</time></trkpt><trkpt lon="5.822802" lat="51.087681"><ele>-8.2</ele><time>2022-03-20T08:26:17.000Z</time></trkpt><trkpt lon="5.8229" lat="51.087712"><ele>-8.2</ele><time>2022-03-20T08:26:18.000Z</time></trkpt><trkpt lon="5.822999" lat="51.087742"><ele>-8.2</ele><time>2022-03-20T08:26:19.000Z</time></trkpt><trkpt lon="5.823095" lat="51.087773"><ele>-8</ele><time>2022-03-20T08:26:20.000Z</time></trkpt><trkpt lon="5.823191" lat="51.087803"><ele>-7.8</ele><time>2022-03-20T08:26:21.000Z</time></trkpt><trkpt lon="5.823284" lat="51.087833"><ele>-7.8</ele><time>2022-03-20T08:26:22.000Z</time></trkpt><trkpt lon="5.823379" lat="51.087864"><ele>-7.6</ele><time>2022-03-20T08:26:23.000Z</time></trkpt><trkpt lon="5.823471" lat="51.087891"><ele>-7.6</ele><time>2022-03-20T08:26:24.000Z</time></trkpt><trkpt lon="5.823567" lat="51.087921"><ele>-7.6</ele><time>2022-03-20T08:26:25.000Z</time></trkpt><trkpt lon="5.823663" lat="51.087952"><ele>-7.6</ele><time>2022-03-20T08:26:26.000Z</time></trkpt><trkpt lon="5.82376" lat="51.087982"><ele>-7.6</ele><time>2022-03-20T08:26:27.000Z</time></trkpt><trkpt lon="5.823856" lat="51.088012"><ele>-7.6</ele><time>2022-03-20T08:26:28.000Z</time></trkpt><trkpt lon="5.823956" lat="51.088046"><ele>-7.6</ele><time>2022-03-20T08:26:29.000Z</time></trkpt><trkpt lon="5.824042" lat="51.088073"><ele>-7.6</ele><time>2022-03-20T08:26:30.000Z</time></trkpt><trkpt lon="5.824148" lat="51.088107"><ele>-7.6</ele><time>2022-03-20T08:26:31.000Z</time></trkpt><trkpt lon="5.824251" lat="51.088139"><ele>-7.6</ele><time>2022-03-20T08:26:32.000Z</time></trkpt><trkpt lon="5.824345" lat="51.088168"><ele>-7.6</ele><time>2022-03-20T08:26:33.000Z</time></trkpt><trkpt lon="5.824448" lat="51.0882"><ele>-7.6</ele><time>2022-03-20T08:26:34.000Z</time></trkpt><trkpt lon="5.824545" lat="51.088233"><ele>-7.6</ele><time>2022-03-20T08:26:35.000Z</time></trkpt><trkpt lon="5.82464" lat="51.088265"><ele>-7.6</ele><time>2022-03-20T08:26:36.000Z</time></trkpt><trkpt lon="5.824736" lat="51.088295"><ele>-7.6</ele><time>2022-03-20T08:26:37.000Z</time></trkpt><trkpt lon="5.824834" lat="51.088326"><ele>-7.6</ele><time>2022-03-20T08:26:38.000Z</time></trkpt><trkpt lon="5.824931" lat="51.088356"><ele>-7.6</ele><time>2022-03-20T08:26:39.000Z</time></trkpt><trkpt lon="5.825028" lat="51.088387"><ele>-7.6</ele><time>2022-03-20T08:26:40.000Z</time></trkpt><trkpt lon="5.825123" lat="51.08842"><ele>-7.8</ele><time>2022-03-20T08:26:41.000Z</time></trkpt><trkpt lon="5.82522" lat="51.088449"><ele>-8.2</ele><time>2022-03-20T08:26:42.000Z</time></trkpt><trkpt lon="5.825318" lat="51.088478"><ele>-8.2</ele><time>2022-03-20T08:26:43.000Z</time></trkpt><trkpt lon="5.825412" lat="51.088508"><ele>-8.2</ele><time>2022-03-20T08:26:44.000Z</time></trkpt><trkpt lon="5.825511" lat="51.088539"><ele>-8</ele><time>2022-03-20T08:26:45.000Z</time></trkpt><trkpt lon="5.825612" lat="51.088573"><ele>-7.8</ele><time>2022-03-20T08:26:46.000Z</time></trkpt><trkpt lon="5.825707" lat="51.088604"><ele>-7.8</ele><time>2022-03-20T08:26:47.000Z</time></trkpt><trkpt lon="5.825805" lat="51.088634"><ele>-7.8</ele><time>2022-03-20T08:26:48.000Z</time></trkpt><trkpt lon="5.825903" lat="51.088668"><ele>-7.6</ele><time>2022-03-20T08:26:49.000Z</time></trkpt><trkpt lon="5.825997" lat="51.088696"><ele>-7.6</ele><time>2022-03-20T08:26:50.000Z</time></trkpt><trkpt lon="5.826094" lat="51.088725"><ele>-7.6</ele><time>2022-03-20T08:26:51.000Z</time></trkpt><trkpt lon="5.826188" lat="51.088755"><ele>-7.6</ele><time>2022-03-20T08:26:52.000Z</time></trkpt><trkpt lon="5.826288" lat="51.088789"><ele>-7.6</ele><time>2022-03-20T08:26:53.000Z</time></trkpt><trkpt lon="5.826385" lat="51.088818"><ele>-7.6</ele><time>2022-03-20T08:26:54.000Z</time></trkpt><trkpt lon="5.826483" lat="51.08885"><ele>-7.6</ele><time>2022-03-20T08:26:55.000Z</time></trkpt><trkpt lon="5.826584" lat="51.088882"><ele>-7.8</ele><time>2022-03-20T08:26:56.000Z</time></trkpt><trkpt lon="5.82668" lat="51.08891"><ele>-7.8</ele><time>2022-03-20T08:26:57.000Z</time></trkpt><trkpt lon="5.826777" lat="51.088939"><ele>-7.6</ele><time>2022-03-20T08:26:58.000Z</time></trkpt><trkpt lon="5.826872" lat="51.088969"><ele>-7.6</ele><time>2022-03-20T08:26:59.000Z</time></trkpt><trkpt lon="5.82697" lat="51.089"><ele>-7.6</ele><time>2022-03-20T08:27:00.000Z</time></trkpt><trkpt lon="5.827064" lat="51.089034"><ele>-7.6</ele><time>2022-03-20T08:27:01.000Z</time></trkpt><trkpt lon="5.827155" lat="51.089065"><ele>-7.6</ele><time>2022-03-20T08:27:02.000Z</time></trkpt><trkpt lon="5.82725" lat="51.089096"><ele>-7.8</ele><time>2022-03-20T08:27:03.000Z</time></trkpt><trkpt lon="5.827349" lat="51.08913"><ele>-7.8</ele><time>2022-03-20T08:27:04.000Z</time></trkpt><trkpt lon="5.827443" lat="51.089161"><ele>-7.8</ele><time>2022-03-20T08:27:05.000Z</time></trkpt><trkpt lon="5.827535" lat="51.089188"><ele>-7.8</ele><time>2022-03-20T08:27:06.000Z</time></trkpt><trkpt lon="5.827624" lat="51.089218"><ele>-7.8</ele><time>2022-03-20T08:27:07.000Z</time></trkpt><trkpt lon="5.827711" lat="51.089248"><ele>-7.8</ele><time>2022-03-20T08:27:08.000Z</time></trkpt><trkpt lon="5.827796" lat="51.089275"><ele>-7.8</ele><time>2022-03-20T08:27:09.000Z</time></trkpt><trkpt lon="5.827882" lat="51.089305"><ele>-7.8</ele><time>2022-03-20T08:27:10.000Z</time></trkpt><trkpt lon="5.827962" lat="51.089333"><ele>-7.8</ele><time>2022-03-20T08:27:11.000Z</time></trkpt><trkpt lon="5.828034" lat="51.089357"><ele>-7.8</ele><time>2022-03-20T08:27:12.000Z</time></trkpt><trkpt lon="5.828101" lat="51.089371"><ele>-7.8</ele><time>2022-03-20T08:27:13.000Z</time></trkpt><trkpt lon="5.82816" lat="51.08938"><ele>-7.6</ele><time>2022-03-20T08:27:14.000Z</time></trkpt><trkpt lon="5.828212" lat="51.089379"><ele>-7.6</ele><time>2022-03-20T08:27:15.000Z</time></trkpt><trkpt lon="5.82826" lat="51.089376"><ele>-7.4</ele><time>2022-03-20T08:27:16.000Z</time></trkpt><trkpt lon="5.828314" lat="51.089369"><ele>-7.4</ele><time>2022-03-20T08:27:17.000Z</time></trkpt><trkpt lon="5.828374" lat="51.089364"><ele>-7.2</ele><time>2022-03-20T08:27:18.000Z</time></trkpt><trkpt lon="5.828443" lat="51.089366"><ele>-7.2</ele><time>2022-03-20T08:27:19.000Z</time></trkpt><trkpt lon="5.828518" lat="51.089378"><ele>-7</ele><time>2022-03-20T08:27:20.000Z</time></trkpt><trkpt lon="5.82859" lat="51.089407"><ele>-7.2</ele><time>2022-03-20T08:27:21.000Z</time></trkpt><trkpt lon="5.828659" lat="51.089447"><ele>-7.2</ele><time>2022-03-20T08:27:22.000Z</time></trkpt><trkpt lon="5.828727" lat="51.089489"><ele>-7.2</ele><time>2022-03-20T08:27:23.000Z</time></trkpt><trkpt lon="5.828798" lat="51.089534"><ele>-7.2</ele><time>2022-03-20T08:27:24.000Z</time></trkpt><trkpt lon="5.828876" lat="51.08958"><ele>-7.4</ele><time>2022-03-20T08:27:25.000Z</time></trkpt><trkpt lon="5.828953" lat="51.089625"><ele>-7.4</ele><time>2022-03-20T08:27:26.000Z</time></trkpt><trkpt lon="5.829032" lat="51.089671"><ele>-7.4</ele><time>2022-03-20T08:27:27.000Z</time></trkpt><trkpt lon="5.829116" lat="51.08972"><ele>-7.6</ele><time>2022-03-20T08:27:28.000Z</time></trkpt><trkpt lon="5.829199" lat="51.089769"><ele>-7.8</ele><time>2022-03-20T08:27:29.000Z</time></trkpt><trkpt lon="5.829285" lat="51.089816"><ele>-7.8</ele><time>2022-03-20T08:27:30.000Z</time></trkpt><trkpt lon="5.829371" lat="51.089861"><ele>-8</ele><time>2022-03-20T08:27:31.000Z</time></trkpt><trkpt lon="5.829459" lat="51.089907"><ele>-8.2</ele><time>2022-03-20T08:27:32.000Z</time></trkpt><trkpt lon="5.82954" lat="51.089944"><ele>-8.2</ele><time>2022-03-20T08:27:33.000Z</time></trkpt><trkpt lon="5.829627" lat="51.089986"><ele>-8.2</ele><time>2022-03-20T08:27:34.000Z</time></trkpt><trkpt lon="5.82972" lat="51.090034"><ele>-8.4</ele><time>2022-03-20T08:27:35.000Z</time></trkpt><trkpt lon="5.829804" lat="51.090077"><ele>-8.2</ele><time>2022-03-20T08:27:36.000Z</time></trkpt><trkpt lon="5.829884" lat="51.090119"><ele>-8.2</ele><time>2022-03-20T08:27:37.000Z</time></trkpt><trkpt lon="5.829966" lat="51.09016"><ele>-8</ele><time>2022-03-20T08:27:38.000Z</time></trkpt><trkpt lon="5.830051" lat="51.090202"><ele>-7.8</ele><time>2022-03-20T08:27:39.000Z</time></trkpt><trkpt lon="5.830137" lat="51.090247"><ele>-7.6</ele><time>2022-03-20T08:27:40.000Z</time></trkpt><trkpt lon="5.830222" lat="51.09029"><ele>-7.6</ele><time>2022-03-20T08:27:41.000Z</time></trkpt><trkpt lon="5.830301" lat="51.09033"><ele>-7.4</ele><time>2022-03-20T08:27:42.000Z</time></trkpt><trkpt lon="5.830383" lat="51.090376"><ele>-7.4</ele><time>2022-03-20T08:27:43.000Z</time></trkpt><trkpt lon="5.830463" lat="51.090421"><ele>-7.4</ele><time>2022-03-20T08:27:44.000Z</time></trkpt><trkpt lon="5.830545" lat="51.090468"><ele>-7.6</ele><time>2022-03-20T08:27:45.000Z</time></trkpt><trkpt lon="5.830623" lat="51.090514"><ele>-7.6</ele><time>2022-03-20T08:27:46.000Z</time></trkpt><trkpt lon="5.830698" lat="51.090566"><ele>-7.6</ele><time>2022-03-20T08:27:47.000Z</time></trkpt><trkpt lon="5.830771" lat="51.090616"><ele>-7.6</ele><time>2022-03-20T08:27:48.000Z</time></trkpt><trkpt lon="5.830843" lat="51.090665"><ele>-7.8</ele><time>2022-03-20T08:27:49.000Z</time></trkpt><trkpt lon="5.830913" lat="51.090718"><ele>-8</ele><time>2022-03-20T08:27:50.000Z</time></trkpt><trkpt lon="5.830984" lat="51.090772"><ele>-8</ele><time>2022-03-20T08:27:51.000Z</time></trkpt><trkpt lon="5.831056" lat="51.090825"><ele>-8.2</ele><time>2022-03-20T08:27:52.000Z</time></trkpt><trkpt lon="5.831125" lat="51.090878"><ele>-8.2</ele><time>2022-03-20T08:27:53.000Z</time></trkpt><trkpt lon="5.831193" lat="51.090931"><ele>-8.4</ele><time>2022-03-20T08:27:54.000Z</time></trkpt><trkpt lon="5.831265" lat="51.090985"><ele>-8.4</ele><time>2022-03-20T08:27:55.000Z</time></trkpt><trkpt lon="5.831335" lat="51.091038"><ele>-8.6</ele><time>2022-03-20T08:27:56.000Z</time></trkpt><trkpt lon="5.831405" lat="51.091092"><ele>-8.6</ele><time>2022-03-20T08:27:57.000Z</time></trkpt><trkpt lon="5.831472" lat="51.091146"><ele>-8.4</ele><time>2022-03-20T08:27:58.000Z</time></trkpt><trkpt lon="5.831538" lat="51.091198"><ele>-8.4</ele><time>2022-03-20T08:27:59.000Z</time></trkpt><trkpt lon="5.831606" lat="51.091251"><ele>-8.2</ele><time>2022-03-20T08:28:00.000Z</time></trkpt><trkpt lon="5.831673" lat="51.091304"><ele>-8.2</ele><time>2022-03-20T08:28:01.000Z</time></trkpt><trkpt lon="5.831738" lat="51.091357"><ele>-8</ele><time>2022-03-20T08:28:02.000Z</time></trkpt><trkpt lon="5.831805" lat="51.091411"><ele>-8</ele><time>2022-03-20T08:28:03.000Z</time></trkpt><trkpt lon="5.831874" lat="51.091467"><ele>-8.2</ele><time>2022-03-20T08:28:04.000Z</time></trkpt><trkpt lon="5.83194" lat="51.091524"><ele>-8.2</ele><time>2022-03-20T08:28:05.000Z</time></trkpt><trkpt lon="5.832004" lat="51.091581"><ele>-8.2</ele><time>2022-03-20T08:28:06.000Z</time></trkpt><trkpt lon="5.832063" lat="51.091636"><ele>-8.2</ele><time>2022-03-20T08:28:07.000Z</time></trkpt><trkpt lon="5.83212" lat="51.091695"><ele>-8</ele><time>2022-03-20T08:28:08.000Z</time></trkpt><trkpt lon="5.832176" lat="51.091755"><ele>-8</ele><time>2022-03-20T08:28:09.000Z</time></trkpt><trkpt lon="5.832231" lat="51.091814"><ele>-8</ele><time>2022-03-20T08:28:10.000Z</time></trkpt><trkpt lon="5.832284" lat="51.091874"><ele>-8</ele><time>2022-03-20T08:28:11.000Z</time></trkpt><trkpt lon="5.832335" lat="51.091938"><ele>-8</ele><time>2022-03-20T08:28:12.000Z</time></trkpt><trkpt lon="5.832384" lat="51.092"><ele>-8</ele><time>2022-03-20T08:28:13.000Z</time></trkpt><trkpt lon="5.832436" lat="51.092061"><ele>-8.2</ele><time>2022-03-20T08:28:14.000Z</time></trkpt><trkpt lon="5.83249" lat="51.092125"><ele>-8.2</ele><time>2022-03-20T08:28:15.000Z</time></trkpt><trkpt lon="5.832543" lat="51.092187"><ele>-8.2</ele><time>2022-03-20T08:28:16.000Z</time></trkpt><trkpt lon="5.832595" lat="51.092251"><ele>-8.2</ele><time>2022-03-20T08:28:17.000Z</time></trkpt><trkpt lon="5.832645" lat="51.092314"><ele>-8.2</ele><time>2022-03-20T08:28:18.000Z</time></trkpt><trkpt lon="5.832697" lat="51.092377"><ele>-8</ele><time>2022-03-20T08:28:19.000Z</time></trkpt><trkpt lon="5.83275" lat="51.092441"><ele>-8</ele><time>2022-03-20T08:28:20.000Z</time></trkpt><trkpt lon="5.832803" lat="51.092504"><ele>-8</ele><time>2022-03-20T08:28:21.000Z</time></trkpt><trkpt lon="5.832854" lat="51.092568"><ele>-8</ele><time>2022-03-20T08:28:22.000Z</time></trkpt><trkpt lon="5.832905" lat="51.09263"><ele>-8</ele><time>2022-03-20T08:28:23.000Z</time></trkpt><trkpt lon="5.832955" lat="51.092694"><ele>-8</ele><time>2022-03-20T08:28:24.000Z</time></trkpt><trkpt lon="5.833004" lat="51.092757"><ele>-8</ele><time>2022-03-20T08:28:25.000Z</time></trkpt><trkpt lon="5.833055" lat="51.092823"><ele>-8.2</ele><time>2022-03-20T08:28:26.000Z</time></trkpt><trkpt lon="5.833102" lat="51.092885"><ele>-8.2</ele><time>2022-03-20T08:28:27.000Z</time></trkpt><trkpt lon="5.833151" lat="51.092949"><ele>-8</ele><time>2022-03-20T08:28:28.000Z</time></trkpt><trkpt lon="5.833201" lat="51.093013"><ele>-8</ele><time>2022-03-20T08:28:29.000Z</time></trkpt><trkpt lon="5.83325" lat="51.093076"><ele>-8</ele><time>2022-03-20T08:28:30.000Z</time></trkpt><trkpt lon="5.833299" lat="51.09314"><ele>-8</ele><time>2022-03-20T08:28:31.000Z</time></trkpt><trkpt lon="5.833347" lat="51.093202"><ele>-8</ele><time>2022-03-20T08:28:32.000Z</time></trkpt><trkpt lon="5.833395" lat="51.093263"><ele>-8</ele><time>2022-03-20T08:28:33.000Z</time></trkpt><trkpt lon="5.833444" lat="51.093327"><ele>-8.2</ele><time>2022-03-20T08:28:34.000Z</time></trkpt><trkpt lon="5.833492" lat="51.093389"><ele>-8.2</ele><time>2022-03-20T08:28:35.000Z</time></trkpt><trkpt lon="5.833539" lat="51.093453"><ele>-8</ele><time>2022-03-20T08:28:36.000Z</time></trkpt><trkpt lon="5.833587" lat="51.093514"><ele>-8.2</ele><time>2022-03-20T08:28:37.000Z</time></trkpt><trkpt lon="5.833637" lat="51.093579"><ele>-8.2</ele><time>2022-03-20T08:28:38.000Z</time></trkpt><trkpt lon="5.833686" lat="51.09364"><ele>-8.4</ele><time>2022-03-20T08:28:39.000Z</time></trkpt><trkpt lon="5.833737" lat="51.093704"><ele>-8.4</ele><time>2022-03-20T08:28:40.000Z</time></trkpt><trkpt lon="5.833785" lat="51.093769"><ele>-8.6</ele><time>2022-03-20T08:28:41.000Z</time></trkpt><trkpt lon="5.833834" lat="51.093831"><ele>-8.4</ele><time>2022-03-20T08:28:42.000Z</time></trkpt><trkpt lon="5.833885" lat="51.093895"><ele>-8.6</ele><time>2022-03-20T08:28:43.000Z</time></trkpt><trkpt lon="5.833936" lat="51.093959"><ele>-8.6</ele><time>2022-03-20T08:28:44.000Z</time></trkpt><trkpt lon="5.83399" lat="51.094024"><ele>-8.6</ele><time>2022-03-20T08:28:45.000Z</time></trkpt><trkpt lon="5.834043" lat="51.094087"><ele>-8.6</ele><time>2022-03-20T08:28:46.000Z</time></trkpt><trkpt lon="5.834096" lat="51.094148"><ele>-8.8</ele><time>2022-03-20T08:28:47.000Z</time></trkpt><trkpt lon="5.834149" lat="51.094208"><ele>-8.8</ele><time>2022-03-20T08:28:48.000Z</time></trkpt><trkpt lon="5.834204" lat="51.09427"><ele>-8.8</ele><time>2022-03-20T08:28:49.000Z</time></trkpt><trkpt lon="5.834259" lat="51.094331"><ele>-8.8</ele><time>2022-03-20T08:28:50.000Z</time></trkpt><trkpt lon="5.834315" lat="51.094392"><ele>-8.8</ele><time>2022-03-20T08:28:51.000Z</time></trkpt><trkpt lon="5.834372" lat="51.09445"><ele>-8.8</ele><time>2022-03-20T08:28:52.000Z</time></trkpt><trkpt lon="5.834428" lat="51.09451"><ele>-8.8</ele><time>2022-03-20T08:28:53.000Z</time></trkpt><trkpt lon="5.834486" lat="51.094569"><ele>-8.6</ele><time>2022-03-20T08:28:54.000Z</time></trkpt><trkpt lon="5.834541" lat="51.094629"><ele>-8.8</ele><time>2022-03-20T08:28:55.000Z</time></trkpt><trkpt lon="5.834597" lat="51.094689"><ele>-8.8</ele><time>2022-03-20T08:28:56.000Z</time></trkpt><trkpt lon="5.834654" lat="51.09475"><ele>-8.8</ele><time>2022-03-20T08:28:57.000Z</time></trkpt><trkpt lon="5.834714" lat="51.094809"><ele>-8.8</ele><time>2022-03-20T08:28:58.000Z</time></trkpt><trkpt lon="5.834777" lat="51.094866"><ele>-8.8</ele><time>2022-03-20T08:28:59.000Z</time></trkpt><trkpt lon="5.834839" lat="51.094923"><ele>-8.8</ele><time>2022-03-20T08:29:00.000Z</time></trkpt><trkpt lon="5.834899" lat="51.09498"><ele>-8.6</ele><time>2022-03-20T08:29:01.000Z</time></trkpt><trkpt lon="5.834959" lat="51.095035"><ele>-8.4</ele><time>2022-03-20T08:29:02.000Z</time></trkpt><trkpt lon="5.83502" lat="51.095091"><ele>-8.4</ele><time>2022-03-20T08:29:03.000Z</time></trkpt><trkpt lon="5.835081" lat="51.095145"><ele>-8.6</ele><time>2022-03-20T08:29:04.000Z</time></trkpt><trkpt lon="5.835146" lat="51.095201"><ele>-8.8</ele><time>2022-03-20T08:29:05.000Z</time></trkpt><trkpt lon="5.835215" lat="51.095259"><ele>-9</ele><time>2022-03-20T08:29:06.000Z</time></trkpt><trkpt lon="5.835284" lat="51.095316"><ele>-9.2</ele><time>2022-03-20T08:29:07.000Z</time></trkpt><trkpt lon="5.835352" lat="51.095376"><ele>-9.4</ele><time>2022-03-20T08:29:08.000Z</time></trkpt><trkpt lon="5.835419" lat="51.095434"><ele>-9.4</ele><time>2022-03-20T08:29:09.000Z</time></trkpt><trkpt lon="5.835486" lat="51.095494"><ele>-9.6</ele><time>2022-03-20T08:29:10.000Z</time></trkpt><trkpt lon="5.835554" lat="51.095553"><ele>-9.8</ele><time>2022-03-20T08:29:11.000Z</time></trkpt><trkpt lon="5.835621" lat="51.09561"><ele>-10</ele><time>2022-03-20T08:29:12.000Z</time></trkpt><trkpt lon="5.835688" lat="51.095667"><ele>-9.8</ele><time>2022-03-20T08:29:13.000Z</time></trkpt><trkpt lon="5.835754" lat="51.095723"><ele>-9.8</ele><time>2022-03-20T08:29:14.000Z</time></trkpt><trkpt lon="5.835821" lat="51.095781"><ele>-9.8</ele><time>2022-03-20T08:29:15.000Z</time></trkpt><trkpt lon="5.835887" lat="51.095839"><ele>-9.8</ele><time>2022-03-20T08:29:16.000Z</time></trkpt><trkpt lon="5.83595" lat="51.095896"><ele>-9.8</ele><time>2022-03-20T08:29:17.000Z</time></trkpt><trkpt lon="5.836014" lat="51.095956"><ele>-9.6</ele><time>2022-03-20T08:29:18.000Z</time></trkpt><trkpt lon="5.836076" lat="51.096014"><ele>-9.6</ele><time>2022-03-20T08:29:19.000Z</time></trkpt><trkpt lon="5.836137" lat="51.096071"><ele>-9.4</ele><time>2022-03-20T08:29:20.000Z</time></trkpt><trkpt lon="5.836199" lat="51.096129"><ele>-9.2</ele><time>2022-03-20T08:29:21.000Z</time></trkpt><trkpt lon="5.836261" lat="51.096189"><ele>-9</ele><time>2022-03-20T08:29:22.000Z</time></trkpt><trkpt lon="5.836321" lat="51.096246"><ele>-9</ele><time>2022-03-20T08:29:23.000Z</time></trkpt><trkpt lon="5.83638" lat="51.096307"><ele>-8.8</ele><time>2022-03-20T08:29:24.000Z</time></trkpt><trkpt lon="5.836434" lat="51.096365"><ele>-8.8</ele><time>2022-03-20T08:29:25.000Z</time></trkpt><trkpt lon="5.836484" lat="51.096424"><ele>-8.8</ele><time>2022-03-20T08:29:26.000Z</time></trkpt><trkpt lon="5.836535" lat="51.096486"><ele>-8.8</ele><time>2022-03-20T08:29:27.000Z</time></trkpt><trkpt lon="5.836585" lat="51.096547"><ele>-8.6</ele><time>2022-03-20T08:29:28.000Z</time></trkpt><trkpt lon="5.836635" lat="51.096611"><ele>-8.6</ele><time>2022-03-20T08:29:29.000Z</time></trkpt><trkpt lon="5.836686" lat="51.096676"><ele>-8.6</ele><time>2022-03-20T08:29:30.000Z</time></trkpt><trkpt lon="5.836736" lat="51.096738"><ele>-8.6</ele><time>2022-03-20T08:29:31.000Z</time></trkpt><trkpt lon="5.836789" lat="51.096799"><ele>-8.6</ele><time>2022-03-20T08:29:32.000Z</time></trkpt><trkpt lon="5.836835" lat="51.096854"><ele>-8.6</ele><time>2022-03-20T08:29:33.000Z</time></trkpt><trkpt lon="5.83689" lat="51.096924"><ele>-8.6</ele><time>2022-03-20T08:29:34.000Z</time></trkpt><trkpt lon="5.836944" lat="51.096993"><ele>-8.6</ele><time>2022-03-20T08:29:35.000Z</time></trkpt><trkpt lon="5.836992" lat="51.097058"><ele>-9</ele><time>2022-03-20T08:29:36.000Z</time></trkpt><trkpt lon="5.837042" lat="51.09712"><ele>-9</ele><time>2022-03-20T08:29:37.000Z</time></trkpt><trkpt lon="5.837092" lat="51.097184"><ele>-9</ele><time>2022-03-20T08:29:38.000Z</time></trkpt><trkpt lon="5.837142" lat="51.097248"><ele>-9</ele><time>2022-03-20T08:29:39.000Z</time></trkpt><trkpt lon="5.837191" lat="51.097312"><ele>-9</ele><time>2022-03-20T08:29:40.000Z</time></trkpt><trkpt lon="5.837243" lat="51.097375"><ele>-8.8</ele><time>2022-03-20T08:29:41.000Z</time></trkpt><trkpt lon="5.837294" lat="51.097438"><ele>-8.8</ele><time>2022-03-20T08:29:42.000Z</time></trkpt><trkpt lon="5.837345" lat="51.097503"><ele>-8.8</ele><time>2022-03-20T08:29:43.000Z</time></trkpt><trkpt lon="5.837395" lat="51.097566"><ele>-8.8</ele><time>2022-03-20T08:29:44.000Z</time></trkpt><trkpt lon="5.837446" lat="51.09763"><ele>-9</ele><time>2022-03-20T08:29:45.000Z</time></trkpt><trkpt lon="5.837496" lat="51.097695"><ele>-9.2</ele><time>2022-03-20T08:29:46.000Z</time></trkpt><trkpt lon="5.837545" lat="51.097756"><ele>-9.2</ele><time>2022-03-20T08:29:47.000Z</time></trkpt><trkpt lon="5.837595" lat="51.097821"><ele>-9.2</ele><time>2022-03-20T08:29:48.000Z</time></trkpt><trkpt lon="5.837645" lat="51.097883"><ele>-9.2</ele><time>2022-03-20T08:29:49.000Z</time></trkpt><trkpt lon="5.837694" lat="51.097946"><ele>-9.2</ele><time>2022-03-20T08:29:50.000Z</time></trkpt><trkpt lon="5.837743" lat="51.098007"><ele>-9.2</ele><time>2022-03-20T08:29:51.000Z</time></trkpt><trkpt lon="5.837792" lat="51.098069"><ele>-9</ele><time>2022-03-20T08:29:52.000Z</time></trkpt><trkpt lon="5.83784" lat="51.098133"><ele>-9</ele><time>2022-03-20T08:29:53.000Z</time></trkpt><trkpt lon="5.837889" lat="51.098198"><ele>-9</ele><time>2022-03-20T08:29:54.000Z</time></trkpt><trkpt lon="5.837941" lat="51.09826"><ele>-9</ele><time>2022-03-20T08:29:55.000Z</time></trkpt><trkpt lon="5.837992" lat="51.098321"><ele>-9</ele><time>2022-03-20T08:29:56.000Z</time></trkpt><trkpt lon="5.838042" lat="51.098384"><ele>-9</ele><time>2022-03-20T08:29:57.000Z</time></trkpt><trkpt lon="5.838094" lat="51.098447"><ele>-9</ele><time>2022-03-20T08:29:58.000Z</time></trkpt><trkpt lon="5.838145" lat="51.098511"><ele>-9</ele><time>2022-03-20T08:29:59.000Z</time></trkpt><trkpt lon="5.838195" lat="51.098575"><ele>-9.2</ele><time>2022-03-20T08:30:00.000Z</time></trkpt><trkpt lon="5.838245" lat="51.09864"><ele>-9.2</ele><time>2022-03-20T08:30:01.000Z</time></trkpt><trkpt lon="5.838296" lat="51.098702"><ele>-9.2</ele><time>2022-03-20T08:30:02.000Z</time></trkpt><trkpt lon="5.838343" lat="51.098758"><ele>-9.2</ele><time>2022-03-20T08:30:03.000Z</time></trkpt><trkpt lon="5.838402" lat="51.098825"><ele>-9.2</ele><time>2022-03-20T08:30:04.000Z</time></trkpt><trkpt lon="5.838459" lat="51.09889"><ele>-9.4</ele><time>2022-03-20T08:30:05.000Z</time></trkpt><trkpt lon="5.838514" lat="51.09895"><ele>-9.4</ele><time>2022-03-20T08:30:06.000Z</time></trkpt><trkpt lon="5.838571" lat="51.099011"><ele>-9.4</ele><time>2022-03-20T08:30:07.000Z</time></trkpt><trkpt lon="5.83863" lat="51.099069"><ele>-9.4</ele><time>2022-03-20T08:30:08.000Z</time></trkpt><trkpt lon="5.838688" lat="51.099126"><ele>-9.4</ele><time>2022-03-20T08:30:09.000Z</time></trkpt><trkpt lon="5.838746" lat="51.099187"><ele>-9.2</ele><time>2022-03-20T08:30:10.000Z</time></trkpt><trkpt lon="5.838802" lat="51.099244"><ele>-9.2</ele><time>2022-03-20T08:30:11.000Z</time></trkpt><trkpt lon="5.83886" lat="51.099304"><ele>-9.4</ele><time>2022-03-20T08:30:12.000Z</time></trkpt><trkpt lon="5.838921" lat="51.099363"><ele>-9.4</ele><time>2022-03-20T08:30:13.000Z</time></trkpt><trkpt lon="5.83898" lat="51.09942"><ele>-9.4</ele><time>2022-03-20T08:30:14.000Z</time></trkpt><trkpt lon="5.83904" lat="51.099481"><ele>-9.4</ele><time>2022-03-20T08:30:15.000Z</time></trkpt><trkpt lon="5.839099" lat="51.099538"><ele>-9.4</ele><time>2022-03-20T08:30:16.000Z</time></trkpt><trkpt lon="5.839159" lat="51.099596"><ele>-9.4</ele><time>2022-03-20T08:30:17.000Z</time></trkpt><trkpt lon="5.839219" lat="51.099653"><ele>-9.4</ele><time>2022-03-20T08:30:18.000Z</time></trkpt><trkpt lon="5.83928" lat="51.099711"><ele>-9.4</ele><time>2022-03-20T08:30:19.000Z</time></trkpt><trkpt lon="5.839338" lat="51.099771"><ele>-9.4</ele><time>2022-03-20T08:30:20.000Z</time></trkpt><trkpt lon="5.839398" lat="51.099826"><ele>-9.6</ele><time>2022-03-20T08:30:21.000Z</time></trkpt><trkpt lon="5.839458" lat="51.099885"><ele>-9.6</ele><time>2022-03-20T08:30:22.000Z</time></trkpt><trkpt lon="5.839518" lat="51.099943"><ele>-9.6</ele><time>2022-03-20T08:30:23.000Z</time></trkpt><trkpt lon="5.839576" lat="51.099999"><ele>-9.8</ele><time>2022-03-20T08:30:24.000Z</time></trkpt><trkpt lon="5.839636" lat="51.100057"><ele>-10.2</ele><time>2022-03-20T08:30:25.000Z</time></trkpt><trkpt lon="5.839694" lat="51.100114"><ele>-10.2</ele><time>2022-03-20T08:30:26.000Z</time></trkpt><trkpt lon="5.839753" lat="51.100172"><ele>-10</ele><time>2022-03-20T08:30:27.000Z</time></trkpt><trkpt lon="5.839812" lat="51.10023"><ele>-9.8</ele><time>2022-03-20T08:30:28.000Z</time></trkpt><trkpt lon="5.839869" lat="51.100287"><ele>-9.6</ele><time>2022-03-20T08:30:29.000Z</time></trkpt><trkpt lon="5.839923" lat="51.100347"><ele>-9.2</ele><time>2022-03-20T08:30:30.000Z</time></trkpt><trkpt lon="5.839973" lat="51.100405"><ele>-9</ele><time>2022-03-20T08:30:31.000Z</time></trkpt><trkpt lon="5.840023" lat="51.100459"><ele>-8.6</ele><time>2022-03-20T08:30:32.000Z</time></trkpt><trkpt lon="5.84007" lat="51.100507"><ele>-8.4</ele><time>2022-03-20T08:30:33.000Z</time></trkpt><trkpt lon="5.840127" lat="51.100561"><ele>-8.2</ele><time>2022-03-20T08:30:34.000Z</time></trkpt><trkpt lon="5.840185" lat="51.100618"><ele>-8</ele><time>2022-03-20T08:30:35.000Z</time></trkpt><trkpt lon="5.840244" lat="51.100675"><ele>-7.8</ele><time>2022-03-20T08:30:36.000Z</time></trkpt><trkpt lon="5.840304" lat="51.100732"><ele>-7.8</ele><time>2022-03-20T08:30:37.000Z</time></trkpt><trkpt lon="5.840358" lat="51.100787"><ele>-7.6</ele><time>2022-03-20T08:30:38.000Z</time></trkpt><trkpt lon="5.840418" lat="51.10085"><ele>-7.6</ele><time>2022-03-20T08:30:39.000Z</time></trkpt><trkpt lon="5.840472" lat="51.100911"><ele>-7.6</ele><time>2022-03-20T08:30:40.000Z</time></trkpt><trkpt lon="5.840527" lat="51.100972"><ele>-7.6</ele><time>2022-03-20T08:30:41.000Z</time></trkpt><trkpt lon="5.840581" lat="51.10103"><ele>-7.6</ele><time>2022-03-20T08:30:42.000Z</time></trkpt><trkpt lon="5.840632" lat="51.101091"><ele>-7.6</ele><time>2022-03-20T08:30:43.000Z</time></trkpt><trkpt lon="5.840682" lat="51.101152"><ele>-7.6</ele><time>2022-03-20T08:30:44.000Z</time></trkpt><trkpt lon="5.840728" lat="51.101213"><ele>-7.6</ele><time>2022-03-20T08:30:45.000Z</time></trkpt><trkpt lon="5.840768" lat="51.101277"><ele>-7.8</ele><time>2022-03-20T08:30:46.000Z</time></trkpt><trkpt lon="5.840802" lat="51.101344"><ele>-7.8</ele><time>2022-03-20T08:30:47.000Z</time></trkpt><trkpt lon="5.84083" lat="51.10141"><ele>-8</ele><time>2022-03-20T08:30:48.000Z</time></trkpt><trkpt lon="5.840853" lat="51.101481"><ele>-8.2</ele><time>2022-03-20T08:30:49.000Z</time></trkpt><trkpt lon="5.840872" lat="51.101551"><ele>-8.4</ele><time>2022-03-20T08:30:50.000Z</time></trkpt><trkpt lon="5.840884" lat="51.10162"><ele>-8.4</ele><time>2022-03-20T08:30:51.000Z</time></trkpt><trkpt lon="5.840891" lat="51.101694"><ele>-8.4</ele><time>2022-03-20T08:30:52.000Z</time></trkpt><trkpt lon="5.840894" lat="51.101763"><ele>-8.4</ele><time>2022-03-20T08:30:53.000Z</time></trkpt><trkpt lon="5.840896" lat="51.101832"><ele>-8.4</ele><time>2022-03-20T08:30:54.000Z</time></trkpt><trkpt lon="5.840899" lat="51.101901"><ele>-8.4</ele><time>2022-03-20T08:30:55.000Z</time></trkpt><trkpt lon="5.840907" lat="51.101973"><ele>-8.6</ele><time>2022-03-20T08:30:56.000Z</time></trkpt><trkpt lon="5.840924" lat="51.102041"><ele>-8.6</ele><time>2022-03-20T08:30:57.000Z</time></trkpt><trkpt lon="5.840955" lat="51.102108"><ele>-8.6</ele><time>2022-03-20T08:30:58.000Z</time></trkpt><trkpt lon="5.841003" lat="51.102173"><ele>-8.8</ele><time>2022-03-20T08:30:59.000Z</time></trkpt><trkpt lon="5.841066" lat="51.102235"><ele>-8.8</ele><time>2022-03-20T08:31:00.000Z</time></trkpt><trkpt lon="5.841142" lat="51.102287"><ele>-9</ele><time>2022-03-20T08:31:01.000Z</time></trkpt><trkpt lon="5.841222" lat="51.102336"><ele>-9</ele><time>2022-03-20T08:31:02.000Z</time></trkpt><trkpt lon="5.841294" lat="51.102374"><ele>-9</ele><time>2022-03-20T08:31:03.000Z</time></trkpt><trkpt lon="5.841389" lat="51.10242"><ele>-9</ele><time>2022-03-20T08:31:04.000Z</time></trkpt><trkpt lon="5.841484" lat="51.102465"><ele>-9</ele><time>2022-03-20T08:31:05.000Z</time></trkpt><trkpt lon="5.841573" lat="51.10251"><ele>-9</ele><time>2022-03-20T08:31:06.000Z</time></trkpt><trkpt lon="5.841663" lat="51.102549"><ele>-8.8</ele><time>2022-03-20T08:31:07.000Z</time></trkpt><trkpt lon="5.841756" lat="51.10259"><ele>-8.8</ele><time>2022-03-20T08:31:08.000Z</time></trkpt><trkpt lon="5.841847" lat="51.102632"><ele>-8.8</ele><time>2022-03-20T08:31:09.000Z</time></trkpt><trkpt lon="5.84194" lat="51.102677"><ele>-8.8</ele><time>2022-03-20T08:31:10.000Z</time></trkpt><trkpt lon="5.842033" lat="51.10272"><ele>-8.8</ele><time>2022-03-20T08:31:11.000Z</time></trkpt><trkpt lon="5.842124" lat="51.102765"><ele>-8.8</ele><time>2022-03-20T08:31:12.000Z</time></trkpt><trkpt lon="5.842212" lat="51.102811"><ele>-8.6</ele><time>2022-03-20T08:31:13.000Z</time></trkpt><trkpt lon="5.842297" lat="51.102853"><ele>-8.6</ele><time>2022-03-20T08:31:14.000Z</time></trkpt><trkpt lon="5.842382" lat="51.102896"><ele>-8.6</ele><time>2022-03-20T08:31:15.000Z</time></trkpt><trkpt lon="5.842465" lat="51.10294"><ele>-8.6</ele><time>2022-03-20T08:31:16.000Z</time></trkpt><trkpt lon="5.84255" lat="51.102986"><ele>-8.6</ele><time>2022-03-20T08:31:17.000Z</time></trkpt><trkpt lon="5.842631" lat="51.103029"><ele>-8.4</ele><time>2022-03-20T08:31:18.000Z</time></trkpt><trkpt lon="5.842709" lat="51.103074"><ele>-8</ele><time>2022-03-20T08:31:19.000Z</time></trkpt><trkpt lon="5.842787" lat="51.103113"><ele>-7.8</ele><time>2022-03-20T08:31:20.000Z</time></trkpt><trkpt lon="5.842867" lat="51.103155"><ele>-7.6</ele><time>2022-03-20T08:31:21.000Z</time></trkpt><trkpt lon="5.842946" lat="51.103194"><ele>-7.4</ele><time>2022-03-20T08:31:22.000Z</time></trkpt><trkpt lon="5.843023" lat="51.103235"><ele>-7.2</ele><time>2022-03-20T08:31:23.000Z</time></trkpt><trkpt lon="5.8431" lat="51.103274"><ele>-7</ele><time>2022-03-20T08:31:24.000Z</time></trkpt><trkpt lon="5.843177" lat="51.103312"><ele>-6.8</ele><time>2022-03-20T08:31:25.000Z</time></trkpt><trkpt lon="5.843255" lat="51.103353"><ele>-6.6</ele><time>2022-03-20T08:31:26.000Z</time></trkpt><trkpt lon="5.843331" lat="51.103395"><ele>-6.4</ele><time>2022-03-20T08:31:27.000Z</time></trkpt><trkpt lon="5.843409" lat="51.103437"><ele>-6.2</ele><time>2022-03-20T08:31:28.000Z</time></trkpt><trkpt lon="5.843484" lat="51.103479"><ele>-6.2</ele><time>2022-03-20T08:31:29.000Z</time></trkpt><trkpt lon="5.84356" lat="51.103521"><ele>-6</ele><time>2022-03-20T08:31:30.000Z</time></trkpt><trkpt lon="5.843635" lat="51.10356"><ele>-6</ele><time>2022-03-20T08:31:31.000Z</time></trkpt><trkpt lon="5.84371" lat="51.103598"><ele>-5.8</ele><time>2022-03-20T08:31:32.000Z</time></trkpt><trkpt lon="5.843778" lat="51.103632"><ele>-5.6</ele><time>2022-03-20T08:31:33.000Z</time></trkpt><trkpt lon="5.843857" lat="51.103673"><ele>-5.4</ele><time>2022-03-20T08:31:34.000Z</time></trkpt><trkpt lon="5.843935" lat="51.103716"><ele>-5.2</ele><time>2022-03-20T08:31:35.000Z</time></trkpt><trkpt lon="5.844008" lat="51.103754"><ele>-5</ele><time>2022-03-20T08:31:36.000Z</time></trkpt><trkpt lon="5.844084" lat="51.103796"><ele>-4.8</ele><time>2022-03-20T08:31:37.000Z</time></trkpt><trkpt lon="5.844158" lat="51.103835"><ele>-4.6</ele><time>2022-03-20T08:31:38.000Z</time></trkpt><trkpt lon="5.844233" lat="51.103876"><ele>-4.4</ele><time>2022-03-20T08:31:39.000Z</time></trkpt><trkpt lon="5.844306" lat="51.103915"><ele>-4.2</ele><time>2022-03-20T08:31:40.000Z</time></trkpt><trkpt lon="5.84438" lat="51.103953"><ele>-4.2</ele><time>2022-03-20T08:31:41.000Z</time></trkpt><trkpt lon="5.844456" lat="51.103991"><ele>-4</ele><time>2022-03-20T08:31:42.000Z</time></trkpt><trkpt lon="5.844529" lat="51.104032"><ele>-3.8</ele><time>2022-03-20T08:31:43.000Z</time></trkpt><trkpt lon="5.844602" lat="51.104071"><ele>-3.8</ele><time>2022-03-20T08:31:44.000Z</time></trkpt><trkpt lon="5.844677" lat="51.104109"><ele>-3.8</ele><time>2022-03-20T08:31:45.000Z</time></trkpt><trkpt lon="5.844752" lat="51.104151"><ele>-3.6</ele><time>2022-03-20T08:31:46.000Z</time></trkpt><trkpt lon="5.844824" lat="51.104189"><ele>-3.4</ele><time>2022-03-20T08:31:47.000Z</time></trkpt><trkpt lon="5.844898" lat="51.104228"><ele>-3.2</ele><time>2022-03-20T08:31:48.000Z</time></trkpt><trkpt lon="5.84497" lat="51.104266"><ele>-3</ele><time>2022-03-20T08:31:49.000Z</time></trkpt><trkpt lon="5.845042" lat="51.104304"><ele>-2.8</ele><time>2022-03-20T08:31:50.000Z</time></trkpt><trkpt lon="5.845114" lat="51.104342"><ele>-2.6</ele><time>2022-03-20T08:31:51.000Z</time></trkpt><trkpt lon="5.845184" lat="51.104377"><ele>-2.4</ele><time>2022-03-20T08:31:52.000Z</time></trkpt><trkpt lon="5.845254" lat="51.104415"><ele>-2.2</ele><time>2022-03-20T08:31:53.000Z</time></trkpt><trkpt lon="5.845325" lat="51.104453"><ele>-2.2</ele><time>2022-03-20T08:31:54.000Z</time></trkpt><trkpt lon="5.845397" lat="51.104491"><ele>-2</ele><time>2022-03-20T08:31:55.000Z</time></trkpt><trkpt lon="5.845471" lat="51.104529"><ele>-1.8</ele><time>2022-03-20T08:31:56.000Z</time></trkpt><trkpt lon="5.845543" lat="51.104564"><ele>-1.6</ele><time>2022-03-20T08:31:57.000Z</time></trkpt><trkpt lon="5.845617" lat="51.104599"><ele>-1.4</ele><time>2022-03-20T08:31:58.000Z</time></trkpt><trkpt lon="5.845689" lat="51.104636"><ele>-1.2</ele><time>2022-03-20T08:31:59.000Z</time></trkpt><trkpt lon="5.845759" lat="51.104674"><ele>-1</ele><time>2022-03-20T08:32:00.000Z</time></trkpt><trkpt lon="5.845828" lat="51.104709"><ele>-1</ele><time>2022-03-20T08:32:01.000Z</time></trkpt><trkpt lon="5.845896" lat="51.104746"><ele>-0.8</ele><time>2022-03-20T08:32:02.000Z</time></trkpt><trkpt lon="5.845953" lat="51.104778"><ele>-0.6</ele><time>2022-03-20T08:32:03.000Z</time></trkpt><trkpt lon="5.846017" lat="51.104813"><ele>-0.4</ele><time>2022-03-20T08:32:04.000Z</time></trkpt><trkpt lon="5.846092" lat="51.104853"><ele>0</ele><time>2022-03-20T08:32:05.000Z</time></trkpt><trkpt lon="5.846163" lat="51.104892"><ele>0</ele><time>2022-03-20T08:32:06.000Z</time></trkpt><trkpt lon="5.84623" lat="51.104929"><ele>0.2</ele><time>2022-03-20T08:32:07.000Z</time></trkpt><trkpt lon="5.84629" lat="51.104961"><ele>0.4</ele><time>2022-03-20T08:32:08.000Z</time></trkpt><trkpt lon="5.846364" lat="51.105"><ele>0.6</ele><time>2022-03-20T08:32:09.000Z</time></trkpt><trkpt lon="5.846434" lat="51.10504"><ele>0.8</ele><time>2022-03-20T08:32:10.000Z</time></trkpt><trkpt lon="5.846497" lat="51.105078"><ele>1</ele><time>2022-03-20T08:32:11.000Z</time></trkpt><trkpt lon="5.84656" lat="51.105119"><ele>1.2</ele><time>2022-03-20T08:32:12.000Z</time></trkpt><trkpt lon="5.846622" lat="51.105161"><ele>1.6</ele><time>2022-03-20T08:32:13.000Z</time></trkpt><trkpt lon="5.846684" lat="51.105203"><ele>1.8</ele><time>2022-03-20T08:32:14.000Z</time></trkpt><trkpt lon="5.846743" lat="51.105245"><ele>2</ele><time>2022-03-20T08:32:15.000Z</time></trkpt><trkpt lon="5.8468" lat="51.10529"><ele>2</ele><time>2022-03-20T08:32:16.000Z</time></trkpt><trkpt lon="5.846856" lat="51.105336"><ele>2.2</ele><time>2022-03-20T08:32:17.000Z</time></trkpt><trkpt lon="5.846911" lat="51.105379"><ele>2.4</ele><time>2022-03-20T08:32:18.000Z</time></trkpt><trkpt lon="5.846963" lat="51.105427"><ele>2.6</ele><time>2022-03-20T08:32:19.000Z</time></trkpt><trkpt lon="5.847014" lat="51.105473"><ele>2.6</ele><time>2022-03-20T08:32:20.000Z</time></trkpt><trkpt lon="5.847064" lat="51.105519"><ele>3</ele><time>2022-03-20T08:32:21.000Z</time></trkpt><trkpt lon="5.847111" lat="51.105568"><ele>3.2</ele><time>2022-03-20T08:32:22.000Z</time></trkpt><trkpt lon="5.847156" lat="51.105617"><ele>3.4</ele><time>2022-03-20T08:32:23.000Z</time></trkpt><trkpt lon="5.8472" lat="51.105667"><ele>3.8</ele><time>2022-03-20T08:32:24.000Z</time></trkpt><trkpt lon="5.847242" lat="51.105713"><ele>4</ele><time>2022-03-20T08:32:25.000Z</time></trkpt><trkpt lon="5.847282" lat="51.105762"><ele>4.2</ele><time>2022-03-20T08:32:26.000Z</time></trkpt><trkpt lon="5.847322" lat="51.105812"><ele>4.4</ele><time>2022-03-20T08:32:27.000Z</time></trkpt><trkpt lon="5.847361" lat="51.105861"><ele>4.6</ele><time>2022-03-20T08:32:28.000Z</time></trkpt><trkpt lon="5.847399" lat="51.105908"><ele>4.8</ele><time>2022-03-20T08:32:29.000Z</time></trkpt><trkpt lon="5.847438" lat="51.105957"><ele>5</ele><time>2022-03-20T08:32:30.000Z</time></trkpt><trkpt lon="5.847474" lat="51.106009"><ele>5.4</ele><time>2022-03-20T08:32:31.000Z</time></trkpt><trkpt lon="5.847513" lat="51.106057"><ele>5.6</ele><time>2022-03-20T08:32:32.000Z</time></trkpt><trkpt lon="5.847545" lat="51.106099"><ele>5.6</ele><time>2022-03-20T08:32:33.000Z</time></trkpt><trkpt lon="5.847585" lat="51.106152"><ele>5.8</ele><time>2022-03-20T08:32:34.000Z</time></trkpt><trkpt lon="5.847625" lat="51.106205"><ele>6</ele><time>2022-03-20T08:32:35.000Z</time></trkpt><trkpt lon="5.84766" lat="51.106255"><ele>6.2</ele><time>2022-03-20T08:32:36.000Z</time></trkpt><trkpt lon="5.847696" lat="51.106303"><ele>6.4</ele><time>2022-03-20T08:32:37.000Z</time></trkpt><trkpt lon="5.847734" lat="51.106353"><ele>6.6</ele><time>2022-03-20T08:32:38.000Z</time></trkpt><trkpt lon="5.847772" lat="51.106403"><ele>6.8</ele><time>2022-03-20T08:32:39.000Z</time></trkpt><trkpt lon="5.847807" lat="51.106452"><ele>7</ele><time>2022-03-20T08:32:40.000Z</time></trkpt><trkpt lon="5.847844" lat="51.106502"><ele>7.2</ele><time>2022-03-20T08:32:41.000Z</time></trkpt><trkpt lon="5.847881" lat="51.106552"><ele>7.4</ele><time>2022-03-20T08:32:42.000Z</time></trkpt><trkpt lon="5.847918" lat="51.106599"><ele>7.6</ele><time>2022-03-20T08:32:43.000Z</time></trkpt><trkpt lon="5.847955" lat="51.106644"><ele>7.8</ele><time>2022-03-20T08:32:44.000Z</time></trkpt><trkpt lon="5.847991" lat="51.10669"><ele>8</ele><time>2022-03-20T08:32:45.000Z</time></trkpt><trkpt lon="5.848026" lat="51.106738"><ele>8.2</ele><time>2022-03-20T08:32:46.000Z</time></trkpt><trkpt lon="5.848064" lat="51.106786"><ele>8.2</ele><time>2022-03-20T08:32:47.000Z</time></trkpt><trkpt lon="5.848102" lat="51.106828"><ele>8.4</ele><time>2022-03-20T08:32:48.000Z</time></trkpt><trkpt lon="5.848136" lat="51.10687"><ele>8.6</ele><time>2022-03-20T08:32:49.000Z</time></trkpt><trkpt lon="5.848171" lat="51.106909"><ele>8.6</ele><time>2022-03-20T08:32:50.000Z</time></trkpt><trkpt lon="5.848208" lat="51.106943"><ele>8.8</ele><time>2022-03-20T08:32:51.000Z</time></trkpt><trkpt lon="5.848254" lat="51.106975"><ele>8.8</ele><time>2022-03-20T08:32:52.000Z</time></trkpt><trkpt lon="5.848317" lat="51.106992"><ele>9</ele><time>2022-03-20T08:32:53.000Z</time></trkpt><trkpt lon="5.84839" lat="51.106995"><ele>9</ele><time>2022-03-20T08:32:54.000Z</time></trkpt><trkpt lon="5.848464" lat="51.106986"><ele>9.2</ele><time>2022-03-20T08:32:55.000Z</time></trkpt><trkpt lon="5.848538" lat="51.106966"><ele>9.2</ele><time>2022-03-20T08:32:56.000Z</time></trkpt><trkpt lon="5.848611" lat="51.106943"><ele>9.2</ele><time>2022-03-20T08:32:57.000Z</time></trkpt><trkpt lon="5.848683" lat="51.106917"><ele>9.2</ele><time>2022-03-20T08:32:58.000Z</time></trkpt><trkpt lon="5.848754" lat="51.10689"><ele>9.4</ele><time>2022-03-20T08:32:59.000Z</time></trkpt><trkpt lon="5.848825" lat="51.106863"><ele>9.2</ele><time>2022-03-20T08:33:00.000Z</time></trkpt><trkpt lon="5.848901" lat="51.106837"><ele>9.2</ele><time>2022-03-20T08:33:01.000Z</time></trkpt><trkpt lon="5.848976" lat="51.106811"><ele>9.2</ele><time>2022-03-20T08:33:02.000Z</time></trkpt><trkpt lon="5.849052" lat="51.106781"><ele>9.4</ele><time>2022-03-20T08:33:03.000Z</time></trkpt><trkpt lon="5.849131" lat="51.106753"><ele>9.6</ele><time>2022-03-20T08:33:04.000Z</time></trkpt><trkpt lon="5.849209" lat="51.106726"><ele>9.6</ele><time>2022-03-20T08:33:05.000Z</time></trkpt><trkpt lon="5.849285" lat="51.1067"><ele>9.6</ele><time>2022-03-20T08:33:06.000Z</time></trkpt><trkpt lon="5.849361" lat="51.106673"><ele>9.6</ele><time>2022-03-20T08:33:07.000Z</time></trkpt><trkpt lon="5.849437" lat="51.106646"><ele>9.6</ele><time>2022-03-20T08:33:08.000Z</time></trkpt><trkpt lon="5.849514" lat="51.106619"><ele>9.6</ele><time>2022-03-20T08:33:09.000Z</time></trkpt><trkpt lon="5.849593" lat="51.106593"><ele>9.6</ele><time>2022-03-20T08:33:10.000Z</time></trkpt><trkpt lon="5.849672" lat="51.106566"><ele>9.8</ele><time>2022-03-20T08:33:11.000Z</time></trkpt><trkpt lon="5.84975" lat="51.106539"><ele>9.8</ele><time>2022-03-20T08:33:12.000Z</time></trkpt><trkpt lon="5.849824" lat="51.106513"><ele>9.8</ele><time>2022-03-20T08:33:13.000Z</time></trkpt><trkpt lon="5.849898" lat="51.106489"><ele>9.8</ele><time>2022-03-20T08:33:14.000Z</time></trkpt><trkpt lon="5.849971" lat="51.106463"><ele>9.6</ele><time>2022-03-20T08:33:15.000Z</time></trkpt><trkpt lon="5.850043" lat="51.106439"><ele>9.4</ele><time>2022-03-20T08:33:16.000Z</time></trkpt><trkpt lon="5.850117" lat="51.106414"><ele>9.4</ele><time>2022-03-20T08:33:17.000Z</time></trkpt><trkpt lon="5.850195" lat="51.10639"><ele>9.4</ele><time>2022-03-20T08:33:18.000Z</time></trkpt><trkpt lon="5.850272" lat="51.106364"><ele>9.4</ele><time>2022-03-20T08:33:19.000Z</time></trkpt><trkpt lon="5.85035" lat="51.106337"><ele>9.2</ele><time>2022-03-20T08:33:20.000Z</time></trkpt><trkpt lon="5.850431" lat="51.106307"><ele>9</ele><time>2022-03-20T08:33:21.000Z</time></trkpt><trkpt lon="5.850514" lat="51.106277"><ele>9</ele><time>2022-03-20T08:33:22.000Z</time></trkpt><trkpt lon="5.850599" lat="51.106244"><ele>8.8</ele><time>2022-03-20T08:33:23.000Z</time></trkpt><trkpt lon="5.850687" lat="51.10621"><ele>8.6</ele><time>2022-03-20T08:33:24.000Z</time></trkpt><trkpt lon="5.850777" lat="51.106175"><ele>8.6</ele><time>2022-03-20T08:33:25.000Z</time></trkpt><trkpt lon="5.850866" lat="51.106141"><ele>8.4</ele><time>2022-03-20T08:33:26.000Z</time></trkpt><trkpt lon="5.850956" lat="51.106103"><ele>8.2</ele><time>2022-03-20T08:33:27.000Z</time></trkpt><trkpt lon="5.851043" lat="51.106062"><ele>8</ele><time>2022-03-20T08:33:28.000Z</time></trkpt><trkpt lon="5.851123" lat="51.106014"><ele>7.8</ele><time>2022-03-20T08:33:29.000Z</time></trkpt><trkpt lon="5.851191" lat="51.105963"><ele>7.6</ele><time>2022-03-20T08:33:30.000Z</time></trkpt><trkpt lon="5.85125" lat="51.1059"><ele>7.4</ele><time>2022-03-20T08:33:31.000Z</time></trkpt><trkpt lon="5.851289" lat="51.105832"><ele>7.4</ele><time>2022-03-20T08:33:32.000Z</time></trkpt><trkpt lon="5.851308" lat="51.10576"><ele>7</ele><time>2022-03-20T08:33:33.000Z</time></trkpt><trkpt lon="5.851307" lat="51.105683"><ele>6.8</ele><time>2022-03-20T08:33:34.000Z</time></trkpt><trkpt lon="5.851281" lat="51.105606"><ele>6.6</ele><time>2022-03-20T08:33:35.000Z</time></trkpt><trkpt lon="5.851233" lat="51.105535"><ele>6.2</ele><time>2022-03-20T08:33:36.000Z</time></trkpt><trkpt lon="5.851167" lat="51.105468"><ele>6</ele><time>2022-03-20T08:33:37.000Z</time></trkpt><trkpt lon="5.851096" lat="51.10541"><ele>5.6</ele><time>2022-03-20T08:33:38.000Z</time></trkpt><trkpt lon="5.851021" lat="51.105352"><ele>5.4</ele><time>2022-03-20T08:33:39.000Z</time></trkpt><trkpt lon="5.850949" lat="51.105296"><ele>5.2</ele><time>2022-03-20T08:33:40.000Z</time></trkpt><trkpt lon="5.850875" lat="51.105241"><ele>4.8</ele><time>2022-03-20T08:33:41.000Z</time></trkpt><trkpt lon="5.850793" lat="51.10519"><ele>4.6</ele><time>2022-03-20T08:33:42.000Z</time></trkpt><trkpt lon="5.850702" lat="51.10515"><ele>4.2</ele><time>2022-03-20T08:33:43.000Z</time></trkpt><trkpt lon="5.850601" lat="51.10512"><ele>3.8</ele><time>2022-03-20T08:33:44.000Z</time></trkpt><trkpt lon="5.850494" lat="51.105102"><ele>3.4</ele><time>2022-03-20T08:33:45.000Z</time></trkpt><trkpt lon="5.850385" lat="51.105096"><ele>3.2</ele><time>2022-03-20T08:33:46.000Z</time></trkpt><trkpt lon="5.850276" lat="51.105104"><ele>2.8</ele><time>2022-03-20T08:33:47.000Z</time></trkpt><trkpt lon="5.850171" lat="51.105124"><ele>2.2</ele><time>2022-03-20T08:33:48.000Z</time></trkpt><trkpt lon="5.850072" lat="51.105159"><ele>2</ele><time>2022-03-20T08:33:49.000Z</time></trkpt><trkpt lon="5.849983" lat="51.105203"><ele>1.6</ele><time>2022-03-20T08:33:50.000Z</time></trkpt><trkpt lon="5.84991" lat="51.10526"><ele>1.2</ele><time>2022-03-20T08:33:51.000Z</time></trkpt><trkpt lon="5.849854" lat="51.105327"><ele>0.8</ele><time>2022-03-20T08:33:52.000Z</time></trkpt><trkpt lon="5.84982" lat="51.105401"><ele>0.4</ele><time>2022-03-20T08:33:53.000Z</time></trkpt><trkpt lon="5.849806" lat="51.105481"><ele>-0.4</ele><time>2022-03-20T08:33:54.000Z</time></trkpt><trkpt lon="5.84981" lat="51.105564"><ele>-0.8</ele><time>2022-03-20T08:33:55.000Z</time></trkpt><trkpt lon="5.849834" lat="51.105644"><ele>-1.2</ele><time>2022-03-20T08:33:56.000Z</time></trkpt><trkpt lon="5.849876" lat="51.105728"><ele>-1.6</ele><time>2022-03-20T08:33:57.000Z</time></trkpt><trkpt lon="5.849929" lat="51.105807"><ele>-1.8</ele><time>2022-03-20T08:33:58.000Z</time></trkpt><trkpt lon="5.849991" lat="51.105888"><ele>-2.2</ele><time>2022-03-20T08:33:59.000Z</time></trkpt><trkpt lon="5.850057" lat="51.105969"><ele>-2.2</ele><time>2022-03-20T08:34:00.000Z</time></trkpt><trkpt lon="5.850123" lat="51.106049"><ele>-2.6</ele><time>2022-03-20T08:34:01.000Z</time></trkpt><trkpt lon="5.850188" lat="51.106129"><ele>-3</ele><time>2022-03-20T08:34:02.000Z</time></trkpt><trkpt lon="5.850249" lat="51.106206"><ele>-3</ele><time>2022-03-20T08:34:03.000Z</time></trkpt><trkpt lon="5.850308" lat="51.10628"><ele>-3.2</ele><time>2022-03-20T08:34:04.000Z</time></trkpt><trkpt lon="5.850364" lat="51.106349"><ele>-3.4</ele><time>2022-03-20T08:34:05.000Z</time></trkpt><trkpt lon="5.850418" lat="51.106418"><ele>-3.6</ele><time>2022-03-20T08:34:06.000Z</time></trkpt><trkpt lon="5.850483" lat="51.106474"><ele>-4</ele><time>2022-03-20T08:34:07.000Z</time></trkpt><trkpt lon="5.850556" lat="51.106525"><ele>-4.2</ele><time>2022-03-20T08:34:08.000Z</time></trkpt><trkpt lon="5.850634" lat="51.106569"><ele>-4.6</ele><time>2022-03-20T08:34:09.000Z</time></trkpt><trkpt lon="5.850718" lat="51.106602"><ele>-5.2</ele><time>2022-03-20T08:34:10.000Z</time></trkpt><trkpt lon="5.850814" lat="51.106621"><ele>-5.6</ele><time>2022-03-20T08:34:11.000Z</time></trkpt><trkpt lon="5.85092" lat="51.106625"><ele>-6</ele><time>2022-03-20T08:34:12.000Z</time></trkpt><trkpt lon="5.851028" lat="51.106613"><ele>-6.2</ele><time>2022-03-20T08:34:13.000Z</time></trkpt><trkpt lon="5.851138" lat="51.106589"><ele>-6.6</ele><time>2022-03-20T08:34:14.000Z</time></trkpt><trkpt lon="5.851241" lat="51.106559"><ele>-6.8</ele><time>2022-03-20T08:34:15.000Z</time></trkpt><trkpt lon="5.851339" lat="51.106526"><ele>-7.2</ele><time>2022-03-20T08:34:16.000Z</time></trkpt><trkpt lon="5.851435" lat="51.106489"><ele>-7.6</ele><time>2022-03-20T08:34:17.000Z</time></trkpt><trkpt lon="5.851531" lat="51.10645"><ele>-8</ele><time>2022-03-20T08:34:18.000Z</time></trkpt><trkpt lon="5.851624" lat="51.106413"><ele>-8.4</ele><time>2022-03-20T08:34:19.000Z</time></trkpt><trkpt lon="5.851716" lat="51.10638"><ele>-8.6</ele><time>2022-03-20T08:34:20.000Z</time></trkpt><trkpt lon="5.851805" lat="51.106347"><ele>-8.8</ele><time>2022-03-20T08:34:21.000Z</time></trkpt><trkpt lon="5.851888" lat="51.106318"><ele>-8.8</ele><time>2022-03-20T08:34:22.000Z</time></trkpt><trkpt lon="5.851971" lat="51.106286"><ele>-8.8</ele><time>2022-03-20T08:34:23.000Z</time></trkpt><trkpt lon="5.852051" lat="51.106251"><ele>-9</ele><time>2022-03-20T08:34:24.000Z</time></trkpt><trkpt lon="5.852128" lat="51.106214"><ele>-9</ele><time>2022-03-20T08:34:25.000Z</time></trkpt><trkpt lon="5.852193" lat="51.106173"><ele>-9</ele><time>2022-03-20T08:34:26.000Z</time></trkpt><trkpt lon="5.852248" lat="51.106128"><ele>-9</ele><time>2022-03-20T08:34:27.000Z</time></trkpt><trkpt lon="5.852288" lat="51.10608"><ele>-8.8</ele><time>2022-03-20T08:34:28.000Z</time></trkpt><trkpt lon="5.852312" lat="51.106027"><ele>-8.8</ele><time>2022-03-20T08:34:29.000Z</time></trkpt><trkpt lon="5.85232" lat="51.105976"><ele>-8.8</ele><time>2022-03-20T08:34:30.000Z</time></trkpt><trkpt lon="5.852322" lat="51.105924"><ele>-8.8</ele><time>2022-03-20T08:34:31.000Z</time></trkpt><trkpt lon="5.852332" lat="51.105876"><ele>-8.8</ele><time>2022-03-20T08:34:32.000Z</time></trkpt><trkpt lon="5.852372" lat="51.105842"><ele>-8.8</ele><time>2022-03-20T08:34:33.000Z</time></trkpt><trkpt lon="5.852438" lat="51.105814"><ele>-8.8</ele><time>2022-03-20T08:34:34.000Z</time></trkpt><trkpt lon="5.852519" lat="51.105797"><ele>-8.8</ele><time>2022-03-20T08:34:35.000Z</time></trkpt><trkpt lon="5.852601" lat="51.105793"><ele>-8.8</ele><time>2022-03-20T08:34:36.000Z</time></trkpt><trkpt lon="5.852676" lat="51.105807"><ele>-8.8</ele><time>2022-03-20T08:34:37.000Z</time></trkpt><trkpt lon="5.852747" lat="51.105833"><ele>-8.8</ele><time>2022-03-20T08:34:38.000Z</time></trkpt><trkpt lon="5.852816" lat="51.105856"><ele>-8.8</ele><time>2022-03-20T08:34:39.000Z</time></trkpt><trkpt lon="5.852885" lat="51.10587"><ele>-8.8</ele><time>2022-03-20T08:34:40.000Z</time></trkpt><trkpt lon="5.852952" lat="51.105876"><ele>-8.8</ele><time>2022-03-20T08:34:41.000Z</time></trkpt><trkpt lon="5.853016" lat="51.10588"><ele>-8.8</ele><time>2022-03-20T08:34:42.000Z</time></trkpt><trkpt lon="5.853068" lat="51.105889"><ele>-8.8</ele><time>2022-03-20T08:34:43.000Z</time></trkpt><trkpt lon="5.853109" lat="51.105913"><ele>-8.8</ele><time>2022-03-20T08:34:44.000Z</time></trkpt><trkpt lon="5.853142" lat="51.105951"><ele>-9</ele><time>2022-03-20T08:34:45.000Z</time></trkpt><trkpt lon="5.853174" lat="51.105996"><ele>-9</ele><time>2022-03-20T08:34:46.000Z</time></trkpt><trkpt lon="5.853206" lat="51.106039"><ele>-9</ele><time>2022-03-20T08:34:47.000Z</time></trkpt><trkpt lon="5.853229" lat="51.106081"><ele>-8.8</ele><time>2022-03-20T08:34:48.000Z</time></trkpt><trkpt lon="5.853236" lat="51.106117"><ele>-8.8</ele><time>2022-03-20T08:34:49.000Z</time></trkpt><trkpt lon="5.853224" lat="51.106154"><ele>-8.8</ele><time>2022-03-20T08:34:50.000Z</time></trkpt><trkpt lon="5.853204" lat="51.106192"><ele>-8.8</ele><time>2022-03-20T08:34:51.000Z</time></trkpt><trkpt lon="5.853184" lat="51.106233"><ele>-9</ele><time>2022-03-20T08:34:52.000Z</time></trkpt><trkpt lon="5.853175" lat="51.106275"><ele>-9</ele><time>2022-03-20T08:34:53.000Z</time></trkpt><trkpt lon="5.853177" lat="51.106317"><ele>-9</ele><time>2022-03-20T08:34:54.000Z</time></trkpt><trkpt lon="5.853189" lat="51.106358"><ele>-9</ele><time>2022-03-20T08:34:55.000Z</time></trkpt><trkpt lon="5.85322" lat="51.106395"><ele>-9</ele><time>2022-03-20T08:34:56.000Z</time></trkpt><trkpt lon="5.853274" lat="51.106421"><ele>-9</ele><time>2022-03-20T08:34:57.000Z</time></trkpt><trkpt lon="5.853343" lat="51.106438"><ele>-9</ele><time>2022-03-20T08:34:58.000Z</time></trkpt><trkpt lon="5.853421" lat="51.10645"><ele>-9.2</ele><time>2022-03-20T08:34:59.000Z</time></trkpt><trkpt lon="5.853502" lat="51.106465"><ele>-9.2</ele><time>2022-03-20T08:35:00.000Z</time></trkpt><trkpt lon="5.853587" lat="51.106486"><ele>-9.2</ele><time>2022-03-20T08:35:01.000Z</time></trkpt><trkpt lon="5.853672" lat="51.106509"><ele>-9.2</ele><time>2022-03-20T08:35:02.000Z</time></trkpt><trkpt lon="5.853756" lat="51.10654"><ele>-9.4</ele><time>2022-03-20T08:35:03.000Z</time></trkpt><trkpt lon="5.853845" lat="51.106571"><ele>-9.4</ele><time>2022-03-20T08:35:04.000Z</time></trkpt><trkpt lon="5.853932" lat="51.106608"><ele>-9.6</ele><time>2022-03-20T08:35:05.000Z</time></trkpt><trkpt lon="5.854015" lat="51.10664"><ele>-9.6</ele><time>2022-03-20T08:35:06.000Z</time></trkpt><trkpt lon="5.854096" lat="51.106673"><ele>-9.6</ele><time>2022-03-20T08:35:07.000Z</time></trkpt><trkpt lon="5.854179" lat="51.106711"><ele>-9.6</ele><time>2022-03-20T08:35:08.000Z</time></trkpt><trkpt lon="5.854262" lat="51.106749"><ele>-9.8</ele><time>2022-03-20T08:35:09.000Z</time></trkpt><trkpt lon="5.854347" lat="51.106787"><ele>-9.8</ele><time>2022-03-20T08:35:10.000Z</time></trkpt><trkpt lon="5.854428" lat="51.106825"><ele>-10</ele><time>2022-03-20T08:35:11.000Z</time></trkpt><trkpt lon="5.854508" lat="51.106864"><ele>-10</ele><time>2022-03-20T08:35:12.000Z</time></trkpt><trkpt lon="5.854587" lat="51.106902"><ele>-9.8</ele><time>2022-03-20T08:35:13.000Z</time></trkpt><trkpt lon="5.854664" lat="51.10694"><ele>-10</ele><time>2022-03-20T08:35:14.000Z</time></trkpt><trkpt lon="5.854737" lat="51.106978"><ele>-10.2</ele><time>2022-03-20T08:35:15.000Z</time></trkpt><trkpt lon="5.85481" lat="51.107016"><ele>-10.2</ele><time>2022-03-20T08:35:16.000Z</time></trkpt><trkpt lon="5.854885" lat="51.107053"><ele>-10.4</ele><time>2022-03-20T08:35:17.000Z</time></trkpt><trkpt lon="5.854967" lat="51.107092"><ele>-10.4</ele><time>2022-03-20T08:35:18.000Z</time></trkpt><trkpt lon="5.855047" lat="51.107127"><ele>-10.4</ele><time>2022-03-20T08:35:19.000Z</time></trkpt><trkpt lon="5.85513" lat="51.107165"><ele>-10.4</ele><time>2022-03-20T08:35:20.000Z</time></trkpt><trkpt lon="5.855211" lat="51.107203"><ele>-10.4</ele><time>2022-03-20T08:35:21.000Z</time></trkpt><trkpt lon="5.85529" lat="51.107241"><ele>-10.4</ele><time>2022-03-20T08:35:22.000Z</time></trkpt><trkpt lon="5.855369" lat="51.107279"><ele>-10.4</ele><time>2022-03-20T08:35:23.000Z</time></trkpt><trkpt lon="5.855445" lat="51.107314"><ele>-10.4</ele><time>2022-03-20T08:35:24.000Z</time></trkpt><trkpt lon="5.855521" lat="51.107352"><ele>-10.6</ele><time>2022-03-20T08:35:25.000Z</time></trkpt><trkpt lon="5.855591" lat="51.107387"><ele>-10.6</ele><time>2022-03-20T08:35:26.000Z</time></trkpt><trkpt lon="5.855658" lat="51.107421"><ele>-10.6</ele><time>2022-03-20T08:35:27.000Z</time></trkpt><trkpt lon="5.855724" lat="51.107453"><ele>-10.6</ele><time>2022-03-20T08:35:28.000Z</time></trkpt><trkpt lon="5.855791" lat="51.107489"><ele>-10.6</ele><time>2022-03-20T08:35:29.000Z</time></trkpt><trkpt lon="5.855864" lat="51.107522"><ele>-10.6</ele><time>2022-03-20T08:35:30.000Z</time></trkpt><trkpt lon="5.855942" lat="51.107555"><ele>-10.4</ele><time>2022-03-20T08:35:31.000Z</time></trkpt><trkpt lon="5.856022" lat="51.107589"><ele>-10.4</ele><time>2022-03-20T08:35:32.000Z</time></trkpt><trkpt lon="5.856107" lat="51.107623"><ele>-10.4</ele><time>2022-03-20T08:35:33.000Z</time></trkpt><trkpt lon="5.856191" lat="51.107661"><ele>-10.4</ele><time>2022-03-20T08:35:34.000Z</time></trkpt><trkpt lon="5.856276" lat="51.107696"><ele>-10.6</ele><time>2022-03-20T08:35:35.000Z</time></trkpt><trkpt lon="5.856358" lat="51.107733"><ele>-10.8</ele><time>2022-03-20T08:35:36.000Z</time></trkpt><trkpt lon="5.856441" lat="51.107771"><ele>-11</ele><time>2022-03-20T08:35:37.000Z</time></trkpt><trkpt lon="5.856523" lat="51.107807"><ele>-11</ele><time>2022-03-20T08:35:38.000Z</time></trkpt><trkpt lon="5.856606" lat="51.107847"><ele>-11</ele><time>2022-03-20T08:35:39.000Z</time></trkpt><trkpt lon="5.856689" lat="51.107883"><ele>-11</ele><time>2022-03-20T08:35:40.000Z</time></trkpt><trkpt lon="5.856773" lat="51.107917"><ele>-11</ele><time>2022-03-20T08:35:41.000Z</time></trkpt><trkpt lon="5.856855" lat="51.107954"><ele>-11</ele><time>2022-03-20T08:35:42.000Z</time></trkpt><trkpt lon="5.856936" lat="51.107993"><ele>-10.8</ele><time>2022-03-20T08:35:43.000Z</time></trkpt><trkpt lon="5.857014" lat="51.10803"><ele>-10.6</ele><time>2022-03-20T08:35:44.000Z</time></trkpt><trkpt lon="5.857093" lat="51.108072"><ele>-10.6</ele><time>2022-03-20T08:35:45.000Z</time></trkpt><trkpt lon="5.857171" lat="51.108111"><ele>-10.4</ele><time>2022-03-20T08:35:46.000Z</time></trkpt><trkpt lon="5.85725" lat="51.108152"><ele>-10.4</ele><time>2022-03-20T08:35:47.000Z</time></trkpt><trkpt lon="5.857326" lat="51.108193"><ele>-10.4</ele><time>2022-03-20T08:35:48.000Z</time></trkpt><trkpt lon="5.857403" lat="51.108235"><ele>-10.4</ele><time>2022-03-20T08:35:49.000Z</time></trkpt><trkpt lon="5.857475" lat="51.108279"><ele>-10.4</ele><time>2022-03-20T08:35:50.000Z</time></trkpt><trkpt lon="5.857552" lat="51.108322"><ele>-10.4</ele><time>2022-03-20T08:35:51.000Z</time></trkpt><trkpt lon="5.857632" lat="51.108368"><ele>-10.2</ele><time>2022-03-20T08:35:52.000Z</time></trkpt><trkpt lon="5.857711" lat="51.108411"><ele>-10.2</ele><time>2022-03-20T08:35:53.000Z</time></trkpt><trkpt lon="5.857789" lat="51.108453"><ele>-10.4</ele><time>2022-03-20T08:35:54.000Z</time></trkpt><trkpt lon="5.857868" lat="51.108492"><ele>-10.6</ele><time>2022-03-20T08:35:55.000Z</time></trkpt><trkpt lon="5.857945" lat="51.108536"><ele>-10.8</ele><time>2022-03-20T08:35:56.000Z</time></trkpt><trkpt lon="5.858023" lat="51.108582"><ele>-10.8</ele><time>2022-03-20T08:35:57.000Z</time></trkpt><trkpt lon="5.8581" lat="51.108625"><ele>-10.8</ele><time>2022-03-20T08:35:58.000Z</time></trkpt><trkpt lon="5.858176" lat="51.108673"><ele>-10.8</ele><time>2022-03-20T08:35:59.000Z</time></trkpt><trkpt lon="5.858252" lat="51.10872"><ele>-10.6</ele><time>2022-03-20T08:36:00.000Z</time></trkpt><trkpt lon="5.858329" lat="51.108765"><ele>-10.8</ele><time>2022-03-20T08:36:01.000Z</time></trkpt><trkpt lon="5.858407" lat="51.108811"><ele>-10.6</ele><time>2022-03-20T08:36:02.000Z</time></trkpt><trkpt lon="5.858485" lat="51.108857"><ele>-10.6</ele><time>2022-03-20T08:36:03.000Z</time></trkpt><trkpt lon="5.858566" lat="51.108903"><ele>-10.8</ele><time>2022-03-20T08:36:04.000Z</time></trkpt><trkpt lon="5.858644" lat="51.108948"><ele>-11</ele><time>2022-03-20T08:36:05.000Z</time></trkpt><trkpt lon="5.858722" lat="51.108994"><ele>-11</ele><time>2022-03-20T08:36:06.000Z</time></trkpt><trkpt lon="5.858798" lat="51.10904"><ele>-11</ele><time>2022-03-20T08:36:07.000Z</time></trkpt><trkpt lon="5.858871" lat="51.109086"><ele>-11</ele><time>2022-03-20T08:36:08.000Z</time></trkpt><trkpt lon="5.858942" lat="51.109132"><ele>-10.8</ele><time>2022-03-20T08:36:09.000Z</time></trkpt><trkpt lon="5.859013" lat="51.109181"><ele>-10.8</ele><time>2022-03-20T08:36:10.000Z</time></trkpt><trkpt lon="5.859082" lat="51.10923"><ele>-10.6</ele><time>2022-03-20T08:36:11.000Z</time></trkpt><trkpt lon="5.859148" lat="51.109279"><ele>-10.6</ele><time>2022-03-20T08:36:12.000Z</time></trkpt><trkpt lon="5.859212" lat="51.109328"><ele>-10.6</ele><time>2022-03-20T08:36:13.000Z</time></trkpt><trkpt lon="5.859273" lat="51.109381"><ele>-10.6</ele><time>2022-03-20T08:36:14.000Z</time></trkpt><trkpt lon="5.859328" lat="51.109434"><ele>-10.6</ele><time>2022-03-20T08:36:15.000Z</time></trkpt><trkpt lon="5.859381" lat="51.109491"><ele>-10.8</ele><time>2022-03-20T08:36:16.000Z</time></trkpt><trkpt lon="5.859428" lat="51.109544"><ele>-10.8</ele><time>2022-03-20T08:36:17.000Z</time></trkpt><trkpt lon="5.859474" lat="51.109604"><ele>-10.8</ele><time>2022-03-20T08:36:18.000Z</time></trkpt><trkpt lon="5.859515" lat="51.109666"><ele>-10.8</ele><time>2022-03-20T08:36:19.000Z</time></trkpt><trkpt lon="5.859553" lat="51.109724"><ele>-10.8</ele><time>2022-03-20T08:36:20.000Z</time></trkpt><trkpt lon="5.85959" lat="51.109784"><ele>-10.8</ele><time>2022-03-20T08:36:21.000Z</time></trkpt><trkpt lon="5.859625" lat="51.109848"><ele>-10.8</ele><time>2022-03-20T08:36:22.000Z</time></trkpt><trkpt lon="5.859656" lat="51.10991"><ele>-10.6</ele><time>2022-03-20T08:36:23.000Z</time></trkpt><trkpt lon="5.859687" lat="51.109974"><ele>-10.6</ele><time>2022-03-20T08:36:24.000Z</time></trkpt><trkpt lon="5.859717" lat="51.110036"><ele>-10.6</ele><time>2022-03-20T08:36:25.000Z</time></trkpt><trkpt lon="5.859749" lat="51.110094"><ele>-10.4</ele><time>2022-03-20T08:36:26.000Z</time></trkpt><trkpt lon="5.859782" lat="51.110154"><ele>-10.4</ele><time>2022-03-20T08:36:27.000Z</time></trkpt><trkpt lon="5.859814" lat="51.110218"><ele>-10.2</ele><time>2022-03-20T08:36:28.000Z</time></trkpt><trkpt lon="5.859846" lat="51.11028"><ele>-10.2</ele><time>2022-03-20T08:36:29.000Z</time></trkpt><trkpt lon="5.859879" lat="51.110341"><ele>-10.2</ele><time>2022-03-20T08:36:30.000Z</time></trkpt><trkpt lon="5.859912" lat="51.110405"><ele>-10.2</ele><time>2022-03-20T08:36:31.000Z</time></trkpt><trkpt lon="5.859945" lat="51.110467"><ele>-10</ele><time>2022-03-20T08:36:32.000Z</time></trkpt><trkpt lon="5.85998" lat="51.110528"><ele>-10</ele><time>2022-03-20T08:36:33.000Z</time></trkpt><trkpt lon="5.860014" lat="51.110589"><ele>-10.2</ele><time>2022-03-20T08:36:34.000Z</time></trkpt><trkpt lon="5.860048" lat="51.11065"><ele>-10.2</ele><time>2022-03-20T08:36:35.000Z</time></trkpt><trkpt lon="5.860081" lat="51.110708"><ele>-10</ele><time>2022-03-20T08:36:36.000Z</time></trkpt><trkpt lon="5.860112" lat="51.110768"><ele>-10</ele><time>2022-03-20T08:36:37.000Z</time></trkpt><trkpt lon="5.860144" lat="51.110829"><ele>-10</ele><time>2022-03-20T08:36:38.000Z</time></trkpt><trkpt lon="5.860174" lat="51.110888"><ele>-10</ele><time>2022-03-20T08:36:39.000Z</time></trkpt><trkpt lon="5.860206" lat="51.110951"><ele>-10</ele><time>2022-03-20T08:36:40.000Z</time></trkpt><trkpt lon="5.860236" lat="51.111013"><ele>-10</ele><time>2022-03-20T08:36:41.000Z</time></trkpt><trkpt lon="5.860266" lat="51.111073"><ele>-10</ele><time>2022-03-20T08:36:42.000Z</time></trkpt><trkpt lon="5.860297" lat="51.111131"><ele>-10</ele><time>2022-03-20T08:36:43.000Z</time></trkpt><trkpt lon="5.860329" lat="51.111194"><ele>-10</ele><time>2022-03-20T08:36:44.000Z</time></trkpt><trkpt lon="5.860359" lat="51.111259"><ele>-10</ele><time>2022-03-20T08:36:45.000Z</time></trkpt><trkpt lon="5.860387" lat="51.11132"><ele>-10</ele><time>2022-03-20T08:36:46.000Z</time></trkpt><trkpt lon="5.860412" lat="51.111384"><ele>-10</ele><time>2022-03-20T08:36:47.000Z</time></trkpt><trkpt lon="5.860434" lat="51.111453"><ele>-10</ele><time>2022-03-20T08:36:48.000Z</time></trkpt><trkpt lon="5.860451" lat="51.111519"><ele>-10</ele><time>2022-03-20T08:36:49.000Z</time></trkpt><trkpt lon="5.860469" lat="51.111587"><ele>-10</ele><time>2022-03-20T08:36:50.000Z</time></trkpt><trkpt lon="5.860486" lat="51.111653"><ele>-10.2</ele><time>2022-03-20T08:36:51.000Z</time></trkpt><trkpt lon="5.860504" lat="51.11172"><ele>-10.2</ele><time>2022-03-20T08:36:52.000Z</time></trkpt><trkpt lon="5.860522" lat="51.111786"><ele>-10.2</ele><time>2022-03-20T08:36:53.000Z</time></trkpt><trkpt lon="5.860539" lat="51.111854"><ele>-10.2</ele><time>2022-03-20T08:36:54.000Z</time></trkpt><trkpt lon="5.860558" lat="51.111923"><ele>-10.4</ele><time>2022-03-20T08:36:55.000Z</time></trkpt><trkpt lon="5.860575" lat="51.111987"><ele>-10.4</ele><time>2022-03-20T08:36:56.000Z</time></trkpt><trkpt lon="5.860594" lat="51.112056"><ele>-10.6</ele><time>2022-03-20T08:36:57.000Z</time></trkpt><trkpt lon="5.860612" lat="51.112124"><ele>-10.6</ele><time>2022-03-20T08:36:58.000Z</time></trkpt><trkpt lon="5.86063" lat="51.11219"><ele>-10.8</ele><time>2022-03-20T08:36:59.000Z</time></trkpt><trkpt lon="5.860648" lat="51.112255"><ele>-10.8</ele><time>2022-03-20T08:37:00.000Z</time></trkpt><trkpt lon="5.860666" lat="51.112323"><ele>-11</ele><time>2022-03-20T08:37:01.000Z</time></trkpt><trkpt lon="5.860681" lat="51.112389"><ele>-11</ele><time>2022-03-20T08:37:02.000Z</time></trkpt><trkpt lon="5.860698" lat="51.112453"><ele>-11.2</ele><time>2022-03-20T08:37:03.000Z</time></trkpt><trkpt lon="5.860716" lat="51.112519"><ele>-11.2</ele><time>2022-03-20T08:37:04.000Z</time></trkpt><trkpt lon="5.860734" lat="51.112584"><ele>-11.2</ele><time>2022-03-20T08:37:05.000Z</time></trkpt><trkpt lon="5.860754" lat="51.112645"><ele>-11</ele><time>2022-03-20T08:37:06.000Z</time></trkpt><trkpt lon="5.860773" lat="51.112705"><ele>-10.8</ele><time>2022-03-20T08:37:07.000Z</time></trkpt><trkpt lon="5.860795" lat="51.11277"><ele>-10.8</ele><time>2022-03-20T08:37:08.000Z</time></trkpt><trkpt lon="5.860818" lat="51.112835"><ele>-10.8</ele><time>2022-03-20T08:37:09.000Z</time></trkpt><trkpt lon="5.860842" lat="51.112899"><ele>-10.8</ele><time>2022-03-20T08:37:10.000Z</time></trkpt><trkpt lon="5.86087" lat="51.112965"><ele>-10.8</ele><time>2022-03-20T08:37:11.000Z</time></trkpt><trkpt lon="5.860901" lat="51.113024"><ele>-10.6</ele><time>2022-03-20T08:37:12.000Z</time></trkpt><trkpt lon="5.860933" lat="51.113082"><ele>-10.4</ele><time>2022-03-20T08:37:13.000Z</time></trkpt><trkpt lon="5.860968" lat="51.113141"><ele>-10.4</ele><time>2022-03-20T08:37:14.000Z</time></trkpt><trkpt lon="5.861007" lat="51.113199"><ele>-10.6</ele><time>2022-03-20T08:37:15.000Z</time></trkpt><trkpt lon="5.861048" lat="51.11326"><ele>-10.8</ele><time>2022-03-20T08:37:16.000Z</time></trkpt><trkpt lon="5.861086" lat="51.113324"><ele>-10.8</ele><time>2022-03-20T08:37:17.000Z</time></trkpt><trkpt lon="5.861124" lat="51.113385"><ele>-10.6</ele><time>2022-03-20T08:37:18.000Z</time></trkpt><trkpt lon="5.861161" lat="51.113443"><ele>-10.6</ele><time>2022-03-20T08:37:19.000Z</time></trkpt><trkpt lon="5.861198" lat="51.1135"><ele>-10.6</ele><time>2022-03-20T08:37:20.000Z</time></trkpt><trkpt lon="5.861233" lat="51.113557"><ele>-10.6</ele><time>2022-03-20T08:37:21.000Z</time></trkpt><trkpt lon="5.861273" lat="51.113615"><ele>-10.4</ele><time>2022-03-20T08:37:22.000Z</time></trkpt><trkpt lon="5.861312" lat="51.113672"><ele>-10.4</ele><time>2022-03-20T08:37:23.000Z</time></trkpt><trkpt lon="5.861355" lat="51.113729"><ele>-10.4</ele><time>2022-03-20T08:37:24.000Z</time></trkpt><trkpt lon="5.861401" lat="51.113784"><ele>-10.4</ele><time>2022-03-20T08:37:25.000Z</time></trkpt><trkpt lon="5.861448" lat="51.113837"><ele>-10.4</ele><time>2022-03-20T08:37:26.000Z</time></trkpt><trkpt lon="5.861498" lat="51.113893"><ele>-10.4</ele><time>2022-03-20T08:37:27.000Z</time></trkpt><trkpt lon="5.86155" lat="51.11395"><ele>-10.6</ele><time>2022-03-20T08:37:28.000Z</time></trkpt><trkpt lon="5.861607" lat="51.114007"><ele>-10.6</ele><time>2022-03-20T08:37:29.000Z</time></trkpt><trkpt lon="5.861669" lat="51.114064"><ele>-10.8</ele><time>2022-03-20T08:37:30.000Z</time></trkpt><trkpt lon="5.861733" lat="51.114122"><ele>-10.8</ele><time>2022-03-20T08:37:31.000Z</time></trkpt><trkpt lon="5.861794" lat="51.114182"><ele>-10.8</ele><time>2022-03-20T08:37:32.000Z</time></trkpt><trkpt lon="5.861846" lat="51.114243"><ele>-10.6</ele><time>2022-03-20T08:37:33.000Z</time></trkpt><trkpt lon="5.86189" lat="51.114305"><ele>-10.6</ele><time>2022-03-20T08:37:34.000Z</time></trkpt><trkpt lon="5.861932" lat="51.114371"><ele>-10.4</ele><time>2022-03-20T08:37:35.000Z</time></trkpt><trkpt lon="5.861975" lat="51.114438"><ele>-10.6</ele><time>2022-03-20T08:37:36.000Z</time></trkpt><trkpt lon="5.862023" lat="51.114499"><ele>-10.8</ele><time>2022-03-20T08:37:37.000Z</time></trkpt><trkpt lon="5.862075" lat="51.114563"><ele>-11</ele><time>2022-03-20T08:37:38.000Z</time></trkpt><trkpt lon="5.862127" lat="51.114622"><ele>-11</ele><time>2022-03-20T08:37:39.000Z</time></trkpt><trkpt lon="5.862179" lat="51.11468"><ele>-11</ele><time>2022-03-20T08:37:40.000Z</time></trkpt><trkpt lon="5.862232" lat="51.114739"><ele>-11</ele><time>2022-03-20T08:37:41.000Z</time></trkpt><trkpt lon="5.862283" lat="51.1148"><ele>-11.2</ele><time>2022-03-20T08:37:42.000Z</time></trkpt><trkpt lon="5.862332" lat="51.114864"><ele>-11.4</ele><time>2022-03-20T08:37:43.000Z</time></trkpt><trkpt lon="5.862382" lat="51.114926"><ele>-11.6</ele><time>2022-03-20T08:37:44.000Z</time></trkpt><trkpt lon="5.862426" lat="51.114987"><ele>-11.6</ele><time>2022-03-20T08:37:45.000Z</time></trkpt><trkpt lon="5.86247" lat="51.115048"><ele>-11.6</ele><time>2022-03-20T08:37:46.000Z</time></trkpt><trkpt lon="5.862509" lat="51.115109"><ele>-11.8</ele><time>2022-03-20T08:37:47.000Z</time></trkpt><trkpt lon="5.862542" lat="51.11517"><ele>-11.8</ele><time>2022-03-20T08:37:48.000Z</time></trkpt><trkpt lon="5.862572" lat="51.115237"><ele>-11.6</ele><time>2022-03-20T08:37:49.000Z</time></trkpt><trkpt lon="5.862596" lat="51.115301"><ele>-11.4</ele><time>2022-03-20T08:37:50.000Z</time></trkpt><trkpt lon="5.862615" lat="51.11537"><ele>-11.2</ele><time>2022-03-20T08:37:51.000Z</time></trkpt><trkpt lon="5.862625" lat="51.115436"><ele>-10.8</ele><time>2022-03-20T08:37:52.000Z</time></trkpt><trkpt lon="5.862625" lat="51.115501"><ele>-10.6</ele><time>2022-03-20T08:37:53.000Z</time></trkpt><trkpt lon="5.862616" lat="51.115566"><ele>-10.4</ele><time>2022-03-20T08:37:54.000Z</time></trkpt><trkpt lon="5.862598" lat="51.115628"><ele>-10.2</ele><time>2022-03-20T08:37:55.000Z</time></trkpt><trkpt lon="5.862575" lat="51.115689"><ele>-10</ele><time>2022-03-20T08:37:56.000Z</time></trkpt><trkpt lon="5.862548" lat="51.115752"><ele>-9.8</ele><time>2022-03-20T08:37:57.000Z</time></trkpt><trkpt lon="5.862515" lat="51.115815"><ele>-9.8</ele><time>2022-03-20T08:37:58.000Z</time></trkpt><trkpt lon="5.862477" lat="51.115876"><ele>-9.6</ele><time>2022-03-20T08:37:59.000Z</time></trkpt><trkpt lon="5.862435" lat="51.11594"><ele>-9.4</ele><time>2022-03-20T08:38:00.000Z</time></trkpt><trkpt lon="5.862388" lat="51.116005"><ele>-9.4</ele><time>2022-03-20T08:38:01.000Z</time></trkpt><trkpt lon="5.86234" lat="51.116066"><ele>-9.4</ele><time>2022-03-20T08:38:02.000Z</time></trkpt><trkpt lon="5.862292" lat="51.116127"><ele>-9.4</ele><time>2022-03-20T08:38:03.000Z</time></trkpt><trkpt lon="5.862242" lat="51.116188"><ele>-9.4</ele><time>2022-03-20T08:38:04.000Z</time></trkpt><trkpt lon="5.862194" lat="51.11625"><ele>-9.6</ele><time>2022-03-20T08:38:05.000Z</time></trkpt><trkpt lon="5.862149" lat="51.116311"><ele>-9.6</ele><time>2022-03-20T08:38:06.000Z</time></trkpt><trkpt lon="5.862111" lat="51.116375"><ele>-10</ele><time>2022-03-20T08:38:07.000Z</time></trkpt><trkpt lon="5.862088" lat="51.116442"><ele>-10.2</ele><time>2022-03-20T08:38:08.000Z</time></trkpt><trkpt lon="5.862079" lat="51.116511"><ele>-10.4</ele><time>2022-03-20T08:38:09.000Z</time></trkpt><trkpt lon="5.862083" lat="51.11658"><ele>-10.6</ele><time>2022-03-20T08:38:10.000Z</time></trkpt><trkpt lon="5.86209" lat="51.116645"><ele>-10.8</ele><time>2022-03-20T08:38:11.000Z</time></trkpt><trkpt lon="5.862094" lat="51.116714"><ele>-10.8</ele><time>2022-03-20T08:38:12.000Z</time></trkpt><trkpt lon="5.862099" lat="51.116783"><ele>-10.8</ele><time>2022-03-20T08:38:13.000Z</time></trkpt><trkpt lon="5.862108" lat="51.116851"><ele>-11</ele><time>2022-03-20T08:38:14.000Z</time></trkpt><trkpt lon="5.862118" lat="51.116922"><ele>-11</ele><time>2022-03-20T08:38:15.000Z</time></trkpt><trkpt lon="5.86213" lat="51.116992"><ele>-11.2</ele><time>2022-03-20T08:38:16.000Z</time></trkpt><trkpt lon="5.862147" lat="51.117064"><ele>-11.2</ele><time>2022-03-20T08:38:17.000Z</time></trkpt><trkpt lon="5.862167" lat="51.117136"><ele>-11.2</ele><time>2022-03-20T08:38:18.000Z</time></trkpt><trkpt lon="5.862187" lat="51.117206"><ele>-11.4</ele><time>2022-03-20T08:38:19.000Z</time></trkpt><trkpt lon="5.862207" lat="51.117277"><ele>-11.4</ele><time>2022-03-20T08:38:20.000Z</time></trkpt><trkpt lon="5.862227" lat="51.117347"><ele>-11.6</ele><time>2022-03-20T08:38:21.000Z</time></trkpt><trkpt lon="5.862248" lat="51.117416"><ele>-11.6</ele><time>2022-03-20T08:38:22.000Z</time></trkpt><trkpt lon="5.86227" lat="51.117487"><ele>-11.6</ele><time>2022-03-20T08:38:23.000Z</time></trkpt><trkpt lon="5.862289" lat="51.117557"><ele>-11.6</ele><time>2022-03-20T08:38:24.000Z</time></trkpt><trkpt lon="5.862307" lat="51.117624"><ele>-11.6</ele><time>2022-03-20T08:38:25.000Z</time></trkpt><trkpt lon="5.862324" lat="51.117696"><ele>-11.8</ele><time>2022-03-20T08:38:26.000Z</time></trkpt><trkpt lon="5.862342" lat="51.117769"><ele>-11.8</ele><time>2022-03-20T08:38:27.000Z</time></trkpt><trkpt lon="5.862362" lat="51.117839"><ele>-11.6</ele><time>2022-03-20T08:38:28.000Z</time></trkpt><trkpt lon="5.862382" lat="51.117907"><ele>-11.6</ele><time>2022-03-20T08:38:29.000Z</time></trkpt><trkpt lon="5.862402" lat="51.117978"><ele>-11.6</ele><time>2022-03-20T08:38:30.000Z</time></trkpt><trkpt lon="5.862421" lat="51.118049"><ele>-11.4</ele><time>2022-03-20T08:38:31.000Z</time></trkpt><trkpt lon="5.862439" lat="51.118118"><ele>-11.4</ele><time>2022-03-20T08:38:32.000Z</time></trkpt><trkpt lon="5.862456" lat="51.118183"><ele>-11.4</ele><time>2022-03-20T08:38:33.000Z</time></trkpt><trkpt lon="5.862472" lat="51.118249"><ele>-11.2</ele><time>2022-03-20T08:38:34.000Z</time></trkpt><trkpt lon="5.862491" lat="51.118322"><ele>-11.2</ele><time>2022-03-20T08:38:35.000Z</time></trkpt><trkpt lon="5.862509" lat="51.118392"><ele>-11.2</ele><time>2022-03-20T08:38:36.000Z</time></trkpt><trkpt lon="5.862526" lat="51.118461"><ele>-11</ele><time>2022-03-20T08:38:37.000Z</time></trkpt><trkpt lon="5.862543" lat="51.118527"><ele>-10.8</ele><time>2022-03-20T08:38:38.000Z</time></trkpt><trkpt lon="5.862559" lat="51.118594"><ele>-10.6</ele><time>2022-03-20T08:38:39.000Z</time></trkpt><trkpt lon="5.862578" lat="51.11866"><ele>-10.6</ele><time>2022-03-20T08:38:40.000Z</time></trkpt><trkpt lon="5.862601" lat="51.118726"><ele>-10.4</ele><time>2022-03-20T08:38:41.000Z</time></trkpt><trkpt lon="5.862624" lat="51.118793"><ele>-10.4</ele><time>2022-03-20T08:38:42.000Z</time></trkpt><trkpt lon="5.862648" lat="51.118856"><ele>-10.4</ele><time>2022-03-20T08:38:43.000Z</time></trkpt><trkpt lon="5.862676" lat="51.118922"><ele>-10.4</ele><time>2022-03-20T08:38:44.000Z</time></trkpt><trkpt lon="5.86271" lat="51.118985"><ele>-10.4</ele><time>2022-03-20T08:38:45.000Z</time></trkpt><trkpt lon="5.862749" lat="51.119046"><ele>-10.4</ele><time>2022-03-20T08:38:46.000Z</time></trkpt><trkpt lon="5.86279" lat="51.11911"><ele>-10.4</ele><time>2022-03-20T08:38:47.000Z</time></trkpt><trkpt lon="5.862834" lat="51.119175"><ele>-10.4</ele><time>2022-03-20T08:38:48.000Z</time></trkpt><trkpt lon="5.86288" lat="51.119237"><ele>-10.4</ele><time>2022-03-20T08:38:49.000Z</time></trkpt><trkpt lon="5.862922" lat="51.119296"><ele>-10.6</ele><time>2022-03-20T08:38:50.000Z</time></trkpt><trkpt lon="5.862967" lat="51.119355"><ele>-10.6</ele><time>2022-03-20T08:38:51.000Z</time></trkpt><trkpt lon="5.863017" lat="51.119414"><ele>-10.6</ele><time>2022-03-20T08:38:52.000Z</time></trkpt><trkpt lon="5.863071" lat="51.119471"><ele>-10.6</ele><time>2022-03-20T08:38:53.000Z</time></trkpt><trkpt lon="5.863128" lat="51.119528"><ele>-10.6</ele><time>2022-03-20T08:38:54.000Z</time></trkpt><trkpt lon="5.863187" lat="51.119585"><ele>-10.6</ele><time>2022-03-20T08:38:55.000Z</time></trkpt><trkpt lon="5.863246" lat="51.119642"><ele>-10.6</ele><time>2022-03-20T08:38:56.000Z</time></trkpt><trkpt lon="5.863306" lat="51.119702"><ele>-10.6</ele><time>2022-03-20T08:38:57.000Z</time></trkpt><trkpt lon="5.863366" lat="51.119758"><ele>-10.6</ele><time>2022-03-20T08:38:58.000Z</time></trkpt><trkpt lon="5.863423" lat="51.119817"><ele>-10.6</ele><time>2022-03-20T08:38:59.000Z</time></trkpt><trkpt lon="5.863478" lat="51.119877"><ele>-10.6</ele><time>2022-03-20T08:39:00.000Z</time></trkpt><trkpt lon="5.86353" lat="51.119939"><ele>-10.6</ele><time>2022-03-20T08:39:01.000Z</time></trkpt><trkpt lon="5.863578" lat="51.120002"><ele>-10.6</ele><time>2022-03-20T08:39:02.000Z</time></trkpt><trkpt lon="5.863625" lat="51.120067"><ele>-10.4</ele><time>2022-03-20T08:39:03.000Z</time></trkpt><trkpt lon="5.86367" lat="51.120131"><ele>-10.4</ele><time>2022-03-20T08:39:04.000Z</time></trkpt><trkpt lon="5.863715" lat="51.120197"><ele>-10.4</ele><time>2022-03-20T08:39:05.000Z</time></trkpt><trkpt lon="5.863758" lat="51.120263"><ele>-10.4</ele><time>2022-03-20T08:39:06.000Z</time></trkpt><trkpt lon="5.863805" lat="51.120327"><ele>-10.6</ele><time>2022-03-20T08:39:07.000Z</time></trkpt><trkpt lon="5.863855" lat="51.120392"><ele>-10.6</ele><time>2022-03-20T08:39:08.000Z</time></trkpt><trkpt lon="5.863913" lat="51.120454"><ele>-10.8</ele><time>2022-03-20T08:39:09.000Z</time></trkpt><trkpt lon="5.863982" lat="51.120515"><ele>-11</ele><time>2022-03-20T08:39:10.000Z</time></trkpt><trkpt lon="5.864066" lat="51.120567"><ele>-11.2</ele><time>2022-03-20T08:39:11.000Z</time></trkpt><trkpt lon="5.864161" lat="51.120617"><ele>-11.4</ele><time>2022-03-20T08:39:12.000Z</time></trkpt><trkpt lon="5.864259" lat="51.120657"><ele>-11.4</ele><time>2022-03-20T08:39:13.000Z</time></trkpt><trkpt lon="5.864357" lat="51.120698"><ele>-11.4</ele><time>2022-03-20T08:39:14.000Z</time></trkpt><trkpt lon="5.864456" lat="51.120737"><ele>-11.6</ele><time>2022-03-20T08:39:15.000Z</time></trkpt><trkpt lon="5.864553" lat="51.120779"><ele>-11.6</ele><time>2022-03-20T08:39:16.000Z</time></trkpt><trkpt lon="5.864647" lat="51.120818"><ele>-11.8</ele><time>2022-03-20T08:39:17.000Z</time></trkpt><trkpt lon="5.86474" lat="51.120859"><ele>-11.8</ele><time>2022-03-20T08:39:18.000Z</time></trkpt><trkpt lon="5.86483" lat="51.120898"><ele>-11.8</ele><time>2022-03-20T08:39:19.000Z</time></trkpt><trkpt lon="5.864919" lat="51.120939"><ele>-11.6</ele><time>2022-03-20T08:39:20.000Z</time></trkpt><trkpt lon="5.865008" lat="51.120975"><ele>-11.6</ele><time>2022-03-20T08:39:21.000Z</time></trkpt><trkpt lon="5.865097" lat="51.121015"><ele>-11.8</ele><time>2022-03-20T08:39:22.000Z</time></trkpt><trkpt lon="5.865186" lat="51.121054"><ele>-11.6</ele><time>2022-03-20T08:39:23.000Z</time></trkpt><trkpt lon="5.865273" lat="51.121092"><ele>-11.6</ele><time>2022-03-20T08:39:24.000Z</time></trkpt><trkpt lon="5.865359" lat="51.12113"><ele>-11.6</ele><time>2022-03-20T08:39:25.000Z</time></trkpt><trkpt lon="5.865446" lat="51.121165"><ele>-11.6</ele><time>2022-03-20T08:39:26.000Z</time></trkpt><trkpt lon="5.865534" lat="51.1212"><ele>-11.4</ele><time>2022-03-20T08:39:27.000Z</time></trkpt><trkpt lon="5.865624" lat="51.121232"><ele>-11.4</ele><time>2022-03-20T08:39:28.000Z</time></trkpt><trkpt lon="5.865715" lat="51.121262"><ele>-11.2</ele><time>2022-03-20T08:39:29.000Z</time></trkpt><trkpt lon="5.865809" lat="51.12129"><ele>-11</ele><time>2022-03-20T08:39:30.000Z</time></trkpt><trkpt lon="5.865905" lat="51.121316"><ele>-10.8</ele><time>2022-03-20T08:39:31.000Z</time></trkpt><trkpt lon="5.865998" lat="51.12134"><ele>-10.8</ele><time>2022-03-20T08:39:32.000Z</time></trkpt><trkpt lon="5.866089" lat="51.121363"><ele>-10.6</ele><time>2022-03-20T08:39:33.000Z</time></trkpt><trkpt lon="5.866182" lat="51.121386"><ele>-10.4</ele><time>2022-03-20T08:39:34.000Z</time></trkpt><trkpt lon="5.866273" lat="51.121406"><ele>-10.4</ele><time>2022-03-20T08:39:35.000Z</time></trkpt><trkpt lon="5.866363" lat="51.121428"><ele>-10.2</ele><time>2022-03-20T08:39:36.000Z</time></trkpt><trkpt lon="5.866455" lat="51.121448"><ele>-10.2</ele><time>2022-03-20T08:39:37.000Z</time></trkpt><trkpt lon="5.866551" lat="51.12147"><ele>-10</ele><time>2022-03-20T08:39:38.000Z</time></trkpt><trkpt lon="5.866648" lat="51.12149"><ele>-9.8</ele><time>2022-03-20T08:39:39.000Z</time></trkpt><trkpt lon="5.866746" lat="51.121509"><ele>-9.6</ele><time>2022-03-20T08:39:40.000Z</time></trkpt><trkpt lon="5.866844" lat="51.121522"><ele>-9.4</ele><time>2022-03-20T08:39:41.000Z</time></trkpt><trkpt lon="5.86694" lat="51.121539"><ele>-9.4</ele><time>2022-03-20T08:39:42.000Z</time></trkpt><trkpt lon="5.867038" lat="51.121556"><ele>-9.4</ele><time>2022-03-20T08:39:43.000Z</time></trkpt><trkpt lon="5.867133" lat="51.121571"><ele>-9.2</ele><time>2022-03-20T08:39:44.000Z</time></trkpt><trkpt lon="5.867227" lat="51.121586"><ele>-9</ele><time>2022-03-20T08:39:45.000Z</time></trkpt><trkpt lon="5.867321" lat="51.121601"><ele>-9</ele><time>2022-03-20T08:39:46.000Z</time></trkpt><trkpt lon="5.867412" lat="51.121616"><ele>-8.8</ele><time>2022-03-20T08:39:47.000Z</time></trkpt><trkpt lon="5.867498" lat="51.121632"><ele>-8.6</ele><time>2022-03-20T08:39:48.000Z</time></trkpt><trkpt lon="5.867581" lat="51.12165"><ele>-8.4</ele><time>2022-03-20T08:39:49.000Z</time></trkpt><trkpt lon="5.867657" lat="51.121666"><ele>-8.2</ele><time>2022-03-20T08:39:50.000Z</time></trkpt><trkpt lon="5.867726" lat="51.121684"><ele>-7.8</ele><time>2022-03-20T08:39:51.000Z</time></trkpt><trkpt lon="5.867787" lat="51.121709"><ele>-7.6</ele><time>2022-03-20T08:39:52.000Z</time></trkpt><trkpt lon="5.867834" lat="51.121744"><ele>-7.4</ele><time>2022-03-20T08:39:53.000Z</time></trkpt><trkpt lon="5.867856" lat="51.121791"><ele>-7.2</ele><time>2022-03-20T08:39:54.000Z</time></trkpt><trkpt lon="5.867855" lat="51.121847"><ele>-7</ele><time>2022-03-20T08:39:55.000Z</time></trkpt><trkpt lon="5.867837" lat="51.121904"><ele>-7</ele><time>2022-03-20T08:39:56.000Z</time></trkpt><trkpt lon="5.86781" lat="51.121964"><ele>-7.2</ele><time>2022-03-20T08:39:57.000Z</time></trkpt><trkpt lon="5.867779" lat="51.122025"><ele>-7.2</ele><time>2022-03-20T08:39:58.000Z</time></trkpt><trkpt lon="5.867749" lat="51.122083"><ele>-7.2</ele><time>2022-03-20T08:39:59.000Z</time></trkpt><trkpt lon="5.867719" lat="51.122141"><ele>-7.2</ele><time>2022-03-20T08:40:00.000Z</time></trkpt><trkpt lon="5.867691" lat="51.122195"><ele>-7.2</ele><time>2022-03-20T08:40:01.000Z</time></trkpt><trkpt lon="5.867672" lat="51.122246"><ele>-7.2</ele><time>2022-03-20T08:40:02.000Z</time></trkpt><trkpt lon="5.867667" lat="51.122292"><ele>-7.4</ele><time>2022-03-20T08:40:03.000Z</time></trkpt><trkpt lon="5.867686" lat="51.122335"><ele>-7.4</ele><time>2022-03-20T08:40:04.000Z</time></trkpt><trkpt lon="5.867744" lat="51.12236"><ele>-7.4</ele><time>2022-03-20T08:40:05.000Z</time></trkpt><trkpt lon="5.867826" lat="51.12237"><ele>-7.6</ele><time>2022-03-20T08:40:06.000Z</time></trkpt><trkpt lon="5.867922" lat="51.12238"><ele>-7.6</ele><time>2022-03-20T08:40:07.000Z</time></trkpt><trkpt lon="5.868029" lat="51.122392"><ele>-7.6</ele><time>2022-03-20T08:40:08.000Z</time></trkpt><trkpt lon="5.868134" lat="51.122406"><ele>-7.6</ele><time>2022-03-20T08:40:09.000Z</time></trkpt><trkpt lon="5.868234" lat="51.122419"><ele>-7.6</ele><time>2022-03-20T08:40:10.000Z</time></trkpt><trkpt lon="5.868335" lat="51.122433"><ele>-7.6</ele><time>2022-03-20T08:40:11.000Z</time></trkpt><trkpt lon="5.868432" lat="51.122448"><ele>-7.6</ele><time>2022-03-20T08:40:12.000Z</time></trkpt><trkpt lon="5.868526" lat="51.12246"><ele>-7.6</ele><time>2022-03-20T08:40:13.000Z</time></trkpt><trkpt lon="5.868623" lat="51.122475"><ele>-7.6</ele><time>2022-03-20T08:40:14.000Z</time></trkpt><trkpt lon="5.868718" lat="51.12249"><ele>-7.6</ele><time>2022-03-20T08:40:15.000Z</time></trkpt><trkpt lon="5.868813" lat="51.122506"><ele>-7.6</ele><time>2022-03-20T08:40:16.000Z</time></trkpt><trkpt lon="5.868907" lat="51.122515"><ele>-7.8</ele><time>2022-03-20T08:40:17.000Z</time></trkpt><trkpt lon="5.869003" lat="51.122525"><ele>-7.8</ele><time>2022-03-20T08:40:18.000Z</time></trkpt><trkpt lon="5.869097" lat="51.122537"><ele>-7.8</ele><time>2022-03-20T08:40:19.000Z</time></trkpt><trkpt lon="5.869193" lat="51.122548"><ele>-8</ele><time>2022-03-20T08:40:20.000Z</time></trkpt><trkpt lon="5.869289" lat="51.12256"><ele>-8</ele><time>2022-03-20T08:40:21.000Z</time></trkpt><trkpt lon="5.869384" lat="51.122574"><ele>-8.2</ele><time>2022-03-20T08:40:22.000Z</time></trkpt><trkpt lon="5.869482" lat="51.122586"><ele>-8.2</ele><time>2022-03-20T08:40:23.000Z</time></trkpt><trkpt lon="5.86958" lat="51.122598"><ele>-8</ele><time>2022-03-20T08:40:24.000Z</time></trkpt><trkpt lon="5.86968" lat="51.122609"><ele>-7.8</ele><time>2022-03-20T08:40:25.000Z</time></trkpt><trkpt lon="5.869777" lat="51.12262"><ele>-7.8</ele><time>2022-03-20T08:40:26.000Z</time></trkpt><trkpt lon="5.869879" lat="51.122632"><ele>-7.8</ele><time>2022-03-20T08:40:27.000Z</time></trkpt><trkpt lon="5.869979" lat="51.122641"><ele>-7.8</ele><time>2022-03-20T08:40:28.000Z</time></trkpt><trkpt lon="5.870077" lat="51.122651"><ele>-7.6</ele><time>2022-03-20T08:40:29.000Z</time></trkpt><trkpt lon="5.870168" lat="51.122662"><ele>-7.6</ele><time>2022-03-20T08:40:30.000Z</time></trkpt><trkpt lon="5.870269" lat="51.122674"><ele>-7.6</ele><time>2022-03-20T08:40:31.000Z</time></trkpt><trkpt lon="5.870369" lat="51.122686"><ele>-7.6</ele><time>2022-03-20T08:40:32.000Z</time></trkpt><trkpt lon="5.870463" lat="51.1227"><ele>-7.6</ele><time>2022-03-20T08:40:33.000Z</time></trkpt><trkpt lon="5.87056" lat="51.122712"><ele>-7.8</ele><time>2022-03-20T08:40:34.000Z</time></trkpt><trkpt lon="5.870658" lat="51.122724"><ele>-7.8</ele><time>2022-03-20T08:40:35.000Z</time></trkpt><trkpt lon="5.870753" lat="51.122732"><ele>-7.8</ele><time>2022-03-20T08:40:36.000Z</time></trkpt><trkpt lon="5.870849" lat="51.122743"><ele>-7.6</ele><time>2022-03-20T08:40:37.000Z</time></trkpt><trkpt lon="5.870945" lat="51.122754"><ele>-7.8</ele><time>2022-03-20T08:40:38.000Z</time></trkpt><trkpt lon="5.871042" lat="51.122766"><ele>-8</ele><time>2022-03-20T08:40:39.000Z</time></trkpt><trkpt lon="5.87114" lat="51.122777"><ele>-7.8</ele><time>2022-03-20T08:40:40.000Z</time></trkpt><trkpt lon="5.871242" lat="51.122788"><ele>-7.6</ele><time>2022-03-20T08:40:41.000Z</time></trkpt><trkpt lon="5.871342" lat="51.122797"><ele>-7.4</ele><time>2022-03-20T08:40:42.000Z</time></trkpt><trkpt lon="5.87144" lat="51.122808"><ele>-7.4</ele><time>2022-03-20T08:40:43.000Z</time></trkpt><trkpt lon="5.871534" lat="51.122819"><ele>-7.6</ele><time>2022-03-20T08:40:44.000Z</time></trkpt><trkpt lon="5.871623" lat="51.122828"><ele>-7.8</ele><time>2022-03-20T08:40:45.000Z</time></trkpt><trkpt lon="5.871709" lat="51.122835"><ele>-7.6</ele><time>2022-03-20T08:40:46.000Z</time></trkpt><trkpt lon="5.871783" lat="51.122843"><ele>-7.4</ele><time>2022-03-20T08:40:47.000Z</time></trkpt><trkpt lon="5.871844" lat="51.122851"><ele>-7.2</ele><time>2022-03-20T08:40:48.000Z</time></trkpt><trkpt lon="5.871889" lat="51.122858"><ele>-7</ele><time>2022-03-20T08:40:49.000Z</time></trkpt><trkpt lon="5.871921" lat="51.12286"><ele>-6.8</ele><time>2022-03-20T08:40:50.000Z</time></trkpt><trkpt lon="5.871949" lat="51.122863"><ele>-6.6</ele><time>2022-03-20T08:40:51.000Z</time></trkpt><trkpt lon="5.871984" lat="51.122867"><ele>-6.6</ele><time>2022-03-20T08:40:52.000Z</time></trkpt><trkpt lon="5.87203" lat="51.122873"><ele>-6.6</ele><time>2022-03-20T08:40:53.000Z</time></trkpt><trkpt lon="5.872086" lat="51.122878"><ele>-6.6</ele><time>2022-03-20T08:40:54.000Z</time></trkpt><trkpt lon="5.872143" lat="51.122885"><ele>-6.6</ele><time>2022-03-20T08:40:55.000Z</time></trkpt><trkpt lon="5.872198" lat="51.122887"><ele>-6.6</ele><time>2022-03-20T08:40:56.000Z</time></trkpt><trkpt lon="5.872252" lat="51.122887"><ele>-6.8</ele><time>2022-03-20T08:40:57.000Z</time></trkpt><trkpt lon="5.87231" lat="51.12289"><ele>-6.8</ele><time>2022-03-20T08:40:58.000Z</time></trkpt><trkpt lon="5.872379" lat="51.122888"><ele>-7</ele><time>2022-03-20T08:40:59.000Z</time></trkpt><trkpt lon="5.872452" lat="51.122887"><ele>-7</ele><time>2022-03-20T08:41:00.000Z</time></trkpt><trkpt lon="5.872525" lat="51.122887"><ele>-6.8</ele><time>2022-03-20T08:41:01.000Z</time></trkpt><trkpt lon="5.872594" lat="51.122887"><ele>-7</ele><time>2022-03-20T08:41:02.000Z</time></trkpt><trkpt lon="5.872655" lat="51.122887"><ele>-7</ele><time>2022-03-20T08:41:03.000Z</time></trkpt><trkpt lon="5.872721" lat="51.122884"><ele>-7</ele><time>2022-03-20T08:41:04.000Z</time></trkpt><trkpt lon="5.872785" lat="51.122883"><ele>-7</ele><time>2022-03-20T08:41:05.000Z</time></trkpt><trkpt lon="5.872846" lat="51.122883"><ele>-7</ele><time>2022-03-20T08:41:06.000Z</time></trkpt><trkpt lon="5.872904" lat="51.12288"><ele>-7</ele><time>2022-03-20T08:41:07.000Z</time></trkpt><trkpt lon="5.87296" lat="51.122879"><ele>-7</ele><time>2022-03-20T08:41:08.000Z</time></trkpt><trkpt lon="5.873018" lat="51.122879"><ele>-7</ele><time>2022-03-20T08:41:09.000Z</time></trkpt><trkpt lon="5.873075" lat="51.122882"><ele>-7</ele><time>2022-03-20T08:41:10.000Z</time></trkpt><trkpt lon="5.87313" lat="51.122883"><ele>-7</ele><time>2022-03-20T08:41:11.000Z</time></trkpt><trkpt lon="5.873184" lat="51.122883"><ele>-6.8</ele><time>2022-03-20T08:41:12.000Z</time></trkpt><trkpt lon="5.87324" lat="51.12288"><ele>-7</ele><time>2022-03-20T08:41:13.000Z</time></trkpt><trkpt lon="5.873295" lat="51.122879"><ele>-7</ele><time>2022-03-20T08:41:14.000Z</time></trkpt><trkpt lon="5.873352" lat="51.122879"><ele>-7</ele><time>2022-03-20T08:41:15.000Z</time></trkpt><trkpt lon="5.873408" lat="51.122876"><ele>-7</ele><time>2022-03-20T08:41:16.000Z</time></trkpt><trkpt lon="5.873461" lat="51.122875"><ele>-7</ele><time>2022-03-20T08:41:17.000Z</time></trkpt><trkpt lon="5.873514" lat="51.122875"><ele>-7</ele><time>2022-03-20T08:41:18.000Z</time></trkpt><trkpt lon="5.873569" lat="51.122875"><ele>-7</ele><time>2022-03-20T08:41:19.000Z</time></trkpt><trkpt lon="5.873625" lat="51.122875"><ele>-7</ele><time>2022-03-20T08:41:20.000Z</time></trkpt><trkpt lon="5.873679" lat="51.122875"><ele>-7</ele><time>2022-03-20T08:41:21.000Z</time></trkpt><trkpt lon="5.873731" lat="51.122872"><ele>-6.8</ele><time>2022-03-20T08:41:22.000Z</time></trkpt><trkpt lon="5.873785" lat="51.122869"><ele>-6.8</ele><time>2022-03-20T08:41:23.000Z</time></trkpt><trkpt lon="5.873843" lat="51.122868"><ele>-6.8</ele><time>2022-03-20T08:41:24.000Z</time></trkpt><trkpt lon="5.873902" lat="51.122865"><ele>-6.8</ele><time>2022-03-20T08:41:25.000Z</time></trkpt><trkpt lon="5.873963" lat="51.122861"><ele>-6.8</ele><time>2022-03-20T08:41:26.000Z</time></trkpt><trkpt lon="5.874027" lat="51.12286"><ele>-6.8</ele><time>2022-03-20T08:41:27.000Z</time></trkpt><trkpt lon="5.874089" lat="51.122857"><ele>-6.8</ele><time>2022-03-20T08:41:28.000Z</time></trkpt><trkpt lon="5.874148" lat="51.122856"><ele>-7</ele><time>2022-03-20T08:41:29.000Z</time></trkpt><trkpt lon="5.874202" lat="51.122853"><ele>-7</ele><time>2022-03-20T08:41:30.000Z</time></trkpt><trkpt lon="5.874255" lat="51.12285"><ele>-7</ele><time>2022-03-20T08:41:31.000Z</time></trkpt><trkpt lon="5.87431" lat="51.122849"><ele>-7</ele><time>2022-03-20T08:41:32.000Z</time></trkpt><trkpt lon="5.874359" lat="51.122849"><ele>-6.8</ele><time>2022-03-20T08:41:33.000Z</time></trkpt><trkpt lon="5.874405" lat="51.122846"><ele>-7</ele><time>2022-03-20T08:41:34.000Z</time></trkpt><trkpt lon="5.874449" lat="51.122845"><ele>-7</ele><time>2022-03-20T08:41:35.000Z</time></trkpt><trkpt lon="5.874492" lat="51.122842"><ele>-6.8</ele><time>2022-03-20T08:41:36.000Z</time></trkpt><trkpt lon="5.874533" lat="51.122838"><ele>-6.8</ele><time>2022-03-20T08:41:37.000Z</time></trkpt><trkpt lon="5.874574" lat="51.122837"><ele>-6.8</ele><time>2022-03-20T08:41:38.000Z</time></trkpt><trkpt lon="5.874615" lat="51.122834"><ele>-6.8</ele><time>2022-03-20T08:41:39.000Z</time></trkpt><trkpt lon="5.87466" lat="51.122833"><ele>-7</ele><time>2022-03-20T08:41:40.000Z</time></trkpt><trkpt lon="5.874706" lat="51.122833"><ele>-6.8</ele><time>2022-03-20T08:41:41.000Z</time></trkpt><trkpt lon="5.874748" lat="51.122833"><ele>-6.8</ele><time>2022-03-20T08:41:42.000Z</time></trkpt><trkpt lon="5.874789" lat="51.122833"><ele>-6.6</ele><time>2022-03-20T08:41:43.000Z</time></trkpt><trkpt lon="5.874829" lat="51.122833"><ele>-6.6</ele><time>2022-03-20T08:41:44.000Z</time></trkpt><trkpt lon="5.874866" lat="51.12283"><ele>-6.6</ele><time>2022-03-20T08:41:45.000Z</time></trkpt><trkpt lon="5.874905" lat="51.122829"><ele>-6.4</ele><time>2022-03-20T08:41:46.000Z</time></trkpt><trkpt lon="5.874947" lat="51.122829"><ele>-6.6</ele><time>2022-03-20T08:41:47.000Z</time></trkpt><trkpt lon="5.874993" lat="51.122827"><ele>-6.4</ele><time>2022-03-20T08:41:48.000Z</time></trkpt><trkpt lon="5.875043" lat="51.122823"><ele>-6.4</ele><time>2022-03-20T08:41:49.000Z</time></trkpt><trkpt lon="5.87509" lat="51.122822"><ele>-6.4</ele><time>2022-03-20T08:41:50.000Z</time></trkpt><trkpt lon="5.875136" lat="51.122822"><ele>-6.4</ele><time>2022-03-20T08:41:51.000Z</time></trkpt><trkpt lon="5.87518" lat="51.122819"><ele>-6.4</ele><time>2022-03-20T08:41:52.000Z</time></trkpt><trkpt lon="5.875227" lat="51.122818"><ele>-6.4</ele><time>2022-03-20T08:41:53.000Z</time></trkpt><trkpt lon="5.875272" lat="51.122818"><ele>-6.4</ele><time>2022-03-20T08:41:54.000Z</time></trkpt><trkpt lon="5.87532" lat="51.122815"><ele>-6.4</ele><time>2022-03-20T08:41:55.000Z</time></trkpt><trkpt lon="5.87537" lat="51.122811"><ele>-6.4</ele><time>2022-03-20T08:41:56.000Z</time></trkpt><trkpt lon="5.87542" lat="51.12281"><ele>-6.4</ele><time>2022-03-20T08:41:57.000Z</time></trkpt><trkpt lon="5.875468" lat="51.12281"><ele>-6.6</ele><time>2022-03-20T08:41:58.000Z</time></trkpt><trkpt lon="5.875518" lat="51.122807"><ele>-6.4</ele><time>2022-03-20T08:41:59.000Z</time></trkpt><trkpt lon="5.875566" lat="51.122807"><ele>-6.4</ele><time>2022-03-20T08:42:00.000Z</time></trkpt><trkpt lon="5.87561" lat="51.122804"><ele>-6.4</ele><time>2022-03-20T08:42:01.000Z</time></trkpt><trkpt lon="5.875653" lat="51.122803"><ele>-6.6</ele><time>2022-03-20T08:42:02.000Z</time></trkpt><trkpt lon="5.875697" lat="51.1228"><ele>-6.4</ele><time>2022-03-20T08:42:03.000Z</time></trkpt><trkpt lon="5.875733" lat="51.122796"><ele>-6.4</ele><time>2022-03-20T08:42:04.000Z</time></trkpt><trkpt lon="5.875761" lat="51.122795"><ele>-6.4</ele><time>2022-03-20T08:42:05.000Z</time></trkpt><trkpt lon="5.875843" lat="51.122798"><ele>-6.2</ele><time>2022-03-20T08:43:27.000Z</time></trkpt><trkpt lon="5.87588" lat="51.122799"><ele>-6.2</ele><time>2022-03-20T08:43:28.000Z</time></trkpt><trkpt lon="5.875926" lat="51.122796"><ele>-6.2</ele><time>2022-03-20T08:43:29.000Z</time></trkpt><trkpt lon="5.875976" lat="51.122792"><ele>-6.2</ele><time>2022-03-20T08:43:30.000Z</time></trkpt><trkpt lon="5.876031" lat="51.122788"><ele>-6.2</ele><time>2022-03-20T08:43:31.000Z</time></trkpt><trkpt lon="5.876093" lat="51.122785"><ele>-6.2</ele><time>2022-03-20T08:43:32.000Z</time></trkpt><trkpt lon="5.876161" lat="51.122781"><ele>-6.2</ele><time>2022-03-20T08:43:33.000Z</time></trkpt><trkpt lon="5.876232" lat="51.122777"><ele>-6.4</ele><time>2022-03-20T08:43:34.000Z</time></trkpt><trkpt lon="5.876305" lat="51.122773"><ele>-6.4</ele><time>2022-03-20T08:43:35.000Z</time></trkpt><trkpt lon="5.876375" lat="51.122766"><ele>-6.4</ele><time>2022-03-20T08:43:36.000Z</time></trkpt><trkpt lon="5.876445" lat="51.122762"><ele>-6.6</ele><time>2022-03-20T08:43:37.000Z</time></trkpt><trkpt lon="5.876519" lat="51.122755"><ele>-6.6</ele><time>2022-03-20T08:43:38.000Z</time></trkpt><trkpt lon="5.876608" lat="51.12275"><ele>-6.6</ele><time>2022-03-20T08:43:39.000Z</time></trkpt><trkpt lon="5.8767" lat="51.122743"><ele>-6.8</ele><time>2022-03-20T08:43:40.000Z</time></trkpt><trkpt lon="5.876785" lat="51.122742"><ele>-6.8</ele><time>2022-03-20T08:43:41.000Z</time></trkpt><trkpt lon="5.876871" lat="51.122739"><ele>-6.8</ele><time>2022-03-20T08:43:42.000Z</time></trkpt><trkpt lon="5.876956" lat="51.122735"><ele>-6.8</ele><time>2022-03-20T08:43:43.000Z</time></trkpt><trkpt lon="5.877042" lat="51.122734"><ele>-6.6</ele><time>2022-03-20T08:43:44.000Z</time></trkpt><trkpt lon="5.877128" lat="51.122731"><ele>-6.6</ele><time>2022-03-20T08:43:45.000Z</time></trkpt><trkpt lon="5.87721" lat="51.12273"><ele>-6.6</ele><time>2022-03-20T08:43:46.000Z</time></trkpt><trkpt lon="5.877296" lat="51.122727"><ele>-6.4</ele><time>2022-03-20T08:43:47.000Z</time></trkpt><trkpt lon="5.877383" lat="51.122726"><ele>-6.4</ele><time>2022-03-20T08:43:48.000Z</time></trkpt><trkpt lon="5.877474" lat="51.122726"><ele>-6.6</ele><time>2022-03-20T08:43:49.000Z</time></trkpt><trkpt lon="5.877567" lat="51.122726"><ele>-6.8</ele><time>2022-03-20T08:43:50.000Z</time></trkpt><trkpt lon="5.877656" lat="51.122726"><ele>-6.8</ele><time>2022-03-20T08:43:51.000Z</time></trkpt><trkpt lon="5.877743" lat="51.122729"><ele>-6.8</ele><time>2022-03-20T08:43:52.000Z</time></trkpt><trkpt lon="5.877838" lat="51.12273"><ele>-6.8</ele><time>2022-03-20T08:43:53.000Z</time></trkpt><trkpt lon="5.87793" lat="51.122733"><ele>-6.8</ele><time>2022-03-20T08:43:54.000Z</time></trkpt><trkpt lon="5.878024" lat="51.122734"><ele>-6.8</ele><time>2022-03-20T08:43:55.000Z</time></trkpt><trkpt lon="5.878117" lat="51.122737"><ele>-6.8</ele><time>2022-03-20T08:43:56.000Z</time></trkpt><trkpt lon="5.87821" lat="51.122741"><ele>-6.8</ele><time>2022-03-20T08:43:57.000Z</time></trkpt><trkpt lon="5.878302" lat="51.122745"><ele>-6.6</ele><time>2022-03-20T08:43:58.000Z</time></trkpt><trkpt lon="5.878393" lat="51.122748"><ele>-6.6</ele><time>2022-03-20T08:43:59.000Z</time></trkpt><trkpt lon="5.878482" lat="51.122752"><ele>-6.6</ele><time>2022-03-20T08:44:00.000Z</time></trkpt><trkpt lon="5.878564" lat="51.122756"><ele>-6.6</ele><time>2022-03-20T08:44:01.000Z</time></trkpt><trkpt lon="5.878644" lat="51.12276"><ele>-6.6</ele><time>2022-03-20T08:44:02.000Z</time></trkpt><trkpt lon="5.878718" lat="51.122764"><ele>-6.4</ele><time>2022-03-20T08:44:03.000Z</time></trkpt><trkpt lon="5.878794" lat="51.122762"><ele>-6.2</ele><time>2022-03-20T08:44:04.000Z</time></trkpt><trkpt lon="5.87887" lat="51.122755"><ele>-6</ele><time>2022-03-20T08:44:05.000Z</time></trkpt><trkpt lon="5.878944" lat="51.122744"><ele>-5.6</ele><time>2022-03-20T08:44:06.000Z</time></trkpt><trkpt lon="5.879012" lat="51.12273"><ele>-5.2</ele><time>2022-03-20T08:44:07.000Z</time></trkpt><trkpt lon="5.87907" lat="51.122715"><ele>-4.6</ele><time>2022-03-20T08:44:08.000Z</time></trkpt><trkpt lon="5.879128" lat="51.122697"><ele>-4.4</ele><time>2022-03-20T08:44:09.000Z</time></trkpt><trkpt lon="5.879188" lat="51.122677"><ele>-4.2</ele><time>2022-03-20T08:44:10.000Z</time></trkpt><trkpt lon="5.879252" lat="51.122656"><ele>-3.8</ele><time>2022-03-20T08:44:11.000Z</time></trkpt><trkpt lon="5.879325" lat="51.122627"><ele>-3.6</ele><time>2022-03-20T08:44:12.000Z</time></trkpt><trkpt lon="5.879404" lat="51.122599"><ele>-3.4</ele><time>2022-03-20T08:44:13.000Z</time></trkpt><trkpt lon="5.879488" lat="51.122572"><ele>-3.2</ele><time>2022-03-20T08:44:14.000Z</time></trkpt><trkpt lon="5.879572" lat="51.122546"><ele>-3</ele><time>2022-03-20T08:44:15.000Z</time></trkpt><trkpt lon="5.879653" lat="51.122517"><ele>-2.8</ele><time>2022-03-20T08:44:16.000Z</time></trkpt><trkpt lon="5.879739" lat="51.122489"><ele>-2.6</ele><time>2022-03-20T08:44:17.000Z</time></trkpt><trkpt lon="5.879824" lat="51.122462"><ele>-2.2</ele><time>2022-03-20T08:44:18.000Z</time></trkpt><trkpt lon="5.879907" lat="51.122438"><ele>-2</ele><time>2022-03-20T08:44:19.000Z</time></trkpt><trkpt lon="5.879985" lat="51.122412"><ele>-1.8</ele><time>2022-03-20T08:44:20.000Z</time></trkpt><trkpt lon="5.880057" lat="51.122389"><ele>-1.6</ele><time>2022-03-20T08:44:21.000Z</time></trkpt><trkpt lon="5.880129" lat="51.122366"><ele>-1.4</ele><time>2022-03-20T08:44:22.000Z</time></trkpt><trkpt lon="5.880197" lat="51.122346"><ele>-1</ele><time>2022-03-20T08:44:23.000Z</time></trkpt><trkpt lon="5.880266" lat="51.122323"><ele>-0.8</ele><time>2022-03-20T08:44:24.000Z</time></trkpt><trkpt lon="5.880334" lat="51.122301"><ele>-0.6</ele><time>2022-03-20T08:44:25.000Z</time></trkpt><trkpt lon="5.880402" lat="51.122278"><ele>-0.4</ele><time>2022-03-20T08:44:26.000Z</time></trkpt><trkpt lon="5.880468" lat="51.122258"><ele>-0.2</ele><time>2022-03-20T08:44:27.000Z</time></trkpt><trkpt lon="5.880536" lat="51.122233"><ele>0</ele><time>2022-03-20T08:44:28.000Z</time></trkpt><trkpt lon="5.880604" lat="51.122209"><ele>0</ele><time>2022-03-20T08:44:29.000Z</time></trkpt><trkpt lon="5.88067" lat="51.122183"><ele>0.2</ele><time>2022-03-20T08:44:30.000Z</time></trkpt><trkpt lon="5.880734" lat="51.122157"><ele>0.4</ele><time>2022-03-20T08:44:31.000Z</time></trkpt><trkpt lon="5.880797" lat="51.122127"><ele>0.4</ele><time>2022-03-20T08:44:32.000Z</time></trkpt><trkpt lon="5.880859" lat="51.122094"><ele>0.4</ele><time>2022-03-20T08:44:33.000Z</time></trkpt><trkpt lon="5.880921" lat="51.122059"><ele>0.6</ele><time>2022-03-20T08:44:34.000Z</time></trkpt><trkpt lon="5.880981" lat="51.122025"><ele>0.8</ele><time>2022-03-20T08:44:35.000Z</time></trkpt><trkpt lon="5.88104" lat="51.121993"><ele>0.8</ele><time>2022-03-20T08:44:36.000Z</time></trkpt><trkpt lon="5.881099" lat="51.121957"><ele>1</ele><time>2022-03-20T08:44:37.000Z</time></trkpt><trkpt lon="5.881159" lat="51.121923"><ele>1</ele><time>2022-03-20T08:44:38.000Z</time></trkpt><trkpt lon="5.881222" lat="51.121888"><ele>1</ele><time>2022-03-20T08:44:39.000Z</time></trkpt><trkpt lon="5.881286" lat="51.121851"><ele>1</ele><time>2022-03-20T08:44:40.000Z</time></trkpt><trkpt lon="5.881351" lat="51.121813"><ele>1</ele><time>2022-03-20T08:44:41.000Z</time></trkpt><trkpt lon="5.881418" lat="51.121777"><ele>0.8</ele><time>2022-03-20T08:44:42.000Z</time></trkpt><trkpt lon="5.881485" lat="51.121743"><ele>0.6</ele><time>2022-03-20T08:44:43.000Z</time></trkpt><trkpt lon="5.881551" lat="51.121709"><ele>0.6</ele><time>2022-03-20T08:44:44.000Z</time></trkpt><trkpt lon="5.881616" lat="51.121678"><ele>0.4</ele><time>2022-03-20T08:44:45.000Z</time></trkpt><trkpt lon="5.881683" lat="51.121644"><ele>0.4</ele><time>2022-03-20T08:44:46.000Z</time></trkpt><trkpt lon="5.881752" lat="51.121612"><ele>0.4</ele><time>2022-03-20T08:44:47.000Z</time></trkpt><trkpt lon="5.881829" lat="51.121591"><ele>0.2</ele><time>2022-03-20T08:44:48.000Z</time></trkpt><trkpt lon="5.881917" lat="51.121577"><ele>0.2</ele><time>2022-03-20T08:44:49.000Z</time></trkpt><trkpt lon="5.882012" lat="51.12158"><ele>0</ele><time>2022-03-20T08:44:50.000Z</time></trkpt><trkpt lon="5.882107" lat="51.121596"><ele>-0.2</ele><time>2022-03-20T08:44:51.000Z</time></trkpt><trkpt lon="5.882195" lat="51.121624"><ele>-0.6</ele><time>2022-03-20T08:44:52.000Z</time></trkpt><trkpt lon="5.882275" lat="51.121661"><ele>-1</ele><time>2022-03-20T08:44:53.000Z</time></trkpt><trkpt lon="5.882347" lat="51.121705"><ele>-1.2</ele><time>2022-03-20T08:44:54.000Z</time></trkpt><trkpt lon="5.882416" lat="51.121754"><ele>-1.6</ele><time>2022-03-20T08:44:55.000Z</time></trkpt><trkpt lon="5.882486" lat="51.1218"><ele>-1.8</ele><time>2022-03-20T08:44:56.000Z</time></trkpt><trkpt lon="5.882558" lat="51.121846"><ele>-2.2</ele><time>2022-03-20T08:44:57.000Z</time></trkpt><trkpt lon="5.882632" lat="51.121895"><ele>-2.6</ele><time>2022-03-20T08:44:58.000Z</time></trkpt><trkpt lon="5.882708" lat="51.121941"><ele>-2.8</ele><time>2022-03-20T08:44:59.000Z</time></trkpt><trkpt lon="5.882785" lat="51.12199"><ele>-3.2</ele><time>2022-03-20T08:45:00.000Z</time></trkpt><trkpt lon="5.882863" lat="51.122042"><ele>-3.6</ele><time>2022-03-20T08:45:01.000Z</time></trkpt><trkpt lon="5.882939" lat="51.122093"><ele>-4</ele><time>2022-03-20T08:45:02.000Z</time></trkpt><trkpt lon="5.883014" lat="51.12214"><ele>-4.4</ele><time>2022-03-20T08:45:03.000Z</time></trkpt><trkpt lon="5.883088" lat="51.122183"><ele>-4.8</ele><time>2022-03-20T08:45:04.000Z</time></trkpt><trkpt lon="5.883169" lat="51.122219"><ele>-5</ele><time>2022-03-20T08:45:05.000Z</time></trkpt><trkpt lon="5.883259" lat="51.122241"><ele>-5.2</ele><time>2022-03-20T08:45:06.000Z</time></trkpt><trkpt lon="5.883357" lat="51.122249"><ele>-5.4</ele><time>2022-03-20T08:45:07.000Z</time></trkpt><trkpt lon="5.883453" lat="51.122241"><ele>-5.4</ele><time>2022-03-20T08:45:08.000Z</time></trkpt><trkpt lon="5.883542" lat="51.122212"><ele>-5.4</ele><time>2022-03-20T08:45:09.000Z</time></trkpt><trkpt lon="5.883616" lat="51.122169"><ele>-5.4</ele><time>2022-03-20T08:45:10.000Z</time></trkpt><trkpt lon="5.883669" lat="51.122114"><ele>-5.4</ele><time>2022-03-20T08:45:11.000Z</time></trkpt><trkpt lon="5.883702" lat="51.122055"><ele>-5.2</ele><time>2022-03-20T08:45:12.000Z</time></trkpt><trkpt lon="5.88373" lat="51.121996"><ele>-5</ele><time>2022-03-20T08:45:13.000Z</time></trkpt><trkpt lon="5.883754" lat="51.121941"><ele>-5</ele><time>2022-03-20T08:45:14.000Z</time></trkpt><trkpt lon="5.883777" lat="51.121889"><ele>-5</ele><time>2022-03-20T08:45:15.000Z</time></trkpt><trkpt lon="5.8838" lat="51.121841"><ele>-5</ele><time>2022-03-20T08:45:16.000Z</time></trkpt><trkpt lon="5.883824" lat="51.121801"><ele>-5</ele><time>2022-03-20T08:45:17.000Z</time></trkpt><trkpt lon="5.883853" lat="51.121772"><ele>-5</ele><time>2022-03-20T08:45:18.000Z</time></trkpt><trkpt lon="5.883894" lat="51.121754"><ele>-5.2</ele><time>2022-03-20T08:45:19.000Z</time></trkpt><trkpt lon="5.883943" lat="51.121753"><ele>-5.4</ele><time>2022-03-20T08:45:20.000Z</time></trkpt><trkpt lon="5.88399" lat="51.121771"><ele>-5.6</ele><time>2022-03-20T08:45:21.000Z</time></trkpt><trkpt lon="5.884038" lat="51.121797"><ele>-5.8</ele><time>2022-03-20T08:45:22.000Z</time></trkpt><trkpt lon="5.88409" lat="51.121823"><ele>-6</ele><time>2022-03-20T08:45:23.000Z</time></trkpt><trkpt lon="5.884149" lat="51.12185"><ele>-6</ele><time>2022-03-20T08:45:24.000Z</time></trkpt><trkpt lon="5.884213" lat="51.121877"><ele>-6.2</ele><time>2022-03-20T08:45:25.000Z</time></trkpt><trkpt lon="5.884279" lat="51.121906"><ele>-6.4</ele><time>2022-03-20T08:45:26.000Z</time></trkpt><trkpt lon="5.88435" lat="51.121937"><ele>-6.6</ele><time>2022-03-20T08:45:27.000Z</time></trkpt><trkpt lon="5.884422" lat="51.121967"><ele>-6.8</ele><time>2022-03-20T08:45:28.000Z</time></trkpt><trkpt lon="5.884499" lat="51.122001"><ele>-6.8</ele><time>2022-03-20T08:45:29.000Z</time></trkpt><trkpt lon="5.884577" lat="51.122033"><ele>-6.8</ele><time>2022-03-20T08:45:30.000Z</time></trkpt><trkpt lon="5.884656" lat="51.12206"><ele>-7</ele><time>2022-03-20T08:45:31.000Z</time></trkpt><trkpt lon="5.884735" lat="51.122089"><ele>-7.2</ele><time>2022-03-20T08:45:32.000Z</time></trkpt><trkpt lon="5.884817" lat="51.122123"><ele>-7</ele><time>2022-03-20T08:45:33.000Z</time></trkpt><trkpt lon="5.884901" lat="51.122155"><ele>-7</ele><time>2022-03-20T08:45:34.000Z</time></trkpt><trkpt lon="5.884989" lat="51.122185"><ele>-7.2</ele><time>2022-03-20T08:45:35.000Z</time></trkpt><trkpt lon="5.885076" lat="51.122216"><ele>-7.4</ele><time>2022-03-20T08:45:36.000Z</time></trkpt><trkpt lon="5.885162" lat="51.122243"><ele>-7.8</ele><time>2022-03-20T08:45:37.000Z</time></trkpt><trkpt lon="5.885249" lat="51.122269"><ele>-8</ele><time>2022-03-20T08:45:38.000Z</time></trkpt><trkpt lon="5.885339" lat="51.1223"><ele>-7.8</ele><time>2022-03-20T08:45:39.000Z</time></trkpt><trkpt lon="5.885426" lat="51.122327"><ele>-8</ele><time>2022-03-20T08:45:40.000Z</time></trkpt><trkpt lon="5.885513" lat="51.122357"><ele>-8.4</ele><time>2022-03-20T08:45:41.000Z</time></trkpt><trkpt lon="5.885596" lat="51.122387"><ele>-8.4</ele><time>2022-03-20T08:45:42.000Z</time></trkpt><trkpt lon="5.885681" lat="51.122415"><ele>-8.6</ele><time>2022-03-20T08:45:43.000Z</time></trkpt><trkpt lon="5.885768" lat="51.122442"><ele>-8.6</ele><time>2022-03-20T08:45:44.000Z</time></trkpt><trkpt lon="5.885854" lat="51.122471"><ele>-8.6</ele><time>2022-03-20T08:45:45.000Z</time></trkpt><trkpt lon="5.885941" lat="51.122499"><ele>-8.6</ele><time>2022-03-20T08:45:46.000Z</time></trkpt><trkpt lon="5.886029" lat="51.122525"><ele>-8.6</ele><time>2022-03-20T08:45:47.000Z</time></trkpt><trkpt lon="5.886117" lat="51.122555"><ele>-8.6</ele><time>2022-03-20T08:45:48.000Z</time></trkpt><trkpt lon="5.886209" lat="51.122583"><ele>-8.4</ele><time>2022-03-20T08:45:49.000Z</time></trkpt><trkpt lon="5.886302" lat="51.122612"><ele>-8.2</ele><time>2022-03-20T08:45:50.000Z</time></trkpt><trkpt lon="5.886393" lat="51.122643"><ele>-8</ele><time>2022-03-20T08:45:51.000Z</time></trkpt><trkpt lon="5.886483" lat="51.12267"><ele>-8.2</ele><time>2022-03-20T08:45:52.000Z</time></trkpt><trkpt lon="5.886571" lat="51.1227"><ele>-8.2</ele><time>2022-03-20T08:45:53.000Z</time></trkpt><trkpt lon="5.886654" lat="51.122728"><ele>-8</ele><time>2022-03-20T08:45:54.000Z</time></trkpt><trkpt lon="5.886732" lat="51.122752"><ele>-8</ele><time>2022-03-20T08:45:55.000Z</time></trkpt><trkpt lon="5.886806" lat="51.122774"><ele>-8</ele><time>2022-03-20T08:45:56.000Z</time></trkpt><trkpt lon="5.886879" lat="51.1228"><ele>-7.8</ele><time>2022-03-20T08:45:57.000Z</time></trkpt><trkpt lon="5.886949" lat="51.122823"><ele>-7.8</ele><time>2022-03-20T08:45:58.000Z</time></trkpt><trkpt lon="5.887023" lat="51.122847"><ele>-7.8</ele><time>2022-03-20T08:45:59.000Z</time></trkpt><trkpt lon="5.887097" lat="51.12287"><ele>-7.8</ele><time>2022-03-20T08:46:00.000Z</time></trkpt><trkpt lon="5.88717" lat="51.122895"><ele>-8</ele><time>2022-03-20T08:46:01.000Z</time></trkpt><trkpt lon="5.887247" lat="51.122922"><ele>-8.2</ele><time>2022-03-20T08:46:02.000Z</time></trkpt><trkpt lon="5.887323" lat="51.122946"><ele>-8.6</ele><time>2022-03-20T08:46:03.000Z</time></trkpt><trkpt lon="5.887405" lat="51.122975"><ele>-8.8</ele><time>2022-03-20T08:46:04.000Z</time></trkpt><trkpt lon="5.887488" lat="51.123003"><ele>-8.8</ele><time>2022-03-20T08:46:05.000Z</time></trkpt><trkpt lon="5.887571" lat="51.123029"><ele>-9</ele><time>2022-03-20T08:46:06.000Z</time></trkpt><trkpt lon="5.887654" lat="51.123055"><ele>-9.2</ele><time>2022-03-20T08:46:07.000Z</time></trkpt><trkpt lon="5.887738" lat="51.123082"><ele>-9.2</ele><time>2022-03-20T08:46:08.000Z</time></trkpt><trkpt lon="5.887822" lat="51.123109"><ele>-9.4</ele><time>2022-03-20T08:46:09.000Z</time></trkpt><trkpt lon="5.887902" lat="51.123133"><ele>-9.4</ele><time>2022-03-20T08:46:10.000Z</time></trkpt><trkpt lon="5.887979" lat="51.123159"><ele>-9.4</ele><time>2022-03-20T08:46:11.000Z</time></trkpt><trkpt lon="5.888056" lat="51.123182"><ele>-9.2</ele><time>2022-03-20T08:46:12.000Z</time></trkpt><trkpt lon="5.888143" lat="51.123208"><ele>-9.2</ele><time>2022-03-20T08:46:13.000Z</time></trkpt><trkpt lon="5.888235" lat="51.123232"><ele>-9</ele><time>2022-03-20T08:46:14.000Z</time></trkpt><trkpt lon="5.888334" lat="51.123258"><ele>-9</ele><time>2022-03-20T08:46:15.000Z</time></trkpt><trkpt lon="5.888432" lat="51.123288"><ele>-9</ele><time>2022-03-20T08:46:16.000Z</time></trkpt><trkpt lon="5.888526" lat="51.123315"><ele>-8.8</ele><time>2022-03-20T08:46:17.000Z</time></trkpt><trkpt lon="5.888616" lat="51.123344"><ele>-8.8</ele><time>2022-03-20T08:46:18.000Z</time></trkpt><trkpt lon="5.88871" lat="51.123375"><ele>-8.4</ele><time>2022-03-20T08:46:19.000Z</time></trkpt><trkpt lon="5.888801" lat="51.123403"><ele>-8.2</ele><time>2022-03-20T08:46:20.000Z</time></trkpt><trkpt lon="5.888891" lat="51.123429"><ele>-8</ele><time>2022-03-20T08:46:21.000Z</time></trkpt><trkpt lon="5.888981" lat="51.123456"><ele>-8</ele><time>2022-03-20T08:46:22.000Z</time></trkpt><trkpt lon="5.889067" lat="51.123485"><ele>-8.2</ele><time>2022-03-20T08:46:23.000Z</time></trkpt><trkpt lon="5.889158" lat="51.123513"><ele>-8.6</ele><time>2022-03-20T08:46:24.000Z</time></trkpt><trkpt lon="5.889247" lat="51.123543"><ele>-9</ele><time>2022-03-20T08:46:25.000Z</time></trkpt><trkpt lon="5.889337" lat="51.123571"><ele>-9</ele><time>2022-03-20T08:46:26.000Z</time></trkpt><trkpt lon="5.889429" lat="51.123598"><ele>-9</ele><time>2022-03-20T08:46:27.000Z</time></trkpt><trkpt lon="5.889516" lat="51.123627"><ele>-9</ele><time>2022-03-20T08:46:28.000Z</time></trkpt><trkpt lon="5.889606" lat="51.123657"><ele>-9</ele><time>2022-03-20T08:46:29.000Z</time></trkpt><trkpt lon="5.889697" lat="51.123685"><ele>-9</ele><time>2022-03-20T08:46:30.000Z</time></trkpt><trkpt lon="5.889789" lat="51.123715"><ele>-8.8</ele><time>2022-03-20T08:46:31.000Z</time></trkpt><trkpt lon="5.889879" lat="51.123742"><ele>-8.6</ele><time>2022-03-20T08:46:32.000Z</time></trkpt><trkpt lon="5.889971" lat="51.123771"><ele>-8.2</ele><time>2022-03-20T08:46:33.000Z</time></trkpt><trkpt lon="5.890067" lat="51.123803"><ele>-8</ele><time>2022-03-20T08:46:34.000Z</time></trkpt><trkpt lon="5.890161" lat="51.123831"><ele>-7.8</ele><time>2022-03-20T08:46:35.000Z</time></trkpt><trkpt lon="5.890253" lat="51.12386"><ele>-7.8</ele><time>2022-03-20T08:46:36.000Z</time></trkpt><trkpt lon="5.890341" lat="51.123886"><ele>-7.8</ele><time>2022-03-20T08:46:37.000Z</time></trkpt><trkpt lon="5.890435" lat="51.123917"><ele>-8</ele><time>2022-03-20T08:46:38.000Z</time></trkpt><trkpt lon="5.89053" lat="51.123945"><ele>-8.2</ele><time>2022-03-20T08:46:39.000Z</time></trkpt><trkpt lon="5.890621" lat="51.123971"><ele>-8.4</ele><time>2022-03-20T08:46:40.000Z</time></trkpt><trkpt lon="5.890714" lat="51.124001"><ele>-8.4</ele><time>2022-03-20T08:46:41.000Z</time></trkpt><trkpt lon="5.890805" lat="51.124028"><ele>-8.2</ele><time>2022-03-20T08:46:42.000Z</time></trkpt><trkpt lon="5.890899" lat="51.124055"><ele>-8</ele><time>2022-03-20T08:46:43.000Z</time></trkpt><trkpt lon="5.890994" lat="51.124082"><ele>-8</ele><time>2022-03-20T08:46:44.000Z</time></trkpt><trkpt lon="5.891088" lat="51.124109"><ele>-8</ele><time>2022-03-20T08:46:45.000Z</time></trkpt><trkpt lon="5.89118" lat="51.124135"><ele>-7.8</ele><time>2022-03-20T08:46:46.000Z</time></trkpt><trkpt lon="5.891271" lat="51.124162"><ele>-7.8</ele><time>2022-03-20T08:46:47.000Z</time></trkpt><trkpt lon="5.891364" lat="51.124188"><ele>-8</ele><time>2022-03-20T08:46:48.000Z</time></trkpt><trkpt lon="5.891457" lat="51.124215"><ele>-8</ele><time>2022-03-20T08:46:49.000Z</time></trkpt><trkpt lon="5.891546" lat="51.124245"><ele>-8</ele><time>2022-03-20T08:46:50.000Z</time></trkpt><trkpt lon="5.89164" lat="51.124273"><ele>-7.8</ele><time>2022-03-20T08:46:51.000Z</time></trkpt><trkpt lon="5.891734" lat="51.124302"><ele>-8</ele><time>2022-03-20T08:46:52.000Z</time></trkpt><trkpt lon="5.891828" lat="51.124327"><ele>-8</ele><time>2022-03-20T08:46:53.000Z</time></trkpt><trkpt lon="5.891921" lat="51.124353"><ele>-8.2</ele><time>2022-03-20T08:46:54.000Z</time></trkpt><trkpt lon="5.892013" lat="51.124382"><ele>-8.4</ele><time>2022-03-20T08:46:55.000Z</time></trkpt><trkpt lon="5.892106" lat="51.12441"><ele>-8.6</ele><time>2022-03-20T08:46:56.000Z</time></trkpt><trkpt lon="5.8922" lat="51.12444"><ele>-8.8</ele><time>2022-03-20T08:46:57.000Z</time></trkpt><trkpt lon="5.892284" lat="51.124465"><ele>-9.2</ele><time>2022-03-20T08:46:58.000Z</time></trkpt><trkpt lon="5.892382" lat="51.124493"><ele>-9.4</ele><time>2022-03-20T08:46:59.000Z</time></trkpt><trkpt lon="5.89248" lat="51.12452"><ele>-9.4</ele><time>2022-03-20T08:47:00.000Z</time></trkpt><trkpt lon="5.892575" lat="51.12455"><ele>-9.2</ele><time>2022-03-20T08:47:01.000Z</time></trkpt><trkpt lon="5.892666" lat="51.12458"><ele>-9.2</ele><time>2022-03-20T08:47:02.000Z</time></trkpt><trkpt lon="5.892759" lat="51.124611"><ele>-9.2</ele><time>2022-03-20T08:47:03.000Z</time></trkpt><trkpt lon="5.892852" lat="51.124639"><ele>-9.2</ele><time>2022-03-20T08:47:04.000Z</time></trkpt><trkpt lon="5.89294" lat="51.124669"><ele>-9.4</ele><time>2022-03-20T08:47:05.000Z</time></trkpt><trkpt lon="5.893029" lat="51.124696"><ele>-9.4</ele><time>2022-03-20T08:47:06.000Z</time></trkpt><trkpt lon="5.893117" lat="51.124726"><ele>-9.2</ele><time>2022-03-20T08:47:07.000Z</time></trkpt><trkpt lon="5.893203" lat="51.124755"><ele>-9</ele><time>2022-03-20T08:47:08.000Z</time></trkpt><trkpt lon="5.893296" lat="51.124784"><ele>-8.8</ele><time>2022-03-20T08:47:09.000Z</time></trkpt><trkpt lon="5.893389" lat="51.124814"><ele>-8.8</ele><time>2022-03-20T08:47:10.000Z</time></trkpt><trkpt lon="5.893476" lat="51.124844"><ele>-8.6</ele><time>2022-03-20T08:47:11.000Z</time></trkpt><trkpt lon="5.893568" lat="51.124871"><ele>-8.6</ele><time>2022-03-20T08:47:12.000Z</time></trkpt><trkpt lon="5.893661" lat="51.124898"><ele>-8.4</ele><time>2022-03-20T08:47:13.000Z</time></trkpt><trkpt lon="5.893755" lat="51.124928"><ele>-8.4</ele><time>2022-03-20T08:47:14.000Z</time></trkpt><trkpt lon="5.893849" lat="51.124956"><ele>-8.4</ele><time>2022-03-20T08:47:15.000Z</time></trkpt><trkpt lon="5.893942" lat="51.124982"><ele>-8.6</ele><time>2022-03-20T08:47:16.000Z</time></trkpt><trkpt lon="5.894035" lat="51.125009"><ele>-8.6</ele><time>2022-03-20T08:47:17.000Z</time></trkpt><trkpt lon="5.894125" lat="51.125035"><ele>-8.6</ele><time>2022-03-20T08:47:18.000Z</time></trkpt><trkpt lon="5.894216" lat="51.125065"><ele>-8.6</ele><time>2022-03-20T08:47:19.000Z</time></trkpt><trkpt lon="5.894307" lat="51.125096"><ele>-8.4</ele><time>2022-03-20T08:47:20.000Z</time></trkpt><trkpt lon="5.894396" lat="51.125123"><ele>-8.4</ele><time>2022-03-20T08:47:21.000Z</time></trkpt><trkpt lon="5.894486" lat="51.125153"><ele>-8.2</ele><time>2022-03-20T08:47:22.000Z</time></trkpt><trkpt lon="5.894576" lat="51.12518"><ele>-8.2</ele><time>2022-03-20T08:47:23.000Z</time></trkpt><trkpt lon="5.894666" lat="51.12521"><ele>-8</ele><time>2022-03-20T08:47:24.000Z</time></trkpt><trkpt lon="5.894759" lat="51.125241"><ele>-8.2</ele><time>2022-03-20T08:47:25.000Z</time></trkpt><trkpt lon="5.894852" lat="51.125268"><ele>-8</ele><time>2022-03-20T08:47:26.000Z</time></trkpt><trkpt lon="5.894941" lat="51.125294"><ele>-8</ele><time>2022-03-20T08:47:27.000Z</time></trkpt><trkpt lon="5.89503" lat="51.125324"><ele>-8</ele><time>2022-03-20T08:47:28.000Z</time></trkpt><trkpt lon="5.895121" lat="51.125352"><ele>-8</ele><time>2022-03-20T08:47:29.000Z</time></trkpt><trkpt lon="5.895212" lat="51.125379"><ele>-8</ele><time>2022-03-20T08:47:30.000Z</time></trkpt><trkpt lon="5.895303" lat="51.125406"><ele>-8</ele><time>2022-03-20T08:47:31.000Z</time></trkpt><trkpt lon="5.895391" lat="51.125432"><ele>-8.2</ele><time>2022-03-20T08:47:32.000Z</time></trkpt><trkpt lon="5.895482" lat="51.125458"><ele>-8.2</ele><time>2022-03-20T08:47:33.000Z</time></trkpt><trkpt lon="5.895574" lat="51.125486"><ele>-8.2</ele><time>2022-03-20T08:47:34.000Z</time></trkpt><trkpt lon="5.895667" lat="51.125513"><ele>-8.4</ele><time>2022-03-20T08:47:35.000Z</time></trkpt><trkpt lon="5.895759" lat="51.125536"><ele>-8.4</ele><time>2022-03-20T08:47:36.000Z</time></trkpt><trkpt lon="5.895851" lat="51.125562"><ele>-8.4</ele><time>2022-03-20T08:47:37.000Z</time></trkpt><trkpt lon="5.895945" lat="51.12558"><ele>-8.2</ele><time>2022-03-20T08:47:38.000Z</time></trkpt><trkpt lon="5.896044" lat="51.125592"><ele>-8.2</ele><time>2022-03-20T08:47:39.000Z</time></trkpt><trkpt lon="5.896146" lat="51.125601"><ele>-8.2</ele><time>2022-03-20T08:47:40.000Z</time></trkpt><trkpt lon="5.896243" lat="51.1256"><ele>-8</ele><time>2022-03-20T08:47:41.000Z</time></trkpt><trkpt lon="5.89634" lat="51.125593"><ele>-7.8</ele><time>2022-03-20T08:47:42.000Z</time></trkpt><trkpt lon="5.89643" lat="51.125583"><ele>-7.8</ele><time>2022-03-20T08:47:43.000Z</time></trkpt><trkpt lon="5.896515" lat="51.125571"><ele>-7.8</ele><time>2022-03-20T08:47:44.000Z</time></trkpt><trkpt lon="5.896599" lat="51.125563"><ele>-7.8</ele><time>2022-03-20T08:47:45.000Z</time></trkpt><trkpt lon="5.89668" lat="51.125555"><ele>-7.8</ele><time>2022-03-20T08:47:46.000Z</time></trkpt><trkpt lon="5.896753" lat="51.125553"><ele>-7.6</ele><time>2022-03-20T08:47:47.000Z</time></trkpt><trkpt lon="5.89682" lat="51.125556"><ele>-7.6</ele><time>2022-03-20T08:47:48.000Z</time></trkpt><trkpt lon="5.89688" lat="51.125569"><ele>-7.4</ele><time>2022-03-20T08:47:49.000Z</time></trkpt><trkpt lon="5.896928" lat="51.125589"><ele>-7.2</ele><time>2022-03-20T08:47:50.000Z</time></trkpt><trkpt lon="5.896968" lat="51.12561"><ele>-7</ele><time>2022-03-20T08:47:51.000Z</time></trkpt><trkpt lon="5.896999" lat="51.125628"><ele>-7</ele><time>2022-03-20T08:47:52.000Z</time></trkpt><trkpt lon="5.897031" lat="51.125647"><ele>-6.8</ele><time>2022-03-20T08:47:53.000Z</time></trkpt><trkpt lon="5.897069" lat="51.125658"><ele>-6.6</ele><time>2022-03-20T08:47:54.000Z</time></trkpt><trkpt lon="5.897114" lat="51.125657"><ele>-6.6</ele><time>2022-03-20T08:47:55.000Z</time></trkpt><trkpt lon="5.897167" lat="51.12565"><ele>-6.4</ele><time>2022-03-20T08:47:56.000Z</time></trkpt><trkpt lon="5.89722" lat="51.12564"><ele>-6.4</ele><time>2022-03-20T08:47:57.000Z</time></trkpt><trkpt lon="5.89727" lat="51.125632"><ele>-6.2</ele><time>2022-03-20T08:47:58.000Z</time></trkpt><trkpt lon="5.897323" lat="51.125624"><ele>-6.2</ele><time>2022-03-20T08:47:59.000Z</time></trkpt><trkpt lon="5.897372" lat="51.125619"><ele>-6.2</ele><time>2022-03-20T08:48:00.000Z</time></trkpt><trkpt lon="5.897415" lat="51.125621"><ele>-6.2</ele><time>2022-03-20T08:48:01.000Z</time></trkpt><trkpt lon="5.897444" lat="51.125642"><ele>-6.2</ele><time>2022-03-20T08:48:02.000Z</time></trkpt><trkpt lon="5.89746" lat="51.12568"><ele>-6.2</ele><time>2022-03-20T08:48:03.000Z</time></trkpt><trkpt lon="5.897471" lat="51.125731"><ele>-6.4</ele><time>2022-03-20T08:48:04.000Z</time></trkpt><trkpt lon="5.897485" lat="51.125785"><ele>-6.6</ele><time>2022-03-20T08:48:05.000Z</time></trkpt><trkpt lon="5.897502" lat="51.125838"><ele>-6.6</ele><time>2022-03-20T08:48:06.000Z</time></trkpt><trkpt lon="5.897521" lat="51.125889"><ele>-6.8</ele><time>2022-03-20T08:48:07.000Z</time></trkpt><trkpt lon="5.897537" lat="51.125936"><ele>-6.8</ele><time>2022-03-20T08:48:08.000Z</time></trkpt><trkpt lon="5.897554" lat="51.125984"><ele>-6.8</ele><time>2022-03-20T08:48:09.000Z</time></trkpt><trkpt lon="5.897571" lat="51.126034"><ele>-6.6</ele><time>2022-03-20T08:48:10.000Z</time></trkpt><trkpt lon="5.897586" lat="51.12608"><ele>-6.6</ele><time>2022-03-20T08:48:11.000Z</time></trkpt><trkpt lon="5.897603" lat="51.126125"><ele>-6.6</ele><time>2022-03-20T08:48:12.000Z</time></trkpt><trkpt lon="5.89762" lat="51.126174"><ele>-6.8</ele><time>2022-03-20T08:48:13.000Z</time></trkpt><trkpt lon="5.897638" lat="51.126221"><ele>-6.8</ele><time>2022-03-20T08:48:14.000Z</time></trkpt><trkpt lon="5.897654" lat="51.126269"><ele>-7</ele><time>2022-03-20T08:48:15.000Z</time></trkpt><trkpt lon="5.897669" lat="51.126313"><ele>-7</ele><time>2022-03-20T08:48:16.000Z</time></trkpt><trkpt lon="5.897685" lat="51.126358"><ele>-6.8</ele><time>2022-03-20T08:48:17.000Z</time></trkpt><trkpt lon="5.897698" lat="51.1264"><ele>-6.8</ele><time>2022-03-20T08:48:18.000Z</time></trkpt><trkpt lon="5.897713" lat="51.126443"><ele>-6.8</ele><time>2022-03-20T08:48:19.000Z</time></trkpt><trkpt lon="5.897729" lat="51.126481"><ele>-7</ele><time>2022-03-20T08:48:20.000Z</time></trkpt><trkpt lon="5.897743" lat="51.126525"><ele>-7</ele><time>2022-03-20T08:48:21.000Z</time></trkpt><trkpt lon="5.897761" lat="51.126575"><ele>-6.8</ele><time>2022-03-20T08:48:22.000Z</time></trkpt><trkpt lon="5.897781" lat="51.126624"><ele>-6.8</ele><time>2022-03-20T08:48:23.000Z</time></trkpt><trkpt lon="5.897808" lat="51.126675"><ele>-7</ele><time>2022-03-20T08:48:24.000Z</time></trkpt><trkpt lon="5.897844" lat="51.126729"><ele>-7</ele><time>2022-03-20T08:48:25.000Z</time></trkpt><trkpt lon="5.897881" lat="51.126787"><ele>-7.2</ele><time>2022-03-20T08:48:26.000Z</time></trkpt><trkpt lon="5.89792" lat="51.12684"><ele>-7.2</ele><time>2022-03-20T08:48:27.000Z</time></trkpt><trkpt lon="5.897961" lat="51.126894"><ele>-7.4</ele><time>2022-03-20T08:48:28.000Z</time></trkpt><trkpt lon="5.898005" lat="51.126948"><ele>-7.4</ele><time>2022-03-20T08:48:29.000Z</time></trkpt><trkpt lon="5.89805" lat="51.127001"><ele>-7.2</ele><time>2022-03-20T08:48:30.000Z</time></trkpt><trkpt lon="5.898096" lat="51.12705"><ele>-7.2</ele><time>2022-03-20T08:48:31.000Z</time></trkpt><trkpt lon="5.898145" lat="51.1271"><ele>-7.6</ele><time>2022-03-20T08:48:32.000Z</time></trkpt><trkpt lon="5.898199" lat="51.127151"><ele>-8</ele><time>2022-03-20T08:48:33.000Z</time></trkpt><trkpt lon="5.898256" lat="51.127201"><ele>-8.2</ele><time>2022-03-20T08:48:34.000Z</time></trkpt><trkpt lon="5.898316" lat="51.12725"><ele>-8.4</ele><time>2022-03-20T08:48:35.000Z</time></trkpt><trkpt lon="5.898378" lat="51.1273"><ele>-8.6</ele><time>2022-03-20T08:48:36.000Z</time></trkpt><trkpt lon="5.898441" lat="51.127346"><ele>-8.8</ele><time>2022-03-20T08:48:37.000Z</time></trkpt><trkpt lon="5.898506" lat="51.127391"><ele>-9</ele><time>2022-03-20T08:48:38.000Z</time></trkpt><trkpt lon="5.898574" lat="51.127437"><ele>-9.2</ele><time>2022-03-20T08:48:39.000Z</time></trkpt><trkpt lon="5.898646" lat="51.127483"><ele>-9.2</ele><time>2022-03-20T08:48:40.000Z</time></trkpt><trkpt lon="5.898721" lat="51.127526"><ele>-9</ele><time>2022-03-20T08:48:41.000Z</time></trkpt><trkpt lon="5.898796" lat="51.127565"><ele>-9</ele><time>2022-03-20T08:48:42.000Z</time></trkpt><trkpt lon="5.898874" lat="51.127606"><ele>-8.8</ele><time>2022-03-20T08:48:43.000Z</time></trkpt><trkpt lon="5.898951" lat="51.127645"><ele>-8.8</ele><time>2022-03-20T08:48:44.000Z</time></trkpt><trkpt lon="5.899026" lat="51.127681"><ele>-8.8</ele><time>2022-03-20T08:48:45.000Z</time></trkpt><trkpt lon="5.899099" lat="51.127713"><ele>-8.8</ele><time>2022-03-20T08:48:46.000Z</time></trkpt><trkpt lon="5.899169" lat="51.127745"><ele>-8.8</ele><time>2022-03-20T08:48:47.000Z</time></trkpt><trkpt lon="5.899235" lat="51.127777"><ele>-8.8</ele><time>2022-03-20T08:48:48.000Z</time></trkpt><trkpt lon="5.899299" lat="51.127804"><ele>-8.6</ele><time>2022-03-20T08:48:49.000Z</time></trkpt><trkpt lon="5.899359" lat="51.12782"><ele>-8.2</ele><time>2022-03-20T08:48:50.000Z</time></trkpt><trkpt lon="5.89942" lat="51.127811"><ele>-8</ele><time>2022-03-20T08:48:51.000Z</time></trkpt><trkpt lon="5.899481" lat="51.127785"><ele>-7.8</ele><time>2022-03-20T08:48:52.000Z</time></trkpt><trkpt lon="5.899553" lat="51.127763"><ele>-7.6</ele><time>2022-03-20T08:48:53.000Z</time></trkpt><trkpt lon="5.899637" lat="51.127749"><ele>-7.8</ele><time>2022-03-20T08:48:54.000Z</time></trkpt><trkpt lon="5.899725" lat="51.127744"><ele>-7.6</ele><time>2022-03-20T08:48:55.000Z</time></trkpt><trkpt lon="5.899812" lat="51.127731"><ele>-7.6</ele><time>2022-03-20T08:48:56.000Z</time></trkpt><trkpt lon="5.899888" lat="51.127705"><ele>-7.6</ele><time>2022-03-20T08:48:57.000Z</time></trkpt><trkpt lon="5.899955" lat="51.127662"><ele>-7.8</ele><time>2022-03-20T08:48:58.000Z</time></trkpt><trkpt lon="5.900019" lat="51.127606"><ele>-7.8</ele><time>2022-03-20T08:48:59.000Z</time></trkpt><trkpt lon="5.900081" lat="51.127551"><ele>-8</ele><time>2022-03-20T08:49:00.000Z</time></trkpt><trkpt lon="5.90014" lat="51.127494"><ele>-8.2</ele><time>2022-03-20T08:49:01.000Z</time></trkpt><trkpt lon="5.900197" lat="51.127437"><ele>-8.2</ele><time>2022-03-20T08:49:02.000Z</time></trkpt><trkpt lon="5.900254" lat="51.127383"><ele>-8.2</ele><time>2022-03-20T08:49:03.000Z</time></trkpt><trkpt lon="5.900308" lat="51.127326"><ele>-8.2</ele><time>2022-03-20T08:49:04.000Z</time></trkpt><trkpt lon="5.900361" lat="51.127268"><ele>-8.2</ele><time>2022-03-20T08:49:05.000Z</time></trkpt><trkpt lon="5.900412" lat="51.127208"><ele>-8.2</ele><time>2022-03-20T08:49:06.000Z</time></trkpt><trkpt lon="5.900459" lat="51.127148"><ele>-8.2</ele><time>2022-03-20T08:49:07.000Z</time></trkpt><trkpt lon="5.900503" lat="51.127086"><ele>-8.2</ele><time>2022-03-20T08:49:08.000Z</time></trkpt><trkpt lon="5.900544" lat="51.127023"><ele>-8.2</ele><time>2022-03-20T08:49:09.000Z</time></trkpt><trkpt lon="5.900581" lat="51.126959"><ele>-8</ele><time>2022-03-20T08:49:10.000Z</time></trkpt><trkpt lon="5.900614" lat="51.126893"><ele>-7.8</ele><time>2022-03-20T08:49:11.000Z</time></trkpt><trkpt lon="5.900644" lat="51.126828"><ele>-7.8</ele><time>2022-03-20T08:49:12.000Z</time></trkpt><trkpt lon="5.90067" lat="51.126761"><ele>-7.8</ele><time>2022-03-20T08:49:13.000Z</time></trkpt><trkpt lon="5.900695" lat="51.126695"><ele>-7.8</ele><time>2022-03-20T08:49:14.000Z</time></trkpt><trkpt lon="5.90072" lat="51.126633"><ele>-7.6</ele><time>2022-03-20T08:49:15.000Z</time></trkpt><trkpt lon="5.900744" lat="51.126566"><ele>-7.4</ele><time>2022-03-20T08:49:16.000Z</time></trkpt><trkpt lon="5.900764" lat="51.1265"><ele>-7.2</ele><time>2022-03-20T08:49:17.000Z</time></trkpt><trkpt lon="5.900777" lat="51.126434"><ele>-7.2</ele><time>2022-03-20T08:49:18.000Z</time></trkpt><trkpt lon="5.900786" lat="51.126368"><ele>-7</ele><time>2022-03-20T08:49:19.000Z</time></trkpt><trkpt lon="5.900795" lat="51.126302"><ele>-6.8</ele><time>2022-03-20T08:49:20.000Z</time></trkpt><trkpt lon="5.900802" lat="51.126238"><ele>-6.4</ele><time>2022-03-20T08:49:21.000Z</time></trkpt><trkpt lon="5.900808" lat="51.126175"><ele>-6.2</ele><time>2022-03-20T08:49:22.000Z</time></trkpt><trkpt lon="5.900811" lat="51.126114"><ele>-6</ele><time>2022-03-20T08:49:23.000Z</time></trkpt><trkpt lon="5.900815" lat="51.126056"><ele>-5.8</ele><time>2022-03-20T08:49:24.000Z</time></trkpt><trkpt lon="5.900816" lat="51.125999"><ele>-5.6</ele><time>2022-03-20T08:49:25.000Z</time></trkpt><trkpt lon="5.900816" lat="51.125944"><ele>-5.6</ele><time>2022-03-20T08:49:26.000Z</time></trkpt><trkpt lon="5.900815" lat="51.125888"><ele>-5.4</ele><time>2022-03-20T08:49:27.000Z</time></trkpt><trkpt lon="5.90081" lat="51.125829"><ele>-5.2</ele><time>2022-03-20T08:49:28.000Z</time></trkpt><trkpt lon="5.900801" lat="51.125768"><ele>-5.2</ele><time>2022-03-20T08:49:29.000Z</time></trkpt><trkpt lon="5.90079" lat="51.125703"><ele>-5</ele><time>2022-03-20T08:49:30.000Z</time></trkpt><trkpt lon="5.90078" lat="51.125639"><ele>-4.8</ele><time>2022-03-20T08:49:31.000Z</time></trkpt><trkpt lon="5.900772" lat="51.125571"><ele>-4.8</ele><time>2022-03-20T08:49:32.000Z</time></trkpt><trkpt lon="5.900765" lat="51.125503"><ele>-4.8</ele><time>2022-03-20T08:49:33.000Z</time></trkpt><trkpt lon="5.900757" lat="51.125432"><ele>-4.6</ele><time>2022-03-20T08:49:34.000Z</time></trkpt><trkpt lon="5.900747" lat="51.12536"><ele>-4.6</ele><time>2022-03-20T08:49:35.000Z</time></trkpt><trkpt lon="5.90074" lat="51.125294"><ele>-4.6</ele><time>2022-03-20T08:49:36.000Z</time></trkpt><trkpt lon="5.900733" lat="51.125229"><ele>-4.6</ele><time>2022-03-20T08:49:37.000Z</time></trkpt><trkpt lon="5.900728" lat="51.125167"><ele>-4.6</ele><time>2022-03-20T08:49:38.000Z</time></trkpt><trkpt lon="5.900723" lat="51.125101"><ele>-4.6</ele><time>2022-03-20T08:49:39.000Z</time></trkpt><trkpt lon="5.900718" lat="51.125038"><ele>-4.6</ele><time>2022-03-20T08:49:40.000Z</time></trkpt><trkpt lon="5.900713" lat="51.124978"><ele>-4.8</ele><time>2022-03-20T08:49:41.000Z</time></trkpt><trkpt lon="5.900709" lat="51.124923"><ele>-4.8</ele><time>2022-03-20T08:49:42.000Z</time></trkpt><trkpt lon="5.900708" lat="51.124861"><ele>-5</ele><time>2022-03-20T08:49:43.000Z</time></trkpt><trkpt lon="5.900703" lat="51.124796"><ele>-5</ele><time>2022-03-20T08:49:44.000Z</time></trkpt><trkpt lon="5.900696" lat="51.124728"><ele>-5.2</ele><time>2022-03-20T08:49:45.000Z</time></trkpt><trkpt lon="5.90069" lat="51.124656"><ele>-5.4</ele><time>2022-03-20T08:49:46.000Z</time></trkpt><trkpt lon="5.900686" lat="51.124583"><ele>-5.6</ele><time>2022-03-20T08:49:47.000Z</time></trkpt><trkpt lon="5.90068" lat="51.124505"><ele>-5.8</ele><time>2022-03-20T08:49:48.000Z</time></trkpt><trkpt lon="5.900673" lat="51.124425"><ele>-5.8</ele><time>2022-03-20T08:49:49.000Z</time></trkpt><trkpt lon="5.900667" lat="51.124346"><ele>-6</ele><time>2022-03-20T08:49:50.000Z</time></trkpt><trkpt lon="5.900662" lat="51.124268"><ele>-6</ele><time>2022-03-20T08:49:51.000Z</time></trkpt><trkpt lon="5.90066" lat="51.124191"><ele>-6.2</ele><time>2022-03-20T08:49:52.000Z</time></trkpt><trkpt lon="5.900658" lat="51.124114"><ele>-6.4</ele><time>2022-03-20T08:49:53.000Z</time></trkpt><trkpt lon="5.90066" lat="51.12404"><ele>-6.4</ele><time>2022-03-20T08:49:54.000Z</time></trkpt><trkpt lon="5.900663" lat="51.123969"><ele>-6.4</ele><time>2022-03-20T08:49:55.000Z</time></trkpt><trkpt lon="5.900666" lat="51.123899"><ele>-6.4</ele><time>2022-03-20T08:49:56.000Z</time></trkpt><trkpt lon="5.90067" lat="51.123827"><ele>-6.4</ele><time>2022-03-20T08:49:57.000Z</time></trkpt><trkpt lon="5.900676" lat="51.123756"><ele>-6.4</ele><time>2022-03-20T08:49:58.000Z</time></trkpt><trkpt lon="5.900682" lat="51.123686"><ele>-6.4</ele><time>2022-03-20T08:49:59.000Z</time></trkpt><trkpt lon="5.900692" lat="51.123616"><ele>-6.4</ele><time>2022-03-20T08:50:00.000Z</time></trkpt><trkpt lon="5.900705" lat="51.123546"><ele>-6.4</ele><time>2022-03-20T08:50:01.000Z</time></trkpt><trkpt lon="5.900717" lat="51.123476"><ele>-6.4</ele><time>2022-03-20T08:50:02.000Z</time></trkpt><trkpt lon="5.900728" lat="51.123406"><ele>-6.4</ele><time>2022-03-20T08:50:03.000Z</time></trkpt><trkpt lon="5.900739" lat="51.123337"><ele>-6.4</ele><time>2022-03-20T08:50:04.000Z</time></trkpt><trkpt lon="5.900749" lat="51.123269"><ele>-6.6</ele><time>2022-03-20T08:50:05.000Z</time></trkpt><trkpt lon="5.900757" lat="51.1232"><ele>-6.6</ele><time>2022-03-20T08:50:06.000Z</time></trkpt><trkpt lon="5.900767" lat="51.123131"><ele>-6.6</ele><time>2022-03-20T08:50:07.000Z</time></trkpt><trkpt lon="5.900778" lat="51.123064"><ele>-6.6</ele><time>2022-03-20T08:50:08.000Z</time></trkpt><trkpt lon="5.900785" lat="51.122995"><ele>-6.6</ele><time>2022-03-20T08:50:09.000Z</time></trkpt><trkpt lon="5.900791" lat="51.122929"><ele>-6.6</ele><time>2022-03-20T08:50:10.000Z</time></trkpt><trkpt lon="5.900799" lat="51.122862"><ele>-6.6</ele><time>2022-03-20T08:50:11.000Z</time></trkpt><trkpt lon="5.900811" lat="51.122795"><ele>-6.6</ele><time>2022-03-20T08:50:12.000Z</time></trkpt><trkpt lon="5.900823" lat="51.122727"><ele>-6.6</ele><time>2022-03-20T08:50:13.000Z</time></trkpt><trkpt lon="5.900837" lat="51.122659"><ele>-6.6</ele><time>2022-03-20T08:50:14.000Z</time></trkpt><trkpt lon="5.900854" lat="51.122593"><ele>-6.8</ele><time>2022-03-20T08:50:15.000Z</time></trkpt><trkpt lon="5.900874" lat="51.122528"><ele>-6.8</ele><time>2022-03-20T08:50:16.000Z</time></trkpt><trkpt lon="5.900896" lat="51.12246"><ele>-6.6</ele><time>2022-03-20T08:50:17.000Z</time></trkpt><trkpt lon="5.900924" lat="51.122395"><ele>-6.6</ele><time>2022-03-20T08:50:18.000Z</time></trkpt><trkpt lon="5.900956" lat="51.122333"><ele>-6.4</ele><time>2022-03-20T08:50:19.000Z</time></trkpt><trkpt lon="5.900987" lat="51.122272"><ele>-6.6</ele><time>2022-03-20T08:50:20.000Z</time></trkpt><trkpt lon="5.901022" lat="51.122216"><ele>-6.4</ele><time>2022-03-20T08:50:21.000Z</time></trkpt><trkpt lon="5.901058" lat="51.12216"><ele>-6.6</ele><time>2022-03-20T08:50:22.000Z</time></trkpt><trkpt lon="5.901096" lat="51.122106"><ele>-6.6</ele><time>2022-03-20T08:50:23.000Z</time></trkpt><trkpt lon="5.901132" lat="51.122055"><ele>-6.6</ele><time>2022-03-20T08:50:24.000Z</time></trkpt><trkpt lon="5.901171" lat="51.122003"><ele>-6.6</ele><time>2022-03-20T08:50:25.000Z</time></trkpt><trkpt lon="5.901212" lat="51.12195"><ele>-6.6</ele><time>2022-03-20T08:50:26.000Z</time></trkpt><trkpt lon="5.901258" lat="51.121891"><ele>-6.6</ele><time>2022-03-20T08:50:27.000Z</time></trkpt><trkpt lon="5.901309" lat="51.12183"><ele>-6.6</ele><time>2022-03-20T08:50:28.000Z</time></trkpt><trkpt lon="5.901356" lat="51.121763"><ele>-6.6</ele><time>2022-03-20T08:50:29.000Z</time></trkpt><trkpt lon="5.901395" lat="51.121695"><ele>-6.8</ele><time>2022-03-20T08:50:30.000Z</time></trkpt><trkpt lon="5.901428" lat="51.121622"><ele>-6.8</ele><time>2022-03-20T08:50:31.000Z</time></trkpt><trkpt lon="5.90145" lat="51.121554"><ele>-6.8</ele><time>2022-03-20T08:50:32.000Z</time></trkpt><trkpt lon="5.901465" lat="51.121481"><ele>-6.8</ele><time>2022-03-20T08:50:33.000Z</time></trkpt><trkpt lon="5.901473" lat="51.121411"><ele>-6.8</ele><time>2022-03-20T08:50:34.000Z</time></trkpt><trkpt lon="5.901471" lat="51.121342"><ele>-6.8</ele><time>2022-03-20T08:50:35.000Z</time></trkpt><trkpt lon="5.90146" lat="51.121274"><ele>-6.8</ele><time>2022-03-20T08:50:36.000Z</time></trkpt><trkpt lon="5.90144" lat="51.121202"><ele>-6.6</ele><time>2022-03-20T08:50:37.000Z</time></trkpt><trkpt lon="5.90141" lat="51.121133"><ele>-6.8</ele><time>2022-03-20T08:50:38.000Z</time></trkpt><trkpt lon="5.901372" lat="51.121067"><ele>-6.8</ele><time>2022-03-20T08:50:39.000Z</time></trkpt><trkpt lon="5.901333" lat="51.121002"><ele>-6.8</ele><time>2022-03-20T08:50:40.000Z</time></trkpt><trkpt lon="5.90129" lat="51.120938"><ele>-6.8</ele><time>2022-03-20T08:50:41.000Z</time></trkpt><trkpt lon="5.901247" lat="51.120876"><ele>-6.8</ele><time>2022-03-20T08:50:42.000Z</time></trkpt><trkpt lon="5.901205" lat="51.120815"><ele>-6.8</ele><time>2022-03-20T08:50:43.000Z</time></trkpt><trkpt lon="5.901162" lat="51.120754"><ele>-6.6</ele><time>2022-03-20T08:50:44.000Z</time></trkpt><trkpt lon="5.901113" lat="51.120692"><ele>-6.6</ele><time>2022-03-20T08:50:45.000Z</time></trkpt><trkpt lon="5.901061" lat="51.120632"><ele>-6.6</ele><time>2022-03-20T08:50:46.000Z</time></trkpt><trkpt lon="5.901007" lat="51.120571"><ele>-6.6</ele><time>2022-03-20T08:50:47.000Z</time></trkpt><trkpt lon="5.900952" lat="51.120509"><ele>-6.6</ele><time>2022-03-20T08:50:48.000Z</time></trkpt><trkpt lon="5.9009" lat="51.120451"><ele>-6.4</ele><time>2022-03-20T08:50:49.000Z</time></trkpt><trkpt lon="5.900853" lat="51.120391"><ele>-6.4</ele><time>2022-03-20T08:50:50.000Z</time></trkpt><trkpt lon="5.900809" lat="51.120334"><ele>-6.4</ele><time>2022-03-20T08:50:51.000Z</time></trkpt><trkpt lon="5.900763" lat="51.120276"><ele>-6.4</ele><time>2022-03-20T08:50:52.000Z</time></trkpt><trkpt lon="5.900716" lat="51.120218"><ele>-6.4</ele><time>2022-03-20T08:50:53.000Z</time></trkpt><trkpt lon="5.90067" lat="51.120161"><ele>-6.4</ele><time>2022-03-20T08:50:54.000Z</time></trkpt><trkpt lon="5.900623" lat="51.120101"><ele>-6.4</ele><time>2022-03-20T08:50:55.000Z</time></trkpt><trkpt lon="5.900573" lat="51.120043"><ele>-6.4</ele><time>2022-03-20T08:50:56.000Z</time></trkpt><trkpt lon="5.900525" lat="51.119983"><ele>-6.4</ele><time>2022-03-20T08:50:57.000Z</time></trkpt><trkpt lon="5.900475" lat="51.119924"><ele>-6.4</ele><time>2022-03-20T08:50:58.000Z</time></trkpt><trkpt lon="5.900425" lat="51.119864"><ele>-6.4</ele><time>2022-03-20T08:50:59.000Z</time></trkpt><trkpt lon="5.900374" lat="51.119807"><ele>-6.4</ele><time>2022-03-20T08:51:00.000Z</time></trkpt><trkpt lon="5.900324" lat="51.119747"><ele>-6.4</ele><time>2022-03-20T08:51:01.000Z</time></trkpt><trkpt lon="5.900274" lat="51.119689"><ele>-6.4</ele><time>2022-03-20T08:51:02.000Z</time></trkpt><trkpt lon="5.900226" lat="51.119631"><ele>-6.6</ele><time>2022-03-20T08:51:03.000Z</time></trkpt><trkpt lon="5.90018" lat="51.119573"><ele>-6.6</ele><time>2022-03-20T08:51:04.000Z</time></trkpt><trkpt lon="5.900134" lat="51.119516"><ele>-6.6</ele><time>2022-03-20T08:51:05.000Z</time></trkpt><trkpt lon="5.900096" lat="51.119453"><ele>-6.6</ele><time>2022-03-20T08:51:06.000Z</time></trkpt><trkpt lon="5.900072" lat="51.119388"><ele>-6.4</ele><time>2022-03-20T08:51:07.000Z</time></trkpt><trkpt lon="5.90006" lat="51.119324"><ele>-6.4</ele><time>2022-03-20T08:51:08.000Z</time></trkpt><trkpt lon="5.900061" lat="51.119253"><ele>-6.6</ele><time>2022-03-20T08:51:09.000Z</time></trkpt><trkpt lon="5.900071" lat="51.119187"><ele>-6.6</ele><time>2022-03-20T08:51:10.000Z</time></trkpt><trkpt lon="5.900085" lat="51.119119"><ele>-6.6</ele><time>2022-03-20T08:51:11.000Z</time></trkpt><trkpt lon="5.900097" lat="51.119053"><ele>-6.6</ele><time>2022-03-20T08:51:12.000Z</time></trkpt><trkpt lon="5.900112" lat="51.118988"><ele>-6.8</ele><time>2022-03-20T08:51:13.000Z</time></trkpt><trkpt lon="5.900125" lat="51.118924"><ele>-6.8</ele><time>2022-03-20T08:51:14.000Z</time></trkpt><trkpt lon="5.900138" lat="51.118862"><ele>-6.8</ele><time>2022-03-20T08:51:15.000Z</time></trkpt><trkpt lon="5.900153" lat="51.118798"><ele>-6.8</ele><time>2022-03-20T08:51:16.000Z</time></trkpt><trkpt lon="5.900166" lat="51.118732"><ele>-6.8</ele><time>2022-03-20T08:51:17.000Z</time></trkpt><trkpt lon="5.900177" lat="51.118668"><ele>-6.8</ele><time>2022-03-20T08:51:18.000Z</time></trkpt><trkpt lon="5.90019" lat="51.118603"><ele>-7</ele><time>2022-03-20T08:51:19.000Z</time></trkpt><trkpt lon="5.900201" lat="51.118538"><ele>-6.8</ele><time>2022-03-20T08:51:20.000Z</time></trkpt><trkpt lon="5.900206" lat="51.118473"><ele>-6.8</ele><time>2022-03-20T08:51:21.000Z</time></trkpt><trkpt lon="5.900203" lat="51.118408"><ele>-6.8</ele><time>2022-03-20T08:51:22.000Z</time></trkpt><trkpt lon="5.900195" lat="51.118344"><ele>-6.8</ele><time>2022-03-20T08:51:23.000Z</time></trkpt><trkpt lon="5.900186" lat="51.118279"><ele>-6.8</ele><time>2022-03-20T08:51:24.000Z</time></trkpt><trkpt lon="5.900176" lat="51.118211"><ele>-6.6</ele><time>2022-03-20T08:51:25.000Z</time></trkpt><trkpt lon="5.900168" lat="51.118145"><ele>-6.6</ele><time>2022-03-20T08:51:26.000Z</time></trkpt><trkpt lon="5.900159" lat="51.118077"><ele>-6.6</ele><time>2022-03-20T08:51:27.000Z</time></trkpt><trkpt lon="5.900141" lat="51.118012"><ele>-6.4</ele><time>2022-03-20T08:51:28.000Z</time></trkpt><trkpt lon="5.900111" lat="51.117947"><ele>-6.4</ele><time>2022-03-20T08:51:29.000Z</time></trkpt><trkpt lon="5.900073" lat="51.117884"><ele>-6.4</ele><time>2022-03-20T08:51:30.000Z</time></trkpt><trkpt lon="5.900031" lat="51.117823"><ele>-6.4</ele><time>2022-03-20T08:51:31.000Z</time></trkpt><trkpt lon="5.89999" lat="51.117763"><ele>-6.4</ele><time>2022-03-20T08:51:32.000Z</time></trkpt><trkpt lon="5.899952" lat="51.117699"><ele>-6.6</ele><time>2022-03-20T08:51:33.000Z</time></trkpt><trkpt lon="5.899917" lat="51.117638"><ele>-6.6</ele><time>2022-03-20T08:51:34.000Z</time></trkpt><trkpt lon="5.899881" lat="51.117579"><ele>-6.6</ele><time>2022-03-20T08:51:35.000Z</time></trkpt><trkpt lon="5.899848" lat="51.117518"><ele>-6.6</ele><time>2022-03-20T08:51:36.000Z</time></trkpt><trkpt lon="5.899814" lat="51.11746"><ele>-6.6</ele><time>2022-03-20T08:51:37.000Z</time></trkpt><trkpt lon="5.899778" lat="51.1174"><ele>-6.6</ele><time>2022-03-20T08:51:38.000Z</time></trkpt><trkpt lon="5.899745" lat="51.117342"><ele>-6.4</ele><time>2022-03-20T08:51:39.000Z</time></trkpt><trkpt lon="5.89971" lat="51.117285"><ele>-6.4</ele><time>2022-03-20T08:51:40.000Z</time></trkpt><trkpt lon="5.899673" lat="51.117222"><ele>-6.4</ele><time>2022-03-20T08:51:41.000Z</time></trkpt><trkpt lon="5.899636" lat="51.117158"><ele>-6.2</ele><time>2022-03-20T08:51:42.000Z</time></trkpt><trkpt lon="5.899597" lat="51.117089"><ele>-6.2</ele><time>2022-03-20T08:51:43.000Z</time></trkpt><trkpt lon="5.89956" lat="51.11702"><ele>-6</ele><time>2022-03-20T08:51:44.000Z</time></trkpt><trkpt lon="5.899522" lat="51.116955"><ele>-6</ele><time>2022-03-20T08:51:45.000Z</time></trkpt><trkpt lon="5.899487" lat="51.11689"><ele>-6</ele><time>2022-03-20T08:51:46.000Z</time></trkpt><trkpt lon="5.899456" lat="51.116825"><ele>-6</ele><time>2022-03-20T08:51:47.000Z</time></trkpt><trkpt lon="5.899426" lat="51.116763"><ele>-6</ele><time>2022-03-20T08:51:48.000Z</time></trkpt><trkpt lon="5.899398" lat="51.116702"><ele>-5.8</ele><time>2022-03-20T08:51:49.000Z</time></trkpt><trkpt lon="5.899375" lat="51.116641"><ele>-5.8</ele><time>2022-03-20T08:51:50.000Z</time></trkpt><trkpt lon="5.899356" lat="51.116577"><ele>-5.8</ele><time>2022-03-20T08:51:51.000Z</time></trkpt><trkpt lon="5.899339" lat="51.116516"><ele>-5.8</ele><time>2022-03-20T08:51:52.000Z</time></trkpt><trkpt lon="5.89932" lat="51.116452"><ele>-6</ele><time>2022-03-20T08:51:53.000Z</time></trkpt><trkpt lon="5.899297" lat="51.116389"><ele>-6</ele><time>2022-03-20T08:51:54.000Z</time></trkpt><trkpt lon="5.899276" lat="51.116325"><ele>-6</ele><time>2022-03-20T08:51:55.000Z</time></trkpt><trkpt lon="5.899254" lat="51.116264"><ele>-6</ele><time>2022-03-20T08:51:56.000Z</time></trkpt><trkpt lon="5.899232" lat="51.116202"><ele>-6</ele><time>2022-03-20T08:51:57.000Z</time></trkpt><trkpt lon="5.89921" lat="51.116138"><ele>-6</ele><time>2022-03-20T08:51:58.000Z</time></trkpt><trkpt lon="5.899188" lat="51.116074"><ele>-6</ele><time>2022-03-20T08:51:59.000Z</time></trkpt><trkpt lon="5.899168" lat="51.116012"><ele>-6</ele><time>2022-03-20T08:52:00.000Z</time></trkpt><trkpt lon="5.89915" lat="51.115948"><ele>-6.2</ele><time>2022-03-20T08:52:01.000Z</time></trkpt><trkpt lon="5.899131" lat="51.115886"><ele>-6.4</ele><time>2022-03-20T08:52:02.000Z</time></trkpt><trkpt lon="5.899113" lat="51.115822"><ele>-6.4</ele><time>2022-03-20T08:52:03.000Z</time></trkpt><trkpt lon="5.899097" lat="51.115757"><ele>-6.2</ele><time>2022-03-20T08:52:04.000Z</time></trkpt><trkpt lon="5.899087" lat="51.115691"><ele>-6.2</ele><time>2022-03-20T08:52:05.000Z</time></trkpt><trkpt lon="5.899084" lat="51.115624"><ele>-6.2</ele><time>2022-03-20T08:52:06.000Z</time></trkpt><trkpt lon="5.899088" lat="51.115555"><ele>-6.2</ele><time>2022-03-20T08:52:07.000Z</time></trkpt><trkpt lon="5.899099" lat="51.115487"><ele>-6.4</ele><time>2022-03-20T08:52:08.000Z</time></trkpt><trkpt lon="5.899113" lat="51.115418"><ele>-6.2</ele><time>2022-03-20T08:52:09.000Z</time></trkpt><trkpt lon="5.899132" lat="51.11535"><ele>-6.2</ele><time>2022-03-20T08:52:10.000Z</time></trkpt><trkpt lon="5.89916" lat="51.115284"><ele>-6.2</ele><time>2022-03-20T08:52:11.000Z</time></trkpt><trkpt lon="5.899192" lat="51.115222"><ele>-6.2</ele><time>2022-03-20T08:52:12.000Z</time></trkpt><trkpt lon="5.89923" lat="51.115162"><ele>-6.2</ele><time>2022-03-20T08:52:13.000Z</time></trkpt><trkpt lon="5.899274" lat="51.115103"><ele>-6.2</ele><time>2022-03-20T08:52:14.000Z</time></trkpt><trkpt lon="5.899323" lat="51.115045"><ele>-6.2</ele><time>2022-03-20T08:52:15.000Z</time></trkpt><trkpt lon="5.899375" lat="51.114995"><ele>-6.2</ele><time>2022-03-20T08:52:16.000Z</time></trkpt><trkpt lon="5.899433" lat="51.114945"><ele>-6.4</ele><time>2022-03-20T08:52:17.000Z</time></trkpt><trkpt lon="5.899491" lat="51.114895"><ele>-6.6</ele><time>2022-03-20T08:52:18.000Z</time></trkpt><trkpt lon="5.899548" lat="51.114849"><ele>-6.6</ele><time>2022-03-20T08:52:19.000Z</time></trkpt><trkpt lon="5.899604" lat="51.114803"><ele>-6.4</ele><time>2022-03-20T08:52:20.000Z</time></trkpt><trkpt lon="5.899661" lat="51.114757"><ele>-6.2</ele><time>2022-03-20T08:52:21.000Z</time></trkpt><trkpt lon="5.899718" lat="51.114709"><ele>-6</ele><time>2022-03-20T08:52:22.000Z</time></trkpt><trkpt lon="5.899777" lat="51.114664"><ele>-6</ele><time>2022-03-20T08:52:23.000Z</time></trkpt><trkpt lon="5.899844" lat="51.114628"><ele>-6</ele><time>2022-03-20T08:52:24.000Z</time></trkpt><trkpt lon="5.899917" lat="51.1146"><ele>-5.8</ele><time>2022-03-20T08:52:25.000Z</time></trkpt><trkpt lon="5.900001" lat="51.114585"><ele>-5.8</ele><time>2022-03-20T08:52:26.000Z</time></trkpt><trkpt lon="5.9001" lat="51.114591"><ele>-5.8</ele><time>2022-03-20T08:52:27.000Z</time></trkpt><trkpt lon="5.900198" lat="51.114605"><ele>-6</ele><time>2022-03-20T08:52:28.000Z</time></trkpt><trkpt lon="5.900293" lat="51.114626"><ele>-6</ele><time>2022-03-20T08:52:29.000Z</time></trkpt><trkpt lon="5.900378" lat="51.114643"><ele>-6</ele><time>2022-03-20T08:52:30.000Z</time></trkpt><trkpt lon="5.900455" lat="51.114658"><ele>-6</ele><time>2022-03-20T08:52:31.000Z</time></trkpt><trkpt lon="5.90053" lat="51.114674"><ele>-6</ele><time>2022-03-20T08:52:32.000Z</time></trkpt><trkpt lon="5.900606" lat="51.114683"><ele>-5.8</ele><time>2022-03-20T08:52:33.000Z</time></trkpt><trkpt lon="5.900678" lat="51.114676"><ele>-5.8</ele><time>2022-03-20T08:52:34.000Z</time></trkpt><trkpt lon="5.90074" lat="51.114656"><ele>-5.6</ele><time>2022-03-20T08:52:35.000Z</time></trkpt><trkpt lon="5.900788" lat="51.114616"><ele>-5.6</ele><time>2022-03-20T08:52:36.000Z</time></trkpt><trkpt lon="5.900828" lat="51.114563"><ele>-5.6</ele><time>2022-03-20T08:52:37.000Z</time></trkpt><trkpt lon="5.900871" lat="51.114496"><ele>-5.6</ele><time>2022-03-20T08:52:38.000Z</time></trkpt><trkpt lon="5.900915" lat="51.114426"><ele>-5.8</ele><time>2022-03-20T08:52:39.000Z</time></trkpt><trkpt lon="5.900961" lat="51.114361"><ele>-5.6</ele><time>2022-03-20T08:52:40.000Z</time></trkpt><trkpt lon="5.901008" lat="51.114296"><ele>-5.6</ele><time>2022-03-20T08:52:41.000Z</time></trkpt><trkpt lon="5.901055" lat="51.114235"><ele>-5.6</ele><time>2022-03-20T08:52:42.000Z</time></trkpt><trkpt lon="5.9011" lat="51.11417"><ele>-5.6</ele><time>2022-03-20T08:52:43.000Z</time></trkpt><trkpt lon="5.901139" lat="51.114112"><ele>-5.6</ele><time>2022-03-20T08:52:44.000Z</time></trkpt><trkpt lon="5.901176" lat="51.114051"><ele>-5.4</ele><time>2022-03-20T08:52:45.000Z</time></trkpt><trkpt lon="5.901211" lat="51.11399"><ele>-5.4</ele><time>2022-03-20T08:52:46.000Z</time></trkpt><trkpt lon="5.901239" lat="51.113931"><ele>-5.4</ele><time>2022-03-20T08:52:47.000Z</time></trkpt><trkpt lon="5.901271" lat="51.113868"><ele>-5.4</ele><time>2022-03-20T08:52:48.000Z</time></trkpt><trkpt lon="5.901307" lat="51.113807"><ele>-5.6</ele><time>2022-03-20T08:52:49.000Z</time></trkpt><trkpt lon="5.90134" lat="51.113746"><ele>-5.6</ele><time>2022-03-20T08:52:50.000Z</time></trkpt><trkpt lon="5.901371" lat="51.113685"><ele>-5.4</ele><time>2022-03-20T08:52:51.000Z</time></trkpt><trkpt lon="5.901404" lat="51.113626"><ele>-5.4</ele><time>2022-03-20T08:52:52.000Z</time></trkpt><trkpt lon="5.901441" lat="51.113564"><ele>-5.4</ele><time>2022-03-20T08:52:53.000Z</time></trkpt><trkpt lon="5.901482" lat="51.113502"><ele>-5.4</ele><time>2022-03-20T08:52:54.000Z</time></trkpt><trkpt lon="5.901521" lat="51.113441"><ele>-5.4</ele><time>2022-03-20T08:52:55.000Z</time></trkpt><trkpt lon="5.901556" lat="51.11338"><ele>-5.4</ele><time>2022-03-20T08:52:56.000Z</time></trkpt><trkpt lon="5.901593" lat="51.113319"><ele>-5.4</ele><time>2022-03-20T08:52:57.000Z</time></trkpt><trkpt lon="5.90163" lat="51.113257"><ele>-5.4</ele><time>2022-03-20T08:52:58.000Z</time></trkpt><trkpt lon="5.901665" lat="51.113193"><ele>-5.4</ele><time>2022-03-20T08:52:59.000Z</time></trkpt><trkpt lon="5.901698" lat="51.113134"><ele>-5.4</ele><time>2022-03-20T08:53:00.000Z</time></trkpt><trkpt lon="5.901732" lat="51.113075"><ele>-5.2</ele><time>2022-03-20T08:53:01.000Z</time></trkpt><trkpt lon="5.901764" lat="51.11301"><ele>-5.2</ele><time>2022-03-20T08:53:02.000Z</time></trkpt><trkpt lon="5.901796" lat="51.112952"><ele>-5.4</ele><time>2022-03-20T08:53:03.000Z</time></trkpt><trkpt lon="5.901827" lat="51.112892"><ele>-5.4</ele><time>2022-03-20T08:53:04.000Z</time></trkpt><trkpt lon="5.901861" lat="51.112836"><ele>-5.6</ele><time>2022-03-20T08:53:05.000Z</time></trkpt><trkpt lon="5.901899" lat="51.112777"><ele>-5.4</ele><time>2022-03-20T08:53:06.000Z</time></trkpt><trkpt lon="5.901943" lat="51.112721"><ele>-5.4</ele><time>2022-03-20T08:53:07.000Z</time></trkpt><trkpt lon="5.901991" lat="51.112671"><ele>-5.4</ele><time>2022-03-20T08:53:08.000Z</time></trkpt><trkpt lon="5.90204" lat="51.112624"><ele>-5.4</ele><time>2022-03-20T08:53:09.000Z</time></trkpt><trkpt lon="5.902089" lat="51.112584"><ele>-5.2</ele><time>2022-03-20T08:53:10.000Z</time></trkpt><trkpt lon="5.902134" lat="51.112549"><ele>-5</ele><time>2022-03-20T08:53:11.000Z</time></trkpt><trkpt lon="5.902169" lat="51.112515"><ele>-5</ele><time>2022-03-20T08:53:12.000Z</time></trkpt><trkpt lon="5.902193" lat="51.112478"><ele>-5</ele><time>2022-03-20T08:53:13.000Z</time></trkpt><trkpt lon="5.9022" lat="51.112437"><ele>-5</ele><time>2022-03-20T08:53:14.000Z</time></trkpt><trkpt lon="5.902184" lat="51.112398"><ele>-5</ele><time>2022-03-20T08:53:15.000Z</time></trkpt><trkpt lon="5.90214" lat="51.112356"><ele>-5</ele><time>2022-03-20T08:53:16.000Z</time></trkpt><trkpt lon="5.902076" lat="51.112317"><ele>-5</ele><time>2022-03-20T08:53:17.000Z</time></trkpt><trkpt lon="5.902003" lat="51.112277"><ele>-5</ele><time>2022-03-20T08:53:18.000Z</time></trkpt><trkpt lon="5.901927" lat="51.112229"><ele>-5</ele><time>2022-03-20T08:53:19.000Z</time></trkpt><trkpt lon="5.901851" lat="51.112179"><ele>-5</ele><time>2022-03-20T08:53:20.000Z</time></trkpt><trkpt lon="5.901779" lat="51.112127"><ele>-5</ele><time>2022-03-20T08:53:21.000Z</time></trkpt><trkpt lon="5.901708" lat="51.112073"><ele>-5</ele><time>2022-03-20T08:53:22.000Z</time></trkpt><trkpt lon="5.901638" lat="51.112023"><ele>-5</ele><time>2022-03-20T08:53:23.000Z</time></trkpt><trkpt lon="5.90157" lat="51.111976"><ele>-5</ele><time>2022-03-20T08:53:24.000Z</time></trkpt><trkpt lon="5.901504" lat="51.111926"><ele>-5</ele><time>2022-03-20T08:53:25.000Z</time></trkpt><trkpt lon="5.901439" lat="51.111874"><ele>-5</ele><time>2022-03-20T08:53:26.000Z</time></trkpt><trkpt lon="5.901376" lat="51.111824"><ele>-5</ele><time>2022-03-20T08:53:27.000Z</time></trkpt><trkpt lon="5.901314" lat="51.111775"><ele>-5</ele><time>2022-03-20T08:53:28.000Z</time></trkpt><trkpt lon="5.901255" lat="51.111723"><ele>-5.2</ele><time>2022-03-20T08:53:29.000Z</time></trkpt><trkpt lon="5.90119" lat="51.111672"><ele>-5.2</ele><time>2022-03-20T08:53:30.000Z</time></trkpt><trkpt lon="5.901124" lat="51.111625"><ele>-5.4</ele><time>2022-03-20T08:53:31.000Z</time></trkpt><trkpt lon="5.90106" lat="51.111579"><ele>-5.4</ele><time>2022-03-20T08:53:32.000Z</time></trkpt><trkpt lon="5.900999" lat="51.111533"><ele>-5.6</ele><time>2022-03-20T08:53:33.000Z</time></trkpt><trkpt lon="5.900941" lat="51.111487"><ele>-5.6</ele><time>2022-03-20T08:53:34.000Z</time></trkpt><trkpt lon="5.900885" lat="51.111439"><ele>-5.8</ele><time>2022-03-20T08:53:35.000Z</time></trkpt><trkpt lon="5.900828" lat="51.111392"><ele>-5.8</ele><time>2022-03-20T08:53:36.000Z</time></trkpt><trkpt lon="5.900771" lat="51.11134"><ele>-5.6</ele><time>2022-03-20T08:53:37.000Z</time></trkpt><trkpt lon="5.900715" lat="51.11129"><ele>-5.6</ele><time>2022-03-20T08:53:38.000Z</time></trkpt><trkpt lon="5.900653" lat="51.111238"><ele>-5.4</ele><time>2022-03-20T08:53:39.000Z</time></trkpt><trkpt lon="5.90059" lat="51.111184"><ele>-5.4</ele><time>2022-03-20T08:53:40.000Z</time></trkpt><trkpt lon="5.900524" lat="51.111131"><ele>-5.2</ele><time>2022-03-20T08:53:41.000Z</time></trkpt><trkpt lon="5.900459" lat="51.111078"><ele>-5.2</ele><time>2022-03-20T08:53:42.000Z</time></trkpt><trkpt lon="5.900394" lat="51.111024"><ele>-5.2</ele><time>2022-03-20T08:53:43.000Z</time></trkpt><trkpt lon="5.90033" lat="51.110971"><ele>-5.2</ele><time>2022-03-20T08:53:44.000Z</time></trkpt><trkpt lon="5.900268" lat="51.11092"><ele>-5.2</ele><time>2022-03-20T08:53:45.000Z</time></trkpt><trkpt lon="5.900208" lat="51.11087"><ele>-5.2</ele><time>2022-03-20T08:53:46.000Z</time></trkpt><trkpt lon="5.900151" lat="51.110821"><ele>-5.2</ele><time>2022-03-20T08:53:47.000Z</time></trkpt><trkpt lon="5.900089" lat="51.110774"><ele>-5.2</ele><time>2022-03-20T08:53:48.000Z</time></trkpt><trkpt lon="5.900028" lat="51.110725"><ele>-5.2</ele><time>2022-03-20T08:53:49.000Z</time></trkpt><trkpt lon="5.899966" lat="51.110679"><ele>-5.2</ele><time>2022-03-20T08:53:50.000Z</time></trkpt><trkpt lon="5.899904" lat="51.110631"><ele>-5</ele><time>2022-03-20T08:53:51.000Z</time></trkpt><trkpt lon="5.899842" lat="51.110581"><ele>-5</ele><time>2022-03-20T08:53:52.000Z</time></trkpt><trkpt lon="5.899781" lat="51.110532"><ele>-5</ele><time>2022-03-20T08:53:53.000Z</time></trkpt><trkpt lon="5.899717" lat="51.110479"><ele>-5</ele><time>2022-03-20T08:53:54.000Z</time></trkpt><trkpt lon="5.899653" lat="51.110428"><ele>-5</ele><time>2022-03-20T08:53:55.000Z</time></trkpt><trkpt lon="5.899589" lat="51.110379"><ele>-4.8</ele><time>2022-03-20T08:53:56.000Z</time></trkpt><trkpt lon="5.899524" lat="51.110329"><ele>-4.8</ele><time>2022-03-20T08:53:57.000Z</time></trkpt><trkpt lon="5.899458" lat="51.11028"><ele>-4.8</ele><time>2022-03-20T08:53:58.000Z</time></trkpt><trkpt lon="5.899393" lat="51.11023"><ele>-4.6</ele><time>2022-03-20T08:53:59.000Z</time></trkpt><trkpt lon="5.899335" lat="51.110181"><ele>-4.6</ele><time>2022-03-20T08:54:00.000Z</time></trkpt><trkpt lon="5.899273" lat="51.110128"><ele>-4.6</ele><time>2022-03-20T08:54:01.000Z</time></trkpt><trkpt lon="5.899211" lat="51.110078"><ele>-4.6</ele><time>2022-03-20T08:54:02.000Z</time></trkpt><trkpt lon="5.899148" lat="51.110026"><ele>-4.6</ele><time>2022-03-20T08:54:03.000Z</time></trkpt><trkpt lon="5.899085" lat="51.109974"><ele>-4.6</ele><time>2022-03-20T08:54:04.000Z</time></trkpt><trkpt lon="5.899024" lat="51.109924"><ele>-4.6</ele><time>2022-03-20T08:54:05.000Z</time></trkpt><trkpt lon="5.898965" lat="51.109875"><ele>-4.6</ele><time>2022-03-20T08:54:06.000Z</time></trkpt><trkpt lon="5.898907" lat="51.109825"><ele>-4.6</ele><time>2022-03-20T08:54:07.000Z</time></trkpt><trkpt lon="5.898847" lat="51.109776"><ele>-4.6</ele><time>2022-03-20T08:54:08.000Z</time></trkpt><trkpt lon="5.898779" lat="51.109732"><ele>-4.6</ele><time>2022-03-20T08:54:09.000Z</time></trkpt><trkpt lon="5.898704" lat="51.109696"><ele>-4.8</ele><time>2022-03-20T08:54:10.000Z</time></trkpt><trkpt lon="5.898621" lat="51.109665"><ele>-4.6</ele><time>2022-03-20T08:54:11.000Z</time></trkpt><trkpt lon="5.898534" lat="51.10964"><ele>-4.6</ele><time>2022-03-20T08:54:12.000Z</time></trkpt><trkpt lon="5.898456" lat="51.109617"><ele>-4.6</ele><time>2022-03-20T08:54:13.000Z</time></trkpt><trkpt lon="5.898387" lat="51.109588"><ele>-4.4</ele><time>2022-03-20T08:54:14.000Z</time></trkpt><trkpt lon="5.898334" lat="51.109549"><ele>-4.4</ele><time>2022-03-20T08:54:15.000Z</time></trkpt><trkpt lon="5.898299" lat="51.109501"><ele>-4.4</ele><time>2022-03-20T08:54:16.000Z</time></trkpt><trkpt lon="5.898284" lat="51.109449"><ele>-4.4</ele><time>2022-03-20T08:54:17.000Z</time></trkpt><trkpt lon="5.898296" lat="51.109392"><ele>-4.6</ele><time>2022-03-20T08:54:18.000Z</time></trkpt><trkpt lon="5.898328" lat="51.109335"><ele>-4.4</ele><time>2022-03-20T08:54:19.000Z</time></trkpt><trkpt lon="5.898364" lat="51.109275"><ele>-4.8</ele><time>2022-03-20T08:54:20.000Z</time></trkpt><trkpt lon="5.89839" lat="51.109214"><ele>-5</ele><time>2022-03-20T08:54:21.000Z</time></trkpt><trkpt lon="5.898408" lat="51.10915"><ele>-5</ele><time>2022-03-20T08:54:22.000Z</time></trkpt><trkpt lon="5.898427" lat="51.109085"><ele>-5</ele><time>2022-03-20T08:54:23.000Z</time></trkpt><trkpt lon="5.898451" lat="51.109018"><ele>-4.8</ele><time>2022-03-20T08:54:24.000Z</time></trkpt><trkpt lon="5.898476" lat="51.108952"><ele>-4.8</ele><time>2022-03-20T08:54:25.000Z</time></trkpt><trkpt lon="5.898501" lat="51.108887"><ele>-4.6</ele><time>2022-03-20T08:54:26.000Z</time></trkpt><trkpt lon="5.898524" lat="51.108826"><ele>-4.4</ele><time>2022-03-20T08:54:27.000Z</time></trkpt><trkpt lon="5.898549" lat="51.108767"><ele>-4.2</ele><time>2022-03-20T08:54:28.000Z</time></trkpt><trkpt lon="5.898574" lat="51.108704"><ele>-4</ele><time>2022-03-20T08:54:29.000Z</time></trkpt><trkpt lon="5.898601" lat="51.108639"><ele>-4</ele><time>2022-03-20T08:54:30.000Z</time></trkpt><trkpt lon="5.898627" lat="51.108579"><ele>-4</ele><time>2022-03-20T08:54:31.000Z</time></trkpt><trkpt lon="5.898656" lat="51.108514"><ele>-4</ele><time>2022-03-20T08:54:32.000Z</time></trkpt><trkpt lon="5.898682" lat="51.108448"><ele>-4.2</ele><time>2022-03-20T08:54:33.000Z</time></trkpt><trkpt lon="5.898711" lat="51.108384"><ele>-4.4</ele><time>2022-03-20T08:54:34.000Z</time></trkpt><trkpt lon="5.898741" lat="51.108318"><ele>-4.6</ele><time>2022-03-20T08:54:35.000Z</time></trkpt><trkpt lon="5.89877" lat="51.108253"><ele>-4.6</ele><time>2022-03-20T08:54:36.000Z</time></trkpt><trkpt lon="5.8988" lat="51.108189"><ele>-4.6</ele><time>2022-03-20T08:54:37.000Z</time></trkpt><trkpt lon="5.898829" lat="51.108124"><ele>-4.6</ele><time>2022-03-20T08:54:38.000Z</time></trkpt><trkpt lon="5.898858" lat="51.108062"><ele>-4.4</ele><time>2022-03-20T08:54:39.000Z</time></trkpt><trkpt lon="5.898884" lat="51.107998"><ele>-4.4</ele><time>2022-03-20T08:54:40.000Z</time></trkpt><trkpt lon="5.898911" lat="51.107936"><ele>-4.2</ele><time>2022-03-20T08:54:41.000Z</time></trkpt><trkpt lon="5.898933" lat="51.107875"><ele>-4.2</ele><time>2022-03-20T08:54:42.000Z</time></trkpt><trkpt lon="5.898956" lat="51.107814"><ele>-4.2</ele><time>2022-03-20T08:54:43.000Z</time></trkpt><trkpt lon="5.898978" lat="51.107753"><ele>-4.2</ele><time>2022-03-20T08:54:44.000Z</time></trkpt><trkpt lon="5.898997" lat="51.107692"><ele>-4.2</ele><time>2022-03-20T08:54:45.000Z</time></trkpt><trkpt lon="5.899016" lat="51.10763"><ele>-4</ele><time>2022-03-20T08:54:46.000Z</time></trkpt><trkpt lon="5.899033" lat="51.107567"><ele>-4</ele><time>2022-03-20T08:54:47.000Z</time></trkpt><trkpt lon="5.899046" lat="51.107505"><ele>-4</ele><time>2022-03-20T08:54:48.000Z</time></trkpt><trkpt lon="5.899056" lat="51.107444"><ele>-4</ele><time>2022-03-20T08:54:49.000Z</time></trkpt><trkpt lon="5.899067" lat="51.107383"><ele>-3.8</ele><time>2022-03-20T08:54:50.000Z</time></trkpt><trkpt lon="5.89908" lat="51.107322"><ele>-3.8</ele><time>2022-03-20T08:54:51.000Z</time></trkpt><trkpt lon="5.899093" lat="51.107261"><ele>-4</ele><time>2022-03-20T08:54:52.000Z</time></trkpt><trkpt lon="5.899106" lat="51.107197"><ele>-4</ele><time>2022-03-20T08:54:53.000Z</time></trkpt><trkpt lon="5.899117" lat="51.107132"><ele>-3.8</ele><time>2022-03-20T08:54:54.000Z</time></trkpt><trkpt lon="5.899129" lat="51.10707"><ele>-3.8</ele><time>2022-03-20T08:54:55.000Z</time></trkpt><trkpt lon="5.89914" lat="51.107007"><ele>-4</ele><time>2022-03-20T08:54:56.000Z</time></trkpt><trkpt lon="5.89915" lat="51.106946"><ele>-4</ele><time>2022-03-20T08:54:57.000Z</time></trkpt><trkpt lon="5.899159" lat="51.106881"><ele>-4</ele><time>2022-03-20T08:54:58.000Z</time></trkpt><trkpt lon="5.89918" lat="51.106814"><ele>-4</ele><time>2022-03-20T08:54:59.000Z</time></trkpt><trkpt lon="5.899204" lat="51.106746"><ele>-4</ele><time>2022-03-20T08:55:00.000Z</time></trkpt><trkpt lon="5.899228" lat="51.106679"><ele>-4</ele><time>2022-03-20T08:55:01.000Z</time></trkpt><trkpt lon="5.89923" lat="51.106605"><ele>-4</ele><time>2022-03-20T08:55:02.000Z</time></trkpt><trkpt lon="5.899222" lat="51.106544"><ele>-4</ele><time>2022-03-20T08:55:03.000Z</time></trkpt><trkpt lon="5.899224" lat="51.106477"><ele>-3.8</ele><time>2022-03-20T08:55:04.000Z</time></trkpt><trkpt lon="5.899232" lat="51.10641"><ele>-3.8</ele><time>2022-03-20T08:55:05.000Z</time></trkpt><trkpt lon="5.899237" lat="51.106342"><ele>-4</ele><time>2022-03-20T08:55:06.000Z</time></trkpt><trkpt lon="5.899243" lat="51.106276"><ele>-4</ele><time>2022-03-20T08:55:07.000Z</time></trkpt><trkpt lon="5.899249" lat="51.106217"><ele>-4</ele><time>2022-03-20T08:55:08.000Z</time></trkpt><trkpt lon="5.899256" lat="51.106163"><ele>-4</ele><time>2022-03-20T08:55:09.000Z</time></trkpt><trkpt lon="5.899267" lat="51.10611"><ele>-4</ele><time>2022-03-20T08:55:10.000Z</time></trkpt><trkpt lon="5.899275" lat="51.10606"><ele>-4</ele><time>2022-03-20T08:55:11.000Z</time></trkpt><trkpt lon="5.899282" lat="51.10601"><ele>-4</ele><time>2022-03-20T08:55:12.000Z</time></trkpt><trkpt lon="5.899285" lat="51.105961"><ele>-4</ele><time>2022-03-20T08:55:13.000Z</time></trkpt><trkpt lon="5.899289" lat="51.105914"><ele>-4</ele><time>2022-03-20T08:55:14.000Z</time></trkpt><trkpt lon="5.899306" lat="51.105872"><ele>-4</ele><time>2022-03-20T08:55:15.000Z</time></trkpt><trkpt lon="5.899347" lat="51.105839"><ele>-4</ele><time>2022-03-20T08:55:16.000Z</time></trkpt><trkpt lon="5.899409" lat="51.105814"><ele>-4</ele><time>2022-03-20T08:55:17.000Z</time></trkpt><trkpt lon="5.899489" lat="51.105794"><ele>-4</ele><time>2022-03-20T08:55:18.000Z</time></trkpt><trkpt lon="5.89958" lat="51.105769"><ele>-4.2</ele><time>2022-03-20T08:55:19.000Z</time></trkpt><trkpt lon="5.89967" lat="51.105736"><ele>-4.2</ele><time>2022-03-20T08:55:20.000Z</time></trkpt><trkpt lon="5.899758" lat="51.105696"><ele>-4.2</ele><time>2022-03-20T08:55:21.000Z</time></trkpt><trkpt lon="5.899837" lat="51.105651"><ele>-4.2</ele><time>2022-03-20T08:55:22.000Z</time></trkpt><trkpt lon="5.899909" lat="51.105602"><ele>-4</ele><time>2022-03-20T08:55:23.000Z</time></trkpt><trkpt lon="5.899978" lat="51.105556"><ele>-4</ele><time>2022-03-20T08:55:24.000Z</time></trkpt><trkpt lon="5.900048" lat="51.105507"><ele>-3.8</ele><time>2022-03-20T08:55:25.000Z</time></trkpt><trkpt lon="5.900117" lat="51.10546"><ele>-3.6</ele><time>2022-03-20T08:55:26.000Z</time></trkpt><trkpt lon="5.90019" lat="51.105411"><ele>-3.6</ele><time>2022-03-20T08:55:27.000Z</time></trkpt><trkpt lon="5.900257" lat="51.105368"><ele>-3.4</ele><time>2022-03-20T08:55:28.000Z</time></trkpt><trkpt lon="5.900321" lat="51.105326"><ele>-3.2</ele><time>2022-03-20T08:55:29.000Z</time></trkpt><trkpt lon="5.900386" lat="51.105278"><ele>-3.2</ele><time>2022-03-20T08:55:30.000Z</time></trkpt><trkpt lon="5.900449" lat="51.105228"><ele>-3.2</ele><time>2022-03-20T08:55:31.000Z</time></trkpt><trkpt lon="5.900507" lat="51.105176"><ele>-3.2</ele><time>2022-03-20T08:55:32.000Z</time></trkpt><trkpt lon="5.90056" lat="51.105122"><ele>-3.2</ele><time>2022-03-20T08:55:33.000Z</time></trkpt><trkpt lon="5.900608" lat="51.105066"><ele>-3.2</ele><time>2022-03-20T08:55:34.000Z</time></trkpt><trkpt lon="5.900651" lat="51.105008"><ele>-3.2</ele><time>2022-03-20T08:55:35.000Z</time></trkpt><trkpt lon="5.900691" lat="51.104951"><ele>-3</ele><time>2022-03-20T08:55:36.000Z</time></trkpt><trkpt lon="5.90073" lat="51.10489"><ele>-3</ele><time>2022-03-20T08:55:37.000Z</time></trkpt><trkpt lon="5.900771" lat="51.104827"><ele>-3</ele><time>2022-03-20T08:55:38.000Z</time></trkpt><trkpt lon="5.900811" lat="51.104765"><ele>-3.2</ele><time>2022-03-20T08:55:39.000Z</time></trkpt><trkpt lon="5.90085" lat="51.104701"><ele>-3.2</ele><time>2022-03-20T08:55:40.000Z</time></trkpt><trkpt lon="5.900885" lat="51.10464"><ele>-3</ele><time>2022-03-20T08:55:41.000Z</time></trkpt><trkpt lon="5.900924" lat="51.104577"><ele>-3</ele><time>2022-03-20T08:55:42.000Z</time></trkpt><trkpt lon="5.900964" lat="51.104514"><ele>-3</ele><time>2022-03-20T08:55:43.000Z</time></trkpt><trkpt lon="5.901003" lat="51.104453"><ele>-3</ele><time>2022-03-20T08:55:44.000Z</time></trkpt><trkpt lon="5.901041" lat="51.104392"><ele>-3.2</ele><time>2022-03-20T08:55:45.000Z</time></trkpt><trkpt lon="5.901082" lat="51.104328"><ele>-3.4</ele><time>2022-03-20T08:55:46.000Z</time></trkpt><trkpt lon="5.901122" lat="51.104266"><ele>-3.4</ele><time>2022-03-20T08:55:47.000Z</time></trkpt><trkpt lon="5.901162" lat="51.104205"><ele>-3.2</ele><time>2022-03-20T08:55:48.000Z</time></trkpt><trkpt lon="5.901201" lat="51.104144"><ele>-3.2</ele><time>2022-03-20T08:55:49.000Z</time></trkpt><trkpt lon="5.901238" lat="51.104083"><ele>-3.2</ele><time>2022-03-20T08:55:50.000Z</time></trkpt><trkpt lon="5.901275" lat="51.104022"><ele>-3.2</ele><time>2022-03-20T08:55:51.000Z</time></trkpt><trkpt lon="5.901305" lat="51.103961"><ele>-3.2</ele><time>2022-03-20T08:55:52.000Z</time></trkpt><trkpt lon="5.901332" lat="51.103897"><ele>-3.2</ele><time>2022-03-20T08:55:53.000Z</time></trkpt><trkpt lon="5.901352" lat="51.103832"><ele>-3.2</ele><time>2022-03-20T08:55:54.000Z</time></trkpt><trkpt lon="5.901364" lat="51.10377"><ele>-3.4</ele><time>2022-03-20T08:55:55.000Z</time></trkpt><trkpt lon="5.901368" lat="51.103709"><ele>-3.4</ele><time>2022-03-20T08:55:56.000Z</time></trkpt><trkpt lon="5.901364" lat="51.103647"><ele>-3.4</ele><time>2022-03-20T08:55:57.000Z</time></trkpt><trkpt lon="5.901353" lat="51.10359"><ele>-3.4</ele><time>2022-03-20T08:55:58.000Z</time></trkpt><trkpt lon="5.901333" lat="51.103536"><ele>-3.4</ele><time>2022-03-20T08:55:59.000Z</time></trkpt><trkpt lon="5.901306" lat="51.103485"><ele>-3.4</ele><time>2022-03-20T08:56:00.000Z</time></trkpt><trkpt lon="5.901281" lat="51.103433"><ele>-3.4</ele><time>2022-03-20T08:56:01.000Z</time></trkpt><trkpt lon="5.901255" lat="51.103382"><ele>-3.4</ele><time>2022-03-20T08:56:02.000Z</time></trkpt><trkpt lon="5.901224" lat="51.10333"><ele>-3.4</ele><time>2022-03-20T08:56:03.000Z</time></trkpt><trkpt lon="5.901184" lat="51.103279"><ele>-3.4</ele><time>2022-03-20T08:56:04.000Z</time></trkpt><trkpt lon="5.901133" lat="51.103232"><ele>-3.4</ele><time>2022-03-20T08:56:05.000Z</time></trkpt><trkpt lon="5.901063" lat="51.103202"><ele>-3.4</ele><time>2022-03-20T08:56:06.000Z</time></trkpt><trkpt lon="5.900981" lat="51.103187"><ele>-3.4</ele><time>2022-03-20T08:56:07.000Z</time></trkpt><trkpt lon="5.900878" lat="51.103192"><ele>-3.6</ele><time>2022-03-20T08:56:08.000Z</time></trkpt><trkpt lon="5.900767" lat="51.10321"><ele>-3.6</ele><time>2022-03-20T08:56:09.000Z</time></trkpt><trkpt lon="5.900658" lat="51.103235"><ele>-3.8</ele><time>2022-03-20T08:56:10.000Z</time></trkpt><trkpt lon="5.900558" lat="51.103259"><ele>-3.8</ele><time>2022-03-20T08:56:11.000Z</time></trkpt><trkpt lon="5.900467" lat="51.103282"><ele>-3.8</ele><time>2022-03-20T08:56:12.000Z</time></trkpt><trkpt lon="5.900383" lat="51.103301"><ele>-3.8</ele><time>2022-03-20T08:56:13.000Z</time></trkpt><trkpt lon="5.900305" lat="51.103321"><ele>-4</ele><time>2022-03-20T08:56:14.000Z</time></trkpt><trkpt lon="5.90024" lat="51.10334"><ele>-3.8</ele><time>2022-03-20T08:56:15.000Z</time></trkpt><trkpt lon="5.900182" lat="51.103356"><ele>-3.8</ele><time>2022-03-20T08:56:16.000Z</time></trkpt><trkpt lon="5.900134" lat="51.103371"><ele>-3.8</ele><time>2022-03-20T08:56:17.000Z</time></trkpt><trkpt lon="5.900101" lat="51.103383"><ele>-3.8</ele><time>2022-03-20T08:56:18.000Z</time></trkpt><trkpt lon="5.900072" lat="51.103395"><ele>-3.8</ele><time>2022-03-20T08:56:19.000Z</time></trkpt><trkpt lon="5.900048" lat="51.103406"><ele>-3.8</ele><time>2022-03-20T08:56:20.000Z</time></trkpt><trkpt lon="5.900031" lat="51.103417"><ele>-3.8</ele><time>2022-03-20T08:56:21.000Z</time></trkpt><trkpt lon="5.900017" lat="51.103429"><ele>-3.8</ele><time>2022-03-20T08:56:22.000Z</time></trkpt><trkpt lon="5.900001" lat="51.103435"><ele>-3.8</ele><time>2022-03-20T08:56:23.000Z</time></trkpt><trkpt lon="5.899988" lat="51.103433"><ele>-3.8</ele><time>2022-03-20T08:56:24.000Z</time></trkpt><trkpt lon="5.899989" lat="51.103426"><ele>-3.8</ele><time>2022-03-20T08:56:25.000Z</time></trkpt><trkpt lon="5.899999" lat="51.103421"><ele>-3.8</ele><time>2022-03-20T08:56:26.000Z</time></trkpt><trkpt lon="5.900014" lat="51.103414"><ele>-3.8</ele><time>2022-03-20T08:56:27.000Z</time></trkpt><trkpt lon="5.900038" lat="51.103404"><ele>-3.8</ele><time>2022-03-20T08:56:28.000Z</time></trkpt><trkpt lon="5.900065" lat="51.103392"><ele>-3.8</ele><time>2022-03-20T08:56:29.000Z</time></trkpt><trkpt lon="5.900099" lat="51.103376"><ele>-3.8</ele><time>2022-03-20T08:56:30.000Z</time></trkpt><trkpt lon="5.900144" lat="51.103353"><ele>-3.8</ele><time>2022-03-20T08:56:31.000Z</time></trkpt><trkpt lon="5.900201" lat="51.103333"><ele>-3.8</ele><time>2022-03-20T08:56:32.000Z</time></trkpt><trkpt lon="5.900268" lat="51.103314"><ele>-3.8</ele><time>2022-03-20T08:56:33.000Z</time></trkpt><trkpt lon="5.900344" lat="51.103292"><ele>-3.8</ele><time>2022-03-20T08:56:34.000Z</time></trkpt><trkpt lon="5.900423" lat="51.103269"><ele>-3.8</ele><time>2022-03-20T08:56:35.000Z</time></trkpt><trkpt lon="5.900506" lat="51.103249"><ele>-4.2</ele><time>2022-03-20T08:56:36.000Z</time></trkpt><trkpt lon="5.900588" lat="51.103228"><ele>-4.4</ele><time>2022-03-20T08:56:37.000Z</time></trkpt><trkpt lon="5.900673" lat="51.103207"><ele>-4.6</ele><time>2022-03-20T08:56:38.000Z</time></trkpt><trkpt lon="5.900758" lat="51.103191"><ele>-4.6</ele><time>2022-03-20T08:56:39.000Z</time></trkpt><trkpt lon="5.900841" lat="51.103179"><ele>-4.8</ele><time>2022-03-20T08:56:40.000Z</time></trkpt><trkpt lon="5.900925" lat="51.10317"><ele>-4.8</ele><time>2022-03-20T08:56:41.000Z</time></trkpt><trkpt lon="5.901011" lat="51.103174"><ele>-5</ele><time>2022-03-20T08:56:42.000Z</time></trkpt><trkpt lon="5.901095" lat="51.103188"><ele>-4.8</ele><time>2022-03-20T08:56:43.000Z</time></trkpt><trkpt lon="5.901167" lat="51.1032"><ele>-4.8</ele><time>2022-03-20T08:56:44.000Z</time></trkpt><trkpt lon="5.901231" lat="51.103194"><ele>-4.6</ele><time>2022-03-20T08:56:45.000Z</time></trkpt><trkpt lon="5.901283" lat="51.103177"><ele>-4.4</ele><time>2022-03-20T08:56:46.000Z</time></trkpt><trkpt lon="5.901318" lat="51.103152"><ele>-4.2</ele><time>2022-03-20T08:56:47.000Z</time></trkpt><trkpt lon="5.901337" lat="51.103119"><ele>-4.2</ele><time>2022-03-20T08:56:48.000Z</time></trkpt><trkpt lon="5.901354" lat="51.103076"><ele>-4</ele><time>2022-03-20T08:56:49.000Z</time></trkpt><trkpt lon="5.901388" lat="51.103033"><ele>-4</ele><time>2022-03-20T08:56:50.000Z</time></trkpt><trkpt lon="5.901438" lat="51.102991"><ele>-4</ele><time>2022-03-20T08:56:51.000Z</time></trkpt><trkpt lon="5.901496" lat="51.102947"><ele>-4</ele><time>2022-03-20T08:56:52.000Z</time></trkpt><trkpt lon="5.90156" lat="51.102901"><ele>-4</ele><time>2022-03-20T08:56:53.000Z</time></trkpt><trkpt lon="5.901627" lat="51.102861"><ele>-4</ele><time>2022-03-20T08:56:54.000Z</time></trkpt><trkpt lon="5.901697" lat="51.102823"><ele>-4</ele><time>2022-03-20T08:56:55.000Z</time></trkpt><trkpt lon="5.901769" lat="51.10279"><ele>-4</ele><time>2022-03-20T08:56:56.000Z</time></trkpt><trkpt lon="5.901835" lat="51.102757"><ele>-4</ele><time>2022-03-20T08:56:57.000Z</time></trkpt><trkpt lon="5.901898" lat="51.102726"><ele>-4</ele><time>2022-03-20T08:56:58.000Z</time></trkpt><trkpt lon="5.901957" lat="51.102692"><ele>-4</ele><time>2022-03-20T08:56:59.000Z</time></trkpt><trkpt lon="5.90201" lat="51.102661"><ele>-4</ele><time>2022-03-20T08:57:00.000Z</time></trkpt><trkpt lon="5.902063" lat="51.102633"><ele>-4</ele><time>2022-03-20T08:57:01.000Z</time></trkpt><trkpt lon="5.902116" lat="51.102606"><ele>-4</ele><time>2022-03-20T08:57:02.000Z</time></trkpt><trkpt lon="5.902166" lat="51.102582"><ele>-4</ele><time>2022-03-20T08:57:03.000Z</time></trkpt><trkpt lon="5.902206" lat="51.102554"><ele>-4.2</ele><time>2022-03-20T08:57:04.000Z</time></trkpt><trkpt lon="5.90223" lat="51.102523"><ele>-4</ele><time>2022-03-20T08:57:05.000Z</time></trkpt><trkpt lon="5.902231" lat="51.102487"><ele>-4</ele><time>2022-03-20T08:57:06.000Z</time></trkpt><trkpt lon="5.90221" lat="51.102446"><ele>-4</ele><time>2022-03-20T08:57:07.000Z</time></trkpt><trkpt lon="5.902172" lat="51.102408"><ele>-4</ele><time>2022-03-20T08:57:08.000Z</time></trkpt><trkpt lon="5.90212" lat="51.10236"><ele>-4</ele><time>2022-03-20T08:57:09.000Z</time></trkpt><trkpt lon="5.902061" lat="51.102313"><ele>-4</ele><time>2022-03-20T08:57:10.000Z</time></trkpt><trkpt lon="5.901999" lat="51.102265"><ele>-4</ele><time>2022-03-20T08:57:11.000Z</time></trkpt><trkpt lon="5.901935" lat="51.102213"><ele>-4</ele><time>2022-03-20T08:57:12.000Z</time></trkpt><trkpt lon="5.90187" lat="51.102163"><ele>-4</ele><time>2022-03-20T08:57:13.000Z</time></trkpt><trkpt lon="5.901805" lat="51.102109"><ele>-4</ele><time>2022-03-20T08:57:14.000Z</time></trkpt><trkpt lon="5.90174" lat="51.102055"><ele>-4</ele><time>2022-03-20T08:57:15.000Z</time></trkpt><trkpt lon="5.901674" lat="51.102002"><ele>-4</ele><time>2022-03-20T08:57:16.000Z</time></trkpt><trkpt lon="5.901609" lat="51.101949"><ele>-4</ele><time>2022-03-20T08:57:17.000Z</time></trkpt><trkpt lon="5.901544" lat="51.101898"><ele>-4</ele><time>2022-03-20T08:57:18.000Z</time></trkpt><trkpt lon="5.901474" lat="51.101844"><ele>-4</ele><time>2022-03-20T08:57:19.000Z</time></trkpt><trkpt lon="5.901404" lat="51.101789"><ele>-4</ele><time>2022-03-20T08:57:20.000Z</time></trkpt><trkpt lon="5.90134" lat="51.101738"><ele>-4</ele><time>2022-03-20T08:57:21.000Z</time></trkpt><trkpt lon="5.901275" lat="51.101686"><ele>-4.2</ele><time>2022-03-20T08:57:22.000Z</time></trkpt><trkpt lon="5.901208" lat="51.101635"><ele>-4.2</ele><time>2022-03-20T08:57:23.000Z</time></trkpt><trkpt lon="5.901141" lat="51.101583"><ele>-4.2</ele><time>2022-03-20T08:57:24.000Z</time></trkpt><trkpt lon="5.901072" lat="51.101529"><ele>-4.2</ele><time>2022-03-20T08:57:25.000Z</time></trkpt><trkpt lon="5.901004" lat="51.101476"><ele>-4.2</ele><time>2022-03-20T08:57:26.000Z</time></trkpt><trkpt lon="5.900936" lat="51.101423"><ele>-4.4</ele><time>2022-03-20T08:57:27.000Z</time></trkpt><trkpt lon="5.900868" lat="51.101369"><ele>-4.4</ele><time>2022-03-20T08:57:28.000Z</time></trkpt><trkpt lon="5.900802" lat="51.101318"><ele>-4.4</ele><time>2022-03-20T08:57:29.000Z</time></trkpt><trkpt lon="5.900737" lat="51.101269"><ele>-4.4</ele><time>2022-03-20T08:57:30.000Z</time></trkpt><trkpt lon="5.900672" lat="51.10122"><ele>-4.4</ele><time>2022-03-20T08:57:31.000Z</time></trkpt><trkpt lon="5.900609" lat="51.10117"><ele>-4.4</ele><time>2022-03-20T08:57:32.000Z</time></trkpt><trkpt lon="5.900546" lat="51.10112"><ele>-4.4</ele><time>2022-03-20T08:57:33.000Z</time></trkpt><trkpt lon="5.900484" lat="51.101073"><ele>-4.4</ele><time>2022-03-20T08:57:34.000Z</time></trkpt><trkpt lon="5.900422" lat="51.101024"><ele>-4.4</ele><time>2022-03-20T08:57:35.000Z</time></trkpt><trkpt lon="5.900364" lat="51.100975"><ele>-4.2</ele><time>2022-03-20T08:57:36.000Z</time></trkpt><trkpt lon="5.900323" lat="51.100919"><ele>-4.2</ele><time>2022-03-20T08:57:37.000Z</time></trkpt><trkpt lon="5.900302" lat="51.10086"><ele>-4</ele><time>2022-03-20T08:57:38.000Z</time></trkpt><trkpt lon="5.900303" lat="51.100802"><ele>-3.8</ele><time>2022-03-20T08:57:39.000Z</time></trkpt><trkpt lon="5.900329" lat="51.100741"><ele>-3.8</ele><time>2022-03-20T08:57:40.000Z</time></trkpt><trkpt lon="5.900366" lat="51.100684"><ele>-3.8</ele><time>2022-03-20T08:57:41.000Z</time></trkpt><trkpt lon="5.900404" lat="51.100626"><ele>-3.8</ele><time>2022-03-20T08:57:42.000Z</time></trkpt><trkpt lon="5.900444" lat="51.100569"><ele>-3.8</ele><time>2022-03-20T08:57:43.000Z</time></trkpt><trkpt lon="5.900483" lat="51.10051"><ele>-4</ele><time>2022-03-20T08:57:44.000Z</time></trkpt><trkpt lon="5.900522" lat="51.100449"><ele>-4</ele><time>2022-03-20T08:57:45.000Z</time></trkpt><trkpt lon="5.900561" lat="51.100384"><ele>-4</ele><time>2022-03-20T08:57:46.000Z</time></trkpt><trkpt lon="5.900595" lat="51.100321"><ele>-3.8</ele><time>2022-03-20T08:57:47.000Z</time></trkpt><trkpt lon="5.900626" lat="51.10026"><ele>-3.8</ele><time>2022-03-20T08:57:48.000Z</time></trkpt><trkpt lon="5.900656" lat="51.100196"><ele>-4</ele><time>2022-03-20T08:57:49.000Z</time></trkpt><trkpt lon="5.900688" lat="51.100138"><ele>-4</ele><time>2022-03-20T08:57:50.000Z</time></trkpt><trkpt lon="5.900722" lat="51.100078"><ele>-3.8</ele><time>2022-03-20T08:57:51.000Z</time></trkpt><trkpt lon="5.900754" lat="51.100016"><ele>-3.8</ele><time>2022-03-20T08:57:52.000Z</time></trkpt><trkpt lon="5.900787" lat="51.099955"><ele>-4</ele><time>2022-03-20T08:57:53.000Z</time></trkpt><trkpt lon="5.900819" lat="51.099895"><ele>-3.8</ele><time>2022-03-20T08:57:54.000Z</time></trkpt><trkpt lon="5.900849" lat="51.099836"><ele>-4</ele><time>2022-03-20T08:57:55.000Z</time></trkpt><trkpt lon="5.90088" lat="51.099776"><ele>-4</ele><time>2022-03-20T08:57:56.000Z</time></trkpt><trkpt lon="5.900909" lat="51.099718"><ele>-4</ele><time>2022-03-20T08:57:57.000Z</time></trkpt><trkpt lon="5.900937" lat="51.099661"><ele>-4</ele><time>2022-03-20T08:57:58.000Z</time></trkpt><trkpt lon="5.900966" lat="51.099604"><ele>-4</ele><time>2022-03-20T08:57:59.000Z</time></trkpt><trkpt lon="5.900995" lat="51.099544"><ele>-4</ele><time>2022-03-20T08:58:00.000Z</time></trkpt><trkpt lon="5.901024" lat="51.099482"><ele>-4.2</ele><time>2022-03-20T08:58:01.000Z</time></trkpt><trkpt lon="5.901053" lat="51.099425"><ele>-4.2</ele><time>2022-03-20T08:58:02.000Z</time></trkpt><trkpt lon="5.90108" lat="51.099365"><ele>-4.2</ele><time>2022-03-20T08:58:03.000Z</time></trkpt><trkpt lon="5.901107" lat="51.099302"><ele>-4</ele><time>2022-03-20T08:58:04.000Z</time></trkpt><trkpt lon="5.901135" lat="51.099238"><ele>-4.2</ele><time>2022-03-20T08:58:05.000Z</time></trkpt><trkpt lon="5.901164" lat="51.099179"><ele>-4.2</ele><time>2022-03-20T08:58:06.000Z</time></trkpt><trkpt lon="5.901197" lat="51.099117"><ele>-4</ele><time>2022-03-20T08:58:07.000Z</time></trkpt><trkpt lon="5.901232" lat="51.099058"><ele>-4</ele><time>2022-03-20T08:58:08.000Z</time></trkpt><trkpt lon="5.90127" lat="51.099007"><ele>-4</ele><time>2022-03-20T08:58:09.000Z</time></trkpt><trkpt lon="5.901307" lat="51.098957"><ele>-4</ele><time>2022-03-20T08:58:10.000Z</time></trkpt><trkpt lon="5.901343" lat="51.098911"><ele>-4</ele><time>2022-03-20T08:58:11.000Z</time></trkpt><trkpt lon="5.90138" lat="51.098865"><ele>-3.8</ele><time>2022-03-20T08:58:12.000Z</time></trkpt><trkpt lon="5.901415" lat="51.098823"><ele>-3.8</ele><time>2022-03-20T08:58:13.000Z</time></trkpt><trkpt lon="5.90145" lat="51.09878"><ele>-3.8</ele><time>2022-03-20T08:58:14.000Z</time></trkpt><trkpt lon="5.901484" lat="51.098738"><ele>-3.8</ele><time>2022-03-20T08:58:15.000Z</time></trkpt><trkpt lon="5.90152" lat="51.098699"><ele>-3.8</ele><time>2022-03-20T08:58:16.000Z</time></trkpt><trkpt lon="5.901557" lat="51.098656"><ele>-3.8</ele><time>2022-03-20T08:58:17.000Z</time></trkpt><trkpt lon="5.901596" lat="51.09861"><ele>-3.8</ele><time>2022-03-20T08:58:18.000Z</time></trkpt><trkpt lon="5.901636" lat="51.098561"><ele>-4</ele><time>2022-03-20T08:58:19.000Z</time></trkpt><trkpt lon="5.901676" lat="51.098514"><ele>-4</ele><time>2022-03-20T08:58:20.000Z</time></trkpt><trkpt lon="5.901713" lat="51.098466"><ele>-4</ele><time>2022-03-20T08:58:21.000Z</time></trkpt><trkpt lon="5.901751" lat="51.098416"><ele>-3.8</ele><time>2022-03-20T08:58:22.000Z</time></trkpt><trkpt lon="5.901788" lat="51.098366"><ele>-3.8</ele><time>2022-03-20T08:58:23.000Z</time></trkpt><trkpt lon="5.901823" lat="51.098316"><ele>-3.8</ele><time>2022-03-20T08:58:24.000Z</time></trkpt><trkpt lon="5.901857" lat="51.09827"><ele>-3.8</ele><time>2022-03-20T08:58:25.000Z</time></trkpt><trkpt lon="5.901893" lat="51.098224"><ele>-3.8</ele><time>2022-03-20T08:58:26.000Z</time></trkpt><trkpt lon="5.901931" lat="51.098184"><ele>-3.8</ele><time>2022-03-20T08:58:27.000Z</time></trkpt><trkpt lon="5.901975" lat="51.098147"><ele>-3.8</ele><time>2022-03-20T08:58:28.000Z</time></trkpt><trkpt lon="5.902033" lat="51.098111"><ele>-3.8</ele><time>2022-03-20T08:58:29.000Z</time></trkpt><trkpt lon="5.902103" lat="51.098079"><ele>-4</ele><time>2022-03-20T08:58:30.000Z</time></trkpt><trkpt lon="5.902177" lat="51.098055"><ele>-4.2</ele><time>2022-03-20T08:58:31.000Z</time></trkpt><trkpt lon="5.902256" lat="51.098032"><ele>-4.2</ele><time>2022-03-20T08:58:32.000Z</time></trkpt><trkpt lon="5.902335" lat="51.098003"><ele>-4.2</ele><time>2022-03-20T08:58:33.000Z</time></trkpt><trkpt lon="5.902399" lat="51.097966"><ele>-4.2</ele><time>2022-03-20T08:58:34.000Z</time></trkpt><trkpt lon="5.902447" lat="51.097922"><ele>-4.2</ele><time>2022-03-20T08:58:35.000Z</time></trkpt><trkpt lon="5.902478" lat="51.097865"><ele>-4.4</ele><time>2022-03-20T08:58:36.000Z</time></trkpt><trkpt lon="5.902494" lat="51.097804"><ele>-4.4</ele><time>2022-03-20T08:58:37.000Z</time></trkpt><trkpt lon="5.9025" lat="51.097741"><ele>-4.2</ele><time>2022-03-20T08:58:38.000Z</time></trkpt><trkpt lon="5.902503" lat="51.097675"><ele>-4.2</ele><time>2022-03-20T08:58:39.000Z</time></trkpt><trkpt lon="5.902504" lat="51.097616"><ele>-4.2</ele><time>2022-03-20T08:58:40.000Z</time></trkpt><trkpt lon="5.902498" lat="51.097559"><ele>-4</ele><time>2022-03-20T08:58:41.000Z</time></trkpt><trkpt lon="5.902494" lat="51.097499"><ele>-4.2</ele><time>2022-03-20T08:58:42.000Z</time></trkpt><trkpt lon="5.902492" lat="51.097438"><ele>-4.2</ele><time>2022-03-20T08:58:43.000Z</time></trkpt><trkpt lon="5.902487" lat="51.097377"><ele>-4.2</ele><time>2022-03-20T08:58:44.000Z</time></trkpt><trkpt lon="5.902481" lat="51.097319"><ele>-4.2</ele><time>2022-03-20T08:58:45.000Z</time></trkpt><trkpt lon="5.902478" lat="51.097258"><ele>-4.2</ele><time>2022-03-20T08:58:46.000Z</time></trkpt><trkpt lon="5.902473" lat="51.097198"><ele>-4.2</ele><time>2022-03-20T08:58:47.000Z</time></trkpt><trkpt lon="5.902466" lat="51.097137"><ele>-4</ele><time>2022-03-20T08:58:48.000Z</time></trkpt><trkpt lon="5.902461" lat="51.097075"><ele>-4</ele><time>2022-03-20T08:58:49.000Z</time></trkpt><trkpt lon="5.902458" lat="51.097017"><ele>-4</ele><time>2022-03-20T08:58:50.000Z</time></trkpt><trkpt lon="5.902458" lat="51.09696"><ele>-4</ele><time>2022-03-20T08:58:51.000Z</time></trkpt><trkpt lon="5.902458" lat="51.0969"><ele>-4</ele><time>2022-03-20T08:58:52.000Z</time></trkpt><trkpt lon="5.902454" lat="51.096839"><ele>-4</ele><time>2022-03-20T08:58:53.000Z</time></trkpt><trkpt lon="5.902451" lat="51.096775"><ele>-4</ele><time>2022-03-20T08:58:54.000Z</time></trkpt><trkpt lon="5.902446" lat="51.09671"><ele>-4</ele><time>2022-03-20T08:58:55.000Z</time></trkpt><trkpt lon="5.902442" lat="51.096643"><ele>-4.2</ele><time>2022-03-20T08:58:56.000Z</time></trkpt><trkpt lon="5.902441" lat="51.096577"><ele>-4.2</ele><time>2022-03-20T08:58:57.000Z</time></trkpt><trkpt lon="5.902438" lat="51.096512"><ele>-4</ele><time>2022-03-20T08:58:58.000Z</time></trkpt><trkpt lon="5.902437" lat="51.096444"><ele>-4</ele><time>2022-03-20T08:58:59.000Z</time></trkpt><trkpt lon="5.902437" lat="51.096379"><ele>-4</ele><time>2022-03-20T08:59:00.000Z</time></trkpt><trkpt lon="5.90244" lat="51.096314"><ele>-4</ele><time>2022-03-20T08:59:01.000Z</time></trkpt><trkpt lon="5.902447" lat="51.096249"><ele>-4</ele><time>2022-03-20T08:59:02.000Z</time></trkpt><trkpt lon="5.902452" lat="51.096184"><ele>-4</ele><time>2022-03-20T08:59:03.000Z</time></trkpt><trkpt lon="5.902456" lat="51.09612"><ele>-4.2</ele><time>2022-03-20T08:59:04.000Z</time></trkpt><trkpt lon="5.902455" lat="51.09606"><ele>-4.2</ele><time>2022-03-20T08:59:05.000Z</time></trkpt><trkpt lon="5.902454" lat="51.096"><ele>-4.2</ele><time>2022-03-20T08:59:06.000Z</time></trkpt><trkpt lon="5.902449" lat="51.095947"><ele>-4.2</ele><time>2022-03-20T08:59:07.000Z</time></trkpt><trkpt lon="5.902439" lat="51.095898"><ele>-4.2</ele><time>2022-03-20T08:59:08.000Z</time></trkpt><trkpt lon="5.902424" lat="51.095845"><ele>-4.2</ele><time>2022-03-20T08:59:09.000Z</time></trkpt><trkpt lon="5.902402" lat="51.095792"><ele>-4.2</ele><time>2022-03-20T08:59:10.000Z</time></trkpt><trkpt lon="5.902381" lat="51.095739"><ele>-4.2</ele><time>2022-03-20T08:59:11.000Z</time></trkpt><trkpt lon="5.902359" lat="51.095682"><ele>-4.2</ele><time>2022-03-20T08:59:12.000Z</time></trkpt><trkpt lon="5.902334" lat="51.095622"><ele>-4.2</ele><time>2022-03-20T08:59:13.000Z</time></trkpt><trkpt lon="5.902308" lat="51.095564"><ele>-4</ele><time>2022-03-20T08:59:14.000Z</time></trkpt><trkpt lon="5.902282" lat="51.095506"><ele>-3.8</ele><time>2022-03-20T08:59:15.000Z</time></trkpt><trkpt lon="5.902258" lat="51.095449"><ele>-3.8</ele><time>2022-03-20T08:59:16.000Z</time></trkpt><trkpt lon="5.902235" lat="51.09539"><ele>-3.8</ele><time>2022-03-20T08:59:17.000Z</time></trkpt><trkpt lon="5.90221" lat="51.095334"><ele>-3.8</ele><time>2022-03-20T08:59:18.000Z</time></trkpt><trkpt lon="5.902179" lat="51.095281"><ele>-3.8</ele><time>2022-03-20T08:59:19.000Z</time></trkpt><trkpt lon="5.90215" lat="51.095222"><ele>-3.8</ele><time>2022-03-20T08:59:20.000Z</time></trkpt><trkpt lon="5.90212" lat="51.095163"><ele>-3.8</ele><time>2022-03-20T08:59:21.000Z</time></trkpt><trkpt lon="5.90209" lat="51.095103"><ele>-3.6</ele><time>2022-03-20T08:59:22.000Z</time></trkpt><trkpt lon="5.902061" lat="51.095048"><ele>-3.4</ele><time>2022-03-20T08:59:23.000Z</time></trkpt><trkpt lon="5.90203" lat="51.094992"><ele>-3.4</ele><time>2022-03-20T08:59:24.000Z</time></trkpt><trkpt lon="5.901999" lat="51.094929"><ele>-3.4</ele><time>2022-03-20T08:59:25.000Z</time></trkpt><trkpt lon="5.901968" lat="51.094864"><ele>-3.4</ele><time>2022-03-20T08:59:26.000Z</time></trkpt><trkpt lon="5.901933" lat="51.094796"><ele>-3.4</ele><time>2022-03-20T08:59:27.000Z</time></trkpt><trkpt lon="5.901893" lat="51.094727"><ele>-3.6</ele><time>2022-03-20T08:59:28.000Z</time></trkpt><trkpt lon="5.90185" lat="51.094659"><ele>-3.6</ele><time>2022-03-20T08:59:29.000Z</time></trkpt><trkpt lon="5.901797" lat="51.094596"><ele>-3.6</ele><time>2022-03-20T08:59:30.000Z</time></trkpt><trkpt lon="5.901742" lat="51.094532"><ele>-3.6</ele><time>2022-03-20T08:59:31.000Z</time></trkpt><trkpt lon="5.901687" lat="51.094471"><ele>-3.6</ele><time>2022-03-20T08:59:32.000Z</time></trkpt><trkpt lon="5.901631" lat="51.094411"><ele>-3.6</ele><time>2022-03-20T08:59:33.000Z</time></trkpt><trkpt lon="5.901567" lat="51.094351"><ele>-3.8</ele><time>2022-03-20T08:59:34.000Z</time></trkpt><trkpt lon="5.901503" lat="51.094299"><ele>-3.8</ele><time>2022-03-20T08:59:35.000Z</time></trkpt><trkpt lon="5.901441" lat="51.094247"><ele>-3.8</ele><time>2022-03-20T08:59:36.000Z</time></trkpt><trkpt lon="5.901378" lat="51.094193"><ele>-4</ele><time>2022-03-20T08:59:37.000Z</time></trkpt><trkpt lon="5.901314" lat="51.094143"><ele>-3.8</ele><time>2022-03-20T08:59:38.000Z</time></trkpt><trkpt lon="5.901248" lat="51.094093"><ele>-3.8</ele><time>2022-03-20T08:59:39.000Z</time></trkpt><trkpt lon="5.901183" lat="51.094044"><ele>-3.8</ele><time>2022-03-20T08:59:40.000Z</time></trkpt><trkpt lon="5.901121" lat="51.093997"><ele>-3.8</ele><time>2022-03-20T08:59:41.000Z</time></trkpt><trkpt lon="5.901059" lat="51.093949"><ele>-3.6</ele><time>2022-03-20T08:59:42.000Z</time></trkpt><trkpt lon="5.900994" lat="51.093901"><ele>-3.6</ele><time>2022-03-20T08:59:43.000Z</time></trkpt><trkpt lon="5.900927" lat="51.09385"><ele>-3.6</ele><time>2022-03-20T08:59:44.000Z</time></trkpt><trkpt lon="5.900862" lat="51.0938"><ele>-3.4</ele><time>2022-03-20T08:59:45.000Z</time></trkpt><trkpt lon="5.900799" lat="51.093751"><ele>-3.4</ele><time>2022-03-20T08:59:46.000Z</time></trkpt><trkpt lon="5.900738" lat="51.093701"><ele>-3.2</ele><time>2022-03-20T08:59:47.000Z</time></trkpt><trkpt lon="5.900677" lat="51.093654"><ele>-3.2</ele><time>2022-03-20T08:59:48.000Z</time></trkpt><trkpt lon="5.900618" lat="51.093605"><ele>-3.2</ele><time>2022-03-20T08:59:49.000Z</time></trkpt><trkpt lon="5.900561" lat="51.093561"><ele>-3</ele><time>2022-03-20T08:59:50.000Z</time></trkpt><trkpt lon="5.900507" lat="51.093522"><ele>-3.2</ele><time>2022-03-20T08:59:51.000Z</time></trkpt><trkpt lon="5.900461" lat="51.093485"><ele>-3.2</ele><time>2022-03-20T08:59:52.000Z</time></trkpt><trkpt lon="5.900424" lat="51.093453"><ele>-3.2</ele><time>2022-03-20T08:59:53.000Z</time></trkpt><trkpt lon="5.900394" lat="51.093427"><ele>-3.2</ele><time>2022-03-20T08:59:54.000Z</time></trkpt><trkpt lon="5.900369" lat="51.093407"><ele>-3.2</ele><time>2022-03-20T08:59:55.000Z</time></trkpt><trkpt lon="5.900347" lat="51.093385"><ele>-3.2</ele><time>2022-03-20T08:59:56.000Z</time></trkpt><trkpt lon="5.900328" lat="51.093365"><ele>-3.2</ele><time>2022-03-20T08:59:57.000Z</time></trkpt><trkpt lon="5.900307" lat="51.093343"><ele>-3.2</ele><time>2022-03-20T08:59:58.000Z</time></trkpt><trkpt lon="5.900285" lat="51.093321"><ele>-3</ele><time>2022-03-20T08:59:59.000Z</time></trkpt><trkpt lon="5.900268" lat="51.093298"><ele>-3</ele><time>2022-03-20T09:00:00.000Z</time></trkpt><trkpt lon="5.900265" lat="51.093275"><ele>-3</ele><time>2022-03-20T09:00:01.000Z</time></trkpt><trkpt lon="5.900288" lat="51.093249"><ele>-2.8</ele><time>2022-03-20T09:00:02.000Z</time></trkpt><trkpt lon="5.900335" lat="51.093225"><ele>-2.8</ele><time>2022-03-20T09:00:03.000Z</time></trkpt><trkpt lon="5.900396" lat="51.093198"><ele>-2.8</ele><time>2022-03-20T09:00:04.000Z</time></trkpt><trkpt lon="5.90047" lat="51.093163"><ele>-2.8</ele><time>2022-03-20T09:00:05.000Z</time></trkpt><trkpt lon="5.900549" lat="51.093134"><ele>-2.8</ele><time>2022-03-20T09:00:06.000Z</time></trkpt><trkpt lon="5.900632" lat="51.093105"><ele>-2.8</ele><time>2022-03-20T09:00:07.000Z</time></trkpt><trkpt lon="5.900721" lat="51.093074"><ele>-2.8</ele><time>2022-03-20T09:00:08.000Z</time></trkpt><trkpt lon="5.900812" lat="51.093044"><ele>-3</ele><time>2022-03-20T09:00:09.000Z</time></trkpt><trkpt lon="5.900902" lat="51.093013"><ele>-3</ele><time>2022-03-20T09:00:10.000Z</time></trkpt><trkpt lon="5.900991" lat="51.09298"><ele>-3</ele><time>2022-03-20T09:00:11.000Z</time></trkpt><trkpt lon="5.901079" lat="51.092946"><ele>-3</ele><time>2022-03-20T09:00:12.000Z</time></trkpt><trkpt lon="5.901168" lat="51.092914"><ele>-3</ele><time>2022-03-20T09:00:13.000Z</time></trkpt><trkpt lon="5.901255" lat="51.092881"><ele>-3</ele><time>2022-03-20T09:00:14.000Z</time></trkpt><trkpt lon="5.901342" lat="51.092849"><ele>-3</ele><time>2022-03-20T09:00:15.000Z</time></trkpt><trkpt lon="5.901424" lat="51.092819"><ele>-3</ele><time>2022-03-20T09:00:16.000Z</time></trkpt><trkpt lon="5.901501" lat="51.092791"><ele>-3</ele><time>2022-03-20T09:00:17.000Z</time></trkpt><trkpt lon="5.901577" lat="51.092764"><ele>-3</ele><time>2022-03-20T09:00:18.000Z</time></trkpt><trkpt lon="5.901653" lat="51.092735"><ele>-3</ele><time>2022-03-20T09:00:19.000Z</time></trkpt><trkpt lon="5.90173" lat="51.092704"><ele>-3</ele><time>2022-03-20T09:00:20.000Z</time></trkpt><trkpt lon="5.90181" lat="51.092674"><ele>-3</ele><time>2022-03-20T09:00:21.000Z</time></trkpt><trkpt lon="5.901894" lat="51.092643"><ele>-3.2</ele><time>2022-03-20T09:00:22.000Z</time></trkpt><trkpt lon="5.901978" lat="51.092615"><ele>-3.2</ele><time>2022-03-20T09:00:23.000Z</time></trkpt><trkpt lon="5.902059" lat="51.092586"><ele>-3.2</ele><time>2022-03-20T09:00:24.000Z</time></trkpt><trkpt lon="5.902141" lat="51.092558"><ele>-3.2</ele><time>2022-03-20T09:00:25.000Z</time></trkpt><trkpt lon="5.902223" lat="51.092532"><ele>-3.2</ele><time>2022-03-20T09:00:26.000Z</time></trkpt><trkpt lon="5.902302" lat="51.092508"><ele>-3.2</ele><time>2022-03-20T09:00:27.000Z</time></trkpt><trkpt lon="5.90238" lat="51.092483"><ele>-3.2</ele><time>2022-03-20T09:00:28.000Z</time></trkpt><trkpt lon="5.902461" lat="51.092456"><ele>-3</ele><time>2022-03-20T09:00:29.000Z</time></trkpt><trkpt lon="5.902543" lat="51.092431"><ele>-3.2</ele><time>2022-03-20T09:00:30.000Z</time></trkpt><trkpt lon="5.902626" lat="51.092406"><ele>-3</ele><time>2022-03-20T09:00:31.000Z</time></trkpt><trkpt lon="5.902708" lat="51.092382"><ele>-3</ele><time>2022-03-20T09:00:32.000Z</time></trkpt><trkpt lon="5.902791" lat="51.092356"><ele>-3</ele><time>2022-03-20T09:00:33.000Z</time></trkpt><trkpt lon="5.902874" lat="51.092331"><ele>-3</ele><time>2022-03-20T09:00:34.000Z</time></trkpt><trkpt lon="5.902962" lat="51.092303"><ele>-3</ele><time>2022-03-20T09:00:35.000Z</time></trkpt><trkpt lon="5.903052" lat="51.092276"><ele>-2.8</ele><time>2022-03-20T09:00:36.000Z</time></trkpt><trkpt lon="5.903135" lat="51.092253"><ele>-2.8</ele><time>2022-03-20T09:00:37.000Z</time></trkpt><trkpt lon="5.903222" lat="51.092227"><ele>-3</ele><time>2022-03-20T09:00:38.000Z</time></trkpt><trkpt lon="5.903308" lat="51.092203"><ele>-3</ele><time>2022-03-20T09:00:39.000Z</time></trkpt><trkpt lon="5.903391" lat="51.092178"><ele>-3</ele><time>2022-03-20T09:00:40.000Z</time></trkpt><trkpt lon="5.903478" lat="51.092153"><ele>-2.8</ele><time>2022-03-20T09:00:41.000Z</time></trkpt><trkpt lon="5.903564" lat="51.09213"><ele>-2.8</ele><time>2022-03-20T09:00:42.000Z</time></trkpt><trkpt lon="5.903651" lat="51.092104"><ele>-2.8</ele><time>2022-03-20T09:00:43.000Z</time></trkpt><trkpt lon="5.903739" lat="51.092081"><ele>-3.2</ele><time>2022-03-20T09:00:44.000Z</time></trkpt><trkpt lon="5.903825" lat="51.092061"><ele>-3.2</ele><time>2022-03-20T09:00:45.000Z</time></trkpt><trkpt lon="5.903912" lat="51.092039"><ele>-3.2</ele><time>2022-03-20T09:00:46.000Z</time></trkpt><trkpt lon="5.903998" lat="51.092016"><ele>-3.2</ele><time>2022-03-20T09:00:47.000Z</time></trkpt><trkpt lon="5.904086" lat="51.091996"><ele>-3.2</ele><time>2022-03-20T09:00:48.000Z</time></trkpt><trkpt lon="5.904173" lat="51.091974"><ele>-3.2</ele><time>2022-03-20T09:00:49.000Z</time></trkpt><trkpt lon="5.904262" lat="51.091954"><ele>-3.2</ele><time>2022-03-20T09:00:50.000Z</time></trkpt><trkpt lon="5.90435" lat="51.091932"><ele>-3.2</ele><time>2022-03-20T09:00:51.000Z</time></trkpt><trkpt lon="5.904439" lat="51.091909"><ele>-3</ele><time>2022-03-20T09:00:52.000Z</time></trkpt><trkpt lon="5.904527" lat="51.091889"><ele>-2.8</ele><time>2022-03-20T09:00:53.000Z</time></trkpt><trkpt lon="5.904614" lat="51.091867"><ele>-2.8</ele><time>2022-03-20T09:00:54.000Z</time></trkpt><trkpt lon="5.9047" lat="51.091847"><ele>-2.8</ele><time>2022-03-20T09:00:55.000Z</time></trkpt><trkpt lon="5.904789" lat="51.091825"><ele>-2.6</ele><time>2022-03-20T09:00:56.000Z</time></trkpt><trkpt lon="5.904877" lat="51.091803"><ele>-2.6</ele><time>2022-03-20T09:00:57.000Z</time></trkpt><trkpt lon="5.904969" lat="51.09178"><ele>-2.6</ele><time>2022-03-20T09:00:58.000Z</time></trkpt><trkpt lon="5.905061" lat="51.091759"><ele>-2.6</ele><time>2022-03-20T09:00:59.000Z</time></trkpt><trkpt lon="5.905152" lat="51.091737"><ele>-2.4</ele><time>2022-03-20T09:01:00.000Z</time></trkpt><trkpt lon="5.905243" lat="51.091715"><ele>-2.4</ele><time>2022-03-20T09:01:01.000Z</time></trkpt><trkpt lon="5.905334" lat="51.091692"><ele>-2.6</ele><time>2022-03-20T09:01:02.000Z</time></trkpt><trkpt lon="5.905424" lat="51.091669"><ele>-2.6</ele><time>2022-03-20T09:01:03.000Z</time></trkpt><trkpt lon="5.905508" lat="51.091647"><ele>-2.4</ele><time>2022-03-20T09:01:04.000Z</time></trkpt><trkpt lon="5.905603" lat="51.091623"><ele>-2.4</ele><time>2022-03-20T09:01:05.000Z</time></trkpt><trkpt lon="5.905697" lat="51.0916"><ele>-2.6</ele><time>2022-03-20T09:01:06.000Z</time></trkpt><trkpt lon="5.905789" lat="51.091577"><ele>-2.4</ele><time>2022-03-20T09:01:07.000Z</time></trkpt><trkpt lon="5.90588" lat="51.091554"><ele>-2.4</ele><time>2022-03-20T09:01:08.000Z</time></trkpt><trkpt lon="5.90597" lat="51.091534"><ele>-2.6</ele><time>2022-03-20T09:01:09.000Z</time></trkpt><trkpt lon="5.90606" lat="51.091512"><ele>-2.6</ele><time>2022-03-20T09:01:10.000Z</time></trkpt><trkpt lon="5.906147" lat="51.09149"><ele>-2.6</ele><time>2022-03-20T09:01:11.000Z</time></trkpt><trkpt lon="5.906238" lat="51.09147"><ele>-2.6</ele><time>2022-03-20T09:01:12.000Z</time></trkpt><trkpt lon="5.906328" lat="51.091447"><ele>-2.6</ele><time>2022-03-20T09:01:13.000Z</time></trkpt><trkpt lon="5.906413" lat="51.091424"><ele>-2.6</ele><time>2022-03-20T09:01:14.000Z</time></trkpt><trkpt lon="5.9065" lat="51.091402"><ele>-2.6</ele><time>2022-03-20T09:01:15.000Z</time></trkpt><trkpt lon="5.906589" lat="51.091382"><ele>-2.6</ele><time>2022-03-20T09:01:16.000Z</time></trkpt><trkpt lon="5.906679" lat="51.09136"><ele>-2.6</ele><time>2022-03-20T09:01:17.000Z</time></trkpt><trkpt lon="5.906774" lat="51.091337"><ele>-2.6</ele><time>2022-03-20T09:01:18.000Z</time></trkpt><trkpt lon="5.906871" lat="51.091311"><ele>-2.6</ele><time>2022-03-20T09:01:19.000Z</time></trkpt><trkpt lon="5.906966" lat="51.091288"><ele>-2.6</ele><time>2022-03-20T09:01:20.000Z</time></trkpt><trkpt lon="5.907064" lat="51.091262"><ele>-2.6</ele><time>2022-03-20T09:01:21.000Z</time></trkpt><trkpt lon="5.907158" lat="51.091235"><ele>-2.4</ele><time>2022-03-20T09:01:22.000Z</time></trkpt><trkpt lon="5.907254" lat="51.091208"><ele>-2.4</ele><time>2022-03-20T09:01:23.000Z</time></trkpt><trkpt lon="5.907348" lat="51.091182"><ele>-2.2</ele><time>2022-03-20T09:01:24.000Z</time></trkpt><trkpt lon="5.907443" lat="51.091152"><ele>-2.2</ele><time>2022-03-20T09:01:25.000Z</time></trkpt><trkpt lon="5.907534" lat="51.091121"><ele>-2.2</ele><time>2022-03-20T09:01:26.000Z</time></trkpt><trkpt lon="5.907625" lat="51.09109"><ele>-2.2</ele><time>2022-03-20T09:01:27.000Z</time></trkpt><trkpt lon="5.907711" lat="51.091066"><ele>-2.2</ele><time>2022-03-20T09:01:28.000Z</time></trkpt><trkpt lon="5.907798" lat="51.091043"><ele>-2.4</ele><time>2022-03-20T09:01:29.000Z</time></trkpt><trkpt lon="5.907888" lat="51.09102"><ele>-2.4</ele><time>2022-03-20T09:01:30.000Z</time></trkpt><trkpt lon="5.907976" lat="51.090997"><ele>-2.4</ele><time>2022-03-20T09:01:31.000Z</time></trkpt><trkpt lon="5.908065" lat="51.090977"><ele>-2.4</ele><time>2022-03-20T09:01:32.000Z</time></trkpt><trkpt lon="5.908156" lat="51.090961"><ele>-2.6</ele><time>2022-03-20T09:01:33.000Z</time></trkpt><trkpt lon="5.908236" lat="51.090945"><ele>-2.4</ele><time>2022-03-20T09:01:34.000Z</time></trkpt><trkpt lon="5.908331" lat="51.090925"><ele>-2.4</ele><time>2022-03-20T09:01:35.000Z</time></trkpt><trkpt lon="5.908427" lat="51.090902"><ele>-2.4</ele><time>2022-03-20T09:01:36.000Z</time></trkpt><trkpt lon="5.908519" lat="51.090879"><ele>-2.4</ele><time>2022-03-20T09:01:37.000Z</time></trkpt><trkpt lon="5.90861" lat="51.090856"><ele>-2.2</ele><time>2022-03-20T09:01:38.000Z</time></trkpt><trkpt lon="5.9087" lat="51.090833"><ele>-2.2</ele><time>2022-03-20T09:01:39.000Z</time></trkpt><trkpt lon="5.90879" lat="51.090811"><ele>-2.2</ele><time>2022-03-20T09:01:40.000Z</time></trkpt><trkpt lon="5.908881" lat="51.090791"><ele>-2.2</ele><time>2022-03-20T09:01:41.000Z</time></trkpt><trkpt lon="5.908972" lat="51.090769"><ele>-2.2</ele><time>2022-03-20T09:01:42.000Z</time></trkpt><trkpt lon="5.909064" lat="51.090746"><ele>-2</ele><time>2022-03-20T09:01:43.000Z</time></trkpt><trkpt lon="5.909156" lat="51.090723"><ele>-2</ele><time>2022-03-20T09:01:44.000Z</time></trkpt><trkpt lon="5.909246" lat="51.090703"><ele>-2</ele><time>2022-03-20T09:01:45.000Z</time></trkpt><trkpt lon="5.909337" lat="51.090678"><ele>-2</ele><time>2022-03-20T09:01:46.000Z</time></trkpt><trkpt lon="5.909428" lat="51.090657"><ele>-2</ele><time>2022-03-20T09:01:47.000Z</time></trkpt><trkpt lon="5.90952" lat="51.090635"><ele>-1.8</ele><time>2022-03-20T09:01:48.000Z</time></trkpt><trkpt lon="5.909612" lat="51.090612"><ele>-1.8</ele><time>2022-03-20T09:01:49.000Z</time></trkpt><trkpt lon="5.909705" lat="51.090589"><ele>-1.8</ele><time>2022-03-20T09:01:50.000Z</time></trkpt><trkpt lon="5.909796" lat="51.090566"><ele>-1.8</ele><time>2022-03-20T09:01:51.000Z</time></trkpt><trkpt lon="5.909888" lat="51.090544"><ele>-1.6</ele><time>2022-03-20T09:01:52.000Z</time></trkpt><trkpt lon="5.909982" lat="51.090521"><ele>-1.6</ele><time>2022-03-20T09:01:53.000Z</time></trkpt><trkpt lon="5.910075" lat="51.090498"><ele>-1.6</ele><time>2022-03-20T09:01:54.000Z</time></trkpt><trkpt lon="5.910164" lat="51.090478"><ele>-1.6</ele><time>2022-03-20T09:01:55.000Z</time></trkpt><trkpt lon="5.910254" lat="51.090456"><ele>-1.6</ele><time>2022-03-20T09:01:56.000Z</time></trkpt><trkpt lon="5.910345" lat="51.090433"><ele>-1.6</ele><time>2022-03-20T09:01:57.000Z</time></trkpt><trkpt lon="5.910435" lat="51.090413"><ele>-1.6</ele><time>2022-03-20T09:01:58.000Z</time></trkpt><trkpt lon="5.910522" lat="51.090388"><ele>-1.6</ele><time>2022-03-20T09:01:59.000Z</time></trkpt><trkpt lon="5.910607" lat="51.090364"><ele>-1.6</ele><time>2022-03-20T09:02:00.000Z</time></trkpt><trkpt lon="5.910696" lat="51.090341"><ele>-1.6</ele><time>2022-03-20T09:02:01.000Z</time></trkpt><trkpt lon="5.910785" lat="51.090318"><ele>-1.6</ele><time>2022-03-20T09:02:02.000Z</time></trkpt><trkpt lon="5.910875" lat="51.090295"><ele>-1.6</ele><time>2022-03-20T09:02:03.000Z</time></trkpt><trkpt lon="5.910964" lat="51.090273"><ele>-1.6</ele><time>2022-03-20T09:02:04.000Z</time></trkpt><trkpt lon="5.911053" lat="51.09025"><ele>-1.6</ele><time>2022-03-20T09:02:05.000Z</time></trkpt><trkpt lon="5.91114" lat="51.090227"><ele>-1.8</ele><time>2022-03-20T09:02:06.000Z</time></trkpt><trkpt lon="5.911226" lat="51.090204"><ele>-1.6</ele><time>2022-03-20T09:02:07.000Z</time></trkpt><trkpt lon="5.911313" lat="51.090184"><ele>-1.6</ele><time>2022-03-20T09:02:08.000Z</time></trkpt><trkpt lon="5.9114" lat="51.090165"><ele>-1.6</ele><time>2022-03-20T09:02:09.000Z</time></trkpt><trkpt lon="5.911487" lat="51.090143"><ele>-1.6</ele><time>2022-03-20T09:02:10.000Z</time></trkpt><trkpt lon="5.911574" lat="51.090123"><ele>-1.4</ele><time>2022-03-20T09:02:11.000Z</time></trkpt><trkpt lon="5.911663" lat="51.090098"><ele>-1.2</ele><time>2022-03-20T09:02:12.000Z</time></trkpt><trkpt lon="5.91175" lat="51.090074"><ele>-1.2</ele><time>2022-03-20T09:02:13.000Z</time></trkpt><trkpt lon="5.91184" lat="51.090054"><ele>-1.2</ele><time>2022-03-20T09:02:14.000Z</time></trkpt><trkpt lon="5.911931" lat="51.090032"><ele>-1.4</ele><time>2022-03-20T09:02:15.000Z</time></trkpt><trkpt lon="5.912022" lat="51.090009"><ele>-1.4</ele><time>2022-03-20T09:02:16.000Z</time></trkpt><trkpt lon="5.912111" lat="51.089986"><ele>-1.2</ele><time>2022-03-20T09:02:17.000Z</time></trkpt><trkpt lon="5.9122" lat="51.089964"><ele>-1.4</ele><time>2022-03-20T09:02:18.000Z</time></trkpt><trkpt lon="5.912289" lat="51.089938"><ele>-1.4</ele><time>2022-03-20T09:02:19.000Z</time></trkpt><trkpt lon="5.912379" lat="51.089917"><ele>-1.4</ele><time>2022-03-20T09:02:20.000Z</time></trkpt><trkpt lon="5.912468" lat="51.089895"><ele>-1.4</ele><time>2022-03-20T09:02:21.000Z</time></trkpt><trkpt lon="5.912555" lat="51.089876"><ele>-1.4</ele><time>2022-03-20T09:02:22.000Z</time></trkpt><trkpt lon="5.912646" lat="51.089853"><ele>-1.2</ele><time>2022-03-20T09:02:23.000Z</time></trkpt><trkpt lon="5.912737" lat="51.08983"><ele>-1.2</ele><time>2022-03-20T09:02:24.000Z</time></trkpt><trkpt lon="5.912828" lat="51.089807"><ele>-1.2</ele><time>2022-03-20T09:02:25.000Z</time></trkpt><trkpt lon="5.912915" lat="51.089782"><ele>-1.2</ele><time>2022-03-20T09:02:26.000Z</time></trkpt><trkpt lon="5.913005" lat="51.089758"><ele>-1</ele><time>2022-03-20T09:02:27.000Z</time></trkpt><trkpt lon="5.913098" lat="51.089735"><ele>-1</ele><time>2022-03-20T09:02:28.000Z</time></trkpt><trkpt lon="5.913194" lat="51.089712"><ele>-1</ele><time>2022-03-20T09:02:29.000Z</time></trkpt><trkpt lon="5.913287" lat="51.089689"><ele>-1</ele><time>2022-03-20T09:02:30.000Z</time></trkpt><trkpt lon="5.913382" lat="51.089663"><ele>-1</ele><time>2022-03-20T09:02:31.000Z</time></trkpt><trkpt lon="5.913478" lat="51.089639"><ele>-1.2</ele><time>2022-03-20T09:02:32.000Z</time></trkpt><trkpt lon="5.91357" lat="51.089617"><ele>-1.2</ele><time>2022-03-20T09:02:33.000Z</time></trkpt><trkpt lon="5.913661" lat="51.089594"><ele>-1.2</ele><time>2022-03-20T09:02:34.000Z</time></trkpt><trkpt lon="5.913755" lat="51.089568"><ele>-1</ele><time>2022-03-20T09:02:35.000Z</time></trkpt><trkpt lon="5.913848" lat="51.089544"><ele>-1</ele><time>2022-03-20T09:02:36.000Z</time></trkpt><trkpt lon="5.913939" lat="51.089521"><ele>-1</ele><time>2022-03-20T09:02:37.000Z</time></trkpt><trkpt lon="5.914032" lat="51.089498"><ele>-1</ele><time>2022-03-20T09:02:38.000Z</time></trkpt><trkpt lon="5.914124" lat="51.089475"><ele>-1</ele><time>2022-03-20T09:02:39.000Z</time></trkpt><trkpt lon="5.914217" lat="51.089452"><ele>-0.8</ele><time>2022-03-20T09:02:40.000Z</time></trkpt><trkpt lon="5.914309" lat="51.089427"><ele>-0.8</ele><time>2022-03-20T09:02:41.000Z</time></trkpt><trkpt lon="5.914399" lat="51.089403"><ele>-0.8</ele><time>2022-03-20T09:02:42.000Z</time></trkpt><trkpt lon="5.914491" lat="51.08938"><ele>-0.8</ele><time>2022-03-20T09:02:43.000Z</time></trkpt><trkpt lon="5.914583" lat="51.089357"><ele>-0.8</ele><time>2022-03-20T09:02:44.000Z</time></trkpt><trkpt lon="5.914675" lat="51.089334"><ele>-0.8</ele><time>2022-03-20T09:02:45.000Z</time></trkpt><trkpt lon="5.914768" lat="51.089311"><ele>-0.8</ele><time>2022-03-20T09:02:46.000Z</time></trkpt><trkpt lon="5.91486" lat="51.089288"><ele>-0.8</ele><time>2022-03-20T09:02:47.000Z</time></trkpt><trkpt lon="5.914952" lat="51.089266"><ele>-0.8</ele><time>2022-03-20T09:02:48.000Z</time></trkpt><trkpt lon="5.915044" lat="51.08924"><ele>-0.8</ele><time>2022-03-20T09:02:49.000Z</time></trkpt><trkpt lon="5.915137" lat="51.089219"><ele>-0.8</ele><time>2022-03-20T09:02:50.000Z</time></trkpt><trkpt lon="5.91523" lat="51.089197"><ele>-0.8</ele><time>2022-03-20T09:02:51.000Z</time></trkpt><trkpt lon="5.915323" lat="51.089174"><ele>-1</ele><time>2022-03-20T09:02:52.000Z</time></trkpt><trkpt lon="5.915418" lat="51.089148"><ele>-1</ele><time>2022-03-20T09:02:53.000Z</time></trkpt><trkpt lon="5.91551" lat="51.089127"><ele>-1</ele><time>2022-03-20T09:02:54.000Z</time></trkpt><trkpt lon="5.915602" lat="51.089105"><ele>-1</ele><time>2022-03-20T09:02:55.000Z</time></trkpt><trkpt lon="5.915697" lat="51.089083"><ele>-1</ele><time>2022-03-20T09:02:56.000Z</time></trkpt><trkpt lon="5.915788" lat="51.08906"><ele>-1</ele><time>2022-03-20T09:02:57.000Z</time></trkpt><trkpt lon="5.915881" lat="51.089034"><ele>-1.2</ele><time>2022-03-20T09:02:58.000Z</time></trkpt><trkpt lon="5.915975" lat="51.08901"><ele>-1</ele><time>2022-03-20T09:02:59.000Z</time></trkpt><trkpt lon="5.916067" lat="51.088984"><ele>-1</ele><time>2022-03-20T09:03:00.000Z</time></trkpt><trkpt lon="5.916157" lat="51.088954"><ele>-1</ele><time>2022-03-20T09:03:01.000Z</time></trkpt><trkpt lon="5.916247" lat="51.088927"><ele>-1.2</ele><time>2022-03-20T09:03:02.000Z</time></trkpt><trkpt lon="5.916338" lat="51.088897"><ele>-1.2</ele><time>2022-03-20T09:03:03.000Z</time></trkpt><trkpt lon="5.916423" lat="51.088872"><ele>-1.2</ele><time>2022-03-20T09:03:04.000Z</time></trkpt><trkpt lon="5.916519" lat="51.088843"><ele>-1.2</ele><time>2022-03-20T09:03:05.000Z</time></trkpt><trkpt lon="5.916611" lat="51.088816"><ele>-1</ele><time>2022-03-20T09:03:06.000Z</time></trkpt><trkpt lon="5.916703" lat="51.088792"><ele>-1</ele><time>2022-03-20T09:03:07.000Z</time></trkpt><trkpt lon="5.916795" lat="51.08877"><ele>-1</ele><time>2022-03-20T09:03:08.000Z</time></trkpt><trkpt lon="5.916887" lat="51.08875"><ele>-1</ele><time>2022-03-20T09:03:09.000Z</time></trkpt><trkpt lon="5.916979" lat="51.088728"><ele>-1</ele><time>2022-03-20T09:03:10.000Z</time></trkpt><trkpt lon="5.917068" lat="51.088708"><ele>-0.8</ele><time>2022-03-20T09:03:11.000Z</time></trkpt><trkpt lon="5.917155" lat="51.088686"><ele>-0.8</ele><time>2022-03-20T09:03:12.000Z</time></trkpt><trkpt lon="5.917243" lat="51.088666"><ele>-0.8</ele><time>2022-03-20T09:03:13.000Z</time></trkpt><trkpt lon="5.917328" lat="51.088644"><ele>-0.6</ele><time>2022-03-20T09:03:14.000Z</time></trkpt><trkpt lon="5.917409" lat="51.088624"><ele>-0.6</ele><time>2022-03-20T09:03:15.000Z</time></trkpt><trkpt lon="5.917483" lat="51.088605"><ele>-0.6</ele><time>2022-03-20T09:03:16.000Z</time></trkpt><trkpt lon="5.917556" lat="51.088589"><ele>-0.6</ele><time>2022-03-20T09:03:17.000Z</time></trkpt><trkpt lon="5.917626" lat="51.08857"><ele>-0.6</ele><time>2022-03-20T09:03:18.000Z</time></trkpt><trkpt lon="5.91769" lat="51.088554"><ele>-0.6</ele><time>2022-03-20T09:03:19.000Z</time></trkpt><trkpt lon="5.917754" lat="51.088539"><ele>-0.8</ele><time>2022-03-20T09:03:20.000Z</time></trkpt><trkpt lon="5.917809" lat="51.088524"><ele>-0.8</ele><time>2022-03-20T09:03:21.000Z</time></trkpt><trkpt lon="5.917857" lat="51.088511"><ele>-0.8</ele><time>2022-03-20T09:03:22.000Z</time></trkpt><trkpt lon="5.917899" lat="51.088503"><ele>-0.8</ele><time>2022-03-20T09:03:23.000Z</time></trkpt><trkpt lon="5.917936" lat="51.088498"><ele>-0.8</ele><time>2022-03-20T09:03:24.000Z</time></trkpt><trkpt lon="5.917968" lat="51.088506"><ele>-0.8</ele><time>2022-03-20T09:03:25.000Z</time></trkpt><trkpt lon="5.917989" lat="51.088529"><ele>-0.8</ele><time>2022-03-20T09:03:26.000Z</time></trkpt><trkpt lon="5.918007" lat="51.088559"><ele>-0.8</ele><time>2022-03-20T09:03:27.000Z</time></trkpt><trkpt lon="5.918025" lat="51.088591"><ele>-0.8</ele><time>2022-03-20T09:03:28.000Z</time></trkpt><trkpt lon="5.918055" lat="51.08862"><ele>-0.8</ele><time>2022-03-20T09:03:29.000Z</time></trkpt><trkpt lon="5.918099" lat="51.088639"><ele>-0.8</ele><time>2022-03-20T09:03:30.000Z</time></trkpt><trkpt lon="5.918159" lat="51.088639"><ele>-1</ele><time>2022-03-20T09:03:31.000Z</time></trkpt><trkpt lon="5.918234" lat="51.088624"><ele>-1</ele><time>2022-03-20T09:03:32.000Z</time></trkpt><trkpt lon="5.918318" lat="51.088605"><ele>-1</ele><time>2022-03-20T09:03:33.000Z</time></trkpt><trkpt lon="5.918401" lat="51.088585"><ele>-1</ele><time>2022-03-20T09:03:34.000Z</time></trkpt><trkpt lon="5.918503" lat="51.088558"><ele>-1</ele><time>2022-03-20T09:03:35.000Z</time></trkpt><trkpt lon="5.918603" lat="51.088533"><ele>-1</ele><time>2022-03-20T09:03:36.000Z</time></trkpt><trkpt lon="5.918697" lat="51.08851"><ele>-1</ele><time>2022-03-20T09:03:37.000Z</time></trkpt><trkpt lon="5.918787" lat="51.088487"><ele>-1</ele><time>2022-03-20T09:03:38.000Z</time></trkpt><trkpt lon="5.918874" lat="51.088467"><ele>-1</ele><time>2022-03-20T09:03:39.000Z</time></trkpt><trkpt lon="5.918963" lat="51.088445"><ele>-1</ele><time>2022-03-20T09:03:40.000Z</time></trkpt><trkpt lon="5.919054" lat="51.088423"><ele>-0.8</ele><time>2022-03-20T09:03:41.000Z</time></trkpt><trkpt lon="5.919148" lat="51.0884"><ele>-0.8</ele><time>2022-03-20T09:03:42.000Z</time></trkpt><trkpt lon="5.919243" lat="51.088377"><ele>-0.8</ele><time>2022-03-20T09:03:43.000Z</time></trkpt><trkpt lon="5.919339" lat="51.088354"><ele>-1</ele><time>2022-03-20T09:03:44.000Z</time></trkpt><trkpt lon="5.919439" lat="51.088334"><ele>-1</ele><time>2022-03-20T09:03:45.000Z</time></trkpt><trkpt lon="5.919536" lat="51.088312"><ele>-1</ele><time>2022-03-20T09:03:46.000Z</time></trkpt><trkpt lon="5.919632" lat="51.088289"><ele>-0.8</ele><time>2022-03-20T09:03:47.000Z</time></trkpt><trkpt lon="5.919726" lat="51.088266"><ele>-1</ele><time>2022-03-20T09:03:48.000Z</time></trkpt><trkpt lon="5.91982" lat="51.088246"><ele>-0.8</ele><time>2022-03-20T09:03:49.000Z</time></trkpt><trkpt lon="5.919914" lat="51.088221"><ele>-0.8</ele><time>2022-03-20T09:03:50.000Z</time></trkpt><trkpt lon="5.92001" lat="51.0882"><ele>-0.8</ele><time>2022-03-20T09:03:51.000Z</time></trkpt><trkpt lon="5.920106" lat="51.088179"><ele>-0.8</ele><time>2022-03-20T09:03:52.000Z</time></trkpt><trkpt lon="5.920202" lat="51.088156"><ele>-0.8</ele><time>2022-03-20T09:03:53.000Z</time></trkpt><trkpt lon="5.920297" lat="51.088133"><ele>-1</ele><time>2022-03-20T09:03:54.000Z</time></trkpt><trkpt lon="5.920397" lat="51.08811"><ele>-1</ele><time>2022-03-20T09:03:55.000Z</time></trkpt><trkpt lon="5.920491" lat="51.08809"><ele>-1.2</ele><time>2022-03-20T09:03:56.000Z</time></trkpt><trkpt lon="5.920586" lat="51.088068"><ele>-1.2</ele><time>2022-03-20T09:03:57.000Z</time></trkpt><trkpt lon="5.92068" lat="51.088048"><ele>-1.2</ele><time>2022-03-20T09:03:58.000Z</time></trkpt><trkpt lon="5.920774" lat="51.088026"><ele>-1.2</ele><time>2022-03-20T09:03:59.000Z</time></trkpt><trkpt lon="5.920866" lat="51.088006"><ele>-1.2</ele><time>2022-03-20T09:04:00.000Z</time></trkpt><trkpt lon="5.920957" lat="51.087984"><ele>-1.2</ele><time>2022-03-20T09:04:01.000Z</time></trkpt><trkpt lon="5.921049" lat="51.087964"><ele>-1.2</ele><time>2022-03-20T09:04:02.000Z</time></trkpt><trkpt lon="5.921142" lat="51.087945"><ele>-1</ele><time>2022-03-20T09:04:03.000Z</time></trkpt><trkpt lon="5.921229" lat="51.087927"><ele>-1</ele><time>2022-03-20T09:04:04.000Z</time></trkpt><trkpt lon="5.921329" lat="51.087904"><ele>-1</ele><time>2022-03-20T09:04:05.000Z</time></trkpt><trkpt lon="5.921429" lat="51.087881"><ele>-1</ele><time>2022-03-20T09:04:06.000Z</time></trkpt><trkpt lon="5.921527" lat="51.087861"><ele>-1</ele><time>2022-03-20T09:04:07.000Z</time></trkpt><trkpt lon="5.921623" lat="51.087839"><ele>-1</ele><time>2022-03-20T09:04:08.000Z</time></trkpt><trkpt lon="5.921721" lat="51.087816"><ele>-1</ele><time>2022-03-20T09:04:09.000Z</time></trkpt><trkpt lon="5.921818" lat="51.087796"><ele>-1</ele><time>2022-03-20T09:04:10.000Z</time></trkpt><trkpt lon="5.921915" lat="51.087774"><ele>-1</ele><time>2022-03-20T09:04:11.000Z</time></trkpt><trkpt lon="5.922011" lat="51.087754"><ele>-1.2</ele><time>2022-03-20T09:04:12.000Z</time></trkpt><trkpt lon="5.922107" lat="51.087735"><ele>-1.2</ele><time>2022-03-20T09:04:13.000Z</time></trkpt><trkpt lon="5.922203" lat="51.087716"><ele>-1.4</ele><time>2022-03-20T09:04:14.000Z</time></trkpt><trkpt lon="5.922299" lat="51.087694"><ele>-1.4</ele><time>2022-03-20T09:04:15.000Z</time></trkpt><trkpt lon="5.922395" lat="51.087674"><ele>-1.4</ele><time>2022-03-20T09:04:16.000Z</time></trkpt><trkpt lon="5.92249" lat="51.087655"><ele>-1.4</ele><time>2022-03-20T09:04:17.000Z</time></trkpt><trkpt lon="5.922586" lat="51.087636"><ele>-1.2</ele><time>2022-03-20T09:04:18.000Z</time></trkpt><trkpt lon="5.922681" lat="51.087614"><ele>-1.2</ele><time>2022-03-20T09:04:19.000Z</time></trkpt><trkpt lon="5.922779" lat="51.087597"><ele>-1.2</ele><time>2022-03-20T09:04:20.000Z</time></trkpt><trkpt lon="5.922873" lat="51.087579"><ele>-1.2</ele><time>2022-03-20T09:04:21.000Z</time></trkpt><trkpt lon="5.922969" lat="51.087557"><ele>-1.2</ele><time>2022-03-20T09:04:22.000Z</time></trkpt><trkpt lon="5.923069" lat="51.087537"><ele>-1</ele><time>2022-03-20T09:04:23.000Z</time></trkpt><trkpt lon="5.923166" lat="51.087517"><ele>-1</ele><time>2022-03-20T09:04:24.000Z</time></trkpt><trkpt lon="5.923262" lat="51.087496"><ele>-1</ele><time>2022-03-20T09:04:25.000Z</time></trkpt><trkpt lon="5.923359" lat="51.087476"><ele>-1</ele><time>2022-03-20T09:04:26.000Z</time></trkpt><trkpt lon="5.923459" lat="51.087454"><ele>-1.2</ele><time>2022-03-20T09:04:27.000Z</time></trkpt><trkpt lon="5.92356" lat="51.087436"><ele>-1.2</ele><time>2022-03-20T09:04:28.000Z</time></trkpt><trkpt lon="5.923659" lat="51.087418"><ele>-1.2</ele><time>2022-03-20T09:04:29.000Z</time></trkpt><trkpt lon="5.923756" lat="51.087399"><ele>-1.2</ele><time>2022-03-20T09:04:30.000Z</time></trkpt><trkpt lon="5.923852" lat="51.087377"><ele>-1.2</ele><time>2022-03-20T09:04:31.000Z</time></trkpt><trkpt lon="5.92395" lat="51.087354"><ele>-1.2</ele><time>2022-03-20T09:04:32.000Z</time></trkpt><trkpt lon="5.92405" lat="51.087331"><ele>-1.4</ele><time>2022-03-20T09:04:33.000Z</time></trkpt><trkpt lon="5.924141" lat="51.087311"><ele>-1.6</ele><time>2022-03-20T09:04:34.000Z</time></trkpt><trkpt lon="5.924246" lat="51.087284"><ele>-1.8</ele><time>2022-03-20T09:04:35.000Z</time></trkpt><trkpt lon="5.924346" lat="51.087259"><ele>-2.2</ele><time>2022-03-20T09:04:36.000Z</time></trkpt><trkpt lon="5.924441" lat="51.087236"><ele>-2</ele><time>2022-03-20T09:04:37.000Z</time></trkpt><trkpt lon="5.924535" lat="51.08721"><ele>-1.8</ele><time>2022-03-20T09:04:38.000Z</time></trkpt><trkpt lon="5.92463" lat="51.08718"><ele>-1.8</ele><time>2022-03-20T09:04:39.000Z</time></trkpt><trkpt lon="5.924721" lat="51.087154"><ele>-1.6</ele><time>2022-03-20T09:04:40.000Z</time></trkpt><trkpt lon="5.924817" lat="51.087127"><ele>-1.6</ele><time>2022-03-20T09:04:41.000Z</time></trkpt><trkpt lon="5.924912" lat="51.087097"><ele>-1.6</ele><time>2022-03-20T09:04:42.000Z</time></trkpt><trkpt lon="5.925005" lat="51.087063"><ele>-1.6</ele><time>2022-03-20T09:04:43.000Z</time></trkpt><trkpt lon="5.925094" lat="51.087032"><ele>-1.4</ele><time>2022-03-20T09:04:44.000Z</time></trkpt><trkpt lon="5.92518" lat="51.087001"><ele>-1.2</ele><time>2022-03-20T09:04:45.000Z</time></trkpt><trkpt lon="5.925267" lat="51.086968"><ele>-1.2</ele><time>2022-03-20T09:04:46.000Z</time></trkpt><trkpt lon="5.925349" lat="51.08694"><ele>-1.2</ele><time>2022-03-20T09:04:47.000Z</time></trkpt><trkpt lon="5.92544" lat="51.08691"><ele>-1.2</ele><time>2022-03-20T09:04:48.000Z</time></trkpt><trkpt lon="5.925533" lat="51.086876"><ele>-1.2</ele><time>2022-03-20T09:04:49.000Z</time></trkpt><trkpt lon="5.925625" lat="51.086845"><ele>-1.2</ele><time>2022-03-20T09:04:50.000Z</time></trkpt><trkpt lon="5.925718" lat="51.086814"><ele>-1.2</ele><time>2022-03-20T09:04:51.000Z</time></trkpt><trkpt lon="5.925812" lat="51.086781"><ele>-1.2</ele><time>2022-03-20T09:04:52.000Z</time></trkpt><trkpt lon="5.925905" lat="51.086747"><ele>-1.2</ele><time>2022-03-20T09:04:53.000Z</time></trkpt><trkpt lon="5.925994" lat="51.086713"><ele>-1.2</ele><time>2022-03-20T09:04:54.000Z</time></trkpt><trkpt lon="5.926079" lat="51.086675"><ele>-1.4</ele><time>2022-03-20T09:04:55.000Z</time></trkpt><trkpt lon="5.926165" lat="51.086634"><ele>-1.6</ele><time>2022-03-20T09:04:56.000Z</time></trkpt><trkpt lon="5.92625" lat="51.086595"><ele>-1.6</ele><time>2022-03-20T09:04:57.000Z</time></trkpt><trkpt lon="5.926338" lat="51.086557"><ele>-1.6</ele><time>2022-03-20T09:04:58.000Z</time></trkpt><trkpt lon="5.926425" lat="51.086516"><ele>-1.4</ele><time>2022-03-20T09:04:59.000Z</time></trkpt><trkpt lon="5.926508" lat="51.086474"><ele>-1.4</ele><time>2022-03-20T09:05:00.000Z</time></trkpt><trkpt lon="5.926592" lat="51.086429"><ele>-1.4</ele><time>2022-03-20T09:05:01.000Z</time></trkpt><trkpt lon="5.926675" lat="51.086389"><ele>-1.4</ele><time>2022-03-20T09:05:02.000Z</time></trkpt><trkpt lon="5.926758" lat="51.086345"><ele>-1.4</ele><time>2022-03-20T09:05:03.000Z</time></trkpt><trkpt lon="5.926834" lat="51.086305"><ele>-1.4</ele><time>2022-03-20T09:05:04.000Z</time></trkpt><trkpt lon="5.926916" lat="51.086258"><ele>-1.2</ele><time>2022-03-20T09:05:05.000Z</time></trkpt><trkpt lon="5.926996" lat="51.086214"><ele>-1.4</ele><time>2022-03-20T09:05:06.000Z</time></trkpt><trkpt lon="5.927076" lat="51.086173"><ele>-1.4</ele><time>2022-03-20T09:05:07.000Z</time></trkpt><trkpt lon="5.927156" lat="51.086128"><ele>-1.6</ele><time>2022-03-20T09:05:08.000Z</time></trkpt><trkpt lon="5.927233" lat="51.086085"><ele>-1.8</ele><time>2022-03-20T09:05:09.000Z</time></trkpt><trkpt lon="5.927307" lat="51.08604"><ele>-1.8</ele><time>2022-03-20T09:05:10.000Z</time></trkpt><trkpt lon="5.927382" lat="51.085994"><ele>-2</ele><time>2022-03-20T09:05:11.000Z</time></trkpt><trkpt lon="5.927456" lat="51.085946"><ele>-2</ele><time>2022-03-20T09:05:12.000Z</time></trkpt><trkpt lon="5.927532" lat="51.085896"><ele>-2</ele><time>2022-03-20T09:05:13.000Z</time></trkpt><trkpt lon="5.927608" lat="51.085849"><ele>-1.8</ele><time>2022-03-20T09:05:14.000Z</time></trkpt><trkpt lon="5.927682" lat="51.085801"><ele>-1.8</ele><time>2022-03-20T09:05:15.000Z</time></trkpt><trkpt lon="5.927756" lat="51.085751"><ele>-1.8</ele><time>2022-03-20T09:05:16.000Z</time></trkpt><trkpt lon="5.927829" lat="51.085704"><ele>-1.8</ele><time>2022-03-20T09:05:17.000Z</time></trkpt><trkpt lon="5.927902" lat="51.085652"><ele>-1.8</ele><time>2022-03-20T09:05:18.000Z</time></trkpt><trkpt lon="5.927973" lat="51.085602"><ele>-1.8</ele><time>2022-03-20T09:05:19.000Z</time></trkpt><trkpt lon="5.928043" lat="51.085553"><ele>-1.8</ele><time>2022-03-20T09:05:20.000Z</time></trkpt><trkpt lon="5.928111" lat="51.085503"><ele>-1.8</ele><time>2022-03-20T09:05:21.000Z</time></trkpt><trkpt lon="5.928177" lat="51.085451"><ele>-1.8</ele><time>2022-03-20T09:05:22.000Z</time></trkpt><trkpt lon="5.928242" lat="51.0854"><ele>-1.8</ele><time>2022-03-20T09:05:23.000Z</time></trkpt><trkpt lon="5.928307" lat="51.085348"><ele>-2</ele><time>2022-03-20T09:05:24.000Z</time></trkpt><trkpt lon="5.928374" lat="51.085297"><ele>-2</ele><time>2022-03-20T09:05:25.000Z</time></trkpt><trkpt lon="5.928442" lat="51.085244"><ele>-2</ele><time>2022-03-20T09:05:26.000Z</time></trkpt><trkpt lon="5.928508" lat="51.085188"><ele>-2</ele><time>2022-03-20T09:05:27.000Z</time></trkpt><trkpt lon="5.928571" lat="51.085134"><ele>-2</ele><time>2022-03-20T09:05:28.000Z</time></trkpt><trkpt lon="5.928635" lat="51.08508"><ele>-2</ele><time>2022-03-20T09:05:29.000Z</time></trkpt><trkpt lon="5.928698" lat="51.085024"><ele>-1.8</ele><time>2022-03-20T09:05:30.000Z</time></trkpt><trkpt lon="5.928761" lat="51.08497"><ele>-1.8</ele><time>2022-03-20T09:05:31.000Z</time></trkpt><trkpt lon="5.928823" lat="51.084917"><ele>-1.8</ele><time>2022-03-20T09:05:32.000Z</time></trkpt><trkpt lon="5.928885" lat="51.084863"><ele>-1.8</ele><time>2022-03-20T09:05:33.000Z</time></trkpt><trkpt lon="5.928938" lat="51.084816"><ele>-1.6</ele><time>2022-03-20T09:05:34.000Z</time></trkpt><trkpt lon="5.929001" lat="51.084756"><ele>-1.6</ele><time>2022-03-20T09:05:35.000Z</time></trkpt><trkpt lon="5.929061" lat="51.084699"><ele>-1.6</ele><time>2022-03-20T09:05:36.000Z</time></trkpt><trkpt lon="5.929119" lat="51.084642"><ele>-1.4</ele><time>2022-03-20T09:05:37.000Z</time></trkpt><trkpt lon="5.929171" lat="51.084588"><ele>-1.2</ele><time>2022-03-20T09:05:38.000Z</time></trkpt><trkpt lon="5.929223" lat="51.084535"><ele>-1</ele><time>2022-03-20T09:05:39.000Z</time></trkpt><trkpt lon="5.929271" lat="51.084485"><ele>-0.8</ele><time>2022-03-20T09:05:40.000Z</time></trkpt><trkpt lon="5.929322" lat="51.084438"><ele>-0.8</ele><time>2022-03-20T09:05:41.000Z</time></trkpt><trkpt lon="5.929376" lat="51.084389"><ele>-0.6</ele><time>2022-03-20T09:05:42.000Z</time></trkpt><trkpt lon="5.929434" lat="51.084342"><ele>-0.4</ele><time>2022-03-20T09:05:43.000Z</time></trkpt><trkpt lon="5.929501" lat="51.084302"><ele>-0.2</ele><time>2022-03-20T09:05:44.000Z</time></trkpt><trkpt lon="5.929578" lat="51.084273"><ele>0</ele><time>2022-03-20T09:05:45.000Z</time></trkpt><trkpt lon="5.929667" lat="51.084264"><ele>0</ele><time>2022-03-20T09:05:46.000Z</time></trkpt><trkpt lon="5.92976" lat="51.084272"><ele>0.2</ele><time>2022-03-20T09:05:47.000Z</time></trkpt><trkpt lon="5.929855" lat="51.084292"><ele>0.2</ele><time>2022-03-20T09:05:48.000Z</time></trkpt><trkpt lon="5.929948" lat="51.084315"><ele>0.2</ele><time>2022-03-20T09:05:49.000Z</time></trkpt><trkpt lon="5.93004" lat="51.084337"><ele>0.2</ele><time>2022-03-20T09:05:50.000Z</time></trkpt><trkpt lon="5.930136" lat="51.084363"><ele>0.2</ele><time>2022-03-20T09:05:51.000Z</time></trkpt><trkpt lon="5.930231" lat="51.084384"><ele>0.2</ele><time>2022-03-20T09:05:52.000Z</time></trkpt><trkpt lon="5.930328" lat="51.084406"><ele>0.4</ele><time>2022-03-20T09:05:53.000Z</time></trkpt><trkpt lon="5.930426" lat="51.084429"><ele>0.4</ele><time>2022-03-20T09:05:54.000Z</time></trkpt><trkpt lon="5.930523" lat="51.084452"><ele>0.2</ele><time>2022-03-20T09:05:55.000Z</time></trkpt><trkpt lon="5.930619" lat="51.084475"><ele>0.2</ele><time>2022-03-20T09:05:56.000Z</time></trkpt><trkpt lon="5.930713" lat="51.084498"><ele>0.2</ele><time>2022-03-20T09:05:57.000Z</time></trkpt><trkpt lon="5.930804" lat="51.084521"><ele>0.2</ele><time>2022-03-20T09:05:58.000Z</time></trkpt><trkpt lon="5.930895" lat="51.084541"><ele>0.2</ele><time>2022-03-20T09:05:59.000Z</time></trkpt><trkpt lon="5.930984" lat="51.084563"><ele>0.2</ele><time>2022-03-20T09:06:00.000Z</time></trkpt><trkpt lon="5.931074" lat="51.08458"><ele>0.2</ele><time>2022-03-20T09:06:01.000Z</time></trkpt><trkpt lon="5.931165" lat="51.084601"><ele>0.2</ele><time>2022-03-20T09:06:02.000Z</time></trkpt><trkpt lon="5.931254" lat="51.084623"><ele>0.2</ele><time>2022-03-20T09:06:03.000Z</time></trkpt><trkpt lon="5.931348" lat="51.084649"><ele>0.2</ele><time>2022-03-20T09:06:04.000Z</time></trkpt><trkpt lon="5.931444" lat="51.08467"><ele>0</ele><time>2022-03-20T09:06:05.000Z</time></trkpt><trkpt lon="5.931539" lat="51.084689"><ele>0.2</ele><time>2022-03-20T09:06:06.000Z</time></trkpt><trkpt lon="5.931635" lat="51.084709"><ele>0.2</ele><time>2022-03-20T09:06:07.000Z</time></trkpt><trkpt lon="5.931733" lat="51.084725"><ele>0.4</ele><time>2022-03-20T09:06:08.000Z</time></trkpt><trkpt lon="5.931828" lat="51.08474"><ele>0.2</ele><time>2022-03-20T09:06:09.000Z</time></trkpt><trkpt lon="5.931919" lat="51.084758"><ele>0.2</ele><time>2022-03-20T09:06:10.000Z</time></trkpt><trkpt lon="5.932007" lat="51.084774"><ele>0</ele><time>2022-03-20T09:06:11.000Z</time></trkpt><trkpt lon="5.932098" lat="51.084792"><ele>0.2</ele><time>2022-03-20T09:06:12.000Z</time></trkpt><trkpt lon="5.932193" lat="51.084812"><ele>0.2</ele><time>2022-03-20T09:06:13.000Z</time></trkpt><trkpt lon="5.932291" lat="51.084828"><ele>0.4</ele><time>2022-03-20T09:06:14.000Z</time></trkpt><trkpt lon="5.932391" lat="51.084843"><ele>0.4</ele><time>2022-03-20T09:06:15.000Z</time></trkpt><trkpt lon="5.932493" lat="51.084858"><ele>0.4</ele><time>2022-03-20T09:06:16.000Z</time></trkpt><trkpt lon="5.932591" lat="51.08487"><ele>0.6</ele><time>2022-03-20T09:06:17.000Z</time></trkpt><trkpt lon="5.932692" lat="51.084885"><ele>0.6</ele><time>2022-03-20T09:06:18.000Z</time></trkpt><trkpt lon="5.932796" lat="51.084903"><ele>0.2</ele><time>2022-03-20T09:06:19.000Z</time></trkpt><trkpt lon="5.932898" lat="51.084919"><ele>-0.2</ele><time>2022-03-20T09:06:20.000Z</time></trkpt><trkpt lon="5.933001" lat="51.084931"><ele>-0.4</ele><time>2022-03-20T09:06:21.000Z</time></trkpt><trkpt lon="5.933104" lat="51.084946"><ele>-0.6</ele><time>2022-03-20T09:06:22.000Z</time></trkpt><trkpt lon="5.933209" lat="51.084961"><ele>-0.6</ele><time>2022-03-20T09:06:23.000Z</time></trkpt><trkpt lon="5.933314" lat="51.084976"><ele>-0.8</ele><time>2022-03-20T09:06:24.000Z</time></trkpt><trkpt lon="5.933418" lat="51.084994"><ele>-1</ele><time>2022-03-20T09:06:25.000Z</time></trkpt><trkpt lon="5.933524" lat="51.085011"><ele>-1</ele><time>2022-03-20T09:06:26.000Z</time></trkpt><trkpt lon="5.933625" lat="51.085023"><ele>-1</ele><time>2022-03-20T09:06:27.000Z</time></trkpt><trkpt lon="5.933726" lat="51.085037"><ele>-1.2</ele><time>2022-03-20T09:06:28.000Z</time></trkpt><trkpt lon="5.933828" lat="51.085053"><ele>-1.2</ele><time>2022-03-20T09:06:29.000Z</time></trkpt><trkpt lon="5.933928" lat="51.085068"><ele>-1.2</ele><time>2022-03-20T09:06:30.000Z</time></trkpt><trkpt lon="5.934032" lat="51.085083"><ele>-1.4</ele><time>2022-03-20T09:06:31.000Z</time></trkpt><trkpt lon="5.934133" lat="51.085101"><ele>-1.4</ele><time>2022-03-20T09:06:32.000Z</time></trkpt><trkpt lon="5.934231" lat="51.085117"><ele>-1.2</ele><time>2022-03-20T09:06:33.000Z</time></trkpt><trkpt lon="5.93432" lat="51.085131"><ele>-1</ele><time>2022-03-20T09:06:34.000Z</time></trkpt><trkpt lon="5.934429" lat="51.085147"><ele>-1</ele><time>2022-03-20T09:06:35.000Z</time></trkpt><trkpt lon="5.934537" lat="51.085163"><ele>-1</ele><time>2022-03-20T09:06:36.000Z</time></trkpt><trkpt lon="5.93464" lat="51.085182"><ele>-0.8</ele><time>2022-03-20T09:06:37.000Z</time></trkpt><trkpt lon="5.934743" lat="51.085198"><ele>-0.8</ele><time>2022-03-20T09:06:38.000Z</time></trkpt><trkpt lon="5.934843" lat="51.085213"><ele>-0.8</ele><time>2022-03-20T09:06:39.000Z</time></trkpt><trkpt lon="5.934945" lat="51.085228"><ele>-0.8</ele><time>2022-03-20T09:06:40.000Z</time></trkpt><trkpt lon="5.935047" lat="51.085243"><ele>-0.6</ele><time>2022-03-20T09:06:41.000Z</time></trkpt><trkpt lon="5.93515" lat="51.085259"><ele>-0.6</ele><time>2022-03-20T09:06:42.000Z</time></trkpt><trkpt lon="5.935254" lat="51.085277"><ele>-0.6</ele><time>2022-03-20T09:06:43.000Z</time></trkpt><trkpt lon="5.935356" lat="51.08529"><ele>-0.6</ele><time>2022-03-20T09:06:44.000Z</time></trkpt><trkpt lon="5.935458" lat="51.085307"><ele>-0.6</ele><time>2022-03-20T09:06:45.000Z</time></trkpt><trkpt lon="5.935558" lat="51.085332"><ele>-0.8</ele><time>2022-03-20T09:06:46.000Z</time></trkpt><trkpt lon="5.935654" lat="51.085359"><ele>-1</ele><time>2022-03-20T09:06:47.000Z</time></trkpt><trkpt lon="5.935748" lat="51.085389"><ele>-1.2</ele><time>2022-03-20T09:06:48.000Z</time></trkpt><trkpt lon="5.935844" lat="51.085413"><ele>-1.4</ele><time>2022-03-20T09:06:49.000Z</time></trkpt><trkpt lon="5.935941" lat="51.085433"><ele>-1.6</ele><time>2022-03-20T09:06:50.000Z</time></trkpt><trkpt lon="5.936037" lat="51.085452"><ele>-1.8</ele><time>2022-03-20T09:06:51.000Z</time></trkpt><trkpt lon="5.93613" lat="51.085465"><ele>-2</ele><time>2022-03-20T09:06:52.000Z</time></trkpt><trkpt lon="5.936222" lat="51.085483"><ele>-2</ele><time>2022-03-20T09:06:53.000Z</time></trkpt><trkpt lon="5.936312" lat="51.085502"><ele>-2.2</ele><time>2022-03-20T09:06:54.000Z</time></trkpt><trkpt lon="5.936405" lat="51.085518"><ele>-2.2</ele><time>2022-03-20T09:06:55.000Z</time></trkpt><trkpt lon="5.936498" lat="51.085531"><ele>-2</ele><time>2022-03-20T09:06:56.000Z</time></trkpt><trkpt lon="5.93659" lat="51.085548"><ele>-1.8</ele><time>2022-03-20T09:06:57.000Z</time></trkpt><trkpt lon="5.936678" lat="51.085564"><ele>-1.6</ele><time>2022-03-20T09:06:58.000Z</time></trkpt><trkpt lon="5.936768" lat="51.085582"><ele>-1.4</ele><time>2022-03-20T09:06:59.000Z</time></trkpt><trkpt lon="5.936856" lat="51.085598"><ele>-1.4</ele><time>2022-03-20T09:07:00.000Z</time></trkpt><trkpt lon="5.936943" lat="51.085611"><ele>-1.4</ele><time>2022-03-20T09:07:01.000Z</time></trkpt><trkpt lon="5.937029" lat="51.085625"><ele>-1.2</ele><time>2022-03-20T09:07:02.000Z</time></trkpt><trkpt lon="5.937121" lat="51.08564"><ele>-1</ele><time>2022-03-20T09:07:03.000Z</time></trkpt><trkpt lon="5.937204" lat="51.085654"><ele>-0.8</ele><time>2022-03-20T09:07:04.000Z</time></trkpt><trkpt lon="5.937309" lat="51.085673"><ele>-0.6</ele><time>2022-03-20T09:07:05.000Z</time></trkpt><trkpt lon="5.937416" lat="51.08569"><ele>-0.4</ele><time>2022-03-20T09:07:06.000Z</time></trkpt><trkpt lon="5.937517" lat="51.085702"><ele>-0.4</ele><time>2022-03-20T09:07:07.000Z</time></trkpt><trkpt lon="5.937615" lat="51.085716"><ele>-0.4</ele><time>2022-03-20T09:07:08.000Z</time></trkpt><trkpt lon="5.937714" lat="51.085729"><ele>-0.2</ele><time>2022-03-20T09:07:09.000Z</time></trkpt><trkpt lon="5.937812" lat="51.085743"><ele>0</ele><time>2022-03-20T09:07:10.000Z</time></trkpt><trkpt lon="5.93791" lat="51.085758"><ele>0.2</ele><time>2022-03-20T09:07:11.000Z</time></trkpt><trkpt lon="5.938005" lat="51.085776"><ele>0.4</ele><time>2022-03-20T09:07:12.000Z</time></trkpt><trkpt lon="5.938109" lat="51.08579"><ele>0.8</ele><time>2022-03-20T09:07:13.000Z</time></trkpt><trkpt lon="5.938209" lat="51.085804"><ele>1</ele><time>2022-03-20T09:07:14.000Z</time></trkpt><trkpt lon="5.938302" lat="51.085817"><ele>1</ele><time>2022-03-20T09:07:15.000Z</time></trkpt><trkpt lon="5.938388" lat="51.085828"><ele>1.2</ele><time>2022-03-20T09:07:16.000Z</time></trkpt><trkpt lon="5.938478" lat="51.085845"><ele>1.2</ele><time>2022-03-20T09:07:17.000Z</time></trkpt><trkpt lon="5.938569" lat="51.085867"><ele>1.2</ele><time>2022-03-20T09:07:18.000Z</time></trkpt><trkpt lon="5.938663" lat="51.08589"><ele>1.2</ele><time>2022-03-20T09:07:19.000Z</time></trkpt><trkpt lon="5.938765" lat="51.08591"><ele>1.2</ele><time>2022-03-20T09:07:20.000Z</time></trkpt><trkpt lon="5.938868" lat="51.085926"><ele>1.2</ele><time>2022-03-20T09:07:21.000Z</time></trkpt><trkpt lon="5.938959" lat="51.085942"><ele>1.2</ele><time>2022-03-20T09:07:22.000Z</time></trkpt><trkpt lon="5.939047" lat="51.085954"><ele>1.2</ele><time>2022-03-20T09:07:23.000Z</time></trkpt><trkpt lon="5.939136" lat="51.085968"><ele>1.4</ele><time>2022-03-20T09:07:24.000Z</time></trkpt><trkpt lon="5.939225" lat="51.085983"><ele>1.4</ele><time>2022-03-20T09:07:25.000Z</time></trkpt><trkpt lon="5.939321" lat="51.086005"><ele>1.4</ele><time>2022-03-20T09:07:26.000Z</time></trkpt><trkpt lon="5.939417" lat="51.086024"><ele>1.4</ele><time>2022-03-20T09:07:27.000Z</time></trkpt><trkpt lon="5.939518" lat="51.086044"><ele>1.6</ele><time>2022-03-20T09:07:28.000Z</time></trkpt><trkpt lon="5.93962" lat="51.086065"><ele>1.8</ele><time>2022-03-20T09:07:29.000Z</time></trkpt><trkpt lon="5.939722" lat="51.086085"><ele>1.8</ele><time>2022-03-20T09:07:30.000Z</time></trkpt><trkpt lon="5.939823" lat="51.086099"><ele>2</ele><time>2022-03-20T09:07:31.000Z</time></trkpt><trkpt lon="5.939921" lat="51.086113"><ele>2</ele><time>2022-03-20T09:07:32.000Z</time></trkpt><trkpt lon="5.940015" lat="51.086128"><ele>2.2</ele><time>2022-03-20T09:07:33.000Z</time></trkpt><trkpt lon="5.940103" lat="51.08614"><ele>2.4</ele><time>2022-03-20T09:07:34.000Z</time></trkpt><trkpt lon="5.940206" lat="51.086158"><ele>2.4</ele><time>2022-03-20T09:07:35.000Z</time></trkpt><trkpt lon="5.940313" lat="51.086177"><ele>2.6</ele><time>2022-03-20T09:07:36.000Z</time></trkpt><trkpt lon="5.940412" lat="51.086199"><ele>2.6</ele><time>2022-03-20T09:07:37.000Z</time></trkpt><trkpt lon="5.940509" lat="51.086216"><ele>2.8</ele><time>2022-03-20T09:07:38.000Z</time></trkpt><trkpt lon="5.940607" lat="51.086226"><ele>2.8</ele><time>2022-03-20T09:07:39.000Z</time></trkpt><trkpt lon="5.940706" lat="51.086233"><ele>2.6</ele><time>2022-03-20T09:07:40.000Z</time></trkpt><trkpt lon="5.940803" lat="51.086235"><ele>2.6</ele><time>2022-03-20T09:07:41.000Z</time></trkpt><trkpt lon="5.940903" lat="51.086238"><ele>2.4</ele><time>2022-03-20T09:07:42.000Z</time></trkpt><trkpt lon="5.941006" lat="51.086245"><ele>2</ele><time>2022-03-20T09:07:43.000Z</time></trkpt><trkpt lon="5.941115" lat="51.086252"><ele>1.8</ele><time>2022-03-20T09:07:44.000Z</time></trkpt><trkpt lon="5.941221" lat="51.086269"><ele>1.6</ele><time>2022-03-20T09:07:45.000Z</time></trkpt><trkpt lon="5.941325" lat="51.086294"><ele>1.6</ele><time>2022-03-20T09:07:46.000Z</time></trkpt><trkpt lon="5.94143" lat="51.086323"><ele>1.6</ele><time>2022-03-20T09:07:47.000Z</time></trkpt><trkpt lon="5.941538" lat="51.086354"><ele>1.6</ele><time>2022-03-20T09:07:48.000Z</time></trkpt><trkpt lon="5.941645" lat="51.086384"><ele>1.6</ele><time>2022-03-20T09:07:49.000Z</time></trkpt><trkpt lon="5.941748" lat="51.086409"><ele>1.4</ele><time>2022-03-20T09:07:50.000Z</time></trkpt><trkpt lon="5.941847" lat="51.086429"><ele>1.4</ele><time>2022-03-20T09:07:51.000Z</time></trkpt><trkpt lon="5.941949" lat="51.086445"><ele>1.2</ele><time>2022-03-20T09:07:52.000Z</time></trkpt><trkpt lon="5.94205" lat="51.086457"><ele>1</ele><time>2022-03-20T09:07:53.000Z</time></trkpt><trkpt lon="5.942146" lat="51.086469"><ele>0.8</ele><time>2022-03-20T09:07:54.000Z</time></trkpt><trkpt lon="5.942243" lat="51.08648"><ele>0.8</ele><time>2022-03-20T09:07:55.000Z</time></trkpt><trkpt lon="5.942334" lat="51.086494"><ele>1</ele><time>2022-03-20T09:07:56.000Z</time></trkpt><trkpt lon="5.94243" lat="51.08651"><ele>1</ele><time>2022-03-20T09:07:57.000Z</time></trkpt><trkpt lon="5.942526" lat="51.086525"><ele>1.2</ele><time>2022-03-20T09:07:58.000Z</time></trkpt><trkpt lon="5.942621" lat="51.086543"><ele>1.4</ele><time>2022-03-20T09:07:59.000Z</time></trkpt><trkpt lon="5.942722" lat="51.086562"><ele>1.6</ele><time>2022-03-20T09:08:00.000Z</time></trkpt><trkpt lon="5.942834" lat="51.086576"><ele>1.4</ele><time>2022-03-20T09:08:01.000Z</time></trkpt><trkpt lon="5.942952" lat="51.086587"><ele>1.4</ele><time>2022-03-20T09:08:02.000Z</time></trkpt><trkpt lon="5.943067" lat="51.086604"><ele>1.4</ele><time>2022-03-20T09:08:03.000Z</time></trkpt><trkpt lon="5.943179" lat="51.086622"><ele>1.2</ele><time>2022-03-20T09:08:04.000Z</time></trkpt><trkpt lon="5.943291" lat="51.086639"><ele>1.2</ele><time>2022-03-20T09:08:05.000Z</time></trkpt><trkpt lon="5.943401" lat="51.086661"><ele>1.2</ele><time>2022-03-20T09:08:06.000Z</time></trkpt><trkpt lon="5.943512" lat="51.086675"><ele>1.2</ele><time>2022-03-20T09:08:07.000Z</time></trkpt><trkpt lon="5.943623" lat="51.086689"><ele>1.2</ele><time>2022-03-20T09:08:08.000Z</time></trkpt><trkpt lon="5.943736" lat="51.086702"><ele>1.2</ele><time>2022-03-20T09:08:09.000Z</time></trkpt><trkpt lon="5.943846" lat="51.086716"><ele>1.2</ele><time>2022-03-20T09:08:10.000Z</time></trkpt><trkpt lon="5.943953" lat="51.086731"><ele>1.2</ele><time>2022-03-20T09:08:11.000Z</time></trkpt><trkpt lon="5.944063" lat="51.086746"><ele>1</ele><time>2022-03-20T09:08:12.000Z</time></trkpt><trkpt lon="5.94417" lat="51.086759"><ele>1</ele><time>2022-03-20T09:08:13.000Z</time></trkpt><trkpt lon="5.944273" lat="51.086773"><ele>0.8</ele><time>2022-03-20T09:08:14.000Z</time></trkpt><trkpt lon="5.944376" lat="51.086785"><ele>0.8</ele><time>2022-03-20T09:08:15.000Z</time></trkpt><trkpt lon="5.944481" lat="51.086797"><ele>0.8</ele><time>2022-03-20T09:08:16.000Z</time></trkpt><trkpt lon="5.944581" lat="51.086805"><ele>0.8</ele><time>2022-03-20T09:08:17.000Z</time></trkpt><trkpt lon="5.944687" lat="51.086813"><ele>1</ele><time>2022-03-20T09:08:18.000Z</time></trkpt><trkpt lon="5.944794" lat="51.086827"><ele>1</ele><time>2022-03-20T09:08:19.000Z</time></trkpt><trkpt lon="5.944898" lat="51.086842"><ele>1.2</ele><time>2022-03-20T09:08:20.000Z</time></trkpt><trkpt lon="5.945005" lat="51.086857"><ele>1.4</ele><time>2022-03-20T09:08:21.000Z</time></trkpt><trkpt lon="5.945113" lat="51.086875"><ele>1.6</ele><time>2022-03-20T09:08:22.000Z</time></trkpt><trkpt lon="5.945221" lat="51.086891"><ele>1.6</ele><time>2022-03-20T09:08:23.000Z</time></trkpt><trkpt lon="5.945329" lat="51.086907"><ele>1.6</ele><time>2022-03-20T09:08:24.000Z</time></trkpt><trkpt lon="5.945436" lat="51.086922"><ele>1.6</ele><time>2022-03-20T09:08:25.000Z</time></trkpt><trkpt lon="5.945542" lat="51.08694"><ele>1.6</ele><time>2022-03-20T09:08:26.000Z</time></trkpt><trkpt lon="5.945651" lat="51.086956"><ele>1.6</ele><time>2022-03-20T09:08:27.000Z</time></trkpt><trkpt lon="5.945759" lat="51.086971"><ele>1.6</ele><time>2022-03-20T09:08:28.000Z</time></trkpt><trkpt lon="5.945866" lat="51.086987"><ele>1.6</ele><time>2022-03-20T09:08:29.000Z</time></trkpt><trkpt lon="5.945972" lat="51.087004"><ele>1.6</ele><time>2022-03-20T09:08:30.000Z</time></trkpt><trkpt lon="5.946084" lat="51.087021"><ele>1.4</ele><time>2022-03-20T09:08:31.000Z</time></trkpt><trkpt lon="5.946193" lat="51.087039"><ele>1.4</ele><time>2022-03-20T09:08:32.000Z</time></trkpt><trkpt lon="5.946302" lat="51.087055"><ele>1.2</ele><time>2022-03-20T09:08:33.000Z</time></trkpt><trkpt lon="5.946402" lat="51.087072"><ele>1.2</ele><time>2022-03-20T09:08:34.000Z</time></trkpt><trkpt lon="5.946511" lat="51.08709"><ele>1.2</ele><time>2022-03-20T09:08:35.000Z</time></trkpt><trkpt lon="5.946614" lat="51.087108"><ele>1.4</ele><time>2022-03-20T09:08:36.000Z</time></trkpt><trkpt lon="5.946715" lat="51.087124"><ele>1.4</ele><time>2022-03-20T09:08:37.000Z</time></trkpt><trkpt lon="5.946815" lat="51.087136"><ele>1.6</ele><time>2022-03-20T09:08:38.000Z</time></trkpt><trkpt lon="5.946917" lat="51.087154"><ele>1.6</ele><time>2022-03-20T09:08:39.000Z</time></trkpt><trkpt lon="5.947019" lat="51.08717"><ele>1.8</ele><time>2022-03-20T09:08:40.000Z</time></trkpt><trkpt lon="5.947121" lat="51.087185"><ele>2</ele><time>2022-03-20T09:08:41.000Z</time></trkpt><trkpt lon="5.947221" lat="51.087203"><ele>1.8</ele><time>2022-03-20T09:08:42.000Z</time></trkpt><trkpt lon="5.947323" lat="51.087222"><ele>1.8</ele><time>2022-03-20T09:08:43.000Z</time></trkpt><trkpt lon="5.947426" lat="51.087239"><ele>1.8</ele><time>2022-03-20T09:08:44.000Z</time></trkpt><trkpt lon="5.947526" lat="51.087254"><ele>2</ele><time>2022-03-20T09:08:45.000Z</time></trkpt><trkpt lon="5.947628" lat="51.087272"><ele>2.2</ele><time>2022-03-20T09:08:46.000Z</time></trkpt><trkpt lon="5.94773" lat="51.087288"><ele>2.4</ele><time>2022-03-20T09:08:47.000Z</time></trkpt><trkpt lon="5.947829" lat="51.0873"><ele>2.6</ele><time>2022-03-20T09:08:48.000Z</time></trkpt><trkpt lon="5.94793" lat="51.087315"><ele>2.6</ele><time>2022-03-20T09:08:49.000Z</time></trkpt><trkpt lon="5.948033" lat="51.087327"><ele>2.6</ele><time>2022-03-20T09:08:50.000Z</time></trkpt><trkpt lon="5.948141" lat="51.087341"><ele>2.6</ele><time>2022-03-20T09:08:51.000Z</time></trkpt><trkpt lon="5.948246" lat="51.087357"><ele>2.8</ele><time>2022-03-20T09:08:52.000Z</time></trkpt><trkpt lon="5.948353" lat="51.087369"><ele>2.8</ele><time>2022-03-20T09:08:53.000Z</time></trkpt><trkpt lon="5.948459" lat="51.087381"><ele>2.6</ele><time>2022-03-20T09:08:54.000Z</time></trkpt><trkpt lon="5.948563" lat="51.087395"><ele>2.6</ele><time>2022-03-20T09:08:55.000Z</time></trkpt><trkpt lon="5.948667" lat="51.087407"><ele>2.4</ele><time>2022-03-20T09:08:56.000Z</time></trkpt><trkpt lon="5.948773" lat="51.087419"><ele>2.2</ele><time>2022-03-20T09:08:57.000Z</time></trkpt><trkpt lon="5.948872" lat="51.087433"><ele>2.2</ele><time>2022-03-20T09:08:58.000Z</time></trkpt><trkpt lon="5.94897" lat="51.087446"><ele>2.2</ele><time>2022-03-20T09:08:59.000Z</time></trkpt><trkpt lon="5.949066" lat="51.087457"><ele>2.2</ele><time>2022-03-20T09:09:00.000Z</time></trkpt><trkpt lon="5.949167" lat="51.087468"><ele>2.2</ele><time>2022-03-20T09:09:01.000Z</time></trkpt><trkpt lon="5.949272" lat="51.08748"><ele>2</ele><time>2022-03-20T09:09:02.000Z</time></trkpt><trkpt lon="5.949376" lat="51.087491"><ele>2</ele><time>2022-03-20T09:09:03.000Z</time></trkpt><trkpt lon="5.949476" lat="51.087502"><ele>1.8</ele><time>2022-03-20T09:09:04.000Z</time></trkpt><trkpt lon="5.949587" lat="51.087517"><ele>1.8</ele><time>2022-03-20T09:09:05.000Z</time></trkpt><trkpt lon="5.949692" lat="51.087535"><ele>1.8</ele><time>2022-03-20T09:09:06.000Z</time></trkpt><trkpt lon="5.949794" lat="51.087551"><ele>2</ele><time>2022-03-20T09:09:07.000Z</time></trkpt><trkpt lon="5.949893" lat="51.087569"><ele>2</ele><time>2022-03-20T09:09:08.000Z</time></trkpt><trkpt lon="5.949997" lat="51.087586"><ele>2</ele><time>2022-03-20T09:09:09.000Z</time></trkpt><trkpt lon="5.950098" lat="51.087601"><ele>2</ele><time>2022-03-20T09:09:10.000Z</time></trkpt><trkpt lon="5.950197" lat="51.087616"><ele>2.2</ele><time>2022-03-20T09:09:11.000Z</time></trkpt><trkpt lon="5.950301" lat="51.087632"><ele>2.2</ele><time>2022-03-20T09:09:12.000Z</time></trkpt><trkpt lon="5.950404" lat="51.087653"><ele>2</ele><time>2022-03-20T09:09:13.000Z</time></trkpt><trkpt lon="5.950506" lat="51.087666"><ele>1.8</ele><time>2022-03-20T09:09:14.000Z</time></trkpt><trkpt lon="5.950608" lat="51.087681"><ele>1.8</ele><time>2022-03-20T09:09:15.000Z</time></trkpt><trkpt lon="5.950709" lat="51.087696"><ele>2</ele><time>2022-03-20T09:09:16.000Z</time></trkpt><trkpt lon="5.950809" lat="51.087711"><ele>2.2</ele><time>2022-03-20T09:09:17.000Z</time></trkpt><trkpt lon="5.950914" lat="51.08773"><ele>2.4</ele><time>2022-03-20T09:09:18.000Z</time></trkpt><trkpt lon="5.95102" lat="51.087749"><ele>2.6</ele><time>2022-03-20T09:09:19.000Z</time></trkpt><trkpt lon="5.951124" lat="51.08777"><ele>2.6</ele><time>2022-03-20T09:09:20.000Z</time></trkpt><trkpt lon="5.95123" lat="51.087791"><ele>2.6</ele><time>2022-03-20T09:09:21.000Z</time></trkpt><trkpt lon="5.951337" lat="51.087813"><ele>2.6</ele><time>2022-03-20T09:09:22.000Z</time></trkpt><trkpt lon="5.951444" lat="51.08783"><ele>2.4</ele><time>2022-03-20T09:09:23.000Z</time></trkpt><trkpt lon="5.951549" lat="51.087845"><ele>2.6</ele><time>2022-03-20T09:09:24.000Z</time></trkpt><trkpt lon="5.951655" lat="51.087863"><ele>2.6</ele><time>2022-03-20T09:09:25.000Z</time></trkpt><trkpt lon="5.951762" lat="51.087879"><ele>2.8</ele><time>2022-03-20T09:09:26.000Z</time></trkpt><trkpt lon="5.951868" lat="51.087895"><ele>2.8</ele><time>2022-03-20T09:09:27.000Z</time></trkpt><trkpt lon="5.951975" lat="51.087913"><ele>2.8</ele><time>2022-03-20T09:09:28.000Z</time></trkpt><trkpt lon="5.952082" lat="51.087932"><ele>2.8</ele><time>2022-03-20T09:09:29.000Z</time></trkpt><trkpt lon="5.952187" lat="51.087948"><ele>2.8</ele><time>2022-03-20T09:09:30.000Z</time></trkpt><trkpt lon="5.952293" lat="51.087963"><ele>2.6</ele><time>2022-03-20T09:09:31.000Z</time></trkpt><trkpt lon="5.9524" lat="51.087978"><ele>2.4</ele><time>2022-03-20T09:09:32.000Z</time></trkpt><trkpt lon="5.952505" lat="51.087994"><ele>2.2</ele><time>2022-03-20T09:09:33.000Z</time></trkpt><trkpt lon="5.952596" lat="51.088007"><ele>2</ele><time>2022-03-20T09:09:34.000Z</time></trkpt><trkpt lon="5.952698" lat="51.088022"><ele>1.8</ele><time>2022-03-20T09:09:35.000Z</time></trkpt><trkpt lon="5.952814" lat="51.088039"><ele>1.6</ele><time>2022-03-20T09:09:36.000Z</time></trkpt><trkpt lon="5.952919" lat="51.088055"><ele>1.4</ele><time>2022-03-20T09:09:37.000Z</time></trkpt><trkpt lon="5.953025" lat="51.088076"><ele>1.4</ele><time>2022-03-20T09:09:38.000Z</time></trkpt><trkpt lon="5.953128" lat="51.088096"><ele>1.2</ele><time>2022-03-20T09:09:39.000Z</time></trkpt><trkpt lon="5.953231" lat="51.088118"><ele>1.2</ele><time>2022-03-20T09:09:40.000Z</time></trkpt><trkpt lon="5.953339" lat="51.088141"><ele>1</ele><time>2022-03-20T09:09:41.000Z</time></trkpt><trkpt lon="5.953444" lat="51.088167"><ele>1</ele><time>2022-03-20T09:09:42.000Z</time></trkpt><trkpt lon="5.953551" lat="51.088191"><ele>0.8</ele><time>2022-03-20T09:09:43.000Z</time></trkpt><trkpt lon="5.95366" lat="51.088216"><ele>0.6</ele><time>2022-03-20T09:09:44.000Z</time></trkpt><trkpt lon="5.953768" lat="51.088243"><ele>0.4</ele><time>2022-03-20T09:09:45.000Z</time></trkpt><trkpt lon="5.953878" lat="51.088267"><ele>0.2</ele><time>2022-03-20T09:09:46.000Z</time></trkpt><trkpt lon="5.953987" lat="51.08829"><ele>0.2</ele><time>2022-03-20T09:09:47.000Z</time></trkpt><trkpt lon="5.954091" lat="51.088315"><ele>0.2</ele><time>2022-03-20T09:09:48.000Z</time></trkpt><trkpt lon="5.954201" lat="51.088339"><ele>0.2</ele><time>2022-03-20T09:09:49.000Z</time></trkpt><trkpt lon="5.954309" lat="51.088362"><ele>0.4</ele><time>2022-03-20T09:09:50.000Z</time></trkpt><trkpt lon="5.954417" lat="51.088388"><ele>0.4</ele><time>2022-03-20T09:09:51.000Z</time></trkpt><trkpt lon="5.954522" lat="51.088415"><ele>0.2</ele><time>2022-03-20T09:09:52.000Z</time></trkpt><trkpt lon="5.95463" lat="51.088441"><ele>0.2</ele><time>2022-03-20T09:09:53.000Z</time></trkpt><trkpt lon="5.954736" lat="51.088468"><ele>0.2</ele><time>2022-03-20T09:09:54.000Z</time></trkpt><trkpt lon="5.954842" lat="51.088495"><ele>0.2</ele><time>2022-03-20T09:09:55.000Z</time></trkpt><trkpt lon="5.954949" lat="51.088522"><ele>0.2</ele><time>2022-03-20T09:09:56.000Z</time></trkpt><trkpt lon="5.955055" lat="51.088548"><ele>0.2</ele><time>2022-03-20T09:09:57.000Z</time></trkpt><trkpt lon="5.955162" lat="51.088574"><ele>0.4</ele><time>2022-03-20T09:09:58.000Z</time></trkpt><trkpt lon="5.955268" lat="51.088601"><ele>0.4</ele><time>2022-03-20T09:09:59.000Z</time></trkpt><trkpt lon="5.955377" lat="51.088628"><ele>0.4</ele><time>2022-03-20T09:10:00.000Z</time></trkpt><trkpt lon="5.955483" lat="51.088655"><ele>0.4</ele><time>2022-03-20T09:10:01.000Z</time></trkpt><trkpt lon="5.955588" lat="51.088679"><ele>0.2</ele><time>2022-03-20T09:10:02.000Z</time></trkpt><trkpt lon="5.955694" lat="51.088705"><ele>0.2</ele><time>2022-03-20T09:10:03.000Z</time></trkpt><trkpt lon="5.955799" lat="51.088728"><ele>0.2</ele><time>2022-03-20T09:10:04.000Z</time></trkpt><trkpt lon="5.955901" lat="51.088754"><ele>0.2</ele><time>2022-03-20T09:10:05.000Z</time></trkpt><trkpt lon="5.956005" lat="51.088781"><ele>0.2</ele><time>2022-03-20T09:10:06.000Z</time></trkpt><trkpt lon="5.956111" lat="51.088811"><ele>0.2</ele><time>2022-03-20T09:10:07.000Z</time></trkpt><trkpt lon="5.956214" lat="51.088838"><ele>0.2</ele><time>2022-03-20T09:10:08.000Z</time></trkpt><trkpt lon="5.956316" lat="51.088868"><ele>0.2</ele><time>2022-03-20T09:10:09.000Z</time></trkpt><trkpt lon="5.956419" lat="51.088895"><ele>0.2</ele><time>2022-03-20T09:10:10.000Z</time></trkpt><trkpt lon="5.95652" lat="51.088922"><ele>0.2</ele><time>2022-03-20T09:10:11.000Z</time></trkpt><trkpt lon="5.956622" lat="51.088949"><ele>0</ele><time>2022-03-20T09:10:12.000Z</time></trkpt><trkpt lon="5.956722" lat="51.088975"><ele>0</ele><time>2022-03-20T09:10:13.000Z</time></trkpt><trkpt lon="5.956823" lat="51.089002"><ele>0</ele><time>2022-03-20T09:10:14.000Z</time></trkpt><trkpt lon="5.956925" lat="51.089026"><ele>0</ele><time>2022-03-20T09:10:15.000Z</time></trkpt><trkpt lon="5.957023" lat="51.089048"><ele>0</ele><time>2022-03-20T09:10:16.000Z</time></trkpt><trkpt lon="5.957121" lat="51.089074"><ele>0</ele><time>2022-03-20T09:10:17.000Z</time></trkpt><trkpt lon="5.957226" lat="51.089098"><ele>0.2</ele><time>2022-03-20T09:10:18.000Z</time></trkpt><trkpt lon="5.957329" lat="51.089124"><ele>0.2</ele><time>2022-03-20T09:10:19.000Z</time></trkpt><trkpt lon="5.95743" lat="51.089148"><ele>0.2</ele><time>2022-03-20T09:10:20.000Z</time></trkpt><trkpt lon="5.957531" lat="51.089174"><ele>0.2</ele><time>2022-03-20T09:10:21.000Z</time></trkpt><trkpt lon="5.957632" lat="51.0892"><ele>0.2</ele><time>2022-03-20T09:10:22.000Z</time></trkpt><trkpt lon="5.957733" lat="51.089227"><ele>0.2</ele><time>2022-03-20T09:10:23.000Z</time></trkpt><trkpt lon="5.957833" lat="51.089254"><ele>0.2</ele><time>2022-03-20T09:10:24.000Z</time></trkpt><trkpt lon="5.957933" lat="51.08928"><ele>0.2</ele><time>2022-03-20T09:10:25.000Z</time></trkpt><trkpt lon="5.958033" lat="51.089307"><ele>0</ele><time>2022-03-20T09:10:26.000Z</time></trkpt><trkpt lon="5.958133" lat="51.089334"><ele>0</ele><time>2022-03-20T09:10:27.000Z</time></trkpt><trkpt lon="5.958232" lat="51.089358"><ele>-0.2</ele><time>2022-03-20T09:10:28.000Z</time></trkpt><trkpt lon="5.958332" lat="51.089384"><ele>-0.2</ele><time>2022-03-20T09:10:29.000Z</time></trkpt><trkpt lon="5.958431" lat="51.089407"><ele>-0.2</ele><time>2022-03-20T09:10:30.000Z</time></trkpt><trkpt lon="5.95853" lat="51.089433"><ele>-0.2</ele><time>2022-03-20T09:10:31.000Z</time></trkpt><trkpt lon="5.958629" lat="51.089457"><ele>-0.2</ele><time>2022-03-20T09:10:32.000Z</time></trkpt><trkpt lon="5.958727" lat="51.08948"><ele>-0.2</ele><time>2022-03-20T09:10:33.000Z</time></trkpt><trkpt lon="5.958826" lat="51.089505"><ele>0</ele><time>2022-03-20T09:10:34.000Z</time></trkpt><trkpt lon="5.958925" lat="51.089532"><ele>0</ele><time>2022-03-20T09:10:35.000Z</time></trkpt><trkpt lon="5.959028" lat="51.089556"><ele>0.2</ele><time>2022-03-20T09:10:36.000Z</time></trkpt><trkpt lon="5.959128" lat="51.089582"><ele>0.2</ele><time>2022-03-20T09:10:37.000Z</time></trkpt><trkpt lon="5.959229" lat="51.089608"><ele>0.4</ele><time>2022-03-20T09:10:38.000Z</time></trkpt><trkpt lon="5.95933" lat="51.089632"><ele>0.6</ele><time>2022-03-20T09:10:39.000Z</time></trkpt><trkpt lon="5.959432" lat="51.089655"><ele>0.6</ele><time>2022-03-20T09:10:40.000Z</time></trkpt><trkpt lon="5.959533" lat="51.089678"><ele>0.8</ele><time>2022-03-20T09:10:41.000Z</time></trkpt><trkpt lon="5.959632" lat="51.089701"><ele>0.8</ele><time>2022-03-20T09:10:42.000Z</time></trkpt><trkpt lon="5.959734" lat="51.089726"><ele>0.8</ele><time>2022-03-20T09:10:43.000Z</time></trkpt><trkpt lon="5.959831" lat="51.08975"><ele>0.8</ele><time>2022-03-20T09:10:44.000Z</time></trkpt><trkpt lon="5.959931" lat="51.089776"><ele>0.8</ele><time>2022-03-20T09:10:45.000Z</time></trkpt><trkpt lon="5.960033" lat="51.0898"><ele>0.6</ele><time>2022-03-20T09:10:46.000Z</time></trkpt><trkpt lon="5.960134" lat="51.089826"><ele>0.4</ele><time>2022-03-20T09:10:47.000Z</time></trkpt><trkpt lon="5.960235" lat="51.08985"><ele>0.4</ele><time>2022-03-20T09:10:48.000Z</time></trkpt><trkpt lon="5.960336" lat="51.089876"><ele>0.4</ele><time>2022-03-20T09:10:49.000Z</time></trkpt><trkpt lon="5.960438" lat="51.089902"><ele>0.4</ele><time>2022-03-20T09:10:50.000Z</time></trkpt><trkpt lon="5.960541" lat="51.089929"><ele>0.4</ele><time>2022-03-20T09:10:51.000Z</time></trkpt><trkpt lon="5.960642" lat="51.089955"><ele>0.8</ele><time>2022-03-20T09:10:52.000Z</time></trkpt><trkpt lon="5.960748" lat="51.089982"><ele>1</ele><time>2022-03-20T09:10:53.000Z</time></trkpt><trkpt lon="5.960853" lat="51.090009"><ele>1.2</ele><time>2022-03-20T09:10:54.000Z</time></trkpt><trkpt lon="5.960956" lat="51.090033"><ele>1</ele><time>2022-03-20T09:10:55.000Z</time></trkpt><trkpt lon="5.961056" lat="51.090058"><ele>0.8</ele><time>2022-03-20T09:10:56.000Z</time></trkpt><trkpt lon="5.961162" lat="51.090085"><ele>0.6</ele><time>2022-03-20T09:10:57.000Z</time></trkpt><trkpt lon="5.961266" lat="51.090112"><ele>0.6</ele><time>2022-03-20T09:10:58.000Z</time></trkpt><trkpt lon="5.961367" lat="51.090139"><ele>0.4</ele><time>2022-03-20T09:10:59.000Z</time></trkpt><trkpt lon="5.961466" lat="51.090168"><ele>0.2</ele><time>2022-03-20T09:11:00.000Z</time></trkpt><trkpt lon="5.961567" lat="51.090196"><ele>0.2</ele><time>2022-03-20T09:11:01.000Z</time></trkpt><trkpt lon="5.961666" lat="51.090223"><ele>0</ele><time>2022-03-20T09:11:02.000Z</time></trkpt><trkpt lon="5.961764" lat="51.090247"><ele>0</ele><time>2022-03-20T09:11:03.000Z</time></trkpt><trkpt lon="5.96186" lat="51.090269"><ele>0</ele><time>2022-03-20T09:11:04.000Z</time></trkpt><trkpt lon="5.961957" lat="51.090295"><ele>0</ele><time>2022-03-20T09:11:05.000Z</time></trkpt><trkpt lon="5.962058" lat="51.090319"><ele>0</ele><time>2022-03-20T09:11:06.000Z</time></trkpt><trkpt lon="5.962155" lat="51.090339"><ele>0</ele><time>2022-03-20T09:11:07.000Z</time></trkpt><trkpt lon="5.962246" lat="51.090361"><ele>-0.2</ele><time>2022-03-20T09:11:08.000Z</time></trkpt><trkpt lon="5.962335" lat="51.090381"><ele>-0.2</ele><time>2022-03-20T09:11:09.000Z</time></trkpt><trkpt lon="5.962418" lat="51.090403"><ele>-0.4</ele><time>2022-03-20T09:11:10.000Z</time></trkpt><trkpt lon="5.962501" lat="51.090426"><ele>-0.4</ele><time>2022-03-20T09:11:11.000Z</time></trkpt><trkpt lon="5.962579" lat="51.090446"><ele>-0.2</ele><time>2022-03-20T09:11:12.000Z</time></trkpt><trkpt lon="5.962647" lat="51.090465"><ele>0</ele><time>2022-03-20T09:11:13.000Z</time></trkpt><trkpt lon="5.962703" lat="51.090484"><ele>0.2</ele><time>2022-03-20T09:11:14.000Z</time></trkpt><trkpt lon="5.962726" lat="51.090515"><ele>0.6</ele><time>2022-03-20T09:11:15.000Z</time></trkpt><trkpt lon="5.962719" lat="51.090558"><ele>0.8</ele><time>2022-03-20T09:11:16.000Z</time></trkpt><trkpt lon="5.962688" lat="51.090601"><ele>1</ele><time>2022-03-20T09:11:17.000Z</time></trkpt><trkpt lon="5.962651" lat="51.090639"><ele>1</ele><time>2022-03-20T09:11:18.000Z</time></trkpt><trkpt lon="5.962604" lat="51.090686"><ele>1</ele><time>2022-03-20T09:11:19.000Z</time></trkpt><trkpt lon="5.962552" lat="51.090736"><ele>1</ele><time>2022-03-20T09:11:20.000Z</time></trkpt><trkpt lon="5.962502" lat="51.090789"><ele>1</ele><time>2022-03-20T09:11:21.000Z</time></trkpt><trkpt lon="5.962457" lat="51.090839"><ele>0.8</ele><time>2022-03-20T09:11:22.000Z</time></trkpt><trkpt lon="5.962415" lat="51.090895"><ele>0.6</ele><time>2022-03-20T09:11:23.000Z</time></trkpt><trkpt lon="5.962377" lat="51.090949"><ele>0.4</ele><time>2022-03-20T09:11:24.000Z</time></trkpt><trkpt lon="5.962349" lat="51.091008"><ele>0</ele><time>2022-03-20T09:11:25.000Z</time></trkpt><trkpt lon="5.962328" lat="51.091071"><ele>-0.2</ele><time>2022-03-20T09:11:26.000Z</time></trkpt><trkpt lon="5.962311" lat="51.091136"><ele>-0.4</ele><time>2022-03-20T09:11:27.000Z</time></trkpt><trkpt lon="5.962294" lat="51.091198"><ele>-0.4</ele><time>2022-03-20T09:11:28.000Z</time></trkpt><trkpt lon="5.962279" lat="51.091266"><ele>-0.6</ele><time>2022-03-20T09:11:29.000Z</time></trkpt><trkpt lon="5.962265" lat="51.091332"><ele>-0.8</ele><time>2022-03-20T09:11:30.000Z</time></trkpt><trkpt lon="5.962257" lat="51.091399"><ele>-0.8</ele><time>2022-03-20T09:11:31.000Z</time></trkpt><trkpt lon="5.962255" lat="51.091468"><ele>-0.8</ele><time>2022-03-20T09:11:32.000Z</time></trkpt><trkpt lon="5.962252" lat="51.091537"><ele>-0.8</ele><time>2022-03-20T09:11:33.000Z</time></trkpt><trkpt lon="5.962242" lat="51.091605"><ele>-0.8</ele><time>2022-03-20T09:11:34.000Z</time></trkpt><trkpt lon="5.96222" lat="51.091671"><ele>-0.8</ele><time>2022-03-20T09:11:35.000Z</time></trkpt><trkpt lon="5.962189" lat="51.091739"><ele>-0.8</ele><time>2022-03-20T09:11:36.000Z</time></trkpt><trkpt lon="5.962156" lat="51.091805"><ele>-0.8</ele><time>2022-03-20T09:11:37.000Z</time></trkpt><trkpt lon="5.962125" lat="51.091872"><ele>-0.8</ele><time>2022-03-20T09:11:38.000Z</time></trkpt><trkpt lon="5.962101" lat="51.091939"><ele>-0.8</ele><time>2022-03-20T09:11:39.000Z</time></trkpt><trkpt lon="5.962082" lat="51.092012"><ele>-0.8</ele><time>2022-03-20T09:11:40.000Z</time></trkpt><trkpt lon="5.962066" lat="51.092085"><ele>-0.8</ele><time>2022-03-20T09:11:41.000Z</time></trkpt><trkpt lon="5.962049" lat="51.092161"><ele>-1</ele><time>2022-03-20T09:11:42.000Z</time></trkpt><trkpt lon="5.962031" lat="51.092234"><ele>-1.2</ele><time>2022-03-20T09:11:43.000Z</time></trkpt><trkpt lon="5.962013" lat="51.092306"><ele>-1.2</ele><time>2022-03-20T09:11:44.000Z</time></trkpt><trkpt lon="5.961996" lat="51.092378"><ele>-1.4</ele><time>2022-03-20T09:11:45.000Z</time></trkpt><trkpt lon="5.96198" lat="51.092451"><ele>-1.4</ele><time>2022-03-20T09:11:46.000Z</time></trkpt><trkpt lon="5.961964" lat="51.092526"><ele>-1.6</ele><time>2022-03-20T09:11:47.000Z</time></trkpt><trkpt lon="5.961947" lat="51.092597"><ele>-1.6</ele><time>2022-03-20T09:11:48.000Z</time></trkpt><trkpt lon="5.961929" lat="51.092675"><ele>-1.8</ele><time>2022-03-20T09:11:49.000Z</time></trkpt><trkpt lon="5.961912" lat="51.092748"><ele>-1.8</ele><time>2022-03-20T09:11:50.000Z</time></trkpt><trkpt lon="5.961895" lat="51.092821"><ele>-2</ele><time>2022-03-20T09:11:51.000Z</time></trkpt><trkpt lon="5.961875" lat="51.092896"><ele>-2</ele><time>2022-03-20T09:11:52.000Z</time></trkpt><trkpt lon="5.961854" lat="51.092969"><ele>-2</ele><time>2022-03-20T09:11:53.000Z</time></trkpt><trkpt lon="5.961833" lat="51.093043"><ele>-2.2</ele><time>2022-03-20T09:11:54.000Z</time></trkpt><trkpt lon="5.961815" lat="51.093115"><ele>-2.2</ele><time>2022-03-20T09:11:55.000Z</time></trkpt><trkpt lon="5.961798" lat="51.09319"><ele>-2.2</ele><time>2022-03-20T09:11:56.000Z</time></trkpt><trkpt lon="5.961779" lat="51.093263"><ele>-2.4</ele><time>2022-03-20T09:11:57.000Z</time></trkpt><trkpt lon="5.961758" lat="51.093336"><ele>-2.6</ele><time>2022-03-20T09:11:58.000Z</time></trkpt><trkpt lon="5.961737" lat="51.093409"><ele>-2.4</ele><time>2022-03-20T09:11:59.000Z</time></trkpt><trkpt lon="5.961717" lat="51.09348"><ele>-2.6</ele><time>2022-03-20T09:12:00.000Z</time></trkpt><trkpt lon="5.9617" lat="51.09355"><ele>-2.6</ele><time>2022-03-20T09:12:01.000Z</time></trkpt><trkpt lon="5.961684" lat="51.093622"><ele>-2.6</ele><time>2022-03-20T09:12:02.000Z</time></trkpt><trkpt lon="5.961665" lat="51.093692"><ele>-2.6</ele><time>2022-03-20T09:12:03.000Z</time></trkpt><trkpt lon="5.961645" lat="51.093757"><ele>-2.6</ele><time>2022-03-20T09:12:04.000Z</time></trkpt><trkpt lon="5.961624" lat="51.09382"><ele>-2.6</ele><time>2022-03-20T09:12:05.000Z</time></trkpt><trkpt lon="5.961604" lat="51.093884"><ele>-2.6</ele><time>2022-03-20T09:12:06.000Z</time></trkpt><trkpt lon="5.961584" lat="51.093949"><ele>-2.6</ele><time>2022-03-20T09:12:07.000Z</time></trkpt><trkpt lon="5.961563" lat="51.094013"><ele>-2.6</ele><time>2022-03-20T09:12:08.000Z</time></trkpt><trkpt lon="5.961542" lat="51.094077"><ele>-2.6</ele><time>2022-03-20T09:12:09.000Z</time></trkpt><trkpt lon="5.96152" lat="51.094137"><ele>-2.6</ele><time>2022-03-20T09:12:10.000Z</time></trkpt><trkpt lon="5.961499" lat="51.094201"><ele>-2.8</ele><time>2022-03-20T09:12:11.000Z</time></trkpt><trkpt lon="5.96148" lat="51.094265"><ele>-2.6</ele><time>2022-03-20T09:12:12.000Z</time></trkpt><trkpt lon="5.96146" lat="51.09433"><ele>-2.8</ele><time>2022-03-20T09:12:13.000Z</time></trkpt><trkpt lon="5.961439" lat="51.094397"><ele>-2.8</ele><time>2022-03-20T09:12:14.000Z</time></trkpt><trkpt lon="5.961419" lat="51.094463"><ele>-2.8</ele><time>2022-03-20T09:12:15.000Z</time></trkpt><trkpt lon="5.961404" lat="51.094532"><ele>-2.8</ele><time>2022-03-20T09:12:16.000Z</time></trkpt><trkpt lon="5.961388" lat="51.094602"><ele>-2.8</ele><time>2022-03-20T09:12:17.000Z</time></trkpt><trkpt lon="5.961369" lat="51.094669"><ele>-2.8</ele><time>2022-03-20T09:12:18.000Z</time></trkpt><trkpt lon="5.961347" lat="51.094737"><ele>-3</ele><time>2022-03-20T09:12:19.000Z</time></trkpt><trkpt lon="5.961327" lat="51.094809"><ele>-3</ele><time>2022-03-20T09:12:20.000Z</time></trkpt><trkpt lon="5.961307" lat="51.094875"><ele>-3</ele><time>2022-03-20T09:12:21.000Z</time></trkpt><trkpt lon="5.961288" lat="51.094943"><ele>-3</ele><time>2022-03-20T09:12:22.000Z</time></trkpt><trkpt lon="5.961264" lat="51.095012"><ele>-3</ele><time>2022-03-20T09:12:23.000Z</time></trkpt><trkpt lon="5.961243" lat="51.09508"><ele>-3</ele><time>2022-03-20T09:12:24.000Z</time></trkpt><trkpt lon="5.961223" lat="51.095146"><ele>-2.8</ele><time>2022-03-20T09:12:25.000Z</time></trkpt><trkpt lon="5.961205" lat="51.095213"><ele>-2.8</ele><time>2022-03-20T09:12:26.000Z</time></trkpt><trkpt lon="5.961186" lat="51.095277"><ele>-2.8</ele><time>2022-03-20T09:12:27.000Z</time></trkpt><trkpt lon="5.961166" lat="51.095344"><ele>-2.6</ele><time>2022-03-20T09:12:28.000Z</time></trkpt><trkpt lon="5.961148" lat="51.095412"><ele>-2.8</ele><time>2022-03-20T09:12:29.000Z</time></trkpt><trkpt lon="5.961131" lat="51.095478"><ele>-2.8</ele><time>2022-03-20T09:12:30.000Z</time></trkpt><trkpt lon="5.961114" lat="51.095546"><ele>-3</ele><time>2022-03-20T09:12:31.000Z</time></trkpt><trkpt lon="5.961096" lat="51.095612"><ele>-3</ele><time>2022-03-20T09:12:32.000Z</time></trkpt><trkpt lon="5.961079" lat="51.095676"><ele>-3</ele><time>2022-03-20T09:12:33.000Z</time></trkpt><trkpt lon="5.961062" lat="51.095744"><ele>-3</ele><time>2022-03-20T09:12:34.000Z</time></trkpt><trkpt lon="5.961046" lat="51.095809"><ele>-3</ele><time>2022-03-20T09:12:35.000Z</time></trkpt><trkpt lon="5.961027" lat="51.095878"><ele>-3</ele><time>2022-03-20T09:12:36.000Z</time></trkpt><trkpt lon="5.961008" lat="51.095944"><ele>-3.2</ele><time>2022-03-20T09:12:37.000Z</time></trkpt><trkpt lon="5.96099" lat="51.096007"><ele>-3.2</ele><time>2022-03-20T09:12:38.000Z</time></trkpt><trkpt lon="5.960969" lat="51.096073"><ele>-3.2</ele><time>2022-03-20T09:12:39.000Z</time></trkpt><trkpt lon="5.960944" lat="51.096138"><ele>-3.4</ele><time>2022-03-20T09:12:40.000Z</time></trkpt><trkpt lon="5.960919" lat="51.096206"><ele>-3.4</ele><time>2022-03-20T09:12:41.000Z</time></trkpt><trkpt lon="5.960897" lat="51.096271"><ele>-3.6</ele><time>2022-03-20T09:12:42.000Z</time></trkpt><trkpt lon="5.960875" lat="51.096342"><ele>-3.6</ele><time>2022-03-20T09:12:43.000Z</time></trkpt><trkpt lon="5.960855" lat="51.096409"><ele>-3.6</ele><time>2022-03-20T09:12:44.000Z</time></trkpt><trkpt lon="5.960835" lat="51.096476"><ele>-3.8</ele><time>2022-03-20T09:12:45.000Z</time></trkpt><trkpt lon="5.960812" lat="51.096545"><ele>-3.8</ele><time>2022-03-20T09:12:46.000Z</time></trkpt><trkpt lon="5.96079" lat="51.096614"><ele>-3.8</ele><time>2022-03-20T09:12:47.000Z</time></trkpt><trkpt lon="5.96077" lat="51.096679"><ele>-3.8</ele><time>2022-03-20T09:12:48.000Z</time></trkpt><trkpt lon="5.960751" lat="51.096747"><ele>-3.8</ele><time>2022-03-20T09:12:49.000Z</time></trkpt><trkpt lon="5.960733" lat="51.096818"><ele>-4</ele><time>2022-03-20T09:12:50.000Z</time></trkpt><trkpt lon="5.960712" lat="51.096888"><ele>-4</ele><time>2022-03-20T09:12:51.000Z</time></trkpt><trkpt lon="5.960691" lat="51.096957"><ele>-4</ele><time>2022-03-20T09:12:52.000Z</time></trkpt><trkpt lon="5.960673" lat="51.097029"><ele>-3.8</ele><time>2022-03-20T09:12:53.000Z</time></trkpt><trkpt lon="5.960654" lat="51.097098"><ele>-3.8</ele><time>2022-03-20T09:12:54.000Z</time></trkpt><trkpt lon="5.960636" lat="51.097163"><ele>-4</ele><time>2022-03-20T09:12:55.000Z</time></trkpt><trkpt lon="5.960617" lat="51.097231"><ele>-4.2</ele><time>2022-03-20T09:12:56.000Z</time></trkpt><trkpt lon="5.960597" lat="51.0973"><ele>-4.2</ele><time>2022-03-20T09:12:57.000Z</time></trkpt><trkpt lon="5.960574" lat="51.097369"><ele>-4.2</ele><time>2022-03-20T09:12:58.000Z</time></trkpt><trkpt lon="5.960553" lat="51.097438"><ele>-4.2</ele><time>2022-03-20T09:12:59.000Z</time></trkpt><trkpt lon="5.960534" lat="51.097506"><ele>-4</ele><time>2022-03-20T09:13:00.000Z</time></trkpt><trkpt lon="5.960514" lat="51.097575"><ele>-3.8</ele><time>2022-03-20T09:13:01.000Z</time></trkpt><trkpt lon="5.960496" lat="51.097644"><ele>-3.8</ele><time>2022-03-20T09:13:02.000Z</time></trkpt><trkpt lon="5.960476" lat="51.097715"><ele>-3.8</ele><time>2022-03-20T09:13:03.000Z</time></trkpt><trkpt lon="5.960459" lat="51.097785"><ele>-3.8</ele><time>2022-03-20T09:13:04.000Z</time></trkpt><trkpt lon="5.96044" lat="51.097853"><ele>-3.8</ele><time>2022-03-20T09:13:05.000Z</time></trkpt><trkpt lon="5.96042" lat="51.097922"><ele>-3.6</ele><time>2022-03-20T09:13:06.000Z</time></trkpt><trkpt lon="5.960405" lat="51.09799"><ele>-3.6</ele><time>2022-03-20T09:13:07.000Z</time></trkpt><trkpt lon="5.960388" lat="51.098062"><ele>-3.4</ele><time>2022-03-20T09:13:08.000Z</time></trkpt><trkpt lon="5.960369" lat="51.098132"><ele>-3.4</ele><time>2022-03-20T09:13:09.000Z</time></trkpt><trkpt lon="5.960347" lat="51.098203"><ele>-3.2</ele><time>2022-03-20T09:13:10.000Z</time></trkpt><trkpt lon="5.960323" lat="51.098273"><ele>-3</ele><time>2022-03-20T09:13:11.000Z</time></trkpt><trkpt lon="5.960299" lat="51.098341"><ele>-3</ele><time>2022-03-20T09:13:12.000Z</time></trkpt><trkpt lon="5.960277" lat="51.098411"><ele>-3</ele><time>2022-03-20T09:13:13.000Z</time></trkpt><trkpt lon="5.960255" lat="51.098479"><ele>-3</ele><time>2022-03-20T09:13:14.000Z</time></trkpt><trkpt lon="5.960232" lat="51.09855"><ele>-3.2</ele><time>2022-03-20T09:13:15.000Z</time></trkpt><trkpt lon="5.960204" lat="51.09862"><ele>-3.2</ele><time>2022-03-20T09:13:16.000Z</time></trkpt><trkpt lon="5.960172" lat="51.098689"><ele>-3.4</ele><time>2022-03-20T09:13:17.000Z</time></trkpt><trkpt lon="5.960142" lat="51.09876"><ele>-3.6</ele><time>2022-03-20T09:13:18.000Z</time></trkpt><trkpt lon="5.960109" lat="51.098833"><ele>-3.6</ele><time>2022-03-20T09:13:19.000Z</time></trkpt><trkpt lon="5.960076" lat="51.098906"><ele>-3.8</ele><time>2022-03-20T09:13:20.000Z</time></trkpt><trkpt lon="5.960045" lat="51.098977"><ele>-3.8</ele><time>2022-03-20T09:13:21.000Z</time></trkpt><trkpt lon="5.96001" lat="51.099047"><ele>-4</ele><time>2022-03-20T09:13:22.000Z</time></trkpt><trkpt lon="5.959978" lat="51.099119"><ele>-4</ele><time>2022-03-20T09:13:23.000Z</time></trkpt><trkpt lon="5.959946" lat="51.099188"><ele>-4</ele><time>2022-03-20T09:13:24.000Z</time></trkpt><trkpt lon="5.959912" lat="51.09926"><ele>-4</ele><time>2022-03-20T09:13:25.000Z</time></trkpt><trkpt lon="5.959877" lat="51.09933"><ele>-4.2</ele><time>2022-03-20T09:13:26.000Z</time></trkpt><trkpt lon="5.959843" lat="51.099398"><ele>-4.2</ele><time>2022-03-20T09:13:27.000Z</time></trkpt><trkpt lon="5.959811" lat="51.09947"><ele>-4.4</ele><time>2022-03-20T09:13:28.000Z</time></trkpt><trkpt lon="5.95978" lat="51.09954"><ele>-4.4</ele><time>2022-03-20T09:13:29.000Z</time></trkpt><trkpt lon="5.95975" lat="51.099612"><ele>-4.4</ele><time>2022-03-20T09:13:30.000Z</time></trkpt><trkpt lon="5.959722" lat="51.099677"><ele>-4.4</ele><time>2022-03-20T09:13:31.000Z</time></trkpt><trkpt lon="5.959696" lat="51.099748"><ele>-4.4</ele><time>2022-03-20T09:13:32.000Z</time></trkpt><trkpt lon="5.959673" lat="51.099818"><ele>-4.4</ele><time>2022-03-20T09:13:33.000Z</time></trkpt><trkpt lon="5.959653" lat="51.099887"><ele>-4.4</ele><time>2022-03-20T09:13:34.000Z</time></trkpt><trkpt lon="5.959633" lat="51.099956"><ele>-4.2</ele><time>2022-03-20T09:13:35.000Z</time></trkpt><trkpt lon="5.959614" lat="51.100025"><ele>-4.4</ele><time>2022-03-20T09:13:36.000Z</time></trkpt><trkpt lon="5.959599" lat="51.100095"><ele>-4.4</ele><time>2022-03-20T09:13:37.000Z</time></trkpt><trkpt lon="5.959588" lat="51.100168"><ele>-4.4</ele><time>2022-03-20T09:13:38.000Z</time></trkpt><trkpt lon="5.959576" lat="51.100238"><ele>-4.6</ele><time>2022-03-20T09:13:39.000Z</time></trkpt><trkpt lon="5.959567" lat="51.100303"><ele>-4.6</ele><time>2022-03-20T09:13:40.000Z</time></trkpt><trkpt lon="5.959561" lat="51.100371"><ele>-4.8</ele><time>2022-03-20T09:13:41.000Z</time></trkpt><trkpt lon="5.959559" lat="51.100439"><ele>-4.8</ele><time>2022-03-20T09:13:42.000Z</time></trkpt><trkpt lon="5.959556" lat="51.100507"><ele>-4.8</ele><time>2022-03-20T09:13:43.000Z</time></trkpt><trkpt lon="5.959553" lat="51.100574"><ele>-4.8</ele><time>2022-03-20T09:13:44.000Z</time></trkpt><trkpt lon="5.95955" lat="51.100642"><ele>-4.8</ele><time>2022-03-20T09:13:45.000Z</time></trkpt><trkpt lon="5.959549" lat="51.100713"><ele>-4.6</ele><time>2022-03-20T09:13:46.000Z</time></trkpt><trkpt lon="5.959546" lat="51.100783"><ele>-4.6</ele><time>2022-03-20T09:13:47.000Z</time></trkpt><trkpt lon="5.959541" lat="51.100851"><ele>-4.6</ele><time>2022-03-20T09:13:48.000Z</time></trkpt><trkpt lon="5.959539" lat="51.10092"><ele>-4.6</ele><time>2022-03-20T09:13:49.000Z</time></trkpt><trkpt lon="5.959537" lat="51.100989"><ele>-4.6</ele><time>2022-03-20T09:13:50.000Z</time></trkpt><trkpt lon="5.959536" lat="51.101057"><ele>-4.6</ele><time>2022-03-20T09:13:51.000Z</time></trkpt><trkpt lon="5.959534" lat="51.101127"><ele>-4.6</ele><time>2022-03-20T09:13:52.000Z</time></trkpt><trkpt lon="5.959532" lat="51.101196"><ele>-4.6</ele><time>2022-03-20T09:13:53.000Z</time></trkpt><trkpt lon="5.95953" lat="51.101262"><ele>-4.6</ele><time>2022-03-20T09:13:54.000Z</time></trkpt><trkpt lon="5.95953" lat="51.101332"><ele>-4.4</ele><time>2022-03-20T09:13:55.000Z</time></trkpt><trkpt lon="5.959526" lat="51.101398"><ele>-4.4</ele><time>2022-03-20T09:13:56.000Z</time></trkpt><trkpt lon="5.959523" lat="51.101469"><ele>-4.4</ele><time>2022-03-20T09:13:57.000Z</time></trkpt><trkpt lon="5.959519" lat="51.101538"><ele>-4.2</ele><time>2022-03-20T09:13:58.000Z</time></trkpt><trkpt lon="5.959514" lat="51.10161"><ele>-4.2</ele><time>2022-03-20T09:13:59.000Z</time></trkpt><trkpt lon="5.959512" lat="51.10168"><ele>-4.2</ele><time>2022-03-20T09:14:00.000Z</time></trkpt><trkpt lon="5.959508" lat="51.101748"><ele>-4.4</ele><time>2022-03-20T09:14:01.000Z</time></trkpt><trkpt lon="5.959503" lat="51.101817"><ele>-4.6</ele><time>2022-03-20T09:14:02.000Z</time></trkpt><trkpt lon="5.959498" lat="51.101888"><ele>-4.8</ele><time>2022-03-20T09:14:03.000Z</time></trkpt><trkpt lon="5.959491" lat="51.101958"><ele>-5</ele><time>2022-03-20T09:14:04.000Z</time></trkpt><trkpt lon="5.959485" lat="51.102027"><ele>-4.8</ele><time>2022-03-20T09:14:05.000Z</time></trkpt><trkpt lon="5.95948" lat="51.102095"><ele>-4.8</ele><time>2022-03-20T09:14:06.000Z</time></trkpt><trkpt lon="5.959478" lat="51.102161"><ele>-5</ele><time>2022-03-20T09:14:07.000Z</time></trkpt><trkpt lon="5.959477" lat="51.102232"><ele>-5</ele><time>2022-03-20T09:14:08.000Z</time></trkpt><trkpt lon="5.959476" lat="51.102302"><ele>-5</ele><time>2022-03-20T09:14:09.000Z</time></trkpt><trkpt lon="5.959475" lat="51.102373"><ele>-5</ele><time>2022-03-20T09:14:10.000Z</time></trkpt><trkpt lon="5.959472" lat="51.10244"><ele>-5</ele><time>2022-03-20T09:14:11.000Z</time></trkpt><trkpt lon="5.959469" lat="51.102508"><ele>-5</ele><time>2022-03-20T09:14:12.000Z</time></trkpt><trkpt lon="5.959467" lat="51.102577"><ele>-5.2</ele><time>2022-03-20T09:14:13.000Z</time></trkpt><trkpt lon="5.959463" lat="51.102648"><ele>-5.2</ele><time>2022-03-20T09:14:14.000Z</time></trkpt><trkpt lon="5.959459" lat="51.102716"><ele>-5.2</ele><time>2022-03-20T09:14:15.000Z</time></trkpt><trkpt lon="5.959457" lat="51.102785"><ele>-5.4</ele><time>2022-03-20T09:14:16.000Z</time></trkpt><trkpt lon="5.959454" lat="51.102852"><ele>-5.4</ele><time>2022-03-20T09:14:17.000Z</time></trkpt><trkpt lon="5.959451" lat="51.10292"><ele>-5.4</ele><time>2022-03-20T09:14:18.000Z</time></trkpt><trkpt lon="5.95945" lat="51.102986"><ele>-5.4</ele><time>2022-03-20T09:14:19.000Z</time></trkpt><trkpt lon="5.959447" lat="51.103048"><ele>-5.4</ele><time>2022-03-20T09:14:20.000Z</time></trkpt><trkpt lon="5.959443" lat="51.103111"><ele>-5.4</ele><time>2022-03-20T09:14:21.000Z</time></trkpt><trkpt lon="5.959441" lat="51.103179"><ele>-5.6</ele><time>2022-03-20T09:14:22.000Z</time></trkpt><trkpt lon="5.959439" lat="51.103247"><ele>-5.4</ele><time>2022-03-20T09:14:23.000Z</time></trkpt><trkpt lon="5.959436" lat="51.103313"><ele>-5.6</ele><time>2022-03-20T09:14:24.000Z</time></trkpt><trkpt lon="5.959432" lat="51.103383"><ele>-5.6</ele><time>2022-03-20T09:14:25.000Z</time></trkpt><trkpt lon="5.959431" lat="51.103453"><ele>-5.4</ele><time>2022-03-20T09:14:26.000Z</time></trkpt><trkpt lon="5.95943" lat="51.103517"><ele>-5.4</ele><time>2022-03-20T09:14:27.000Z</time></trkpt><trkpt lon="5.959429" lat="51.103584"><ele>-5.4</ele><time>2022-03-20T09:14:28.000Z</time></trkpt><trkpt lon="5.959426" lat="51.103652"><ele>-5.4</ele><time>2022-03-20T09:14:29.000Z</time></trkpt><trkpt lon="5.959424" lat="51.103721"><ele>-5.4</ele><time>2022-03-20T09:14:30.000Z</time></trkpt><trkpt lon="5.959421" lat="51.10379"><ele>-5.4</ele><time>2022-03-20T09:14:31.000Z</time></trkpt><trkpt lon="5.95942" lat="51.10386"><ele>-5.4</ele><time>2022-03-20T09:14:32.000Z</time></trkpt><trkpt lon="5.959419" lat="51.103931"><ele>-5.4</ele><time>2022-03-20T09:14:33.000Z</time></trkpt><trkpt lon="5.959417" lat="51.103999"><ele>-5.4</ele><time>2022-03-20T09:14:34.000Z</time></trkpt><trkpt lon="5.959415" lat="51.104071"><ele>-5.4</ele><time>2022-03-20T09:14:35.000Z</time></trkpt><trkpt lon="5.95941" lat="51.104138"><ele>-5.4</ele><time>2022-03-20T09:14:36.000Z</time></trkpt><trkpt lon="5.959403" lat="51.104208"><ele>-5.2</ele><time>2022-03-20T09:14:37.000Z</time></trkpt><trkpt lon="5.959399" lat="51.104273"><ele>-5.2</ele><time>2022-03-20T09:14:38.000Z</time></trkpt><trkpt lon="5.959395" lat="51.104339"><ele>-5.2</ele><time>2022-03-20T09:14:39.000Z</time></trkpt><trkpt lon="5.959391" lat="51.104407"><ele>-5.2</ele><time>2022-03-20T09:14:40.000Z</time></trkpt><trkpt lon="5.959389" lat="51.104472"><ele>-5.2</ele><time>2022-03-20T09:14:41.000Z</time></trkpt><trkpt lon="5.959386" lat="51.104538"><ele>-5.2</ele><time>2022-03-20T09:14:42.000Z</time></trkpt><trkpt lon="5.959382" lat="51.104602"><ele>-5.2</ele><time>2022-03-20T09:14:43.000Z</time></trkpt><trkpt lon="5.959382" lat="51.104668"><ele>-5</ele><time>2022-03-20T09:14:44.000Z</time></trkpt><trkpt lon="5.959382" lat="51.104733"><ele>-5</ele><time>2022-03-20T09:14:45.000Z</time></trkpt><trkpt lon="5.95938" lat="51.104798"><ele>-5.2</ele><time>2022-03-20T09:14:46.000Z</time></trkpt><trkpt lon="5.959384" lat="51.104859"><ele>-5.4</ele><time>2022-03-20T09:14:47.000Z</time></trkpt><trkpt lon="5.95939" lat="51.104923"><ele>-5.4</ele><time>2022-03-20T09:14:48.000Z</time></trkpt><trkpt lon="5.959392" lat="51.104988"><ele>-5.4</ele><time>2022-03-20T09:14:49.000Z</time></trkpt><trkpt lon="5.959384" lat="51.105053"><ele>-5.2</ele><time>2022-03-20T09:14:50.000Z</time></trkpt><trkpt lon="5.959372" lat="51.105114"><ele>-5.2</ele><time>2022-03-20T09:14:51.000Z</time></trkpt><trkpt lon="5.959361" lat="51.105179"><ele>-5.2</ele><time>2022-03-20T09:14:52.000Z</time></trkpt><trkpt lon="5.959352" lat="51.105244"><ele>-5.2</ele><time>2022-03-20T09:14:53.000Z</time></trkpt><trkpt lon="5.959348" lat="51.105308"><ele>-5</ele><time>2022-03-20T09:14:54.000Z</time></trkpt><trkpt lon="5.959344" lat="51.105376"><ele>-5</ele><time>2022-03-20T09:14:55.000Z</time></trkpt><trkpt lon="5.959334" lat="51.105442"><ele>-5</ele><time>2022-03-20T09:14:56.000Z</time></trkpt><trkpt lon="5.959318" lat="51.10551"><ele>-5</ele><time>2022-03-20T09:14:57.000Z</time></trkpt><trkpt lon="5.959304" lat="51.105582"><ele>-5</ele><time>2022-03-20T09:14:58.000Z</time></trkpt><trkpt lon="5.959299" lat="51.105651"><ele>-5</ele><time>2022-03-20T09:14:59.000Z</time></trkpt><trkpt lon="5.959298" lat="51.105718"><ele>-5.2</ele><time>2022-03-20T09:15:00.000Z</time></trkpt><trkpt lon="5.959297" lat="51.105791"><ele>-5.2</ele><time>2022-03-20T09:15:01.000Z</time></trkpt><trkpt lon="5.959299" lat="51.105866"><ele>-5.2</ele><time>2022-03-20T09:15:02.000Z</time></trkpt><trkpt lon="5.959309" lat="51.105936"><ele>-5.4</ele><time>2022-03-20T09:15:03.000Z</time></trkpt><trkpt lon="5.959324" lat="51.106008"><ele>-5.4</ele><time>2022-03-20T09:15:04.000Z</time></trkpt><trkpt lon="5.95934" lat="51.106078"><ele>-5.4</ele><time>2022-03-20T09:15:05.000Z</time></trkpt><trkpt lon="5.959346" lat="51.106147"><ele>-5.4</ele><time>2022-03-20T09:15:06.000Z</time></trkpt><trkpt lon="5.95934" lat="51.106216"><ele>-5.2</ele><time>2022-03-20T09:15:07.000Z</time></trkpt><trkpt lon="5.959325" lat="51.106282"><ele>-5.2</ele><time>2022-03-20T09:15:08.000Z</time></trkpt><trkpt lon="5.959305" lat="51.106349"><ele>-5.2</ele><time>2022-03-20T09:15:09.000Z</time></trkpt><trkpt lon="5.959287" lat="51.10642"><ele>-5.2</ele><time>2022-03-20T09:15:10.000Z</time></trkpt><trkpt lon="5.959279" lat="51.106493"><ele>-5.4</ele><time>2022-03-20T09:15:11.000Z</time></trkpt><trkpt lon="5.959276" lat="51.106565"><ele>-5.4</ele><time>2022-03-20T09:15:12.000Z</time></trkpt><trkpt lon="5.959274" lat="51.106635"><ele>-5.4</ele><time>2022-03-20T09:15:13.000Z</time></trkpt><trkpt lon="5.959271" lat="51.106701"><ele>-5.4</ele><time>2022-03-20T09:15:14.000Z</time></trkpt><trkpt lon="5.959267" lat="51.106769"><ele>-5.4</ele><time>2022-03-20T09:15:15.000Z</time></trkpt><trkpt lon="5.959266" lat="51.106837"><ele>-5.4</ele><time>2022-03-20T09:15:16.000Z</time></trkpt><trkpt lon="5.959263" lat="51.106906"><ele>-5.4</ele><time>2022-03-20T09:15:17.000Z</time></trkpt><trkpt lon="5.959259" lat="51.106975"><ele>-5.4</ele><time>2022-03-20T09:15:18.000Z</time></trkpt><trkpt lon="5.959253" lat="51.107043"><ele>-5.6</ele><time>2022-03-20T09:15:19.000Z</time></trkpt><trkpt lon="5.959248" lat="51.107111"><ele>-5.6</ele><time>2022-03-20T09:15:20.000Z</time></trkpt><trkpt lon="5.959246" lat="51.107183"><ele>-5.8</ele><time>2022-03-20T09:15:21.000Z</time></trkpt><trkpt lon="5.959241" lat="51.107256"><ele>-5.8</ele><time>2022-03-20T09:15:22.000Z</time></trkpt><trkpt lon="5.959236" lat="51.107332"><ele>-5.8</ele><time>2022-03-20T09:15:23.000Z</time></trkpt><trkpt lon="5.959233" lat="51.107405"><ele>-5.6</ele><time>2022-03-20T09:15:24.000Z</time></trkpt><trkpt lon="5.959229" lat="51.107477"><ele>-5.6</ele><time>2022-03-20T09:15:25.000Z</time></trkpt><trkpt lon="5.959226" lat="51.10755"><ele>-5.6</ele><time>2022-03-20T09:15:26.000Z</time></trkpt><trkpt lon="5.959223" lat="51.10762"><ele>-5.8</ele><time>2022-03-20T09:15:27.000Z</time></trkpt><trkpt lon="5.959222" lat="51.107692"><ele>-5.8</ele><time>2022-03-20T09:15:28.000Z</time></trkpt><trkpt lon="5.959219" lat="51.107761"><ele>-5.8</ele><time>2022-03-20T09:15:29.000Z</time></trkpt><trkpt lon="5.959215" lat="51.107829"><ele>-5.8</ele><time>2022-03-20T09:15:30.000Z</time></trkpt><trkpt lon="5.959211" lat="51.107897"><ele>-5.6</ele><time>2022-03-20T09:15:31.000Z</time></trkpt><trkpt lon="5.959207" lat="51.107963"><ele>-5.6</ele><time>2022-03-20T09:15:32.000Z</time></trkpt><trkpt lon="5.959206" lat="51.108032"><ele>-5.6</ele><time>2022-03-20T09:15:33.000Z</time></trkpt><trkpt lon="5.959203" lat="51.108096"><ele>-5.6</ele><time>2022-03-20T09:15:34.000Z</time></trkpt><trkpt lon="5.9592" lat="51.108165"><ele>-5.8</ele><time>2022-03-20T09:15:35.000Z</time></trkpt><trkpt lon="5.959197" lat="51.108234"><ele>-5.8</ele><time>2022-03-20T09:15:36.000Z</time></trkpt><trkpt lon="5.959194" lat="51.108303"><ele>-6</ele><time>2022-03-20T09:15:37.000Z</time></trkpt><trkpt lon="5.959188" lat="51.108371"><ele>-6</ele><time>2022-03-20T09:15:38.000Z</time></trkpt><trkpt lon="5.959181" lat="51.10844"><ele>-6</ele><time>2022-03-20T09:15:39.000Z</time></trkpt><trkpt lon="5.959179" lat="51.108508"><ele>-6</ele><time>2022-03-20T09:15:40.000Z</time></trkpt><trkpt lon="5.959177" lat="51.108577"><ele>-6</ele><time>2022-03-20T09:15:41.000Z</time></trkpt><trkpt lon="5.959175" lat="51.108648"><ele>-6</ele><time>2022-03-20T09:15:42.000Z</time></trkpt><trkpt lon="5.959173" lat="51.10872"><ele>-6</ele><time>2022-03-20T09:15:43.000Z</time></trkpt><trkpt lon="5.959169" lat="51.108789"><ele>-5.8</ele><time>2022-03-20T09:15:44.000Z</time></trkpt><trkpt lon="5.959165" lat="51.108861"><ele>-5.8</ele><time>2022-03-20T09:15:45.000Z</time></trkpt><trkpt lon="5.959163" lat="51.108934"><ele>-6</ele><time>2022-03-20T09:15:46.000Z</time></trkpt><trkpt lon="5.959162" lat="51.109009"><ele>-6</ele><time>2022-03-20T09:15:47.000Z</time></trkpt><trkpt lon="5.959159" lat="51.10908"><ele>-6</ele><time>2022-03-20T09:15:48.000Z</time></trkpt><trkpt lon="5.959156" lat="51.109155"><ele>-5.8</ele><time>2022-03-20T09:15:49.000Z</time></trkpt><trkpt lon="5.959149" lat="51.109228"><ele>-5.8</ele><time>2022-03-20T09:15:50.000Z</time></trkpt><trkpt lon="5.959139" lat="51.109301"><ele>-5.8</ele><time>2022-03-20T09:15:51.000Z</time></trkpt><trkpt lon="5.959124" lat="51.109373"><ele>-5.8</ele><time>2022-03-20T09:15:52.000Z</time></trkpt><trkpt lon="5.959105" lat="51.109445"><ele>-5.8</ele><time>2022-03-20T09:15:53.000Z</time></trkpt><trkpt lon="5.959084" lat="51.109517"><ele>-5.8</ele><time>2022-03-20T09:15:54.000Z</time></trkpt><trkpt lon="5.95906" lat="51.109588"><ele>-5.6</ele><time>2022-03-20T09:15:55.000Z</time></trkpt><trkpt lon="5.959033" lat="51.109659"><ele>-5.6</ele><time>2022-03-20T09:15:56.000Z</time></trkpt><trkpt lon="5.959002" lat="51.109727"><ele>-5.6</ele><time>2022-03-20T09:15:57.000Z</time></trkpt><trkpt lon="5.958967" lat="51.109797"><ele>-5.6</ele><time>2022-03-20T09:15:58.000Z</time></trkpt><trkpt lon="5.958929" lat="51.109863"><ele>-5.6</ele><time>2022-03-20T09:15:59.000Z</time></trkpt><trkpt lon="5.958891" lat="51.109928"><ele>-5.6</ele><time>2022-03-20T09:16:00.000Z</time></trkpt><trkpt lon="5.958853" lat="51.109987"><ele>-5.4</ele><time>2022-03-20T09:16:01.000Z</time></trkpt><trkpt lon="5.958813" lat="51.110049"><ele>-5.4</ele><time>2022-03-20T09:16:02.000Z</time></trkpt><trkpt lon="5.958772" lat="51.110112"><ele>-5.4</ele><time>2022-03-20T09:16:03.000Z</time></trkpt><trkpt lon="5.95873" lat="51.110173"><ele>-5.2</ele><time>2022-03-20T09:16:04.000Z</time></trkpt><trkpt lon="5.95869" lat="51.110234"><ele>-5.2</ele><time>2022-03-20T09:16:05.000Z</time></trkpt><trkpt lon="5.958648" lat="51.110296"><ele>-5.2</ele><time>2022-03-20T09:16:06.000Z</time></trkpt><trkpt lon="5.958609" lat="51.110354"><ele>-5</ele><time>2022-03-20T09:16:07.000Z</time></trkpt><trkpt lon="5.95857" lat="51.110413"><ele>-5</ele><time>2022-03-20T09:16:08.000Z</time></trkpt><trkpt lon="5.958532" lat="51.110472"><ele>-5</ele><time>2022-03-20T09:16:09.000Z</time></trkpt><trkpt lon="5.958497" lat="51.110526"><ele>-4.8</ele><time>2022-03-20T09:16:10.000Z</time></trkpt><trkpt lon="5.958461" lat="51.110583"><ele>-4.8</ele><time>2022-03-20T09:16:11.000Z</time></trkpt><trkpt lon="5.958427" lat="51.110637"><ele>-4.6</ele><time>2022-03-20T09:16:12.000Z</time></trkpt><trkpt lon="5.958393" lat="51.110687"><ele>-4.6</ele><time>2022-03-20T09:16:13.000Z</time></trkpt><trkpt lon="5.958359" lat="51.110736"><ele>-4.4</ele><time>2022-03-20T09:16:14.000Z</time></trkpt><trkpt lon="5.958325" lat="51.110783"><ele>-4.4</ele><time>2022-03-20T09:16:15.000Z</time></trkpt><trkpt lon="5.958298" lat="51.110826"><ele>-4.2</ele><time>2022-03-20T09:16:16.000Z</time></trkpt><trkpt lon="5.95828" lat="51.110862"><ele>-4.2</ele><time>2022-03-20T09:16:17.000Z</time></trkpt><trkpt lon="5.958287" lat="51.110894"><ele>-4.2</ele><time>2022-03-20T09:16:18.000Z</time></trkpt><trkpt lon="5.958319" lat="51.110918"><ele>-4.2</ele><time>2022-03-20T09:16:19.000Z</time></trkpt><trkpt lon="5.958371" lat="51.110935"><ele>-4.4</ele><time>2022-03-20T09:16:20.000Z</time></trkpt><trkpt lon="5.958437" lat="51.110953"><ele>-4.6</ele><time>2022-03-20T09:16:21.000Z</time></trkpt><trkpt lon="5.958513" lat="51.110964"><ele>-4.8</ele><time>2022-03-20T09:16:22.000Z</time></trkpt><trkpt lon="5.958591" lat="51.11096"><ele>-4.8</ele><time>2022-03-20T09:16:23.000Z</time></trkpt><trkpt lon="5.958673" lat="51.110944"><ele>-4.6</ele><time>2022-03-20T09:16:24.000Z</time></trkpt><trkpt lon="5.958763" lat="51.110919"><ele>-4.8</ele><time>2022-03-20T09:16:25.000Z</time></trkpt><trkpt lon="5.958854" lat="51.110895"><ele>-4.6</ele><time>2022-03-20T09:16:26.000Z</time></trkpt><trkpt lon="5.958947" lat="51.110872"><ele>-4.6</ele><time>2022-03-20T09:16:27.000Z</time></trkpt><trkpt lon="5.959043" lat="51.110849"><ele>-4.6</ele><time>2022-03-20T09:16:28.000Z</time></trkpt><trkpt lon="5.959139" lat="51.110832"><ele>-4.6</ele><time>2022-03-20T09:16:29.000Z</time></trkpt><trkpt lon="5.959238" lat="51.110823"><ele>-4.6</ele><time>2022-03-20T09:16:30.000Z</time></trkpt><trkpt lon="5.959337" lat="51.110824"><ele>-4.6</ele><time>2022-03-20T09:16:31.000Z</time></trkpt><trkpt lon="5.95943" lat="51.11083"><ele>-5</ele><time>2022-03-20T09:16:32.000Z</time></trkpt><trkpt lon="5.95952" lat="51.110841"><ele>-5.2</ele><time>2022-03-20T09:16:33.000Z</time></trkpt><trkpt lon="5.959615" lat="51.110852"><ele>-5.2</ele><time>2022-03-20T09:16:34.000Z</time></trkpt><trkpt lon="5.959712" lat="51.110864"><ele>-5.4</ele><time>2022-03-20T09:16:35.000Z</time></trkpt><trkpt lon="5.959812" lat="51.110875"><ele>-5.6</ele><time>2022-03-20T09:16:36.000Z</time></trkpt><trkpt lon="5.95991" lat="51.110887"><ele>-6</ele><time>2022-03-20T09:16:37.000Z</time></trkpt><trkpt lon="5.960007" lat="51.110898"><ele>-6</ele><time>2022-03-20T09:16:38.000Z</time></trkpt><trkpt lon="5.960111" lat="51.11091"><ele>-5.8</ele><time>2022-03-20T09:16:39.000Z</time></trkpt><trkpt lon="5.960209" lat="51.110921"><ele>-5.6</ele><time>2022-03-20T09:16:40.000Z</time></trkpt><trkpt lon="5.960309" lat="51.110932"><ele>-5.6</ele><time>2022-03-20T09:16:41.000Z</time></trkpt><trkpt lon="5.960414" lat="51.110944"><ele>-5.4</ele><time>2022-03-20T09:16:42.000Z</time></trkpt><trkpt lon="5.960517" lat="51.110955"><ele>-5.4</ele><time>2022-03-20T09:16:43.000Z</time></trkpt><trkpt lon="5.960618" lat="51.110967"><ele>-5.4</ele><time>2022-03-20T09:16:44.000Z</time></trkpt><trkpt lon="5.960719" lat="51.110975"><ele>-5.4</ele><time>2022-03-20T09:16:45.000Z</time></trkpt><trkpt lon="5.960823" lat="51.110986"><ele>-5.2</ele><time>2022-03-20T09:16:46.000Z</time></trkpt><trkpt lon="5.960927" lat="51.110997"><ele>-5</ele><time>2022-03-20T09:16:47.000Z</time></trkpt><trkpt lon="5.961032" lat="51.111006"><ele>-5</ele><time>2022-03-20T09:16:48.000Z</time></trkpt><trkpt lon="5.961136" lat="51.111014"><ele>-5</ele><time>2022-03-20T09:16:49.000Z</time></trkpt><trkpt lon="5.961246" lat="51.111024"><ele>-5</ele><time>2022-03-20T09:16:50.000Z</time></trkpt><trkpt lon="5.96135" lat="51.111035"><ele>-5.2</ele><time>2022-03-20T09:16:51.000Z</time></trkpt><trkpt lon="5.961461" lat="51.111047"><ele>-5.2</ele><time>2022-03-20T09:16:52.000Z</time></trkpt><trkpt lon="5.961566" lat="51.111058"><ele>-5</ele><time>2022-03-20T09:16:53.000Z</time></trkpt><trkpt lon="5.961671" lat="51.11107"><ele>-5</ele><time>2022-03-20T09:16:54.000Z</time></trkpt><trkpt lon="5.961773" lat="51.111078"><ele>-5</ele><time>2022-03-20T09:16:55.000Z</time></trkpt><trkpt lon="5.961872" lat="51.111089"><ele>-5</ele><time>2022-03-20T09:16:56.000Z</time></trkpt><trkpt lon="5.961973" lat="51.111097"><ele>-5.2</ele><time>2022-03-20T09:16:57.000Z</time></trkpt><trkpt lon="5.96207" lat="51.111108"><ele>-5.2</ele><time>2022-03-20T09:16:58.000Z</time></trkpt><trkpt lon="5.962163" lat="51.111117"><ele>-5.2</ele><time>2022-03-20T09:16:59.000Z</time></trkpt><trkpt lon="5.962257" lat="51.111127"><ele>-5.2</ele><time>2022-03-20T09:17:00.000Z</time></trkpt><trkpt lon="5.962351" lat="51.111136"><ele>-5.2</ele><time>2022-03-20T09:17:01.000Z</time></trkpt><trkpt lon="5.962445" lat="51.111146"><ele>-5.2</ele><time>2022-03-20T09:17:02.000Z</time></trkpt><trkpt lon="5.962536" lat="51.111155"><ele>-5.2</ele><time>2022-03-20T09:17:03.000Z</time></trkpt><trkpt lon="5.962627" lat="51.111162"><ele>-5.4</ele><time>2022-03-20T09:17:04.000Z</time></trkpt><trkpt lon="5.96272" lat="51.11117"><ele>-5.6</ele><time>2022-03-20T09:17:05.000Z</time></trkpt><trkpt lon="5.962816" lat="51.111178"><ele>-5.8</ele><time>2022-03-20T09:17:06.000Z</time></trkpt><trkpt lon="5.962912" lat="51.111188"><ele>-5.8</ele><time>2022-03-20T09:17:07.000Z</time></trkpt><trkpt lon="5.963008" lat="51.1112"><ele>-5.8</ele><time>2022-03-20T09:17:08.000Z</time></trkpt><trkpt lon="5.963104" lat="51.111208"><ele>-6</ele><time>2022-03-20T09:17:09.000Z</time></trkpt><trkpt lon="5.963197" lat="51.111219"><ele>-6.2</ele><time>2022-03-20T09:17:10.000Z</time></trkpt><trkpt lon="5.963287" lat="51.11123"><ele>-6.2</ele><time>2022-03-20T09:17:11.000Z</time></trkpt><trkpt lon="5.96338" lat="51.111241"><ele>-6</ele><time>2022-03-20T09:17:12.000Z</time></trkpt><trkpt lon="5.963479" lat="51.111253"><ele>-6.2</ele><time>2022-03-20T09:17:13.000Z</time></trkpt><trkpt lon="5.963577" lat="51.111264"><ele>-6.2</ele><time>2022-03-20T09:17:14.000Z</time></trkpt><trkpt lon="5.963676" lat="51.111276"><ele>-6.2</ele><time>2022-03-20T09:17:15.000Z</time></trkpt><trkpt lon="5.963776" lat="51.111287"><ele>-6.2</ele><time>2022-03-20T09:17:16.000Z</time></trkpt><trkpt lon="5.963873" lat="51.111299"><ele>-6.2</ele><time>2022-03-20T09:17:17.000Z</time></trkpt><trkpt lon="5.963972" lat="51.111307"><ele>-6</ele><time>2022-03-20T09:17:18.000Z</time></trkpt><trkpt lon="5.964076" lat="51.111318"><ele>-6</ele><time>2022-03-20T09:17:19.000Z</time></trkpt><trkpt lon="5.964193" lat="51.111329"><ele>-6.2</ele><time>2022-03-20T09:17:20.000Z</time></trkpt><trkpt lon="5.964307" lat="51.111341"><ele>-6.4</ele><time>2022-03-20T09:17:21.000Z</time></trkpt><trkpt lon="5.964415" lat="51.111352"><ele>-6.2</ele><time>2022-03-20T09:17:22.000Z</time></trkpt><trkpt lon="5.964531" lat="51.111363"><ele>-6.2</ele><time>2022-03-20T09:17:23.000Z</time></trkpt><trkpt lon="5.96464" lat="51.111378"><ele>-6.4</ele><time>2022-03-20T09:17:24.000Z</time></trkpt><trkpt lon="5.96475" lat="51.111387"><ele>-6.4</ele><time>2022-03-20T09:17:25.000Z</time></trkpt><trkpt lon="5.964858" lat="51.111398"><ele>-6.4</ele><time>2022-03-20T09:17:26.000Z</time></trkpt><trkpt lon="5.964961" lat="51.111409"><ele>-6.4</ele><time>2022-03-20T09:17:27.000Z</time></trkpt><trkpt lon="5.965061" lat="51.111421"><ele>-6.6</ele><time>2022-03-20T09:17:28.000Z</time></trkpt><trkpt lon="5.96516" lat="51.111432"><ele>-6.4</ele><time>2022-03-20T09:17:29.000Z</time></trkpt><trkpt lon="5.965261" lat="51.111441"><ele>-6.4</ele><time>2022-03-20T09:17:30.000Z</time></trkpt><trkpt lon="5.965366" lat="51.111451"><ele>-6.6</ele><time>2022-03-20T09:17:31.000Z</time></trkpt><trkpt lon="5.96547" lat="51.111463"><ele>-6.8</ele><time>2022-03-20T09:17:32.000Z</time></trkpt><trkpt lon="5.965573" lat="51.111474"><ele>-6.8</ele><time>2022-03-20T09:17:33.000Z</time></trkpt><trkpt lon="5.965674" lat="51.111486"><ele>-6.8</ele><time>2022-03-20T09:17:34.000Z</time></trkpt><trkpt lon="5.965774" lat="51.111494"><ele>-6.8</ele><time>2022-03-20T09:17:35.000Z</time></trkpt><trkpt lon="5.965873" lat="51.111502"><ele>-6.6</ele><time>2022-03-20T09:17:36.000Z</time></trkpt><trkpt lon="5.965971" lat="51.111512"><ele>-6.4</ele><time>2022-03-20T09:17:37.000Z</time></trkpt><trkpt lon="5.966071" lat="51.111524"><ele>-6.2</ele><time>2022-03-20T09:17:38.000Z</time></trkpt><trkpt lon="5.966181" lat="51.111535"><ele>-6.2</ele><time>2022-03-20T09:17:39.000Z</time></trkpt><trkpt lon="5.966289" lat="51.111544"><ele>-6</ele><time>2022-03-20T09:17:40.000Z</time></trkpt><trkpt lon="5.966393" lat="51.111554"><ele>-5.8</ele><time>2022-03-20T09:17:41.000Z</time></trkpt><trkpt lon="5.966497" lat="51.111566"><ele>-5.6</ele><time>2022-03-20T09:17:42.000Z</time></trkpt><trkpt lon="5.966603" lat="51.111577"><ele>-5.6</ele><time>2022-03-20T09:17:43.000Z</time></trkpt><trkpt lon="5.966704" lat="51.111586"><ele>-5.4</ele><time>2022-03-20T09:17:44.000Z</time></trkpt><trkpt lon="5.96681" lat="51.111596"><ele>-5.4</ele><time>2022-03-20T09:17:45.000Z</time></trkpt><trkpt lon="5.966918" lat="51.111605"><ele>-5.4</ele><time>2022-03-20T09:17:46.000Z</time></trkpt><trkpt lon="5.967025" lat="51.111615"><ele>-5.2</ele><time>2022-03-20T09:17:47.000Z</time></trkpt><trkpt lon="5.96713" lat="51.111627"><ele>-5.4</ele><time>2022-03-20T09:17:48.000Z</time></trkpt><trkpt lon="5.967233" lat="51.111638"><ele>-5.4</ele><time>2022-03-20T09:17:49.000Z</time></trkpt><trkpt lon="5.96734" lat="51.11165"><ele>-5.4</ele><time>2022-03-20T09:17:50.000Z</time></trkpt><trkpt lon="5.967445" lat="51.111661"><ele>-5.4</ele><time>2022-03-20T09:17:51.000Z</time></trkpt><trkpt lon="5.967545" lat="51.111672"><ele>-5.2</ele><time>2022-03-20T09:17:52.000Z</time></trkpt><trkpt lon="5.967645" lat="51.111684"><ele>-5.4</ele><time>2022-03-20T09:17:53.000Z</time></trkpt><trkpt lon="5.967748" lat="51.111695"><ele>-5.6</ele><time>2022-03-20T09:17:54.000Z</time></trkpt><trkpt lon="5.96785" lat="51.111707"><ele>-5.8</ele><time>2022-03-20T09:17:55.000Z</time></trkpt><trkpt lon="5.96795" lat="51.111721"><ele>-6</ele><time>2022-03-20T09:17:56.000Z</time></trkpt><trkpt lon="5.968056" lat="51.111734"><ele>-6</ele><time>2022-03-20T09:17:57.000Z</time></trkpt><trkpt lon="5.968157" lat="51.111748"><ele>-6</ele><time>2022-03-20T09:17:58.000Z</time></trkpt><trkpt lon="5.96826" lat="51.111769"><ele>-6.2</ele><time>2022-03-20T09:17:59.000Z</time></trkpt><trkpt lon="5.968367" lat="51.111789"><ele>-6.2</ele><time>2022-03-20T09:18:00.000Z</time></trkpt><trkpt lon="5.968472" lat="51.111814"><ele>-6.2</ele><time>2022-03-20T09:18:01.000Z</time></trkpt><trkpt lon="5.968575" lat="51.111847"><ele>-6.2</ele><time>2022-03-20T09:18:02.000Z</time></trkpt><trkpt lon="5.968674" lat="51.111878"><ele>-6.2</ele><time>2022-03-20T09:18:03.000Z</time></trkpt><trkpt lon="5.968777" lat="51.111911"><ele>-6.2</ele><time>2022-03-20T09:18:04.000Z</time></trkpt><trkpt lon="5.968878" lat="51.111946"><ele>-6.2</ele><time>2022-03-20T09:18:05.000Z</time></trkpt><trkpt lon="5.968976" lat="51.11198"><ele>-6.2</ele><time>2022-03-20T09:18:06.000Z</time></trkpt><trkpt lon="5.969076" lat="51.112015"><ele>-6.2</ele><time>2022-03-20T09:18:07.000Z</time></trkpt><trkpt lon="5.969171" lat="51.112048"><ele>-6.2</ele><time>2022-03-20T09:18:08.000Z</time></trkpt><trkpt lon="5.969266" lat="51.11208"><ele>-6.2</ele><time>2022-03-20T09:18:09.000Z</time></trkpt><trkpt lon="5.96936" lat="51.112113"><ele>-6</ele><time>2022-03-20T09:18:10.000Z</time></trkpt><trkpt lon="5.969455" lat="51.112148"><ele>-6</ele><time>2022-03-20T09:18:11.000Z</time></trkpt><trkpt lon="5.969545" lat="51.112179"><ele>-5.8</ele><time>2022-03-20T09:18:12.000Z</time></trkpt><trkpt lon="5.969636" lat="51.112212"><ele>-5.4</ele><time>2022-03-20T09:18:13.000Z</time></trkpt><trkpt lon="5.969725" lat="51.112246"><ele>-5.4</ele><time>2022-03-20T09:18:14.000Z</time></trkpt><trkpt lon="5.969814" lat="51.112278"><ele>-5.6</ele><time>2022-03-20T09:18:15.000Z</time></trkpt><trkpt lon="5.969904" lat="51.112311"><ele>-5.8</ele><time>2022-03-20T09:18:16.000Z</time></trkpt><trkpt lon="5.969995" lat="51.112343"><ele>-5.8</ele><time>2022-03-20T09:18:17.000Z</time></trkpt><trkpt lon="5.970085" lat="51.112376"><ele>-6</ele><time>2022-03-20T09:18:18.000Z</time></trkpt><trkpt lon="5.970171" lat="51.112407"><ele>-5.8</ele><time>2022-03-20T09:18:19.000Z</time></trkpt><trkpt lon="5.970266" lat="51.112441"><ele>-5.8</ele><time>2022-03-20T09:18:20.000Z</time></trkpt><trkpt lon="5.970358" lat="51.112476"><ele>-5.8</ele><time>2022-03-20T09:18:21.000Z</time></trkpt><trkpt lon="5.970449" lat="51.11251"><ele>-5.8</ele><time>2022-03-20T09:18:22.000Z</time></trkpt><trkpt lon="5.970541" lat="51.112547"><ele>-5.8</ele><time>2022-03-20T09:18:23.000Z</time></trkpt><trkpt lon="5.970633" lat="51.112583"><ele>-5.8</ele><time>2022-03-20T09:18:24.000Z</time></trkpt><trkpt lon="5.970726" lat="51.112617"><ele>-5.6</ele><time>2022-03-20T09:18:25.000Z</time></trkpt><trkpt lon="5.970818" lat="51.112654"><ele>-5.8</ele><time>2022-03-20T09:18:26.000Z</time></trkpt><trkpt lon="5.970911" lat="51.112689"><ele>-5.6</ele><time>2022-03-20T09:18:27.000Z</time></trkpt><trkpt lon="5.971003" lat="51.112724"><ele>-5.8</ele><time>2022-03-20T09:18:28.000Z</time></trkpt><trkpt lon="5.971095" lat="51.112758"><ele>-6</ele><time>2022-03-20T09:18:29.000Z</time></trkpt><trkpt lon="5.971186" lat="51.112792"><ele>-6.2</ele><time>2022-03-20T09:18:30.000Z</time></trkpt><trkpt lon="5.971277" lat="51.112826"><ele>-6.2</ele><time>2022-03-20T09:18:31.000Z</time></trkpt><trkpt lon="5.97137" lat="51.112864"><ele>-6.2</ele><time>2022-03-20T09:18:32.000Z</time></trkpt><trkpt lon="5.971462" lat="51.112899"><ele>-6.2</ele><time>2022-03-20T09:18:33.000Z</time></trkpt><trkpt lon="5.971552" lat="51.112933"><ele>-6.4</ele><time>2022-03-20T09:18:34.000Z</time></trkpt><trkpt lon="5.971646" lat="51.112968"><ele>-6.6</ele><time>2022-03-20T09:18:35.000Z</time></trkpt><trkpt lon="5.971738" lat="51.113003"><ele>-6.6</ele><time>2022-03-20T09:18:36.000Z</time></trkpt><trkpt lon="5.971826" lat="51.113039"><ele>-6.6</ele><time>2022-03-20T09:18:37.000Z</time></trkpt><trkpt lon="5.971918" lat="51.113074"><ele>-6.6</ele><time>2022-03-20T09:18:38.000Z</time></trkpt><trkpt lon="5.972009" lat="51.113109"><ele>-6.6</ele><time>2022-03-20T09:18:39.000Z</time></trkpt><trkpt lon="5.9721" lat="51.113144"><ele>-6.8</ele><time>2022-03-20T09:18:40.000Z</time></trkpt><trkpt lon="5.972192" lat="51.113181"><ele>-6.8</ele><time>2022-03-20T09:18:41.000Z</time></trkpt><trkpt lon="5.972283" lat="51.113216"><ele>-6.8</ele><time>2022-03-20T09:18:42.000Z</time></trkpt><trkpt lon="5.972375" lat="51.11325"><ele>-6.6</ele><time>2022-03-20T09:18:43.000Z</time></trkpt><trkpt lon="5.972463" lat="51.113287"><ele>-6.6</ele><time>2022-03-20T09:18:44.000Z</time></trkpt><trkpt lon="5.972556" lat="51.113322"><ele>-6.6</ele><time>2022-03-20T09:18:45.000Z</time></trkpt><trkpt lon="5.972649" lat="51.113357"><ele>-6.4</ele><time>2022-03-20T09:18:46.000Z</time></trkpt><trkpt lon="5.972738" lat="51.113391"><ele>-6.4</ele><time>2022-03-20T09:18:47.000Z</time></trkpt><trkpt lon="5.972827" lat="51.113428"><ele>-6.4</ele><time>2022-03-20T09:18:48.000Z</time></trkpt><trkpt lon="5.972914" lat="51.113463"><ele>-6.2</ele><time>2022-03-20T09:18:49.000Z</time></trkpt><trkpt lon="5.973004" lat="51.113498"><ele>-6.4</ele><time>2022-03-20T09:18:50.000Z</time></trkpt><trkpt lon="5.973096" lat="51.113533"><ele>-6.4</ele><time>2022-03-20T09:18:51.000Z</time></trkpt><trkpt lon="5.973185" lat="51.113567"><ele>-6.2</ele><time>2022-03-20T09:18:52.000Z</time></trkpt><trkpt lon="5.973273" lat="51.113604"><ele>-6</ele><time>2022-03-20T09:18:53.000Z</time></trkpt><trkpt lon="5.97336" lat="51.113639"><ele>-6</ele><time>2022-03-20T09:18:54.000Z</time></trkpt><trkpt lon="5.973449" lat="51.113676"><ele>-5.8</ele><time>2022-03-20T09:18:55.000Z</time></trkpt><trkpt lon="5.973537" lat="51.113712"><ele>-5.6</ele><time>2022-03-20T09:18:56.000Z</time></trkpt><trkpt lon="5.973625" lat="51.113749"><ele>-5.4</ele><time>2022-03-20T09:18:57.000Z</time></trkpt><trkpt lon="5.973715" lat="51.113787"><ele>-5.4</ele><time>2022-03-20T09:18:58.000Z</time></trkpt><trkpt lon="5.973805" lat="51.113825"><ele>-5.6</ele><time>2022-03-20T09:18:59.000Z</time></trkpt><trkpt lon="5.973895" lat="51.113863"><ele>-5.8</ele><time>2022-03-20T09:19:00.000Z</time></trkpt><trkpt lon="5.973986" lat="51.113901"><ele>-5.8</ele><time>2022-03-20T09:19:01.000Z</time></trkpt><trkpt lon="5.974077" lat="51.113937"><ele>-6</ele><time>2022-03-20T09:19:02.000Z</time></trkpt><trkpt lon="5.974168" lat="51.113974"><ele>-6</ele><time>2022-03-20T09:19:03.000Z</time></trkpt><trkpt lon="5.974257" lat="51.114015"><ele>-6.2</ele><time>2022-03-20T09:19:04.000Z</time></trkpt><trkpt lon="5.974346" lat="51.114054"><ele>-6.2</ele><time>2022-03-20T09:19:05.000Z</time></trkpt><trkpt lon="5.974436" lat="51.114093"><ele>-6.2</ele><time>2022-03-20T09:19:06.000Z</time></trkpt><trkpt lon="5.974523" lat="51.11413"><ele>-6.2</ele><time>2022-03-20T09:19:07.000Z</time></trkpt><trkpt lon="5.974614" lat="51.114171"><ele>-6.6</ele><time>2022-03-20T09:19:08.000Z</time></trkpt><trkpt lon="5.974705" lat="51.11421"><ele>-6.6</ele><time>2022-03-20T09:19:09.000Z</time></trkpt><trkpt lon="5.974796" lat="51.114252"><ele>-6.6</ele><time>2022-03-20T09:19:10.000Z</time></trkpt><trkpt lon="5.974886" lat="51.114291"><ele>-6.6</ele><time>2022-03-20T09:19:11.000Z</time></trkpt><trkpt lon="5.974977" lat="51.114329"><ele>-6.6</ele><time>2022-03-20T09:19:12.000Z</time></trkpt><trkpt lon="5.975066" lat="51.114369"><ele>-6.4</ele><time>2022-03-20T09:19:13.000Z</time></trkpt><trkpt lon="5.975159" lat="51.114409"><ele>-6.4</ele><time>2022-03-20T09:19:14.000Z</time></trkpt><trkpt lon="5.975252" lat="51.11445"><ele>-6.6</ele><time>2022-03-20T09:19:15.000Z</time></trkpt><trkpt lon="5.975343" lat="51.114489"><ele>-6.4</ele><time>2022-03-20T09:19:16.000Z</time></trkpt><trkpt lon="5.975435" lat="51.11453"><ele>-6.4</ele><time>2022-03-20T09:19:17.000Z</time></trkpt><trkpt lon="5.975526" lat="51.114569"><ele>-6.6</ele><time>2022-03-20T09:19:18.000Z</time></trkpt><trkpt lon="5.975617" lat="51.114607"><ele>-6.6</ele><time>2022-03-20T09:19:19.000Z</time></trkpt><trkpt lon="5.975705" lat="51.114645"><ele>-6.4</ele><time>2022-03-20T09:19:20.000Z</time></trkpt><trkpt lon="5.975794" lat="51.114684"><ele>-6.2</ele><time>2022-03-20T09:19:21.000Z</time></trkpt><trkpt lon="5.975882" lat="51.114724"><ele>-6</ele><time>2022-03-20T09:19:22.000Z</time></trkpt><trkpt lon="5.97597" lat="51.114763"><ele>-6</ele><time>2022-03-20T09:19:23.000Z</time></trkpt><trkpt lon="5.97606" lat="51.114804"><ele>-6</ele><time>2022-03-20T09:19:24.000Z</time></trkpt><trkpt lon="5.976149" lat="51.114844"><ele>-6</ele><time>2022-03-20T09:19:25.000Z</time></trkpt><trkpt lon="5.976237" lat="51.114882"><ele>-6</ele><time>2022-03-20T09:19:26.000Z</time></trkpt><trkpt lon="5.976325" lat="51.11492"><ele>-5.8</ele><time>2022-03-20T09:19:27.000Z</time></trkpt><trkpt lon="5.976415" lat="51.114958"><ele>-5.8</ele><time>2022-03-20T09:19:28.000Z</time></trkpt><trkpt lon="5.976505" lat="51.114993"><ele>-5.6</ele><time>2022-03-20T09:19:29.000Z</time></trkpt><trkpt lon="5.976593" lat="51.115031"><ele>-5.8</ele><time>2022-03-20T09:19:30.000Z</time></trkpt><trkpt lon="5.97668" lat="51.115072"><ele>-6</ele><time>2022-03-20T09:19:31.000Z</time></trkpt><trkpt lon="5.976766" lat="51.115111"><ele>-6.4</ele><time>2022-03-20T09:19:32.000Z</time></trkpt><trkpt lon="5.976852" lat="51.115146"><ele>-6.4</ele><time>2022-03-20T09:19:33.000Z</time></trkpt><trkpt lon="5.976937" lat="51.115181"><ele>-6.4</ele><time>2022-03-20T09:19:34.000Z</time></trkpt><trkpt lon="5.977019" lat="51.115214"><ele>-6.4</ele><time>2022-03-20T09:19:35.000Z</time></trkpt><trkpt lon="5.977105" lat="51.115249"><ele>-6.4</ele><time>2022-03-20T09:19:36.000Z</time></trkpt><trkpt lon="5.977194" lat="51.115283"><ele>-6.6</ele><time>2022-03-20T09:19:37.000Z</time></trkpt><trkpt lon="5.977283" lat="51.115321"><ele>-6.6</ele><time>2022-03-20T09:19:38.000Z</time></trkpt><trkpt lon="5.977372" lat="51.115359"><ele>-6.6</ele><time>2022-03-20T09:19:39.000Z</time></trkpt><trkpt lon="5.977462" lat="51.115393"><ele>-6.4</ele><time>2022-03-20T09:19:40.000Z</time></trkpt><trkpt lon="5.977555" lat="51.115428"><ele>-6.2</ele><time>2022-03-20T09:19:41.000Z</time></trkpt><trkpt lon="5.977647" lat="51.115466"><ele>-6</ele><time>2022-03-20T09:19:42.000Z</time></trkpt><trkpt lon="5.977739" lat="51.115501"><ele>-6</ele><time>2022-03-20T09:19:43.000Z</time></trkpt><trkpt lon="5.977829" lat="51.115538"><ele>-5.8</ele><time>2022-03-20T09:19:44.000Z</time></trkpt><trkpt lon="5.977918" lat="51.115576"><ele>-5.6</ele><time>2022-03-20T09:19:45.000Z</time></trkpt><trkpt lon="5.978008" lat="51.115615"><ele>-5.6</ele><time>2022-03-20T09:19:46.000Z</time></trkpt><trkpt lon="5.978095" lat="51.115656"><ele>-5.6</ele><time>2022-03-20T09:19:47.000Z</time></trkpt><trkpt lon="5.97818" lat="51.115697"><ele>-5.4</ele><time>2022-03-20T09:19:48.000Z</time></trkpt><trkpt lon="5.978263" lat="51.115742"><ele>-5.4</ele><time>2022-03-20T09:19:49.000Z</time></trkpt><trkpt lon="5.978346" lat="51.115785"><ele>-5.4</ele><time>2022-03-20T09:19:50.000Z</time></trkpt><trkpt lon="5.978426" lat="51.115833"><ele>-5.4</ele><time>2022-03-20T09:19:51.000Z</time></trkpt><trkpt lon="5.978506" lat="51.11588"><ele>-5.2</ele><time>2022-03-20T09:19:52.000Z</time></trkpt><trkpt lon="5.978584" lat="51.115929"><ele>-5</ele><time>2022-03-20T09:19:53.000Z</time></trkpt><trkpt lon="5.978658" lat="51.115981"><ele>-5.2</ele><time>2022-03-20T09:19:54.000Z</time></trkpt><trkpt lon="5.97873" lat="51.116034"><ele>-5.2</ele><time>2022-03-20T09:19:55.000Z</time></trkpt><trkpt lon="5.9788" lat="51.11609"><ele>-5</ele><time>2022-03-20T09:19:56.000Z</time></trkpt><trkpt lon="5.978869" lat="51.116144"><ele>-5</ele><time>2022-03-20T09:19:57.000Z</time></trkpt><trkpt lon="5.978937" lat="51.116198"><ele>-5</ele><time>2022-03-20T09:19:58.000Z</time></trkpt><trkpt lon="5.979004" lat="51.116252"><ele>-4.8</ele><time>2022-03-20T09:19:59.000Z</time></trkpt><trkpt lon="5.979071" lat="51.116308"><ele>-4.6</ele><time>2022-03-20T09:20:00.000Z</time></trkpt><trkpt lon="5.979139" lat="51.11636"><ele>-4.6</ele><time>2022-03-20T09:20:01.000Z</time></trkpt><trkpt lon="5.979208" lat="51.116411"><ele>-4.4</ele><time>2022-03-20T09:20:02.000Z</time></trkpt><trkpt lon="5.979276" lat="51.116465"><ele>-4.4</ele><time>2022-03-20T09:20:03.000Z</time></trkpt><trkpt lon="5.979343" lat="51.116518"><ele>-4.2</ele><time>2022-03-20T09:20:04.000Z</time></trkpt><trkpt lon="5.979412" lat="51.116572"><ele>-4.2</ele><time>2022-03-20T09:20:05.000Z</time></trkpt><trkpt lon="5.97948" lat="51.116626"><ele>-4.4</ele><time>2022-03-20T09:20:06.000Z</time></trkpt><trkpt lon="5.979547" lat="51.116679"><ele>-4.4</ele><time>2022-03-20T09:20:07.000Z</time></trkpt><trkpt lon="5.979611" lat="51.11673"><ele>-4.4</ele><time>2022-03-20T09:20:08.000Z</time></trkpt><trkpt lon="5.97968" lat="51.116782"><ele>-4.4</ele><time>2022-03-20T09:20:09.000Z</time></trkpt><trkpt lon="5.979751" lat="51.116836"><ele>-4.4</ele><time>2022-03-20T09:20:10.000Z</time></trkpt><trkpt lon="5.979819" lat="51.116889"><ele>-4.4</ele><time>2022-03-20T09:20:11.000Z</time></trkpt><trkpt lon="5.979886" lat="51.116942"><ele>-4.4</ele><time>2022-03-20T09:20:12.000Z</time></trkpt><trkpt lon="5.979953" lat="51.116995"><ele>-4.4</ele><time>2022-03-20T09:20:13.000Z</time></trkpt><trkpt lon="5.980021" lat="51.117049"><ele>-4.4</ele><time>2022-03-20T09:20:14.000Z</time></trkpt><trkpt lon="5.980089" lat="51.117103"><ele>-4.4</ele><time>2022-03-20T09:20:15.000Z</time></trkpt><trkpt lon="5.980157" lat="51.117156"><ele>-4.2</ele><time>2022-03-20T09:20:16.000Z</time></trkpt><trkpt lon="5.980224" lat="51.117209"><ele>-4.2</ele><time>2022-03-20T09:20:17.000Z</time></trkpt><trkpt lon="5.980293" lat="51.117263"><ele>-4.2</ele><time>2022-03-20T09:20:18.000Z</time></trkpt><trkpt lon="5.980363" lat="51.117313"><ele>-4.2</ele><time>2022-03-20T09:20:19.000Z</time></trkpt><trkpt lon="5.980433" lat="51.117365"><ele>-4</ele><time>2022-03-20T09:20:20.000Z</time></trkpt><trkpt lon="5.980503" lat="51.117419"><ele>-4</ele><time>2022-03-20T09:20:21.000Z</time></trkpt><trkpt lon="5.980572" lat="51.117472"><ele>-3.8</ele><time>2022-03-20T09:20:22.000Z</time></trkpt><trkpt lon="5.980641" lat="51.117526"><ele>-3.8</ele><time>2022-03-20T09:20:23.000Z</time></trkpt><trkpt lon="5.98071" lat="51.117576"><ele>-3.8</ele><time>2022-03-20T09:20:24.000Z</time></trkpt><trkpt lon="5.980779" lat="51.117629"><ele>-4</ele><time>2022-03-20T09:20:25.000Z</time></trkpt><trkpt lon="5.980849" lat="51.117682"><ele>-4.2</ele><time>2022-03-20T09:20:26.000Z</time></trkpt><trkpt lon="5.980917" lat="51.117736"><ele>-4.4</ele><time>2022-03-20T09:20:27.000Z</time></trkpt><trkpt lon="5.980985" lat="51.117789"><ele>-4.6</ele><time>2022-03-20T09:20:28.000Z</time></trkpt><trkpt lon="5.981052" lat="51.117841"><ele>-4.6</ele><time>2022-03-20T09:20:29.000Z</time></trkpt><trkpt lon="5.981122" lat="51.117896"><ele>-4.6</ele><time>2022-03-20T09:20:30.000Z</time></trkpt><trkpt lon="5.98119" lat="51.117949"><ele>-4.6</ele><time>2022-03-20T09:20:31.000Z</time></trkpt><trkpt lon="5.98126" lat="51.118003"><ele>-4.6</ele><time>2022-03-20T09:20:32.000Z</time></trkpt><trkpt lon="5.98133" lat="51.118056"><ele>-4.6</ele><time>2022-03-20T09:20:33.000Z</time></trkpt><trkpt lon="5.981396" lat="51.118107"><ele>-4.4</ele><time>2022-03-20T09:20:34.000Z</time></trkpt><trkpt lon="5.981462" lat="51.118159"><ele>-4.4</ele><time>2022-03-20T09:20:35.000Z</time></trkpt><trkpt lon="5.98153" lat="51.118213"><ele>-4.4</ele><time>2022-03-20T09:20:36.000Z</time></trkpt><trkpt lon="5.981598" lat="51.118266"><ele>-4.4</ele><time>2022-03-20T09:20:37.000Z</time></trkpt><trkpt lon="5.981664" lat="51.118313"><ele>-4.4</ele><time>2022-03-20T09:20:38.000Z</time></trkpt><trkpt lon="5.981729" lat="51.118362"><ele>-4.4</ele><time>2022-03-20T09:20:39.000Z</time></trkpt><trkpt lon="5.981792" lat="51.118412"><ele>-4.4</ele><time>2022-03-20T09:20:40.000Z</time></trkpt><trkpt lon="5.981853" lat="51.118459"><ele>-4.4</ele><time>2022-03-20T09:20:41.000Z</time></trkpt><trkpt lon="5.981912" lat="51.118504"><ele>-4.2</ele><time>2022-03-20T09:20:42.000Z</time></trkpt><trkpt lon="5.981971" lat="51.11855"><ele>-4.2</ele><time>2022-03-20T09:20:43.000Z</time></trkpt><trkpt lon="5.982029" lat="51.118596"><ele>-4</ele><time>2022-03-20T09:20:44.000Z</time></trkpt><trkpt lon="5.982079" lat="51.118644"><ele>-3.8</ele><time>2022-03-20T09:20:45.000Z</time></trkpt><trkpt lon="5.982107" lat="51.118696"><ele>-3.6</ele><time>2022-03-20T09:20:46.000Z</time></trkpt><trkpt lon="5.982104" lat="51.118753"><ele>-3.4</ele><time>2022-03-20T09:20:47.000Z</time></trkpt><trkpt lon="5.982067" lat="51.118811"><ele>-3.4</ele><time>2022-03-20T09:20:48.000Z</time></trkpt><trkpt lon="5.982004" lat="51.118866"><ele>-3.2</ele><time>2022-03-20T09:20:49.000Z</time></trkpt><trkpt lon="5.981924" lat="51.118924"><ele>-3.2</ele><time>2022-03-20T09:20:50.000Z</time></trkpt><trkpt lon="5.981841" lat="51.118982"><ele>-3.2</ele><time>2022-03-20T09:20:51.000Z</time></trkpt><trkpt lon="5.981759" lat="51.11904"><ele>-3.2</ele><time>2022-03-20T09:20:52.000Z</time></trkpt><trkpt lon="5.98168" lat="51.119097"><ele>-3.2</ele><time>2022-03-20T09:20:53.000Z</time></trkpt><trkpt lon="5.981605" lat="51.119154"><ele>-3.2</ele><time>2022-03-20T09:20:54.000Z</time></trkpt><trkpt lon="5.981529" lat="51.119208"><ele>-3.2</ele><time>2022-03-20T09:20:55.000Z</time></trkpt><trkpt lon="5.981455" lat="51.119265"><ele>-3.4</ele><time>2022-03-20T09:20:56.000Z</time></trkpt><trkpt lon="5.981382" lat="51.119318"><ele>-3.4</ele><time>2022-03-20T09:20:57.000Z</time></trkpt><trkpt lon="5.981309" lat="51.119372"><ele>-3.4</ele><time>2022-03-20T09:20:58.000Z</time></trkpt><trkpt lon="5.981235" lat="51.119429"><ele>-3.4</ele><time>2022-03-20T09:20:59.000Z</time></trkpt><trkpt lon="5.981163" lat="51.119486"><ele>-3.4</ele><time>2022-03-20T09:21:00.000Z</time></trkpt><trkpt lon="5.981091" lat="51.11954"><ele>-3.6</ele><time>2022-03-20T09:21:01.000Z</time></trkpt><trkpt lon="5.981021" lat="51.119596"><ele>-3.6</ele><time>2022-03-20T09:21:02.000Z</time></trkpt><trkpt lon="5.980952" lat="51.11965"><ele>-3.6</ele><time>2022-03-20T09:21:03.000Z</time></trkpt><trkpt lon="5.980879" lat="51.119704"><ele>-3.6</ele><time>2022-03-20T09:21:04.000Z</time></trkpt><trkpt lon="5.980808" lat="51.11976"><ele>-3.6</ele><time>2022-03-20T09:21:05.000Z</time></trkpt><trkpt lon="5.980735" lat="51.11982"><ele>-3.6</ele><time>2022-03-20T09:21:06.000Z</time></trkpt><trkpt lon="5.980664" lat="51.119876"><ele>-3.6</ele><time>2022-03-20T09:21:07.000Z</time></trkpt><trkpt lon="5.980597" lat="51.119931"><ele>-3.6</ele><time>2022-03-20T09:21:08.000Z</time></trkpt><trkpt lon="5.980525" lat="51.119992"><ele>-3.6</ele><time>2022-03-20T09:21:09.000Z</time></trkpt><trkpt lon="5.980453" lat="51.120048"><ele>-3.6</ele><time>2022-03-20T09:21:10.000Z</time></trkpt><trkpt lon="5.980384" lat="51.120103"><ele>-3.6</ele><time>2022-03-20T09:21:11.000Z</time></trkpt><trkpt lon="5.980313" lat="51.12016"><ele>-3.6</ele><time>2022-03-20T09:21:12.000Z</time></trkpt><trkpt lon="5.980242" lat="51.120217"><ele>-3.6</ele><time>2022-03-20T09:21:13.000Z</time></trkpt><trkpt lon="5.980173" lat="51.120272"><ele>-3.4</ele><time>2022-03-20T09:21:14.000Z</time></trkpt><trkpt lon="5.980103" lat="51.120329"><ele>-3.6</ele><time>2022-03-20T09:21:15.000Z</time></trkpt><trkpt lon="5.980032" lat="51.120386"><ele>-3.6</ele><time>2022-03-20T09:21:16.000Z</time></trkpt><trkpt lon="5.979961" lat="51.12044"><ele>-3.6</ele><time>2022-03-20T09:21:17.000Z</time></trkpt><trkpt lon="5.97989" lat="51.120493"><ele>-3.6</ele><time>2022-03-20T09:21:18.000Z</time></trkpt><trkpt lon="5.979822" lat="51.12055"><ele>-3.6</ele><time>2022-03-20T09:21:19.000Z</time></trkpt><trkpt lon="5.979753" lat="51.120601"><ele>-3.6</ele><time>2022-03-20T09:21:20.000Z</time></trkpt><trkpt lon="5.979685" lat="51.120657"><ele>-3.4</ele><time>2022-03-20T09:21:21.000Z</time></trkpt><trkpt lon="5.979616" lat="51.120714"><ele>-3.6</ele><time>2022-03-20T09:21:22.000Z</time></trkpt><trkpt lon="5.979546" lat="51.120771"><ele>-3.4</ele><time>2022-03-20T09:21:23.000Z</time></trkpt><trkpt lon="5.979478" lat="51.120827"><ele>-3.6</ele><time>2022-03-20T09:21:24.000Z</time></trkpt><trkpt lon="5.979408" lat="51.120883"><ele>-3.6</ele><time>2022-03-20T09:21:25.000Z</time></trkpt><trkpt lon="5.97934" lat="51.120939"><ele>-3.6</ele><time>2022-03-20T09:21:26.000Z</time></trkpt><trkpt lon="5.979274" lat="51.120995"><ele>-3.6</ele><time>2022-03-20T09:21:27.000Z</time></trkpt><trkpt lon="5.979206" lat="51.12105"><ele>-3.6</ele><time>2022-03-20T09:21:28.000Z</time></trkpt><trkpt lon="5.979139" lat="51.121104"><ele>-3.6</ele><time>2022-03-20T09:21:29.000Z</time></trkpt><trkpt lon="5.979072" lat="51.121158"><ele>-3.8</ele><time>2022-03-20T09:21:30.000Z</time></trkpt><trkpt lon="5.979005" lat="51.12121"><ele>-3.8</ele><time>2022-03-20T09:21:31.000Z</time></trkpt><trkpt lon="5.978935" lat="51.121267"><ele>-3.8</ele><time>2022-03-20T09:21:32.000Z</time></trkpt><trkpt lon="5.978867" lat="51.121321"><ele>-4</ele><time>2022-03-20T09:21:33.000Z</time></trkpt><trkpt lon="5.9788" lat="51.12138"><ele>-4</ele><time>2022-03-20T09:21:34.000Z</time></trkpt><trkpt lon="5.978731" lat="51.121435"><ele>-4</ele><time>2022-03-20T09:21:35.000Z</time></trkpt><trkpt lon="5.97866" lat="51.121495"><ele>-4.2</ele><time>2022-03-20T09:21:36.000Z</time></trkpt><trkpt lon="5.978589" lat="51.121554"><ele>-4.4</ele><time>2022-03-20T09:21:37.000Z</time></trkpt><trkpt lon="5.97852" lat="51.121608"><ele>-4.6</ele><time>2022-03-20T09:21:38.000Z</time></trkpt><trkpt lon="5.97845" lat="51.121661"><ele>-4.6</ele><time>2022-03-20T09:21:39.000Z</time></trkpt><trkpt lon="5.97838" lat="51.12172"><ele>-4.8</ele><time>2022-03-20T09:21:40.000Z</time></trkpt><trkpt lon="5.978309" lat="51.121778"><ele>-4.8</ele><time>2022-03-20T09:21:41.000Z</time></trkpt><trkpt lon="5.978237" lat="51.121835"><ele>-5</ele><time>2022-03-20T09:21:42.000Z</time></trkpt><trkpt lon="5.978165" lat="51.121895"><ele>-5</ele><time>2022-03-20T09:21:43.000Z</time></trkpt><trkpt lon="5.978092" lat="51.121954"><ele>-5.2</ele><time>2022-03-20T09:21:44.000Z</time></trkpt><trkpt lon="5.978018" lat="51.122014"><ele>-5.2</ele><time>2022-03-20T09:21:45.000Z</time></trkpt><trkpt lon="5.977944" lat="51.122072"><ele>-5.2</ele><time>2022-03-20T09:21:46.000Z</time></trkpt><trkpt lon="5.977871" lat="51.122132"><ele>-5.2</ele><time>2022-03-20T09:21:47.000Z</time></trkpt><trkpt lon="5.977797" lat="51.122191"><ele>-5.2</ele><time>2022-03-20T09:21:48.000Z</time></trkpt><trkpt lon="5.977725" lat="51.122247"><ele>-5.2</ele><time>2022-03-20T09:21:49.000Z</time></trkpt><trkpt lon="5.977655" lat="51.122301"><ele>-5.2</ele><time>2022-03-20T09:21:50.000Z</time></trkpt><trkpt lon="5.977582" lat="51.122358"><ele>-5</ele><time>2022-03-20T09:21:51.000Z</time></trkpt><trkpt lon="5.977509" lat="51.122411"><ele>-5</ele><time>2022-03-20T09:21:52.000Z</time></trkpt><trkpt lon="5.977431" lat="51.122468"><ele>-5</ele><time>2022-03-20T09:21:53.000Z</time></trkpt><trkpt lon="5.97735" lat="51.122523"><ele>-5</ele><time>2022-03-20T09:21:54.000Z</time></trkpt><trkpt lon="5.977265" lat="51.122576"><ele>-4.8</ele><time>2022-03-20T09:21:55.000Z</time></trkpt><trkpt lon="5.97718" lat="51.122629"><ele>-5</ele><time>2022-03-20T09:21:56.000Z</time></trkpt><trkpt lon="5.977095" lat="51.122678"><ele>-5</ele><time>2022-03-20T09:21:57.000Z</time></trkpt><trkpt lon="5.977005" lat="51.122726"><ele>-5</ele><time>2022-03-20T09:21:58.000Z</time></trkpt><trkpt lon="5.976912" lat="51.122773"><ele>-5.2</ele><time>2022-03-20T09:21:59.000Z</time></trkpt><trkpt lon="5.976822" lat="51.122815"><ele>-5.2</ele><time>2022-03-20T09:22:00.000Z</time></trkpt><trkpt lon="5.976725" lat="51.122858"><ele>-5.2</ele><time>2022-03-20T09:22:01.000Z</time></trkpt><trkpt lon="5.97663" lat="51.122897"><ele>-5</ele><time>2022-03-20T09:22:02.000Z</time></trkpt><trkpt lon="5.976537" lat="51.122937"><ele>-5.2</ele><time>2022-03-20T09:22:03.000Z</time></trkpt><trkpt lon="5.976439" lat="51.122977"><ele>-5.2</ele><time>2022-03-20T09:22:04.000Z</time></trkpt><trkpt lon="5.976343" lat="51.123015"><ele>-5.2</ele><time>2022-03-20T09:22:05.000Z</time></trkpt><trkpt lon="5.976244" lat="51.123053"><ele>-5.2</ele><time>2022-03-20T09:22:06.000Z</time></trkpt><trkpt lon="5.976144" lat="51.123091"><ele>-5.2</ele><time>2022-03-20T09:22:07.000Z</time></trkpt><trkpt lon="5.976043" lat="51.123132"><ele>-5</ele><time>2022-03-20T09:22:08.000Z</time></trkpt><trkpt lon="5.975943" lat="51.123171"><ele>-4.8</ele><time>2022-03-20T09:22:09.000Z</time></trkpt><trkpt lon="5.975846" lat="51.12321"><ele>-4.6</ele><time>2022-03-20T09:22:10.000Z</time></trkpt><trkpt lon="5.97575" lat="51.123248"><ele>-4.4</ele><time>2022-03-20T09:22:11.000Z</time></trkpt><trkpt lon="5.975654" lat="51.123288"><ele>-4.4</ele><time>2022-03-20T09:22:12.000Z</time></trkpt><trkpt lon="5.975557" lat="51.123327"><ele>-4.2</ele><time>2022-03-20T09:22:13.000Z</time></trkpt><trkpt lon="5.975454" lat="51.123365"><ele>-4.2</ele><time>2022-03-20T09:22:14.000Z</time></trkpt><trkpt lon="5.97535" lat="51.123403"><ele>-4.2</ele><time>2022-03-20T09:22:15.000Z</time></trkpt><trkpt lon="5.975248" lat="51.123439"><ele>-4</ele><time>2022-03-20T09:22:16.000Z</time></trkpt><trkpt lon="5.975146" lat="51.123476"><ele>-4</ele><time>2022-03-20T09:22:17.000Z</time></trkpt><trkpt lon="5.975043" lat="51.123515"><ele>-4</ele><time>2022-03-20T09:22:18.000Z</time></trkpt><trkpt lon="5.974943" lat="51.123553"><ele>-4</ele><time>2022-03-20T09:22:19.000Z</time></trkpt><trkpt lon="5.974845" lat="51.123594"><ele>-4</ele><time>2022-03-20T09:22:20.000Z</time></trkpt><trkpt lon="5.974747" lat="51.123633"><ele>-4.2</ele><time>2022-03-20T09:22:21.000Z</time></trkpt><trkpt lon="5.974648" lat="51.123671"><ele>-4.2</ele><time>2022-03-20T09:22:22.000Z</time></trkpt><trkpt lon="5.974549" lat="51.123709"><ele>-4.4</ele><time>2022-03-20T09:22:23.000Z</time></trkpt><trkpt lon="5.974449" lat="51.12375"><ele>-4.4</ele><time>2022-03-20T09:22:24.000Z</time></trkpt><trkpt lon="5.974347" lat="51.123789"><ele>-4.4</ele><time>2022-03-20T09:22:25.000Z</time></trkpt><trkpt lon="5.974247" lat="51.123827"><ele>-4.4</ele><time>2022-03-20T09:22:26.000Z</time></trkpt><trkpt lon="5.974146" lat="51.123868"><ele>-4.4</ele><time>2022-03-20T09:22:27.000Z</time></trkpt><trkpt lon="5.974045" lat="51.123907"><ele>-4.4</ele><time>2022-03-20T09:22:28.000Z</time></trkpt><trkpt lon="5.973946" lat="51.123947"><ele>-4.4</ele><time>2022-03-20T09:22:29.000Z</time></trkpt><trkpt lon="5.973842" lat="51.12399"><ele>-4.4</ele><time>2022-03-20T09:22:30.000Z</time></trkpt><trkpt lon="5.973739" lat="51.124029"><ele>-4.6</ele><time>2022-03-20T09:22:31.000Z</time></trkpt><trkpt lon="5.973634" lat="51.12407"><ele>-4.6</ele><time>2022-03-20T09:22:32.000Z</time></trkpt><trkpt lon="5.973531" lat="51.124109"><ele>-4.6</ele><time>2022-03-20T09:22:33.000Z</time></trkpt><trkpt lon="5.973426" lat="51.124151"><ele>-4.6</ele><time>2022-03-20T09:22:34.000Z</time></trkpt><trkpt lon="5.973324" lat="51.12419"><ele>-4.6</ele><time>2022-03-20T09:22:35.000Z</time></trkpt><trkpt lon="5.973222" lat="51.124231"><ele>-4.6</ele><time>2022-03-20T09:22:36.000Z</time></trkpt><trkpt lon="5.97312" lat="51.12427"><ele>-4.8</ele><time>2022-03-20T09:22:37.000Z</time></trkpt><trkpt lon="5.973019" lat="51.124311"><ele>-4.8</ele><time>2022-03-20T09:22:38.000Z</time></trkpt><trkpt lon="5.972917" lat="51.124353"><ele>-4.8</ele><time>2022-03-20T09:22:39.000Z</time></trkpt><trkpt lon="5.972816" lat="51.124398"><ele>-5</ele><time>2022-03-20T09:22:40.000Z</time></trkpt><trkpt lon="5.972718" lat="51.124443"><ele>-5.2</ele><time>2022-03-20T09:22:41.000Z</time></trkpt><trkpt lon="5.972618" lat="51.124492"><ele>-5.4</ele><time>2022-03-20T09:22:42.000Z</time></trkpt><trkpt lon="5.972521" lat="51.124541"><ele>-5.4</ele><time>2022-03-20T09:22:43.000Z</time></trkpt><trkpt lon="5.972425" lat="51.124591"><ele>-5.6</ele><time>2022-03-20T09:22:44.000Z</time></trkpt><trkpt lon="5.972331" lat="51.124644"><ele>-5.6</ele><time>2022-03-20T09:22:45.000Z</time></trkpt><trkpt lon="5.97224" lat="51.124697"><ele>-5.6</ele><time>2022-03-20T09:22:46.000Z</time></trkpt><trkpt lon="5.972148" lat="51.124757"><ele>-5.6</ele><time>2022-03-20T09:22:47.000Z</time></trkpt><trkpt lon="5.972059" lat="51.124815"><ele>-5.6</ele><time>2022-03-20T09:22:48.000Z</time></trkpt><trkpt lon="5.971973" lat="51.124877"><ele>-5.6</ele><time>2022-03-20T09:22:49.000Z</time></trkpt><trkpt lon="5.971888" lat="51.124936"><ele>-5.6</ele><time>2022-03-20T09:22:50.000Z</time></trkpt><trkpt lon="5.971804" lat="51.124997"><ele>-5.6</ele><time>2022-03-20T09:22:51.000Z</time></trkpt><trkpt lon="5.971721" lat="51.125055"><ele>-5.6</ele><time>2022-03-20T09:22:52.000Z</time></trkpt><trkpt lon="5.971641" lat="51.125115"><ele>-5.6</ele><time>2022-03-20T09:22:53.000Z</time></trkpt><trkpt lon="5.971564" lat="51.125172"><ele>-5.8</ele><time>2022-03-20T09:22:54.000Z</time></trkpt><trkpt lon="5.971483" lat="51.125231"><ele>-6</ele><time>2022-03-20T09:22:55.000Z</time></trkpt><trkpt lon="5.971404" lat="51.125287"><ele>-6</ele><time>2022-03-20T09:22:56.000Z</time></trkpt><trkpt lon="5.971323" lat="51.125345"><ele>-6</ele><time>2022-03-20T09:22:57.000Z</time></trkpt><trkpt lon="5.971243" lat="51.125402"><ele>-6</ele><time>2022-03-20T09:22:58.000Z</time></trkpt><trkpt lon="5.971164" lat="51.125459"><ele>-6</ele><time>2022-03-20T09:22:59.000Z</time></trkpt><trkpt lon="5.971085" lat="51.125516"><ele>-5.8</ele><time>2022-03-20T09:23:00.000Z</time></trkpt><trkpt lon="5.971006" lat="51.12557"><ele>-5.8</ele><time>2022-03-20T09:23:01.000Z</time></trkpt><trkpt lon="5.970927" lat="51.125627"><ele>-5.8</ele><time>2022-03-20T09:23:02.000Z</time></trkpt><trkpt lon="5.970848" lat="51.125685"><ele>-5.8</ele><time>2022-03-20T09:23:03.000Z</time></trkpt><trkpt lon="5.970771" lat="51.125738"><ele>-5.8</ele><time>2022-03-20T09:23:04.000Z</time></trkpt><trkpt lon="5.970694" lat="51.125794"><ele>-5.8</ele><time>2022-03-20T09:23:05.000Z</time></trkpt><trkpt lon="5.970612" lat="51.125853"><ele>-6</ele><time>2022-03-20T09:23:06.000Z</time></trkpt><trkpt lon="5.970533" lat="51.12591"><ele>-6</ele><time>2022-03-20T09:23:07.000Z</time></trkpt><trkpt lon="5.970453" lat="51.125964"><ele>-6</ele><time>2022-03-20T09:23:08.000Z</time></trkpt><trkpt lon="5.970371" lat="51.12602"><ele>-6</ele><time>2022-03-20T09:23:09.000Z</time></trkpt><trkpt lon="5.970286" lat="51.126074"><ele>-6</ele><time>2022-03-20T09:23:10.000Z</time></trkpt><trkpt lon="5.970199" lat="51.126128"><ele>-6</ele><time>2022-03-20T09:23:11.000Z</time></trkpt><trkpt lon="5.970109" lat="51.126179"><ele>-5.8</ele><time>2022-03-20T09:23:12.000Z</time></trkpt><trkpt lon="5.97002" lat="51.126227"><ele>-5.8</ele><time>2022-03-20T09:23:13.000Z</time></trkpt><trkpt lon="5.969924" lat="51.126271"><ele>-5.6</ele><time>2022-03-20T09:23:14.000Z</time></trkpt><trkpt lon="5.969825" lat="51.126314"><ele>-5.6</ele><time>2022-03-20T09:23:15.000Z</time></trkpt><trkpt lon="5.969726" lat="51.126355"><ele>-5.6</ele><time>2022-03-20T09:23:16.000Z</time></trkpt><trkpt lon="5.969627" lat="51.126395"><ele>-5.6</ele><time>2022-03-20T09:23:17.000Z</time></trkpt><trkpt lon="5.969531" lat="51.126432"><ele>-5.6</ele><time>2022-03-20T09:23:18.000Z</time></trkpt><trkpt lon="5.96943" lat="51.126471"><ele>-5.6</ele><time>2022-03-20T09:23:19.000Z</time></trkpt><trkpt lon="5.969329" lat="51.126512"><ele>-5.6</ele><time>2022-03-20T09:23:20.000Z</time></trkpt><trkpt lon="5.969229" lat="51.126551"><ele>-5.6</ele><time>2022-03-20T09:23:21.000Z</time></trkpt><trkpt lon="5.96914" lat="51.126586"><ele>-5.8</ele><time>2022-03-20T09:23:22.000Z</time></trkpt><trkpt lon="5.969033" lat="51.126629"><ele>-5.8</ele><time>2022-03-20T09:23:23.000Z</time></trkpt><trkpt lon="5.968917" lat="51.126676"><ele>-6</ele><time>2022-03-20T09:23:24.000Z</time></trkpt><trkpt lon="5.968809" lat="51.126718"><ele>-6</ele><time>2022-03-20T09:23:25.000Z</time></trkpt><trkpt lon="5.968704" lat="51.126759"><ele>-6</ele><time>2022-03-20T09:23:26.000Z</time></trkpt><trkpt lon="5.968594" lat="51.126799"><ele>-6.2</ele><time>2022-03-20T09:23:27.000Z</time></trkpt><trkpt lon="5.968484" lat="51.12684"><ele>-6.4</ele><time>2022-03-20T09:23:28.000Z</time></trkpt><trkpt lon="5.968378" lat="51.126884"><ele>-6.4</ele><time>2022-03-20T09:23:29.000Z</time></trkpt><trkpt lon="5.968269" lat="51.12693"><ele>-6.6</ele><time>2022-03-20T09:23:30.000Z</time></trkpt><trkpt lon="5.96816" lat="51.126971"><ele>-6.6</ele><time>2022-03-20T09:23:31.000Z</time></trkpt><trkpt lon="5.968055" lat="51.127014"><ele>-6.6</ele><time>2022-03-20T09:23:32.000Z</time></trkpt><trkpt lon="5.96795" lat="51.127057"><ele>-6.4</ele><time>2022-03-20T09:23:33.000Z</time></trkpt><trkpt lon="5.96784" lat="51.127102"><ele>-6.4</ele><time>2022-03-20T09:23:34.000Z</time></trkpt><trkpt lon="5.967728" lat="51.127145"><ele>-6.4</ele><time>2022-03-20T09:23:35.000Z</time></trkpt><trkpt lon="5.967614" lat="51.127188"><ele>-6.4</ele><time>2022-03-20T09:23:36.000Z</time></trkpt><trkpt lon="5.9675" lat="51.12723"><ele>-6.6</ele><time>2022-03-20T09:23:37.000Z</time></trkpt><trkpt lon="5.967386" lat="51.127274"><ele>-6.6</ele><time>2022-03-20T09:23:38.000Z</time></trkpt><trkpt lon="5.967274" lat="51.127316"><ele>-6.6</ele><time>2022-03-20T09:23:39.000Z</time></trkpt><trkpt lon="5.967163" lat="51.127361"><ele>-6.6</ele><time>2022-03-20T09:23:40.000Z</time></trkpt><trkpt lon="5.967048" lat="51.127407"><ele>-6.6</ele><time>2022-03-20T09:23:41.000Z</time></trkpt><trkpt lon="5.966938" lat="51.127453"><ele>-6.6</ele><time>2022-03-20T09:23:42.000Z</time></trkpt><trkpt lon="5.966827" lat="51.127496"><ele>-6.4</ele><time>2022-03-20T09:23:43.000Z</time></trkpt><trkpt lon="5.966714" lat="51.127538"><ele>-6.4</ele><time>2022-03-20T09:23:44.000Z</time></trkpt><trkpt lon="5.966603" lat="51.127583"><ele>-6.4</ele><time>2022-03-20T09:23:45.000Z</time></trkpt><trkpt lon="5.966497" lat="51.127623"><ele>-6.4</ele><time>2022-03-20T09:23:46.000Z</time></trkpt><trkpt lon="5.966392" lat="51.127664"><ele>-6.4</ele><time>2022-03-20T09:23:47.000Z</time></trkpt><trkpt lon="5.966287" lat="51.127705"><ele>-6.6</ele><time>2022-03-20T09:23:48.000Z</time></trkpt><trkpt lon="5.966183" lat="51.127744"><ele>-6.6</ele><time>2022-03-20T09:23:49.000Z</time></trkpt><trkpt lon="5.966075" lat="51.127786"><ele>-6.6</ele><time>2022-03-20T09:23:50.000Z</time></trkpt><trkpt lon="5.965969" lat="51.127827"><ele>-6.6</ele><time>2022-03-20T09:23:51.000Z</time></trkpt><trkpt lon="5.965862" lat="51.127869"><ele>-6.6</ele><time>2022-03-20T09:23:52.000Z</time></trkpt><trkpt lon="5.965759" lat="51.127908"><ele>-6.6</ele><time>2022-03-20T09:23:53.000Z</time></trkpt><trkpt lon="5.965656" lat="51.12795"><ele>-6.6</ele><time>2022-03-20T09:23:54.000Z</time></trkpt><trkpt lon="5.965551" lat="51.127989"><ele>-6.4</ele><time>2022-03-20T09:23:55.000Z</time></trkpt><trkpt lon="5.965447" lat="51.128027"><ele>-6.4</ele><time>2022-03-20T09:23:56.000Z</time></trkpt><trkpt lon="5.965342" lat="51.128065"><ele>-6.4</ele><time>2022-03-20T09:23:57.000Z</time></trkpt><trkpt lon="5.965236" lat="51.128103"><ele>-6.4</ele><time>2022-03-20T09:23:58.000Z</time></trkpt><trkpt lon="5.965126" lat="51.128142"><ele>-6.4</ele><time>2022-03-20T09:23:59.000Z</time></trkpt><trkpt lon="5.965016" lat="51.128177"><ele>-6.4</ele><time>2022-03-20T09:24:00.000Z</time></trkpt><trkpt lon="5.964907" lat="51.128211"><ele>-6.2</ele><time>2022-03-20T09:24:01.000Z</time></trkpt><trkpt lon="5.964799" lat="51.128245"><ele>-6.4</ele><time>2022-03-20T09:24:02.000Z</time></trkpt><trkpt lon="5.96469" lat="51.128283"><ele>-6.4</ele><time>2022-03-20T09:24:03.000Z</time></trkpt><trkpt lon="5.964582" lat="51.128318"><ele>-6.4</ele><time>2022-03-20T09:24:04.000Z</time></trkpt><trkpt lon="5.96447" lat="51.128355"><ele>-6.4</ele><time>2022-03-20T09:24:05.000Z</time></trkpt><trkpt lon="5.964357" lat="51.128391"><ele>-6.4</ele><time>2022-03-20T09:24:06.000Z</time></trkpt><trkpt lon="5.964245" lat="51.128428"><ele>-6.4</ele><time>2022-03-20T09:24:07.000Z</time></trkpt><trkpt lon="5.964139" lat="51.128463"><ele>-6.6</ele><time>2022-03-20T09:24:08.000Z</time></trkpt><trkpt lon="5.964028" lat="51.128497"><ele>-6.6</ele><time>2022-03-20T09:24:09.000Z</time></trkpt><trkpt lon="5.963919" lat="51.128531"><ele>-6.6</ele><time>2022-03-20T09:24:10.000Z</time></trkpt><trkpt lon="5.963807" lat="51.128565"><ele>-6.6</ele><time>2022-03-20T09:24:11.000Z</time></trkpt><trkpt lon="5.963695" lat="51.1286"><ele>-6.6</ele><time>2022-03-20T09:24:12.000Z</time></trkpt><trkpt lon="5.963588" lat="51.128631"><ele>-6.6</ele><time>2022-03-20T09:24:13.000Z</time></trkpt><trkpt lon="5.963474" lat="51.128656"><ele>-6.6</ele><time>2022-03-20T09:24:14.000Z</time></trkpt><trkpt lon="5.963357" lat="51.128679"><ele>-6.6</ele><time>2022-03-20T09:24:15.000Z</time></trkpt><trkpt lon="5.963238" lat="51.128699"><ele>-6.6</ele><time>2022-03-20T09:24:16.000Z</time></trkpt><trkpt lon="5.963115" lat="51.128715"><ele>-6.6</ele><time>2022-03-20T09:24:17.000Z</time></trkpt><trkpt lon="5.962987" lat="51.128728"><ele>-6.6</ele><time>2022-03-20T09:24:18.000Z</time></trkpt><trkpt lon="5.962862" lat="51.128742"><ele>-6.6</ele><time>2022-03-20T09:24:19.000Z</time></trkpt><trkpt lon="5.96274" lat="51.128757"><ele>-6.6</ele><time>2022-03-20T09:24:20.000Z</time></trkpt><trkpt lon="5.962619" lat="51.12877"><ele>-6.6</ele><time>2022-03-20T09:24:21.000Z</time></trkpt><trkpt lon="5.962495" lat="51.128781"><ele>-6.6</ele><time>2022-03-20T09:24:22.000Z</time></trkpt><trkpt lon="5.962371" lat="51.128796"><ele>-6.6</ele><time>2022-03-20T09:24:23.000Z</time></trkpt><trkpt lon="5.962248" lat="51.128808"><ele>-6.6</ele><time>2022-03-20T09:24:24.000Z</time></trkpt><trkpt lon="5.962126" lat="51.128819"><ele>-6.6</ele><time>2022-03-20T09:24:25.000Z</time></trkpt><trkpt lon="5.962004" lat="51.128831"><ele>-6.6</ele><time>2022-03-20T09:24:26.000Z</time></trkpt><trkpt lon="5.961877" lat="51.128845"><ele>-6.6</ele><time>2022-03-20T09:24:27.000Z</time></trkpt><trkpt lon="5.961751" lat="51.128858"><ele>-6.6</ele><time>2022-03-20T09:24:28.000Z</time></trkpt><trkpt lon="5.961628" lat="51.128872"><ele>-6.6</ele><time>2022-03-20T09:24:29.000Z</time></trkpt><trkpt lon="5.961508" lat="51.128884"><ele>-6.6</ele><time>2022-03-20T09:24:30.000Z</time></trkpt><trkpt lon="5.961389" lat="51.128899"><ele>-6.6</ele><time>2022-03-20T09:24:31.000Z</time></trkpt><trkpt lon="5.961275" lat="51.128911"><ele>-6.6</ele><time>2022-03-20T09:24:32.000Z</time></trkpt><trkpt lon="5.961154" lat="51.128922"><ele>-6.8</ele><time>2022-03-20T09:24:33.000Z</time></trkpt><trkpt lon="5.961034" lat="51.128934"><ele>-6.8</ele><time>2022-03-20T09:24:34.000Z</time></trkpt><trkpt lon="5.960911" lat="51.128945"><ele>-6.8</ele><time>2022-03-20T09:24:35.000Z</time></trkpt><trkpt lon="5.96079" lat="51.128957"><ele>-6.8</ele><time>2022-03-20T09:24:36.000Z</time></trkpt><trkpt lon="5.960672" lat="51.128965"><ele>-6.8</ele><time>2022-03-20T09:24:37.000Z</time></trkpt><trkpt lon="5.960557" lat="51.128973"><ele>-6.8</ele><time>2022-03-20T09:24:38.000Z</time></trkpt><trkpt lon="5.960445" lat="51.128986"><ele>-6.8</ele><time>2022-03-20T09:24:39.000Z</time></trkpt><trkpt lon="5.960335" lat="51.128996"><ele>-6.8</ele><time>2022-03-20T09:24:40.000Z</time></trkpt><trkpt lon="5.960225" lat="51.129006"><ele>-6.8</ele><time>2022-03-20T09:24:41.000Z</time></trkpt><trkpt lon="5.960115" lat="51.129018"><ele>-6.8</ele><time>2022-03-20T09:24:42.000Z</time></trkpt><trkpt lon="5.960011" lat="51.129029"><ele>-6.8</ele><time>2022-03-20T09:24:43.000Z</time></trkpt><trkpt lon="5.959912" lat="51.129041"><ele>-6.8</ele><time>2022-03-20T09:24:44.000Z</time></trkpt><trkpt lon="5.959812" lat="51.129052"><ele>-6.8</ele><time>2022-03-20T09:24:45.000Z</time></trkpt><trkpt lon="5.959714" lat="51.129063"><ele>-6.8</ele><time>2022-03-20T09:24:46.000Z</time></trkpt><trkpt lon="5.959615" lat="51.129075"><ele>-6.8</ele><time>2022-03-20T09:24:47.000Z</time></trkpt><trkpt lon="5.959515" lat="51.129081"><ele>-6.6</ele><time>2022-03-20T09:24:48.000Z</time></trkpt><trkpt lon="5.959419" lat="51.129085"><ele>-6.8</ele><time>2022-03-20T09:24:49.000Z</time></trkpt><trkpt lon="5.959326" lat="51.129094"><ele>-6.6</ele><time>2022-03-20T09:24:50.000Z</time></trkpt><trkpt lon="5.959243" lat="51.129114"><ele>-6.6</ele><time>2022-03-20T09:24:51.000Z</time></trkpt><trkpt lon="5.959178" lat="51.129149"><ele>-6.8</ele><time>2022-03-20T09:24:52.000Z</time></trkpt><trkpt lon="5.959139" lat="51.129194"><ele>-6.8</ele><time>2022-03-20T09:24:53.000Z</time></trkpt><trkpt lon="5.959122" lat="51.129253"><ele>-7</ele><time>2022-03-20T09:24:54.000Z</time></trkpt><trkpt lon="5.959112" lat="51.129319"><ele>-7</ele><time>2022-03-20T09:24:55.000Z</time></trkpt><trkpt lon="5.959102" lat="51.129391"><ele>-7.2</ele><time>2022-03-20T09:24:56.000Z</time></trkpt><trkpt lon="5.959089" lat="51.129468"><ele>-7</ele><time>2022-03-20T09:24:57.000Z</time></trkpt><trkpt lon="5.959075" lat="51.129544"><ele>-6.8</ele><time>2022-03-20T09:24:58.000Z</time></trkpt><trkpt lon="5.959063" lat="51.129619"><ele>-6.6</ele><time>2022-03-20T09:24:59.000Z</time></trkpt><trkpt lon="5.959049" lat="51.129693"><ele>-6.6</ele><time>2022-03-20T09:25:00.000Z</time></trkpt><trkpt lon="5.959034" lat="51.129766"><ele>-6.4</ele><time>2022-03-20T09:25:01.000Z</time></trkpt><trkpt lon="5.959018" lat="51.129834"><ele>-6.2</ele><time>2022-03-20T09:25:02.000Z</time></trkpt><trkpt lon="5.959002" lat="51.129897"><ele>-6</ele><time>2022-03-20T09:25:03.000Z</time></trkpt><trkpt lon="5.958991" lat="51.129959"><ele>-5.8</ele><time>2022-03-20T09:25:04.000Z</time></trkpt><trkpt lon="5.958982" lat="51.130023"><ele>-5.6</ele><time>2022-03-20T09:25:05.000Z</time></trkpt><trkpt lon="5.958975" lat="51.130088"><ele>-5.4</ele><time>2022-03-20T09:25:06.000Z</time></trkpt><trkpt lon="5.958968" lat="51.130153"><ele>-5</ele><time>2022-03-20T09:25:07.000Z</time></trkpt><trkpt lon="5.958955" lat="51.130223"><ele>-4.8</ele><time>2022-03-20T09:25:08.000Z</time></trkpt><trkpt lon="5.95894" lat="51.130292"><ele>-4.6</ele><time>2022-03-20T09:25:09.000Z</time></trkpt><trkpt lon="5.958932" lat="51.130363"><ele>-4.4</ele><time>2022-03-20T09:25:10.000Z</time></trkpt><trkpt lon="5.958926" lat="51.13043"><ele>-4.2</ele><time>2022-03-20T09:25:11.000Z</time></trkpt><trkpt lon="5.958916" lat="51.130497"><ele>-4.2</ele><time>2022-03-20T09:25:12.000Z</time></trkpt><trkpt lon="5.958902" lat="51.130564"><ele>-4</ele><time>2022-03-20T09:25:13.000Z</time></trkpt><trkpt lon="5.958889" lat="51.130629"><ele>-4</ele><time>2022-03-20T09:25:14.000Z</time></trkpt><trkpt lon="5.958878" lat="51.130694"><ele>-3.8</ele><time>2022-03-20T09:25:15.000Z</time></trkpt><trkpt lon="5.958868" lat="51.130761"><ele>-4</ele><time>2022-03-20T09:25:16.000Z</time></trkpt><trkpt lon="5.958855" lat="51.130835"><ele>-4</ele><time>2022-03-20T09:25:17.000Z</time></trkpt><trkpt lon="5.958842" lat="51.130908"><ele>-4.2</ele><time>2022-03-20T09:25:18.000Z</time></trkpt><trkpt lon="5.958835" lat="51.130978"><ele>-4.4</ele><time>2022-03-20T09:25:19.000Z</time></trkpt><trkpt lon="5.958828" lat="51.131044"><ele>-4.6</ele><time>2022-03-20T09:25:20.000Z</time></trkpt><trkpt lon="5.958819" lat="51.131112"><ele>-4.6</ele><time>2022-03-20T09:25:21.000Z</time></trkpt><trkpt lon="5.958811" lat="51.131181"><ele>-4.8</ele><time>2022-03-20T09:25:22.000Z</time></trkpt><trkpt lon="5.958799" lat="51.131246"><ele>-4.8</ele><time>2022-03-20T09:25:23.000Z</time></trkpt><trkpt lon="5.958784" lat="51.131314"><ele>-4.6</ele><time>2022-03-20T09:25:24.000Z</time></trkpt><trkpt lon="5.958774" lat="51.131384"><ele>-4.6</ele><time>2022-03-20T09:25:25.000Z</time></trkpt><trkpt lon="5.958765" lat="51.131454"><ele>-4.4</ele><time>2022-03-20T09:25:26.000Z</time></trkpt><trkpt lon="5.958752" lat="51.131521"><ele>-4.4</ele><time>2022-03-20T09:25:27.000Z</time></trkpt><trkpt lon="5.958738" lat="51.131577"><ele>-4.2</ele><time>2022-03-20T09:25:28.000Z</time></trkpt><trkpt lon="5.958726" lat="51.131631"><ele>-4.2</ele><time>2022-03-20T09:25:29.000Z</time></trkpt><trkpt lon="5.958714" lat="51.13169"><ele>-4</ele><time>2022-03-20T09:25:30.000Z</time></trkpt><trkpt lon="5.9587" lat="51.131751"><ele>-3.8</ele><time>2022-03-20T09:25:31.000Z</time></trkpt><trkpt lon="5.958685" lat="51.131811"><ele>-3.8</ele><time>2022-03-20T09:25:32.000Z</time></trkpt><trkpt lon="5.958662" lat="51.13187"><ele>-3.8</ele><time>2022-03-20T09:25:33.000Z</time></trkpt><trkpt lon="5.958631" lat="51.13193"><ele>-3.6</ele><time>2022-03-20T09:25:34.000Z</time></trkpt><trkpt lon="5.958592" lat="51.131991"><ele>-3.6</ele><time>2022-03-20T09:25:35.000Z</time></trkpt><trkpt lon="5.95855" lat="51.132057"><ele>-3.6</ele><time>2022-03-20T09:25:36.000Z</time></trkpt><trkpt lon="5.958505" lat="51.132129"><ele>-3.6</ele><time>2022-03-20T09:25:37.000Z</time></trkpt><trkpt lon="5.958457" lat="51.132198"><ele>-3.8</ele><time>2022-03-20T09:25:38.000Z</time></trkpt><trkpt lon="5.958405" lat="51.13227"><ele>-3.8</ele><time>2022-03-20T09:25:39.000Z</time></trkpt><trkpt lon="5.958349" lat="51.132346"><ele>-4</ele><time>2022-03-20T09:25:40.000Z</time></trkpt><trkpt lon="5.958291" lat="51.13242"><ele>-4</ele><time>2022-03-20T09:25:41.000Z</time></trkpt><trkpt lon="5.958232" lat="51.132495"><ele>-4.2</ele><time>2022-03-20T09:25:42.000Z</time></trkpt><trkpt lon="5.958173" lat="51.132565"><ele>-4.4</ele><time>2022-03-20T09:25:43.000Z</time></trkpt><trkpt lon="5.958118" lat="51.132631"><ele>-4.4</ele><time>2022-03-20T09:25:44.000Z</time></trkpt><trkpt lon="5.958065" lat="51.132696"><ele>-4.4</ele><time>2022-03-20T09:25:45.000Z</time></trkpt><trkpt lon="5.958015" lat="51.132758"><ele>-4.6</ele><time>2022-03-20T09:25:46.000Z</time></trkpt><trkpt lon="5.957968" lat="51.132816"><ele>-4.8</ele><time>2022-03-20T09:25:47.000Z</time></trkpt><trkpt lon="5.957922" lat="51.132871"><ele>-5</ele><time>2022-03-20T09:25:48.000Z</time></trkpt><trkpt lon="5.957876" lat="51.132924"><ele>-5</ele><time>2022-03-20T09:25:49.000Z</time></trkpt><trkpt lon="5.95783" lat="51.132978"><ele>-5.2</ele><time>2022-03-20T09:25:50.000Z</time></trkpt><trkpt lon="5.957788" lat="51.133028"><ele>-5.2</ele><time>2022-03-20T09:25:51.000Z</time></trkpt><trkpt lon="5.957747" lat="51.133075"><ele>-5</ele><time>2022-03-20T09:25:52.000Z</time></trkpt><trkpt lon="5.957709" lat="51.13312"><ele>-5</ele><time>2022-03-20T09:25:53.000Z</time></trkpt><trkpt lon="5.957671" lat="51.133166"><ele>-5</ele><time>2022-03-20T09:25:54.000Z</time></trkpt><trkpt lon="5.957632" lat="51.133214"><ele>-5.2</ele><time>2022-03-20T09:25:55.000Z</time></trkpt><trkpt lon="5.957588" lat="51.133264"><ele>-5.2</ele><time>2022-03-20T09:25:56.000Z</time></trkpt><trkpt lon="5.957541" lat="51.133314"><ele>-5.2</ele><time>2022-03-20T09:25:57.000Z</time></trkpt><trkpt lon="5.957493" lat="51.133366"><ele>-5</ele><time>2022-03-20T09:25:58.000Z</time></trkpt><trkpt lon="5.957443" lat="51.133422"><ele>-5</ele><time>2022-03-20T09:25:59.000Z</time></trkpt><trkpt lon="5.957389" lat="51.133486"><ele>-5</ele><time>2022-03-20T09:26:00.000Z</time></trkpt><trkpt lon="5.957337" lat="51.133547"><ele>-5</ele><time>2022-03-20T09:26:01.000Z</time></trkpt><trkpt lon="5.957282" lat="51.133611"><ele>-4.8</ele><time>2022-03-20T09:26:02.000Z</time></trkpt><trkpt lon="5.957227" lat="51.133673"><ele>-4.6</ele><time>2022-03-20T09:26:03.000Z</time></trkpt><trkpt lon="5.957169" lat="51.133731"><ele>-4.6</ele><time>2022-03-20T09:26:04.000Z</time></trkpt><trkpt lon="5.957106" lat="51.13379"><ele>-4.4</ele><time>2022-03-20T09:26:05.000Z</time></trkpt><trkpt lon="5.95704" lat="51.133841"><ele>-4.4</ele><time>2022-03-20T09:26:06.000Z</time></trkpt><trkpt lon="5.95697" lat="51.133894"><ele>-4.2</ele><time>2022-03-20T09:26:07.000Z</time></trkpt><trkpt lon="5.956897" lat="51.133941"><ele>-4.2</ele><time>2022-03-20T09:26:08.000Z</time></trkpt><trkpt lon="5.956818" lat="51.133984"><ele>-4</ele><time>2022-03-20T09:26:09.000Z</time></trkpt><trkpt lon="5.956733" lat="51.134022"><ele>-4</ele><time>2022-03-20T09:26:10.000Z</time></trkpt><trkpt lon="5.956643" lat="51.134052"><ele>-4</ele><time>2022-03-20T09:26:11.000Z</time></trkpt><trkpt lon="5.95655" lat="51.134085"><ele>-4</ele><time>2022-03-20T09:26:12.000Z</time></trkpt><trkpt lon="5.956458" lat="51.134119"><ele>-3.8</ele><time>2022-03-20T09:26:13.000Z</time></trkpt><trkpt lon="5.956366" lat="51.134151"><ele>-3.8</ele><time>2022-03-20T09:26:14.000Z</time></trkpt><trkpt lon="5.956274" lat="51.134184"><ele>-3.6</ele><time>2022-03-20T09:26:15.000Z</time></trkpt><trkpt lon="5.956181" lat="51.134218"><ele>-3.6</ele><time>2022-03-20T09:26:16.000Z</time></trkpt><trkpt lon="5.956087" lat="51.13425"><ele>-3.6</ele><time>2022-03-20T09:26:17.000Z</time></trkpt><trkpt lon="5.955999" lat="51.13428"><ele>-3.8</ele><time>2022-03-20T09:26:18.000Z</time></trkpt><trkpt lon="5.955896" lat="51.134314"><ele>-3.8</ele><time>2022-03-20T09:26:19.000Z</time></trkpt><trkpt lon="5.955795" lat="51.134349"><ele>-3.8</ele><time>2022-03-20T09:26:20.000Z</time></trkpt><trkpt lon="5.955702" lat="51.134382"><ele>-3.8</ele><time>2022-03-20T09:26:21.000Z</time></trkpt><trkpt lon="5.95561" lat="51.134413"><ele>-4</ele><time>2022-03-20T09:26:22.000Z</time></trkpt><trkpt lon="5.955515" lat="51.134447"><ele>-4</ele><time>2022-03-20T09:26:23.000Z</time></trkpt><trkpt lon="5.955421" lat="51.134481"><ele>-4</ele><time>2022-03-20T09:26:24.000Z</time></trkpt><trkpt lon="5.955329" lat="51.134512"><ele>-4</ele><time>2022-03-20T09:26:25.000Z</time></trkpt><trkpt lon="5.955235" lat="51.134545"><ele>-4.2</ele><time>2022-03-20T09:26:26.000Z</time></trkpt><trkpt lon="5.955133" lat="51.13458"><ele>-4.2</ele><time>2022-03-20T09:26:27.000Z</time></trkpt><trkpt lon="5.955032" lat="51.134618"><ele>-4.2</ele><time>2022-03-20T09:26:28.000Z</time></trkpt><trkpt lon="5.954932" lat="51.134653"><ele>-4.4</ele><time>2022-03-20T09:26:29.000Z</time></trkpt><trkpt lon="5.95483" lat="51.134687"><ele>-4.4</ele><time>2022-03-20T09:26:30.000Z</time></trkpt><trkpt lon="5.954726" lat="51.134722"><ele>-4.6</ele><time>2022-03-20T09:26:31.000Z</time></trkpt><trkpt lon="5.954622" lat="51.134759"><ele>-4.6</ele><time>2022-03-20T09:26:32.000Z</time></trkpt><trkpt lon="5.954516" lat="51.134797"><ele>-4.6</ele><time>2022-03-20T09:26:33.000Z</time></trkpt><trkpt lon="5.954413" lat="51.134832"><ele>-4.8</ele><time>2022-03-20T09:26:34.000Z</time></trkpt><trkpt lon="5.95431" lat="51.13487"><ele>-4.8</ele><time>2022-03-20T09:26:35.000Z</time></trkpt><trkpt lon="5.95421" lat="51.134906"><ele>-5</ele><time>2022-03-20T09:26:36.000Z</time></trkpt><trkpt lon="5.954112" lat="51.13494"><ele>-5</ele><time>2022-03-20T09:26:37.000Z</time></trkpt><trkpt lon="5.954017" lat="51.134971"><ele>-4.8</ele><time>2022-03-20T09:26:38.000Z</time></trkpt><trkpt lon="5.95392" lat="51.135004"><ele>-4.8</ele><time>2022-03-20T09:26:39.000Z</time></trkpt><trkpt lon="5.953824" lat="51.135038"><ele>-4.8</ele><time>2022-03-20T09:26:40.000Z</time></trkpt><trkpt lon="5.953724" lat="51.135071"><ele>-5</ele><time>2022-03-20T09:26:41.000Z</time></trkpt><trkpt lon="5.953628" lat="51.135105"><ele>-5</ele><time>2022-03-20T09:26:42.000Z</time></trkpt><trkpt lon="5.953537" lat="51.135135"><ele>-5</ele><time>2022-03-20T09:26:43.000Z</time></trkpt><trkpt lon="5.953441" lat="51.135171"><ele>-5</ele><time>2022-03-20T09:26:44.000Z</time></trkpt><trkpt lon="5.953343" lat="51.135206"><ele>-5</ele><time>2022-03-20T09:26:45.000Z</time></trkpt><trkpt lon="5.953244" lat="51.13524"><ele>-5</ele><time>2022-03-20T09:26:46.000Z</time></trkpt><trkpt lon="5.953141" lat="51.135276"><ele>-5</ele><time>2022-03-20T09:26:47.000Z</time></trkpt><trkpt lon="5.953043" lat="51.135308"><ele>-5</ele><time>2022-03-20T09:26:48.000Z</time></trkpt><trkpt lon="5.952946" lat="51.135341"><ele>-5</ele><time>2022-03-20T09:26:49.000Z</time></trkpt><trkpt lon="5.952851" lat="51.135372"><ele>-5</ele><time>2022-03-20T09:26:50.000Z</time></trkpt><trkpt lon="5.952756" lat="51.135409"><ele>-5</ele><time>2022-03-20T09:26:51.000Z</time></trkpt><trkpt lon="5.952669" lat="51.135445"><ele>-5</ele><time>2022-03-20T09:26:52.000Z</time></trkpt><trkpt lon="5.952582" lat="51.135488"><ele>-5</ele><time>2022-03-20T09:26:53.000Z</time></trkpt><trkpt lon="5.952499" lat="51.135533"><ele>-5</ele><time>2022-03-20T09:26:54.000Z</time></trkpt><trkpt lon="5.952413" lat="51.135579"><ele>-5</ele><time>2022-03-20T09:26:55.000Z</time></trkpt><trkpt lon="5.95232" lat="51.135619"><ele>-5</ele><time>2022-03-20T09:26:56.000Z</time></trkpt><trkpt lon="5.95222" lat="51.135654"><ele>-5</ele><time>2022-03-20T09:26:57.000Z</time></trkpt><trkpt lon="5.952117" lat="51.135691"><ele>-5</ele><time>2022-03-20T09:26:58.000Z</time></trkpt><trkpt lon="5.952015" lat="51.135726"><ele>-4.8</ele><time>2022-03-20T09:26:59.000Z</time></trkpt><trkpt lon="5.951918" lat="51.135759"><ele>-4.8</ele><time>2022-03-20T09:27:00.000Z</time></trkpt><trkpt lon="5.951811" lat="51.135797"><ele>-4.8</ele><time>2022-03-20T09:27:01.000Z</time></trkpt><trkpt lon="5.951706" lat="51.135833"><ele>-4.8</ele><time>2022-03-20T09:27:02.000Z</time></trkpt><trkpt lon="5.951604" lat="51.135871"><ele>-4.8</ele><time>2022-03-20T09:27:03.000Z</time></trkpt><trkpt lon="5.951502" lat="51.135906"><ele>-4.8</ele><time>2022-03-20T09:27:04.000Z</time></trkpt><trkpt lon="5.951405" lat="51.135939"><ele>-4.8</ele><time>2022-03-20T09:27:05.000Z</time></trkpt><trkpt lon="5.9513" lat="51.135974"><ele>-4.8</ele><time>2022-03-20T09:27:06.000Z</time></trkpt><trkpt lon="5.951196" lat="51.136009"><ele>-4.8</ele><time>2022-03-20T09:27:07.000Z</time></trkpt><trkpt lon="5.951094" lat="51.136047"><ele>-4.8</ele><time>2022-03-20T09:27:08.000Z</time></trkpt><trkpt lon="5.950993" lat="51.136082"><ele>-4.8</ele><time>2022-03-20T09:27:09.000Z</time></trkpt><trkpt lon="5.950893" lat="51.136113"><ele>-4.8</ele><time>2022-03-20T09:27:10.000Z</time></trkpt><trkpt lon="5.950791" lat="51.136149"><ele>-4.8</ele><time>2022-03-20T09:27:11.000Z</time></trkpt><trkpt lon="5.95069" lat="51.136184"><ele>-4.8</ele><time>2022-03-20T09:27:12.000Z</time></trkpt><trkpt lon="5.950587" lat="51.136219"><ele>-4.6</ele><time>2022-03-20T09:27:13.000Z</time></trkpt><trkpt lon="5.950486" lat="51.136253"><ele>-4.6</ele><time>2022-03-20T09:27:14.000Z</time></trkpt><trkpt lon="5.950385" lat="51.136287"><ele>-4.8</ele><time>2022-03-20T09:27:15.000Z</time></trkpt><trkpt lon="5.950281" lat="51.136324"><ele>-4.8</ele><time>2022-03-20T09:27:16.000Z</time></trkpt><trkpt lon="5.95018" lat="51.136359"><ele>-4.8</ele><time>2022-03-20T09:27:17.000Z</time></trkpt><trkpt lon="5.950085" lat="51.136389"><ele>-4.8</ele><time>2022-03-20T09:27:18.000Z</time></trkpt><trkpt lon="5.94998" lat="51.136426"><ele>-5</ele><time>2022-03-20T09:27:19.000Z</time></trkpt><trkpt lon="5.949875" lat="51.136462"><ele>-5</ele><time>2022-03-20T09:27:20.000Z</time></trkpt><trkpt lon="5.949772" lat="51.136497"><ele>-5.2</ele><time>2022-03-20T09:27:21.000Z</time></trkpt><trkpt lon="5.949673" lat="51.136531"><ele>-5</ele><time>2022-03-20T09:27:22.000Z</time></trkpt><trkpt lon="5.949574" lat="51.136565"><ele>-5</ele><time>2022-03-20T09:27:23.000Z</time></trkpt><trkpt lon="5.949475" lat="51.1366"><ele>-5</ele><time>2022-03-20T09:27:24.000Z</time></trkpt><trkpt lon="5.949376" lat="51.136634"><ele>-5</ele><time>2022-03-20T09:27:25.000Z</time></trkpt><trkpt lon="5.949279" lat="51.136669"><ele>-4.8</ele><time>2022-03-20T09:27:26.000Z</time></trkpt><trkpt lon="5.949185" lat="51.136699"><ele>-4.8</ele><time>2022-03-20T09:27:27.000Z</time></trkpt><trkpt lon="5.949088" lat="51.13673"><ele>-4.8</ele><time>2022-03-20T09:27:28.000Z</time></trkpt><trkpt lon="5.948994" lat="51.136764"><ele>-4.8</ele><time>2022-03-20T09:27:29.000Z</time></trkpt><trkpt lon="5.948902" lat="51.136798"><ele>-4.8</ele><time>2022-03-20T09:27:30.000Z</time></trkpt><trkpt lon="5.948814" lat="51.136824"><ele>-4.8</ele><time>2022-03-20T09:27:31.000Z</time></trkpt><trkpt lon="5.948732" lat="51.13685"><ele>-4.6</ele><time>2022-03-20T09:27:32.000Z</time></trkpt><trkpt lon="5.94866" lat="51.136871"><ele>-4.6</ele><time>2022-03-20T09:27:33.000Z</time></trkpt><trkpt lon="5.948599" lat="51.136895"><ele>-4.4</ele><time>2022-03-20T09:27:34.000Z</time></trkpt><trkpt lon="5.948551" lat="51.136925"><ele>-4.4</ele><time>2022-03-20T09:27:35.000Z</time></trkpt><trkpt lon="5.948534" lat="51.13697"><ele>-4.4</ele><time>2022-03-20T09:27:36.000Z</time></trkpt><trkpt lon="5.948547" lat="51.137029"><ele>-4.6</ele><time>2022-03-20T09:27:37.000Z</time></trkpt><trkpt lon="5.948578" lat="51.137093"><ele>-4.6</ele><time>2022-03-20T09:27:38.000Z</time></trkpt><trkpt lon="5.948617" lat="51.137158"><ele>-4.6</ele><time>2022-03-20T09:27:39.000Z</time></trkpt><trkpt lon="5.948656" lat="51.137225"><ele>-4.6</ele><time>2022-03-20T09:27:40.000Z</time></trkpt><trkpt lon="5.948696" lat="51.137294"><ele>-4.6</ele><time>2022-03-20T09:27:41.000Z</time></trkpt><trkpt lon="5.948733" lat="51.137362"><ele>-4.6</ele><time>2022-03-20T09:27:42.000Z</time></trkpt><trkpt lon="5.948766" lat="51.137434"><ele>-4.8</ele><time>2022-03-20T09:27:43.000Z</time></trkpt><trkpt lon="5.948797" lat="51.137504"><ele>-4.8</ele><time>2022-03-20T09:27:44.000Z</time></trkpt><trkpt lon="5.948828" lat="51.137575"><ele>-4.8</ele><time>2022-03-20T09:27:45.000Z</time></trkpt><trkpt lon="5.948855" lat="51.137645"><ele>-4.8</ele><time>2022-03-20T09:27:46.000Z</time></trkpt><trkpt lon="5.948881" lat="51.137712"><ele>-4.8</ele><time>2022-03-20T09:27:47.000Z</time></trkpt><trkpt lon="5.94891" lat="51.137779"><ele>-5</ele><time>2022-03-20T09:27:48.000Z</time></trkpt><trkpt lon="5.948937" lat="51.137847"><ele>-5</ele><time>2022-03-20T09:27:49.000Z</time></trkpt><trkpt lon="5.948965" lat="51.137916"><ele>-5</ele><time>2022-03-20T09:27:50.000Z</time></trkpt><trkpt lon="5.948993" lat="51.137982"><ele>-5.2</ele><time>2022-03-20T09:27:51.000Z</time></trkpt><trkpt lon="5.949023" lat="51.138046"><ele>-5.4</ele><time>2022-03-20T09:27:52.000Z</time></trkpt><trkpt lon="5.949053" lat="51.138114"><ele>-5.4</ele><time>2022-03-20T09:27:53.000Z</time></trkpt><trkpt lon="5.949082" lat="51.138183"><ele>-5.4</ele><time>2022-03-20T09:27:54.000Z</time></trkpt><trkpt lon="5.949111" lat="51.138249"><ele>-5.4</ele><time>2022-03-20T09:27:55.000Z</time></trkpt><trkpt lon="5.949141" lat="51.138316"><ele>-5.4</ele><time>2022-03-20T09:27:56.000Z</time></trkpt><trkpt lon="5.94917" lat="51.138384"><ele>-5.6</ele><time>2022-03-20T09:27:57.000Z</time></trkpt><trkpt lon="5.9492" lat="51.138453"><ele>-5.8</ele><time>2022-03-20T09:27:58.000Z</time></trkpt><trkpt lon="5.949228" lat="51.138522"><ele>-6</ele><time>2022-03-20T09:27:59.000Z</time></trkpt><trkpt lon="5.949256" lat="51.138588"><ele>-6</ele><time>2022-03-20T09:28:00.000Z</time></trkpt><trkpt lon="5.949283" lat="51.138655"><ele>-6.2</ele><time>2022-03-20T09:28:01.000Z</time></trkpt><trkpt lon="5.949312" lat="51.138724"><ele>-6.2</ele><time>2022-03-20T09:28:02.000Z</time></trkpt><trkpt lon="5.94934" lat="51.138793"><ele>-6.4</ele><time>2022-03-20T09:28:03.000Z</time></trkpt><trkpt lon="5.949369" lat="51.138865"><ele>-6.6</ele><time>2022-03-20T09:28:04.000Z</time></trkpt><trkpt lon="5.949396" lat="51.138935"><ele>-6.6</ele><time>2022-03-20T09:28:05.000Z</time></trkpt><trkpt lon="5.949422" lat="51.139003"><ele>-6.4</ele><time>2022-03-20T09:28:06.000Z</time></trkpt><trkpt lon="5.94945" lat="51.139075"><ele>-6.4</ele><time>2022-03-20T09:28:07.000Z</time></trkpt><trkpt lon="5.94948" lat="51.139147"><ele>-6.2</ele><time>2022-03-20T09:28:08.000Z</time></trkpt><trkpt lon="5.949511" lat="51.139223"><ele>-6.2</ele><time>2022-03-20T09:28:09.000Z</time></trkpt><trkpt lon="5.949545" lat="51.139299"><ele>-6.4</ele><time>2022-03-20T09:28:10.000Z</time></trkpt><trkpt lon="5.949581" lat="51.139371"><ele>-6.4</ele><time>2022-03-20T09:28:11.000Z</time></trkpt><trkpt lon="5.949615" lat="51.139445"><ele>-6.2</ele><time>2022-03-20T09:28:12.000Z</time></trkpt><trkpt lon="5.949649" lat="51.139511"><ele>-6.2</ele><time>2022-03-20T09:28:13.000Z</time></trkpt><trkpt lon="5.949683" lat="51.139578"><ele>-6</ele><time>2022-03-20T09:28:14.000Z</time></trkpt><trkpt lon="5.949717" lat="51.139644"><ele>-6</ele><time>2022-03-20T09:28:15.000Z</time></trkpt><trkpt lon="5.949751" lat="51.139712"><ele>-6</ele><time>2022-03-20T09:28:16.000Z</time></trkpt><trkpt lon="5.949782" lat="51.139778"><ele>-5.8</ele><time>2022-03-20T09:28:17.000Z</time></trkpt><trkpt lon="5.949811" lat="51.139843"><ele>-5.8</ele><time>2022-03-20T09:28:18.000Z</time></trkpt><trkpt lon="5.949845" lat="51.139908"><ele>-5.6</ele><time>2022-03-20T09:28:19.000Z</time></trkpt><trkpt lon="5.949879" lat="51.139967"><ele>-5.6</ele><time>2022-03-20T09:28:20.000Z</time></trkpt><trkpt lon="5.949912" lat="51.140027"><ele>-5.6</ele><time>2022-03-20T09:28:21.000Z</time></trkpt><trkpt lon="5.949944" lat="51.140088"><ele>-5.6</ele><time>2022-03-20T09:28:22.000Z</time></trkpt><trkpt lon="5.949975" lat="51.140152"><ele>-5.4</ele><time>2022-03-20T09:28:23.000Z</time></trkpt><trkpt lon="5.950004" lat="51.140213"><ele>-5.2</ele><time>2022-03-20T09:28:24.000Z</time></trkpt><trkpt lon="5.950033" lat="51.140278"><ele>-5</ele><time>2022-03-20T09:28:25.000Z</time></trkpt><trkpt lon="5.950059" lat="51.140343"><ele>-4.8</ele><time>2022-03-20T09:28:26.000Z</time></trkpt><trkpt lon="5.95008" lat="51.140407"><ele>-4.6</ele><time>2022-03-20T09:28:27.000Z</time></trkpt><trkpt lon="5.950094" lat="51.140469"><ele>-4.4</ele><time>2022-03-20T09:28:28.000Z</time></trkpt><trkpt lon="5.950104" lat="51.140536"><ele>-4.4</ele><time>2022-03-20T09:28:29.000Z</time></trkpt><trkpt lon="5.950112" lat="51.140605"><ele>-4.4</ele><time>2022-03-20T09:28:30.000Z</time></trkpt><trkpt lon="5.950122" lat="51.140674"><ele>-4.4</ele><time>2022-03-20T09:28:31.000Z</time></trkpt><trkpt lon="5.950133" lat="51.140746"><ele>-4.4</ele><time>2022-03-20T09:28:32.000Z</time></trkpt><trkpt lon="5.950139" lat="51.140818"><ele>-4.4</ele><time>2022-03-20T09:28:33.000Z</time></trkpt><trkpt lon="5.950144" lat="51.14089"><ele>-4.4</ele><time>2022-03-20T09:28:34.000Z</time></trkpt><trkpt lon="5.950149" lat="51.140963"><ele>-4.2</ele><time>2022-03-20T09:28:35.000Z</time></trkpt><trkpt lon="5.950151" lat="51.141033"><ele>-4.2</ele><time>2022-03-20T09:28:36.000Z</time></trkpt><trkpt lon="5.95015" lat="51.141101"><ele>-4.2</ele><time>2022-03-20T09:28:37.000Z</time></trkpt><trkpt lon="5.95015" lat="51.141162"><ele>-4</ele><time>2022-03-20T09:28:38.000Z</time></trkpt><trkpt lon="5.950147" lat="51.141221"><ele>-3.8</ele><time>2022-03-20T09:28:39.000Z</time></trkpt><trkpt lon="5.950136" lat="51.141282"><ele>-3.8</ele><time>2022-03-20T09:28:40.000Z</time></trkpt><trkpt lon="5.950118" lat="51.141343"><ele>-3.6</ele><time>2022-03-20T09:28:41.000Z</time></trkpt><trkpt lon="5.950093" lat="51.141407"><ele>-3.6</ele><time>2022-03-20T09:28:42.000Z</time></trkpt><trkpt lon="5.950061" lat="51.141469"><ele>-3.4</ele><time>2022-03-20T09:28:43.000Z</time></trkpt><trkpt lon="5.950024" lat="51.141521"><ele>-3.4</ele><time>2022-03-20T09:28:44.000Z</time></trkpt><trkpt lon="5.94998" lat="51.141574"><ele>-3.2</ele><time>2022-03-20T09:28:45.000Z</time></trkpt><trkpt lon="5.949935" lat="51.14163"><ele>-3</ele><time>2022-03-20T09:28:46.000Z</time></trkpt><trkpt lon="5.949879" lat="51.141681"><ele>-3</ele><time>2022-03-20T09:28:47.000Z</time></trkpt><trkpt lon="5.949809" lat="51.141731"><ele>-3</ele><time>2022-03-20T09:28:48.000Z</time></trkpt><trkpt lon="5.949733" lat="51.141778"><ele>-2.8</ele><time>2022-03-20T09:28:49.000Z</time></trkpt><trkpt lon="5.94965" lat="51.141821"><ele>-2.8</ele><time>2022-03-20T09:28:50.000Z</time></trkpt><trkpt lon="5.949561" lat="51.141859"><ele>-2.8</ele><time>2022-03-20T09:28:51.000Z</time></trkpt><trkpt lon="5.949468" lat="51.141901"><ele>-2.8</ele><time>2022-03-20T09:28:52.000Z</time></trkpt><trkpt lon="5.949379" lat="51.141943"><ele>-2.8</ele><time>2022-03-20T09:28:53.000Z</time></trkpt><trkpt lon="5.949288" lat="51.141986"><ele>-2.8</ele><time>2022-03-20T09:28:54.000Z</time></trkpt><trkpt lon="5.949188" lat="51.142033"><ele>-2.8</ele><time>2022-03-20T09:28:55.000Z</time></trkpt><trkpt lon="5.949093" lat="51.142079"><ele>-3</ele><time>2022-03-20T09:28:56.000Z</time></trkpt><trkpt lon="5.948992" lat="51.142127"><ele>-3</ele><time>2022-03-20T09:28:57.000Z</time></trkpt><trkpt lon="5.948894" lat="51.14218"><ele>-3.2</ele><time>2022-03-20T09:28:58.000Z</time></trkpt><trkpt lon="5.948803" lat="51.142239"><ele>-3.2</ele><time>2022-03-20T09:28:59.000Z</time></trkpt><trkpt lon="5.948719" lat="51.142301"><ele>-3.4</ele><time>2022-03-20T09:29:00.000Z</time></trkpt><trkpt lon="5.948642" lat="51.142365"><ele>-3.4</ele><time>2022-03-20T09:29:01.000Z</time></trkpt><trkpt lon="5.948569" lat="51.14243"><ele>-3.6</ele><time>2022-03-20T09:29:02.000Z</time></trkpt><trkpt lon="5.948499" lat="51.142494"><ele>-3.8</ele><time>2022-03-20T09:29:03.000Z</time></trkpt><trkpt lon="5.94843" lat="51.142562"><ele>-3.8</ele><time>2022-03-20T09:29:04.000Z</time></trkpt><trkpt lon="5.948365" lat="51.142633"><ele>-3.8</ele><time>2022-03-20T09:29:05.000Z</time></trkpt><trkpt lon="5.948304" lat="51.142709"><ele>-3.8</ele><time>2022-03-20T09:29:06.000Z</time></trkpt><trkpt lon="5.948245" lat="51.142786"><ele>-3.8</ele><time>2022-03-20T09:29:07.000Z</time></trkpt><trkpt lon="5.948188" lat="51.142859"><ele>-4</ele><time>2022-03-20T09:29:08.000Z</time></trkpt><trkpt lon="5.948133" lat="51.142928"><ele>-4.2</ele><time>2022-03-20T09:29:09.000Z</time></trkpt><trkpt lon="5.948077" lat="51.143"><ele>-4.4</ele><time>2022-03-20T09:29:10.000Z</time></trkpt><trkpt lon="5.948021" lat="51.143072"><ele>-4.6</ele><time>2022-03-20T09:29:11.000Z</time></trkpt><trkpt lon="5.947965" lat="51.143148"><ele>-4.8</ele><time>2022-03-20T09:29:12.000Z</time></trkpt><trkpt lon="5.947907" lat="51.143224"><ele>-5</ele><time>2022-03-20T09:29:13.000Z</time></trkpt><trkpt lon="5.947851" lat="51.143294"><ele>-5.2</ele><time>2022-03-20T09:29:14.000Z</time></trkpt><trkpt lon="5.947798" lat="51.143366"><ele>-5.2</ele><time>2022-03-20T09:29:15.000Z</time></trkpt><trkpt lon="5.947744" lat="51.143435"><ele>-5.6</ele><time>2022-03-20T09:29:16.000Z</time></trkpt><trkpt lon="5.947689" lat="51.143507"><ele>-5.8</ele><time>2022-03-20T09:29:17.000Z</time></trkpt><trkpt lon="5.947632" lat="51.14358"><ele>-5.8</ele><time>2022-03-20T09:29:18.000Z</time></trkpt><trkpt lon="5.947575" lat="51.143652"><ele>-5.8</ele><time>2022-03-20T09:29:19.000Z</time></trkpt><trkpt lon="5.94752" lat="51.143722"><ele>-5.8</ele><time>2022-03-20T09:29:20.000Z</time></trkpt><trkpt lon="5.947467" lat="51.14379"><ele>-6</ele><time>2022-03-20T09:29:21.000Z</time></trkpt><trkpt lon="5.947415" lat="51.143859"><ele>-6</ele><time>2022-03-20T09:29:22.000Z</time></trkpt><trkpt lon="5.947362" lat="51.143931"><ele>-6</ele><time>2022-03-20T09:29:23.000Z</time></trkpt><trkpt lon="5.947309" lat="51.144003"><ele>-6</ele><time>2022-03-20T09:29:24.000Z</time></trkpt><trkpt lon="5.947254" lat="51.144075"><ele>-6</ele><time>2022-03-20T09:29:25.000Z</time></trkpt><trkpt lon="5.947198" lat="51.144145"><ele>-6</ele><time>2022-03-20T09:29:26.000Z</time></trkpt><trkpt lon="5.947143" lat="51.144212"><ele>-6</ele><time>2022-03-20T09:29:27.000Z</time></trkpt><trkpt lon="5.947088" lat="51.14428"><ele>-5.8</ele><time>2022-03-20T09:29:28.000Z</time></trkpt><trkpt lon="5.947033" lat="51.14435"><ele>-5.8</ele><time>2022-03-20T09:29:29.000Z</time></trkpt><trkpt lon="5.946982" lat="51.144419"><ele>-5.8</ele><time>2022-03-20T09:29:30.000Z</time></trkpt><trkpt lon="5.946934" lat="51.144485"><ele>-5.8</ele><time>2022-03-20T09:29:31.000Z</time></trkpt><trkpt lon="5.946884" lat="51.144556"><ele>-5.8</ele><time>2022-03-20T09:29:32.000Z</time></trkpt><trkpt lon="5.946834" lat="51.144623"><ele>-5.8</ele><time>2022-03-20T09:29:33.000Z</time></trkpt><trkpt lon="5.946789" lat="51.14469"><ele>-5.6</ele><time>2022-03-20T09:29:34.000Z</time></trkpt><trkpt lon="5.946744" lat="51.144762"><ele>-5.6</ele><time>2022-03-20T09:29:35.000Z</time></trkpt><trkpt lon="5.946697" lat="51.144835"><ele>-5.6</ele><time>2022-03-20T09:29:36.000Z</time></trkpt><trkpt lon="5.946654" lat="51.144908"><ele>-5.6</ele><time>2022-03-20T09:29:37.000Z</time></trkpt><trkpt lon="5.946614" lat="51.144981"><ele>-5.6</ele><time>2022-03-20T09:29:38.000Z</time></trkpt><trkpt lon="5.946573" lat="51.145058"><ele>-5.4</ele><time>2022-03-20T09:29:39.000Z</time></trkpt><trkpt lon="5.946533" lat="51.145132"><ele>-5.4</ele><time>2022-03-20T09:29:40.000Z</time></trkpt><trkpt lon="5.946493" lat="51.145208"><ele>-5.4</ele><time>2022-03-20T09:29:41.000Z</time></trkpt><trkpt lon="5.946454" lat="51.145284"><ele>-5.4</ele><time>2022-03-20T09:29:42.000Z</time></trkpt><trkpt lon="5.946418" lat="51.145357"><ele>-5.4</ele><time>2022-03-20T09:29:43.000Z</time></trkpt><trkpt lon="5.946383" lat="51.145429"><ele>-5.4</ele><time>2022-03-20T09:29:44.000Z</time></trkpt><trkpt lon="5.946351" lat="51.145502"><ele>-5.6</ele><time>2022-03-20T09:29:45.000Z</time></trkpt><trkpt lon="5.946319" lat="51.145575"><ele>-5.6</ele><time>2022-03-20T09:29:46.000Z</time></trkpt><trkpt lon="5.946288" lat="51.14565"><ele>-5.6</ele><time>2022-03-20T09:29:47.000Z</time></trkpt><trkpt lon="5.946256" lat="51.145723"><ele>-5.6</ele><time>2022-03-20T09:29:48.000Z</time></trkpt><trkpt lon="5.946223" lat="51.145799"><ele>-5.6</ele><time>2022-03-20T09:29:49.000Z</time></trkpt><trkpt lon="5.946191" lat="51.145874"><ele>-5.6</ele><time>2022-03-20T09:29:50.000Z</time></trkpt><trkpt lon="5.94616" lat="51.145948"><ele>-5.6</ele><time>2022-03-20T09:29:51.000Z</time></trkpt><trkpt lon="5.94613" lat="51.146023"><ele>-5.6</ele><time>2022-03-20T09:29:52.000Z</time></trkpt><trkpt lon="5.946101" lat="51.1461"><ele>-5.6</ele><time>2022-03-20T09:29:53.000Z</time></trkpt><trkpt lon="5.946072" lat="51.146174"><ele>-5.6</ele><time>2022-03-20T09:29:54.000Z</time></trkpt><trkpt lon="5.946043" lat="51.146246"><ele>-5.6</ele><time>2022-03-20T09:29:55.000Z</time></trkpt><trkpt lon="5.946015" lat="51.146321"><ele>-5.8</ele><time>2022-03-20T09:29:56.000Z</time></trkpt><trkpt lon="5.945988" lat="51.146397"><ele>-5.8</ele><time>2022-03-20T09:29:57.000Z</time></trkpt><trkpt lon="5.945963" lat="51.146474"><ele>-6</ele><time>2022-03-20T09:29:58.000Z</time></trkpt><trkpt lon="5.94594" lat="51.146552"><ele>-6</ele><time>2022-03-20T09:29:59.000Z</time></trkpt><trkpt lon="5.945921" lat="51.14663"><ele>-6</ele><time>2022-03-20T09:30:00.000Z</time></trkpt><trkpt lon="5.945905" lat="51.14671"><ele>-6</ele><time>2022-03-20T09:30:01.000Z</time></trkpt><trkpt lon="5.945895" lat="51.146787"><ele>-6</ele><time>2022-03-20T09:30:02.000Z</time></trkpt><trkpt lon="5.945888" lat="51.146866"><ele>-6</ele><time>2022-03-20T09:30:03.000Z</time></trkpt><trkpt lon="5.945885" lat="51.146943"><ele>-6</ele><time>2022-03-20T09:30:04.000Z</time></trkpt><trkpt lon="5.945886" lat="51.147016"><ele>-6.2</ele><time>2022-03-20T09:30:05.000Z</time></trkpt><trkpt lon="5.945888" lat="51.147095"><ele>-6.2</ele><time>2022-03-20T09:30:06.000Z</time></trkpt><trkpt lon="5.945891" lat="51.147173"><ele>-6.2</ele><time>2022-03-20T09:30:07.000Z</time></trkpt><trkpt lon="5.945895" lat="51.147251"><ele>-6.2</ele><time>2022-03-20T09:30:08.000Z</time></trkpt><trkpt lon="5.945901" lat="51.147326"><ele>-6.2</ele><time>2022-03-20T09:30:09.000Z</time></trkpt><trkpt lon="5.945907" lat="51.147401"><ele>-6</ele><time>2022-03-20T09:30:10.000Z</time></trkpt><trkpt lon="5.945914" lat="51.147477"><ele>-6</ele><time>2022-03-20T09:30:11.000Z</time></trkpt><trkpt lon="5.945919" lat="51.147553"><ele>-6</ele><time>2022-03-20T09:30:12.000Z</time></trkpt><trkpt lon="5.945924" lat="51.14763"><ele>-6.2</ele><time>2022-03-20T09:30:13.000Z</time></trkpt><trkpt lon="5.945929" lat="51.147706"><ele>-6.2</ele><time>2022-03-20T09:30:14.000Z</time></trkpt><trkpt lon="5.945934" lat="51.147782"><ele>-6.2</ele><time>2022-03-20T09:30:15.000Z</time></trkpt><trkpt lon="5.94594" lat="51.147858"><ele>-6.4</ele><time>2022-03-20T09:30:16.000Z</time></trkpt><trkpt lon="5.945944" lat="51.147935"><ele>-6.6</ele><time>2022-03-20T09:30:17.000Z</time></trkpt><trkpt lon="5.945946" lat="51.148015"><ele>-6.6</ele><time>2022-03-20T09:30:18.000Z</time></trkpt><trkpt lon="5.945948" lat="51.148092"><ele>-6.6</ele><time>2022-03-20T09:30:19.000Z</time></trkpt><trkpt lon="5.945948" lat="51.148168"><ele>-6.6</ele><time>2022-03-20T09:30:20.000Z</time></trkpt><trkpt lon="5.945943" lat="51.148244"><ele>-6.4</ele><time>2022-03-20T09:30:21.000Z</time></trkpt><trkpt lon="5.945933" lat="51.148319"><ele>-6.4</ele><time>2022-03-20T09:30:22.000Z</time></trkpt><trkpt lon="5.945914" lat="51.148393"><ele>-6.2</ele><time>2022-03-20T09:30:23.000Z</time></trkpt><trkpt lon="5.945887" lat="51.148462"><ele>-6.2</ele><time>2022-03-20T09:30:24.000Z</time></trkpt><trkpt lon="5.945851" lat="51.148532"><ele>-6.2</ele><time>2022-03-20T09:30:25.000Z</time></trkpt><trkpt lon="5.945805" lat="51.1486"><ele>-6</ele><time>2022-03-20T09:30:26.000Z</time></trkpt><trkpt lon="5.945749" lat="51.148666"><ele>-6</ele><time>2022-03-20T09:30:27.000Z</time></trkpt><trkpt lon="5.945685" lat="51.148731"><ele>-6</ele><time>2022-03-20T09:30:28.000Z</time></trkpt><trkpt lon="5.945616" lat="51.148796"><ele>-6</ele><time>2022-03-20T09:30:29.000Z</time></trkpt><trkpt lon="5.945544" lat="51.148858"><ele>-6</ele><time>2022-03-20T09:30:30.000Z</time></trkpt><trkpt lon="5.945473" lat="51.148919"><ele>-6</ele><time>2022-03-20T09:30:31.000Z</time></trkpt><trkpt lon="5.945403" lat="51.14898"><ele>-6</ele><time>2022-03-20T09:30:32.000Z</time></trkpt><trkpt lon="5.945334" lat="51.149041"><ele>-6</ele><time>2022-03-20T09:30:33.000Z</time></trkpt><trkpt lon="5.945264" lat="51.149102"><ele>-6</ele><time>2022-03-20T09:30:34.000Z</time></trkpt><trkpt lon="5.945196" lat="51.14916"><ele>-6</ele><time>2022-03-20T09:30:35.000Z</time></trkpt><trkpt lon="5.94513" lat="51.149221"><ele>-6</ele><time>2022-03-20T09:30:36.000Z</time></trkpt><trkpt lon="5.945067" lat="51.149287"><ele>-6</ele><time>2022-03-20T09:30:37.000Z</time></trkpt><trkpt lon="5.945006" lat="51.149352"><ele>-6</ele><time>2022-03-20T09:30:38.000Z</time></trkpt><trkpt lon="5.944948" lat="51.149418"><ele>-6</ele><time>2022-03-20T09:30:39.000Z</time></trkpt><trkpt lon="5.944893" lat="51.149486"><ele>-6</ele><time>2022-03-20T09:30:40.000Z</time></trkpt><trkpt lon="5.944838" lat="51.149551"><ele>-6</ele><time>2022-03-20T09:30:41.000Z</time></trkpt><trkpt lon="5.944782" lat="51.149616"><ele>-6</ele><time>2022-03-20T09:30:42.000Z</time></trkpt><trkpt lon="5.944726" lat="51.149683"><ele>-5.8</ele><time>2022-03-20T09:30:43.000Z</time></trkpt><trkpt lon="5.944672" lat="51.14975"><ele>-5.8</ele><time>2022-03-20T09:30:44.000Z</time></trkpt><trkpt lon="5.944622" lat="51.149814"><ele>-5.8</ele><time>2022-03-20T09:30:45.000Z</time></trkpt><trkpt lon="5.944574" lat="51.149881"><ele>-5.8</ele><time>2022-03-20T09:30:46.000Z</time></trkpt><trkpt lon="5.944524" lat="51.149947"><ele>-5.8</ele><time>2022-03-20T09:30:47.000Z</time></trkpt><trkpt lon="5.944474" lat="51.150013"><ele>-5.8</ele><time>2022-03-20T09:30:48.000Z</time></trkpt><trkpt lon="5.944423" lat="51.150081"><ele>-5.8</ele><time>2022-03-20T09:30:49.000Z</time></trkpt><trkpt lon="5.944375" lat="51.150145"><ele>-5.8</ele><time>2022-03-20T09:30:50.000Z</time></trkpt><trkpt lon="5.944326" lat="51.15021"><ele>-5.8</ele><time>2022-03-20T09:30:51.000Z</time></trkpt><trkpt lon="5.944274" lat="51.150273"><ele>-5.8</ele><time>2022-03-20T09:30:52.000Z</time></trkpt><trkpt lon="5.944222" lat="51.150331"><ele>-5.8</ele><time>2022-03-20T09:30:53.000Z</time></trkpt><trkpt lon="5.944173" lat="51.150394"><ele>-5.8</ele><time>2022-03-20T09:30:54.000Z</time></trkpt><trkpt lon="5.944127" lat="51.150453"><ele>-5.8</ele><time>2022-03-20T09:30:55.000Z</time></trkpt><trkpt lon="5.944084" lat="51.15051"><ele>-5.8</ele><time>2022-03-20T09:30:56.000Z</time></trkpt><trkpt lon="5.944051" lat="51.150567"><ele>-5.8</ele><time>2022-03-20T09:30:57.000Z</time></trkpt><trkpt lon="5.944046" lat="51.150624"><ele>-6</ele><time>2022-03-20T09:30:58.000Z</time></trkpt><trkpt lon="5.94408" lat="51.150678"><ele>-6</ele><time>2022-03-20T09:30:59.000Z</time></trkpt><trkpt lon="5.944146" lat="51.150729"><ele>-6.2</ele><time>2022-03-20T09:31:00.000Z</time></trkpt><trkpt lon="5.944225" lat="51.150782"><ele>-6.6</ele><time>2022-03-20T09:31:01.000Z</time></trkpt><trkpt lon="5.944308" lat="51.150839"><ele>-7</ele><time>2022-03-20T09:31:02.000Z</time></trkpt><trkpt lon="5.944392" lat="51.150893"><ele>-7</ele><time>2022-03-20T09:31:03.000Z</time></trkpt><trkpt lon="5.944475" lat="51.150949"><ele>-7</ele><time>2022-03-20T09:31:04.000Z</time></trkpt><trkpt lon="5.944557" lat="51.151003"><ele>-7.2</ele><time>2022-03-20T09:31:05.000Z</time></trkpt><trkpt lon="5.944637" lat="51.151054"><ele>-7</ele><time>2022-03-20T09:31:06.000Z</time></trkpt><trkpt lon="5.944714" lat="51.151106"><ele>-7</ele><time>2022-03-20T09:31:07.000Z</time></trkpt><trkpt lon="5.944792" lat="51.151157"><ele>-7</ele><time>2022-03-20T09:31:08.000Z</time></trkpt><trkpt lon="5.944871" lat="51.15121"><ele>-7</ele><time>2022-03-20T09:31:09.000Z</time></trkpt><trkpt lon="5.944949" lat="51.151266"><ele>-6.8</ele><time>2022-03-20T09:31:10.000Z</time></trkpt><trkpt lon="5.945026" lat="51.151319"><ele>-6.8</ele><time>2022-03-20T09:31:11.000Z</time></trkpt><trkpt lon="5.945104" lat="51.151373"><ele>-6.8</ele><time>2022-03-20T09:31:12.000Z</time></trkpt><trkpt lon="5.945183" lat="51.151427"><ele>-6.8</ele><time>2022-03-20T09:31:13.000Z</time></trkpt><trkpt lon="5.945259" lat="51.15148"><ele>-6.8</ele><time>2022-03-20T09:31:14.000Z</time></trkpt><trkpt lon="5.945336" lat="51.151533"><ele>-6.6</ele><time>2022-03-20T09:31:15.000Z</time></trkpt><trkpt lon="5.945412" lat="51.151584"><ele>-6.4</ele><time>2022-03-20T09:31:16.000Z</time></trkpt><trkpt lon="5.945486" lat="51.151636"><ele>-6.6</ele><time>2022-03-20T09:31:17.000Z</time></trkpt><trkpt lon="5.945561" lat="51.151686"><ele>-6.6</ele><time>2022-03-20T09:31:18.000Z</time></trkpt><trkpt lon="5.945637" lat="51.151739"><ele>-6.4</ele><time>2022-03-20T09:31:19.000Z</time></trkpt><trkpt lon="5.945714" lat="51.15179"><ele>-6.4</ele><time>2022-03-20T09:31:20.000Z</time></trkpt><trkpt lon="5.945788" lat="51.15184"><ele>-6.4</ele><time>2022-03-20T09:31:21.000Z</time></trkpt><trkpt lon="5.945861" lat="51.15189"><ele>-6.6</ele><time>2022-03-20T09:31:22.000Z</time></trkpt><trkpt lon="5.945934" lat="51.151939"><ele>-6.6</ele><time>2022-03-20T09:31:23.000Z</time></trkpt><trkpt lon="5.946009" lat="51.151988"><ele>-6.4</ele><time>2022-03-20T09:31:24.000Z</time></trkpt><trkpt lon="5.946084" lat="51.152038"><ele>-6.4</ele><time>2022-03-20T09:31:25.000Z</time></trkpt><trkpt lon="5.946158" lat="51.152085"><ele>-6.4</ele><time>2022-03-20T09:31:26.000Z</time></trkpt><trkpt lon="5.946228" lat="51.152133"><ele>-6.4</ele><time>2022-03-20T09:31:27.000Z</time></trkpt><trkpt lon="5.9463" lat="51.152183"><ele>-6.4</ele><time>2022-03-20T09:31:28.000Z</time></trkpt><trkpt lon="5.946371" lat="51.152227"><ele>-6.2</ele><time>2022-03-20T09:31:29.000Z</time></trkpt><trkpt lon="5.946442" lat="51.152272"><ele>-6.2</ele><time>2022-03-20T09:31:30.000Z</time></trkpt><trkpt lon="5.946508" lat="51.152315"><ele>-6.2</ele><time>2022-03-20T09:31:31.000Z</time></trkpt><trkpt lon="5.946571" lat="51.152354"><ele>-6.2</ele><time>2022-03-20T09:31:32.000Z</time></trkpt><trkpt lon="5.946627" lat="51.152389"><ele>-6</ele><time>2022-03-20T09:31:33.000Z</time></trkpt><trkpt lon="5.946674" lat="51.152423"><ele>-5.8</ele><time>2022-03-20T09:31:34.000Z</time></trkpt><trkpt lon="5.946707" lat="51.152458"><ele>-5.6</ele><time>2022-03-20T09:31:35.000Z</time></trkpt><trkpt lon="5.946713" lat="51.152492"><ele>-5.4</ele><time>2022-03-20T09:31:36.000Z</time></trkpt><trkpt lon="5.946694" lat="51.152532"><ele>-5.2</ele><time>2022-03-20T09:31:37.000Z</time></trkpt><trkpt lon="5.946655" lat="51.152571"><ele>-5</ele><time>2022-03-20T09:31:38.000Z</time></trkpt><trkpt lon="5.946604" lat="51.152608"><ele>-5</ele><time>2022-03-20T09:31:39.000Z</time></trkpt><trkpt lon="5.94654" lat="51.15265"><ele>-5</ele><time>2022-03-20T09:31:40.000Z</time></trkpt><trkpt lon="5.946475" lat="51.152696"><ele>-5</ele><time>2022-03-20T09:31:41.000Z</time></trkpt><trkpt lon="5.946411" lat="51.152738"><ele>-5</ele><time>2022-03-20T09:31:42.000Z</time></trkpt><trkpt lon="5.946347" lat="51.15278"><ele>-5</ele><time>2022-03-20T09:31:43.000Z</time></trkpt><trkpt lon="5.946284" lat="51.152821"><ele>-5</ele><time>2022-03-20T09:31:44.000Z</time></trkpt><trkpt lon="5.946221" lat="51.152864"><ele>-5</ele><time>2022-03-20T09:31:45.000Z</time></trkpt><trkpt lon="5.946169" lat="51.152909"><ele>-5</ele><time>2022-03-20T09:31:46.000Z</time></trkpt><trkpt lon="5.94612" lat="51.152963"><ele>-5.2</ele><time>2022-03-20T09:31:47.000Z</time></trkpt><trkpt lon="5.946066" lat="51.153018"><ele>-5.2</ele><time>2022-03-20T09:31:48.000Z</time></trkpt><trkpt lon="5.946004" lat="51.153065"><ele>-5.2</ele><time>2022-03-20T09:31:49.000Z</time></trkpt><trkpt lon="5.945936" lat="51.153108"><ele>-5.2</ele><time>2022-03-20T09:31:50.000Z</time></trkpt><trkpt lon="5.945868" lat="51.15315"><ele>-5.2</ele><time>2022-03-20T09:31:51.000Z</time></trkpt><trkpt lon="5.945802" lat="51.153192"><ele>-5.2</ele><time>2022-03-20T09:31:52.000Z</time></trkpt><trkpt lon="5.945738" lat="51.153231"><ele>-5.2</ele><time>2022-03-20T09:31:53.000Z</time></trkpt><trkpt lon="5.945675" lat="51.153275"><ele>-5.2</ele><time>2022-03-20T09:31:54.000Z</time></trkpt><trkpt lon="5.945612" lat="51.153321"><ele>-5.4</ele><time>2022-03-20T09:31:55.000Z</time></trkpt><trkpt lon="5.94555" lat="51.153363"><ele>-5.4</ele><time>2022-03-20T09:31:56.000Z</time></trkpt><trkpt lon="5.945488" lat="51.153405"><ele>-5.6</ele><time>2022-03-20T09:31:57.000Z</time></trkpt><trkpt lon="5.945433" lat="51.153445"><ele>-5.6</ele><time>2022-03-20T09:31:58.000Z</time></trkpt><trkpt lon="5.94539" lat="51.153486"><ele>-5.8</ele><time>2022-03-20T09:31:59.000Z</time></trkpt><trkpt lon="5.945366" lat="51.153528"><ele>-6</ele><time>2022-03-20T09:32:00.000Z</time></trkpt><trkpt lon="5.945363" lat="51.153567"><ele>-6</ele><time>2022-03-20T09:32:01.000Z</time></trkpt><trkpt lon="5.945375" lat="51.153602"><ele>-6.2</ele><time>2022-03-20T09:32:02.000Z</time></trkpt><trkpt lon="5.945397" lat="51.153631"><ele>-6.2</ele><time>2022-03-20T09:32:03.000Z</time></trkpt><trkpt lon="5.945417" lat="51.153655"><ele>-6.2</ele><time>2022-03-20T09:32:04.000Z</time></trkpt><trkpt lon="5.945423" lat="51.153674"><ele>-6.2</ele><time>2022-03-20T09:32:05.000Z</time></trkpt><trkpt lon="5.945413" lat="51.153688"><ele>-6.2</ele><time>2022-03-20T09:32:06.000Z</time></trkpt><trkpt lon="5.945393" lat="51.153699"><ele>-6.4</ele><time>2022-03-20T09:32:07.000Z</time></trkpt><trkpt lon="5.945365" lat="51.153713"><ele>-6.4</ele><time>2022-03-20T09:32:08.000Z</time></trkpt><trkpt lon="5.945331" lat="51.153734"><ele>-6.4</ele><time>2022-03-20T09:32:09.000Z</time></trkpt><trkpt lon="5.945289" lat="51.15376"><ele>-6.4</ele><time>2022-03-20T09:32:10.000Z</time></trkpt><trkpt lon="5.945235" lat="51.153781"><ele>-6.4</ele><time>2022-03-20T09:32:11.000Z</time></trkpt><trkpt lon="5.945171" lat="51.153797"><ele>-6.4</ele><time>2022-03-20T09:32:12.000Z</time></trkpt><trkpt lon="5.945099" lat="51.153801"><ele>-6.6</ele><time>2022-03-20T09:32:13.000Z</time></trkpt><trkpt lon="5.945022" lat="51.153804"><ele>-6.6</ele><time>2022-03-20T09:32:14.000Z</time></trkpt><trkpt lon="5.944938" lat="51.153814"><ele>-6.8</ele><time>2022-03-20T09:32:15.000Z</time></trkpt><trkpt lon="5.944852" lat="51.153834"><ele>-6.8</ele><time>2022-03-20T09:32:16.000Z</time></trkpt><trkpt lon="5.944764" lat="51.153856"><ele>-6.8</ele><time>2022-03-20T09:32:17.000Z</time></trkpt><trkpt lon="5.944671" lat="51.153879"><ele>-7</ele><time>2022-03-20T09:32:18.000Z</time></trkpt><trkpt lon="5.944576" lat="51.153905"><ele>-7</ele><time>2022-03-20T09:32:19.000Z</time></trkpt><trkpt lon="5.94448" lat="51.153938"><ele>-7</ele><time>2022-03-20T09:32:20.000Z</time></trkpt><trkpt lon="5.944388" lat="51.153978"><ele>-7</ele><time>2022-03-20T09:32:21.000Z</time></trkpt><trkpt lon="5.9443" lat="51.15402"><ele>-7</ele><time>2022-03-20T09:32:22.000Z</time></trkpt><trkpt lon="5.944211" lat="51.154062"><ele>-7</ele><time>2022-03-20T09:32:23.000Z</time></trkpt><trkpt lon="5.944122" lat="51.154098"><ele>-7</ele><time>2022-03-20T09:32:24.000Z</time></trkpt><trkpt lon="5.94403" lat="51.154132"><ele>-7</ele><time>2022-03-20T09:32:25.000Z</time></trkpt><trkpt lon="5.943936" lat="51.154167"><ele>-7</ele><time>2022-03-20T09:32:26.000Z</time></trkpt><trkpt lon="5.943842" lat="51.1542"><ele>-7</ele><time>2022-03-20T09:32:27.000Z</time></trkpt><trkpt lon="5.943743" lat="51.154232"><ele>-7.2</ele><time>2022-03-20T09:32:28.000Z</time></trkpt><trkpt lon="5.943646" lat="51.154265"><ele>-7.2</ele><time>2022-03-20T09:32:29.000Z</time></trkpt><trkpt lon="5.94355" lat="51.1543"><ele>-7</ele><time>2022-03-20T09:32:30.000Z</time></trkpt><trkpt lon="5.943454" lat="51.154332"><ele>-7</ele><time>2022-03-20T09:32:31.000Z</time></trkpt><trkpt lon="5.943359" lat="51.154362"><ele>-7</ele><time>2022-03-20T09:32:32.000Z</time></trkpt><trkpt lon="5.943264" lat="51.154393"><ele>-7</ele><time>2022-03-20T09:32:33.000Z</time></trkpt><trkpt lon="5.943168" lat="51.154423"><ele>-7</ele><time>2022-03-20T09:32:34.000Z</time></trkpt><trkpt lon="5.94307" lat="51.154453"><ele>-7</ele><time>2022-03-20T09:32:35.000Z</time></trkpt><trkpt lon="5.942971" lat="51.154484"><ele>-7</ele><time>2022-03-20T09:32:36.000Z</time></trkpt><trkpt lon="5.942878" lat="51.154512"><ele>-7</ele><time>2022-03-20T09:32:37.000Z</time></trkpt><trkpt lon="5.942786" lat="51.154542"><ele>-7.2</ele><time>2022-03-20T09:32:38.000Z</time></trkpt><trkpt lon="5.942698" lat="51.154572"><ele>-7.2</ele><time>2022-03-20T09:32:39.000Z</time></trkpt><trkpt lon="5.942612" lat="51.154604"><ele>-7.2</ele><time>2022-03-20T09:32:40.000Z</time></trkpt><trkpt lon="5.94252" lat="51.154642"><ele>-7.2</ele><time>2022-03-20T09:32:41.000Z</time></trkpt><trkpt lon="5.942432" lat="51.154681"><ele>-7.2</ele><time>2022-03-20T09:32:42.000Z</time></trkpt><trkpt lon="5.942346" lat="51.154725"><ele>-7.4</ele><time>2022-03-20T09:32:43.000Z</time></trkpt><trkpt lon="5.942259" lat="51.154768"><ele>-7.4</ele><time>2022-03-20T09:32:44.000Z</time></trkpt><trkpt lon="5.942174" lat="51.15481"><ele>-7.6</ele><time>2022-03-20T09:32:45.000Z</time></trkpt><trkpt lon="5.94209" lat="51.154851"><ele>-7.6</ele><time>2022-03-20T09:32:46.000Z</time></trkpt><trkpt lon="5.942007" lat="51.154896"><ele>-7.6</ele><time>2022-03-20T09:32:47.000Z</time></trkpt><trkpt lon="5.941924" lat="51.154942"><ele>-7.6</ele><time>2022-03-20T09:32:48.000Z</time></trkpt><trkpt lon="5.941844" lat="51.154985"><ele>-7.6</ele><time>2022-03-20T09:32:49.000Z</time></trkpt><trkpt lon="5.941763" lat="51.15503"><ele>-7.4</ele><time>2022-03-20T09:32:50.000Z</time></trkpt><trkpt lon="5.94168" lat="51.155073"><ele>-7.4</ele><time>2022-03-20T09:32:51.000Z</time></trkpt><trkpt lon="5.941596" lat="51.155117"><ele>-7.4</ele><time>2022-03-20T09:32:52.000Z</time></trkpt><trkpt lon="5.941507" lat="51.155157"><ele>-7.2</ele><time>2022-03-20T09:32:53.000Z</time></trkpt><trkpt lon="5.941416" lat="51.155196"><ele>-7.2</ele><time>2022-03-20T09:32:54.000Z</time></trkpt><trkpt lon="5.941328" lat="51.155231"><ele>-7.2</ele><time>2022-03-20T09:32:55.000Z</time></trkpt><trkpt lon="5.941244" lat="51.155265"><ele>-7</ele><time>2022-03-20T09:32:56.000Z</time></trkpt><trkpt lon="5.941167" lat="51.155299"><ele>-7</ele><time>2022-03-20T09:32:57.000Z</time></trkpt><trkpt lon="5.9411" lat="51.155331"><ele>-6.8</ele><time>2022-03-20T09:32:58.000Z</time></trkpt><trkpt lon="5.941039" lat="51.155359"><ele>-6.8</ele><time>2022-03-20T09:32:59.000Z</time></trkpt><trkpt lon="5.940974" lat="51.155383"><ele>-6.6</ele><time>2022-03-20T09:33:00.000Z</time></trkpt><trkpt lon="5.940898" lat="51.155408"><ele>-6.6</ele><time>2022-03-20T09:33:01.000Z</time></trkpt><trkpt lon="5.940811" lat="51.155441"><ele>-6.6</ele><time>2022-03-20T09:33:02.000Z</time></trkpt><trkpt lon="5.940717" lat="51.155475"><ele>-6.6</ele><time>2022-03-20T09:33:03.000Z</time></trkpt><trkpt lon="5.940621" lat="51.155512"><ele>-6.6</ele><time>2022-03-20T09:33:04.000Z</time></trkpt><trkpt lon="5.940532" lat="51.15555"><ele>-6.6</ele><time>2022-03-20T09:33:05.000Z</time></trkpt><trkpt lon="5.940429" lat="51.155591"><ele>-6.8</ele><time>2022-03-20T09:33:06.000Z</time></trkpt><trkpt lon="5.940327" lat="51.155634"><ele>-7</ele><time>2022-03-20T09:33:07.000Z</time></trkpt><trkpt lon="5.94023" lat="51.155676"><ele>-7.2</ele><time>2022-03-20T09:33:08.000Z</time></trkpt><trkpt lon="5.940136" lat="51.155717"><ele>-7.4</ele><time>2022-03-20T09:33:09.000Z</time></trkpt><trkpt lon="5.94004" lat="51.155757"><ele>-7.4</ele><time>2022-03-20T09:33:10.000Z</time></trkpt><trkpt lon="5.939947" lat="51.155797"><ele>-7.4</ele><time>2022-03-20T09:33:11.000Z</time></trkpt><trkpt lon="5.939851" lat="51.15584"><ele>-7.6</ele><time>2022-03-20T09:33:12.000Z</time></trkpt><trkpt lon="5.939759" lat="51.155881"><ele>-7.6</ele><time>2022-03-20T09:33:13.000Z</time></trkpt><trkpt lon="5.939668" lat="51.155926"><ele>-7.6</ele><time>2022-03-20T09:33:14.000Z</time></trkpt><trkpt lon="5.939581" lat="51.155969"><ele>-7.8</ele><time>2022-03-20T09:33:15.000Z</time></trkpt><trkpt lon="5.939496" lat="51.156008"><ele>-7.6</ele><time>2022-03-20T09:33:16.000Z</time></trkpt><trkpt lon="5.939411" lat="51.156052"><ele>-7.6</ele><time>2022-03-20T09:33:17.000Z</time></trkpt><trkpt lon="5.939327" lat="51.156098"><ele>-7.6</ele><time>2022-03-20T09:33:18.000Z</time></trkpt><trkpt lon="5.939243" lat="51.156143"><ele>-7.6</ele><time>2022-03-20T09:33:19.000Z</time></trkpt><trkpt lon="5.939159" lat="51.156186"><ele>-7.4</ele><time>2022-03-20T09:33:20.000Z</time></trkpt><trkpt lon="5.939074" lat="51.156234"><ele>-7.4</ele><time>2022-03-20T09:33:21.000Z</time></trkpt><trkpt lon="5.938989" lat="51.156278"><ele>-7.4</ele><time>2022-03-20T09:33:22.000Z</time></trkpt><trkpt lon="5.938905" lat="51.156326"><ele>-7.4</ele><time>2022-03-20T09:33:23.000Z</time></trkpt><trkpt lon="5.938823" lat="51.156372"><ele>-7.4</ele><time>2022-03-20T09:33:24.000Z</time></trkpt><trkpt lon="5.938743" lat="51.156421"><ele>-7.4</ele><time>2022-03-20T09:33:25.000Z</time></trkpt><trkpt lon="5.938665" lat="51.156468"><ele>-7.4</ele><time>2022-03-20T09:33:26.000Z</time></trkpt><trkpt lon="5.938591" lat="51.156516"><ele>-7.4</ele><time>2022-03-20T09:33:27.000Z</time></trkpt><trkpt lon="5.938523" lat="51.156566"><ele>-7.4</ele><time>2022-03-20T09:33:28.000Z</time></trkpt><trkpt lon="5.938456" lat="51.156613"><ele>-7.2</ele><time>2022-03-20T09:33:29.000Z</time></trkpt><trkpt lon="5.938395" lat="51.156658"><ele>-7.2</ele><time>2022-03-20T09:33:30.000Z</time></trkpt><trkpt lon="5.938337" lat="51.156702"><ele>-7</ele><time>2022-03-20T09:33:31.000Z</time></trkpt><trkpt lon="5.938285" lat="51.156737"><ele>-7</ele><time>2022-03-20T09:33:32.000Z</time></trkpt><trkpt lon="5.938239" lat="51.156769"><ele>-7</ele><time>2022-03-20T09:33:33.000Z</time></trkpt><trkpt lon="5.938202" lat="51.156791"><ele>-6.8</ele><time>2022-03-20T09:33:34.000Z</time></trkpt><trkpt lon="5.938173" lat="51.156809"><ele>-6.6</ele><time>2022-03-20T09:33:35.000Z</time></trkpt><trkpt lon="5.938137" lat="51.156829"><ele>-6.6</ele><time>2022-03-20T09:33:36.000Z</time></trkpt><trkpt lon="5.938088" lat="51.156851"><ele>-6.6</ele><time>2022-03-20T09:33:37.000Z</time></trkpt><trkpt lon="5.938035" lat="51.156877"><ele>-6.6</ele><time>2022-03-20T09:33:38.000Z</time></trkpt><trkpt lon="5.937977" lat="51.156912"><ele>-6.6</ele><time>2022-03-20T09:33:39.000Z</time></trkpt><trkpt lon="5.937911" lat="51.156953"><ele>-6.6</ele><time>2022-03-20T09:33:40.000Z</time></trkpt><trkpt lon="5.937839" lat="51.156992"><ele>-6.8</ele><time>2022-03-20T09:33:41.000Z</time></trkpt><trkpt lon="5.937767" lat="51.157036"><ele>-7</ele><time>2022-03-20T09:33:42.000Z</time></trkpt><trkpt lon="5.937689" lat="51.157082"><ele>-7</ele><time>2022-03-20T09:33:43.000Z</time></trkpt><trkpt lon="5.937611" lat="51.157125"><ele>-7</ele><time>2022-03-20T09:33:44.000Z</time></trkpt><trkpt lon="5.93753" lat="51.15717"><ele>-7</ele><time>2022-03-20T09:33:45.000Z</time></trkpt><trkpt lon="5.937445" lat="51.157216"><ele>-7</ele><time>2022-03-20T09:33:46.000Z</time></trkpt><trkpt lon="5.93736" lat="51.157259"><ele>-7.2</ele><time>2022-03-20T09:33:47.000Z</time></trkpt><trkpt lon="5.937275" lat="51.157301"><ele>-7.4</ele><time>2022-03-20T09:33:48.000Z</time></trkpt><trkpt lon="5.937191" lat="51.157342"><ele>-7.4</ele><time>2022-03-20T09:33:49.000Z</time></trkpt><trkpt lon="5.937104" lat="51.157387"><ele>-7.6</ele><time>2022-03-20T09:33:50.000Z</time></trkpt><trkpt lon="5.937017" lat="51.157436"><ele>-7.6</ele><time>2022-03-20T09:33:51.000Z</time></trkpt><trkpt lon="5.936934" lat="51.15748"><ele>-7.6</ele><time>2022-03-20T09:33:52.000Z</time></trkpt><trkpt lon="5.93685" lat="51.157519"><ele>-7.6</ele><time>2022-03-20T09:33:53.000Z</time></trkpt><trkpt lon="5.936766" lat="51.15756"><ele>-7.6</ele><time>2022-03-20T09:33:54.000Z</time></trkpt><trkpt lon="5.936681" lat="51.157602"><ele>-7.6</ele><time>2022-03-20T09:33:55.000Z</time></trkpt><trkpt lon="5.93659" lat="51.157644"><ele>-7.8</ele><time>2022-03-20T09:33:56.000Z</time></trkpt><trkpt lon="5.936497" lat="51.157683"><ele>-8</ele><time>2022-03-20T09:33:57.000Z</time></trkpt><trkpt lon="5.936405" lat="51.157721"><ele>-8.2</ele><time>2022-03-20T09:33:58.000Z</time></trkpt><trkpt lon="5.936312" lat="51.157759"><ele>-8.4</ele><time>2022-03-20T09:33:59.000Z</time></trkpt><trkpt lon="5.93622" lat="51.157794"><ele>-8.6</ele><time>2022-03-20T09:34:00.000Z</time></trkpt><trkpt lon="5.936129" lat="51.157823"><ele>-9</ele><time>2022-03-20T09:34:01.000Z</time></trkpt><trkpt lon="5.936033" lat="51.157844"><ele>-9.2</ele><time>2022-03-20T09:34:02.000Z</time></trkpt><trkpt lon="5.935944" lat="51.157848"><ele>-9.4</ele><time>2022-03-20T09:34:03.000Z</time></trkpt><trkpt lon="5.935865" lat="51.157848"><ele>-9.6</ele><time>2022-03-20T09:34:04.000Z</time></trkpt><trkpt lon="5.935795" lat="51.157848"><ele>-9.8</ele><time>2022-03-20T09:34:05.000Z</time></trkpt><trkpt lon="5.93572" lat="51.157857"><ele>-10</ele><time>2022-03-20T09:34:06.000Z</time></trkpt><trkpt lon="5.935644" lat="51.157866"><ele>-10.2</ele><time>2022-03-20T09:34:07.000Z</time></trkpt><trkpt lon="5.935566" lat="51.157864"><ele>-10.6</ele><time>2022-03-20T09:34:08.000Z</time></trkpt><trkpt lon="5.93549" lat="51.157858"><ele>-10.8</ele><time>2022-03-20T09:34:09.000Z</time></trkpt><trkpt lon="5.935414" lat="51.157839"><ele>-11.2</ele><time>2022-03-20T09:34:10.000Z</time></trkpt><trkpt lon="5.93534" lat="51.157804"><ele>-11.6</ele><time>2022-03-20T09:34:11.000Z</time></trkpt><trkpt lon="5.935262" lat="51.157757"><ele>-11.8</ele><time>2022-03-20T09:34:12.000Z</time></trkpt><trkpt lon="5.935181" lat="51.157702"><ele>-12</ele><time>2022-03-20T09:34:13.000Z</time></trkpt><trkpt lon="5.935097" lat="51.157648"><ele>-12</ele><time>2022-03-20T09:34:14.000Z</time></trkpt><trkpt lon="5.935008" lat="51.157594"><ele>-12.2</ele><time>2022-03-20T09:34:15.000Z</time></trkpt><trkpt lon="5.934912" lat="51.157544"><ele>-12.4</ele><time>2022-03-20T09:34:16.000Z</time></trkpt><trkpt lon="5.934811" lat="51.157497"><ele>-12.6</ele><time>2022-03-20T09:34:17.000Z</time></trkpt><trkpt lon="5.934712" lat="51.157451"><ele>-12.4</ele><time>2022-03-20T09:34:18.000Z</time></trkpt><trkpt lon="5.934614" lat="51.157409"><ele>-12.6</ele><time>2022-03-20T09:34:19.000Z</time></trkpt><trkpt lon="5.934516" lat="51.157373"><ele>-12.4</ele><time>2022-03-20T09:34:20.000Z</time></trkpt><trkpt lon="5.934414" lat="51.157341"><ele>-12.4</ele><time>2022-03-20T09:34:21.000Z</time></trkpt><trkpt lon="5.934314" lat="51.157307"><ele>-12.4</ele><time>2022-03-20T09:34:22.000Z</time></trkpt><trkpt lon="5.934211" lat="51.157276"><ele>-12.4</ele><time>2022-03-20T09:34:23.000Z</time></trkpt><trkpt lon="5.934105" lat="51.157248"><ele>-12.6</ele><time>2022-03-20T09:34:24.000Z</time></trkpt><trkpt lon="5.933998" lat="51.157224"><ele>-12.6</ele><time>2022-03-20T09:34:25.000Z</time></trkpt><trkpt lon="5.933892" lat="51.157201"><ele>-12.6</ele><time>2022-03-20T09:34:26.000Z</time></trkpt><trkpt lon="5.933803" lat="51.157182"><ele>-12.6</ele><time>2022-03-20T09:34:27.000Z</time></trkpt><trkpt lon="5.933686" lat="51.157157"><ele>-12.8</ele><time>2022-03-20T09:34:28.000Z</time></trkpt><trkpt lon="5.93357" lat="51.157133"><ele>-13</ele><time>2022-03-20T09:34:29.000Z</time></trkpt><trkpt lon="5.933458" lat="51.157113"><ele>-13</ele><time>2022-03-20T09:34:30.000Z</time></trkpt><trkpt lon="5.933348" lat="51.157094"><ele>-13</ele><time>2022-03-20T09:34:31.000Z</time></trkpt><trkpt lon="5.933238" lat="51.157078"><ele>-13</ele><time>2022-03-20T09:34:32.000Z</time></trkpt><trkpt lon="5.933127" lat="51.157065"><ele>-13</ele><time>2022-03-20T09:34:33.000Z</time></trkpt><trkpt lon="5.933014" lat="51.157051"><ele>-13.2</ele><time>2022-03-20T09:34:34.000Z</time></trkpt><trkpt lon="5.932905" lat="51.157033"><ele>-13</ele><time>2022-03-20T09:34:35.000Z</time></trkpt><trkpt lon="5.932792" lat="51.157019"><ele>-13</ele><time>2022-03-20T09:34:36.000Z</time></trkpt><trkpt lon="5.932682" lat="51.157005"><ele>-13</ele><time>2022-03-20T09:34:37.000Z</time></trkpt><trkpt lon="5.932572" lat="51.156993"><ele>-13</ele><time>2022-03-20T09:34:38.000Z</time></trkpt><trkpt lon="5.93246" lat="51.156978"><ele>-13.2</ele><time>2022-03-20T09:34:39.000Z</time></trkpt><trkpt lon="5.932347" lat="51.156963"><ele>-13.2</ele><time>2022-03-20T09:34:40.000Z</time></trkpt><trkpt lon="5.932235" lat="51.156948"><ele>-13.2</ele><time>2022-03-20T09:34:41.000Z</time></trkpt><trkpt lon="5.932119" lat="51.156936"><ele>-13.2</ele><time>2022-03-20T09:34:42.000Z</time></trkpt><trkpt lon="5.932003" lat="51.156921"><ele>-13.2</ele><time>2022-03-20T09:34:43.000Z</time></trkpt><trkpt lon="5.931891" lat="51.156903"><ele>-13.2</ele><time>2022-03-20T09:34:44.000Z</time></trkpt><trkpt lon="5.93178" lat="51.156884"><ele>-13</ele><time>2022-03-20T09:34:45.000Z</time></trkpt><trkpt lon="5.93167" lat="51.156865"><ele>-13</ele><time>2022-03-20T09:34:46.000Z</time></trkpt><trkpt lon="5.931558" lat="51.156849"><ele>-13</ele><time>2022-03-20T09:34:47.000Z</time></trkpt><trkpt lon="5.931445" lat="51.15683"><ele>-13</ele><time>2022-03-20T09:34:48.000Z</time></trkpt><trkpt lon="5.931331" lat="51.156809"><ele>-13.2</ele><time>2022-03-20T09:34:49.000Z</time></trkpt><trkpt lon="5.931216" lat="51.156786"><ele>-13.2</ele><time>2022-03-20T09:34:50.000Z</time></trkpt><trkpt lon="5.931105" lat="51.156763"><ele>-13.2</ele><time>2022-03-20T09:34:51.000Z</time></trkpt><trkpt lon="5.930994" lat="51.156743"><ele>-13.2</ele><time>2022-03-20T09:34:52.000Z</time></trkpt><trkpt lon="5.930884" lat="51.156724"><ele>-13</ele><time>2022-03-20T09:34:53.000Z</time></trkpt><trkpt lon="5.93077" lat="51.156705"><ele>-13</ele><time>2022-03-20T09:34:54.000Z</time></trkpt><trkpt lon="5.930658" lat="51.156683"><ele>-13.2</ele><time>2022-03-20T09:34:55.000Z</time></trkpt><trkpt lon="5.930547" lat="51.156663"><ele>-13.2</ele><time>2022-03-20T09:34:56.000Z</time></trkpt><trkpt lon="5.93044" lat="51.156644"><ele>-13.4</ele><time>2022-03-20T09:34:57.000Z</time></trkpt><trkpt lon="5.930337" lat="51.156625"><ele>-13.4</ele><time>2022-03-20T09:34:58.000Z</time></trkpt><trkpt lon="5.93023" lat="51.156609"><ele>-13.4</ele><time>2022-03-20T09:34:59.000Z</time></trkpt><trkpt lon="5.930123" lat="51.156587"><ele>-13.6</ele><time>2022-03-20T09:35:00.000Z</time></trkpt><trkpt lon="5.930016" lat="51.156567"><ele>-13.6</ele><time>2022-03-20T09:35:01.000Z</time></trkpt><trkpt lon="5.92991" lat="51.156548"><ele>-13.4</ele><time>2022-03-20T09:35:02.000Z</time></trkpt><trkpt lon="5.929803" lat="51.156526"><ele>-13.4</ele><time>2022-03-20T09:35:03.000Z</time></trkpt><trkpt lon="5.929693" lat="51.156506"><ele>-13.2</ele><time>2022-03-20T09:35:04.000Z</time></trkpt><trkpt lon="5.929585" lat="51.156484"><ele>-13.2</ele><time>2022-03-20T09:35:05.000Z</time></trkpt><trkpt lon="5.92948" lat="51.156464"><ele>-13.2</ele><time>2022-03-20T09:35:06.000Z</time></trkpt><trkpt lon="5.929376" lat="51.156448"><ele>-13.2</ele><time>2022-03-20T09:35:07.000Z</time></trkpt><trkpt lon="5.929267" lat="51.156436"><ele>-13.2</ele><time>2022-03-20T09:35:08.000Z</time></trkpt><trkpt lon="5.929162" lat="51.156427"><ele>-13</ele><time>2022-03-20T09:35:09.000Z</time></trkpt><trkpt lon="5.929055" lat="51.156423"><ele>-13</ele><time>2022-03-20T09:35:10.000Z</time></trkpt><trkpt lon="5.928944" lat="51.156416"><ele>-13</ele><time>2022-03-20T09:35:11.000Z</time></trkpt><trkpt lon="5.928829" lat="51.156411"><ele>-13</ele><time>2022-03-20T09:35:12.000Z</time></trkpt><trkpt lon="5.928714" lat="51.156407"><ele>-13</ele><time>2022-03-20T09:35:13.000Z</time></trkpt><trkpt lon="5.928589" lat="51.156401"><ele>-13</ele><time>2022-03-20T09:35:14.000Z</time></trkpt><trkpt lon="5.928466" lat="51.156399"><ele>-13</ele><time>2022-03-20T09:35:15.000Z</time></trkpt><trkpt lon="5.92834" lat="51.156399"><ele>-13</ele><time>2022-03-20T09:35:16.000Z</time></trkpt><trkpt lon="5.928215" lat="51.156396"><ele>-13</ele><time>2022-03-20T09:35:17.000Z</time></trkpt><trkpt lon="5.928091" lat="51.156395"><ele>-13</ele><time>2022-03-20T09:35:18.000Z</time></trkpt><trkpt lon="5.927967" lat="51.156395"><ele>-13</ele><time>2022-03-20T09:35:19.000Z</time></trkpt><trkpt lon="5.927847" lat="51.156392"><ele>-13</ele><time>2022-03-20T09:35:20.000Z</time></trkpt><trkpt lon="5.927729" lat="51.156388"><ele>-12.8</ele><time>2022-03-20T09:35:21.000Z</time></trkpt><trkpt lon="5.927611" lat="51.156387"><ele>-12.8</ele><time>2022-03-20T09:35:22.000Z</time></trkpt><trkpt lon="5.927489" lat="51.156387"><ele>-12.8</ele><time>2022-03-20T09:35:23.000Z</time></trkpt><trkpt lon="5.927369" lat="51.15639"><ele>-12.8</ele><time>2022-03-20T09:35:24.000Z</time></trkpt><trkpt lon="5.927248" lat="51.156391"><ele>-12.8</ele><time>2022-03-20T09:35:25.000Z</time></trkpt><trkpt lon="5.927127" lat="51.156394"><ele>-12.6</ele><time>2022-03-20T09:35:26.000Z</time></trkpt><trkpt lon="5.927007" lat="51.156398"><ele>-12.6</ele><time>2022-03-20T09:35:27.000Z</time></trkpt><trkpt lon="5.926886" lat="51.156405"><ele>-12.8</ele><time>2022-03-20T09:35:28.000Z</time></trkpt><trkpt lon="5.926768" lat="51.156409"><ele>-12.8</ele><time>2022-03-20T09:35:29.000Z</time></trkpt><trkpt lon="5.926647" lat="51.156416"><ele>-12.8</ele><time>2022-03-20T09:35:30.000Z</time></trkpt><trkpt lon="5.926527" lat="51.156421"><ele>-12.8</ele><time>2022-03-20T09:35:31.000Z</time></trkpt><trkpt lon="5.926411" lat="51.156425"><ele>-12.8</ele><time>2022-03-20T09:35:32.000Z</time></trkpt><trkpt lon="5.926291" lat="51.156434"><ele>-12.6</ele><time>2022-03-20T09:35:33.000Z</time></trkpt><trkpt lon="5.926173" lat="51.156446"><ele>-12.6</ele><time>2022-03-20T09:35:34.000Z</time></trkpt><trkpt lon="5.926066" lat="51.156456"><ele>-12.6</ele><time>2022-03-20T09:35:35.000Z</time></trkpt><trkpt lon="5.925941" lat="51.156468"><ele>-12.6</ele><time>2022-03-20T09:35:36.000Z</time></trkpt><trkpt lon="5.925821" lat="51.156483"><ele>-12.6</ele><time>2022-03-20T09:35:37.000Z</time></trkpt><trkpt lon="5.925706" lat="51.156498"><ele>-12.6</ele><time>2022-03-20T09:35:38.000Z</time></trkpt><trkpt lon="5.925593" lat="51.15651"><ele>-12.8</ele><time>2022-03-20T09:35:39.000Z</time></trkpt><trkpt lon="5.925476" lat="51.156522"><ele>-12.8</ele><time>2022-03-20T09:35:40.000Z</time></trkpt><trkpt lon="5.925361" lat="51.156536"><ele>-12.8</ele><time>2022-03-20T09:35:41.000Z</time></trkpt><trkpt lon="5.925245" lat="51.156549"><ele>-12.8</ele><time>2022-03-20T09:35:42.000Z</time></trkpt><trkpt lon="5.925133" lat="51.15656"><ele>-12.8</ele><time>2022-03-20T09:35:43.000Z</time></trkpt><trkpt lon="5.925022" lat="51.156575"><ele>-12.6</ele><time>2022-03-20T09:35:44.000Z</time></trkpt><trkpt lon="5.924911" lat="51.15659"><ele>-12.6</ele><time>2022-03-20T09:35:45.000Z</time></trkpt><trkpt lon="5.924799" lat="51.156605"><ele>-12.6</ele><time>2022-03-20T09:35:46.000Z</time></trkpt><trkpt lon="5.924691" lat="51.15662"><ele>-12.6</ele><time>2022-03-20T09:35:47.000Z</time></trkpt><trkpt lon="5.92458" lat="51.156636"><ele>-12.6</ele><time>2022-03-20T09:35:48.000Z</time></trkpt><trkpt lon="5.924467" lat="51.156651"><ele>-12.6</ele><time>2022-03-20T09:35:49.000Z</time></trkpt><trkpt lon="5.924356" lat="51.156669"><ele>-12.6</ele><time>2022-03-20T09:35:50.000Z</time></trkpt><trkpt lon="5.924241" lat="51.156688"><ele>-12.4</ele><time>2022-03-20T09:35:51.000Z</time></trkpt><trkpt lon="5.924129" lat="51.156707"><ele>-12.4</ele><time>2022-03-20T09:35:52.000Z</time></trkpt><trkpt lon="5.924013" lat="51.156723"><ele>-12.2</ele><time>2022-03-20T09:35:53.000Z</time></trkpt><trkpt lon="5.923898" lat="51.156744"><ele>-12.2</ele><time>2022-03-20T09:35:54.000Z</time></trkpt><trkpt lon="5.923785" lat="51.156761"><ele>-12</ele><time>2022-03-20T09:35:55.000Z</time></trkpt><trkpt lon="5.923675" lat="51.156777"><ele>-12</ele><time>2022-03-20T09:35:56.000Z</time></trkpt><trkpt lon="5.923566" lat="51.156795"><ele>-11.8</ele><time>2022-03-20T09:35:57.000Z</time></trkpt><trkpt lon="5.923456" lat="51.156814"><ele>-11.6</ele><time>2022-03-20T09:35:58.000Z</time></trkpt><trkpt lon="5.923348" lat="51.156835"><ele>-11.6</ele><time>2022-03-20T09:35:59.000Z</time></trkpt><trkpt lon="5.923236" lat="51.156862"><ele>-11.6</ele><time>2022-03-20T09:36:00.000Z</time></trkpt><trkpt lon="5.923127" lat="51.156886"><ele>-11.6</ele><time>2022-03-20T09:36:01.000Z</time></trkpt><trkpt lon="5.92302" lat="51.156914"><ele>-11.8</ele><time>2022-03-20T09:36:02.000Z</time></trkpt><trkpt lon="5.922917" lat="51.156944"><ele>-11.8</ele><time>2022-03-20T09:36:03.000Z</time></trkpt><trkpt lon="5.922817" lat="51.156975"><ele>-12.2</ele><time>2022-03-20T09:36:04.000Z</time></trkpt><trkpt lon="5.922724" lat="51.157014"><ele>-12.2</ele><time>2022-03-20T09:36:05.000Z</time></trkpt><trkpt lon="5.922633" lat="51.157057"><ele>-12.4</ele><time>2022-03-20T09:36:06.000Z</time></trkpt><trkpt lon="5.922549" lat="51.157098"><ele>-12.6</ele><time>2022-03-20T09:36:07.000Z</time></trkpt><trkpt lon="5.922467" lat="51.157146"><ele>-12.8</ele><time>2022-03-20T09:36:08.000Z</time></trkpt><trkpt lon="5.922387" lat="51.157198"><ele>-12.8</ele><time>2022-03-20T09:36:09.000Z</time></trkpt><trkpt lon="5.922306" lat="51.157258"><ele>-13</ele><time>2022-03-20T09:36:10.000Z</time></trkpt><trkpt lon="5.922229" lat="51.157319"><ele>-13</ele><time>2022-03-20T09:36:11.000Z</time></trkpt><trkpt lon="5.922158" lat="51.157382"><ele>-13.2</ele><time>2022-03-20T09:36:12.000Z</time></trkpt><trkpt lon="5.922088" lat="51.15745"><ele>-13.4</ele><time>2022-03-20T09:36:13.000Z</time></trkpt><trkpt lon="5.922021" lat="51.157516"><ele>-13.6</ele><time>2022-03-20T09:36:14.000Z</time></trkpt><trkpt lon="5.921955" lat="51.157581"><ele>-13.6</ele><time>2022-03-20T09:36:15.000Z</time></trkpt><trkpt lon="5.921891" lat="51.157643"><ele>-13.6</ele><time>2022-03-20T09:36:16.000Z</time></trkpt><trkpt lon="5.921827" lat="51.157698"><ele>-13.4</ele><time>2022-03-20T09:36:17.000Z</time></trkpt><trkpt lon="5.921766" lat="51.157755"><ele>-13.4</ele><time>2022-03-20T09:36:18.000Z</time></trkpt><trkpt lon="5.921712" lat="51.157817"><ele>-13.6</ele><time>2022-03-20T09:36:19.000Z</time></trkpt><trkpt lon="5.921669" lat="51.157879"><ele>-13.6</ele><time>2022-03-20T09:36:20.000Z</time></trkpt><trkpt lon="5.921633" lat="51.157943"><ele>-13.6</ele><time>2022-03-20T09:36:21.000Z</time></trkpt><trkpt lon="5.92161" lat="51.15801"><ele>-13.6</ele><time>2022-03-20T09:36:22.000Z</time></trkpt><trkpt lon="5.921597" lat="51.158083"><ele>-13.8</ele><time>2022-03-20T09:36:23.000Z</time></trkpt><trkpt lon="5.921589" lat="51.158156"><ele>-13.8</ele><time>2022-03-20T09:36:24.000Z</time></trkpt><trkpt lon="5.921583" lat="51.158228"><ele>-14</ele><time>2022-03-20T09:36:25.000Z</time></trkpt><trkpt lon="5.92158" lat="51.158301"><ele>-14</ele><time>2022-03-20T09:36:26.000Z</time></trkpt><trkpt lon="5.92158" lat="51.158372"><ele>-14.2</ele><time>2022-03-20T09:36:27.000Z</time></trkpt><trkpt lon="5.92158" lat="51.158445"><ele>-14.2</ele><time>2022-03-20T09:36:28.000Z</time></trkpt><trkpt lon="5.921579" lat="51.158517"><ele>-14</ele><time>2022-03-20T09:36:29.000Z</time></trkpt><trkpt lon="5.921581" lat="51.158587"><ele>-13.8</ele><time>2022-03-20T09:36:30.000Z</time></trkpt><trkpt lon="5.921585" lat="51.158658"><ele>-13.8</ele><time>2022-03-20T09:36:31.000Z</time></trkpt><trkpt lon="5.921592" lat="51.158731"><ele>-13.6</ele><time>2022-03-20T09:36:32.000Z</time></trkpt><trkpt lon="5.921602" lat="51.158801"><ele>-13.6</ele><time>2022-03-20T09:36:33.000Z</time></trkpt><trkpt lon="5.921619" lat="51.158869"><ele>-13.6</ele><time>2022-03-20T09:36:34.000Z</time></trkpt><trkpt lon="5.921643" lat="51.158938"><ele>-13.8</ele><time>2022-03-20T09:36:35.000Z</time></trkpt><trkpt lon="5.921676" lat="51.159007"><ele>-13.8</ele><time>2022-03-20T09:36:36.000Z</time></trkpt><trkpt lon="5.921717" lat="51.159073"><ele>-14</ele><time>2022-03-20T09:36:37.000Z</time></trkpt><trkpt lon="5.921761" lat="51.159141"><ele>-14</ele><time>2022-03-20T09:36:38.000Z</time></trkpt><trkpt lon="5.921811" lat="51.159204"><ele>-14.2</ele><time>2022-03-20T09:36:39.000Z</time></trkpt><trkpt lon="5.921862" lat="51.15927"><ele>-14.2</ele><time>2022-03-20T09:36:40.000Z</time></trkpt><trkpt lon="5.921906" lat="51.159336"><ele>-14</ele><time>2022-03-20T09:36:41.000Z</time></trkpt><trkpt lon="5.921938" lat="51.159404"><ele>-14</ele><time>2022-03-20T09:36:42.000Z</time></trkpt><trkpt lon="5.921958" lat="51.159475"><ele>-13.8</ele><time>2022-03-20T09:36:43.000Z</time></trkpt><trkpt lon="5.921963" lat="51.159547"><ele>-14</ele><time>2022-03-20T09:36:44.000Z</time></trkpt><trkpt lon="5.921953" lat="51.159619"><ele>-14</ele><time>2022-03-20T09:36:45.000Z</time></trkpt><trkpt lon="5.921935" lat="51.159692"><ele>-14.2</ele><time>2022-03-20T09:36:46.000Z</time></trkpt><trkpt lon="5.921913" lat="51.159762"><ele>-14.2</ele><time>2022-03-20T09:36:47.000Z</time></trkpt><trkpt lon="5.921889" lat="51.159834"><ele>-14.2</ele><time>2022-03-20T09:36:48.000Z</time></trkpt><trkpt lon="5.921865" lat="51.159903"><ele>-14.2</ele><time>2022-03-20T09:36:49.000Z</time></trkpt><trkpt lon="5.921843" lat="51.159978"><ele>-14.2</ele><time>2022-03-20T09:36:50.000Z</time></trkpt><trkpt lon="5.921824" lat="51.160052"><ele>-14.2</ele><time>2022-03-20T09:36:51.000Z</time></trkpt><trkpt lon="5.92181" lat="51.16012"><ele>-14.2</ele><time>2022-03-20T09:36:52.000Z</time></trkpt><trkpt lon="5.921804" lat="51.160191"><ele>-14.2</ele><time>2022-03-20T09:36:53.000Z</time></trkpt><trkpt lon="5.921805" lat="51.160262"><ele>-14.2</ele><time>2022-03-20T09:36:54.000Z</time></trkpt><trkpt lon="5.921807" lat="51.160334"><ele>-14</ele><time>2022-03-20T09:36:55.000Z</time></trkpt><trkpt lon="5.921812" lat="51.160405"><ele>-14</ele><time>2022-03-20T09:36:56.000Z</time></trkpt><trkpt lon="5.921819" lat="51.160473"><ele>-14.2</ele><time>2022-03-20T09:36:57.000Z</time></trkpt><trkpt lon="5.921828" lat="51.160543"><ele>-14.2</ele><time>2022-03-20T09:36:58.000Z</time></trkpt><trkpt lon="5.921834" lat="51.160612"><ele>-14.2</ele><time>2022-03-20T09:36:59.000Z</time></trkpt><trkpt lon="5.92184" lat="51.160682"><ele>-14.2</ele><time>2022-03-20T09:37:00.000Z</time></trkpt><trkpt lon="5.921844" lat="51.16075"><ele>-14.4</ele><time>2022-03-20T09:37:01.000Z</time></trkpt><trkpt lon="5.921845" lat="51.160822"><ele>-14.4</ele><time>2022-03-20T09:37:02.000Z</time></trkpt><trkpt lon="5.92184" lat="51.160894"><ele>-14.4</ele><time>2022-03-20T09:37:03.000Z</time></trkpt><trkpt lon="5.921828" lat="51.160964"><ele>-14.4</ele><time>2022-03-20T09:37:04.000Z</time></trkpt><trkpt lon="5.921812" lat="51.161029"><ele>-14.4</ele><time>2022-03-20T09:37:05.000Z</time></trkpt><trkpt lon="5.921794" lat="51.161103"><ele>-14.4</ele><time>2022-03-20T09:37:06.000Z</time></trkpt><trkpt lon="5.921782" lat="51.16118"><ele>-14.4</ele><time>2022-03-20T09:37:07.000Z</time></trkpt><trkpt lon="5.921774" lat="51.161254"><ele>-14.4</ele><time>2022-03-20T09:37:08.000Z</time></trkpt><trkpt lon="5.92177" lat="51.161324"><ele>-14.6</ele><time>2022-03-20T09:37:09.000Z</time></trkpt><trkpt lon="5.92177" lat="51.161397"><ele>-14.6</ele><time>2022-03-20T09:37:10.000Z</time></trkpt><trkpt lon="5.921768" lat="51.16147"><ele>-14.6</ele><time>2022-03-20T09:37:11.000Z</time></trkpt><trkpt lon="5.921767" lat="51.161543"><ele>-14.6</ele><time>2022-03-20T09:37:12.000Z</time></trkpt><trkpt lon="5.921767" lat="51.161607"><ele>-14.6</ele><time>2022-03-20T09:37:13.000Z</time></trkpt><trkpt lon="5.921765" lat="51.161674"><ele>-14.6</ele><time>2022-03-20T09:37:14.000Z</time></trkpt><trkpt lon="5.921759" lat="51.161742"><ele>-14.6</ele><time>2022-03-20T09:37:15.000Z</time></trkpt><trkpt lon="5.921753" lat="51.161812"><ele>-14.4</ele><time>2022-03-20T09:37:16.000Z</time></trkpt><trkpt lon="5.921749" lat="51.161882"><ele>-14.4</ele><time>2022-03-20T09:37:17.000Z</time></trkpt><trkpt lon="5.921747" lat="51.161949"><ele>-14.4</ele><time>2022-03-20T09:37:18.000Z</time></trkpt><trkpt lon="5.921747" lat="51.162018"><ele>-14.4</ele><time>2022-03-20T09:37:19.000Z</time></trkpt><trkpt lon="5.921744" lat="51.162089"><ele>-14.4</ele><time>2022-03-20T09:37:20.000Z</time></trkpt><trkpt lon="5.921743" lat="51.162164"><ele>-14.4</ele><time>2022-03-20T09:37:21.000Z</time></trkpt><trkpt lon="5.921743" lat="51.162234"><ele>-14.4</ele><time>2022-03-20T09:37:22.000Z</time></trkpt><trkpt lon="5.921744" lat="51.162302"><ele>-14.4</ele><time>2022-03-20T09:37:23.000Z</time></trkpt><trkpt lon="5.921742" lat="51.162372"><ele>-14.4</ele><time>2022-03-20T09:37:24.000Z</time></trkpt><trkpt lon="5.921736" lat="51.162441"><ele>-14.4</ele><time>2022-03-20T09:37:25.000Z</time></trkpt><trkpt lon="5.921731" lat="51.162506"><ele>-14.4</ele><time>2022-03-20T09:37:26.000Z</time></trkpt><trkpt lon="5.921728" lat="51.162577"><ele>-14.4</ele><time>2022-03-20T09:37:27.000Z</time></trkpt><trkpt lon="5.921722" lat="51.162652"><ele>-14.4</ele><time>2022-03-20T09:37:28.000Z</time></trkpt><trkpt lon="5.921716" lat="51.162725"><ele>-14.4</ele><time>2022-03-20T09:37:29.000Z</time></trkpt><trkpt lon="5.92171" lat="51.162807"><ele>-14.2</ele><time>2022-03-20T09:37:30.000Z</time></trkpt><trkpt lon="5.921707" lat="51.162891"><ele>-14.2</ele><time>2022-03-20T09:37:31.000Z</time></trkpt><trkpt lon="5.921709" lat="51.162972"><ele>-14.2</ele><time>2022-03-20T09:37:32.000Z</time></trkpt><trkpt lon="5.92171" lat="51.163054"><ele>-14.2</ele><time>2022-03-20T09:37:33.000Z</time></trkpt><trkpt lon="5.921715" lat="51.163136"><ele>-14.2</ele><time>2022-03-20T09:37:34.000Z</time></trkpt><trkpt lon="5.921721" lat="51.163206"><ele>-14.2</ele><time>2022-03-20T09:37:35.000Z</time></trkpt><trkpt lon="5.921731" lat="51.163289"><ele>-14.2</ele><time>2022-03-20T09:37:36.000Z</time></trkpt><trkpt lon="5.921741" lat="51.163375"><ele>-14.4</ele><time>2022-03-20T09:37:37.000Z</time></trkpt><trkpt lon="5.921754" lat="51.163453"><ele>-14.4</ele><time>2022-03-20T09:37:38.000Z</time></trkpt><trkpt lon="5.92177" lat="51.163529"><ele>-14.4</ele><time>2022-03-20T09:37:39.000Z</time></trkpt><trkpt lon="5.921792" lat="51.163609"><ele>-14.6</ele><time>2022-03-20T09:37:40.000Z</time></trkpt><trkpt lon="5.921813" lat="51.163689"><ele>-14.6</ele><time>2022-03-20T09:37:41.000Z</time></trkpt><trkpt lon="5.921838" lat="51.163766"><ele>-14.6</ele><time>2022-03-20T09:37:42.000Z</time></trkpt><trkpt lon="5.921866" lat="51.163841"><ele>-14.6</ele><time>2022-03-20T09:37:43.000Z</time></trkpt><trkpt lon="5.921896" lat="51.163917"><ele>-14.6</ele><time>2022-03-20T09:37:44.000Z</time></trkpt><trkpt lon="5.921927" lat="51.163994"><ele>-14.6</ele><time>2022-03-20T09:37:45.000Z</time></trkpt><trkpt lon="5.921962" lat="51.164065"><ele>-14.6</ele><time>2022-03-20T09:37:46.000Z</time></trkpt><trkpt lon="5.921994" lat="51.164139"><ele>-14.8</ele><time>2022-03-20T09:37:47.000Z</time></trkpt><trkpt lon="5.922027" lat="51.164213"><ele>-14.6</ele><time>2022-03-20T09:37:48.000Z</time></trkpt><trkpt lon="5.92206" lat="51.16428"><ele>-14.6</ele><time>2022-03-20T09:37:49.000Z</time></trkpt><trkpt lon="5.922092" lat="51.164347"><ele>-14.6</ele><time>2022-03-20T09:37:50.000Z</time></trkpt><trkpt lon="5.922125" lat="51.164416"><ele>-14.6</ele><time>2022-03-20T09:37:51.000Z</time></trkpt><trkpt lon="5.922157" lat="51.164485"><ele>-14.6</ele><time>2022-03-20T09:37:52.000Z</time></trkpt><trkpt lon="5.92219" lat="51.164556"><ele>-14.4</ele><time>2022-03-20T09:37:53.000Z</time></trkpt><trkpt lon="5.922222" lat="51.164629"><ele>-14.4</ele><time>2022-03-20T09:37:54.000Z</time></trkpt><trkpt lon="5.922255" lat="51.164699"><ele>-14.4</ele><time>2022-03-20T09:37:55.000Z</time></trkpt><trkpt lon="5.92229" lat="51.164767"><ele>-14.4</ele><time>2022-03-20T09:37:56.000Z</time></trkpt><trkpt lon="5.922325" lat="51.164836"><ele>-14.4</ele><time>2022-03-20T09:37:57.000Z</time></trkpt><trkpt lon="5.922363" lat="51.164902"><ele>-14.4</ele><time>2022-03-20T09:37:58.000Z</time></trkpt><trkpt lon="5.9224" lat="51.164967"><ele>-14.4</ele><time>2022-03-20T09:37:59.000Z</time></trkpt><trkpt lon="5.922436" lat="51.165035"><ele>-14.4</ele><time>2022-03-20T09:38:00.000Z</time></trkpt><trkpt lon="5.922473" lat="51.165101"><ele>-14.4</ele><time>2022-03-20T09:38:01.000Z</time></trkpt><trkpt lon="5.922507" lat="51.165168"><ele>-14.4</ele><time>2022-03-20T09:38:02.000Z</time></trkpt><trkpt lon="5.922535" lat="51.165237"><ele>-14.4</ele><time>2022-03-20T09:38:03.000Z</time></trkpt><trkpt lon="5.922556" lat="51.165307"><ele>-14.4</ele><time>2022-03-20T09:38:04.000Z</time></trkpt><trkpt lon="5.922563" lat="51.165376"><ele>-14.6</ele><time>2022-03-20T09:38:05.000Z</time></trkpt><trkpt lon="5.922555" lat="51.165449"><ele>-14.4</ele><time>2022-03-20T09:38:06.000Z</time></trkpt><trkpt lon="5.922533" lat="51.165522"><ele>-14.6</ele><time>2022-03-20T09:38:07.000Z</time></trkpt><trkpt lon="5.922499" lat="51.165595"><ele>-14.6</ele><time>2022-03-20T09:38:08.000Z</time></trkpt><trkpt lon="5.922458" lat="51.165663"><ele>-14.6</ele><time>2022-03-20T09:38:09.000Z</time></trkpt><trkpt lon="5.922415" lat="51.165732"><ele>-14.6</ele><time>2022-03-20T09:38:10.000Z</time></trkpt><trkpt lon="5.922378" lat="51.165801"><ele>-14.6</ele><time>2022-03-20T09:38:11.000Z</time></trkpt><trkpt lon="5.922352" lat="51.165873"><ele>-14.6</ele><time>2022-03-20T09:38:12.000Z</time></trkpt><trkpt lon="5.922339" lat="51.165942"><ele>-14.6</ele><time>2022-03-20T09:38:13.000Z</time></trkpt><trkpt lon="5.922334" lat="51.166011"><ele>-14.4</ele><time>2022-03-20T09:38:14.000Z</time></trkpt><trkpt lon="5.922333" lat="51.166078"><ele>-14.6</ele><time>2022-03-20T09:38:15.000Z</time></trkpt><trkpt lon="5.922337" lat="51.166144"><ele>-14.6</ele><time>2022-03-20T09:38:16.000Z</time></trkpt><trkpt lon="5.922346" lat="51.166206"><ele>-14.6</ele><time>2022-03-20T09:38:17.000Z</time></trkpt><trkpt lon="5.922359" lat="51.166262"><ele>-14.6</ele><time>2022-03-20T09:38:18.000Z</time></trkpt><trkpt lon="5.922375" lat="51.166316"><ele>-14.4</ele><time>2022-03-20T09:38:19.000Z</time></trkpt><trkpt lon="5.922387" lat="51.166369"><ele>-14.4</ele><time>2022-03-20T09:38:20.000Z</time></trkpt><trkpt lon="5.922387" lat="51.166419"><ele>-14</ele><time>2022-03-20T09:38:21.000Z</time></trkpt><trkpt lon="5.922369" lat="51.166463"><ele>-13.8</ele><time>2022-03-20T09:38:22.000Z</time></trkpt><trkpt lon="5.922334" lat="51.166499"><ele>-13.6</ele><time>2022-03-20T09:38:23.000Z</time></trkpt><trkpt lon="5.922286" lat="51.166528"><ele>-13.4</ele><time>2022-03-20T09:38:24.000Z</time></trkpt><trkpt lon="5.922233" lat="51.166549"><ele>-13.4</ele><time>2022-03-20T09:38:25.000Z</time></trkpt><trkpt lon="5.922179" lat="51.166565"><ele>-13.2</ele><time>2022-03-20T09:38:26.000Z</time></trkpt><trkpt lon="5.922135" lat="51.166586"><ele>-13.2</ele><time>2022-03-20T09:38:27.000Z</time></trkpt><trkpt lon="5.922102" lat="51.166612"><ele>-13.2</ele><time>2022-03-20T09:38:28.000Z</time></trkpt><trkpt lon="5.922081" lat="51.166638"><ele>-13.2</ele><time>2022-03-20T09:38:29.000Z</time></trkpt><trkpt lon="5.922073" lat="51.166665"><ele>-13</ele><time>2022-03-20T09:38:30.000Z</time></trkpt><trkpt lon="5.922074" lat="51.166692"><ele>-13</ele><time>2022-03-20T09:38:31.000Z</time></trkpt><trkpt lon="5.922081" lat="51.166719"><ele>-13</ele><time>2022-03-20T09:38:32.000Z</time></trkpt><trkpt lon="5.922095" lat="51.166748"><ele>-13</ele><time>2022-03-20T09:38:33.000Z</time></trkpt><trkpt lon="5.922116" lat="51.166778"><ele>-13</ele><time>2022-03-20T09:38:34.000Z</time></trkpt><trkpt lon="5.922148" lat="51.166804"><ele>-13</ele><time>2022-03-20T09:38:35.000Z</time></trkpt><trkpt lon="5.922197" lat="51.16683"><ele>-13</ele><time>2022-03-20T09:38:36.000Z</time></trkpt><trkpt lon="5.922256" lat="51.166848"><ele>-13</ele><time>2022-03-20T09:38:37.000Z</time></trkpt><trkpt lon="5.922326" lat="51.166857"><ele>-13</ele><time>2022-03-20T09:38:38.000Z</time></trkpt><trkpt lon="5.922406" lat="51.166864"><ele>-12.8</ele><time>2022-03-20T09:38:39.000Z</time></trkpt><trkpt lon="5.922497" lat="51.166866"><ele>-12.8</ele><time>2022-03-20T09:38:40.000Z</time></trkpt><trkpt lon="5.922592" lat="51.166869"><ele>-12.6</ele><time>2022-03-20T09:38:41.000Z</time></trkpt><trkpt lon="5.922683" lat="51.16687"><ele>-12.4</ele><time>2022-03-20T09:38:42.000Z</time></trkpt><trkpt lon="5.922768" lat="51.166873"><ele>-12.4</ele><time>2022-03-20T09:38:43.000Z</time></trkpt><trkpt lon="5.922846" lat="51.166885"><ele>-12.2</ele><time>2022-03-20T09:38:44.000Z</time></trkpt><trkpt lon="5.922916" lat="51.166912"><ele>-12</ele><time>2022-03-20T09:38:45.000Z</time></trkpt><trkpt lon="5.92297" lat="51.166949"><ele>-11.6</ele><time>2022-03-20T09:38:46.000Z</time></trkpt><trkpt lon="5.923006" lat="51.16699"><ele>-11.4</ele><time>2022-03-20T09:38:47.000Z</time></trkpt><trkpt lon="5.923026" lat="51.167035"><ele>-11.2</ele><time>2022-03-20T09:38:48.000Z</time></trkpt><trkpt lon="5.923036" lat="51.167083"><ele>-11</ele><time>2022-03-20T09:38:49.000Z</time></trkpt><trkpt lon="5.923042" lat="51.167133"><ele>-10.6</ele><time>2022-03-20T09:38:50.000Z</time></trkpt><trkpt lon="5.923046" lat="51.167183"><ele>-10.4</ele><time>2022-03-20T09:38:51.000Z</time></trkpt><trkpt lon="5.923048" lat="51.167229"><ele>-10.2</ele><time>2022-03-20T09:38:52.000Z</time></trkpt><trkpt lon="5.923051" lat="51.167278"><ele>-10.2</ele><time>2022-03-20T09:38:53.000Z</time></trkpt><trkpt lon="5.923053" lat="51.167325"><ele>-10</ele><time>2022-03-20T09:38:54.000Z</time></trkpt><trkpt lon="5.923051" lat="51.167368"><ele>-10</ele><time>2022-03-20T09:38:55.000Z</time></trkpt><trkpt lon="5.923039" lat="51.16741"><ele>-10</ele><time>2022-03-20T09:38:56.000Z</time></trkpt><trkpt lon="5.92301" lat="51.167449"><ele>-10</ele><time>2022-03-20T09:38:57.000Z</time></trkpt><trkpt lon="5.922967" lat="51.167481"><ele>-10</ele><time>2022-03-20T09:38:58.000Z</time></trkpt><trkpt lon="5.922915" lat="51.167503"><ele>-10</ele><time>2022-03-20T09:38:59.000Z</time></trkpt><trkpt lon="5.922855" lat="51.167513"><ele>-10</ele><time>2022-03-20T09:39:00.000Z</time></trkpt><trkpt lon="5.922794" lat="51.167518"><ele>-10</ele><time>2022-03-20T09:39:01.000Z</time></trkpt><trkpt lon="5.922733" lat="51.167522"><ele>-9.8</ele><time>2022-03-20T09:39:02.000Z</time></trkpt><trkpt lon="5.922675" lat="51.167525"><ele>-9.8</ele><time>2022-03-20T09:39:03.000Z</time></trkpt><trkpt lon="5.92262" lat="51.167529"><ele>-9.8</ele><time>2022-03-20T09:39:04.000Z</time></trkpt><trkpt lon="5.922577" lat="51.167541"><ele>-9.8</ele><time>2022-03-20T09:39:05.000Z</time></trkpt><trkpt lon="5.922545" lat="51.167563"><ele>-9.8</ele><time>2022-03-20T09:39:06.000Z</time></trkpt><trkpt lon="5.922526" lat="51.167594"><ele>-9.8</ele><time>2022-03-20T09:39:07.000Z</time></trkpt><trkpt lon="5.922515" lat="51.167629"><ele>-9.6</ele><time>2022-03-20T09:39:08.000Z</time></trkpt><trkpt lon="5.922511" lat="51.167657"><ele>-9.6</ele><time>2022-03-20T09:39:09.000Z</time></trkpt><trkpt lon="5.92251" lat="51.167693"><ele>-9.6</ele><time>2022-03-20T09:39:10.000Z</time></trkpt><trkpt lon="5.922509" lat="51.167728"><ele>-9.6</ele><time>2022-03-20T09:39:11.000Z</time></trkpt><trkpt lon="5.922506" lat="51.167759"><ele>-9.6</ele><time>2022-03-20T09:39:12.000Z</time></trkpt><trkpt lon="5.922509" lat="51.167792"><ele>-9.6</ele><time>2022-03-20T09:39:13.000Z</time></trkpt><trkpt lon="5.922514" lat="51.16783"><ele>-9.6</ele><time>2022-03-20T09:39:14.000Z</time></trkpt><trkpt lon="5.922509" lat="51.167871"><ele>-9.6</ele><time>2022-03-20T09:39:15.000Z</time></trkpt><trkpt lon="5.922503" lat="51.167916"><ele>-9.6</ele><time>2022-03-20T09:39:16.000Z</time></trkpt><trkpt lon="5.922499" lat="51.167962"><ele>-9.6</ele><time>2022-03-20T09:39:17.000Z</time></trkpt><trkpt lon="5.922496" lat="51.168008"><ele>-9.8</ele><time>2022-03-20T09:39:18.000Z</time></trkpt><trkpt lon="5.922494" lat="51.168058"><ele>-9.6</ele><time>2022-03-20T09:39:19.000Z</time></trkpt><trkpt lon="5.922495" lat="51.168106"><ele>-9.6</ele><time>2022-03-20T09:39:20.000Z</time></trkpt><trkpt lon="5.9225" lat="51.168149"><ele>-9.6</ele><time>2022-03-20T09:39:21.000Z</time></trkpt><trkpt lon="5.922509" lat="51.168194"><ele>-9.6</ele><time>2022-03-20T09:39:22.000Z</time></trkpt><trkpt lon="5.922518" lat="51.168246"><ele>-9.6</ele><time>2022-03-20T09:39:23.000Z</time></trkpt><trkpt lon="5.922526" lat="51.168308"><ele>-9.6</ele><time>2022-03-20T09:39:24.000Z</time></trkpt><trkpt lon="5.922535" lat="51.168372"><ele>-9.4</ele><time>2022-03-20T09:39:25.000Z</time></trkpt><trkpt lon="5.922543" lat="51.168432"><ele>-9.4</ele><time>2022-03-20T09:39:26.000Z</time></trkpt><trkpt lon="5.922549" lat="51.168489"><ele>-9.4</ele><time>2022-03-20T09:39:27.000Z</time></trkpt><trkpt lon="5.922554" lat="51.168547"><ele>-9.4</ele><time>2022-03-20T09:39:28.000Z</time></trkpt><trkpt lon="5.92256" lat="51.168603"><ele>-9.2</ele><time>2022-03-20T09:39:29.000Z</time></trkpt><trkpt lon="5.922564" lat="51.168655"><ele>-9.2</ele><time>2022-03-20T09:39:30.000Z</time></trkpt><trkpt lon="5.922569" lat="51.168699"><ele>-9.2</ele><time>2022-03-20T09:39:31.000Z</time></trkpt><trkpt lon="5.922566" lat="51.168737"><ele>-9.4</ele><time>2022-03-20T09:39:32.000Z</time></trkpt><trkpt lon="5.922547" lat="51.168776"><ele>-9.4</ele><time>2022-03-20T09:39:33.000Z</time></trkpt><trkpt lon="5.92251" lat="51.168803"><ele>-9.4</ele><time>2022-03-20T09:39:34.000Z</time></trkpt><trkpt lon="5.922472" lat="51.168828"><ele>-9.6</ele><time>2022-03-20T09:39:35.000Z</time></trkpt><trkpt lon="5.922448" lat="51.168861"><ele>-9.6</ele><time>2022-03-20T09:39:36.000Z</time></trkpt><trkpt lon="5.922446" lat="51.168901"><ele>-9.8</ele><time>2022-03-20T09:39:37.000Z</time></trkpt><trkpt lon="5.922456" lat="51.168952"><ele>-10</ele><time>2022-03-20T09:39:38.000Z</time></trkpt><trkpt lon="5.922473" lat="51.169001"><ele>-10.2</ele><time>2022-03-20T09:39:39.000Z</time></trkpt><trkpt lon="5.922509" lat="51.169054"><ele>-10.4</ele><time>2022-03-20T09:39:40.000Z</time></trkpt><trkpt lon="5.922572" lat="51.169102"><ele>-10.4</ele><time>2022-03-20T09:39:41.000Z</time></trkpt><trkpt lon="5.922651" lat="51.169142"><ele>-10.4</ele><time>2022-03-20T09:39:42.000Z</time></trkpt><trkpt lon="5.92273" lat="51.169169"><ele>-10.8</ele><time>2022-03-20T09:39:43.000Z</time></trkpt><trkpt lon="5.922821" lat="51.169194"><ele>-11.2</ele><time>2022-03-20T09:39:44.000Z</time></trkpt><trkpt lon="5.922918" lat="51.169207"><ele>-11.6</ele><time>2022-03-20T09:39:45.000Z</time></trkpt><trkpt lon="5.923018" lat="51.169206"><ele>-12</ele><time>2022-03-20T09:39:46.000Z</time></trkpt><trkpt lon="5.923118" lat="51.169196"><ele>-12.2</ele><time>2022-03-20T09:39:47.000Z</time></trkpt><trkpt lon="5.923219" lat="51.169187"><ele>-12.4</ele><time>2022-03-20T09:39:48.000Z</time></trkpt><trkpt lon="5.923316" lat="51.169177"><ele>-12.4</ele><time>2022-03-20T09:39:49.000Z</time></trkpt><trkpt lon="5.923411" lat="51.169165"><ele>-12.4</ele><time>2022-03-20T09:39:50.000Z</time></trkpt><trkpt lon="5.9235" lat="51.169154"><ele>-12.4</ele><time>2022-03-20T09:39:51.000Z</time></trkpt><trkpt lon="5.923585" lat="51.169143"><ele>-12.4</ele><time>2022-03-20T09:39:52.000Z</time></trkpt><trkpt lon="5.923661" lat="51.169131"><ele>-12.4</ele><time>2022-03-20T09:39:53.000Z</time></trkpt><trkpt lon="5.923736" lat="51.169125"><ele>-12.2</ele><time>2022-03-20T09:39:54.000Z</time></trkpt><trkpt lon="5.923806" lat="51.169125"><ele>-12</ele><time>2022-03-20T09:39:55.000Z</time></trkpt><trkpt lon="5.923872" lat="51.169133"><ele>-12</ele><time>2022-03-20T09:39:56.000Z</time></trkpt><trkpt lon="5.923926" lat="51.169159"><ele>-11.8</ele><time>2022-03-20T09:39:57.000Z</time></trkpt><trkpt lon="5.923969" lat="51.169198"><ele>-11.6</ele><time>2022-03-20T09:39:58.000Z</time></trkpt><trkpt lon="5.923998" lat="51.169239"><ele>-11.6</ele><time>2022-03-20T09:39:59.000Z</time></trkpt><trkpt lon="5.924012" lat="51.16929"><ele>-11.6</ele><time>2022-03-20T09:40:00.000Z</time></trkpt><trkpt lon="5.924019" lat="51.169351"><ele>-11.8</ele><time>2022-03-20T09:40:01.000Z</time></trkpt><trkpt lon="5.924035" lat="51.169417"><ele>-12</ele><time>2022-03-20T09:40:02.000Z</time></trkpt><trkpt lon="5.924067" lat="51.169489"><ele>-12.6</ele><time>2022-03-20T09:40:03.000Z</time></trkpt><trkpt lon="5.924109" lat="51.169561"><ele>-13</ele><time>2022-03-20T09:40:04.000Z</time></trkpt><trkpt lon="5.924154" lat="51.169624"><ele>-13.4</ele><time>2022-03-20T09:40:05.000Z</time></trkpt><trkpt lon="5.924207" lat="51.169694"><ele>-13.6</ele><time>2022-03-20T09:40:06.000Z</time></trkpt><trkpt lon="5.924259" lat="51.169765"><ele>-14</ele><time>2022-03-20T09:40:07.000Z</time></trkpt><trkpt lon="5.924307" lat="51.169829"><ele>-14</ele><time>2022-03-20T09:40:08.000Z</time></trkpt><trkpt lon="5.924356" lat="51.169889"><ele>-14.2</ele><time>2022-03-20T09:40:09.000Z</time></trkpt><trkpt lon="5.924406" lat="51.169953"><ele>-14.2</ele><time>2022-03-20T09:40:10.000Z</time></trkpt><trkpt lon="5.924454" lat="51.170012"><ele>-14.2</ele><time>2022-03-20T09:40:11.000Z</time></trkpt><trkpt lon="5.924498" lat="51.170067"><ele>-14.2</ele><time>2022-03-20T09:40:12.000Z</time></trkpt><trkpt lon="5.924543" lat="51.170125"><ele>-14.2</ele><time>2022-03-20T09:40:13.000Z</time></trkpt><trkpt lon="5.924589" lat="51.17018"><ele>-14.2</ele><time>2022-03-20T09:40:14.000Z</time></trkpt><trkpt lon="5.924632" lat="51.170234"><ele>-14.2</ele><time>2022-03-20T09:40:15.000Z</time></trkpt><trkpt lon="5.924672" lat="51.170287"><ele>-14.2</ele><time>2022-03-20T09:40:16.000Z</time></trkpt><trkpt lon="5.924713" lat="51.17034"><ele>-14.2</ele><time>2022-03-20T09:40:17.000Z</time></trkpt><trkpt lon="5.924756" lat="51.170394"><ele>-14.2</ele><time>2022-03-20T09:40:18.000Z</time></trkpt><trkpt lon="5.924798" lat="51.170448"><ele>-14.2</ele><time>2022-03-20T09:40:19.000Z</time></trkpt><trkpt lon="5.924845" lat="51.170512"><ele>-14.2</ele><time>2022-03-20T09:40:20.000Z</time></trkpt><trkpt lon="5.924893" lat="51.170572"><ele>-14.2</ele><time>2022-03-20T09:40:21.000Z</time></trkpt><trkpt lon="5.924943" lat="51.170632"><ele>-14.2</ele><time>2022-03-20T09:40:22.000Z</time></trkpt><trkpt lon="5.924989" lat="51.170695"><ele>-14.2</ele><time>2022-03-20T09:40:23.000Z</time></trkpt><trkpt lon="5.925037" lat="51.170758"><ele>-14.2</ele><time>2022-03-20T09:40:24.000Z</time></trkpt><trkpt lon="5.925084" lat="51.170816"><ele>-14.4</ele><time>2022-03-20T09:40:25.000Z</time></trkpt><trkpt lon="5.925131" lat="51.170878"><ele>-14.4</ele><time>2022-03-20T09:40:26.000Z</time></trkpt><trkpt lon="5.92518" lat="51.170938"><ele>-14.4</ele><time>2022-03-20T09:40:27.000Z</time></trkpt><trkpt lon="5.925227" lat="51.170999"><ele>-14.4</ele><time>2022-03-20T09:40:28.000Z</time></trkpt><trkpt lon="5.92527" lat="51.171058"><ele>-14.2</ele><time>2022-03-20T09:40:29.000Z</time></trkpt><trkpt lon="5.925316" lat="51.17112"><ele>-14.2</ele><time>2022-03-20T09:40:30.000Z</time></trkpt><trkpt lon="5.92536" lat="51.171182"><ele>-14.2</ele><time>2022-03-20T09:40:31.000Z</time></trkpt><trkpt lon="5.925394" lat="51.171245"><ele>-14</ele><time>2022-03-20T09:40:32.000Z</time></trkpt><trkpt lon="5.925407" lat="51.171306"><ele>-13.8</ele><time>2022-03-20T09:40:33.000Z</time></trkpt><trkpt lon="5.925386" lat="51.171362"><ele>-13.6</ele><time>2022-03-20T09:40:34.000Z</time></trkpt><trkpt lon="5.925343" lat="51.171401"><ele>-13.2</ele><time>2022-03-20T09:40:35.000Z</time></trkpt><trkpt lon="5.925267" lat="51.171443"><ele>-12.8</ele><time>2022-03-20T09:40:36.000Z</time></trkpt><trkpt lon="5.925175" lat="51.171481"><ele>-12.6</ele><time>2022-03-20T09:40:37.000Z</time></trkpt><trkpt lon="5.925081" lat="51.171513"><ele>-12.4</ele><time>2022-03-20T09:40:38.000Z</time></trkpt><trkpt lon="5.924984" lat="51.171537"><ele>-12.2</ele><time>2022-03-20T09:40:39.000Z</time></trkpt><trkpt lon="5.924882" lat="51.171564"><ele>-12</ele><time>2022-03-20T09:40:40.000Z</time></trkpt><trkpt lon="5.924783" lat="51.171587"><ele>-12</ele><time>2022-03-20T09:40:41.000Z</time></trkpt><trkpt lon="5.924685" lat="51.171613"><ele>-12</ele><time>2022-03-20T09:40:42.000Z</time></trkpt><trkpt lon="5.924589" lat="51.17164"><ele>-12</ele><time>2022-03-20T09:40:43.000Z</time></trkpt><trkpt lon="5.924498" lat="51.171669"><ele>-12</ele><time>2022-03-20T09:40:44.000Z</time></trkpt><trkpt lon="5.924405" lat="51.1717"><ele>-11.8</ele><time>2022-03-20T09:40:45.000Z</time></trkpt><trkpt lon="5.924314" lat="51.171728"><ele>-11.6</ele><time>2022-03-20T09:40:46.000Z</time></trkpt><trkpt lon="5.924227" lat="51.171757"><ele>-11.4</ele><time>2022-03-20T09:40:47.000Z</time></trkpt><trkpt lon="5.924143" lat="51.171785"><ele>-11.2</ele><time>2022-03-20T09:40:48.000Z</time></trkpt><trkpt lon="5.924061" lat="51.171809"><ele>-11.2</ele><time>2022-03-20T09:40:49.000Z</time></trkpt><trkpt lon="5.923981" lat="51.171831"><ele>-11</ele><time>2022-03-20T09:40:50.000Z</time></trkpt><trkpt lon="5.923903" lat="51.171857"><ele>-11</ele><time>2022-03-20T09:40:51.000Z</time></trkpt><trkpt lon="5.923825" lat="51.17189"><ele>-11</ele><time>2022-03-20T09:40:52.000Z</time></trkpt><trkpt lon="5.923748" lat="51.171929"><ele>-11</ele><time>2022-03-20T09:40:53.000Z</time></trkpt><trkpt lon="5.923671" lat="51.17198"><ele>-11.2</ele><time>2022-03-20T09:40:54.000Z</time></trkpt><trkpt lon="5.923597" lat="51.172034"><ele>-11.6</ele><time>2022-03-20T09:40:55.000Z</time></trkpt><trkpt lon="5.923527" lat="51.172093"><ele>-12</ele><time>2022-03-20T09:40:56.000Z</time></trkpt><trkpt lon="5.923461" lat="51.172157"><ele>-12.6</ele><time>2022-03-20T09:40:57.000Z</time></trkpt><trkpt lon="5.923399" lat="51.172227"><ele>-13.2</ele><time>2022-03-20T09:40:58.000Z</time></trkpt><trkpt lon="5.923339" lat="51.172301"><ele>-13.6</ele><time>2022-03-20T09:40:59.000Z</time></trkpt><trkpt lon="5.923282" lat="51.172379"><ele>-13.8</ele><time>2022-03-20T09:41:00.000Z</time></trkpt><trkpt lon="5.923226" lat="51.172453"><ele>-14</ele><time>2022-03-20T09:41:01.000Z</time></trkpt><trkpt lon="5.923169" lat="51.172521"><ele>-14</ele><time>2022-03-20T09:41:02.000Z</time></trkpt><trkpt lon="5.9231" lat="51.17259"><ele>-14</ele><time>2022-03-20T09:41:03.000Z</time></trkpt><trkpt lon="5.923021" lat="51.172651"><ele>-14</ele><time>2022-03-20T09:41:04.000Z</time></trkpt><trkpt lon="5.922949" lat="51.172699"><ele>-14</ele><time>2022-03-20T09:41:05.000Z</time></trkpt><trkpt lon="5.922888" lat="51.172757"><ele>-14</ele><time>2022-03-20T09:41:06.000Z</time></trkpt><trkpt lon="5.922856" lat="51.172815"><ele>-14</ele><time>2022-03-20T09:41:07.000Z</time></trkpt><trkpt lon="5.922856" lat="51.172878"><ele>-14</ele><time>2022-03-20T09:41:08.000Z</time></trkpt><trkpt lon="5.922879" lat="51.172941"><ele>-13.8</ele><time>2022-03-20T09:41:09.000Z</time></trkpt><trkpt lon="5.922916" lat="51.17301"><ele>-13.8</ele><time>2022-03-20T09:41:10.000Z</time></trkpt><trkpt lon="5.922953" lat="51.173076"><ele>-13.8</ele><time>2022-03-20T09:41:11.000Z</time></trkpt><trkpt lon="5.922989" lat="51.173141"><ele>-13.6</ele><time>2022-03-20T09:41:12.000Z</time></trkpt><trkpt lon="5.923026" lat="51.173206"><ele>-13.4</ele><time>2022-03-20T09:41:13.000Z</time></trkpt><trkpt lon="5.923064" lat="51.173268"><ele>-13.2</ele><time>2022-03-20T09:41:14.000Z</time></trkpt><trkpt lon="5.923101" lat="51.173326"><ele>-13</ele><time>2022-03-20T09:41:15.000Z</time></trkpt><trkpt lon="5.923138" lat="51.17339"><ele>-12.8</ele><time>2022-03-20T09:41:16.000Z</time></trkpt><trkpt lon="5.923171" lat="51.173452"><ele>-12.6</ele><time>2022-03-20T09:41:17.000Z</time></trkpt><trkpt lon="5.923202" lat="51.173507"><ele>-12.4</ele><time>2022-03-20T09:41:18.000Z</time></trkpt><trkpt lon="5.92324" lat="51.173566"><ele>-12.2</ele><time>2022-03-20T09:41:19.000Z</time></trkpt><trkpt lon="5.923279" lat="51.17363"><ele>-12</ele><time>2022-03-20T09:41:20.000Z</time></trkpt><trkpt lon="5.923314" lat="51.173691"><ele>-11.8</ele><time>2022-03-20T09:41:21.000Z</time></trkpt><trkpt lon="5.92335" lat="51.173752"><ele>-11.8</ele><time>2022-03-20T09:41:22.000Z</time></trkpt><trkpt lon="5.923387" lat="51.173814"><ele>-11.8</ele><time>2022-03-20T09:41:23.000Z</time></trkpt><trkpt lon="5.923423" lat="51.173874"><ele>-11.8</ele><time>2022-03-20T09:41:24.000Z</time></trkpt><trkpt lon="5.923459" lat="51.173936"><ele>-11.8</ele><time>2022-03-20T09:41:25.000Z</time></trkpt><trkpt lon="5.923496" lat="51.174"><ele>-11.8</ele><time>2022-03-20T09:41:26.000Z</time></trkpt><trkpt lon="5.923532" lat="51.17406"><ele>-11.8</ele><time>2022-03-20T09:41:27.000Z</time></trkpt><trkpt lon="5.923569" lat="51.174122"><ele>-11.8</ele><time>2022-03-20T09:41:28.000Z</time></trkpt><trkpt lon="5.923605" lat="51.174185"><ele>-11.8</ele><time>2022-03-20T09:41:29.000Z</time></trkpt><trkpt lon="5.923644" lat="51.174248"><ele>-12</ele><time>2022-03-20T09:41:30.000Z</time></trkpt><trkpt lon="5.923683" lat="51.174311"><ele>-12</ele><time>2022-03-20T09:41:31.000Z</time></trkpt><trkpt lon="5.923722" lat="51.174377"><ele>-12</ele><time>2022-03-20T09:41:32.000Z</time></trkpt><trkpt lon="5.923761" lat="51.174437"><ele>-12</ele><time>2022-03-20T09:41:33.000Z</time></trkpt><trkpt lon="5.923799" lat="51.1745"><ele>-11.8</ele><time>2022-03-20T09:41:34.000Z</time></trkpt><trkpt lon="5.923836" lat="51.17456"><ele>-11.8</ele><time>2022-03-20T09:41:35.000Z</time></trkpt><trkpt lon="5.92388" lat="51.17463"><ele>-11.8</ele><time>2022-03-20T09:41:36.000Z</time></trkpt><trkpt lon="5.923923" lat="51.174698"><ele>-12</ele><time>2022-03-20T09:41:37.000Z</time></trkpt><trkpt lon="5.923965" lat="51.174766"><ele>-12</ele><time>2022-03-20T09:41:38.000Z</time></trkpt><trkpt lon="5.924008" lat="51.17483"><ele>-12</ele><time>2022-03-20T09:41:39.000Z</time></trkpt><trkpt lon="5.924052" lat="51.174896"><ele>-12.2</ele><time>2022-03-20T09:41:40.000Z</time></trkpt><trkpt lon="5.924098" lat="51.174964"><ele>-12.4</ele><time>2022-03-20T09:41:41.000Z</time></trkpt><trkpt lon="5.92414" lat="51.175028"><ele>-12.4</ele><time>2022-03-20T09:41:42.000Z</time></trkpt><trkpt lon="5.924184" lat="51.175094"><ele>-12.4</ele><time>2022-03-20T09:41:43.000Z</time></trkpt><trkpt lon="5.924229" lat="51.175156"><ele>-12.4</ele><time>2022-03-20T09:41:44.000Z</time></trkpt><trkpt lon="5.924271" lat="51.175215"><ele>-12</ele><time>2022-03-20T09:41:45.000Z</time></trkpt><trkpt lon="5.92431" lat="51.175274"><ele>-12</ele><time>2022-03-20T09:41:46.000Z</time></trkpt><trkpt lon="5.924351" lat="51.175334"><ele>-11.8</ele><time>2022-03-20T09:41:47.000Z</time></trkpt><trkpt lon="5.924392" lat="51.175396"><ele>-11.8</ele><time>2022-03-20T09:41:48.000Z</time></trkpt><trkpt lon="5.924432" lat="51.175458"><ele>-11.6</ele><time>2022-03-20T09:41:49.000Z</time></trkpt><trkpt lon="5.924476" lat="51.17552"><ele>-11.6</ele><time>2022-03-20T09:41:50.000Z</time></trkpt><trkpt lon="5.92452" lat="51.175585"><ele>-11.6</ele><time>2022-03-20T09:41:51.000Z</time></trkpt><trkpt lon="5.924564" lat="51.175653"><ele>-11.8</ele><time>2022-03-20T09:41:52.000Z</time></trkpt><trkpt lon="5.924607" lat="51.175719"><ele>-11.8</ele><time>2022-03-20T09:41:53.000Z</time></trkpt><trkpt lon="5.924651" lat="51.175787"><ele>-11.8</ele><time>2022-03-20T09:41:54.000Z</time></trkpt><trkpt lon="5.924695" lat="51.175855"><ele>-12</ele><time>2022-03-20T09:41:55.000Z</time></trkpt><trkpt lon="5.92474" lat="51.175924"><ele>-12</ele><time>2022-03-20T09:41:56.000Z</time></trkpt><trkpt lon="5.924786" lat="51.175993"><ele>-12</ele><time>2022-03-20T09:41:57.000Z</time></trkpt><trkpt lon="5.924831" lat="51.176062"><ele>-12.2</ele><time>2022-03-20T09:41:58.000Z</time></trkpt><trkpt lon="5.924876" lat="51.176129"><ele>-12.2</ele><time>2022-03-20T09:41:59.000Z</time></trkpt><trkpt lon="5.924923" lat="51.176196"><ele>-12.2</ele><time>2022-03-20T09:42:00.000Z</time></trkpt><trkpt lon="5.924969" lat="51.176264"><ele>-12.2</ele><time>2022-03-20T09:42:01.000Z</time></trkpt><trkpt lon="5.925013" lat="51.176332"><ele>-12.2</ele><time>2022-03-20T09:42:02.000Z</time></trkpt><trkpt lon="5.925057" lat="51.176399"><ele>-12.2</ele><time>2022-03-20T09:42:03.000Z</time></trkpt><trkpt lon="5.925101" lat="51.176469"><ele>-12</ele><time>2022-03-20T09:42:04.000Z</time></trkpt><trkpt lon="5.925143" lat="51.176532"><ele>-12</ele><time>2022-03-20T09:42:05.000Z</time></trkpt><trkpt lon="5.92519" lat="51.176602"><ele>-12</ele><time>2022-03-20T09:42:06.000Z</time></trkpt><trkpt lon="5.925235" lat="51.17667"><ele>-11.8</ele><time>2022-03-20T09:42:07.000Z</time></trkpt><trkpt lon="5.925277" lat="51.176735"><ele>-11.6</ele><time>2022-03-20T09:42:08.000Z</time></trkpt><trkpt lon="5.925317" lat="51.176795"><ele>-11.4</ele><time>2022-03-20T09:42:09.000Z</time></trkpt><trkpt lon="5.92536" lat="51.17686"><ele>-11.2</ele><time>2022-03-20T09:42:10.000Z</time></trkpt><trkpt lon="5.9254" lat="51.176922"><ele>-10.8</ele><time>2022-03-20T09:42:11.000Z</time></trkpt><trkpt lon="5.925441" lat="51.176986"><ele>-10.4</ele><time>2022-03-20T09:42:12.000Z</time></trkpt><trkpt lon="5.925484" lat="51.177047"><ele>-10</ele><time>2022-03-20T09:42:13.000Z</time></trkpt><trkpt lon="5.925527" lat="51.177105"><ele>-9.6</ele><time>2022-03-20T09:42:14.000Z</time></trkpt><trkpt lon="5.925568" lat="51.17716"><ele>-9.2</ele><time>2022-03-20T09:42:15.000Z</time></trkpt><trkpt lon="5.925603" lat="51.177213"><ele>-8.8</ele><time>2022-03-20T09:42:16.000Z</time></trkpt><trkpt lon="5.925626" lat="51.177267"><ele>-8.6</ele><time>2022-03-20T09:42:17.000Z</time></trkpt><trkpt lon="5.925624" lat="51.177318"><ele>-8.4</ele><time>2022-03-20T09:42:18.000Z</time></trkpt><trkpt lon="5.925594" lat="51.177363"><ele>-8</ele><time>2022-03-20T09:42:19.000Z</time></trkpt><trkpt lon="5.925537" lat="51.177399"><ele>-8</ele><time>2022-03-20T09:42:20.000Z</time></trkpt><trkpt lon="5.925464" lat="51.177424"><ele>-7.8</ele><time>2022-03-20T09:42:21.000Z</time></trkpt><trkpt lon="5.925389" lat="51.177444"><ele>-7.6</ele><time>2022-03-20T09:42:22.000Z</time></trkpt><trkpt lon="5.925312" lat="51.17746"><ele>-7.4</ele><time>2022-03-20T09:42:23.000Z</time></trkpt><trkpt lon="5.925236" lat="51.177478"><ele>-7.2</ele><time>2022-03-20T09:42:24.000Z</time></trkpt><trkpt lon="5.925161" lat="51.177497"><ele>-7.2</ele><time>2022-03-20T09:42:25.000Z</time></trkpt><trkpt lon="5.925087" lat="51.177516"><ele>-7</ele><time>2022-03-20T09:42:26.000Z</time></trkpt><trkpt lon="5.925011" lat="51.177535"><ele>-7</ele><time>2022-03-20T09:42:27.000Z</time></trkpt><trkpt lon="5.924931" lat="51.177554"><ele>-7</ele><time>2022-03-20T09:42:28.000Z</time></trkpt><trkpt lon="5.924851" lat="51.177576"><ele>-7.2</ele><time>2022-03-20T09:42:29.000Z</time></trkpt><trkpt lon="5.924765" lat="51.177596"><ele>-7.4</ele><time>2022-03-20T09:42:30.000Z</time></trkpt><trkpt lon="5.924676" lat="51.177618"><ele>-7.4</ele><time>2022-03-20T09:42:31.000Z</time></trkpt><trkpt lon="5.924586" lat="51.177641"><ele>-7.6</ele><time>2022-03-20T09:42:32.000Z</time></trkpt><trkpt lon="5.924497" lat="51.177661"><ele>-7.8</ele><time>2022-03-20T09:42:33.000Z</time></trkpt><trkpt lon="5.924414" lat="51.17768"><ele>-8</ele><time>2022-03-20T09:42:34.000Z</time></trkpt><trkpt lon="5.924349" lat="51.177699"><ele>-8.2</ele><time>2022-03-20T09:42:35.000Z</time></trkpt><trkpt lon="5.92428" lat="51.17771"><ele>-8.4</ele><time>2022-03-20T09:42:36.000Z</time></trkpt><trkpt lon="5.9242" lat="51.177714"><ele>-8.6</ele><time>2022-03-20T09:42:37.000Z</time></trkpt><trkpt lon="5.924135" lat="51.177695"><ele>-8.6</ele><time>2022-03-20T09:42:38.000Z</time></trkpt><trkpt lon="5.924082" lat="51.177658"><ele>-8.8</ele><time>2022-03-20T09:42:39.000Z</time></trkpt><trkpt lon="5.924032" lat="51.177604"><ele>-9</ele><time>2022-03-20T09:42:40.000Z</time></trkpt><trkpt lon="5.923985" lat="51.17754"><ele>-9</ele><time>2022-03-20T09:42:41.000Z</time></trkpt><trkpt lon="5.923939" lat="51.177477"><ele>-9.2</ele><time>2022-03-20T09:42:42.000Z</time></trkpt><trkpt lon="5.923895" lat="51.177412"><ele>-9.4</ele><time>2022-03-20T09:42:43.000Z</time></trkpt><trkpt lon="5.923851" lat="51.177344"><ele>-9.6</ele><time>2022-03-20T09:42:44.000Z</time></trkpt><trkpt lon="5.923809" lat="51.177278"><ele>-9.8</ele><time>2022-03-20T09:42:45.000Z</time></trkpt><trkpt lon="5.923766" lat="51.177213"><ele>-10</ele><time>2022-03-20T09:42:46.000Z</time></trkpt><trkpt lon="5.923723" lat="51.177148"><ele>-10.2</ele><time>2022-03-20T09:42:47.000Z</time></trkpt><trkpt lon="5.92368" lat="51.177087"><ele>-10.4</ele><time>2022-03-20T09:42:48.000Z</time></trkpt><trkpt lon="5.923636" lat="51.177029"><ele>-10.6</ele><time>2022-03-20T09:42:49.000Z</time></trkpt><trkpt lon="5.923591" lat="51.176968"><ele>-10.8</ele><time>2022-03-20T09:42:50.000Z</time></trkpt><trkpt lon="5.923547" lat="51.17691"><ele>-10.8</ele><time>2022-03-20T09:42:51.000Z</time></trkpt><trkpt lon="5.923502" lat="51.17685"><ele>-11</ele><time>2022-03-20T09:42:52.000Z</time></trkpt><trkpt lon="5.92346" lat="51.17679"><ele>-11</ele><time>2022-03-20T09:42:53.000Z</time></trkpt><trkpt lon="5.923415" lat="51.176726"><ele>-11</ele><time>2022-03-20T09:42:54.000Z</time></trkpt><trkpt lon="5.92337" lat="51.176663"><ele>-11</ele><time>2022-03-20T09:42:55.000Z</time></trkpt><trkpt lon="5.923327" lat="51.176602"><ele>-11</ele><time>2022-03-20T09:42:56.000Z</time></trkpt><trkpt lon="5.923283" lat="51.176539"><ele>-11</ele><time>2022-03-20T09:42:57.000Z</time></trkpt><trkpt lon="5.923239" lat="51.176474"><ele>-11</ele><time>2022-03-20T09:42:58.000Z</time></trkpt><trkpt lon="5.923195" lat="51.176413"><ele>-11</ele><time>2022-03-20T09:42:59.000Z</time></trkpt><trkpt lon="5.923152" lat="51.176351"><ele>-11</ele><time>2022-03-20T09:43:00.000Z</time></trkpt><trkpt lon="5.923108" lat="51.176289"><ele>-11</ele><time>2022-03-20T09:43:01.000Z</time></trkpt><trkpt lon="5.923065" lat="51.176226"><ele>-11.2</ele><time>2022-03-20T09:43:02.000Z</time></trkpt><trkpt lon="5.923021" lat="51.176158"><ele>-11.2</ele><time>2022-03-20T09:43:03.000Z</time></trkpt><trkpt lon="5.922977" lat="51.176094"><ele>-11.2</ele><time>2022-03-20T09:43:04.000Z</time></trkpt><trkpt lon="5.922942" lat="51.176045"><ele>-11.2</ele><time>2022-03-20T09:43:05.000Z</time></trkpt><trkpt lon="5.922902" lat="51.175987"><ele>-11.2</ele><time>2022-03-20T09:43:06.000Z</time></trkpt><trkpt lon="5.922856" lat="51.175917"><ele>-11.4</ele><time>2022-03-20T09:43:07.000Z</time></trkpt><trkpt lon="5.922815" lat="51.175856"><ele>-11.4</ele><time>2022-03-20T09:43:08.000Z</time></trkpt><trkpt lon="5.922773" lat="51.175792"><ele>-11.4</ele><time>2022-03-20T09:43:09.000Z</time></trkpt><trkpt lon="5.922728" lat="51.175726"><ele>-11.4</ele><time>2022-03-20T09:43:10.000Z</time></trkpt><trkpt lon="5.922684" lat="51.175663"><ele>-11.4</ele><time>2022-03-20T09:43:11.000Z</time></trkpt><trkpt lon="5.922643" lat="51.175603"><ele>-11.4</ele><time>2022-03-20T09:43:12.000Z</time></trkpt><trkpt lon="5.922602" lat="51.175542"><ele>-11.4</ele><time>2022-03-20T09:43:13.000Z</time></trkpt><trkpt lon="5.922564" lat="51.175483"><ele>-11.4</ele><time>2022-03-20T09:43:14.000Z</time></trkpt><trkpt lon="5.922523" lat="51.175426"><ele>-11.4</ele><time>2022-03-20T09:43:15.000Z</time></trkpt><trkpt lon="5.922473" lat="51.17538"><ele>-11.4</ele><time>2022-03-20T09:43:16.000Z</time></trkpt><trkpt lon="5.922407" lat="51.175347"><ele>-11.4</ele><time>2022-03-20T09:43:17.000Z</time></trkpt><trkpt lon="5.922329" lat="51.17533"><ele>-11.4</ele><time>2022-03-20T09:43:18.000Z</time></trkpt><trkpt lon="5.922252" lat="51.17533"><ele>-11.4</ele><time>2022-03-20T09:43:19.000Z</time></trkpt><trkpt lon="5.922169" lat="51.175342"><ele>-11.4</ele><time>2022-03-20T09:43:20.000Z</time></trkpt><trkpt lon="5.922078" lat="51.17536"><ele>-11.4</ele><time>2022-03-20T09:43:21.000Z</time></trkpt><trkpt lon="5.921983" lat="51.175385"><ele>-11.4</ele><time>2022-03-20T09:43:22.000Z</time></trkpt><trkpt lon="5.921887" lat="51.175408"><ele>-11.4</ele><time>2022-03-20T09:43:23.000Z</time></trkpt><trkpt lon="5.921789" lat="51.175437"><ele>-11.4</ele><time>2022-03-20T09:43:24.000Z</time></trkpt><trkpt lon="5.921691" lat="51.175469"><ele>-11.2</ele><time>2022-03-20T09:43:25.000Z</time></trkpt><trkpt lon="5.921601" lat="51.175497"><ele>-11.2</ele><time>2022-03-20T09:43:26.000Z</time></trkpt><trkpt lon="5.921512" lat="51.175523"><ele>-11.2</ele><time>2022-03-20T09:43:27.000Z</time></trkpt><trkpt lon="5.92142" lat="51.175546"><ele>-11</ele><time>2022-03-20T09:43:28.000Z</time></trkpt><trkpt lon="5.921326" lat="51.175566"><ele>-11</ele><time>2022-03-20T09:43:29.000Z</time></trkpt><trkpt lon="5.921236" lat="51.175589"><ele>-10.8</ele><time>2022-03-20T09:43:30.000Z</time></trkpt><trkpt lon="5.92115" lat="51.175612"><ele>-10.6</ele><time>2022-03-20T09:43:31.000Z</time></trkpt><trkpt lon="5.921064" lat="51.175635"><ele>-10.6</ele><time>2022-03-20T09:43:32.000Z</time></trkpt><trkpt lon="5.920979" lat="51.175656"><ele>-10.4</ele><time>2022-03-20T09:43:33.000Z</time></trkpt><trkpt lon="5.920893" lat="51.175677"><ele>-10.2</ele><time>2022-03-20T09:43:34.000Z</time></trkpt><trkpt lon="5.920819" lat="51.175696"><ele>-10.2</ele><time>2022-03-20T09:43:35.000Z</time></trkpt><trkpt lon="5.92073" lat="51.175721"><ele>-10</ele><time>2022-03-20T09:43:36.000Z</time></trkpt><trkpt lon="5.920623" lat="51.175751"><ele>-9.8</ele><time>2022-03-20T09:43:37.000Z</time></trkpt><trkpt lon="5.920524" lat="51.175779"><ele>-9.8</ele><time>2022-03-20T09:43:38.000Z</time></trkpt><trkpt lon="5.920422" lat="51.175806"><ele>-9.6</ele><time>2022-03-20T09:43:39.000Z</time></trkpt><trkpt lon="5.920317" lat="51.175832"><ele>-9.6</ele><time>2022-03-20T09:43:40.000Z</time></trkpt><trkpt lon="5.920215" lat="51.175859"><ele>-9.6</ele><time>2022-03-20T09:43:41.000Z</time></trkpt><trkpt lon="5.920112" lat="51.175889"><ele>-9.6</ele><time>2022-03-20T09:43:42.000Z</time></trkpt><trkpt lon="5.920009" lat="51.175919"><ele>-9.4</ele><time>2022-03-20T09:43:43.000Z</time></trkpt><trkpt lon="5.919912" lat="51.175949"><ele>-9.4</ele><time>2022-03-20T09:43:44.000Z</time></trkpt><trkpt lon="5.919815" lat="51.17598"><ele>-9.4</ele><time>2022-03-20T09:43:45.000Z</time></trkpt><trkpt lon="5.919717" lat="51.176008"><ele>-9.4</ele><time>2022-03-20T09:43:46.000Z</time></trkpt><trkpt lon="5.919623" lat="51.176034"><ele>-9.2</ele><time>2022-03-20T09:43:47.000Z</time></trkpt><trkpt lon="5.91953" lat="51.176058"><ele>-9.2</ele><time>2022-03-20T09:43:48.000Z</time></trkpt><trkpt lon="5.919438" lat="51.176084"><ele>-9.4</ele><time>2022-03-20T09:43:49.000Z</time></trkpt><trkpt lon="5.919346" lat="51.176111"><ele>-9.4</ele><time>2022-03-20T09:43:50.000Z</time></trkpt><trkpt lon="5.919252" lat="51.176135"><ele>-9.4</ele><time>2022-03-20T09:43:51.000Z</time></trkpt><trkpt lon="5.919163" lat="51.17616"><ele>-9.2</ele><time>2022-03-20T09:43:52.000Z</time></trkpt><trkpt lon="5.919075" lat="51.176184"><ele>-9.2</ele><time>2022-03-20T09:43:53.000Z</time></trkpt><trkpt lon="5.918991" lat="51.17621"><ele>-9.2</ele><time>2022-03-20T09:43:54.000Z</time></trkpt><trkpt lon="5.918909" lat="51.176231"><ele>-9.2</ele><time>2022-03-20T09:43:55.000Z</time></trkpt><trkpt lon="5.918823" lat="51.176255"><ele>-9.2</ele><time>2022-03-20T09:43:56.000Z</time></trkpt><trkpt lon="5.918735" lat="51.176279"><ele>-9.2</ele><time>2022-03-20T09:43:57.000Z</time></trkpt><trkpt lon="5.918648" lat="51.176305"><ele>-9.4</ele><time>2022-03-20T09:43:58.000Z</time></trkpt><trkpt lon="5.918559" lat="51.176326"><ele>-9.4</ele><time>2022-03-20T09:43:59.000Z</time></trkpt><trkpt lon="5.918469" lat="51.176339"><ele>-9.4</ele><time>2022-03-20T09:44:00.000Z</time></trkpt><trkpt lon="5.918379" lat="51.176339"><ele>-9.4</ele><time>2022-03-20T09:44:01.000Z</time></trkpt><trkpt lon="5.9183" lat="51.176318"><ele>-9.6</ele><time>2022-03-20T09:44:02.000Z</time></trkpt><trkpt lon="5.918233" lat="51.176285"><ele>-9.6</ele><time>2022-03-20T09:44:03.000Z</time></trkpt><trkpt lon="5.918176" lat="51.176239"><ele>-9.8</ele><time>2022-03-20T09:44:04.000Z</time></trkpt><trkpt lon="5.918126" lat="51.176182"><ele>-9.8</ele><time>2022-03-20T09:44:05.000Z</time></trkpt><trkpt lon="5.918078" lat="51.176123"><ele>-10</ele><time>2022-03-20T09:44:06.000Z</time></trkpt><trkpt lon="5.91803" lat="51.176062"><ele>-10</ele><time>2022-03-20T09:44:07.000Z</time></trkpt><trkpt lon="5.917987" lat="51.175998"><ele>-10</ele><time>2022-03-20T09:44:08.000Z</time></trkpt><trkpt lon="5.917948" lat="51.175937"><ele>-10.2</ele><time>2022-03-20T09:44:09.000Z</time></trkpt><trkpt lon="5.917906" lat="51.175876"><ele>-10.2</ele><time>2022-03-20T09:44:10.000Z</time></trkpt><trkpt lon="5.917864" lat="51.175812"><ele>-10.4</ele><time>2022-03-20T09:44:11.000Z</time></trkpt><trkpt lon="5.917823" lat="51.175753"><ele>-10.6</ele><time>2022-03-20T09:44:12.000Z</time></trkpt><trkpt lon="5.917783" lat="51.175693"><ele>-10.6</ele><time>2022-03-20T09:44:13.000Z</time></trkpt><trkpt lon="5.917738" lat="51.175635"><ele>-10.8</ele><time>2022-03-20T09:44:14.000Z</time></trkpt><trkpt lon="5.917692" lat="51.175575"><ele>-11</ele><time>2022-03-20T09:44:15.000Z</time></trkpt><trkpt lon="5.917651" lat="51.175516"><ele>-11.2</ele><time>2022-03-20T09:44:16.000Z</time></trkpt><trkpt lon="5.917612" lat="51.175456"><ele>-11.6</ele><time>2022-03-20T09:44:17.000Z</time></trkpt><trkpt lon="5.917576" lat="51.175398"><ele>-11.8</ele><time>2022-03-20T09:44:18.000Z</time></trkpt><trkpt lon="5.917537" lat="51.175339"><ele>-12</ele><time>2022-03-20T09:44:19.000Z</time></trkpt><trkpt lon="5.917495" lat="51.17528"><ele>-12.2</ele><time>2022-03-20T09:44:20.000Z</time></trkpt><trkpt lon="5.917453" lat="51.17522"><ele>-12.4</ele><time>2022-03-20T09:44:21.000Z</time></trkpt><trkpt lon="5.917411" lat="51.175161"><ele>-12.6</ele><time>2022-03-20T09:44:22.000Z</time></trkpt><trkpt lon="5.917369" lat="51.175102"><ele>-12.8</ele><time>2022-03-20T09:44:23.000Z</time></trkpt><trkpt lon="5.917327" lat="51.175038"><ele>-13</ele><time>2022-03-20T09:44:24.000Z</time></trkpt><trkpt lon="5.917284" lat="51.17497"><ele>-13.2</ele><time>2022-03-20T09:44:25.000Z</time></trkpt><trkpt lon="5.917242" lat="51.174899"><ele>-13.2</ele><time>2022-03-20T09:44:26.000Z</time></trkpt><trkpt lon="5.9172" lat="51.174826"><ele>-13.4</ele><time>2022-03-20T09:44:27.000Z</time></trkpt><trkpt lon="5.91716" lat="51.174759"><ele>-13.4</ele><time>2022-03-20T09:44:28.000Z</time></trkpt><trkpt lon="5.917121" lat="51.174694"><ele>-13.6</ele><time>2022-03-20T09:44:29.000Z</time></trkpt><trkpt lon="5.917082" lat="51.174626"><ele>-13.6</ele><time>2022-03-20T09:44:30.000Z</time></trkpt><trkpt lon="5.917043" lat="51.174558"><ele>-13.8</ele><time>2022-03-20T09:44:31.000Z</time></trkpt><trkpt lon="5.91699" lat="51.174492"><ele>-13.8</ele><time>2022-03-20T09:44:32.000Z</time></trkpt><trkpt lon="5.916923" lat="51.174433"><ele>-13.8</ele><time>2022-03-20T09:44:33.000Z</time></trkpt><trkpt lon="5.91684" lat="51.174381"><ele>-14</ele><time>2022-03-20T09:44:34.000Z</time></trkpt><trkpt lon="5.916757" lat="51.174346"><ele>-14</ele><time>2022-03-20T09:44:35.000Z</time></trkpt><trkpt lon="5.916649" lat="51.17432"><ele>-14.2</ele><time>2022-03-20T09:44:36.000Z</time></trkpt><trkpt lon="5.916516" lat="51.174298"><ele>-14.2</ele><time>2022-03-20T09:44:37.000Z</time></trkpt><trkpt lon="5.916396" lat="51.174302"><ele>-14.2</ele><time>2022-03-20T09:44:38.000Z</time></trkpt><trkpt lon="5.916283" lat="51.174319"><ele>-14.2</ele><time>2022-03-20T09:44:39.000Z</time></trkpt><trkpt lon="5.916167" lat="51.174339"><ele>-14.2</ele><time>2022-03-20T09:44:40.000Z</time></trkpt><trkpt lon="5.916054" lat="51.174363"><ele>-14.2</ele><time>2022-03-20T09:44:41.000Z</time></trkpt><trkpt lon="5.915942" lat="51.174387"><ele>-14.2</ele><time>2022-03-20T09:44:42.000Z</time></trkpt><trkpt lon="5.915822" lat="51.17441"><ele>-14.2</ele><time>2022-03-20T09:44:43.000Z</time></trkpt><trkpt lon="5.915704" lat="51.174433"><ele>-14.2</ele><time>2022-03-20T09:44:44.000Z</time></trkpt><trkpt lon="5.915585" lat="51.174459"><ele>-14.2</ele><time>2022-03-20T09:44:45.000Z</time></trkpt><trkpt lon="5.91547" lat="51.174484"><ele>-14.2</ele><time>2022-03-20T09:44:46.000Z</time></trkpt><trkpt lon="5.915357" lat="51.174509"><ele>-14.2</ele><time>2022-03-20T09:44:47.000Z</time></trkpt><trkpt lon="5.915243" lat="51.174532"><ele>-14.4</ele><time>2022-03-20T09:44:48.000Z</time></trkpt><trkpt lon="5.915131" lat="51.174555"><ele>-14.4</ele><time>2022-03-20T09:44:49.000Z</time></trkpt><trkpt lon="5.915021" lat="51.174578"><ele>-14.4</ele><time>2022-03-20T09:44:50.000Z</time></trkpt><trkpt lon="5.914912" lat="51.174601"><ele>-14.4</ele><time>2022-03-20T09:44:51.000Z</time></trkpt><trkpt lon="5.914807" lat="51.174624"><ele>-14.4</ele><time>2022-03-20T09:44:52.000Z</time></trkpt><trkpt lon="5.914701" lat="51.17465"><ele>-14.2</ele><time>2022-03-20T09:44:53.000Z</time></trkpt><trkpt lon="5.914595" lat="51.174679"><ele>-14.2</ele><time>2022-03-20T09:44:54.000Z</time></trkpt><trkpt lon="5.914489" lat="51.174707"><ele>-14.2</ele><time>2022-03-20T09:44:55.000Z</time></trkpt><trkpt lon="5.91438" lat="51.174731"><ele>-14.2</ele><time>2022-03-20T09:44:56.000Z</time></trkpt><trkpt lon="5.914274" lat="51.174753"><ele>-14.2</ele><time>2022-03-20T09:44:57.000Z</time></trkpt><trkpt lon="5.914167" lat="51.174779"><ele>-14.2</ele><time>2022-03-20T09:44:58.000Z</time></trkpt><trkpt lon="5.914054" lat="51.174803"><ele>-14.2</ele><time>2022-03-20T09:44:59.000Z</time></trkpt><trkpt lon="5.913946" lat="51.174829"><ele>-14.2</ele><time>2022-03-20T09:45:00.000Z</time></trkpt><trkpt lon="5.913837" lat="51.174855"><ele>-14.2</ele><time>2022-03-20T09:45:01.000Z</time></trkpt><trkpt lon="5.913727" lat="51.174882"><ele>-14.4</ele><time>2022-03-20T09:45:02.000Z</time></trkpt><trkpt lon="5.913619" lat="51.174906"><ele>-14.2</ele><time>2022-03-20T09:45:03.000Z</time></trkpt><trkpt lon="5.913511" lat="51.174932"><ele>-14.2</ele><time>2022-03-20T09:45:04.000Z</time></trkpt><trkpt lon="5.913424" lat="51.174952"><ele>-14.2</ele><time>2022-03-20T09:45:05.000Z</time></trkpt><trkpt lon="5.913323" lat="51.174975"><ele>-14.2</ele><time>2022-03-20T09:45:06.000Z</time></trkpt><trkpt lon="5.913202" lat="51.175004"><ele>-14</ele><time>2022-03-20T09:45:07.000Z</time></trkpt><trkpt lon="5.913095" lat="51.175028"><ele>-14</ele><time>2022-03-20T09:45:08.000Z</time></trkpt><trkpt lon="5.912992" lat="51.175054"><ele>-14</ele><time>2022-03-20T09:45:09.000Z</time></trkpt><trkpt lon="5.912888" lat="51.175078"><ele>-14</ele><time>2022-03-20T09:45:10.000Z</time></trkpt><trkpt lon="5.912782" lat="51.175104"><ele>-14</ele><time>2022-03-20T09:45:11.000Z</time></trkpt><trkpt lon="5.912676" lat="51.17513"><ele>-14</ele><time>2022-03-20T09:45:12.000Z</time></trkpt><trkpt lon="5.912572" lat="51.175154"><ele>-14</ele><time>2022-03-20T09:45:13.000Z</time></trkpt><trkpt lon="5.912465" lat="51.17518"><ele>-14.2</ele><time>2022-03-20T09:45:14.000Z</time></trkpt><trkpt lon="5.912357" lat="51.175206"><ele>-14.2</ele><time>2022-03-20T09:45:15.000Z</time></trkpt><trkpt lon="5.912251" lat="51.17523"><ele>-14.2</ele><time>2022-03-20T09:45:16.000Z</time></trkpt><trkpt lon="5.912141" lat="51.175256"><ele>-14.4</ele><time>2022-03-20T09:45:17.000Z</time></trkpt><trkpt lon="5.912028" lat="51.17528"><ele>-14.4</ele><time>2022-03-20T09:45:18.000Z</time></trkpt><trkpt lon="5.911916" lat="51.175306"><ele>-14.4</ele><time>2022-03-20T09:45:19.000Z</time></trkpt><trkpt lon="5.911803" lat="51.175332"><ele>-14.4</ele><time>2022-03-20T09:45:20.000Z</time></trkpt><trkpt lon="5.911691" lat="51.175356"><ele>-14.4</ele><time>2022-03-20T09:45:21.000Z</time></trkpt><trkpt lon="5.911579" lat="51.175382"><ele>-14.4</ele><time>2022-03-20T09:45:22.000Z</time></trkpt><trkpt lon="5.911466" lat="51.175409"><ele>-14.4</ele><time>2022-03-20T09:45:23.000Z</time></trkpt><trkpt lon="5.911355" lat="51.175432"><ele>-14.4</ele><time>2022-03-20T09:45:24.000Z</time></trkpt><trkpt lon="5.911249" lat="51.175458"><ele>-14.4</ele><time>2022-03-20T09:45:25.000Z</time></trkpt><trkpt lon="5.911145" lat="51.175482"><ele>-14.4</ele><time>2022-03-20T09:45:26.000Z</time></trkpt><trkpt lon="5.911045" lat="51.175505"><ele>-14.4</ele><time>2022-03-20T09:45:27.000Z</time></trkpt><trkpt lon="5.910949" lat="51.175531"><ele>-14.4</ele><time>2022-03-20T09:45:28.000Z</time></trkpt><trkpt lon="5.910854" lat="51.175558"><ele>-14.4</ele><time>2022-03-20T09:45:29.000Z</time></trkpt><trkpt lon="5.910759" lat="51.175581"><ele>-14.4</ele><time>2022-03-20T09:45:30.000Z</time></trkpt><trkpt lon="5.910667" lat="51.175607"><ele>-14.4</ele><time>2022-03-20T09:45:31.000Z</time></trkpt><trkpt lon="5.910578" lat="51.175634"><ele>-14.4</ele><time>2022-03-20T09:45:32.000Z</time></trkpt><trkpt lon="5.910487" lat="51.17566"><ele>-14.4</ele><time>2022-03-20T09:45:33.000Z</time></trkpt><trkpt lon="5.910391" lat="51.175687"><ele>-14.4</ele><time>2022-03-20T09:45:34.000Z</time></trkpt><trkpt lon="5.910314" lat="51.175706"><ele>-14.4</ele><time>2022-03-20T09:45:35.000Z</time></trkpt><trkpt lon="5.910221" lat="51.175729"><ele>-14.4</ele><time>2022-03-20T09:45:36.000Z</time></trkpt><trkpt lon="5.910091" lat="51.175762"><ele>-14.6</ele><time>2022-03-20T09:45:37.000Z</time></trkpt><trkpt lon="5.909977" lat="51.17579"><ele>-14.4</ele><time>2022-03-20T09:45:38.000Z</time></trkpt><trkpt lon="5.909865" lat="51.175808"><ele>-14.4</ele><time>2022-03-20T09:45:39.000Z</time></trkpt><trkpt lon="5.909757" lat="51.175826"><ele>-14.2</ele><time>2022-03-20T09:45:40.000Z</time></trkpt><trkpt lon="5.909652" lat="51.175842"><ele>-14.2</ele><time>2022-03-20T09:45:41.000Z</time></trkpt><trkpt lon="5.909544" lat="51.175855"><ele>-14.2</ele><time>2022-03-20T09:45:42.000Z</time></trkpt><trkpt lon="5.909423" lat="51.175863"><ele>-14.2</ele><time>2022-03-20T09:45:43.000Z</time></trkpt><trkpt lon="5.909297" lat="51.175874"><ele>-14.2</ele><time>2022-03-20T09:45:44.000Z</time></trkpt><trkpt lon="5.909167" lat="51.175882"><ele>-14.4</ele><time>2022-03-20T09:45:45.000Z</time></trkpt><trkpt lon="5.909035" lat="51.175887"><ele>-14.2</ele><time>2022-03-20T09:45:46.000Z</time></trkpt><trkpt lon="5.908906" lat="51.175891"><ele>-14</ele><time>2022-03-20T09:45:47.000Z</time></trkpt><trkpt lon="5.908778" lat="51.175889"><ele>-13.8</ele><time>2022-03-20T09:45:48.000Z</time></trkpt><trkpt lon="5.908657" lat="51.175882"><ele>-13.6</ele><time>2022-03-20T09:45:49.000Z</time></trkpt><trkpt lon="5.908536" lat="51.175878"><ele>-13.4</ele><time>2022-03-20T09:45:50.000Z</time></trkpt><trkpt lon="5.908414" lat="51.175877"><ele>-13.2</ele><time>2022-03-20T09:45:51.000Z</time></trkpt><trkpt lon="5.908293" lat="51.175871"><ele>-13</ele><time>2022-03-20T09:45:52.000Z</time></trkpt><trkpt lon="5.908174" lat="51.175866"><ele>-12.8</ele><time>2022-03-20T09:45:53.000Z</time></trkpt><trkpt lon="5.90806" lat="51.175862"><ele>-12.6</ele><time>2022-03-20T09:45:54.000Z</time></trkpt><trkpt lon="5.907947" lat="51.175859"><ele>-12.4</ele><time>2022-03-20T09:45:55.000Z</time></trkpt><trkpt lon="5.907838" lat="51.175852"><ele>-12.2</ele><time>2022-03-20T09:45:56.000Z</time></trkpt><trkpt lon="5.90773" lat="51.17585"><ele>-12</ele><time>2022-03-20T09:45:57.000Z</time></trkpt><trkpt lon="5.907627" lat="51.17585"><ele>-12</ele><time>2022-03-20T09:45:58.000Z</time></trkpt><trkpt lon="5.907524" lat="51.175853"><ele>-12</ele><time>2022-03-20T09:45:59.000Z</time></trkpt><trkpt lon="5.907419" lat="51.175862"><ele>-12</ele><time>2022-03-20T09:46:00.000Z</time></trkpt><trkpt lon="5.907317" lat="51.175886"><ele>-12</ele><time>2022-03-20T09:46:01.000Z</time></trkpt><trkpt lon="5.907222" lat="51.175915"><ele>-12</ele><time>2022-03-20T09:46:02.000Z</time></trkpt><trkpt lon="5.907139" lat="51.175954"><ele>-12.2</ele><time>2022-03-20T09:46:03.000Z</time></trkpt><trkpt lon="5.907059" lat="51.175993"><ele>-12.2</ele><time>2022-03-20T09:46:04.000Z</time></trkpt><trkpt lon="5.906991" lat="51.176025"><ele>-12.4</ele><time>2022-03-20T09:46:05.000Z</time></trkpt><trkpt lon="5.906904" lat="51.176046"><ele>-12.4</ele><time>2022-03-20T09:46:06.000Z</time></trkpt><trkpt lon="5.906794" lat="51.176057"><ele>-12.6</ele><time>2022-03-20T09:46:07.000Z</time></trkpt><trkpt lon="5.906701" lat="51.176039"><ele>-12.6</ele><time>2022-03-20T09:46:08.000Z</time></trkpt><trkpt lon="5.90662" lat="51.175995"><ele>-12.6</ele><time>2022-03-20T09:46:09.000Z</time></trkpt><trkpt lon="5.906544" lat="51.175943"><ele>-12.8</ele><time>2022-03-20T09:46:10.000Z</time></trkpt><trkpt lon="5.906467" lat="51.175892"><ele>-12.8</ele><time>2022-03-20T09:46:11.000Z</time></trkpt><trkpt lon="5.906385" lat="51.175846"><ele>-13</ele><time>2022-03-20T09:46:12.000Z</time></trkpt><trkpt lon="5.906295" lat="51.175806"><ele>-13</ele><time>2022-03-20T09:46:13.000Z</time></trkpt><trkpt lon="5.906193" lat="51.175779"><ele>-13</ele><time>2022-03-20T09:46:14.000Z</time></trkpt><trkpt lon="5.906087" lat="51.175762"><ele>-13</ele><time>2022-03-20T09:46:15.000Z</time></trkpt><trkpt lon="5.905977" lat="51.175758"><ele>-13</ele><time>2022-03-20T09:46:16.000Z</time></trkpt><trkpt lon="5.90587" lat="51.175758"><ele>-13</ele><time>2022-03-20T09:46:17.000Z</time></trkpt><trkpt lon="5.905763" lat="51.175758"><ele>-13</ele><time>2022-03-20T09:46:18.000Z</time></trkpt><trkpt lon="5.905659" lat="51.175761"><ele>-13</ele><time>2022-03-20T09:46:19.000Z</time></trkpt><trkpt lon="5.905553" lat="51.175765"><ele>-12.8</ele><time>2022-03-20T09:46:20.000Z</time></trkpt><trkpt lon="5.905445" lat="51.175769"><ele>-12.8</ele><time>2022-03-20T09:46:21.000Z</time></trkpt><trkpt lon="5.905339" lat="51.17577"><ele>-12.8</ele><time>2022-03-20T09:46:22.000Z</time></trkpt><trkpt lon="5.905232" lat="51.175773"><ele>-12.8</ele><time>2022-03-20T09:46:23.000Z</time></trkpt><trkpt lon="5.905125" lat="51.175774"><ele>-12.8</ele><time>2022-03-20T09:46:24.000Z</time></trkpt><trkpt lon="5.905018" lat="51.175774"><ele>-12.8</ele><time>2022-03-20T09:46:25.000Z</time></trkpt><trkpt lon="5.90491" lat="51.175774"><ele>-12.8</ele><time>2022-03-20T09:46:26.000Z</time></trkpt><trkpt lon="5.904802" lat="51.175777"><ele>-12.8</ele><time>2022-03-20T09:46:27.000Z</time></trkpt><trkpt lon="5.904693" lat="51.175777"><ele>-12.8</ele><time>2022-03-20T09:46:28.000Z</time></trkpt><trkpt lon="5.904585" lat="51.17578"><ele>-12.8</ele><time>2022-03-20T09:46:29.000Z</time></trkpt><trkpt lon="5.904475" lat="51.175781"><ele>-12.8</ele><time>2022-03-20T09:46:30.000Z</time></trkpt><trkpt lon="5.904372" lat="51.175781"><ele>-12.8</ele><time>2022-03-20T09:46:31.000Z</time></trkpt><trkpt lon="5.904268" lat="51.175784"><ele>-13</ele><time>2022-03-20T09:46:32.000Z</time></trkpt><trkpt lon="5.904168" lat="51.1758"><ele>-13</ele><time>2022-03-20T09:46:33.000Z</time></trkpt><trkpt lon="5.904078" lat="51.175824"><ele>-13</ele><time>2022-03-20T09:46:34.000Z</time></trkpt><trkpt lon="5.903998" lat="51.17586"><ele>-13</ele><time>2022-03-20T09:46:35.000Z</time></trkpt><trkpt lon="5.903928" lat="51.175909"><ele>-13.2</ele><time>2022-03-20T09:46:36.000Z</time></trkpt><trkpt lon="5.903867" lat="51.175966"><ele>-13.2</ele><time>2022-03-20T09:46:37.000Z</time></trkpt><trkpt lon="5.903815" lat="51.176029"><ele>-13.2</ele><time>2022-03-20T09:46:38.000Z</time></trkpt><trkpt lon="5.90377" lat="51.176094"><ele>-13.2</ele><time>2022-03-20T09:46:39.000Z</time></trkpt><trkpt lon="5.903729" lat="51.176159"><ele>-13.4</ele><time>2022-03-20T09:46:40.000Z</time></trkpt><trkpt lon="5.903688" lat="51.176221"><ele>-13.4</ele><time>2022-03-20T09:46:41.000Z</time></trkpt><trkpt lon="5.903646" lat="51.176288"><ele>-13.4</ele><time>2022-03-20T09:46:42.000Z</time></trkpt><trkpt lon="5.903607" lat="51.17635"><ele>-13.4</ele><time>2022-03-20T09:46:43.000Z</time></trkpt><trkpt lon="5.903567" lat="51.17641"><ele>-13.4</ele><time>2022-03-20T09:46:44.000Z</time></trkpt><trkpt lon="5.903527" lat="51.176472"><ele>-13.6</ele><time>2022-03-20T09:46:45.000Z</time></trkpt><trkpt lon="5.903486" lat="51.176537"><ele>-13.6</ele><time>2022-03-20T09:46:46.000Z</time></trkpt><trkpt lon="5.903444" lat="51.176601"><ele>-13.6</ele><time>2022-03-20T09:46:47.000Z</time></trkpt><trkpt lon="5.903404" lat="51.176663"><ele>-13.6</ele><time>2022-03-20T09:46:48.000Z</time></trkpt><trkpt lon="5.903369" lat="51.176721"><ele>-13.6</ele><time>2022-03-20T09:46:49.000Z</time></trkpt><trkpt lon="5.903335" lat="51.176778"><ele>-13.6</ele><time>2022-03-20T09:46:50.000Z</time></trkpt><trkpt lon="5.903301" lat="51.176836"><ele>-13.6</ele><time>2022-03-20T09:46:51.000Z</time></trkpt><trkpt lon="5.903267" lat="51.176893"><ele>-13.6</ele><time>2022-03-20T09:46:52.000Z</time></trkpt><trkpt lon="5.90323" lat="51.176947"><ele>-13.6</ele><time>2022-03-20T09:46:53.000Z</time></trkpt><trkpt lon="5.903195" lat="51.177001"><ele>-13.8</ele><time>2022-03-20T09:46:54.000Z</time></trkpt><trkpt lon="5.90316" lat="51.177057"><ele>-13.8</ele><time>2022-03-20T09:46:55.000Z</time></trkpt><trkpt lon="5.903123" lat="51.177111"><ele>-13.8</ele><time>2022-03-20T09:46:56.000Z</time></trkpt><trkpt lon="5.903087" lat="51.177164"><ele>-14</ele><time>2022-03-20T09:46:57.000Z</time></trkpt><trkpt lon="5.903058" lat="51.177215"><ele>-14</ele><time>2022-03-20T09:46:58.000Z</time></trkpt><trkpt lon="5.903034" lat="51.177262"><ele>-14</ele><time>2022-03-20T09:46:59.000Z</time></trkpt><trkpt lon="5.903003" lat="51.177302"><ele>-13.8</ele><time>2022-03-20T09:47:00.000Z</time></trkpt><trkpt lon="5.902952" lat="51.177328"><ele>-13.8</ele><time>2022-03-20T09:47:01.000Z</time></trkpt><trkpt lon="5.902884" lat="51.17734"><ele>-13.8</ele><time>2022-03-20T09:47:02.000Z</time></trkpt><trkpt lon="5.902804" lat="51.177333"><ele>-14</ele><time>2022-03-20T09:47:03.000Z</time></trkpt><trkpt lon="5.902715" lat="51.177318"><ele>-14</ele><time>2022-03-20T09:47:04.000Z</time></trkpt><trkpt lon="5.902634" lat="51.177301"><ele>-14.2</ele><time>2022-03-20T09:47:05.000Z</time></trkpt><trkpt lon="5.902537" lat="51.177276"><ele>-14.4</ele><time>2022-03-20T09:47:06.000Z</time></trkpt><trkpt lon="5.902421" lat="51.177246"><ele>-14.4</ele><time>2022-03-20T09:47:07.000Z</time></trkpt><trkpt lon="5.902311" lat="51.177221"><ele>-14.8</ele><time>2022-03-20T09:47:08.000Z</time></trkpt><trkpt lon="5.902208" lat="51.177195"><ele>-14.8</ele><time>2022-03-20T09:47:09.000Z</time></trkpt><trkpt lon="5.902105" lat="51.177169"><ele>-15</ele><time>2022-03-20T09:47:10.000Z</time></trkpt><trkpt lon="5.902005" lat="51.177142"><ele>-14.8</ele><time>2022-03-20T09:47:11.000Z</time></trkpt><trkpt lon="5.901906" lat="51.177115"><ele>-14.6</ele><time>2022-03-20T09:47:12.000Z</time></trkpt><trkpt lon="5.901804" lat="51.177088"><ele>-14.6</ele><time>2022-03-20T09:47:13.000Z</time></trkpt><trkpt lon="5.901706" lat="51.177061"><ele>-14.6</ele><time>2022-03-20T09:47:14.000Z</time></trkpt><trkpt lon="5.90161" lat="51.177038"><ele>-14.4</ele><time>2022-03-20T09:47:15.000Z</time></trkpt><trkpt lon="5.90151" lat="51.177018"><ele>-14.4</ele><time>2022-03-20T09:47:16.000Z</time></trkpt><trkpt lon="5.901411" lat="51.177011"><ele>-14.4</ele><time>2022-03-20T09:47:17.000Z</time></trkpt><trkpt lon="5.901312" lat="51.177018"><ele>-14.6</ele><time>2022-03-20T09:47:18.000Z</time></trkpt><trkpt lon="5.901217" lat="51.177041"><ele>-14.6</ele><time>2022-03-20T09:47:19.000Z</time></trkpt><trkpt lon="5.901126" lat="51.177077"><ele>-14.6</ele><time>2022-03-20T09:47:20.000Z</time></trkpt><trkpt lon="5.901036" lat="51.177118"><ele>-14.8</ele><time>2022-03-20T09:47:21.000Z</time></trkpt><trkpt lon="5.900946" lat="51.177157"><ele>-14.8</ele><time>2022-03-20T09:47:22.000Z</time></trkpt><trkpt lon="5.900856" lat="51.177195"><ele>-14.6</ele><time>2022-03-20T09:47:23.000Z</time></trkpt><trkpt lon="5.900763" lat="51.177233"><ele>-14.6</ele><time>2022-03-20T09:47:24.000Z</time></trkpt><trkpt lon="5.900675" lat="51.177271"><ele>-14.4</ele><time>2022-03-20T09:47:25.000Z</time></trkpt><trkpt lon="5.900585" lat="51.177309"><ele>-14.4</ele><time>2022-03-20T09:47:26.000Z</time></trkpt><trkpt lon="5.900498" lat="51.177347"><ele>-14.4</ele><time>2022-03-20T09:47:27.000Z</time></trkpt><trkpt lon="5.90041" lat="51.177385"><ele>-14.4</ele><time>2022-03-20T09:47:28.000Z</time></trkpt><trkpt lon="5.900324" lat="51.177421"><ele>-14.4</ele><time>2022-03-20T09:47:29.000Z</time></trkpt><trkpt lon="5.900237" lat="51.177455"><ele>-14.2</ele><time>2022-03-20T09:47:30.000Z</time></trkpt><trkpt lon="5.900145" lat="51.177478"><ele>-14.2</ele><time>2022-03-20T09:47:31.000Z</time></trkpt><trkpt lon="5.900046" lat="51.177494"><ele>-14.2</ele><time>2022-03-20T09:47:32.000Z</time></trkpt><trkpt lon="5.89994" lat="51.177501"><ele>-14.2</ele><time>2022-03-20T09:47:33.000Z</time></trkpt><trkpt lon="5.899833" lat="51.177502"><ele>-14.4</ele><time>2022-03-20T09:47:34.000Z</time></trkpt><trkpt lon="5.899737" lat="51.177499"><ele>-14.8</ele><time>2022-03-20T09:47:35.000Z</time></trkpt><trkpt lon="5.899629" lat="51.177496"><ele>-14.8</ele><time>2022-03-20T09:47:36.000Z</time></trkpt><trkpt lon="5.899503" lat="51.177491"><ele>-15</ele><time>2022-03-20T09:47:37.000Z</time></trkpt><trkpt lon="5.899394" lat="51.177481"><ele>-15</ele><time>2022-03-20T09:47:38.000Z</time></trkpt><trkpt lon="5.899294" lat="51.177467"><ele>-15</ele><time>2022-03-20T09:47:39.000Z</time></trkpt><trkpt lon="5.899195" lat="51.177443"><ele>-15</ele><time>2022-03-20T09:47:40.000Z</time></trkpt><trkpt lon="5.899103" lat="51.177411"><ele>-15</ele><time>2022-03-20T09:47:41.000Z</time></trkpt><trkpt lon="5.899017" lat="51.177374"><ele>-15</ele><time>2022-03-20T09:47:42.000Z</time></trkpt><trkpt lon="5.898936" lat="51.177331"><ele>-15</ele><time>2022-03-20T09:47:43.000Z</time></trkpt><trkpt lon="5.898856" lat="51.177284"><ele>-15</ele><time>2022-03-20T09:47:44.000Z</time></trkpt><trkpt lon="5.898779" lat="51.177235"><ele>-14.8</ele><time>2022-03-20T09:47:45.000Z</time></trkpt><trkpt lon="5.898704" lat="51.177188"><ele>-14.8</ele><time>2022-03-20T09:47:46.000Z</time></trkpt><trkpt lon="5.898633" lat="51.177143"><ele>-14.8</ele><time>2022-03-20T09:47:47.000Z</time></trkpt><trkpt lon="5.898561" lat="51.1771"><ele>-14.8</ele><time>2022-03-20T09:47:48.000Z</time></trkpt><trkpt lon="5.898495" lat="51.177058"><ele>-14.8</ele><time>2022-03-20T09:47:49.000Z</time></trkpt><trkpt lon="5.898429" lat="51.177013"><ele>-14.8</ele><time>2022-03-20T09:47:50.000Z</time></trkpt><trkpt lon="5.898365" lat="51.17697"><ele>-14.8</ele><time>2022-03-20T09:47:51.000Z</time></trkpt><trkpt lon="5.898301" lat="51.176931"><ele>-14.6</ele><time>2022-03-20T09:47:52.000Z</time></trkpt><trkpt lon="5.898231" lat="51.176893"><ele>-14.6</ele><time>2022-03-20T09:47:53.000Z</time></trkpt><trkpt lon="5.898161" lat="51.17686"><ele>-14.6</ele><time>2022-03-20T09:47:54.000Z</time></trkpt><trkpt lon="5.898093" lat="51.176827"><ele>-14.4</ele><time>2022-03-20T09:47:55.000Z</time></trkpt><trkpt lon="5.898035" lat="51.176796"><ele>-14.4</ele><time>2022-03-20T09:47:56.000Z</time></trkpt><trkpt lon="5.897995" lat="51.176753"><ele>-14.2</ele><time>2022-03-20T09:47:57.000Z</time></trkpt><trkpt lon="5.897974" lat="51.176702"><ele>-14.2</ele><time>2022-03-20T09:47:58.000Z</time></trkpt><trkpt lon="5.897965" lat="51.17664"><ele>-14.4</ele><time>2022-03-20T09:47:59.000Z</time></trkpt><trkpt lon="5.897957" lat="51.176575"><ele>-14.6</ele><time>2022-03-20T09:48:00.000Z</time></trkpt><trkpt lon="5.897937" lat="51.176507"><ele>-14.8</ele><time>2022-03-20T09:48:01.000Z</time></trkpt><trkpt lon="5.8979" lat="51.176445"><ele>-14.8</ele><time>2022-03-20T09:48:02.000Z</time></trkpt><trkpt lon="5.897851" lat="51.176383"><ele>-14.8</ele><time>2022-03-20T09:48:03.000Z</time></trkpt><trkpt lon="5.897798" lat="51.176332"><ele>-14.8</ele><time>2022-03-20T09:48:04.000Z</time></trkpt><trkpt lon="5.897742" lat="51.176282"><ele>-14.8</ele><time>2022-03-20T09:48:05.000Z</time></trkpt><trkpt lon="5.897684" lat="51.176237"><ele>-14.8</ele><time>2022-03-20T09:48:06.000Z</time></trkpt><trkpt lon="5.897641" lat="51.176189"><ele>-14.8</ele><time>2022-03-20T09:48:07.000Z</time></trkpt><trkpt lon="5.897618" lat="51.176137"><ele>-14.8</ele><time>2022-03-20T09:48:08.000Z</time></trkpt><trkpt lon="5.897608" lat="51.176078"><ele>-14.8</ele><time>2022-03-20T09:48:09.000Z</time></trkpt><trkpt lon="5.897612" lat="51.176014"><ele>-14.8</ele><time>2022-03-20T09:48:10.000Z</time></trkpt><trkpt lon="5.897627" lat="51.175952"><ele>-14.8</ele><time>2022-03-20T09:48:11.000Z</time></trkpt><trkpt lon="5.897648" lat="51.175891"><ele>-14.8</ele><time>2022-03-20T09:48:12.000Z</time></trkpt><trkpt lon="5.897668" lat="51.175833"><ele>-14.8</ele><time>2022-03-20T09:48:13.000Z</time></trkpt><trkpt lon="5.897688" lat="51.175773"><ele>-15</ele><time>2022-03-20T09:48:14.000Z</time></trkpt><trkpt lon="5.897713" lat="51.175712"><ele>-14.8</ele><time>2022-03-20T09:48:15.000Z</time></trkpt><trkpt lon="5.897739" lat="51.175654"><ele>-14.8</ele><time>2022-03-20T09:48:16.000Z</time></trkpt><trkpt lon="5.897764" lat="51.175594"><ele>-14.8</ele><time>2022-03-20T09:48:17.000Z</time></trkpt><trkpt lon="5.897788" lat="51.175535"><ele>-14.8</ele><time>2022-03-20T09:48:18.000Z</time></trkpt><trkpt lon="5.897811" lat="51.175478"><ele>-14.8</ele><time>2022-03-20T09:48:19.000Z</time></trkpt><trkpt lon="5.897836" lat="51.175415"><ele>-14.8</ele><time>2022-03-20T09:48:20.000Z</time></trkpt><trkpt lon="5.89786" lat="51.175351"><ele>-14.8</ele><time>2022-03-20T09:48:21.000Z</time></trkpt><trkpt lon="5.897887" lat="51.175286"><ele>-14.6</ele><time>2022-03-20T09:48:22.000Z</time></trkpt><trkpt lon="5.897914" lat="51.175218"><ele>-14.8</ele><time>2022-03-20T09:48:23.000Z</time></trkpt><trkpt lon="5.897941" lat="51.175149"><ele>-14.6</ele><time>2022-03-20T09:48:24.000Z</time></trkpt><trkpt lon="5.897968" lat="51.175086"><ele>-14.6</ele><time>2022-03-20T09:48:25.000Z</time></trkpt><trkpt lon="5.897992" lat="51.17502"><ele>-14.6</ele><time>2022-03-20T09:48:26.000Z</time></trkpt><trkpt lon="5.898003" lat="51.17495"><ele>-14.8</ele><time>2022-03-20T09:48:27.000Z</time></trkpt><trkpt lon="5.898005" lat="51.174882"><ele>-14.8</ele><time>2022-03-20T09:48:28.000Z</time></trkpt><trkpt lon="5.897997" lat="51.174817"><ele>-14.8</ele><time>2022-03-20T09:48:29.000Z</time></trkpt><trkpt lon="5.897984" lat="51.174754"><ele>-14.6</ele><time>2022-03-20T09:48:30.000Z</time></trkpt><trkpt lon="5.897963" lat="51.17469"><ele>-14.6</ele><time>2022-03-20T09:48:31.000Z</time></trkpt><trkpt lon="5.897943" lat="51.174624"><ele>-14.6</ele><time>2022-03-20T09:48:32.000Z</time></trkpt><trkpt lon="5.897923" lat="51.174557"><ele>-14.6</ele><time>2022-03-20T09:48:33.000Z</time></trkpt><trkpt lon="5.897904" lat="51.174492"><ele>-14.6</ele><time>2022-03-20T09:48:34.000Z</time></trkpt><trkpt lon="5.897885" lat="51.174425"><ele>-14.6</ele><time>2022-03-20T09:48:35.000Z</time></trkpt><trkpt lon="5.897866" lat="51.174358"><ele>-14.4</ele><time>2022-03-20T09:48:36.000Z</time></trkpt><trkpt lon="5.897849" lat="51.174293"><ele>-14.4</ele><time>2022-03-20T09:48:37.000Z</time></trkpt><trkpt lon="5.897829" lat="51.174229"><ele>-14.4</ele><time>2022-03-20T09:48:38.000Z</time></trkpt><trkpt lon="5.897813" lat="51.174169"><ele>-14.4</ele><time>2022-03-20T09:48:39.000Z</time></trkpt><trkpt lon="5.897801" lat="51.174109"><ele>-14.4</ele><time>2022-03-20T09:48:40.000Z</time></trkpt><trkpt lon="5.897789" lat="51.174055"><ele>-14.4</ele><time>2022-03-20T09:48:41.000Z</time></trkpt><trkpt lon="5.897777" lat="51.173999"><ele>-14.2</ele><time>2022-03-20T09:48:42.000Z</time></trkpt><trkpt lon="5.897766" lat="51.173941"><ele>-14.2</ele><time>2022-03-20T09:48:43.000Z</time></trkpt><trkpt lon="5.897749" lat="51.173884"><ele>-14.2</ele><time>2022-03-20T09:48:44.000Z</time></trkpt><trkpt lon="5.897717" lat="51.173832"><ele>-14.2</ele><time>2022-03-20T09:48:45.000Z</time></trkpt><trkpt lon="5.897681" lat="51.17378"><ele>-14.2</ele><time>2022-03-20T09:48:46.000Z</time></trkpt><trkpt lon="5.897659" lat="51.173723"><ele>-14.2</ele><time>2022-03-20T09:48:47.000Z</time></trkpt><trkpt lon="5.897639" lat="51.173661"><ele>-14.2</ele><time>2022-03-20T09:48:48.000Z</time></trkpt><trkpt lon="5.897621" lat="51.173593"><ele>-14.2</ele><time>2022-03-20T09:48:49.000Z</time></trkpt><trkpt lon="5.897602" lat="51.173524"><ele>-14.2</ele><time>2022-03-20T09:48:50.000Z</time></trkpt><trkpt lon="5.897582" lat="51.173453"><ele>-14.2</ele><time>2022-03-20T09:48:51.000Z</time></trkpt><trkpt lon="5.897562" lat="51.173389"><ele>-14</ele><time>2022-03-20T09:48:52.000Z</time></trkpt><trkpt lon="5.897542" lat="51.173325"><ele>-14</ele><time>2022-03-20T09:48:53.000Z</time></trkpt><trkpt lon="5.897523" lat="51.173263"><ele>-14</ele><time>2022-03-20T09:48:54.000Z</time></trkpt><trkpt lon="5.897505" lat="51.173199"><ele>-14</ele><time>2022-03-20T09:48:55.000Z</time></trkpt><trkpt lon="5.89749" lat="51.173131"><ele>-14</ele><time>2022-03-20T09:48:56.000Z</time></trkpt><trkpt lon="5.897475" lat="51.173065"><ele>-14</ele><time>2022-03-20T09:48:57.000Z</time></trkpt><trkpt lon="5.89746" lat="51.173"><ele>-14</ele><time>2022-03-20T09:48:58.000Z</time></trkpt><trkpt lon="5.897443" lat="51.172936"><ele>-14</ele><time>2022-03-20T09:48:59.000Z</time></trkpt><trkpt lon="5.897424" lat="51.172868"><ele>-14</ele><time>2022-03-20T09:49:00.000Z</time></trkpt><trkpt lon="5.897406" lat="51.172802"><ele>-14</ele><time>2022-03-20T09:49:01.000Z</time></trkpt><trkpt lon="5.897386" lat="51.172734"><ele>-14</ele><time>2022-03-20T09:49:02.000Z</time></trkpt><trkpt lon="5.89737" lat="51.172668"><ele>-14</ele><time>2022-03-20T09:49:03.000Z</time></trkpt><trkpt lon="5.897351" lat="51.172603"><ele>-13.8</ele><time>2022-03-20T09:49:04.000Z</time></trkpt><trkpt lon="5.897335" lat="51.172541"><ele>-13.8</ele><time>2022-03-20T09:49:05.000Z</time></trkpt><trkpt lon="5.897321" lat="51.172471"><ele>-13.8</ele><time>2022-03-20T09:49:06.000Z</time></trkpt><trkpt lon="5.897307" lat="51.172396"><ele>-13.8</ele><time>2022-03-20T09:49:07.000Z</time></trkpt><trkpt lon="5.897292" lat="51.172326"><ele>-13.8</ele><time>2022-03-20T09:49:08.000Z</time></trkpt><trkpt lon="5.897277" lat="51.172254"><ele>-13.8</ele><time>2022-03-20T09:49:09.000Z</time></trkpt><trkpt lon="5.897261" lat="51.172185"><ele>-13.8</ele><time>2022-03-20T09:49:10.000Z</time></trkpt><trkpt lon="5.897244" lat="51.17212"><ele>-14</ele><time>2022-03-20T09:49:11.000Z</time></trkpt><trkpt lon="5.897227" lat="51.172051"><ele>-14</ele><time>2022-03-20T09:49:12.000Z</time></trkpt><trkpt lon="5.897212" lat="51.171983"><ele>-14</ele><time>2022-03-20T09:49:13.000Z</time></trkpt><trkpt lon="5.897197" lat="51.171917"><ele>-14</ele><time>2022-03-20T09:49:14.000Z</time></trkpt><trkpt lon="5.897181" lat="51.171852"><ele>-14</ele><time>2022-03-20T09:49:15.000Z</time></trkpt><trkpt lon="5.897165" lat="51.171788"><ele>-14</ele><time>2022-03-20T09:49:16.000Z</time></trkpt><trkpt lon="5.897149" lat="51.171723"><ele>-14</ele><time>2022-03-20T09:49:17.000Z</time></trkpt><trkpt lon="5.897132" lat="51.171657"><ele>-14</ele><time>2022-03-20T09:49:18.000Z</time></trkpt><trkpt lon="5.897117" lat="51.17159"><ele>-14</ele><time>2022-03-20T09:49:19.000Z</time></trkpt><trkpt lon="5.897102" lat="51.171525"><ele>-14</ele><time>2022-03-20T09:49:20.000Z</time></trkpt><trkpt lon="5.897086" lat="51.171462"><ele>-14</ele><time>2022-03-20T09:49:21.000Z</time></trkpt><trkpt lon="5.897069" lat="51.171399"><ele>-13.8</ele><time>2022-03-20T09:49:22.000Z</time></trkpt><trkpt lon="5.897054" lat="51.171334"><ele>-13.8</ele><time>2022-03-20T09:49:23.000Z</time></trkpt><trkpt lon="5.897037" lat="51.171269"><ele>-13.8</ele><time>2022-03-20T09:49:24.000Z</time></trkpt><trkpt lon="5.897018" lat="51.171204"><ele>-13.8</ele><time>2022-03-20T09:49:25.000Z</time></trkpt><trkpt lon="5.897" lat="51.171143"><ele>-13.8</ele><time>2022-03-20T09:49:26.000Z</time></trkpt><trkpt lon="5.896981" lat="51.171078"><ele>-13.8</ele><time>2022-03-20T09:49:27.000Z</time></trkpt><trkpt lon="5.896965" lat="51.171013"><ele>-13.8</ele><time>2022-03-20T09:49:28.000Z</time></trkpt><trkpt lon="5.896952" lat="51.170949"><ele>-13.8</ele><time>2022-03-20T09:49:29.000Z</time></trkpt><trkpt lon="5.896937" lat="51.170883"><ele>-13.8</ele><time>2022-03-20T09:49:30.000Z</time></trkpt><trkpt lon="5.896921" lat="51.170818"><ele>-13.8</ele><time>2022-03-20T09:49:31.000Z</time></trkpt><trkpt lon="5.896904" lat="51.170754"><ele>-13.8</ele><time>2022-03-20T09:49:32.000Z</time></trkpt><trkpt lon="5.896889" lat="51.170689"><ele>-13.8</ele><time>2022-03-20T09:49:33.000Z</time></trkpt><trkpt lon="5.896874" lat="51.170624"><ele>-13.8</ele><time>2022-03-20T09:49:34.000Z</time></trkpt><trkpt lon="5.896856" lat="51.170559"><ele>-14</ele><time>2022-03-20T09:49:35.000Z</time></trkpt><trkpt lon="5.896836" lat="51.170495"><ele>-14</ele><time>2022-03-20T09:49:36.000Z</time></trkpt><trkpt lon="5.896819" lat="51.17043"><ele>-14</ele><time>2022-03-20T09:49:37.000Z</time></trkpt><trkpt lon="5.896802" lat="51.170364"><ele>-14</ele><time>2022-03-20T09:49:38.000Z</time></trkpt><trkpt lon="5.896783" lat="51.1703"><ele>-14</ele><time>2022-03-20T09:49:39.000Z</time></trkpt><trkpt lon="5.896763" lat="51.170238"><ele>-14</ele><time>2022-03-20T09:49:40.000Z</time></trkpt><trkpt lon="5.896747" lat="51.170174"><ele>-14</ele><time>2022-03-20T09:49:41.000Z</time></trkpt><trkpt lon="5.89673" lat="51.17011"><ele>-14</ele><time>2022-03-20T09:49:42.000Z</time></trkpt><trkpt lon="5.896712" lat="51.170049"><ele>-14</ele><time>2022-03-20T09:49:43.000Z</time></trkpt><trkpt lon="5.896696" lat="51.169987"><ele>-14</ele><time>2022-03-20T09:49:44.000Z</time></trkpt><trkpt lon="5.896682" lat="51.169922"><ele>-14</ele><time>2022-03-20T09:49:45.000Z</time></trkpt><trkpt lon="5.896668" lat="51.169858"><ele>-14</ele><time>2022-03-20T09:49:46.000Z</time></trkpt><trkpt lon="5.896653" lat="51.169798"><ele>-14.2</ele><time>2022-03-20T09:49:47.000Z</time></trkpt><trkpt lon="5.896639" lat="51.169735"><ele>-14.2</ele><time>2022-03-20T09:49:48.000Z</time></trkpt><trkpt lon="5.896625" lat="51.169674"><ele>-14.2</ele><time>2022-03-20T09:49:49.000Z</time></trkpt><trkpt lon="5.896609" lat="51.169612"><ele>-14.2</ele><time>2022-03-20T09:49:50.000Z</time></trkpt><trkpt lon="5.896592" lat="51.169554"><ele>-14.2</ele><time>2022-03-20T09:49:51.000Z</time></trkpt><trkpt lon="5.896577" lat="51.169494"><ele>-14.2</ele><time>2022-03-20T09:49:52.000Z</time></trkpt><trkpt lon="5.896564" lat="51.169434"><ele>-14.2</ele><time>2022-03-20T09:49:53.000Z</time></trkpt><trkpt lon="5.896549" lat="51.169369"><ele>-14.2</ele><time>2022-03-20T09:49:54.000Z</time></trkpt><trkpt lon="5.896534" lat="51.16931"><ele>-14.2</ele><time>2022-03-20T09:49:55.000Z</time></trkpt><trkpt lon="5.896516" lat="51.16925"><ele>-14.4</ele><time>2022-03-20T09:49:56.000Z</time></trkpt><trkpt lon="5.8965" lat="51.169186"><ele>-14.2</ele><time>2022-03-20T09:49:57.000Z</time></trkpt><trkpt lon="5.896484" lat="51.169124"><ele>-14.2</ele><time>2022-03-20T09:49:58.000Z</time></trkpt><trkpt lon="5.896469" lat="51.16906"><ele>-14.2</ele><time>2022-03-20T09:49:59.000Z</time></trkpt><trkpt lon="5.896454" lat="51.168998"><ele>-14.2</ele><time>2022-03-20T09:50:00.000Z</time></trkpt><trkpt lon="5.896438" lat="51.168934"><ele>-14.2</ele><time>2022-03-20T09:50:01.000Z</time></trkpt><trkpt lon="5.896421" lat="51.168875"><ele>-14.4</ele><time>2022-03-20T09:50:02.000Z</time></trkpt><trkpt lon="5.896404" lat="51.168815"><ele>-14.4</ele><time>2022-03-20T09:50:03.000Z</time></trkpt><trkpt lon="5.896389" lat="51.168754"><ele>-14.2</ele><time>2022-03-20T09:50:04.000Z</time></trkpt><trkpt lon="5.896373" lat="51.168696"><ele>-14.2</ele><time>2022-03-20T09:50:05.000Z</time></trkpt><trkpt lon="5.896356" lat="51.168635"><ele>-14</ele><time>2022-03-20T09:50:06.000Z</time></trkpt><trkpt lon="5.896342" lat="51.168574"><ele>-14</ele><time>2022-03-20T09:50:07.000Z</time></trkpt><trkpt lon="5.896329" lat="51.168513"><ele>-14</ele><time>2022-03-20T09:50:08.000Z</time></trkpt><trkpt lon="5.896318" lat="51.168455"><ele>-14</ele><time>2022-03-20T09:50:09.000Z</time></trkpt><trkpt lon="5.896306" lat="51.168404"><ele>-14</ele><time>2022-03-20T09:50:10.000Z</time></trkpt><trkpt lon="5.896293" lat="51.168355"><ele>-14</ele><time>2022-03-20T09:50:11.000Z</time></trkpt><trkpt lon="5.896282" lat="51.168308"><ele>-14</ele><time>2022-03-20T09:50:12.000Z</time></trkpt><trkpt lon="5.896267" lat="51.168265"><ele>-14</ele><time>2022-03-20T09:50:13.000Z</time></trkpt><trkpt lon="5.896242" lat="51.168223"><ele>-14</ele><time>2022-03-20T09:50:14.000Z</time></trkpt><trkpt lon="5.896204" lat="51.16819"><ele>-14</ele><time>2022-03-20T09:50:15.000Z</time></trkpt><trkpt lon="5.896156" lat="51.168159"><ele>-14</ele><time>2022-03-20T09:50:16.000Z</time></trkpt><trkpt lon="5.896111" lat="51.168131"><ele>-14</ele><time>2022-03-20T09:50:17.000Z</time></trkpt><trkpt lon="5.896076" lat="51.168102"><ele>-13.8</ele><time>2022-03-20T09:50:18.000Z</time></trkpt><trkpt lon="5.896057" lat="51.168069"><ele>-13.8</ele><time>2022-03-20T09:50:19.000Z</time></trkpt><trkpt lon="5.896045" lat="51.168034"><ele>-13.6</ele><time>2022-03-20T09:50:20.000Z</time></trkpt><trkpt lon="5.896025" lat="51.168006"><ele>-13.6</ele><time>2022-03-20T09:50:21.000Z</time></trkpt><trkpt lon="5.895994" lat="51.167982"><ele>-13.6</ele><time>2022-03-20T09:50:22.000Z</time></trkpt><trkpt lon="5.895948" lat="51.167968"><ele>-13.6</ele><time>2022-03-20T09:50:23.000Z</time></trkpt><trkpt lon="5.895879" lat="51.167974"><ele>-13.6</ele><time>2022-03-20T09:50:24.000Z</time></trkpt><trkpt lon="5.895796" lat="51.167985"><ele>-13.6</ele><time>2022-03-20T09:50:25.000Z</time></trkpt><trkpt lon="5.895705" lat="51.167994"><ele>-13.6</ele><time>2022-03-20T09:50:26.000Z</time></trkpt><trkpt lon="5.895607" lat="51.168004"><ele>-13.4</ele><time>2022-03-20T09:50:27.000Z</time></trkpt><trkpt lon="5.895507" lat="51.168013"><ele>-13.4</ele><time>2022-03-20T09:50:28.000Z</time></trkpt><trkpt lon="5.895407" lat="51.168023"><ele>-13.2</ele><time>2022-03-20T09:50:29.000Z</time></trkpt><trkpt lon="5.895311" lat="51.168035"><ele>-13</ele><time>2022-03-20T09:50:30.000Z</time></trkpt><trkpt lon="5.895215" lat="51.168046"><ele>-12.8</ele><time>2022-03-20T09:50:31.000Z</time></trkpt><trkpt lon="5.89512" lat="51.168055"><ele>-12.6</ele><time>2022-03-20T09:50:32.000Z</time></trkpt><trkpt lon="5.895022" lat="51.168062"><ele>-12.4</ele><time>2022-03-20T09:50:33.000Z</time></trkpt><trkpt lon="5.894927" lat="51.16807"><ele>-12.2</ele><time>2022-03-20T09:50:34.000Z</time></trkpt><trkpt lon="5.894832" lat="51.168081"><ele>-12</ele><time>2022-03-20T09:50:35.000Z</time></trkpt><trkpt lon="5.894738" lat="51.168089"><ele>-12</ele><time>2022-03-20T09:50:36.000Z</time></trkpt><trkpt lon="5.894644" lat="51.168097"><ele>-11.8</ele><time>2022-03-20T09:50:37.000Z</time></trkpt><trkpt lon="5.894551" lat="51.168107"><ele>-11.8</ele><time>2022-03-20T09:50:38.000Z</time></trkpt><trkpt lon="5.894459" lat="51.168118"><ele>-11.6</ele><time>2022-03-20T09:50:39.000Z</time></trkpt><trkpt lon="5.894361" lat="51.168127"><ele>-11.6</ele><time>2022-03-20T09:50:40.000Z</time></trkpt><trkpt lon="5.894266" lat="51.168138"><ele>-11.6</ele><time>2022-03-20T09:50:41.000Z</time></trkpt><trkpt lon="5.894168" lat="51.168149"><ele>-11.8</ele><time>2022-03-20T09:50:42.000Z</time></trkpt><trkpt lon="5.894069" lat="51.16816"><ele>-11.8</ele><time>2022-03-20T09:50:43.000Z</time></trkpt><trkpt lon="5.893972" lat="51.168178"><ele>-12</ele><time>2022-03-20T09:50:44.000Z</time></trkpt><trkpt lon="5.89387" lat="51.1682"><ele>-12</ele><time>2022-03-20T09:50:45.000Z</time></trkpt><trkpt lon="5.89377" lat="51.168223"><ele>-12</ele><time>2022-03-20T09:50:46.000Z</time></trkpt><trkpt lon="5.89367" lat="51.168243"><ele>-12.2</ele><time>2022-03-20T09:50:47.000Z</time></trkpt><trkpt lon="5.893569" lat="51.168265"><ele>-12.2</ele><time>2022-03-20T09:50:48.000Z</time></trkpt><trkpt lon="5.893476" lat="51.168284"><ele>-12.2</ele><time>2022-03-20T09:50:49.000Z</time></trkpt><trkpt lon="5.893378" lat="51.168307"><ele>-12.2</ele><time>2022-03-20T09:50:50.000Z</time></trkpt><trkpt lon="5.893279" lat="51.168329"><ele>-12.2</ele><time>2022-03-20T09:50:51.000Z</time></trkpt><trkpt lon="5.89318" lat="51.168349"><ele>-12.2</ele><time>2022-03-20T09:50:52.000Z</time></trkpt><trkpt lon="5.89308" lat="51.168369"><ele>-12.2</ele><time>2022-03-20T09:50:53.000Z</time></trkpt><trkpt lon="5.892982" lat="51.168391"><ele>-12.2</ele><time>2022-03-20T09:50:54.000Z</time></trkpt><trkpt lon="5.892886" lat="51.168411"><ele>-12.4</ele><time>2022-03-20T09:50:55.000Z</time></trkpt><trkpt lon="5.892788" lat="51.16843"><ele>-12.4</ele><time>2022-03-20T09:50:56.000Z</time></trkpt><trkpt lon="5.892692" lat="51.168446"><ele>-12.4</ele><time>2022-03-20T09:50:57.000Z</time></trkpt><trkpt lon="5.892591" lat="51.168464"><ele>-12.4</ele><time>2022-03-20T09:50:58.000Z</time></trkpt><trkpt lon="5.892489" lat="51.168483"><ele>-12.4</ele><time>2022-03-20T09:50:59.000Z</time></trkpt><trkpt lon="5.892388" lat="51.168502"><ele>-12.4</ele><time>2022-03-20T09:51:00.000Z</time></trkpt><trkpt lon="5.892291" lat="51.168524"><ele>-12.4</ele><time>2022-03-20T09:51:01.000Z</time></trkpt><trkpt lon="5.89219" lat="51.168547"><ele>-12.4</ele><time>2022-03-20T09:51:02.000Z</time></trkpt><trkpt lon="5.892091" lat="51.16857"><ele>-12.4</ele><time>2022-03-20T09:51:03.000Z</time></trkpt><trkpt lon="5.891994" lat="51.168593"><ele>-12.4</ele><time>2022-03-20T09:51:04.000Z</time></trkpt><trkpt lon="5.891898" lat="51.168613"><ele>-12.4</ele><time>2022-03-20T09:51:05.000Z</time></trkpt><trkpt lon="5.891802" lat="51.168634"><ele>-12.4</ele><time>2022-03-20T09:51:06.000Z</time></trkpt><trkpt lon="5.891701" lat="51.168658"><ele>-12.4</ele><time>2022-03-20T09:51:07.000Z</time></trkpt><trkpt lon="5.891604" lat="51.168678"><ele>-12.4</ele><time>2022-03-20T09:51:08.000Z</time></trkpt><trkpt lon="5.89151" lat="51.168699"><ele>-12.4</ele><time>2022-03-20T09:51:09.000Z</time></trkpt><trkpt lon="5.891413" lat="51.168722"><ele>-12.4</ele><time>2022-03-20T09:51:10.000Z</time></trkpt><trkpt lon="5.891315" lat="51.168745"><ele>-12.4</ele><time>2022-03-20T09:51:11.000Z</time></trkpt><trkpt lon="5.891217" lat="51.168768"><ele>-12.4</ele><time>2022-03-20T09:51:12.000Z</time></trkpt><trkpt lon="5.891115" lat="51.168791"><ele>-12.4</ele><time>2022-03-20T09:51:13.000Z</time></trkpt><trkpt lon="5.891015" lat="51.168811"><ele>-12.4</ele><time>2022-03-20T09:51:14.000Z</time></trkpt><trkpt lon="5.890919" lat="51.168833"><ele>-12.4</ele><time>2022-03-20T09:51:15.000Z</time></trkpt><trkpt lon="5.890823" lat="51.168856"><ele>-12.4</ele><time>2022-03-20T09:51:16.000Z</time></trkpt><trkpt lon="5.890727" lat="51.168881"><ele>-12.4</ele><time>2022-03-20T09:51:17.000Z</time></trkpt><trkpt lon="5.890628" lat="51.168903"><ele>-12.2</ele><time>2022-03-20T09:51:18.000Z</time></trkpt><trkpt lon="5.890531" lat="51.168921"><ele>-12</ele><time>2022-03-20T09:51:19.000Z</time></trkpt><trkpt lon="5.890429" lat="51.168938"><ele>-11.8</ele><time>2022-03-20T09:51:20.000Z</time></trkpt><trkpt lon="5.890329" lat="51.168953"><ele>-11.8</ele><time>2022-03-20T09:51:21.000Z</time></trkpt><trkpt lon="5.890226" lat="51.168968"><ele>-11.6</ele><time>2022-03-20T09:51:22.000Z</time></trkpt><trkpt lon="5.890124" lat="51.168981"><ele>-11.4</ele><time>2022-03-20T09:51:23.000Z</time></trkpt><trkpt lon="5.890022" lat="51.168992"><ele>-11</ele><time>2022-03-20T09:51:24.000Z</time></trkpt><trkpt lon="5.889921" lat="51.169001"><ele>-10.8</ele><time>2022-03-20T09:51:25.000Z</time></trkpt><trkpt lon="5.889819" lat="51.169005"><ele>-10.4</ele><time>2022-03-20T09:51:26.000Z</time></trkpt><trkpt lon="5.889721" lat="51.169006"><ele>-10</ele><time>2022-03-20T09:51:27.000Z</time></trkpt><trkpt lon="5.889629" lat="51.169004"><ele>-9.6</ele><time>2022-03-20T09:51:28.000Z</time></trkpt><trkpt lon="5.889539" lat="51.168997"><ele>-9.2</ele><time>2022-03-20T09:51:29.000Z</time></trkpt><trkpt lon="5.889456" lat="51.168986"><ele>-9</ele><time>2022-03-20T09:51:30.000Z</time></trkpt><trkpt lon="5.889377" lat="51.168975"><ele>-8.6</ele><time>2022-03-20T09:51:31.000Z</time></trkpt><trkpt lon="5.889302" lat="51.168963"><ele>-8.2</ele><time>2022-03-20T09:51:32.000Z</time></trkpt><trkpt lon="5.889236" lat="51.168946"><ele>-7.8</ele><time>2022-03-20T09:51:33.000Z</time></trkpt><trkpt lon="5.889172" lat="51.16893"><ele>-7.6</ele><time>2022-03-20T09:51:34.000Z</time></trkpt><trkpt lon="5.889107" lat="51.16892"><ele>-7.4</ele><time>2022-03-20T09:51:35.000Z</time></trkpt><trkpt lon="5.889038" lat="51.168916"><ele>-7.2</ele><time>2022-03-20T09:51:36.000Z</time></trkpt><trkpt lon="5.888964" lat="51.168912"><ele>-7</ele><time>2022-03-20T09:51:37.000Z</time></trkpt><trkpt lon="5.88889" lat="51.168893"><ele>-6.8</ele><time>2022-03-20T09:51:38.000Z</time></trkpt><trkpt lon="5.888816" lat="51.168865"><ele>-6.6</ele><time>2022-03-20T09:51:39.000Z</time></trkpt><trkpt lon="5.888741" lat="51.168831"><ele>-6.6</ele><time>2022-03-20T09:51:40.000Z</time></trkpt><trkpt lon="5.888665" lat="51.1688"><ele>-6.4</ele><time>2022-03-20T09:51:41.000Z</time></trkpt><trkpt lon="5.888588" lat="51.168767"><ele>-6.4</ele><time>2022-03-20T09:51:42.000Z</time></trkpt><trkpt lon="5.888512" lat="51.16873"><ele>-6.2</ele><time>2022-03-20T09:51:43.000Z</time></trkpt><trkpt lon="5.888438" lat="51.168698"><ele>-6</ele><time>2022-03-20T09:51:44.000Z</time></trkpt><trkpt lon="5.888361" lat="51.168664"><ele>-5.6</ele><time>2022-03-20T09:51:45.000Z</time></trkpt><trkpt lon="5.888285" lat="51.168629"><ele>-5.4</ele><time>2022-03-20T09:51:46.000Z</time></trkpt><trkpt lon="5.888205" lat="51.168595"><ele>-5.2</ele><time>2022-03-20T09:51:47.000Z</time></trkpt><trkpt lon="5.888127" lat="51.168558"><ele>-5.2</ele><time>2022-03-20T09:51:48.000Z</time></trkpt><trkpt lon="5.888044" lat="51.168522"><ele>-5.2</ele><time>2022-03-20T09:51:49.000Z</time></trkpt><trkpt lon="5.887961" lat="51.168488"><ele>-5.4</ele><time>2022-03-20T09:51:50.000Z</time></trkpt><trkpt lon="5.887877" lat="51.168451"><ele>-5.6</ele><time>2022-03-20T09:51:51.000Z</time></trkpt><trkpt lon="5.887789" lat="51.168409"><ele>-5.8</ele><time>2022-03-20T09:51:52.000Z</time></trkpt><trkpt lon="5.887701" lat="51.168373"><ele>-6</ele><time>2022-03-20T09:51:53.000Z</time></trkpt><trkpt lon="5.887613" lat="51.168337"><ele>-6.2</ele><time>2022-03-20T09:51:54.000Z</time></trkpt><trkpt lon="5.887524" lat="51.168298"><ele>-6.4</ele><time>2022-03-20T09:51:55.000Z</time></trkpt><trkpt lon="5.887436" lat="51.168257"><ele>-6.4</ele><time>2022-03-20T09:51:56.000Z</time></trkpt><trkpt lon="5.887346" lat="51.168215"><ele>-6.4</ele><time>2022-03-20T09:51:57.000Z</time></trkpt><trkpt lon="5.887257" lat="51.168173"><ele>-6.6</ele><time>2022-03-20T09:51:58.000Z</time></trkpt><trkpt lon="5.887169" lat="51.168131"><ele>-6.8</ele><time>2022-03-20T09:51:59.000Z</time></trkpt><trkpt lon="5.887082" lat="51.168089"><ele>-6.8</ele><time>2022-03-20T09:52:00.000Z</time></trkpt><trkpt lon="5.886999" lat="51.168047"><ele>-7</ele><time>2022-03-20T09:52:01.000Z</time></trkpt><trkpt lon="5.886921" lat="51.168003"><ele>-7</ele><time>2022-03-20T09:52:02.000Z</time></trkpt><trkpt lon="5.886845" lat="51.167951"><ele>-7.2</ele><time>2022-03-20T09:52:03.000Z</time></trkpt><trkpt lon="5.886772" lat="51.167898"><ele>-7.2</ele><time>2022-03-20T09:52:04.000Z</time></trkpt><trkpt lon="5.886705" lat="51.167847"><ele>-7.2</ele><time>2022-03-20T09:52:05.000Z</time></trkpt><trkpt lon="5.886644" lat="51.167791"><ele>-7.4</ele><time>2022-03-20T09:52:06.000Z</time></trkpt><trkpt lon="5.886588" lat="51.167731"><ele>-7.4</ele><time>2022-03-20T09:52:07.000Z</time></trkpt><trkpt lon="5.886535" lat="51.167673"><ele>-7.6</ele><time>2022-03-20T09:52:08.000Z</time></trkpt><trkpt lon="5.886485" lat="51.167613"><ele>-7.6</ele><time>2022-03-20T09:52:09.000Z</time></trkpt><trkpt lon="5.886435" lat="51.167555"><ele>-7.8</ele><time>2022-03-20T09:52:10.000Z</time></trkpt><trkpt lon="5.886389" lat="51.167498"><ele>-7.8</ele><time>2022-03-20T09:52:11.000Z</time></trkpt><trkpt lon="5.886342" lat="51.167441"><ele>-7.8</ele><time>2022-03-20T09:52:12.000Z</time></trkpt><trkpt lon="5.886292" lat="51.167383"><ele>-7.6</ele><time>2022-03-20T09:52:13.000Z</time></trkpt><trkpt lon="5.886246" lat="51.16733"><ele>-7.6</ele><time>2022-03-20T09:52:14.000Z</time></trkpt><trkpt lon="5.886201" lat="51.167273"><ele>-7.4</ele><time>2022-03-20T09:52:15.000Z</time></trkpt><trkpt lon="5.886154" lat="51.167216"><ele>-7.4</ele><time>2022-03-20T09:52:16.000Z</time></trkpt><trkpt lon="5.88611" lat="51.167161"><ele>-7.2</ele><time>2022-03-20T09:52:17.000Z</time></trkpt><trkpt lon="5.886067" lat="51.167108"><ele>-7</ele><time>2022-03-20T09:52:18.000Z</time></trkpt><trkpt lon="5.886026" lat="51.167054"><ele>-7</ele><time>2022-03-20T09:52:19.000Z</time></trkpt><trkpt lon="5.885986" lat="51.167004"><ele>-7</ele><time>2022-03-20T09:52:20.000Z</time></trkpt><trkpt lon="5.885945" lat="51.166952"><ele>-7</ele><time>2022-03-20T09:52:21.000Z</time></trkpt><trkpt lon="5.885906" lat="51.166899"><ele>-7</ele><time>2022-03-20T09:52:22.000Z</time></trkpt><trkpt lon="5.885866" lat="51.166845"><ele>-7.2</ele><time>2022-03-20T09:52:23.000Z</time></trkpt><trkpt lon="5.885825" lat="51.166791"><ele>-7.2</ele><time>2022-03-20T09:52:24.000Z</time></trkpt><trkpt lon="5.885781" lat="51.166738"><ele>-7.4</ele><time>2022-03-20T09:52:25.000Z</time></trkpt><trkpt lon="5.885737" lat="51.166685"><ele>-7.4</ele><time>2022-03-20T09:52:26.000Z</time></trkpt><trkpt lon="5.885695" lat="51.166631"><ele>-7.6</ele><time>2022-03-20T09:52:27.000Z</time></trkpt><trkpt lon="5.885654" lat="51.166574"><ele>-7.8</ele><time>2022-03-20T09:52:28.000Z</time></trkpt><trkpt lon="5.885613" lat="51.16652"><ele>-8</ele><time>2022-03-20T09:52:29.000Z</time></trkpt><trkpt lon="5.885571" lat="51.166467"><ele>-8</ele><time>2022-03-20T09:52:30.000Z</time></trkpt><trkpt lon="5.885529" lat="51.166416"><ele>-8.2</ele><time>2022-03-20T09:52:31.000Z</time></trkpt><trkpt lon="5.885484" lat="51.166367"><ele>-8.4</ele><time>2022-03-20T09:52:32.000Z</time></trkpt><trkpt lon="5.885439" lat="51.166314"><ele>-8.4</ele><time>2022-03-20T09:52:33.000Z</time></trkpt><trkpt lon="5.885396" lat="51.166265"><ele>-8.6</ele><time>2022-03-20T09:52:34.000Z</time></trkpt><trkpt lon="5.885353" lat="51.166212"><ele>-8.8</ele><time>2022-03-20T09:52:35.000Z</time></trkpt><trkpt lon="5.885311" lat="51.16616"><ele>-9</ele><time>2022-03-20T09:52:36.000Z</time></trkpt><trkpt lon="5.885268" lat="51.166114"><ele>-9.2</ele><time>2022-03-20T09:52:37.000Z</time></trkpt><trkpt lon="5.885221" lat="51.166068"><ele>-9.4</ele><time>2022-03-20T09:52:38.000Z</time></trkpt><trkpt lon="5.885167" lat="51.166023"><ele>-9.6</ele><time>2022-03-20T09:52:39.000Z</time></trkpt><trkpt lon="5.885102" lat="51.16598"><ele>-9.8</ele><time>2022-03-20T09:52:40.000Z</time></trkpt><trkpt lon="5.885031" lat="51.165944"><ele>-10</ele><time>2022-03-20T09:52:41.000Z</time></trkpt><trkpt lon="5.884952" lat="51.165909"><ele>-10.2</ele><time>2022-03-20T09:52:42.000Z</time></trkpt><trkpt lon="5.884871" lat="51.165878"><ele>-10.4</ele><time>2022-03-20T09:52:43.000Z</time></trkpt><trkpt lon="5.884787" lat="51.165853"><ele>-10.4</ele><time>2022-03-20T09:52:44.000Z</time></trkpt><trkpt lon="5.884698" lat="51.16583"><ele>-10.4</ele><time>2022-03-20T09:52:45.000Z</time></trkpt><trkpt lon="5.88461" lat="51.165814"><ele>-10.6</ele><time>2022-03-20T09:52:46.000Z</time></trkpt><trkpt lon="5.884519" lat="51.165798"><ele>-10.8</ele><time>2022-03-20T09:52:47.000Z</time></trkpt><trkpt lon="5.884435" lat="51.165783"><ele>-10.8</ele><time>2022-03-20T09:52:48.000Z</time></trkpt><trkpt lon="5.884357" lat="51.16577"><ele>-10.8</ele><time>2022-03-20T09:52:49.000Z</time></trkpt><trkpt lon="5.884284" lat="51.165762"><ele>-11</ele><time>2022-03-20T09:52:50.000Z</time></trkpt><trkpt lon="5.884216" lat="51.165751"><ele>-11</ele><time>2022-03-20T09:52:51.000Z</time></trkpt><trkpt lon="5.884151" lat="51.165746"><ele>-11</ele><time>2022-03-20T09:52:52.000Z</time></trkpt><trkpt lon="5.884089" lat="51.165739"><ele>-11.2</ele><time>2022-03-20T09:52:53.000Z</time></trkpt><trkpt lon="5.884031" lat="51.165734"><ele>-11.2</ele><time>2022-03-20T09:52:54.000Z</time></trkpt><trkpt lon="5.883973" lat="51.165728"><ele>-11.2</ele><time>2022-03-20T09:52:55.000Z</time></trkpt><trkpt lon="5.883922" lat="51.165723"><ele>-11.2</ele><time>2022-03-20T09:52:56.000Z</time></trkpt><trkpt lon="5.883875" lat="51.165716"><ele>-11.4</ele><time>2022-03-20T09:52:57.000Z</time></trkpt><trkpt lon="5.883835" lat="51.165702"><ele>-11.4</ele><time>2022-03-20T09:52:58.000Z</time></trkpt><trkpt lon="5.883808" lat="51.165679"><ele>-11.4</ele><time>2022-03-20T09:52:59.000Z</time></trkpt><trkpt lon="5.883788" lat="51.165643"><ele>-11.6</ele><time>2022-03-20T09:53:00.000Z</time></trkpt><trkpt lon="5.883768" lat="51.165602"><ele>-11.6</ele><time>2022-03-20T09:53:01.000Z</time></trkpt><trkpt lon="5.883746" lat="51.165561"><ele>-11.6</ele><time>2022-03-20T09:53:02.000Z</time></trkpt><trkpt lon="5.883716" lat="51.16551"><ele>-11.6</ele><time>2022-03-20T09:53:03.000Z</time></trkpt><trkpt lon="5.883681" lat="51.16546"><ele>-11.6</ele><time>2022-03-20T09:53:04.000Z</time></trkpt><trkpt lon="5.883644" lat="51.165409"><ele>-11.6</ele><time>2022-03-20T09:53:05.000Z</time></trkpt><trkpt lon="5.883607" lat="51.16536"><ele>-11.6</ele><time>2022-03-20T09:53:06.000Z</time></trkpt><trkpt lon="5.883567" lat="51.16531"><ele>-11.6</ele><time>2022-03-20T09:53:07.000Z</time></trkpt><trkpt lon="5.88353" lat="51.165264"><ele>-11.6</ele><time>2022-03-20T09:53:08.000Z</time></trkpt><trkpt lon="5.883497" lat="51.165219"><ele>-11.6</ele><time>2022-03-20T09:53:09.000Z</time></trkpt><trkpt lon="5.883465" lat="51.165172"><ele>-11.6</ele><time>2022-03-20T09:53:10.000Z</time></trkpt><trkpt lon="5.883434" lat="51.165129"><ele>-11.8</ele><time>2022-03-20T09:53:11.000Z</time></trkpt><trkpt lon="5.8834" lat="51.165087"><ele>-11.8</ele><time>2022-03-20T09:53:12.000Z</time></trkpt><trkpt lon="5.883361" lat="51.165045"><ele>-11.8</ele><time>2022-03-20T09:53:13.000Z</time></trkpt><trkpt lon="5.883324" lat="51.164997"><ele>-12</ele><time>2022-03-20T09:53:14.000Z</time></trkpt><trkpt lon="5.883291" lat="51.164948"><ele>-12</ele><time>2022-03-20T09:53:15.000Z</time></trkpt><trkpt lon="5.883261" lat="51.164902"><ele>-12</ele><time>2022-03-20T09:53:16.000Z</time></trkpt><trkpt lon="5.883227" lat="51.164859"><ele>-12.2</ele><time>2022-03-20T09:53:17.000Z</time></trkpt><trkpt lon="5.88319" lat="51.164814"><ele>-12.2</ele><time>2022-03-20T09:53:18.000Z</time></trkpt><trkpt lon="5.883159" lat="51.164775"><ele>-12.2</ele><time>2022-03-20T09:53:19.000Z</time></trkpt><trkpt lon="5.883127" lat="51.164736"><ele>-12.2</ele><time>2022-03-20T09:53:20.000Z</time></trkpt><trkpt lon="5.883092" lat="51.1647"><ele>-12.4</ele><time>2022-03-20T09:53:21.000Z</time></trkpt><trkpt lon="5.883038" lat="51.164672"><ele>-12.4</ele><time>2022-03-20T09:53:22.000Z</time></trkpt><trkpt lon="5.882965" lat="51.164654"><ele>-12.4</ele><time>2022-03-20T09:53:23.000Z</time></trkpt><trkpt lon="5.882883" lat="51.164647"><ele>-12.6</ele><time>2022-03-20T09:53:24.000Z</time></trkpt><trkpt lon="5.882795" lat="51.164649"><ele>-12.8</ele><time>2022-03-20T09:53:25.000Z</time></trkpt><trkpt lon="5.882706" lat="51.164659"><ele>-12.8</ele><time>2022-03-20T09:53:26.000Z</time></trkpt><trkpt lon="5.882618" lat="51.16467"><ele>-12.8</ele><time>2022-03-20T09:53:27.000Z</time></trkpt><trkpt lon="5.882529" lat="51.164685"><ele>-13</ele><time>2022-03-20T09:53:28.000Z</time></trkpt><trkpt lon="5.882443" lat="51.164706"><ele>-13</ele><time>2022-03-20T09:53:29.000Z</time></trkpt><trkpt lon="5.882358" lat="51.164729"><ele>-13</ele><time>2022-03-20T09:53:30.000Z</time></trkpt><trkpt lon="5.882273" lat="51.164751"><ele>-13</ele><time>2022-03-20T09:53:31.000Z</time></trkpt><trkpt lon="5.882188" lat="51.164771"><ele>-13</ele><time>2022-03-20T09:53:32.000Z</time></trkpt><trkpt lon="5.882102" lat="51.16479"><ele>-12.8</ele><time>2022-03-20T09:53:33.000Z</time></trkpt><trkpt lon="5.882013" lat="51.16481"><ele>-12.8</ele><time>2022-03-20T09:53:34.000Z</time></trkpt><trkpt lon="5.881923" lat="51.164826"><ele>-12.8</ele><time>2022-03-20T09:53:35.000Z</time></trkpt><trkpt lon="5.881833" lat="51.164841"><ele>-12.8</ele><time>2022-03-20T09:53:36.000Z</time></trkpt><trkpt lon="5.881739" lat="51.164853"><ele>-12.6</ele><time>2022-03-20T09:53:37.000Z</time></trkpt><trkpt lon="5.881645" lat="51.164862"><ele>-12.6</ele><time>2022-03-20T09:53:38.000Z</time></trkpt><trkpt lon="5.881549" lat="51.164869"><ele>-12.6</ele><time>2022-03-20T09:53:39.000Z</time></trkpt><trkpt lon="5.881453" lat="51.164874"><ele>-12.6</ele><time>2022-03-20T09:53:40.000Z</time></trkpt><trkpt lon="5.881357" lat="51.164878"><ele>-12.6</ele><time>2022-03-20T09:53:41.000Z</time></trkpt><trkpt lon="5.881264" lat="51.164876"><ele>-12.6</ele><time>2022-03-20T09:53:42.000Z</time></trkpt><trkpt lon="5.881172" lat="51.164875"><ele>-12.4</ele><time>2022-03-20T09:53:43.000Z</time></trkpt><trkpt lon="5.881082" lat="51.164872"><ele>-12.4</ele><time>2022-03-20T09:53:44.000Z</time></trkpt><trkpt lon="5.880995" lat="51.164865"><ele>-12.4</ele><time>2022-03-20T09:53:45.000Z</time></trkpt><trkpt lon="5.880903" lat="51.164858"><ele>-12.2</ele><time>2022-03-20T09:53:46.000Z</time></trkpt><trkpt lon="5.880813" lat="51.164847"><ele>-12</ele><time>2022-03-20T09:53:47.000Z</time></trkpt><trkpt lon="5.880722" lat="51.164839"><ele>-12</ele><time>2022-03-20T09:53:48.000Z</time></trkpt><trkpt lon="5.880637" lat="51.164825"><ele>-11.8</ele><time>2022-03-20T09:53:49.000Z</time></trkpt><trkpt lon="5.880553" lat="51.16481"><ele>-11.8</ele><time>2022-03-20T09:53:50.000Z</time></trkpt><trkpt lon="5.880468" lat="51.164792"><ele>-11.8</ele><time>2022-03-20T09:53:51.000Z</time></trkpt><trkpt lon="5.880387" lat="51.164776"><ele>-11.8</ele><time>2022-03-20T09:53:52.000Z</time></trkpt><trkpt lon="5.880299" lat="51.16476"><ele>-11.8</ele><time>2022-03-20T09:53:53.000Z</time></trkpt><trkpt lon="5.88021" lat="51.164745"><ele>-11.8</ele><time>2022-03-20T09:53:54.000Z</time></trkpt><trkpt lon="5.880114" lat="51.164727"><ele>-11.8</ele><time>2022-03-20T09:53:55.000Z</time></trkpt><trkpt lon="5.880017" lat="51.164702"><ele>-12</ele><time>2022-03-20T09:53:56.000Z</time></trkpt><trkpt lon="5.879917" lat="51.164676"><ele>-12</ele><time>2022-03-20T09:53:57.000Z</time></trkpt><trkpt lon="5.87981" lat="51.164651"><ele>-12.2</ele><time>2022-03-20T09:53:58.000Z</time></trkpt><trkpt lon="5.879703" lat="51.164629"><ele>-12.2</ele><time>2022-03-20T09:53:59.000Z</time></trkpt><trkpt lon="5.879594" lat="51.164606"><ele>-12.4</ele><time>2022-03-20T09:54:00.000Z</time></trkpt><trkpt lon="5.879486" lat="51.164583"><ele>-12.4</ele><time>2022-03-20T09:54:01.000Z</time></trkpt><trkpt lon="5.879379" lat="51.164557"><ele>-12.4</ele><time>2022-03-20T09:54:02.000Z</time></trkpt><trkpt lon="5.87927" lat="51.164533"><ele>-12.6</ele><time>2022-03-20T09:54:03.000Z</time></trkpt><trkpt lon="5.879164" lat="51.164508"><ele>-12.6</ele><time>2022-03-20T09:54:04.000Z</time></trkpt><trkpt lon="5.879057" lat="51.164481"><ele>-12.6</ele><time>2022-03-20T09:54:05.000Z</time></trkpt><trkpt lon="5.878949" lat="51.164457"><ele>-12.8</ele><time>2022-03-20T09:54:06.000Z</time></trkpt><trkpt lon="5.878843" lat="51.164434"><ele>-12.8</ele><time>2022-03-20T09:54:07.000Z</time></trkpt><trkpt lon="5.878736" lat="51.164411"><ele>-12.8</ele><time>2022-03-20T09:54:08.000Z</time></trkpt><trkpt lon="5.878632" lat="51.164388"><ele>-12.8</ele><time>2022-03-20T09:54:09.000Z</time></trkpt><trkpt lon="5.878529" lat="51.164365"><ele>-13</ele><time>2022-03-20T09:54:10.000Z</time></trkpt><trkpt lon="5.878426" lat="51.164343"><ele>-13</ele><time>2022-03-20T09:54:11.000Z</time></trkpt><trkpt lon="5.878325" lat="51.16432"><ele>-13</ele><time>2022-03-20T09:54:12.000Z</time></trkpt><trkpt lon="5.878227" lat="51.164297"><ele>-13</ele><time>2022-03-20T09:54:13.000Z</time></trkpt><trkpt lon="5.878131" lat="51.164274"><ele>-13</ele><time>2022-03-20T09:54:14.000Z</time></trkpt><trkpt lon="5.878034" lat="51.164254"><ele>-13</ele><time>2022-03-20T09:54:15.000Z</time></trkpt><trkpt lon="5.877939" lat="51.164232"><ele>-13.2</ele><time>2022-03-20T09:54:16.000Z</time></trkpt><trkpt lon="5.877845" lat="51.164212"><ele>-13.2</ele><time>2022-03-20T09:54:17.000Z</time></trkpt><trkpt lon="5.877751" lat="51.164193"><ele>-13.2</ele><time>2022-03-20T09:54:18.000Z</time></trkpt><trkpt lon="5.87766" lat="51.164174"><ele>-13.2</ele><time>2022-03-20T09:54:19.000Z</time></trkpt><trkpt lon="5.877573" lat="51.164155"><ele>-13.2</ele><time>2022-03-20T09:54:20.000Z</time></trkpt><trkpt lon="5.877485" lat="51.164142"><ele>-13.2</ele><time>2022-03-20T09:54:21.000Z</time></trkpt><trkpt lon="5.877397" lat="51.164127"><ele>-13.2</ele><time>2022-03-20T09:54:22.000Z</time></trkpt><trkpt lon="5.877314" lat="51.164103"><ele>-13.2</ele><time>2022-03-20T09:54:23.000Z</time></trkpt><trkpt lon="5.877229" lat="51.164077"><ele>-13.2</ele><time>2022-03-20T09:54:24.000Z</time></trkpt><trkpt lon="5.877136" lat="51.16405"><ele>-13.4</ele><time>2022-03-20T09:54:25.000Z</time></trkpt><trkpt lon="5.877039" lat="51.164026"><ele>-13.4</ele><time>2022-03-20T09:54:26.000Z</time></trkpt><trkpt lon="5.876936" lat="51.164006"><ele>-13.4</ele><time>2022-03-20T09:54:27.000Z</time></trkpt><trkpt lon="5.876829" lat="51.163987"><ele>-13.4</ele><time>2022-03-20T09:54:28.000Z</time></trkpt><trkpt lon="5.876716" lat="51.163968"><ele>-13.6</ele><time>2022-03-20T09:54:29.000Z</time></trkpt><trkpt lon="5.876601" lat="51.163943"><ele>-13.6</ele><time>2022-03-20T09:54:30.000Z</time></trkpt><trkpt lon="5.876488" lat="51.163916"><ele>-13.6</ele><time>2022-03-20T09:54:31.000Z</time></trkpt><trkpt lon="5.876376" lat="51.163893"><ele>-13.6</ele><time>2022-03-20T09:54:32.000Z</time></trkpt><trkpt lon="5.876268" lat="51.163867"><ele>-13.4</ele><time>2022-03-20T09:54:33.000Z</time></trkpt><trkpt lon="5.876161" lat="51.163843"><ele>-13.4</ele><time>2022-03-20T09:54:34.000Z</time></trkpt><trkpt lon="5.876056" lat="51.163817"><ele>-13.4</ele><time>2022-03-20T09:54:35.000Z</time></trkpt><trkpt lon="5.875951" lat="51.16379"><ele>-13.4</ele><time>2022-03-20T09:54:36.000Z</time></trkpt><trkpt lon="5.875848" lat="51.163764"><ele>-13.4</ele><time>2022-03-20T09:54:37.000Z</time></trkpt><trkpt lon="5.875745" lat="51.163734"><ele>-13.4</ele><time>2022-03-20T09:54:38.000Z</time></trkpt><trkpt lon="5.875646" lat="51.163704"><ele>-13.4</ele><time>2022-03-20T09:54:39.000Z</time></trkpt><trkpt lon="5.875548" lat="51.16367"><ele>-13.4</ele><time>2022-03-20T09:54:40.000Z</time></trkpt><trkpt lon="5.875454" lat="51.163636"><ele>-13.4</ele><time>2022-03-20T09:54:41.000Z</time></trkpt><trkpt lon="5.87536" lat="51.163601"><ele>-13.4</ele><time>2022-03-20T09:54:42.000Z</time></trkpt><trkpt lon="5.87527" lat="51.163565"><ele>-13.2</ele><time>2022-03-20T09:54:43.000Z</time></trkpt><trkpt lon="5.875181" lat="51.163526"><ele>-13.2</ele><time>2022-03-20T09:54:44.000Z</time></trkpt><trkpt lon="5.875092" lat="51.163488"><ele>-13.4</ele><time>2022-03-20T09:54:45.000Z</time></trkpt><trkpt lon="5.875008" lat="51.163447"><ele>-13.4</ele><time>2022-03-20T09:54:46.000Z</time></trkpt><trkpt lon="5.874926" lat="51.163405"><ele>-13.4</ele><time>2022-03-20T09:54:47.000Z</time></trkpt><trkpt lon="5.874848" lat="51.16336"><ele>-13.4</ele><time>2022-03-20T09:54:48.000Z</time></trkpt><trkpt lon="5.874773" lat="51.163314"><ele>-13.4</ele><time>2022-03-20T09:54:49.000Z</time></trkpt><trkpt lon="5.874699" lat="51.163265"><ele>-13.4</ele><time>2022-03-20T09:54:50.000Z</time></trkpt><trkpt lon="5.874626" lat="51.163219"><ele>-13.4</ele><time>2022-03-20T09:54:51.000Z</time></trkpt><trkpt lon="5.874553" lat="51.163173"><ele>-13.4</ele><time>2022-03-20T09:54:52.000Z</time></trkpt><trkpt lon="5.874483" lat="51.163124"><ele>-13.4</ele><time>2022-03-20T09:54:53.000Z</time></trkpt><trkpt lon="5.874412" lat="51.163078"><ele>-13.4</ele><time>2022-03-20T09:54:54.000Z</time></trkpt><trkpt lon="5.874341" lat="51.163029"><ele>-13.4</ele><time>2022-03-20T09:54:55.000Z</time></trkpt><trkpt lon="5.87427" lat="51.162979"><ele>-13.4</ele><time>2022-03-20T09:54:56.000Z</time></trkpt><trkpt lon="5.874199" lat="51.16293"><ele>-13.4</ele><time>2022-03-20T09:54:57.000Z</time></trkpt><trkpt lon="5.874127" lat="51.16288"><ele>-13.4</ele><time>2022-03-20T09:54:58.000Z</time></trkpt><trkpt lon="5.874057" lat="51.162828"><ele>-13.4</ele><time>2022-03-20T09:54:59.000Z</time></trkpt><trkpt lon="5.873987" lat="51.162771"><ele>-13.4</ele><time>2022-03-20T09:55:00.000Z</time></trkpt><trkpt lon="5.873917" lat="51.162712"><ele>-13.4</ele><time>2022-03-20T09:55:01.000Z</time></trkpt><trkpt lon="5.873847" lat="51.162653"><ele>-13.6</ele><time>2022-03-20T09:55:02.000Z</time></trkpt><trkpt lon="5.873782" lat="51.162608"><ele>-13.6</ele><time>2022-03-20T09:55:03.000Z</time></trkpt><trkpt lon="5.87372" lat="51.162544"><ele>-13.6</ele><time>2022-03-20T09:55:04.000Z</time></trkpt><trkpt lon="5.873652" lat="51.162494"><ele>-13.6</ele><time>2022-03-20T09:55:05.000Z</time></trkpt><trkpt lon="5.873574" lat="51.162454"><ele>-13.6</ele><time>2022-03-20T09:55:06.000Z</time></trkpt><trkpt lon="5.873502" lat="51.162409"><ele>-13.6</ele><time>2022-03-20T09:55:07.000Z</time></trkpt><trkpt lon="5.873434" lat="51.16236"><ele>-13.6</ele><time>2022-03-20T09:55:08.000Z</time></trkpt><trkpt lon="5.873359" lat="51.162315"><ele>-13.6</ele><time>2022-03-20T09:55:09.000Z</time></trkpt><trkpt lon="5.873282" lat="51.162266"><ele>-13.8</ele><time>2022-03-20T09:55:10.000Z</time></trkpt><trkpt lon="5.873207" lat="51.162219"><ele>-13.8</ele><time>2022-03-20T09:55:11.000Z</time></trkpt><trkpt lon="5.873133" lat="51.162174"><ele>-13.8</ele><time>2022-03-20T09:55:12.000Z</time></trkpt><trkpt lon="5.873059" lat="51.162126"><ele>-13.8</ele><time>2022-03-20T09:55:13.000Z</time></trkpt><trkpt lon="5.872979" lat="51.162084"><ele>-13.6</ele><time>2022-03-20T09:55:14.000Z</time></trkpt><trkpt lon="5.8729" lat="51.16204"><ele>-13.6</ele><time>2022-03-20T09:55:15.000Z</time></trkpt><trkpt lon="5.872822" lat="51.161994"><ele>-13.6</ele><time>2022-03-20T09:55:16.000Z</time></trkpt><trkpt lon="5.872747" lat="51.161952"><ele>-13.6</ele><time>2022-03-20T09:55:17.000Z</time></trkpt><trkpt lon="5.872668" lat="51.161906"><ele>-13.6</ele><time>2022-03-20T09:55:18.000Z</time></trkpt><trkpt lon="5.872586" lat="51.161864"><ele>-13.6</ele><time>2022-03-20T09:55:19.000Z</time></trkpt><trkpt lon="5.872503" lat="51.161825"><ele>-13.8</ele><time>2022-03-20T09:55:20.000Z</time></trkpt><trkpt lon="5.87242" lat="51.161784"><ele>-13.8</ele><time>2022-03-20T09:55:21.000Z</time></trkpt><trkpt lon="5.872335" lat="51.161742"><ele>-13.8</ele><time>2022-03-20T09:55:22.000Z</time></trkpt><trkpt lon="5.872247" lat="51.161703"><ele>-14</ele><time>2022-03-20T09:55:23.000Z</time></trkpt><trkpt lon="5.872154" lat="51.161664"><ele>-14</ele><time>2022-03-20T09:55:24.000Z</time></trkpt><trkpt lon="5.872061" lat="51.161632"><ele>-14</ele><time>2022-03-20T09:55:25.000Z</time></trkpt><trkpt lon="5.871964" lat="51.161602"><ele>-13.8</ele><time>2022-03-20T09:55:26.000Z</time></trkpt><trkpt lon="5.871863" lat="51.161571"><ele>-13.8</ele><time>2022-03-20T09:55:27.000Z</time></trkpt><trkpt lon="5.871761" lat="51.161544"><ele>-13.8</ele><time>2022-03-20T09:55:28.000Z</time></trkpt><trkpt lon="5.871657" lat="51.16152"><ele>-13.6</ele><time>2022-03-20T09:55:29.000Z</time></trkpt><trkpt lon="5.87155" lat="51.161497"><ele>-13.6</ele><time>2022-03-20T09:55:30.000Z</time></trkpt><trkpt lon="5.871444" lat="51.161477"><ele>-13.6</ele><time>2022-03-20T09:55:31.000Z</time></trkpt><trkpt lon="5.871334" lat="51.161458"><ele>-13.6</ele><time>2022-03-20T09:55:32.000Z</time></trkpt><trkpt lon="5.871228" lat="51.161436"><ele>-13.4</ele><time>2022-03-20T09:55:33.000Z</time></trkpt><trkpt lon="5.871124" lat="51.161419"><ele>-13.4</ele><time>2022-03-20T09:55:34.000Z</time></trkpt><trkpt lon="5.871024" lat="51.161403"><ele>-13.4</ele><time>2022-03-20T09:55:35.000Z</time></trkpt><trkpt lon="5.870926" lat="51.161388"><ele>-13.6</ele><time>2022-03-20T09:55:36.000Z</time></trkpt><trkpt lon="5.870832" lat="51.161376"><ele>-13.4</ele><time>2022-03-20T09:55:37.000Z</time></trkpt><trkpt lon="5.870746" lat="51.161367"><ele>-13.4</ele><time>2022-03-20T09:55:38.000Z</time></trkpt><trkpt lon="5.870666" lat="51.161363"><ele>-13.2</ele><time>2022-03-20T09:55:39.000Z</time></trkpt><trkpt lon="5.870589" lat="51.161359"><ele>-13.2</ele><time>2022-03-20T09:55:40.000Z</time></trkpt><trkpt lon="5.870514" lat="51.161355"><ele>-13</ele><time>2022-03-20T09:55:41.000Z</time></trkpt><trkpt lon="5.87044" lat="51.161342"><ele>-13</ele><time>2022-03-20T09:55:42.000Z</time></trkpt><trkpt lon="5.870367" lat="51.161324"><ele>-13</ele><time>2022-03-20T09:55:43.000Z</time></trkpt><trkpt lon="5.870285" lat="51.161302"><ele>-13</ele><time>2022-03-20T09:55:44.000Z</time></trkpt><trkpt lon="5.87019" lat="51.161279"><ele>-13</ele><time>2022-03-20T09:55:45.000Z</time></trkpt><trkpt lon="5.87009" lat="51.161259"><ele>-13</ele><time>2022-03-20T09:55:46.000Z</time></trkpt><trkpt lon="5.869988" lat="51.161237"><ele>-13</ele><time>2022-03-20T09:55:47.000Z</time></trkpt><trkpt lon="5.869886" lat="51.161217"><ele>-13</ele><time>2022-03-20T09:55:48.000Z</time></trkpt><trkpt lon="5.869781" lat="51.161195"><ele>-13</ele><time>2022-03-20T09:55:49.000Z</time></trkpt><trkpt lon="5.869677" lat="51.161172"><ele>-13</ele><time>2022-03-20T09:55:50.000Z</time></trkpt><trkpt lon="5.869575" lat="51.161147"><ele>-13</ele><time>2022-03-20T09:55:51.000Z</time></trkpt><trkpt lon="5.86947" lat="51.16112"><ele>-13</ele><time>2022-03-20T09:55:52.000Z</time></trkpt><trkpt lon="5.869366" lat="51.161093"><ele>-12.8</ele><time>2022-03-20T09:55:53.000Z</time></trkpt><trkpt lon="5.869262" lat="51.161066"><ele>-12.8</ele><time>2022-03-20T09:55:54.000Z</time></trkpt><trkpt lon="5.869164" lat="51.161038"><ele>-12.8</ele><time>2022-03-20T09:55:55.000Z</time></trkpt><trkpt lon="5.869063" lat="51.161007"><ele>-12.6</ele><time>2022-03-20T09:55:56.000Z</time></trkpt><trkpt lon="5.868966" lat="51.160976"><ele>-12.6</ele><time>2022-03-20T09:55:57.000Z</time></trkpt><trkpt lon="5.86887" lat="51.160942"><ele>-12.6</ele><time>2022-03-20T09:55:58.000Z</time></trkpt><trkpt lon="5.868777" lat="51.160908"><ele>-12.6</ele><time>2022-03-20T09:55:59.000Z</time></trkpt><trkpt lon="5.868683" lat="51.160877"><ele>-12.6</ele><time>2022-03-20T09:56:00.000Z</time></trkpt><trkpt lon="5.868591" lat="51.16084"><ele>-12.4</ele><time>2022-03-20T09:56:01.000Z</time></trkpt><trkpt lon="5.868502" lat="51.160805"><ele>-12.4</ele><time>2022-03-20T09:56:02.000Z</time></trkpt><trkpt lon="5.868415" lat="51.160768"><ele>-12.2</ele><time>2022-03-20T09:56:03.000Z</time></trkpt><trkpt lon="5.868329" lat="51.16073"><ele>-12.2</ele><time>2022-03-20T09:56:04.000Z</time></trkpt><trkpt lon="5.86824" lat="51.160692"><ele>-12.2</ele><time>2022-03-20T09:56:05.000Z</time></trkpt><trkpt lon="5.868153" lat="51.16065"><ele>-12.2</ele><time>2022-03-20T09:56:06.000Z</time></trkpt><trkpt lon="5.868065" lat="51.160611"><ele>-12.2</ele><time>2022-03-20T09:56:07.000Z</time></trkpt><trkpt lon="5.867977" lat="51.16057"><ele>-12.2</ele><time>2022-03-20T09:56:08.000Z</time></trkpt><trkpt lon="5.86789" lat="51.160525"><ele>-12.4</ele><time>2022-03-20T09:56:09.000Z</time></trkpt><trkpt lon="5.867806" lat="51.16048"><ele>-12.4</ele><time>2022-03-20T09:56:10.000Z</time></trkpt><trkpt lon="5.867723" lat="51.160434"><ele>-12.4</ele><time>2022-03-20T09:56:11.000Z</time></trkpt><trkpt lon="5.867641" lat="51.160385"><ele>-12.6</ele><time>2022-03-20T09:56:12.000Z</time></trkpt><trkpt lon="5.867559" lat="51.160339"><ele>-12.4</ele><time>2022-03-20T09:56:13.000Z</time></trkpt><trkpt lon="5.867478" lat="51.16029"><ele>-12.4</ele><time>2022-03-20T09:56:14.000Z</time></trkpt><trkpt lon="5.8674" lat="51.16024"><ele>-12.4</ele><time>2022-03-20T09:56:15.000Z</time></trkpt><trkpt lon="5.867324" lat="51.160191"><ele>-12.4</ele><time>2022-03-20T09:56:16.000Z</time></trkpt><trkpt lon="5.867249" lat="51.160138"><ele>-12.4</ele><time>2022-03-20T09:56:17.000Z</time></trkpt><trkpt lon="5.867186" lat="51.160092"><ele>-12.4</ele><time>2022-03-20T09:56:18.000Z</time></trkpt><trkpt lon="5.867111" lat="51.160035"><ele>-12.4</ele><time>2022-03-20T09:56:19.000Z</time></trkpt><trkpt lon="5.867034" lat="51.15998"><ele>-12.4</ele><time>2022-03-20T09:56:20.000Z</time></trkpt><trkpt lon="5.866965" lat="51.159926"><ele>-12.2</ele><time>2022-03-20T09:56:21.000Z</time></trkpt><trkpt lon="5.866897" lat="51.159868"><ele>-12.2</ele><time>2022-03-20T09:56:22.000Z</time></trkpt><trkpt lon="5.866831" lat="51.159814"><ele>-12.4</ele><time>2022-03-20T09:56:23.000Z</time></trkpt><trkpt lon="5.866768" lat="51.159755"><ele>-12.2</ele><time>2022-03-20T09:56:24.000Z</time></trkpt><trkpt lon="5.866707" lat="51.159698"><ele>-12.2</ele><time>2022-03-20T09:56:25.000Z</time></trkpt><trkpt lon="5.866644" lat="51.15964"><ele>-12.2</ele><time>2022-03-20T09:56:26.000Z</time></trkpt><trkpt lon="5.866581" lat="51.159581"><ele>-12.2</ele><time>2022-03-20T09:56:27.000Z</time></trkpt><trkpt lon="5.86652" lat="51.159519"><ele>-12.2</ele><time>2022-03-20T09:56:28.000Z</time></trkpt><trkpt lon="5.866455" lat="51.159457"><ele>-12.2</ele><time>2022-03-20T09:56:29.000Z</time></trkpt><trkpt lon="5.866389" lat="51.159393"><ele>-12.2</ele><time>2022-03-20T09:56:30.000Z</time></trkpt><trkpt lon="5.866321" lat="51.159325"><ele>-12.2</ele><time>2022-03-20T09:56:31.000Z</time></trkpt><trkpt lon="5.866254" lat="51.15926"><ele>-12.2</ele><time>2022-03-20T09:56:32.000Z</time></trkpt><trkpt lon="5.866188" lat="51.159196"><ele>-12.4</ele><time>2022-03-20T09:56:33.000Z</time></trkpt><trkpt lon="5.866123" lat="51.159131"><ele>-12.4</ele><time>2022-03-20T09:56:34.000Z</time></trkpt><trkpt lon="5.866059" lat="51.159066"><ele>-12.4</ele><time>2022-03-20T09:56:35.000Z</time></trkpt><trkpt lon="5.865999" lat="51.159001"><ele>-12.4</ele><time>2022-03-20T09:56:36.000Z</time></trkpt><trkpt lon="5.865939" lat="51.158941"><ele>-12.2</ele><time>2022-03-20T09:56:37.000Z</time></trkpt><trkpt lon="5.865879" lat="51.158881"><ele>-12.2</ele><time>2022-03-20T09:56:38.000Z</time></trkpt><trkpt lon="5.86582" lat="51.158823"><ele>-12.2</ele><time>2022-03-20T09:56:39.000Z</time></trkpt><trkpt lon="5.865763" lat="51.158766"><ele>-12.2</ele><time>2022-03-20T09:56:40.000Z</time></trkpt><trkpt lon="5.865705" lat="51.158708"><ele>-12.2</ele><time>2022-03-20T09:56:41.000Z</time></trkpt><trkpt lon="5.86565" lat="51.158655"><ele>-12</ele><time>2022-03-20T09:56:42.000Z</time></trkpt><trkpt lon="5.865595" lat="51.158601"><ele>-12</ele><time>2022-03-20T09:56:43.000Z</time></trkpt><trkpt lon="5.86554" lat="51.158547"><ele>-11.8</ele><time>2022-03-20T09:56:44.000Z</time></trkpt><trkpt lon="5.865486" lat="51.158497"><ele>-11.8</ele><time>2022-03-20T09:56:45.000Z</time></trkpt><trkpt lon="5.865427" lat="51.158444"><ele>-11.8</ele><time>2022-03-20T09:56:46.000Z</time></trkpt><trkpt lon="5.865361" lat="51.158391"><ele>-11.8</ele><time>2022-03-20T09:56:47.000Z</time></trkpt><trkpt lon="5.865292" lat="51.158338"><ele>-11.8</ele><time>2022-03-20T09:56:48.000Z</time></trkpt><trkpt lon="5.86522" lat="51.158284"><ele>-11.8</ele><time>2022-03-20T09:56:49.000Z</time></trkpt><trkpt lon="5.865145" lat="51.158234"><ele>-11.8</ele><time>2022-03-20T09:56:50.000Z</time></trkpt><trkpt lon="5.865067" lat="51.158188"><ele>-11.8</ele><time>2022-03-20T09:56:51.000Z</time></trkpt><trkpt lon="5.864983" lat="51.158142"><ele>-12</ele><time>2022-03-20T09:56:52.000Z</time></trkpt><trkpt lon="5.864897" lat="51.158095"><ele>-12</ele><time>2022-03-20T09:56:53.000Z</time></trkpt><trkpt lon="5.864808" lat="51.158056"><ele>-12</ele><time>2022-03-20T09:56:54.000Z</time></trkpt><trkpt lon="5.864719" lat="51.158019"><ele>-12</ele><time>2022-03-20T09:56:55.000Z</time></trkpt><trkpt lon="5.864625" lat="51.157983"><ele>-11.8</ele><time>2022-03-20T09:56:56.000Z</time></trkpt><trkpt lon="5.864529" lat="51.157948"><ele>-11.8</ele><time>2022-03-20T09:56:57.000Z</time></trkpt><trkpt lon="5.86443" lat="51.15792"><ele>-11.8</ele><time>2022-03-20T09:56:58.000Z</time></trkpt><trkpt lon="5.86433" lat="51.157893"><ele>-11.6</ele><time>2022-03-20T09:56:59.000Z</time></trkpt><trkpt lon="5.86423" lat="51.157866"><ele>-11.6</ele><time>2022-03-20T09:57:00.000Z</time></trkpt><trkpt lon="5.864126" lat="51.157842"><ele>-11.8</ele><time>2022-03-20T09:57:01.000Z</time></trkpt><trkpt lon="5.864019" lat="51.157822"><ele>-11.6</ele><time>2022-03-20T09:57:02.000Z</time></trkpt><trkpt lon="5.863912" lat="51.1578"><ele>-11.6</ele><time>2022-03-20T09:57:03.000Z</time></trkpt><trkpt lon="5.863803" lat="51.157786"><ele>-11.6</ele><time>2022-03-20T09:57:04.000Z</time></trkpt><trkpt lon="5.863691" lat="51.157772"><ele>-11.6</ele><time>2022-03-20T09:57:05.000Z</time></trkpt><trkpt lon="5.863582" lat="51.157765"><ele>-11.6</ele><time>2022-03-20T09:57:06.000Z</time></trkpt><trkpt lon="5.863468" lat="51.157761"><ele>-11.6</ele><time>2022-03-20T09:57:07.000Z</time></trkpt><trkpt lon="5.863354" lat="51.157761"><ele>-11.6</ele><time>2022-03-20T09:57:08.000Z</time></trkpt><trkpt lon="5.863241" lat="51.157761"><ele>-11.4</ele><time>2022-03-20T09:57:09.000Z</time></trkpt><trkpt lon="5.863129" lat="51.157761"><ele>-11.4</ele><time>2022-03-20T09:57:10.000Z</time></trkpt><trkpt lon="5.863016" lat="51.157764"><ele>-11.4</ele><time>2022-03-20T09:57:11.000Z</time></trkpt><trkpt lon="5.862905" lat="51.157764"><ele>-11.2</ele><time>2022-03-20T09:57:12.000Z</time></trkpt><trkpt lon="5.862792" lat="51.157764"><ele>-11.2</ele><time>2022-03-20T09:57:13.000Z</time></trkpt><trkpt lon="5.862681" lat="51.157764"><ele>-11.4</ele><time>2022-03-20T09:57:14.000Z</time></trkpt><trkpt lon="5.862568" lat="51.157767"><ele>-11.2</ele><time>2022-03-20T09:57:15.000Z</time></trkpt><trkpt lon="5.862456" lat="51.157768"><ele>-11.2</ele><time>2022-03-20T09:57:16.000Z</time></trkpt><trkpt lon="5.862345" lat="51.157771"><ele>-11.2</ele><time>2022-03-20T09:57:17.000Z</time></trkpt><trkpt lon="5.862245" lat="51.157775"><ele>-11</ele><time>2022-03-20T09:57:18.000Z</time></trkpt><trkpt lon="5.862129" lat="51.157776"><ele>-11</ele><time>2022-03-20T09:57:19.000Z</time></trkpt><trkpt lon="5.862013" lat="51.157782"><ele>-11</ele><time>2022-03-20T09:57:20.000Z</time></trkpt><trkpt lon="5.861903" lat="51.157786"><ele>-11</ele><time>2022-03-20T09:57:21.000Z</time></trkpt><trkpt lon="5.861798" lat="51.157793"><ele>-11</ele><time>2022-03-20T09:57:22.000Z</time></trkpt><trkpt lon="5.861694" lat="51.157804"><ele>-10.8</ele><time>2022-03-20T09:57:23.000Z</time></trkpt><trkpt lon="5.861594" lat="51.157812"><ele>-10.8</ele><time>2022-03-20T09:57:24.000Z</time></trkpt><trkpt lon="5.861498" lat="51.15782"><ele>-10.6</ele><time>2022-03-20T09:57:25.000Z</time></trkpt><trkpt lon="5.861403" lat="51.157822"><ele>-10.6</ele><time>2022-03-20T09:57:26.000Z</time></trkpt><trkpt lon="5.861307" lat="51.157825"><ele>-10.6</ele><time>2022-03-20T09:57:27.000Z</time></trkpt><trkpt lon="5.861213" lat="51.157825"><ele>-10.6</ele><time>2022-03-20T09:57:28.000Z</time></trkpt><trkpt lon="5.861118" lat="51.157831"><ele>-10.6</ele><time>2022-03-20T09:57:29.000Z</time></trkpt><trkpt lon="5.861023" lat="51.157839"><ele>-10.6</ele><time>2022-03-20T09:57:30.000Z</time></trkpt><trkpt lon="5.860928" lat="51.157852"><ele>-10.6</ele><time>2022-03-20T09:57:31.000Z</time></trkpt><trkpt lon="5.860833" lat="51.157871"><ele>-10.6</ele><time>2022-03-20T09:57:32.000Z</time></trkpt><trkpt lon="5.860736" lat="51.157887"><ele>-10.8</ele><time>2022-03-20T09:57:33.000Z</time></trkpt><trkpt lon="5.860642" lat="51.157907"><ele>-10.8</ele><time>2022-03-20T09:57:34.000Z</time></trkpt><trkpt lon="5.860546" lat="51.157934"><ele>-10.8</ele><time>2022-03-20T09:57:35.000Z</time></trkpt><trkpt lon="5.860452" lat="51.15796"><ele>-10.8</ele><time>2022-03-20T09:57:36.000Z</time></trkpt><trkpt lon="5.860359" lat="51.157987"><ele>-11</ele><time>2022-03-20T09:57:37.000Z</time></trkpt><trkpt lon="5.860266" lat="51.158017"><ele>-11</ele><time>2022-03-20T09:57:38.000Z</time></trkpt><trkpt lon="5.860172" lat="51.158047"><ele>-11.2</ele><time>2022-03-20T09:57:39.000Z</time></trkpt><trkpt lon="5.860077" lat="51.158078"><ele>-11.2</ele><time>2022-03-20T09:57:40.000Z</time></trkpt><trkpt lon="5.859986" lat="51.158111"><ele>-11.2</ele><time>2022-03-20T09:57:41.000Z</time></trkpt><trkpt lon="5.859892" lat="51.158145"><ele>-11.2</ele><time>2022-03-20T09:57:42.000Z</time></trkpt><trkpt lon="5.859804" lat="51.158178"><ele>-11.2</ele><time>2022-03-20T09:57:43.000Z</time></trkpt><trkpt lon="5.859709" lat="51.158214"><ele>-11.2</ele><time>2022-03-20T09:57:44.000Z</time></trkpt><trkpt lon="5.859615" lat="51.158249"><ele>-11.4</ele><time>2022-03-20T09:57:45.000Z</time></trkpt><trkpt lon="5.859521" lat="51.158283"><ele>-11.4</ele><time>2022-03-20T09:57:46.000Z</time></trkpt><trkpt lon="5.859428" lat="51.158317"><ele>-11.4</ele><time>2022-03-20T09:57:47.000Z</time></trkpt><trkpt lon="5.859332" lat="51.158351"><ele>-11.4</ele><time>2022-03-20T09:57:48.000Z</time></trkpt><trkpt lon="5.859239" lat="51.158385"><ele>-11.6</ele><time>2022-03-20T09:57:49.000Z</time></trkpt><trkpt lon="5.859142" lat="51.15842"><ele>-11.4</ele><time>2022-03-20T09:57:50.000Z</time></trkpt><trkpt lon="5.859049" lat="51.158454"><ele>-11.4</ele><time>2022-03-20T09:57:51.000Z</time></trkpt><trkpt lon="5.858954" lat="51.158489"><ele>-11.4</ele><time>2022-03-20T09:57:52.000Z</time></trkpt><trkpt lon="5.858859" lat="51.158523"><ele>-11.4</ele><time>2022-03-20T09:57:53.000Z</time></trkpt><trkpt lon="5.858765" lat="51.158557"><ele>-11.4</ele><time>2022-03-20T09:57:54.000Z</time></trkpt><trkpt lon="5.85867" lat="51.158592"><ele>-11.2</ele><time>2022-03-20T09:57:55.000Z</time></trkpt><trkpt lon="5.858575" lat="51.158626"><ele>-11.2</ele><time>2022-03-20T09:57:56.000Z</time></trkpt><trkpt lon="5.858481" lat="51.158661"><ele>-11.2</ele><time>2022-03-20T09:57:57.000Z</time></trkpt><trkpt lon="5.858388" lat="51.158692"><ele>-11.2</ele><time>2022-03-20T09:57:58.000Z</time></trkpt><trkpt lon="5.858296" lat="51.158722"><ele>-11.2</ele><time>2022-03-20T09:57:59.000Z</time></trkpt><trkpt lon="5.858201" lat="51.158753"><ele>-11.2</ele><time>2022-03-20T09:58:00.000Z</time></trkpt><trkpt lon="5.85811" lat="51.15878"><ele>-11</ele><time>2022-03-20T09:58:01.000Z</time></trkpt><trkpt lon="5.858016" lat="51.158807"><ele>-11</ele><time>2022-03-20T09:58:02.000Z</time></trkpt><trkpt lon="5.857922" lat="51.158834"><ele>-11</ele><time>2022-03-20T09:58:03.000Z</time></trkpt><trkpt lon="5.857827" lat="51.15886"><ele>-11</ele><time>2022-03-20T09:58:04.000Z</time></trkpt><trkpt lon="5.857729" lat="51.158884"><ele>-11</ele><time>2022-03-20T09:58:05.000Z</time></trkpt><trkpt lon="5.857635" lat="51.15891"><ele>-10.8</ele><time>2022-03-20T09:58:06.000Z</time></trkpt><trkpt lon="5.85754" lat="51.158937"><ele>-10.8</ele><time>2022-03-20T09:58:07.000Z</time></trkpt><trkpt lon="5.857447" lat="51.158961"><ele>-10.8</ele><time>2022-03-20T09:58:08.000Z</time></trkpt><trkpt lon="5.857353" lat="51.158983"><ele>-10.6</ele><time>2022-03-20T09:58:09.000Z</time></trkpt><trkpt lon="5.857258" lat="51.159006"><ele>-10.6</ele><time>2022-03-20T09:58:10.000Z</time></trkpt><trkpt lon="5.857164" lat="51.159029"><ele>-10.6</ele><time>2022-03-20T09:58:11.000Z</time></trkpt><trkpt lon="5.85707" lat="51.159049"><ele>-10.4</ele><time>2022-03-20T09:58:12.000Z</time></trkpt><trkpt lon="5.856971" lat="51.159071"><ele>-10.4</ele><time>2022-03-20T09:58:13.000Z</time></trkpt><trkpt lon="5.856874" lat="51.159094"><ele>-10.4</ele><time>2022-03-20T09:58:14.000Z</time></trkpt><trkpt lon="5.856775" lat="51.159114"><ele>-10.4</ele><time>2022-03-20T09:58:15.000Z</time></trkpt><trkpt lon="5.856674" lat="51.159136"><ele>-10.4</ele><time>2022-03-20T09:58:16.000Z</time></trkpt><trkpt lon="5.856576" lat="51.159156"><ele>-10.4</ele><time>2022-03-20T09:58:17.000Z</time></trkpt><trkpt lon="5.856474" lat="51.159178"><ele>-10.4</ele><time>2022-03-20T09:58:18.000Z</time></trkpt><trkpt lon="5.856375" lat="51.159195"><ele>-10.4</ele><time>2022-03-20T09:58:19.000Z</time></trkpt><trkpt lon="5.856275" lat="51.159216"><ele>-10.4</ele><time>2022-03-20T09:58:20.000Z</time></trkpt><trkpt lon="5.856176" lat="51.159236"><ele>-10.4</ele><time>2022-03-20T09:58:21.000Z</time></trkpt><trkpt lon="5.856074" lat="51.159255"><ele>-10.2</ele><time>2022-03-20T09:58:22.000Z</time></trkpt><trkpt lon="5.855968" lat="51.159277"><ele>-10.2</ele><time>2022-03-20T09:58:23.000Z</time></trkpt><trkpt lon="5.855864" lat="51.1593"><ele>-10.4</ele><time>2022-03-20T09:58:24.000Z</time></trkpt><trkpt lon="5.85576" lat="51.159323"><ele>-10.4</ele><time>2022-03-20T09:58:25.000Z</time></trkpt><trkpt lon="5.855655" lat="51.159346"><ele>-10.4</ele><time>2022-03-20T09:58:26.000Z</time></trkpt><trkpt lon="5.855551" lat="51.159366"><ele>-10.4</ele><time>2022-03-20T09:58:27.000Z</time></trkpt><trkpt lon="5.855448" lat="51.159388"><ele>-10.4</ele><time>2022-03-20T09:58:28.000Z</time></trkpt><trkpt lon="5.855347" lat="51.159411"><ele>-10.4</ele><time>2022-03-20T09:58:29.000Z</time></trkpt><trkpt lon="5.855247" lat="51.159434"><ele>-10.4</ele><time>2022-03-20T09:58:30.000Z</time></trkpt><trkpt lon="5.855144" lat="51.15946"><ele>-10.4</ele><time>2022-03-20T09:58:31.000Z</time></trkpt><trkpt lon="5.855042" lat="51.159486"><ele>-10.4</ele><time>2022-03-20T09:58:32.000Z</time></trkpt><trkpt lon="5.85494" lat="51.159516"><ele>-10.4</ele><time>2022-03-20T09:58:33.000Z</time></trkpt><trkpt lon="5.854841" lat="51.159543"><ele>-10.2</ele><time>2022-03-20T09:58:34.000Z</time></trkpt><trkpt lon="5.854741" lat="51.159573"><ele>-10.2</ele><time>2022-03-20T09:58:35.000Z</time></trkpt><trkpt lon="5.854642" lat="51.159603"><ele>-10.2</ele><time>2022-03-20T09:58:36.000Z</time></trkpt><trkpt lon="5.854545" lat="51.159637"><ele>-10.2</ele><time>2022-03-20T09:58:37.000Z</time></trkpt><trkpt lon="5.854448" lat="51.159666"><ele>-10</ele><time>2022-03-20T09:58:38.000Z</time></trkpt><trkpt lon="5.854354" lat="51.159698"><ele>-10</ele><time>2022-03-20T09:58:39.000Z</time></trkpt><trkpt lon="5.854261" lat="51.15973"><ele>-10</ele><time>2022-03-20T09:58:40.000Z</time></trkpt><trkpt lon="5.854168" lat="51.15976"><ele>-10</ele><time>2022-03-20T09:58:41.000Z</time></trkpt><trkpt lon="5.854077" lat="51.159793"><ele>-10</ele><time>2022-03-20T09:58:42.000Z</time></trkpt><trkpt lon="5.853987" lat="51.159821"><ele>-10</ele><time>2022-03-20T09:58:43.000Z</time></trkpt><trkpt lon="5.853896" lat="51.159851"><ele>-10</ele><time>2022-03-20T09:58:44.000Z</time></trkpt><trkpt lon="5.853805" lat="51.159879"><ele>-10</ele><time>2022-03-20T09:58:45.000Z</time></trkpt><trkpt lon="5.853712" lat="51.159905"><ele>-10</ele><time>2022-03-20T09:58:46.000Z</time></trkpt><trkpt lon="5.853614" lat="51.159932"><ele>-10</ele><time>2022-03-20T09:58:47.000Z</time></trkpt><trkpt lon="5.853519" lat="51.159962"><ele>-10</ele><time>2022-03-20T09:58:48.000Z</time></trkpt><trkpt lon="5.853425" lat="51.159993"><ele>-9.8</ele><time>2022-03-20T09:58:49.000Z</time></trkpt><trkpt lon="5.853335" lat="51.160022"><ele>-9.6</ele><time>2022-03-20T09:58:50.000Z</time></trkpt><trkpt lon="5.853239" lat="51.160056"><ele>-9.6</ele><time>2022-03-20T09:58:51.000Z</time></trkpt><trkpt lon="5.853143" lat="51.160088"><ele>-9.6</ele><time>2022-03-20T09:58:52.000Z</time></trkpt><trkpt lon="5.853047" lat="51.160121"><ele>-9.6</ele><time>2022-03-20T09:58:53.000Z</time></trkpt><trkpt lon="5.852955" lat="51.160152"><ele>-9.8</ele><time>2022-03-20T09:58:54.000Z</time></trkpt><trkpt lon="5.852863" lat="51.160186"><ele>-9.8</ele><time>2022-03-20T09:58:55.000Z</time></trkpt><trkpt lon="5.852768" lat="51.160218"><ele>-10</ele><time>2022-03-20T09:58:56.000Z</time></trkpt><trkpt lon="5.852674" lat="51.160248"><ele>-10</ele><time>2022-03-20T09:58:57.000Z</time></trkpt><trkpt lon="5.85258" lat="51.160281"><ele>-10</ele><time>2022-03-20T09:58:58.000Z</time></trkpt><trkpt lon="5.852484" lat="51.16031"><ele>-10</ele><time>2022-03-20T09:58:59.000Z</time></trkpt><trkpt lon="5.85239" lat="51.16034"><ele>-10</ele><time>2022-03-20T09:59:00.000Z</time></trkpt><trkpt lon="5.852299" lat="51.16037"><ele>-10</ele><time>2022-03-20T09:59:01.000Z</time></trkpt><trkpt lon="5.852206" lat="51.160401"><ele>-10</ele><time>2022-03-20T09:59:02.000Z</time></trkpt><trkpt lon="5.852114" lat="51.160431"><ele>-10</ele><time>2022-03-20T09:59:03.000Z</time></trkpt><trkpt lon="5.852023" lat="51.160462"><ele>-10</ele><time>2022-03-20T09:59:04.000Z</time></trkpt><trkpt lon="5.851927" lat="51.160495"><ele>-10</ele><time>2022-03-20T09:59:05.000Z</time></trkpt><trkpt lon="5.851829" lat="51.160524"><ele>-10.2</ele><time>2022-03-20T09:59:06.000Z</time></trkpt><trkpt lon="5.851733" lat="51.160557"><ele>-10.2</ele><time>2022-03-20T09:59:07.000Z</time></trkpt><trkpt lon="5.851637" lat="51.160588"><ele>-10.2</ele><time>2022-03-20T09:59:08.000Z</time></trkpt><trkpt lon="5.851543" lat="51.160618"><ele>-10.2</ele><time>2022-03-20T09:59:09.000Z</time></trkpt><trkpt lon="5.851452" lat="51.160649"><ele>-10.2</ele><time>2022-03-20T09:59:10.000Z</time></trkpt><trkpt lon="5.851361" lat="51.160676"><ele>-10.2</ele><time>2022-03-20T09:59:11.000Z</time></trkpt><trkpt lon="5.851267" lat="51.160703"><ele>-10.2</ele><time>2022-03-20T09:59:12.000Z</time></trkpt><trkpt lon="5.851174" lat="51.16073"><ele>-10.2</ele><time>2022-03-20T09:59:13.000Z</time></trkpt><trkpt lon="5.851083" lat="51.160755"><ele>-10.2</ele><time>2022-03-20T09:59:14.000Z</time></trkpt><trkpt lon="5.850985" lat="51.16078"><ele>-10.2</ele><time>2022-03-20T09:59:15.000Z</time></trkpt><trkpt lon="5.850887" lat="51.160806"><ele>-10.2</ele><time>2022-03-20T09:59:16.000Z</time></trkpt><trkpt lon="5.850792" lat="51.160833"><ele>-10.2</ele><time>2022-03-20T09:59:17.000Z</time></trkpt><trkpt lon="5.850699" lat="51.160857"><ele>-10.2</ele><time>2022-03-20T09:59:18.000Z</time></trkpt><trkpt lon="5.850608" lat="51.160882"><ele>-10</ele><time>2022-03-20T09:59:19.000Z</time></trkpt><trkpt lon="5.850516" lat="51.160906"><ele>-10</ele><time>2022-03-20T09:59:20.000Z</time></trkpt><trkpt lon="5.850425" lat="51.160929"><ele>-10.2</ele><time>2022-03-20T09:59:21.000Z</time></trkpt><trkpt lon="5.850333" lat="51.160949"><ele>-10.2</ele><time>2022-03-20T09:59:22.000Z</time></trkpt><trkpt lon="5.850242" lat="51.160965"><ele>-10.2</ele><time>2022-03-20T09:59:23.000Z</time></trkpt><trkpt lon="5.850151" lat="51.16098"><ele>-10.2</ele><time>2022-03-20T09:59:24.000Z</time></trkpt><trkpt lon="5.850061" lat="51.160996"><ele>-10.2</ele><time>2022-03-20T09:59:25.000Z</time></trkpt><trkpt lon="5.849975" lat="51.161008"><ele>-10.2</ele><time>2022-03-20T09:59:26.000Z</time></trkpt><trkpt lon="5.849889" lat="51.161022"><ele>-10.2</ele><time>2022-03-20T09:59:27.000Z</time></trkpt><trkpt lon="5.849807" lat="51.16104"><ele>-10.2</ele><time>2022-03-20T09:59:28.000Z</time></trkpt><trkpt lon="5.849725" lat="51.161056"><ele>-10.2</ele><time>2022-03-20T09:59:29.000Z</time></trkpt><trkpt lon="5.849643" lat="51.161075"><ele>-10.2</ele><time>2022-03-20T09:59:30.000Z</time></trkpt><trkpt lon="5.849563" lat="51.161091"><ele>-10.2</ele><time>2022-03-20T09:59:31.000Z</time></trkpt><trkpt lon="5.849484" lat="51.161106"><ele>-10.4</ele><time>2022-03-20T09:59:32.000Z</time></trkpt><trkpt lon="5.849406" lat="51.161116"><ele>-10.2</ele><time>2022-03-20T09:59:33.000Z</time></trkpt><trkpt lon="5.849332" lat="51.161118"><ele>-10.2</ele><time>2022-03-20T09:59:34.000Z</time></trkpt><trkpt lon="5.849258" lat="51.161106"><ele>-10.2</ele><time>2022-03-20T09:59:35.000Z</time></trkpt><trkpt lon="5.849194" lat="51.161085"><ele>-10.2</ele><time>2022-03-20T09:59:36.000Z</time></trkpt><trkpt lon="5.849147" lat="51.161047"><ele>-10</ele><time>2022-03-20T09:59:37.000Z</time></trkpt><trkpt lon="5.849116" lat="51.161002"><ele>-10</ele><time>2022-03-20T09:59:38.000Z</time></trkpt><trkpt lon="5.8491" lat="51.16095"><ele>-9.8</ele><time>2022-03-20T09:59:39.000Z</time></trkpt><trkpt lon="5.849093" lat="51.160894"><ele>-9.8</ele><time>2022-03-20T09:59:40.000Z</time></trkpt><trkpt lon="5.849089" lat="51.160834"><ele>-9.8</ele><time>2022-03-20T09:59:41.000Z</time></trkpt><trkpt lon="5.849086" lat="51.160771"><ele>-10</ele><time>2022-03-20T09:59:42.000Z</time></trkpt><trkpt lon="5.849081" lat="51.160707"><ele>-10</ele><time>2022-03-20T09:59:43.000Z</time></trkpt><trkpt lon="5.849078" lat="51.160641"><ele>-10</ele><time>2022-03-20T09:59:44.000Z</time></trkpt><trkpt lon="5.849073" lat="51.160576"><ele>-10</ele><time>2022-03-20T09:59:45.000Z</time></trkpt><trkpt lon="5.849068" lat="51.160511"><ele>-10</ele><time>2022-03-20T09:59:46.000Z</time></trkpt><trkpt lon="5.849062" lat="51.160449"><ele>-10</ele><time>2022-03-20T09:59:47.000Z</time></trkpt><trkpt lon="5.849055" lat="51.160385"><ele>-10</ele><time>2022-03-20T09:59:48.000Z</time></trkpt><trkpt lon="5.849047" lat="51.160323"><ele>-10</ele><time>2022-03-20T09:59:49.000Z</time></trkpt><trkpt lon="5.849039" lat="51.160262"><ele>-9.8</ele><time>2022-03-20T09:59:50.000Z</time></trkpt><trkpt lon="5.849032" lat="51.160202"><ele>-9.8</ele><time>2022-03-20T09:59:51.000Z</time></trkpt><trkpt lon="5.849026" lat="51.160135"><ele>-9.8</ele><time>2022-03-20T09:59:52.000Z</time></trkpt><trkpt lon="5.849021" lat="51.160069"><ele>-9.8</ele><time>2022-03-20T09:59:53.000Z</time></trkpt><trkpt lon="5.849016" lat="51.160004"><ele>-9.8</ele><time>2022-03-20T09:59:54.000Z</time></trkpt><trkpt lon="5.849013" lat="51.159939"><ele>-10</ele><time>2022-03-20T09:59:55.000Z</time></trkpt><trkpt lon="5.849009" lat="51.159874"><ele>-10</ele><time>2022-03-20T09:59:56.000Z</time></trkpt><trkpt lon="5.849009" lat="51.15981"><ele>-10.2</ele><time>2022-03-20T09:59:57.000Z</time></trkpt><trkpt lon="5.849015" lat="51.159747"><ele>-10.2</ele><time>2022-03-20T09:59:58.000Z</time></trkpt><trkpt lon="5.849031" lat="51.159686"><ele>-10.2</ele><time>2022-03-20T09:59:59.000Z</time></trkpt><trkpt lon="5.849057" lat="51.159625"><ele>-10.4</ele><time>2022-03-20T10:00:00.000Z</time></trkpt><trkpt lon="5.849089" lat="51.159567"><ele>-10.4</ele><time>2022-03-20T10:00:01.000Z</time></trkpt><trkpt lon="5.849122" lat="51.159513"><ele>-10.4</ele><time>2022-03-20T10:00:02.000Z</time></trkpt><trkpt lon="5.849149" lat="51.159459"><ele>-10.6</ele><time>2022-03-20T10:00:03.000Z</time></trkpt><trkpt lon="5.84916" lat="51.159403"><ele>-10.6</ele><time>2022-03-20T10:00:04.000Z</time></trkpt><trkpt lon="5.849153" lat="51.159343"><ele>-10.6</ele><time>2022-03-20T10:00:05.000Z</time></trkpt><trkpt lon="5.849112" lat="51.159288"><ele>-10.6</ele><time>2022-03-20T10:00:06.000Z</time></trkpt><trkpt lon="5.849049" lat="51.159243"><ele>-10.8</ele><time>2022-03-20T10:00:07.000Z</time></trkpt><trkpt lon="5.84898" lat="51.159198"><ele>-10.8</ele><time>2022-03-20T10:00:08.000Z</time></trkpt><trkpt lon="5.848905" lat="51.159158"><ele>-10.8</ele><time>2022-03-20T10:00:09.000Z</time></trkpt><trkpt lon="5.848832" lat="51.159123"><ele>-11</ele><time>2022-03-20T10:00:10.000Z</time></trkpt><trkpt lon="5.84876" lat="51.159087"><ele>-11</ele><time>2022-03-20T10:00:11.000Z</time></trkpt><trkpt lon="5.848685" lat="51.159048"><ele>-10.8</ele><time>2022-03-20T10:00:12.000Z</time></trkpt><trkpt lon="5.848612" lat="51.159004"><ele>-10.8</ele><time>2022-03-20T10:00:13.000Z</time></trkpt><trkpt lon="5.848545" lat="51.158962"><ele>-10.8</ele><time>2022-03-20T10:00:14.000Z</time></trkpt><trkpt lon="5.848477" lat="51.158914"><ele>-10.8</ele><time>2022-03-20T10:00:15.000Z</time></trkpt><trkpt lon="5.848415" lat="51.158864"><ele>-11</ele><time>2022-03-20T10:00:16.000Z</time></trkpt><trkpt lon="5.848361" lat="51.158814"><ele>-11</ele><time>2022-03-20T10:00:17.000Z</time></trkpt><trkpt lon="5.848314" lat="51.158761"><ele>-11</ele><time>2022-03-20T10:00:18.000Z</time></trkpt><trkpt lon="5.848271" lat="51.158708"><ele>-11</ele><time>2022-03-20T10:00:19.000Z</time></trkpt><trkpt lon="5.848224" lat="51.158649"><ele>-11</ele><time>2022-03-20T10:00:20.000Z</time></trkpt><trkpt lon="5.848174" lat="51.158587"><ele>-11</ele><time>2022-03-20T10:00:21.000Z</time></trkpt><trkpt lon="5.848118" lat="51.158532"><ele>-11.2</ele><time>2022-03-20T10:00:22.000Z</time></trkpt><trkpt lon="5.848059" lat="51.158476"><ele>-11.2</ele><time>2022-03-20T10:00:23.000Z</time></trkpt><trkpt lon="5.847996" lat="51.158425"><ele>-11.2</ele><time>2022-03-20T10:00:24.000Z</time></trkpt><trkpt lon="5.847927" lat="51.158375"><ele>-11.2</ele><time>2022-03-20T10:00:25.000Z</time></trkpt><trkpt lon="5.847853" lat="51.158329"><ele>-11</ele><time>2022-03-20T10:00:26.000Z</time></trkpt><trkpt lon="5.847778" lat="51.158283"><ele>-11</ele><time>2022-03-20T10:00:27.000Z</time></trkpt><trkpt lon="5.847704" lat="51.158234"><ele>-11</ele><time>2022-03-20T10:00:28.000Z</time></trkpt><trkpt lon="5.847638" lat="51.158187"><ele>-10.8</ele><time>2022-03-20T10:00:29.000Z</time></trkpt><trkpt lon="5.847585" lat="51.158141"><ele>-10.6</ele><time>2022-03-20T10:00:30.000Z</time></trkpt><trkpt lon="5.847545" lat="51.15809"><ele>-10.6</ele><time>2022-03-20T10:00:31.000Z</time></trkpt><trkpt lon="5.84752" lat="51.158037"><ele>-10.4</ele><time>2022-03-20T10:00:32.000Z</time></trkpt><trkpt lon="5.847508" lat="51.15798"><ele>-10.4</ele><time>2022-03-20T10:00:33.000Z</time></trkpt><trkpt lon="5.847504" lat="51.157918"><ele>-10.4</ele><time>2022-03-20T10:00:34.000Z</time></trkpt><trkpt lon="5.84751" lat="51.157855"><ele>-10.6</ele><time>2022-03-20T10:00:35.000Z</time></trkpt><trkpt lon="5.847527" lat="51.157793"><ele>-10.6</ele><time>2022-03-20T10:00:36.000Z</time></trkpt><trkpt lon="5.847551" lat="51.157733"><ele>-10.8</ele><time>2022-03-20T10:00:37.000Z</time></trkpt><trkpt lon="5.847567" lat="51.157675"><ele>-11</ele><time>2022-03-20T10:00:38.000Z</time></trkpt><trkpt lon="5.847557" lat="51.157612"><ele>-11</ele><time>2022-03-20T10:00:39.000Z</time></trkpt><trkpt lon="5.847516" lat="51.157553"><ele>-11</ele><time>2022-03-20T10:00:40.000Z</time></trkpt><trkpt lon="5.847451" lat="51.157502"><ele>-11</ele><time>2022-03-20T10:00:41.000Z</time></trkpt><trkpt lon="5.847367" lat="51.157455"><ele>-11</ele><time>2022-03-20T10:00:42.000Z</time></trkpt><trkpt lon="5.847278" lat="51.157412"><ele>-11</ele><time>2022-03-20T10:00:43.000Z</time></trkpt><trkpt lon="5.847186" lat="51.15737"><ele>-11</ele><time>2022-03-20T10:00:44.000Z</time></trkpt><trkpt lon="5.847093" lat="51.157331"><ele>-11</ele><time>2022-03-20T10:00:45.000Z</time></trkpt><trkpt lon="5.847002" lat="51.157293"><ele>-11</ele><time>2022-03-20T10:00:46.000Z</time></trkpt><trkpt lon="5.846916" lat="51.157255"><ele>-11</ele><time>2022-03-20T10:00:47.000Z</time></trkpt><trkpt lon="5.84683" lat="51.157216"><ele>-10.8</ele><time>2022-03-20T10:00:48.000Z</time></trkpt><trkpt lon="5.84675" lat="51.157179"><ele>-10.8</ele><time>2022-03-20T10:00:49.000Z</time></trkpt><trkpt lon="5.846669" lat="51.157137"><ele>-10.8</ele><time>2022-03-20T10:00:50.000Z</time></trkpt><trkpt lon="5.846591" lat="51.157098"><ele>-10.8</ele><time>2022-03-20T10:00:51.000Z</time></trkpt><trkpt lon="5.846516" lat="51.15706"><ele>-11</ele><time>2022-03-20T10:00:52.000Z</time></trkpt><trkpt lon="5.846441" lat="51.157019"><ele>-11</ele><time>2022-03-20T10:00:53.000Z</time></trkpt><trkpt lon="5.846369" lat="51.15698"><ele>-11</ele><time>2022-03-20T10:00:54.000Z</time></trkpt><trkpt lon="5.846293" lat="51.156939"><ele>-11</ele><time>2022-03-20T10:00:55.000Z</time></trkpt><trkpt lon="5.846215" lat="51.1569"><ele>-11</ele><time>2022-03-20T10:00:56.000Z</time></trkpt><trkpt lon="5.84613" lat="51.156859"><ele>-11.2</ele><time>2022-03-20T10:00:57.000Z</time></trkpt><trkpt lon="5.846042" lat="51.156817"><ele>-11.2</ele><time>2022-03-20T10:00:58.000Z</time></trkpt><trkpt lon="5.845954" lat="51.156778"><ele>-11.2</ele><time>2022-03-20T10:00:59.000Z</time></trkpt><trkpt lon="5.845865" lat="51.156743"><ele>-11.2</ele><time>2022-03-20T10:01:00.000Z</time></trkpt><trkpt lon="5.845776" lat="51.156708"><ele>-11.2</ele><time>2022-03-20T10:01:01.000Z</time></trkpt><trkpt lon="5.845689" lat="51.15668"><ele>-11.2</ele><time>2022-03-20T10:01:02.000Z</time></trkpt><trkpt lon="5.845604" lat="51.156653"><ele>-11.2</ele><time>2022-03-20T10:01:03.000Z</time></trkpt><trkpt lon="5.84552" lat="51.156626"><ele>-11.2</ele><time>2022-03-20T10:01:04.000Z</time></trkpt><trkpt lon="5.84544" lat="51.156603"><ele>-11.2</ele><time>2022-03-20T10:01:05.000Z</time></trkpt><trkpt lon="5.845361" lat="51.156586"><ele>-11.4</ele><time>2022-03-20T10:01:06.000Z</time></trkpt><trkpt lon="5.845282" lat="51.15657"><ele>-11.4</ele><time>2022-03-20T10:01:07.000Z</time></trkpt><trkpt lon="5.845203" lat="51.156567"><ele>-11.4</ele><time>2022-03-20T10:01:08.000Z</time></trkpt><trkpt lon="5.845125" lat="51.156575"><ele>-11.6</ele><time>2022-03-20T10:01:09.000Z</time></trkpt><trkpt lon="5.845058" lat="51.156602"><ele>-11.6</ele><time>2022-03-20T10:01:10.000Z</time></trkpt><trkpt lon="5.845003" lat="51.156643"><ele>-11.8</ele><time>2022-03-20T10:01:11.000Z</time></trkpt><trkpt lon="5.844961" lat="51.156695"><ele>-11.8</ele><time>2022-03-20T10:01:12.000Z</time></trkpt><trkpt lon="5.844928" lat="51.156752"><ele>-12</ele><time>2022-03-20T10:01:13.000Z</time></trkpt><trkpt lon="5.844893" lat="51.156806"><ele>-12</ele><time>2022-03-20T10:01:14.000Z</time></trkpt><trkpt lon="5.844856" lat="51.156861"><ele>-12</ele><time>2022-03-20T10:01:15.000Z</time></trkpt><trkpt lon="5.84482" lat="51.156916"><ele>-12</ele><time>2022-03-20T10:01:16.000Z</time></trkpt><trkpt lon="5.844785" lat="51.156972"><ele>-12</ele><time>2022-03-20T10:01:17.000Z</time></trkpt><trkpt lon="5.844746" lat="51.157027"><ele>-12</ele><time>2022-03-20T10:01:18.000Z</time></trkpt><trkpt lon="5.844709" lat="51.15708"><ele>-12</ele><time>2022-03-20T10:01:19.000Z</time></trkpt><trkpt lon="5.844669" lat="51.157137"><ele>-12</ele><time>2022-03-20T10:01:20.000Z</time></trkpt><trkpt lon="5.844631" lat="51.157193"><ele>-12</ele><time>2022-03-20T10:01:21.000Z</time></trkpt><trkpt lon="5.844593" lat="51.157253"><ele>-12</ele><time>2022-03-20T10:01:22.000Z</time></trkpt><trkpt lon="5.844553" lat="51.157312"><ele>-12</ele><time>2022-03-20T10:01:23.000Z</time></trkpt><trkpt lon="5.844513" lat="51.15737"><ele>-12</ele><time>2022-03-20T10:01:24.000Z</time></trkpt><trkpt lon="5.844471" lat="51.157427"><ele>-12.2</ele><time>2022-03-20T10:01:25.000Z</time></trkpt><trkpt lon="5.84443" lat="51.157486"><ele>-12.2</ele><time>2022-03-20T10:01:26.000Z</time></trkpt><trkpt lon="5.844388" lat="51.157548"><ele>-12.2</ele><time>2022-03-20T10:01:27.000Z</time></trkpt><trkpt lon="5.844348" lat="51.157609"><ele>-12.2</ele><time>2022-03-20T10:01:28.000Z</time></trkpt><trkpt lon="5.844308" lat="51.15767"><ele>-12.2</ele><time>2022-03-20T10:01:29.000Z</time></trkpt><trkpt lon="5.844267" lat="51.157731"><ele>-12.2</ele><time>2022-03-20T10:01:30.000Z</time></trkpt><trkpt lon="5.844228" lat="51.157791"><ele>-12.4</ele><time>2022-03-20T10:01:31.000Z</time></trkpt><trkpt lon="5.844189" lat="51.157856"><ele>-12.4</ele><time>2022-03-20T10:01:32.000Z</time></trkpt><trkpt lon="5.84415" lat="51.157918"><ele>-12.4</ele><time>2022-03-20T10:01:33.000Z</time></trkpt><trkpt lon="5.844109" lat="51.157979"><ele>-12.4</ele><time>2022-03-20T10:01:34.000Z</time></trkpt><trkpt lon="5.84407" lat="51.158043"><ele>-12.4</ele><time>2022-03-20T10:01:35.000Z</time></trkpt><trkpt lon="5.844029" lat="51.158105"><ele>-12.4</ele><time>2022-03-20T10:01:36.000Z</time></trkpt><trkpt lon="5.843988" lat="51.158163"><ele>-12.4</ele><time>2022-03-20T10:01:37.000Z</time></trkpt><trkpt lon="5.843946" lat="51.158221"><ele>-12.2</ele><time>2022-03-20T10:01:38.000Z</time></trkpt><trkpt lon="5.843907" lat="51.158281"><ele>-12</ele><time>2022-03-20T10:01:39.000Z</time></trkpt><trkpt lon="5.843869" lat="51.158339"><ele>-12</ele><time>2022-03-20T10:01:40.000Z</time></trkpt><trkpt lon="5.843832" lat="51.158395"><ele>-12</ele><time>2022-03-20T10:01:41.000Z</time></trkpt><trkpt lon="5.843793" lat="51.158453"><ele>-11.8</ele><time>2022-03-20T10:01:42.000Z</time></trkpt><trkpt lon="5.84375" lat="51.158513"><ele>-11.8</ele><time>2022-03-20T10:01:43.000Z</time></trkpt><trkpt lon="5.843707" lat="51.158574"><ele>-11.8</ele><time>2022-03-20T10:01:44.000Z</time></trkpt><trkpt lon="5.843665" lat="51.158637"><ele>-11.8</ele><time>2022-03-20T10:01:45.000Z</time></trkpt><trkpt lon="5.843623" lat="51.1587"><ele>-11.8</ele><time>2022-03-20T10:01:46.000Z</time></trkpt><trkpt lon="5.843583" lat="51.158758"><ele>-12</ele><time>2022-03-20T10:01:47.000Z</time></trkpt><trkpt lon="5.843543" lat="51.158815"><ele>-12</ele><time>2022-03-20T10:01:48.000Z</time></trkpt><trkpt lon="5.843502" lat="51.158875"><ele>-12</ele><time>2022-03-20T10:01:49.000Z</time></trkpt><trkpt lon="5.84346" lat="51.158936"><ele>-12</ele><time>2022-03-20T10:01:50.000Z</time></trkpt><trkpt lon="5.843418" lat="51.158995"><ele>-11.8</ele><time>2022-03-20T10:01:51.000Z</time></trkpt><trkpt lon="5.843382" lat="51.159052"><ele>-11.8</ele><time>2022-03-20T10:01:52.000Z</time></trkpt><trkpt lon="5.843345" lat="51.159106"><ele>-11.8</ele><time>2022-03-20T10:01:53.000Z</time></trkpt><trkpt lon="5.84331" lat="51.159163"><ele>-11.6</ele><time>2022-03-20T10:01:54.000Z</time></trkpt><trkpt lon="5.843274" lat="51.159217"><ele>-11.6</ele><time>2022-03-20T10:01:55.000Z</time></trkpt><trkpt lon="5.843237" lat="51.159273"><ele>-11.6</ele><time>2022-03-20T10:01:56.000Z</time></trkpt><trkpt lon="5.843201" lat="51.159329"><ele>-11.6</ele><time>2022-03-20T10:01:57.000Z</time></trkpt><trkpt lon="5.843163" lat="51.159384"><ele>-11.6</ele><time>2022-03-20T10:01:58.000Z</time></trkpt><trkpt lon="5.843124" lat="51.159437"><ele>-11.4</ele><time>2022-03-20T10:01:59.000Z</time></trkpt><trkpt lon="5.843087" lat="51.159491"><ele>-11.4</ele><time>2022-03-20T10:02:00.000Z</time></trkpt><trkpt lon="5.843052" lat="51.159544"><ele>-11.2</ele><time>2022-03-20T10:02:01.000Z</time></trkpt><trkpt lon="5.843016" lat="51.159595"><ele>-11</ele><time>2022-03-20T10:02:02.000Z</time></trkpt><trkpt lon="5.842979" lat="51.159644"><ele>-10.8</ele><time>2022-03-20T10:02:03.000Z</time></trkpt><trkpt lon="5.842944" lat="51.159691"><ele>-10.8</ele><time>2022-03-20T10:02:04.000Z</time></trkpt><trkpt lon="5.842911" lat="51.159731"><ele>-10.6</ele><time>2022-03-20T10:02:05.000Z</time></trkpt><trkpt lon="5.842868" lat="51.159763"><ele>-10.6</ele><time>2022-03-20T10:02:06.000Z</time></trkpt><trkpt lon="5.84282" lat="51.159783"><ele>-10.4</ele><time>2022-03-20T10:02:07.000Z</time></trkpt><trkpt lon="5.842769" lat="51.159792"><ele>-10.4</ele><time>2022-03-20T10:02:08.000Z</time></trkpt><trkpt lon="5.842711" lat="51.159794"><ele>-10.6</ele><time>2022-03-20T10:02:09.000Z</time></trkpt><trkpt lon="5.842648" lat="51.159788"><ele>-10.6</ele><time>2022-03-20T10:02:10.000Z</time></trkpt><trkpt lon="5.842569" lat="51.159777"><ele>-10.8</ele><time>2022-03-20T10:02:11.000Z</time></trkpt><trkpt lon="5.842482" lat="51.159763"><ele>-10.8</ele><time>2022-03-20T10:02:12.000Z</time></trkpt><trkpt lon="5.842394" lat="51.159754"><ele>-10.8</ele><time>2022-03-20T10:02:13.000Z</time></trkpt><trkpt lon="5.842304" lat="51.15974"><ele>-10.8</ele><time>2022-03-20T10:02:14.000Z</time></trkpt><trkpt lon="5.842212" lat="51.159728"><ele>-10.8</ele><time>2022-03-20T10:02:15.000Z</time></trkpt><trkpt lon="5.842121" lat="51.159719"><ele>-10.8</ele><time>2022-03-20T10:02:16.000Z</time></trkpt><trkpt lon="5.842028" lat="51.159715"><ele>-10.8</ele><time>2022-03-20T10:02:17.000Z</time></trkpt><trkpt lon="5.841935" lat="51.159714"><ele>-10.8</ele><time>2022-03-20T10:02:18.000Z</time></trkpt><trkpt lon="5.841849" lat="51.159714"><ele>-10.6</ele><time>2022-03-20T10:02:19.000Z</time></trkpt><trkpt lon="5.841769" lat="51.159717"><ele>-10.6</ele><time>2022-03-20T10:02:20.000Z</time></trkpt><trkpt lon="5.841693" lat="51.159723"><ele>-10.6</ele><time>2022-03-20T10:02:21.000Z</time></trkpt><trkpt lon="5.841625" lat="51.159725"><ele>-10.6</ele><time>2022-03-20T10:02:22.000Z</time></trkpt><trkpt lon="5.841568" lat="51.159731"><ele>-10.6</ele><time>2022-03-20T10:02:23.000Z</time></trkpt><trkpt lon="5.84152" lat="51.159736"><ele>-10.6</ele><time>2022-03-20T10:02:24.000Z</time></trkpt><trkpt lon="5.841486" lat="51.15974"><ele>-10.6</ele><time>2022-03-20T10:02:25.000Z</time></trkpt><trkpt lon="5.841462" lat="51.159746"><ele>-10.4</ele><time>2022-03-20T10:02:26.000Z</time></trkpt><trkpt lon="5.841444" lat="51.159751"><ele>-10.6</ele><time>2022-03-20T10:02:27.000Z</time></trkpt><trkpt lon="5.841419" lat="51.159758"><ele>-10.6</ele><time>2022-03-20T10:02:28.000Z</time></trkpt><trkpt lon="5.841385" lat="51.15976"><ele>-10.6</ele><time>2022-03-20T10:02:29.000Z</time></trkpt><trkpt lon="5.841345" lat="51.159757"><ele>-10.6</ele><time>2022-03-20T10:02:30.000Z</time></trkpt><trkpt lon="5.841292" lat="51.159756"><ele>-10.6</ele><time>2022-03-20T10:02:31.000Z</time></trkpt><trkpt lon="5.841231" lat="51.159759"><ele>-10.6</ele><time>2022-03-20T10:02:32.000Z</time></trkpt><trkpt lon="5.841162" lat="51.159762"><ele>-10.6</ele><time>2022-03-20T10:02:33.000Z</time></trkpt><trkpt lon="5.841091" lat="51.159763"><ele>-10.6</ele><time>2022-03-20T10:02:34.000Z</time></trkpt><trkpt lon="5.841018" lat="51.159763"><ele>-10.8</ele><time>2022-03-20T10:02:35.000Z</time></trkpt><trkpt lon="5.840943" lat="51.159772"><ele>-10.8</ele><time>2022-03-20T10:02:36.000Z</time></trkpt><trkpt lon="5.840874" lat="51.159775"><ele>-11</ele><time>2022-03-20T10:02:37.000Z</time></trkpt><trkpt lon="5.84081" lat="51.159778"><ele>-11</ele><time>2022-03-20T10:02:38.000Z</time></trkpt><trkpt lon="5.840743" lat="51.159782"><ele>-11</ele><time>2022-03-20T10:02:39.000Z</time></trkpt><trkpt lon="5.840674" lat="51.159788"><ele>-11</ele><time>2022-03-20T10:02:40.000Z</time></trkpt><trkpt lon="5.840605" lat="51.159799"><ele>-11</ele><time>2022-03-20T10:02:41.000Z</time></trkpt><trkpt lon="5.840535" lat="51.159804"><ele>-11.2</ele><time>2022-03-20T10:02:42.000Z</time></trkpt><trkpt lon="5.840462" lat="51.159808"><ele>-11.2</ele><time>2022-03-20T10:02:43.000Z</time></trkpt><trkpt lon="5.840388" lat="51.159815"><ele>-11.2</ele><time>2022-03-20T10:02:44.000Z</time></trkpt><trkpt lon="5.840313" lat="51.159825"><ele>-11.2</ele><time>2022-03-20T10:02:45.000Z</time></trkpt><trkpt lon="5.840238" lat="51.15984"><ele>-11.2</ele><time>2022-03-20T10:02:46.000Z</time></trkpt><trkpt lon="5.840166" lat="51.159855"><ele>-11.2</ele><time>2022-03-20T10:02:47.000Z</time></trkpt><trkpt lon="5.840103" lat="51.159867"><ele>-11.2</ele><time>2022-03-20T10:02:48.000Z</time></trkpt><trkpt lon="5.840042" lat="51.159882"><ele>-11.2</ele><time>2022-03-20T10:02:49.000Z</time></trkpt><trkpt lon="5.839977" lat="51.159894"><ele>-11.2</ele><time>2022-03-20T10:02:50.000Z</time></trkpt><trkpt lon="5.839909" lat="51.159897"><ele>-11.2</ele><time>2022-03-20T10:02:51.000Z</time></trkpt><trkpt lon="5.839841" lat="51.159897"><ele>-11.2</ele><time>2022-03-20T10:02:52.000Z</time></trkpt><trkpt lon="5.839769" lat="51.159891"><ele>-11.2</ele><time>2022-03-20T10:02:53.000Z</time></trkpt><trkpt lon="5.839698" lat="51.159881"><ele>-11.2</ele><time>2022-03-20T10:02:54.000Z</time></trkpt><trkpt lon="5.839632" lat="51.159869"><ele>-11.2</ele><time>2022-03-20T10:02:55.000Z</time></trkpt><trkpt lon="5.839567" lat="51.159852"><ele>-11.2</ele><time>2022-03-20T10:02:56.000Z</time></trkpt><trkpt lon="5.839506" lat="51.159827"><ele>-11.2</ele><time>2022-03-20T10:02:57.000Z</time></trkpt><trkpt lon="5.839456" lat="51.159797"><ele>-11.2</ele><time>2022-03-20T10:02:58.000Z</time></trkpt><trkpt lon="5.839417" lat="51.159761"><ele>-11.2</ele><time>2022-03-20T10:02:59.000Z</time></trkpt><trkpt lon="5.839372" lat="51.159723"><ele>-11.2</ele><time>2022-03-20T10:03:00.000Z</time></trkpt><trkpt lon="5.839312" lat="51.159688"><ele>-11.2</ele><time>2022-03-20T10:03:01.000Z</time></trkpt><trkpt lon="5.839242" lat="51.159659"><ele>-11.2</ele><time>2022-03-20T10:03:02.000Z</time></trkpt><trkpt lon="5.839165" lat="51.159641"><ele>-11.2</ele><time>2022-03-20T10:03:03.000Z</time></trkpt><trkpt lon="5.839089" lat="51.159632"><ele>-11.2</ele><time>2022-03-20T10:03:04.000Z</time></trkpt><trkpt lon="5.839019" lat="51.159627"><ele>-11.2</ele><time>2022-03-20T10:03:05.000Z</time></trkpt><trkpt lon="5.838961" lat="51.159626"><ele>-11.2</ele><time>2022-03-20T10:03:06.000Z</time></trkpt><trkpt lon="5.838908" lat="51.159627"><ele>-11.2</ele><time>2022-03-20T10:03:07.000Z</time></trkpt><trkpt lon="5.838855" lat="51.159629"><ele>-11.2</ele><time>2022-03-20T10:03:08.000Z</time></trkpt><trkpt lon="5.838815" lat="51.159633"><ele>-11.2</ele><time>2022-03-20T10:03:09.000Z</time></trkpt><trkpt lon="5.838781" lat="51.159637"><ele>-11.2</ele><time>2022-03-20T10:03:10.000Z</time></trkpt><trkpt lon="5.838754" lat="51.159646"><ele>-11.2</ele><time>2022-03-20T10:03:11.000Z</time></trkpt><trkpt lon="5.838724" lat="51.159658"><ele>-11.2</ele><time>2022-03-20T10:03:12.000Z</time></trkpt><trkpt lon="5.838683" lat="51.159666"><ele>-11.2</ele><time>2022-03-20T10:03:13.000Z</time></trkpt><trkpt lon="5.838636" lat="51.159668"><ele>-11.2</ele><time>2022-03-20T10:03:14.000Z</time></trkpt><trkpt lon="5.838585" lat="51.159665"><ele>-11.2</ele><time>2022-03-20T10:03:15.000Z</time></trkpt><trkpt lon="5.838538" lat="51.15965"><ele>-11.2</ele><time>2022-03-20T10:03:16.000Z</time></trkpt><trkpt lon="5.838497" lat="51.159625"><ele>-11.2</ele><time>2022-03-20T10:03:17.000Z</time></trkpt><trkpt lon="5.838462" lat="51.159592"><ele>-11.2</ele><time>2022-03-20T10:03:18.000Z</time></trkpt><trkpt lon="5.838425" lat="51.159558"><ele>-11.4</ele><time>2022-03-20T10:03:19.000Z</time></trkpt><trkpt lon="5.838386" lat="51.159526"><ele>-11.4</ele><time>2022-03-20T10:03:20.000Z</time></trkpt><trkpt lon="5.838341" lat="51.159499"><ele>-11.4</ele><time>2022-03-20T10:03:21.000Z</time></trkpt><trkpt lon="5.838287" lat="51.159481"><ele>-11.4</ele><time>2022-03-20T10:03:22.000Z</time></trkpt><trkpt lon="5.838228" lat="51.159471"><ele>-11.4</ele><time>2022-03-20T10:03:23.000Z</time></trkpt><trkpt lon="5.838166" lat="51.15947"><ele>-11.6</ele><time>2022-03-20T10:03:24.000Z</time></trkpt><trkpt lon="5.83811" lat="51.159475"><ele>-11.6</ele><time>2022-03-20T10:03:25.000Z</time></trkpt><trkpt lon="5.838058" lat="51.159489"><ele>-11.4</ele><time>2022-03-20T10:03:26.000Z</time></trkpt><trkpt lon="5.838009" lat="51.159504"><ele>-11.4</ele><time>2022-03-20T10:03:27.000Z</time></trkpt><trkpt lon="5.83796" lat="51.159522"><ele>-11.4</ele><time>2022-03-20T10:03:28.000Z</time></trkpt><trkpt lon="5.837909" lat="51.159544"><ele>-11.4</ele><time>2022-03-20T10:03:29.000Z</time></trkpt><trkpt lon="5.837858" lat="51.159567"><ele>-11.4</ele><time>2022-03-20T10:03:30.000Z</time></trkpt><trkpt lon="5.837804" lat="51.15959"><ele>-11.4</ele><time>2022-03-20T10:03:31.000Z</time></trkpt><trkpt lon="5.837751" lat="51.159613"><ele>-11.4</ele><time>2022-03-20T10:03:32.000Z</time></trkpt><trkpt lon="5.837696" lat="51.159636"><ele>-11.4</ele><time>2022-03-20T10:03:33.000Z</time></trkpt><trkpt lon="5.837641" lat="51.159656"><ele>-11.4</ele><time>2022-03-20T10:03:34.000Z</time></trkpt><trkpt lon="5.837581" lat="51.159678"><ele>-11.4</ele><time>2022-03-20T10:03:35.000Z</time></trkpt><trkpt lon="5.83752" lat="51.159698"><ele>-11.4</ele><time>2022-03-20T10:03:36.000Z</time></trkpt><trkpt lon="5.837456" lat="51.159714"><ele>-11.2</ele><time>2022-03-20T10:03:37.000Z</time></trkpt><trkpt lon="5.83739" lat="51.159723"><ele>-11.2</ele><time>2022-03-20T10:03:38.000Z</time></trkpt><trkpt lon="5.837319" lat="51.159728"><ele>-11.2</ele><time>2022-03-20T10:03:39.000Z</time></trkpt><trkpt lon="5.837248" lat="51.159729"><ele>-11.4</ele><time>2022-03-20T10:03:40.000Z</time></trkpt><trkpt lon="5.837175" lat="51.159726"><ele>-11.4</ele><time>2022-03-20T10:03:41.000Z</time></trkpt><trkpt lon="5.837098" lat="51.159725"><ele>-11.4</ele><time>2022-03-20T10:03:42.000Z</time></trkpt><trkpt lon="5.837022" lat="51.159722"><ele>-11.4</ele><time>2022-03-20T10:03:43.000Z</time></trkpt><trkpt lon="5.836944" lat="51.159718"><ele>-11.6</ele><time>2022-03-20T10:03:44.000Z</time></trkpt><trkpt lon="5.836863" lat="51.159712"><ele>-11.6</ele><time>2022-03-20T10:03:45.000Z</time></trkpt><trkpt lon="5.836783" lat="51.159701"><ele>-11.4</ele><time>2022-03-20T10:03:46.000Z</time></trkpt><trkpt lon="5.8367" lat="51.159687"><ele>-11.4</ele><time>2022-03-20T10:03:47.000Z</time></trkpt><trkpt lon="5.836618" lat="51.159675"><ele>-11.4</ele><time>2022-03-20T10:03:48.000Z</time></trkpt><trkpt lon="5.836533" lat="51.159657"><ele>-11.4</ele><time>2022-03-20T10:03:49.000Z</time></trkpt><trkpt lon="5.83645" lat="51.159638"><ele>-11.4</ele><time>2022-03-20T10:03:50.000Z</time></trkpt><trkpt lon="5.836368" lat="51.159613"><ele>-11.4</ele><time>2022-03-20T10:03:51.000Z</time></trkpt><trkpt lon="5.836288" lat="51.159587"><ele>-11.4</ele><time>2022-03-20T10:03:52.000Z</time></trkpt><trkpt lon="5.83621" lat="51.159554"><ele>-11.2</ele><time>2022-03-20T10:03:53.000Z</time></trkpt><trkpt lon="5.836133" lat="51.15952"><ele>-11.2</ele><time>2022-03-20T10:03:54.000Z</time></trkpt><trkpt lon="5.83606" lat="51.159482"><ele>-11.2</ele><time>2022-03-20T10:03:55.000Z</time></trkpt><trkpt lon="5.835992" lat="51.15945"><ele>-11.2</ele><time>2022-03-20T10:03:56.000Z</time></trkpt><trkpt lon="5.835924" lat="51.159417"><ele>-11.2</ele><time>2022-03-20T10:03:57.000Z</time></trkpt><trkpt lon="5.835855" lat="51.159386"><ele>-11.4</ele><time>2022-03-20T10:03:58.000Z</time></trkpt><trkpt lon="5.835788" lat="51.159354"><ele>-11.4</ele><time>2022-03-20T10:03:59.000Z</time></trkpt><trkpt lon="5.835716" lat="51.159315"><ele>-11.4</ele><time>2022-03-20T10:04:00.000Z</time></trkpt><trkpt lon="5.835642" lat="51.159282"><ele>-11.6</ele><time>2022-03-20T10:04:01.000Z</time></trkpt><trkpt lon="5.835565" lat="51.159246"><ele>-11.6</ele><time>2022-03-20T10:04:02.000Z</time></trkpt><trkpt lon="5.835488" lat="51.159216"><ele>-11.6</ele><time>2022-03-20T10:04:03.000Z</time></trkpt><trkpt lon="5.835406" lat="51.15919"><ele>-11.8</ele><time>2022-03-20T10:04:04.000Z</time></trkpt><trkpt lon="5.835318" lat="51.159166"><ele>-11.8</ele><time>2022-03-20T10:04:05.000Z</time></trkpt><trkpt lon="5.835228" lat="51.159146"><ele>-11.8</ele><time>2022-03-20T10:04:06.000Z</time></trkpt><trkpt lon="5.835137" lat="51.159127"><ele>-11.8</ele><time>2022-03-20T10:04:07.000Z</time></trkpt><trkpt lon="5.835046" lat="51.159108"><ele>-11.8</ele><time>2022-03-20T10:04:08.000Z</time></trkpt><trkpt lon="5.834955" lat="51.159092"><ele>-11.8</ele><time>2022-03-20T10:04:09.000Z</time></trkpt><trkpt lon="5.834864" lat="51.159073"><ele>-11.8</ele><time>2022-03-20T10:04:10.000Z</time></trkpt><trkpt lon="5.834776" lat="51.159052"><ele>-11.8</ele><time>2022-03-20T10:04:11.000Z</time></trkpt><trkpt lon="5.834688" lat="51.159026"><ele>-11.8</ele><time>2022-03-20T10:04:12.000Z</time></trkpt><trkpt lon="5.834601" lat="51.159"><ele>-11.8</ele><time>2022-03-20T10:04:13.000Z</time></trkpt><trkpt lon="5.83451" lat="51.15897"><ele>-11.8</ele><time>2022-03-20T10:04:14.000Z</time></trkpt><trkpt lon="5.83442" lat="51.158939"><ele>-11.6</ele><time>2022-03-20T10:04:15.000Z</time></trkpt><trkpt lon="5.834335" lat="51.158905"><ele>-11.6</ele><time>2022-03-20T10:04:16.000Z</time></trkpt><trkpt lon="5.834253" lat="51.158871"><ele>-11.4</ele><time>2022-03-20T10:04:17.000Z</time></trkpt><trkpt lon="5.834172" lat="51.158834"><ele>-11.4</ele><time>2022-03-20T10:04:18.000Z</time></trkpt><trkpt lon="5.834093" lat="51.158795"><ele>-11.4</ele><time>2022-03-20T10:04:19.000Z</time></trkpt><trkpt lon="5.834017" lat="51.158755"><ele>-11.4</ele><time>2022-03-20T10:04:20.000Z</time></trkpt><trkpt lon="5.833937" lat="51.158713"><ele>-11.4</ele><time>2022-03-20T10:04:21.000Z</time></trkpt><trkpt lon="5.833857" lat="51.158674"><ele>-11.4</ele><time>2022-03-20T10:04:22.000Z</time></trkpt><trkpt lon="5.833777" lat="51.158635"><ele>-11.4</ele><time>2022-03-20T10:04:23.000Z</time></trkpt><trkpt lon="5.833698" lat="51.158595"><ele>-11.2</ele><time>2022-03-20T10:04:24.000Z</time></trkpt><trkpt lon="5.833619" lat="51.158553"><ele>-11.2</ele><time>2022-03-20T10:04:25.000Z</time></trkpt><trkpt lon="5.833538" lat="51.158511"><ele>-11.2</ele><time>2022-03-20T10:04:26.000Z</time></trkpt><trkpt lon="5.833456" lat="51.158469"><ele>-11.2</ele><time>2022-03-20T10:04:27.000Z</time></trkpt><trkpt lon="5.833374" lat="51.158429"><ele>-11.2</ele><time>2022-03-20T10:04:28.000Z</time></trkpt><trkpt lon="5.833295" lat="51.158391"><ele>-11.2</ele><time>2022-03-20T10:04:29.000Z</time></trkpt><trkpt lon="5.833216" lat="51.15835"><ele>-11.2</ele><time>2022-03-20T10:04:30.000Z</time></trkpt><trkpt lon="5.833137" lat="51.158309"><ele>-11</ele><time>2022-03-20T10:04:31.000Z</time></trkpt><trkpt lon="5.833058" lat="51.15827"><ele>-11</ele><time>2022-03-20T10:04:32.000Z</time></trkpt><trkpt lon="5.832976" lat="51.158231"><ele>-11</ele><time>2022-03-20T10:04:33.000Z</time></trkpt><trkpt lon="5.832894" lat="51.158193"><ele>-11</ele><time>2022-03-20T10:04:34.000Z</time></trkpt><trkpt lon="5.832813" lat="51.158156"><ele>-11.2</ele><time>2022-03-20T10:04:35.000Z</time></trkpt><trkpt lon="5.83273" lat="51.158117"><ele>-11</ele><time>2022-03-20T10:04:36.000Z</time></trkpt><trkpt lon="5.832647" lat="51.158075"><ele>-11</ele><time>2022-03-20T10:04:37.000Z</time></trkpt><trkpt lon="5.832565" lat="51.158036"><ele>-11</ele><time>2022-03-20T10:04:38.000Z</time></trkpt><trkpt lon="5.832486" lat="51.157996"><ele>-11</ele><time>2022-03-20T10:04:39.000Z</time></trkpt><trkpt lon="5.832405" lat="51.157956"><ele>-11.2</ele><time>2022-03-20T10:04:40.000Z</time></trkpt><trkpt lon="5.832326" lat="51.157915"><ele>-11.4</ele><time>2022-03-20T10:04:41.000Z</time></trkpt><trkpt lon="5.832246" lat="51.157874"><ele>-11.4</ele><time>2022-03-20T10:04:42.000Z</time></trkpt><trkpt lon="5.832168" lat="51.157832"><ele>-11.4</ele><time>2022-03-20T10:04:43.000Z</time></trkpt><trkpt lon="5.832087" lat="51.15779"><ele>-11.2</ele><time>2022-03-20T10:04:44.000Z</time></trkpt><trkpt lon="5.832006" lat="51.157748"><ele>-11.2</ele><time>2022-03-20T10:04:45.000Z</time></trkpt><trkpt lon="5.831925" lat="51.157707"><ele>-11.2</ele><time>2022-03-20T10:04:46.000Z</time></trkpt><trkpt lon="5.831841" lat="51.157664"><ele>-11.2</ele><time>2022-03-20T10:04:47.000Z</time></trkpt><trkpt lon="5.831761" lat="51.157622"><ele>-11.2</ele><time>2022-03-20T10:04:48.000Z</time></trkpt><trkpt lon="5.83168" lat="51.157583"><ele>-11</ele><time>2022-03-20T10:04:49.000Z</time></trkpt><trkpt lon="5.831597" lat="51.157542"><ele>-11</ele><time>2022-03-20T10:04:50.000Z</time></trkpt><trkpt lon="5.831518" lat="51.1575"><ele>-11</ele><time>2022-03-20T10:04:51.000Z</time></trkpt><trkpt lon="5.831436" lat="51.157458"><ele>-11</ele><time>2022-03-20T10:04:52.000Z</time></trkpt><trkpt lon="5.831352" lat="51.157416"><ele>-11</ele><time>2022-03-20T10:04:53.000Z</time></trkpt><trkpt lon="5.831272" lat="51.157374"><ele>-11</ele><time>2022-03-20T10:04:54.000Z</time></trkpt><trkpt lon="5.831188" lat="51.157329"><ele>-11</ele><time>2022-03-20T10:04:55.000Z</time></trkpt><trkpt lon="5.831105" lat="51.157289"><ele>-10.8</ele><time>2022-03-20T10:04:56.000Z</time></trkpt><trkpt lon="5.831023" lat="51.157249"><ele>-10.8</ele><time>2022-03-20T10:04:57.000Z</time></trkpt><trkpt lon="5.830938" lat="51.157206"><ele>-10.8</ele><time>2022-03-20T10:04:58.000Z</time></trkpt><trkpt lon="5.830856" lat="51.157161"><ele>-10.8</ele><time>2022-03-20T10:04:59.000Z</time></trkpt><trkpt lon="5.830774" lat="51.157115"><ele>-10.6</ele><time>2022-03-20T10:05:00.000Z</time></trkpt><trkpt lon="5.830692" lat="51.157072"><ele>-10.6</ele><time>2022-03-20T10:05:01.000Z</time></trkpt><trkpt lon="5.83061" lat="51.157031"><ele>-10.6</ele><time>2022-03-20T10:05:02.000Z</time></trkpt><trkpt lon="5.830529" lat="51.156989"><ele>-10.6</ele><time>2022-03-20T10:05:03.000Z</time></trkpt><trkpt lon="5.830446" lat="51.156949"><ele>-10.6</ele><time>2022-03-20T10:05:04.000Z</time></trkpt><trkpt lon="5.830365" lat="51.156909"><ele>-10.6</ele><time>2022-03-20T10:05:05.000Z</time></trkpt><trkpt lon="5.830282" lat="51.156867"><ele>-10.6</ele><time>2022-03-20T10:05:06.000Z</time></trkpt><trkpt lon="5.830198" lat="51.156824"><ele>-10.6</ele><time>2022-03-20T10:05:07.000Z</time></trkpt><trkpt lon="5.830115" lat="51.156782"><ele>-10.6</ele><time>2022-03-20T10:05:08.000Z</time></trkpt><trkpt lon="5.830034" lat="51.156737"><ele>-10.6</ele><time>2022-03-20T10:05:09.000Z</time></trkpt><trkpt lon="5.829952" lat="51.156694"><ele>-10.8</ele><time>2022-03-20T10:05:10.000Z</time></trkpt><trkpt lon="5.829873" lat="51.156647"><ele>-10.8</ele><time>2022-03-20T10:05:11.000Z</time></trkpt><trkpt lon="5.829799" lat="51.156601"><ele>-10.8</ele><time>2022-03-20T10:05:12.000Z</time></trkpt><trkpt lon="5.829731" lat="51.156552"><ele>-10.8</ele><time>2022-03-20T10:05:13.000Z</time></trkpt><trkpt lon="5.829673" lat="51.1565"><ele>-10.8</ele><time>2022-03-20T10:05:14.000Z</time></trkpt><trkpt lon="5.829623" lat="51.156443"><ele>-10.6</ele><time>2022-03-20T10:05:15.000Z</time></trkpt><trkpt lon="5.829585" lat="51.156383"><ele>-10.6</ele><time>2022-03-20T10:05:16.000Z</time></trkpt><trkpt lon="5.829559" lat="51.156322"><ele>-10.8</ele><time>2022-03-20T10:05:17.000Z</time></trkpt><trkpt lon="5.829543" lat="51.15626"><ele>-11</ele><time>2022-03-20T10:05:18.000Z</time></trkpt><trkpt lon="5.829534" lat="51.156197"><ele>-11.2</ele><time>2022-03-20T10:05:19.000Z</time></trkpt><trkpt lon="5.829528" lat="51.156135"><ele>-11.2</ele><time>2022-03-20T10:05:20.000Z</time></trkpt><trkpt lon="5.829527" lat="51.156071"><ele>-11.2</ele><time>2022-03-20T10:05:21.000Z</time></trkpt><trkpt lon="5.829528" lat="51.156009"><ele>-11.2</ele><time>2022-03-20T10:05:22.000Z</time></trkpt><trkpt lon="5.829528" lat="51.155948"><ele>-11.2</ele><time>2022-03-20T10:05:23.000Z</time></trkpt><trkpt lon="5.829528" lat="51.155885"><ele>-11.2</ele><time>2022-03-20T10:05:24.000Z</time></trkpt><trkpt lon="5.829528" lat="51.155822"><ele>-11</ele><time>2022-03-20T10:05:25.000Z</time></trkpt><trkpt lon="5.829528" lat="51.155758"><ele>-11</ele><time>2022-03-20T10:05:26.000Z</time></trkpt><trkpt lon="5.829527" lat="51.155693"><ele>-11</ele><time>2022-03-20T10:05:27.000Z</time></trkpt><trkpt lon="5.829527" lat="51.155628"><ele>-11</ele><time>2022-03-20T10:05:28.000Z</time></trkpt><trkpt lon="5.829525" lat="51.155564"><ele>-11.2</ele><time>2022-03-20T10:05:29.000Z</time></trkpt><trkpt lon="5.829524" lat="51.155499"><ele>-11.2</ele><time>2022-03-20T10:05:30.000Z</time></trkpt><trkpt lon="5.829521" lat="51.155437"><ele>-11.4</ele><time>2022-03-20T10:05:31.000Z</time></trkpt><trkpt lon="5.829519" lat="51.155373"><ele>-11.4</ele><time>2022-03-20T10:05:32.000Z</time></trkpt><trkpt lon="5.829516" lat="51.155311"><ele>-11.2</ele><time>2022-03-20T10:05:33.000Z</time></trkpt><trkpt lon="5.829514" lat="51.155247"><ele>-11.2</ele><time>2022-03-20T10:05:34.000Z</time></trkpt><trkpt lon="5.829511" lat="51.155182"><ele>-11</ele><time>2022-03-20T10:05:35.000Z</time></trkpt><trkpt lon="5.829506" lat="51.155118"><ele>-11.2</ele><time>2022-03-20T10:05:36.000Z</time></trkpt><trkpt lon="5.829499" lat="51.155055"><ele>-11.2</ele><time>2022-03-20T10:05:37.000Z</time></trkpt><trkpt lon="5.82949" lat="51.154991"><ele>-11.2</ele><time>2022-03-20T10:05:38.000Z</time></trkpt><trkpt lon="5.829478" lat="51.154929"><ele>-11.2</ele><time>2022-03-20T10:05:39.000Z</time></trkpt><trkpt lon="5.829465" lat="51.154865"><ele>-11.4</ele><time>2022-03-20T10:05:40.000Z</time></trkpt><trkpt lon="5.82945" lat="51.1548"><ele>-11.4</ele><time>2022-03-20T10:05:41.000Z</time></trkpt><trkpt lon="5.829433" lat="51.154739"><ele>-11.4</ele><time>2022-03-20T10:05:42.000Z</time></trkpt><trkpt lon="5.829416" lat="51.154675"><ele>-11.4</ele><time>2022-03-20T10:05:43.000Z</time></trkpt><trkpt lon="5.829398" lat="51.154613"><ele>-11.2</ele><time>2022-03-20T10:05:44.000Z</time></trkpt><trkpt lon="5.829381" lat="51.154549"><ele>-11.2</ele><time>2022-03-20T10:05:45.000Z</time></trkpt><trkpt lon="5.829364" lat="51.154484"><ele>-11.2</ele><time>2022-03-20T10:05:46.000Z</time></trkpt><trkpt lon="5.829348" lat="51.154422"><ele>-11.2</ele><time>2022-03-20T10:05:47.000Z</time></trkpt><trkpt lon="5.82933" lat="51.154355"><ele>-11</ele><time>2022-03-20T10:05:48.000Z</time></trkpt><trkpt lon="5.82931" lat="51.154292"><ele>-11</ele><time>2022-03-20T10:05:49.000Z</time></trkpt><trkpt lon="5.82929" lat="51.154228"><ele>-11</ele><time>2022-03-20T10:05:50.000Z</time></trkpt><trkpt lon="5.82927" lat="51.154164"><ele>-11</ele><time>2022-03-20T10:05:51.000Z</time></trkpt><trkpt lon="5.829251" lat="51.154099"><ele>-10.8</ele><time>2022-03-20T10:05:52.000Z</time></trkpt><trkpt lon="5.829231" lat="51.154034"><ele>-10.8</ele><time>2022-03-20T10:05:53.000Z</time></trkpt><trkpt lon="5.82921" lat="51.153972"><ele>-10.8</ele><time>2022-03-20T10:05:54.000Z</time></trkpt><trkpt lon="5.829187" lat="51.153911"><ele>-10.8</ele><time>2022-03-20T10:05:55.000Z</time></trkpt><trkpt lon="5.829167" lat="51.15385"><ele>-10.8</ele><time>2022-03-20T10:05:56.000Z</time></trkpt><trkpt lon="5.829148" lat="51.153789"><ele>-10.8</ele><time>2022-03-20T10:05:57.000Z</time></trkpt><trkpt lon="5.829128" lat="51.153727"><ele>-10.8</ele><time>2022-03-20T10:05:58.000Z</time></trkpt><trkpt lon="5.829106" lat="51.153667"><ele>-10.8</ele><time>2022-03-20T10:05:59.000Z</time></trkpt><trkpt lon="5.829076" lat="51.153606"><ele>-10.6</ele><time>2022-03-20T10:06:00.000Z</time></trkpt><trkpt lon="5.829038" lat="51.153548"><ele>-10.8</ele><time>2022-03-20T10:06:01.000Z</time></trkpt><trkpt lon="5.828991" lat="51.153493"><ele>-10.6</ele><time>2022-03-20T10:06:02.000Z</time></trkpt><trkpt lon="5.828935" lat="51.15344"><ele>-10.6</ele><time>2022-03-20T10:06:03.000Z</time></trkpt><trkpt lon="5.828869" lat="51.153389"><ele>-10.6</ele><time>2022-03-20T10:06:04.000Z</time></trkpt><trkpt lon="5.828795" lat="51.153343"><ele>-10.4</ele><time>2022-03-20T10:06:05.000Z</time></trkpt><trkpt lon="5.828713" lat="51.153302"><ele>-10.4</ele><time>2022-03-20T10:06:06.000Z</time></trkpt><trkpt lon="5.828626" lat="51.153264"><ele>-10.4</ele><time>2022-03-20T10:06:07.000Z</time></trkpt><trkpt lon="5.828534" lat="51.153229"><ele>-10.4</ele><time>2022-03-20T10:06:08.000Z</time></trkpt><trkpt lon="5.82844" lat="51.153195"><ele>-10.6</ele><time>2022-03-20T10:06:09.000Z</time></trkpt><trkpt lon="5.828344" lat="51.153163"><ele>-10.6</ele><time>2022-03-20T10:06:10.000Z</time></trkpt><trkpt lon="5.828249" lat="51.15313"><ele>-10.4</ele><time>2022-03-20T10:06:11.000Z</time></trkpt><trkpt lon="5.828155" lat="51.153099"><ele>-10.4</ele><time>2022-03-20T10:06:12.000Z</time></trkpt><trkpt lon="5.828063" lat="51.153066"><ele>-10.4</ele><time>2022-03-20T10:06:13.000Z</time></trkpt><trkpt lon="5.827964" lat="51.153034"><ele>-10.4</ele><time>2022-03-20T10:06:14.000Z</time></trkpt><trkpt lon="5.827868" lat="51.153006"><ele>-10.4</ele><time>2022-03-20T10:06:15.000Z</time></trkpt><trkpt lon="5.827779" lat="51.152975"><ele>-10.4</ele><time>2022-03-20T10:06:16.000Z</time></trkpt><trkpt lon="5.827684" lat="51.152943"><ele>-10.4</ele><time>2022-03-20T10:06:17.000Z</time></trkpt><trkpt lon="5.827588" lat="51.152915"><ele>-10.4</ele><time>2022-03-20T10:06:18.000Z</time></trkpt><trkpt lon="5.827494" lat="51.152882"><ele>-10.6</ele><time>2022-03-20T10:06:19.000Z</time></trkpt><trkpt lon="5.8274" lat="51.152851"><ele>-10.6</ele><time>2022-03-20T10:06:20.000Z</time></trkpt><trkpt lon="5.827309" lat="51.152817"><ele>-10.8</ele><time>2022-03-20T10:06:21.000Z</time></trkpt><trkpt lon="5.827216" lat="51.152786"><ele>-10.8</ele><time>2022-03-20T10:06:22.000Z</time></trkpt><trkpt lon="5.827122" lat="51.152752"><ele>-10.8</ele><time>2022-03-20T10:06:23.000Z</time></trkpt><trkpt lon="5.827029" lat="51.152721"><ele>-10.8</ele><time>2022-03-20T10:06:24.000Z</time></trkpt><trkpt lon="5.82694" lat="51.152693"><ele>-10.8</ele><time>2022-03-20T10:06:25.000Z</time></trkpt><trkpt lon="5.826858" lat="51.152664"><ele>-10.8</ele><time>2022-03-20T10:06:26.000Z</time></trkpt><trkpt lon="5.82678" lat="51.152636"><ele>-10.8</ele><time>2022-03-20T10:06:27.000Z</time></trkpt><trkpt lon="5.826704" lat="51.152604"><ele>-10.8</ele><time>2022-03-20T10:06:28.000Z</time></trkpt><trkpt lon="5.826624" lat="51.152578"><ele>-10.6</ele><time>2022-03-20T10:06:29.000Z</time></trkpt><trkpt lon="5.826532" lat="51.152567"><ele>-10.6</ele><time>2022-03-20T10:06:30.000Z</time></trkpt><trkpt lon="5.826431" lat="51.152562"><ele>-10.6</ele><time>2022-03-20T10:06:31.000Z</time></trkpt><trkpt lon="5.826326" lat="51.152558"><ele>-10.4</ele><time>2022-03-20T10:06:32.000Z</time></trkpt><trkpt lon="5.826217" lat="51.152557"><ele>-10.4</ele><time>2022-03-20T10:06:33.000Z</time></trkpt><trkpt lon="5.82611" lat="51.152554"><ele>-10.4</ele><time>2022-03-20T10:06:34.000Z</time></trkpt><trkpt lon="5.826004" lat="51.152548"><ele>-10.2</ele><time>2022-03-20T10:06:35.000Z</time></trkpt><trkpt lon="5.825899" lat="51.15254"><ele>-10.2</ele><time>2022-03-20T10:06:36.000Z</time></trkpt><trkpt lon="5.825794" lat="51.152532"><ele>-10</ele><time>2022-03-20T10:06:37.000Z</time></trkpt><trkpt lon="5.825692" lat="51.152525"><ele>-9.8</ele><time>2022-03-20T10:06:38.000Z</time></trkpt><trkpt lon="5.82559" lat="51.152517"><ele>-9.6</ele><time>2022-03-20T10:06:39.000Z</time></trkpt><trkpt lon="5.825494" lat="51.152507"><ele>-9.6</ele><time>2022-03-20T10:06:40.000Z</time></trkpt><trkpt lon="5.825401" lat="51.152498"><ele>-9.4</ele><time>2022-03-20T10:06:41.000Z</time></trkpt><trkpt lon="5.82531" lat="51.152488"><ele>-9.4</ele><time>2022-03-20T10:06:42.000Z</time></trkpt><trkpt lon="5.825219" lat="51.152479"><ele>-9.2</ele><time>2022-03-20T10:06:43.000Z</time></trkpt><trkpt lon="5.825127" lat="51.152472"><ele>-9.2</ele><time>2022-03-20T10:06:44.000Z</time></trkpt><trkpt lon="5.82503" lat="51.152461"><ele>-9</ele><time>2022-03-20T10:06:45.000Z</time></trkpt><trkpt lon="5.824935" lat="51.152449"><ele>-9</ele><time>2022-03-20T10:06:46.000Z</time></trkpt><trkpt lon="5.824844" lat="51.152438"><ele>-8.8</ele><time>2022-03-20T10:06:47.000Z</time></trkpt><trkpt lon="5.824753" lat="51.152427"><ele>-8.8</ele><time>2022-03-20T10:06:48.000Z</time></trkpt><trkpt lon="5.824663" lat="51.152418"><ele>-8.6</ele><time>2022-03-20T10:06:49.000Z</time></trkpt><trkpt lon="5.824574" lat="51.152407"><ele>-8.6</ele><time>2022-03-20T10:06:50.000Z</time></trkpt><trkpt lon="5.824485" lat="51.152396"><ele>-8.6</ele><time>2022-03-20T10:06:51.000Z</time></trkpt><trkpt lon="5.824396" lat="51.152385"><ele>-8.4</ele><time>2022-03-20T10:06:52.000Z</time></trkpt><trkpt lon="5.824307" lat="51.152373"><ele>-8.4</ele><time>2022-03-20T10:06:53.000Z</time></trkpt><trkpt lon="5.82422" lat="51.152362"><ele>-8.2</ele><time>2022-03-20T10:06:54.000Z</time></trkpt><trkpt lon="5.824134" lat="51.152353"><ele>-8.2</ele><time>2022-03-20T10:06:55.000Z</time></trkpt><trkpt lon="5.824049" lat="51.152346"><ele>-8</ele><time>2022-03-20T10:06:56.000Z</time></trkpt><trkpt lon="5.823962" lat="51.152341"><ele>-7.8</ele><time>2022-03-20T10:06:57.000Z</time></trkpt><trkpt lon="5.823877" lat="51.152337"><ele>-7.6</ele><time>2022-03-20T10:06:58.000Z</time></trkpt><trkpt lon="5.823789" lat="51.152333"><ele>-7.4</ele><time>2022-03-20T10:06:59.000Z</time></trkpt><trkpt lon="5.8237" lat="51.152329"><ele>-7.2</ele><time>2022-03-20T10:07:00.000Z</time></trkpt><trkpt lon="5.823612" lat="51.152323"><ele>-7.2</ele><time>2022-03-20T10:07:01.000Z</time></trkpt><trkpt lon="5.823522" lat="51.152315"><ele>-7</ele><time>2022-03-20T10:07:02.000Z</time></trkpt><trkpt lon="5.823434" lat="51.15231"><ele>-7</ele><time>2022-03-20T10:07:03.000Z</time></trkpt><trkpt lon="5.823347" lat="51.152306"><ele>-7</ele><time>2022-03-20T10:07:04.000Z</time></trkpt><trkpt lon="5.823257" lat="51.152306"><ele>-6.8</ele><time>2022-03-20T10:07:05.000Z</time></trkpt><trkpt lon="5.823171" lat="51.152303"><ele>-6.6</ele><time>2022-03-20T10:07:06.000Z</time></trkpt><trkpt lon="5.823084" lat="51.152302"><ele>-6.4</ele><time>2022-03-20T10:07:07.000Z</time></trkpt><trkpt lon="5.823001" lat="51.152299"><ele>-6.2</ele><time>2022-03-20T10:07:08.000Z</time></trkpt><trkpt lon="5.822918" lat="51.152295"><ele>-6</ele><time>2022-03-20T10:07:09.000Z</time></trkpt><trkpt lon="5.822837" lat="51.152294"><ele>-5.8</ele><time>2022-03-20T10:07:10.000Z</time></trkpt><trkpt lon="5.822758" lat="51.1523"><ele>-5.6</ele><time>2022-03-20T10:07:11.000Z</time></trkpt><trkpt lon="5.822685" lat="51.152311"><ele>-5.6</ele><time>2022-03-20T10:07:12.000Z</time></trkpt><trkpt lon="5.822619" lat="51.152328"><ele>-5.4</ele><time>2022-03-20T10:07:13.000Z</time></trkpt><trkpt lon="5.822553" lat="51.15235"><ele>-5.2</ele><time>2022-03-20T10:07:14.000Z</time></trkpt><trkpt lon="5.822479" lat="51.152381"><ele>-5.2</ele><time>2022-03-20T10:07:15.000Z</time></trkpt><trkpt lon="5.822401" lat="51.152407"><ele>-5</ele><time>2022-03-20T10:07:16.000Z</time></trkpt><trkpt lon="5.822319" lat="51.152429"><ele>-5.2</ele><time>2022-03-20T10:07:17.000Z</time></trkpt><trkpt lon="5.82223" lat="51.152447"><ele>-5.2</ele><time>2022-03-20T10:07:18.000Z</time></trkpt><trkpt lon="5.82214" lat="51.152459"><ele>-5.2</ele><time>2022-03-20T10:07:19.000Z</time></trkpt><trkpt lon="5.822047" lat="51.152471"><ele>-5</ele><time>2022-03-20T10:07:20.000Z</time></trkpt><trkpt lon="5.821953" lat="51.152479"><ele>-4.8</ele><time>2022-03-20T10:07:21.000Z</time></trkpt><trkpt lon="5.821859" lat="51.152487"><ele>-4.8</ele><time>2022-03-20T10:07:22.000Z</time></trkpt><trkpt lon="5.821769" lat="51.152497"><ele>-4.6</ele><time>2022-03-20T10:07:23.000Z</time></trkpt><trkpt lon="5.821677" lat="51.152509"><ele>-4.8</ele><time>2022-03-20T10:07:24.000Z</time></trkpt><trkpt lon="5.821584" lat="51.15252"><ele>-4.8</ele><time>2022-03-20T10:07:25.000Z</time></trkpt><trkpt lon="5.821492" lat="51.152529"><ele>-4.8</ele><time>2022-03-20T10:07:26.000Z</time></trkpt><trkpt lon="5.8214" lat="51.152534"><ele>-4.8</ele><time>2022-03-20T10:07:27.000Z</time></trkpt><trkpt lon="5.821306" lat="51.15254"><ele>-4.6</ele><time>2022-03-20T10:07:28.000Z</time></trkpt><trkpt lon="5.821214" lat="51.152551"><ele>-4.4</ele><time>2022-03-20T10:07:29.000Z</time></trkpt><trkpt lon="5.821118" lat="51.152556"><ele>-4.2</ele><time>2022-03-20T10:07:30.000Z</time></trkpt><trkpt lon="5.821019" lat="51.152563"><ele>-4.2</ele><time>2022-03-20T10:07:31.000Z</time></trkpt><trkpt lon="5.820919" lat="51.152568"><ele>-4.2</ele><time>2022-03-20T10:07:32.000Z</time></trkpt><trkpt lon="5.820819" lat="51.152572"><ele>-4.2</ele><time>2022-03-20T10:07:33.000Z</time></trkpt><trkpt lon="5.820718" lat="51.152576"><ele>-4.2</ele><time>2022-03-20T10:07:34.000Z</time></trkpt><trkpt lon="5.820619" lat="51.152576"><ele>-4.2</ele><time>2022-03-20T10:07:35.000Z</time></trkpt><trkpt lon="5.820527" lat="51.152579"><ele>-4.2</ele><time>2022-03-20T10:07:36.000Z</time></trkpt><trkpt lon="5.820422" lat="51.152583"><ele>-4.2</ele><time>2022-03-20T10:07:37.000Z</time></trkpt><trkpt lon="5.820318" lat="51.152587"><ele>-4.2</ele><time>2022-03-20T10:07:38.000Z</time></trkpt><trkpt lon="5.820219" lat="51.152591"><ele>-4.2</ele><time>2022-03-20T10:07:39.000Z</time></trkpt><trkpt lon="5.82012" lat="51.152595"><ele>-4.2</ele><time>2022-03-20T10:07:40.000Z</time></trkpt><trkpt lon="5.820021" lat="51.152596"><ele>-4.2</ele><time>2022-03-20T10:07:41.000Z</time></trkpt><trkpt lon="5.819925" lat="51.152596"><ele>-4.2</ele><time>2022-03-20T10:07:42.000Z</time></trkpt><trkpt lon="5.819829" lat="51.152598"><ele>-4.2</ele><time>2022-03-20T10:07:43.000Z</time></trkpt><trkpt lon="5.819735" lat="51.152602"><ele>-4.2</ele><time>2022-03-20T10:07:44.000Z</time></trkpt><trkpt lon="5.819642" lat="51.152606"><ele>-4.2</ele><time>2022-03-20T10:07:45.000Z</time></trkpt><trkpt lon="5.819547" lat="51.152616"><ele>-4</ele><time>2022-03-20T10:07:46.000Z</time></trkpt><trkpt lon="5.819452" lat="51.152621"><ele>-3.8</ele><time>2022-03-20T10:07:47.000Z</time></trkpt><trkpt lon="5.819351" lat="51.152622"><ele>-3.8</ele><time>2022-03-20T10:07:48.000Z</time></trkpt><trkpt lon="5.819249" lat="51.152616"><ele>-3.6</ele><time>2022-03-20T10:07:49.000Z</time></trkpt><trkpt lon="5.819147" lat="51.152609"><ele>-3.6</ele><time>2022-03-20T10:07:50.000Z</time></trkpt><trkpt lon="5.819045" lat="51.152604"><ele>-3.6</ele><time>2022-03-20T10:07:51.000Z</time></trkpt><trkpt lon="5.81894" lat="51.152603"><ele>-3.6</ele><time>2022-03-20T10:07:52.000Z</time></trkpt><trkpt lon="5.818835" lat="51.152603"><ele>-3.6</ele><time>2022-03-20T10:07:53.000Z</time></trkpt><trkpt lon="5.818729" lat="51.152606"><ele>-3.4</ele><time>2022-03-20T10:07:54.000Z</time></trkpt><trkpt lon="5.818623" lat="51.152607"><ele>-3.4</ele><time>2022-03-20T10:07:55.000Z</time></trkpt><trkpt lon="5.818516" lat="51.152607"><ele>-3.4</ele><time>2022-03-20T10:07:56.000Z</time></trkpt><trkpt lon="5.818411" lat="51.152607"><ele>-3.4</ele><time>2022-03-20T10:07:57.000Z</time></trkpt><trkpt lon="5.818306" lat="51.152607"><ele>-3.2</ele><time>2022-03-20T10:07:58.000Z</time></trkpt><trkpt lon="5.818203" lat="51.152607"><ele>-3.2</ele><time>2022-03-20T10:07:59.000Z</time></trkpt><trkpt lon="5.818095" lat="51.152613"><ele>-3.2</ele><time>2022-03-20T10:08:00.000Z</time></trkpt><trkpt lon="5.817989" lat="51.152615"><ele>-3</ele><time>2022-03-20T10:08:01.000Z</time></trkpt><trkpt lon="5.817884" lat="51.152617"><ele>-3</ele><time>2022-03-20T10:08:02.000Z</time></trkpt><trkpt lon="5.817778" lat="51.152618"><ele>-3</ele><time>2022-03-20T10:08:03.000Z</time></trkpt><trkpt lon="5.817673" lat="51.152621"><ele>-3</ele><time>2022-03-20T10:08:04.000Z</time></trkpt><trkpt lon="5.81757" lat="51.152625"><ele>-3</ele><time>2022-03-20T10:08:05.000Z</time></trkpt><trkpt lon="5.817465" lat="51.152629"><ele>-3</ele><time>2022-03-20T10:08:06.000Z</time></trkpt><trkpt lon="5.817358" lat="51.152636"><ele>-3</ele><time>2022-03-20T10:08:07.000Z</time></trkpt><trkpt lon="5.817253" lat="51.15264"><ele>-3</ele><time>2022-03-20T10:08:08.000Z</time></trkpt><trkpt lon="5.817146" lat="51.152647"><ele>-2.8</ele><time>2022-03-20T10:08:09.000Z</time></trkpt><trkpt lon="5.817038" lat="51.152655"><ele>-2.8</ele><time>2022-03-20T10:08:10.000Z</time></trkpt><trkpt lon="5.816931" lat="51.152662"><ele>-2.8</ele><time>2022-03-20T10:08:11.000Z</time></trkpt><trkpt lon="5.816822" lat="51.15267"><ele>-2.8</ele><time>2022-03-20T10:08:12.000Z</time></trkpt><trkpt lon="5.816713" lat="51.152675"><ele>-3</ele><time>2022-03-20T10:08:13.000Z</time></trkpt><trkpt lon="5.816607" lat="51.152681"><ele>-3</ele><time>2022-03-20T10:08:14.000Z</time></trkpt><trkpt lon="5.816497" lat="51.152686"><ele>-3</ele><time>2022-03-20T10:08:15.000Z</time></trkpt><trkpt lon="5.816388" lat="51.15269"><ele>-2.8</ele><time>2022-03-20T10:08:16.000Z</time></trkpt><trkpt lon="5.816279" lat="51.152694"><ele>-2.8</ele><time>2022-03-20T10:08:17.000Z</time></trkpt><trkpt lon="5.816168" lat="51.152692"><ele>-2.8</ele><time>2022-03-20T10:08:18.000Z</time></trkpt><trkpt lon="5.816056" lat="51.152685"><ele>-2.8</ele><time>2022-03-20T10:08:19.000Z</time></trkpt><trkpt lon="5.815946" lat="51.152677"><ele>-3</ele><time>2022-03-20T10:08:20.000Z</time></trkpt><trkpt lon="5.81584" lat="51.152667"><ele>-3</ele><time>2022-03-20T10:08:21.000Z</time></trkpt><trkpt lon="5.815734" lat="51.152658"><ele>-3</ele><time>2022-03-20T10:08:22.000Z</time></trkpt><trkpt lon="5.815628" lat="51.152648"><ele>-3</ele><time>2022-03-20T10:08:23.000Z</time></trkpt><trkpt lon="5.815526" lat="51.152636"><ele>-3.2</ele><time>2022-03-20T10:08:24.000Z</time></trkpt><trkpt lon="5.815424" lat="51.152622"><ele>-3.4</ele><time>2022-03-20T10:08:25.000Z</time></trkpt><trkpt lon="5.815321" lat="51.152604"><ele>-3.4</ele><time>2022-03-20T10:08:26.000Z</time></trkpt><trkpt lon="5.815216" lat="51.152588"><ele>-3.2</ele><time>2022-03-20T10:08:27.000Z</time></trkpt><trkpt lon="5.815109" lat="51.152572"><ele>-3.2</ele><time>2022-03-20T10:08:28.000Z</time></trkpt><trkpt lon="5.815001" lat="51.152557"><ele>-3.2</ele><time>2022-03-20T10:08:29.000Z</time></trkpt><trkpt lon="5.814889" lat="51.152545"><ele>-3.4</ele><time>2022-03-20T10:08:30.000Z</time></trkpt><trkpt lon="5.814781" lat="51.152534"><ele>-3.4</ele><time>2022-03-20T10:08:31.000Z</time></trkpt><trkpt lon="5.814671" lat="51.152525"><ele>-3.4</ele><time>2022-03-20T10:08:32.000Z</time></trkpt><trkpt lon="5.814562" lat="51.152514"><ele>-3.4</ele><time>2022-03-20T10:08:33.000Z</time></trkpt><trkpt lon="5.814451" lat="51.152506"><ele>-3.6</ele><time>2022-03-20T10:08:34.000Z</time></trkpt><trkpt lon="5.814343" lat="51.152498"><ele>-3.8</ele><time>2022-03-20T10:08:35.000Z</time></trkpt><trkpt lon="5.814236" lat="51.152488"><ele>-3.8</ele><time>2022-03-20T10:08:36.000Z</time></trkpt><trkpt lon="5.814124" lat="51.152479"><ele>-3.8</ele><time>2022-03-20T10:08:37.000Z</time></trkpt><trkpt lon="5.814015" lat="51.152468"><ele>-3.8</ele><time>2022-03-20T10:08:38.000Z</time></trkpt><trkpt lon="5.813907" lat="51.152454"><ele>-4</ele><time>2022-03-20T10:08:39.000Z</time></trkpt><trkpt lon="5.8138" lat="51.152442"><ele>-4</ele><time>2022-03-20T10:08:40.000Z</time></trkpt><trkpt lon="5.813694" lat="51.152425"><ele>-4</ele><time>2022-03-20T10:08:41.000Z</time></trkpt><trkpt lon="5.813586" lat="51.152408"><ele>-4.2</ele><time>2022-03-20T10:08:42.000Z</time></trkpt><trkpt lon="5.813478" lat="51.152391"><ele>-4.4</ele><time>2022-03-20T10:08:43.000Z</time></trkpt><trkpt lon="5.813369" lat="51.152371"><ele>-4.6</ele><time>2022-03-20T10:08:44.000Z</time></trkpt><trkpt lon="5.81326" lat="51.152352"><ele>-4.6</ele><time>2022-03-20T10:08:45.000Z</time></trkpt><trkpt lon="5.813156" lat="51.152336"><ele>-4.8</ele><time>2022-03-20T10:08:46.000Z</time></trkpt><trkpt lon="5.813053" lat="51.152318"><ele>-4.8</ele><time>2022-03-20T10:08:47.000Z</time></trkpt><trkpt lon="5.812949" lat="51.152302"><ele>-4.6</ele><time>2022-03-20T10:08:48.000Z</time></trkpt><trkpt lon="5.812847" lat="51.152289"><ele>-4.4</ele><time>2022-03-20T10:08:49.000Z</time></trkpt><trkpt lon="5.812743" lat="51.152281"><ele>-4.4</ele><time>2022-03-20T10:08:50.000Z</time></trkpt><trkpt lon="5.812638" lat="51.152276"><ele>-4.6</ele><time>2022-03-20T10:08:51.000Z</time></trkpt><trkpt lon="5.812535" lat="51.152275"><ele>-4.6</ele><time>2022-03-20T10:08:52.000Z</time></trkpt><trkpt lon="5.812431" lat="51.152275"><ele>-4.6</ele><time>2022-03-20T10:08:53.000Z</time></trkpt><trkpt lon="5.812329" lat="51.152275"><ele>-4.4</ele><time>2022-03-20T10:08:54.000Z</time></trkpt><trkpt lon="5.812228" lat="51.152275"><ele>-4.2</ele><time>2022-03-20T10:08:55.000Z</time></trkpt><trkpt lon="5.812128" lat="51.152281"><ele>-4.2</ele><time>2022-03-20T10:08:56.000Z</time></trkpt><trkpt lon="5.81203" lat="51.152286"><ele>-4.4</ele><time>2022-03-20T10:08:57.000Z</time></trkpt><trkpt lon="5.811933" lat="51.152295"><ele>-4.4</ele><time>2022-03-20T10:08:58.000Z</time></trkpt><trkpt lon="5.811841" lat="51.152304"><ele>-4.6</ele><time>2022-03-20T10:08:59.000Z</time></trkpt><trkpt lon="5.811748" lat="51.152311"><ele>-4.8</ele><time>2022-03-20T10:09:00.000Z</time></trkpt><trkpt lon="5.811659" lat="51.152319"><ele>-4.6</ele><time>2022-03-20T10:09:01.000Z</time></trkpt><trkpt lon="5.811574" lat="51.152327"><ele>-4.6</ele><time>2022-03-20T10:09:02.000Z</time></trkpt><trkpt lon="5.811492" lat="51.152334"><ele>-4.4</ele><time>2022-03-20T10:09:03.000Z</time></trkpt><trkpt lon="5.81142" lat="51.152342"><ele>-4.4</ele><time>2022-03-20T10:09:04.000Z</time></trkpt><trkpt lon="5.811359" lat="51.152352"><ele>-4.2</ele><time>2022-03-20T10:09:05.000Z</time></trkpt><trkpt lon="5.811311" lat="51.152358"><ele>-4</ele><time>2022-03-20T10:09:06.000Z</time></trkpt><trkpt lon="5.811276" lat="51.152365"><ele>-4</ele><time>2022-03-20T10:09:07.000Z</time></trkpt><trkpt lon="5.811248" lat="51.152367"><ele>-3.2</ele><time>2022-03-20T10:09:24.000Z</time></trkpt><trkpt lon="5.811248" lat="51.152367"><ele>-3.2</ele><time>2022-03-20T10:09:25.000Z</time></trkpt><trkpt lon="5.811215" lat="51.152375"><ele>-3.2</ele><time>2022-03-20T10:09:26.000Z</time></trkpt><trkpt lon="5.811182" lat="51.152384"><ele>-3.2</ele><time>2022-03-20T10:09:27.000Z</time></trkpt><trkpt lon="5.811141" lat="51.152389"><ele>-3.4</ele><time>2022-03-20T10:09:28.000Z</time></trkpt><trkpt lon="5.811087" lat="51.152395"><ele>-3.4</ele><time>2022-03-20T10:09:29.000Z</time></trkpt><trkpt lon="5.811024" lat="51.152403"><ele>-3.4</ele><time>2022-03-20T10:09:30.000Z</time></trkpt><trkpt lon="5.810956" lat="51.152416"><ele>-3.4</ele><time>2022-03-20T10:09:31.000Z</time></trkpt><trkpt lon="5.810885" lat="51.152432"><ele>-3.4</ele><time>2022-03-20T10:09:32.000Z</time></trkpt><trkpt lon="5.810811" lat="51.152447"><ele>-3.4</ele><time>2022-03-20T10:09:33.000Z</time></trkpt><trkpt lon="5.810734" lat="51.152465"><ele>-3.4</ele><time>2022-03-20T10:09:34.000Z</time></trkpt><trkpt lon="5.810652" lat="51.152484"><ele>-3.4</ele><time>2022-03-20T10:09:35.000Z</time></trkpt><trkpt lon="5.810569" lat="51.152504"><ele>-3.6</ele><time>2022-03-20T10:09:36.000Z</time></trkpt><trkpt lon="5.81047" lat="51.152526"><ele>-3.6</ele><time>2022-03-20T10:09:37.000Z</time></trkpt><trkpt lon="5.810373" lat="51.152548"><ele>-3.8</ele><time>2022-03-20T10:09:38.000Z</time></trkpt><trkpt lon="5.810273" lat="51.152568"><ele>-4</ele><time>2022-03-20T10:09:39.000Z</time></trkpt><trkpt lon="5.810172" lat="51.15259"><ele>-4</ele><time>2022-03-20T10:09:40.000Z</time></trkpt><trkpt lon="5.810074" lat="51.152613"><ele>-4.2</ele><time>2022-03-20T10:09:41.000Z</time></trkpt><trkpt lon="5.809974" lat="51.152636"><ele>-4.2</ele><time>2022-03-20T10:09:42.000Z</time></trkpt><trkpt lon="5.809873" lat="51.152656"><ele>-4.2</ele><time>2022-03-20T10:09:43.000Z</time></trkpt><trkpt lon="5.809772" lat="51.152672"><ele>-4.2</ele><time>2022-03-20T10:09:44.000Z</time></trkpt><trkpt lon="5.809673" lat="51.15269"><ele>-4.2</ele><time>2022-03-20T10:09:45.000Z</time></trkpt><trkpt lon="5.809568" lat="51.152703"><ele>-4.2</ele><time>2022-03-20T10:09:46.000Z</time></trkpt><trkpt lon="5.809465" lat="51.152715"><ele>-4.4</ele><time>2022-03-20T10:09:47.000Z</time></trkpt><trkpt lon="5.80936" lat="51.152723"><ele>-4.4</ele><time>2022-03-20T10:09:48.000Z</time></trkpt><trkpt lon="5.809256" lat="51.152731"><ele>-4.2</ele><time>2022-03-20T10:09:49.000Z</time></trkpt><trkpt lon="5.809153" lat="51.152739"><ele>-4</ele><time>2022-03-20T10:09:50.000Z</time></trkpt><trkpt lon="5.809048" lat="51.152746"><ele>-4</ele><time>2022-03-20T10:09:51.000Z</time></trkpt><trkpt lon="5.808944" lat="51.152754"><ele>-4</ele><time>2022-03-20T10:09:52.000Z</time></trkpt><trkpt lon="5.808837" lat="51.152762"><ele>-4</ele><time>2022-03-20T10:09:53.000Z</time></trkpt><trkpt lon="5.808729" lat="51.152766"><ele>-4.2</ele><time>2022-03-20T10:09:54.000Z</time></trkpt><trkpt lon="5.808626" lat="51.15277"><ele>-4.2</ele><time>2022-03-20T10:09:55.000Z</time></trkpt><trkpt lon="5.808519" lat="51.152774"><ele>-4.2</ele><time>2022-03-20T10:09:56.000Z</time></trkpt><trkpt lon="5.808413" lat="51.152781"><ele>-4.2</ele><time>2022-03-20T10:09:57.000Z</time></trkpt><trkpt lon="5.808307" lat="51.152785"><ele>-4</ele><time>2022-03-20T10:09:58.000Z</time></trkpt><trkpt lon="5.808203" lat="51.152786"><ele>-4</ele><time>2022-03-20T10:09:59.000Z</time></trkpt><trkpt lon="5.808097" lat="51.152786"><ele>-3.8</ele><time>2022-03-20T10:10:00.000Z</time></trkpt><trkpt lon="5.807995" lat="51.152789"><ele>-3.8</ele><time>2022-03-20T10:10:01.000Z</time></trkpt><trkpt lon="5.807893" lat="51.15279"><ele>-3.6</ele><time>2022-03-20T10:10:02.000Z</time></trkpt><trkpt lon="5.807795" lat="51.15279"><ele>-3.4</ele><time>2022-03-20T10:10:03.000Z</time></trkpt><trkpt lon="5.807698" lat="51.152793"><ele>-3.4</ele><time>2022-03-20T10:10:04.000Z</time></trkpt><trkpt lon="5.807604" lat="51.152794"><ele>-3.2</ele><time>2022-03-20T10:10:05.000Z</time></trkpt><trkpt lon="5.807512" lat="51.152794"><ele>-3.2</ele><time>2022-03-20T10:10:06.000Z</time></trkpt><trkpt lon="5.807421" lat="51.152794"><ele>-3</ele><time>2022-03-20T10:10:07.000Z</time></trkpt><trkpt lon="5.807336" lat="51.152797"><ele>-3</ele><time>2022-03-20T10:10:08.000Z</time></trkpt><trkpt lon="5.807253" lat="51.152801"><ele>-2.8</ele><time>2022-03-20T10:10:09.000Z</time></trkpt><trkpt lon="5.807171" lat="51.152804"><ele>-2.8</ele><time>2022-03-20T10:10:10.000Z</time></trkpt><trkpt lon="5.807088" lat="51.152805"><ele>-2.8</ele><time>2022-03-20T10:10:11.000Z</time></trkpt><trkpt lon="5.807009" lat="51.152805"><ele>-2.8</ele><time>2022-03-20T10:10:12.000Z</time></trkpt><trkpt lon="5.80693" lat="51.152805"><ele>-2.8</ele><time>2022-03-20T10:10:13.000Z</time></trkpt><trkpt lon="5.806851" lat="51.152811"><ele>-2.8</ele><time>2022-03-20T10:10:14.000Z</time></trkpt><trkpt lon="5.80677" lat="51.152816"><ele>-2.6</ele><time>2022-03-20T10:10:15.000Z</time></trkpt><trkpt lon="5.806689" lat="51.152817"><ele>-2.8</ele><time>2022-03-20T10:10:16.000Z</time></trkpt><trkpt lon="5.806606" lat="51.15282"><ele>-2.8</ele><time>2022-03-20T10:10:17.000Z</time></trkpt><trkpt lon="5.806523" lat="51.152821"><ele>-2.8</ele><time>2022-03-20T10:10:18.000Z</time></trkpt><trkpt lon="5.806438" lat="51.152821"><ele>-2.8</ele><time>2022-03-20T10:10:19.000Z</time></trkpt><trkpt lon="5.806356" lat="51.152818"><ele>-2.8</ele><time>2022-03-20T10:10:20.000Z</time></trkpt><trkpt lon="5.806274" lat="51.152817"><ele>-2.8</ele><time>2022-03-20T10:10:21.000Z</time></trkpt><trkpt lon="5.806195" lat="51.152817"><ele>-2.8</ele><time>2022-03-20T10:10:22.000Z</time></trkpt><trkpt lon="5.806113" lat="51.152817"><ele>-2.8</ele><time>2022-03-20T10:10:23.000Z</time></trkpt><trkpt lon="5.80603" lat="51.15282"><ele>-2.8</ele><time>2022-03-20T10:10:24.000Z</time></trkpt><trkpt lon="5.805942" lat="51.152821"><ele>-2.8</ele><time>2022-03-20T10:10:25.000Z</time></trkpt><trkpt lon="5.805852" lat="51.152824"><ele>-3</ele><time>2022-03-20T10:10:26.000Z</time></trkpt><trkpt lon="5.805758" lat="51.152824"><ele>-3</ele><time>2022-03-20T10:10:27.000Z</time></trkpt><trkpt lon="5.805668" lat="51.152827"><ele>-3</ele><time>2022-03-20T10:10:28.000Z</time></trkpt><trkpt lon="5.80557" lat="51.152828"><ele>-3</ele><time>2022-03-20T10:10:29.000Z</time></trkpt><trkpt lon="5.805476" lat="51.152831"><ele>-3.2</ele><time>2022-03-20T10:10:30.000Z</time></trkpt><trkpt lon="5.80538" lat="51.152835"><ele>-3.2</ele><time>2022-03-20T10:10:31.000Z</time></trkpt><trkpt lon="5.805281" lat="51.152839"><ele>-3.2</ele><time>2022-03-20T10:10:32.000Z</time></trkpt><trkpt lon="5.805181" lat="51.152843"><ele>-3.2</ele><time>2022-03-20T10:10:33.000Z</time></trkpt><trkpt lon="5.80508" lat="51.152843"><ele>-3.2</ele><time>2022-03-20T10:10:34.000Z</time></trkpt><trkpt lon="5.804979" lat="51.152846"><ele>-3.2</ele><time>2022-03-20T10:10:35.000Z</time></trkpt><trkpt lon="5.804879" lat="51.152847"><ele>-3.4</ele><time>2022-03-20T10:10:36.000Z</time></trkpt><trkpt lon="5.804779" lat="51.15285"><ele>-3.4</ele><time>2022-03-20T10:10:37.000Z</time></trkpt><trkpt lon="5.804678" lat="51.152854"><ele>-3.4</ele><time>2022-03-20T10:10:38.000Z</time></trkpt><trkpt lon="5.80458" lat="51.152858"><ele>-3.4</ele><time>2022-03-20T10:10:39.000Z</time></trkpt><trkpt lon="5.804477" lat="51.152859"><ele>-3.4</ele><time>2022-03-20T10:10:40.000Z</time></trkpt><trkpt lon="5.804377" lat="51.152862"><ele>-3.4</ele><time>2022-03-20T10:10:41.000Z</time></trkpt><trkpt lon="5.804278" lat="51.152866"><ele>-3.4</ele><time>2022-03-20T10:10:42.000Z</time></trkpt><trkpt lon="5.804182" lat="51.152866"><ele>-3.6</ele><time>2022-03-20T10:10:43.000Z</time></trkpt><trkpt lon="5.804089" lat="51.152869"><ele>-3.6</ele><time>2022-03-20T10:10:44.000Z</time></trkpt><trkpt lon="5.803994" lat="51.15287"><ele>-3.6</ele><time>2022-03-20T10:10:45.000Z</time></trkpt><trkpt lon="5.803899" lat="51.152873"><ele>-3.6</ele><time>2022-03-20T10:10:46.000Z</time></trkpt><trkpt lon="5.803805" lat="51.152874"><ele>-3.6</ele><time>2022-03-20T10:10:47.000Z</time></trkpt><trkpt lon="5.803709" lat="51.152874"><ele>-3.6</ele><time>2022-03-20T10:10:48.000Z</time></trkpt><trkpt lon="5.803613" lat="51.152871"><ele>-3.8</ele><time>2022-03-20T10:10:49.000Z</time></trkpt><trkpt lon="5.803519" lat="51.15287"><ele>-3.8</ele><time>2022-03-20T10:10:50.000Z</time></trkpt><trkpt lon="5.803427" lat="51.152867"><ele>-3.8</ele><time>2022-03-20T10:10:51.000Z</time></trkpt><trkpt lon="5.803334" lat="51.152861"><ele>-4</ele><time>2022-03-20T10:10:52.000Z</time></trkpt><trkpt lon="5.803243" lat="51.152853"><ele>-4</ele><time>2022-03-20T10:10:53.000Z</time></trkpt><trkpt lon="5.803151" lat="51.152842"><ele>-4</ele><time>2022-03-20T10:10:54.000Z</time></trkpt><trkpt lon="5.803059" lat="51.152831"><ele>-4</ele><time>2022-03-20T10:10:55.000Z</time></trkpt><trkpt lon="5.802967" lat="51.152819"><ele>-4.2</ele><time>2022-03-20T10:10:56.000Z</time></trkpt><trkpt lon="5.802874" lat="51.152811"><ele>-4.2</ele><time>2022-03-20T10:10:57.000Z</time></trkpt><trkpt lon="5.802779" lat="51.1528"><ele>-4.2</ele><time>2022-03-20T10:10:58.000Z</time></trkpt><trkpt lon="5.802684" lat="51.152792"><ele>-4.2</ele><time>2022-03-20T10:10:59.000Z</time></trkpt><trkpt lon="5.802589" lat="51.152781"><ele>-4.2</ele><time>2022-03-20T10:11:00.000Z</time></trkpt><trkpt lon="5.802495" lat="51.152773"><ele>-4.4</ele><time>2022-03-20T10:11:01.000Z</time></trkpt><trkpt lon="5.802404" lat="51.152765"><ele>-4.4</ele><time>2022-03-20T10:11:02.000Z</time></trkpt><trkpt lon="5.802312" lat="51.15276"><ele>-4.4</ele><time>2022-03-20T10:11:03.000Z</time></trkpt><trkpt lon="5.802218" lat="51.152757"><ele>-4.4</ele><time>2022-03-20T10:11:04.000Z</time></trkpt><trkpt lon="5.802128" lat="51.152753"><ele>-4.6</ele><time>2022-03-20T10:11:05.000Z</time></trkpt><trkpt lon="5.802039" lat="51.152749"><ele>-4.6</ele><time>2022-03-20T10:11:06.000Z</time></trkpt><trkpt lon="5.801951" lat="51.152745"><ele>-4.4</ele><time>2022-03-20T10:11:07.000Z</time></trkpt><trkpt lon="5.801866" lat="51.152744"><ele>-4.4</ele><time>2022-03-20T10:11:08.000Z</time></trkpt><trkpt lon="5.801785" lat="51.152744"><ele>-4.4</ele><time>2022-03-20T10:11:09.000Z</time></trkpt><trkpt lon="5.801706" lat="51.152741"><ele>-4.4</ele><time>2022-03-20T10:11:10.000Z</time></trkpt><trkpt lon="5.801628" lat="51.15274"><ele>-4.2</ele><time>2022-03-20T10:11:11.000Z</time></trkpt><trkpt lon="5.801553" lat="51.15274"><ele>-4.2</ele><time>2022-03-20T10:11:12.000Z</time></trkpt><trkpt lon="5.801481" lat="51.152738"><ele>-4</ele><time>2022-03-20T10:11:13.000Z</time></trkpt><trkpt lon="5.801411" lat="51.152737"><ele>-4</ele><time>2022-03-20T10:11:14.000Z</time></trkpt><trkpt lon="5.801339" lat="51.152737"><ele>-4</ele><time>2022-03-20T10:11:15.000Z</time></trkpt><trkpt lon="5.801266" lat="51.152737"><ele>-3.8</ele><time>2022-03-20T10:11:16.000Z</time></trkpt><trkpt lon="5.801191" lat="51.152737"><ele>-3.8</ele><time>2022-03-20T10:11:17.000Z</time></trkpt><trkpt lon="5.801118" lat="51.152734"><ele>-3.8</ele><time>2022-03-20T10:11:18.000Z</time></trkpt><trkpt lon="5.801038" lat="51.152733"><ele>-3.8</ele><time>2022-03-20T10:11:19.000Z</time></trkpt><trkpt lon="5.80096" lat="51.152733"><ele>-3.6</ele><time>2022-03-20T10:11:20.000Z</time></trkpt><trkpt lon="5.800886" lat="51.15273"><ele>-3.6</ele><time>2022-03-20T10:11:21.000Z</time></trkpt><trkpt lon="5.800813" lat="51.152729"><ele>-3.6</ele><time>2022-03-20T10:11:22.000Z</time></trkpt><trkpt lon="5.800744" lat="51.152729"><ele>-3.6</ele><time>2022-03-20T10:11:23.000Z</time></trkpt><trkpt lon="5.800672" lat="51.152726"><ele>-3.4</ele><time>2022-03-20T10:11:24.000Z</time></trkpt><trkpt lon="5.800599" lat="51.152725"><ele>-3.4</ele><time>2022-03-20T10:11:25.000Z</time></trkpt><trkpt lon="5.800524" lat="51.152725"><ele>-3.4</ele><time>2022-03-20T10:11:26.000Z</time></trkpt><trkpt lon="5.800445" lat="51.152722"><ele>-3.4</ele><time>2022-03-20T10:11:27.000Z</time></trkpt><trkpt lon="5.800361" lat="51.152721"><ele>-3.4</ele><time>2022-03-20T10:11:28.000Z</time></trkpt><trkpt lon="5.800279" lat="51.152719"><ele>-3.2</ele><time>2022-03-20T10:11:29.000Z</time></trkpt><trkpt lon="5.800195" lat="51.152718"><ele>-3.2</ele><time>2022-03-20T10:11:30.000Z</time></trkpt><trkpt lon="5.800113" lat="51.152715"><ele>-3.2</ele><time>2022-03-20T10:11:31.000Z</time></trkpt><trkpt lon="5.800031" lat="51.152714"><ele>-3.2</ele><time>2022-03-20T10:11:32.000Z</time></trkpt><trkpt lon="5.799953" lat="51.152714"><ele>-3.2</ele><time>2022-03-20T10:11:33.000Z</time></trkpt><trkpt lon="5.799872" lat="51.152711"><ele>-3.2</ele><time>2022-03-20T10:11:34.000Z</time></trkpt><trkpt lon="5.799792" lat="51.15271"><ele>-3.2</ele><time>2022-03-20T10:11:35.000Z</time></trkpt><trkpt lon="5.799718" lat="51.15271"><ele>-3</ele><time>2022-03-20T10:11:36.000Z</time></trkpt><trkpt lon="5.799634" lat="51.15271"><ele>-3</ele><time>2022-03-20T10:11:37.000Z</time></trkpt><trkpt lon="5.799551" lat="51.15271"><ele>-3.2</ele><time>2022-03-20T10:11:38.000Z</time></trkpt><trkpt lon="5.799468" lat="51.15271"><ele>-3.2</ele><time>2022-03-20T10:11:39.000Z</time></trkpt><trkpt lon="5.799382" lat="51.15271"><ele>-3.2</ele><time>2022-03-20T10:11:40.000Z</time></trkpt><trkpt lon="5.799297" lat="51.152707"><ele>-3.2</ele><time>2022-03-20T10:11:41.000Z</time></trkpt><trkpt lon="5.799212" lat="51.152703"><ele>-3.2</ele><time>2022-03-20T10:11:42.000Z</time></trkpt><trkpt lon="5.799128" lat="51.152699"><ele>-3.4</ele><time>2022-03-20T10:11:43.000Z</time></trkpt><trkpt lon="5.799042" lat="51.152699"><ele>-3.6</ele><time>2022-03-20T10:11:44.000Z</time></trkpt><trkpt lon="5.798959" lat="51.152696"><ele>-3.6</ele><time>2022-03-20T10:11:45.000Z</time></trkpt><trkpt lon="5.798874" lat="51.152692"><ele>-3.6</ele><time>2022-03-20T10:11:46.000Z</time></trkpt><trkpt lon="5.798788" lat="51.152685"><ele>-3.6</ele><time>2022-03-20T10:11:47.000Z</time></trkpt><trkpt lon="5.798705" lat="51.152683"><ele>-3.6</ele><time>2022-03-20T10:11:48.000Z</time></trkpt><trkpt lon="5.798623" lat="51.152678"><ele>-3.6</ele><time>2022-03-20T10:11:49.000Z</time></trkpt><trkpt lon="5.798539" lat="51.152673"><ele>-3.6</ele><time>2022-03-20T10:11:50.000Z</time></trkpt><trkpt lon="5.798453" lat="51.152669"><ele>-3.6</ele><time>2022-03-20T10:11:51.000Z</time></trkpt><trkpt lon="5.798364" lat="51.152662"><ele>-3.6</ele><time>2022-03-20T10:11:52.000Z</time></trkpt><trkpt lon="5.798278" lat="51.152655"><ele>-3.6</ele><time>2022-03-20T10:11:53.000Z</time></trkpt><trkpt lon="5.798191" lat="51.15265"><ele>-3.6</ele><time>2022-03-20T10:11:54.000Z</time></trkpt><trkpt lon="5.798105" lat="51.152643"><ele>-3.6</ele><time>2022-03-20T10:11:55.000Z</time></trkpt><trkpt lon="5.798022" lat="51.152636"><ele>-3.6</ele><time>2022-03-20T10:11:56.000Z</time></trkpt><trkpt lon="5.797938" lat="51.152631"><ele>-3.6</ele><time>2022-03-20T10:11:57.000Z</time></trkpt><trkpt lon="5.797858" lat="51.152624"><ele>-3.6</ele><time>2022-03-20T10:11:58.000Z</time></trkpt><trkpt lon="5.797783" lat="51.152619"><ele>-3.6</ele><time>2022-03-20T10:11:59.000Z</time></trkpt><trkpt lon="5.797709" lat="51.152615"><ele>-3.6</ele><time>2022-03-20T10:12:00.000Z</time></trkpt><trkpt lon="5.797635" lat="51.152612"><ele>-3.4</ele><time>2022-03-20T10:12:01.000Z</time></trkpt><trkpt lon="5.797558" lat="51.152608"><ele>-3.4</ele><time>2022-03-20T10:12:02.000Z</time></trkpt><trkpt lon="5.797482" lat="51.152604"><ele>-3.4</ele><time>2022-03-20T10:12:03.000Z</time></trkpt><trkpt lon="5.797402" lat="51.1526"><ele>-3.4</ele><time>2022-03-20T10:12:04.000Z</time></trkpt><trkpt lon="5.797323" lat="51.152596"><ele>-3.4</ele><time>2022-03-20T10:12:05.000Z</time></trkpt><trkpt lon="5.797247" lat="51.152593"><ele>-3.4</ele><time>2022-03-20T10:12:06.000Z</time></trkpt><trkpt lon="5.797162" lat="51.152589"><ele>-3.4</ele><time>2022-03-20T10:12:07.000Z</time></trkpt><trkpt lon="5.797076" lat="51.152585"><ele>-3.4</ele><time>2022-03-20T10:12:08.000Z</time></trkpt><trkpt lon="5.796993" lat="51.152578"><ele>-3.4</ele><time>2022-03-20T10:12:09.000Z</time></trkpt><trkpt lon="5.796909" lat="51.152573"><ele>-3.4</ele><time>2022-03-20T10:12:10.000Z</time></trkpt><trkpt lon="5.796828" lat="51.152567"><ele>-3.4</ele><time>2022-03-20T10:12:11.000Z</time></trkpt><trkpt lon="5.796745" lat="51.152562"><ele>-3.4</ele><time>2022-03-20T10:12:12.000Z</time></trkpt><trkpt lon="5.796665" lat="51.152558"><ele>-3.2</ele><time>2022-03-20T10:12:13.000Z</time></trkpt><trkpt lon="5.796581" lat="51.152555"><ele>-3.2</ele><time>2022-03-20T10:12:14.000Z</time></trkpt><trkpt lon="5.796495" lat="51.152548"><ele>-3.2</ele><time>2022-03-20T10:12:15.000Z</time></trkpt><trkpt lon="5.796411" lat="51.152543"><ele>-3.2</ele><time>2022-03-20T10:12:16.000Z</time></trkpt><trkpt lon="5.796324" lat="51.152539"><ele>-3.2</ele><time>2022-03-20T10:12:17.000Z</time></trkpt><trkpt lon="5.796238" lat="51.152533"><ele>-3.2</ele><time>2022-03-20T10:12:18.000Z</time></trkpt><trkpt lon="5.796151" lat="51.152528"><ele>-3.2</ele><time>2022-03-20T10:12:19.000Z</time></trkpt><trkpt lon="5.796064" lat="51.152521"><ele>-3.2</ele><time>2022-03-20T10:12:20.000Z</time></trkpt><trkpt lon="5.795981" lat="51.152516"><ele>-3.2</ele><time>2022-03-20T10:12:21.000Z</time></trkpt><trkpt lon="5.795898" lat="51.15251"><ele>-3.2</ele><time>2022-03-20T10:12:22.000Z</time></trkpt><trkpt lon="5.795814" lat="51.152505"><ele>-3</ele><time>2022-03-20T10:12:23.000Z</time></trkpt><trkpt lon="5.795727" lat="51.152501"><ele>-3</ele><time>2022-03-20T10:12:24.000Z</time></trkpt><trkpt lon="5.795641" lat="51.152494"><ele>-3</ele><time>2022-03-20T10:12:25.000Z</time></trkpt><trkpt lon="5.795554" lat="51.152487"><ele>-3</ele><time>2022-03-20T10:12:26.000Z</time></trkpt><trkpt lon="5.795469" lat="51.152482"><ele>-3</ele><time>2022-03-20T10:12:27.000Z</time></trkpt><trkpt lon="5.795385" lat="51.152475"><ele>-3</ele><time>2022-03-20T10:12:28.000Z</time></trkpt><trkpt lon="5.795303" lat="51.152471"><ele>-3</ele><time>2022-03-20T10:12:29.000Z</time></trkpt><trkpt lon="5.795217" lat="51.152464"><ele>-3</ele><time>2022-03-20T10:12:30.000Z</time></trkpt><trkpt lon="5.795132" lat="51.152459"><ele>-3</ele><time>2022-03-20T10:12:31.000Z</time></trkpt><trkpt lon="5.795046" lat="51.152452"><ele>-3.2</ele><time>2022-03-20T10:12:32.000Z</time></trkpt><trkpt lon="5.794956" lat="51.152451"><ele>-3.2</ele><time>2022-03-20T10:12:33.000Z</time></trkpt><trkpt lon="5.794865" lat="51.152451"><ele>-3.2</ele><time>2022-03-20T10:12:34.000Z</time></trkpt><trkpt lon="5.794773" lat="51.152456"><ele>-3.2</ele><time>2022-03-20T10:12:35.000Z</time></trkpt><trkpt lon="5.794683" lat="51.152464"><ele>-3.2</ele><time>2022-03-20T10:12:36.000Z</time></trkpt><trkpt lon="5.794585" lat="51.152474"><ele>-3.2</ele><time>2022-03-20T10:12:37.000Z</time></trkpt><trkpt lon="5.794488" lat="51.152492"><ele>-3.4</ele><time>2022-03-20T10:12:38.000Z</time></trkpt><trkpt lon="5.79439" lat="51.152511"><ele>-3.4</ele><time>2022-03-20T10:12:39.000Z</time></trkpt><trkpt lon="5.794291" lat="51.15253"><ele>-3.4</ele><time>2022-03-20T10:12:40.000Z</time></trkpt><trkpt lon="5.794192" lat="51.152549"><ele>-3.4</ele><time>2022-03-20T10:12:41.000Z</time></trkpt><trkpt lon="5.794092" lat="51.152568"><ele>-3.4</ele><time>2022-03-20T10:12:42.000Z</time></trkpt><trkpt lon="5.793992" lat="51.152587"><ele>-3.2</ele><time>2022-03-20T10:12:43.000Z</time></trkpt><trkpt lon="5.793894" lat="51.152603"><ele>-3.2</ele><time>2022-03-20T10:12:44.000Z</time></trkpt><trkpt lon="5.793794" lat="51.152624"><ele>-3.2</ele><time>2022-03-20T10:12:45.000Z</time></trkpt><trkpt lon="5.793694" lat="51.152641"><ele>-3.2</ele><time>2022-03-20T10:12:46.000Z</time></trkpt><trkpt lon="5.793597" lat="51.152662"><ele>-3.2</ele><time>2022-03-20T10:12:47.000Z</time></trkpt><trkpt lon="5.793498" lat="51.152685"><ele>-3.2</ele><time>2022-03-20T10:12:48.000Z</time></trkpt><trkpt lon="5.793399" lat="51.152708"><ele>-3.2</ele><time>2022-03-20T10:12:49.000Z</time></trkpt><trkpt lon="5.793302" lat="51.152731"><ele>-3</ele><time>2022-03-20T10:12:50.000Z</time></trkpt><trkpt lon="5.793204" lat="51.152757"><ele>-3</ele><time>2022-03-20T10:12:51.000Z</time></trkpt><trkpt lon="5.793104" lat="51.152784"><ele>-3</ele><time>2022-03-20T10:12:52.000Z</time></trkpt><trkpt lon="5.793005" lat="51.15281"><ele>-3</ele><time>2022-03-20T10:12:53.000Z</time></trkpt><trkpt lon="5.792904" lat="51.15284"><ele>-3</ele><time>2022-03-20T10:12:54.000Z</time></trkpt><trkpt lon="5.792803" lat="51.152868"><ele>-3</ele><time>2022-03-20T10:12:55.000Z</time></trkpt><trkpt lon="5.792701" lat="51.152897"><ele>-3</ele><time>2022-03-20T10:12:56.000Z</time></trkpt><trkpt lon="5.792598" lat="51.152928"><ele>-3</ele><time>2022-03-20T10:12:57.000Z</time></trkpt><trkpt lon="5.792497" lat="51.152955"><ele>-3</ele><time>2022-03-20T10:12:58.000Z</time></trkpt><trkpt lon="5.792397" lat="51.152985"><ele>-3</ele><time>2022-03-20T10:12:59.000Z</time></trkpt><trkpt lon="5.792297" lat="51.153013"><ele>-3</ele><time>2022-03-20T10:13:00.000Z</time></trkpt><trkpt lon="5.792197" lat="51.153039"><ele>-3</ele><time>2022-03-20T10:13:01.000Z</time></trkpt><trkpt lon="5.792096" lat="51.153066"><ele>-3</ele><time>2022-03-20T10:13:02.000Z</time></trkpt><trkpt lon="5.791995" lat="51.153096"><ele>-3</ele><time>2022-03-20T10:13:03.000Z</time></trkpt><trkpt lon="5.791896" lat="51.153123"><ele>-3</ele><time>2022-03-20T10:13:04.000Z</time></trkpt><trkpt lon="5.791794" lat="51.15315"><ele>-3</ele><time>2022-03-20T10:13:05.000Z</time></trkpt><trkpt lon="5.791701" lat="51.153175"><ele>-3</ele><time>2022-03-20T10:13:06.000Z</time></trkpt><trkpt lon="5.791595" lat="51.153203"><ele>-3</ele><time>2022-03-20T10:13:07.000Z</time></trkpt><trkpt lon="5.791491" lat="51.15323"><ele>-2.8</ele><time>2022-03-20T10:13:08.000Z</time></trkpt><trkpt lon="5.791391" lat="51.153251"><ele>-2.8</ele><time>2022-03-20T10:13:09.000Z</time></trkpt><trkpt lon="5.79129" lat="51.153273"><ele>-2.8</ele><time>2022-03-20T10:13:10.000Z</time></trkpt><trkpt lon="5.791191" lat="51.153287"><ele>-2.6</ele><time>2022-03-20T10:13:11.000Z</time></trkpt><trkpt lon="5.791094" lat="51.153298"><ele>-2.6</ele><time>2022-03-20T10:13:12.000Z</time></trkpt><trkpt lon="5.790993" lat="51.153313"><ele>-2.6</ele><time>2022-03-20T10:13:13.000Z</time></trkpt><trkpt lon="5.790895" lat="51.153325"><ele>-2.6</ele><time>2022-03-20T10:13:14.000Z</time></trkpt><trkpt lon="5.790795" lat="51.153337"><ele>-2.6</ele><time>2022-03-20T10:13:15.000Z</time></trkpt><trkpt lon="5.790693" lat="51.153345"><ele>-2.6</ele><time>2022-03-20T10:13:16.000Z</time></trkpt><trkpt lon="5.790593" lat="51.153356"><ele>-2.8</ele><time>2022-03-20T10:13:17.000Z</time></trkpt><trkpt lon="5.790489" lat="51.153364"><ele>-2.8</ele><time>2022-03-20T10:13:18.000Z</time></trkpt><trkpt lon="5.790386" lat="51.153375"><ele>-3</ele><time>2022-03-20T10:13:19.000Z</time></trkpt><trkpt lon="5.79028" lat="51.153389"><ele>-3</ele><time>2022-03-20T10:13:20.000Z</time></trkpt><trkpt lon="5.790178" lat="51.15341"><ele>-3.2</ele><time>2022-03-20T10:13:21.000Z</time></trkpt><trkpt lon="5.790083" lat="51.153439"><ele>-3.4</ele><time>2022-03-20T10:13:22.000Z</time></trkpt><trkpt lon="5.789998" lat="51.153475"><ele>-3.6</ele><time>2022-03-20T10:13:23.000Z</time></trkpt><trkpt lon="5.789918" lat="51.153516"><ele>-3.6</ele><time>2022-03-20T10:13:24.000Z</time></trkpt><trkpt lon="5.789844" lat="51.153558"><ele>-3.8</ele><time>2022-03-20T10:13:25.000Z</time></trkpt><trkpt lon="5.789773" lat="51.153597"><ele>-4</ele><time>2022-03-20T10:13:26.000Z</time></trkpt><trkpt lon="5.78971" lat="51.15363"><ele>-4</ele><time>2022-03-20T10:13:27.000Z</time></trkpt><trkpt lon="5.789652" lat="51.15366"><ele>-3.8</ele><time>2022-03-20T10:13:28.000Z</time></trkpt><trkpt lon="5.78959" lat="51.153685"><ele>-3.8</ele><time>2022-03-20T10:13:29.000Z</time></trkpt><trkpt lon="5.789525" lat="51.153699"><ele>-3.6</ele><time>2022-03-20T10:13:30.000Z</time></trkpt><trkpt lon="5.789461" lat="51.15369"><ele>-3.4</ele><time>2022-03-20T10:13:31.000Z</time></trkpt><trkpt lon="5.789396" lat="51.153663"><ele>-3.4</ele><time>2022-03-20T10:13:32.000Z</time></trkpt><trkpt lon="5.789329" lat="51.153627"><ele>-3.4</ele><time>2022-03-20T10:13:33.000Z</time></trkpt><trkpt lon="5.789262" lat="51.15358"><ele>-3.4</ele><time>2022-03-20T10:13:34.000Z</time></trkpt><trkpt lon="5.78919" lat="51.15353"><ele>-3.4</ele><time>2022-03-20T10:13:35.000Z</time></trkpt><trkpt lon="5.789128" lat="51.153488"><ele>-3.6</ele><time>2022-03-20T10:13:36.000Z</time></trkpt><trkpt lon="5.789048" lat="51.153434"><ele>-3.6</ele><time>2022-03-20T10:13:37.000Z</time></trkpt><trkpt lon="5.788967" lat="51.153382"><ele>-3.6</ele><time>2022-03-20T10:13:38.000Z</time></trkpt><trkpt lon="5.788893" lat="51.153331"><ele>-3.6</ele><time>2022-03-20T10:13:39.000Z</time></trkpt><trkpt lon="5.788815" lat="51.153279"><ele>-3.6</ele><time>2022-03-20T10:13:40.000Z</time></trkpt><trkpt lon="5.788738" lat="51.153226"><ele>-3.6</ele><time>2022-03-20T10:13:41.000Z</time></trkpt><trkpt lon="5.788661" lat="51.153171"><ele>-3.6</ele><time>2022-03-20T10:13:42.000Z</time></trkpt><trkpt lon="5.78858" lat="51.153116"><ele>-3.6</ele><time>2022-03-20T10:13:43.000Z</time></trkpt><trkpt lon="5.788499" lat="51.153059"><ele>-3.4</ele><time>2022-03-20T10:13:44.000Z</time></trkpt><trkpt lon="5.788418" lat="51.153005"><ele>-3.4</ele><time>2022-03-20T10:13:45.000Z</time></trkpt><trkpt lon="5.788335" lat="51.152954"><ele>-3.4</ele><time>2022-03-20T10:13:46.000Z</time></trkpt><trkpt lon="5.788247" lat="51.152905"><ele>-3.4</ele><time>2022-03-20T10:13:47.000Z</time></trkpt><trkpt lon="5.788158" lat="51.152855"><ele>-3.2</ele><time>2022-03-20T10:13:48.000Z</time></trkpt><trkpt lon="5.788066" lat="51.152812"><ele>-3.2</ele><time>2022-03-20T10:13:49.000Z</time></trkpt><trkpt lon="5.787972" lat="51.152766"><ele>-3.2</ele><time>2022-03-20T10:13:50.000Z</time></trkpt><trkpt lon="5.787877" lat="51.152723"><ele>-3.2</ele><time>2022-03-20T10:13:51.000Z</time></trkpt><trkpt lon="5.787783" lat="51.152682"><ele>-3.2</ele><time>2022-03-20T10:13:52.000Z</time></trkpt><trkpt lon="5.787689" lat="51.15264"><ele>-3.2</ele><time>2022-03-20T10:13:53.000Z</time></trkpt><trkpt lon="5.787594" lat="51.152598"><ele>-3.2</ele><time>2022-03-20T10:13:54.000Z</time></trkpt><trkpt lon="5.787502" lat="51.152556"><ele>-3.2</ele><time>2022-03-20T10:13:55.000Z</time></trkpt><trkpt lon="5.787409" lat="51.152511"><ele>-3.2</ele><time>2022-03-20T10:13:56.000Z</time></trkpt><trkpt lon="5.787316" lat="51.152468"><ele>-3.2</ele><time>2022-03-20T10:13:57.000Z</time></trkpt><trkpt lon="5.787225" lat="51.152426"><ele>-3.2</ele><time>2022-03-20T10:13:58.000Z</time></trkpt><trkpt lon="5.787137" lat="51.152381"><ele>-3.2</ele><time>2022-03-20T10:13:59.000Z</time></trkpt><trkpt lon="5.787054" lat="51.152332"><ele>-3.2</ele><time>2022-03-20T10:14:00.000Z</time></trkpt><trkpt lon="5.786978" lat="51.15228"><ele>-3</ele><time>2022-03-20T10:14:01.000Z</time></trkpt><trkpt lon="5.786909" lat="51.152224"><ele>-2.8</ele><time>2022-03-20T10:14:02.000Z</time></trkpt><trkpt lon="5.786846" lat="51.152169"><ele>-2.6</ele><time>2022-03-20T10:14:03.000Z</time></trkpt><trkpt lon="5.786788" lat="51.15211"><ele>-2.4</ele><time>2022-03-20T10:14:04.000Z</time></trkpt><trkpt lon="5.78673" lat="51.152049"><ele>-2.4</ele><time>2022-03-20T10:14:05.000Z</time></trkpt><trkpt lon="5.786673" lat="51.151992"><ele>-2.2</ele><time>2022-03-20T10:14:06.000Z</time></trkpt><trkpt lon="5.786613" lat="51.151932"><ele>-2.2</ele><time>2022-03-20T10:14:07.000Z</time></trkpt><trkpt lon="5.786553" lat="51.15187"><ele>-2</ele><time>2022-03-20T10:14:08.000Z</time></trkpt><trkpt lon="5.786496" lat="51.151808"><ele>-2</ele><time>2022-03-20T10:14:09.000Z</time></trkpt><trkpt lon="5.78644" lat="51.151747"><ele>-2</ele><time>2022-03-20T10:14:10.000Z</time></trkpt><trkpt lon="5.786384" lat="51.151689"><ele>-1.8</ele><time>2022-03-20T10:14:11.000Z</time></trkpt><trkpt lon="5.78633" lat="51.151629"><ele>-1.8</ele><time>2022-03-20T10:14:12.000Z</time></trkpt><trkpt lon="5.786276" lat="51.151566"><ele>-1.8</ele><time>2022-03-20T10:14:13.000Z</time></trkpt><trkpt lon="5.786221" lat="51.151506"><ele>-1.8</ele><time>2022-03-20T10:14:14.000Z</time></trkpt><trkpt lon="5.786166" lat="51.151446"><ele>-1.8</ele><time>2022-03-20T10:14:15.000Z</time></trkpt><trkpt lon="5.786111" lat="51.151385"><ele>-1.8</ele><time>2022-03-20T10:14:16.000Z</time></trkpt><trkpt lon="5.786054" lat="51.151325"><ele>-1.8</ele><time>2022-03-20T10:14:17.000Z</time></trkpt><trkpt lon="5.785993" lat="51.151271"><ele>-1.6</ele><time>2022-03-20T10:14:18.000Z</time></trkpt><trkpt lon="5.785926" lat="51.151213"><ele>-1.8</ele><time>2022-03-20T10:14:19.000Z</time></trkpt><trkpt lon="5.785858" lat="51.151158"><ele>-1.8</ele><time>2022-03-20T10:14:20.000Z</time></trkpt><trkpt lon="5.785789" lat="51.151102"><ele>-1.8</ele><time>2022-03-20T10:14:21.000Z</time></trkpt><trkpt lon="5.785722" lat="51.151048"><ele>-1.8</ele><time>2022-03-20T10:14:22.000Z</time></trkpt><trkpt lon="5.785655" lat="51.150994"><ele>-1.8</ele><time>2022-03-20T10:14:23.000Z</time></trkpt><trkpt lon="5.785589" lat="51.150938"><ele>-1.8</ele><time>2022-03-20T10:14:24.000Z</time></trkpt><trkpt lon="5.785522" lat="51.150884"><ele>-2</ele><time>2022-03-20T10:14:25.000Z</time></trkpt><trkpt lon="5.785452" lat="51.150831"><ele>-1.8</ele><time>2022-03-20T10:14:26.000Z</time></trkpt><trkpt lon="5.785382" lat="51.15078"><ele>-1.8</ele><time>2022-03-20T10:14:27.000Z</time></trkpt><trkpt lon="5.785312" lat="51.150728"><ele>-1.8</ele><time>2022-03-20T10:14:28.000Z</time></trkpt><trkpt lon="5.785242" lat="51.150674"><ele>-1.8</ele><time>2022-03-20T10:14:29.000Z</time></trkpt><trkpt lon="5.785173" lat="51.150621"><ele>-1.8</ele><time>2022-03-20T10:14:30.000Z</time></trkpt><trkpt lon="5.785102" lat="51.150567"><ele>-1.8</ele><time>2022-03-20T10:14:31.000Z</time></trkpt><trkpt lon="5.78503" lat="51.150514"><ele>-1.8</ele><time>2022-03-20T10:14:32.000Z</time></trkpt><trkpt lon="5.784957" lat="51.15046"><ele>-1.8</ele><time>2022-03-20T10:14:33.000Z</time></trkpt><trkpt lon="5.784887" lat="51.150408"><ele>-1.6</ele><time>2022-03-20T10:14:34.000Z</time></trkpt><trkpt lon="5.784817" lat="51.150355"><ele>-1.6</ele><time>2022-03-20T10:14:35.000Z</time></trkpt><trkpt lon="5.78475" lat="51.150306"><ele>-1.8</ele><time>2022-03-20T10:14:36.000Z</time></trkpt><trkpt lon="5.784671" lat="51.150246"><ele>-1.8</ele><time>2022-03-20T10:14:37.000Z</time></trkpt><trkpt lon="5.784596" lat="51.15019"><ele>-1.6</ele><time>2022-03-20T10:14:38.000Z</time></trkpt><trkpt lon="5.784525" lat="51.150136"><ele>-1.6</ele><time>2022-03-20T10:14:39.000Z</time></trkpt><trkpt lon="5.784456" lat="51.150083"><ele>-1.6</ele><time>2022-03-20T10:14:40.000Z</time></trkpt><trkpt lon="5.784391" lat="51.150033"><ele>-1.8</ele><time>2022-03-20T10:14:41.000Z</time></trkpt><trkpt lon="5.784326" lat="51.149986"><ele>-1.8</ele><time>2022-03-20T10:14:42.000Z</time></trkpt><trkpt lon="5.784259" lat="51.149937"><ele>-1.8</ele><time>2022-03-20T10:14:43.000Z</time></trkpt><trkpt lon="5.784194" lat="51.149888"><ele>-1.8</ele><time>2022-03-20T10:14:44.000Z</time></trkpt><trkpt lon="5.784126" lat="51.149841"><ele>-1.8</ele><time>2022-03-20T10:14:45.000Z</time></trkpt><trkpt lon="5.784059" lat="51.149792"><ele>-2</ele><time>2022-03-20T10:14:46.000Z</time></trkpt><trkpt lon="5.783991" lat="51.149742"><ele>-2</ele><time>2022-03-20T10:14:47.000Z</time></trkpt><trkpt lon="5.783923" lat="51.149691"><ele>-2</ele><time>2022-03-20T10:14:48.000Z</time></trkpt><trkpt lon="5.783854" lat="51.149641"><ele>-2</ele><time>2022-03-20T10:14:49.000Z</time></trkpt><trkpt lon="5.783781" lat="51.149588"><ele>-2</ele><time>2022-03-20T10:14:50.000Z</time></trkpt><trkpt lon="5.783708" lat="51.149537"><ele>-2</ele><time>2022-03-20T10:14:51.000Z</time></trkpt><trkpt lon="5.783632" lat="51.149484"><ele>-2</ele><time>2022-03-20T10:14:52.000Z</time></trkpt><trkpt lon="5.783555" lat="51.149434"><ele>-2</ele><time>2022-03-20T10:14:53.000Z</time></trkpt><trkpt lon="5.783479" lat="51.149382"><ele>-2</ele><time>2022-03-20T10:14:54.000Z</time></trkpt><trkpt lon="5.7834" lat="51.149331"><ele>-2</ele><time>2022-03-20T10:14:55.000Z</time></trkpt><trkpt lon="5.783318" lat="51.149281"><ele>-2</ele><time>2022-03-20T10:14:56.000Z</time></trkpt><trkpt lon="5.783237" lat="51.149234"><ele>-2</ele><time>2022-03-20T10:14:57.000Z</time></trkpt><trkpt lon="5.783156" lat="51.149191"><ele>-2</ele><time>2022-03-20T10:14:58.000Z</time></trkpt><trkpt lon="5.783077" lat="51.149146"><ele>-1.8</ele><time>2022-03-20T10:14:59.000Z</time></trkpt><trkpt lon="5.783" lat="51.149101"><ele>-1.8</ele><time>2022-03-20T10:15:00.000Z</time></trkpt><trkpt lon="5.782924" lat="51.149058"><ele>-1.8</ele><time>2022-03-20T10:15:01.000Z</time></trkpt><trkpt lon="5.782848" lat="51.149016"><ele>-1.8</ele><time>2022-03-20T10:15:02.000Z</time></trkpt><trkpt lon="5.782775" lat="51.148975"><ele>-2</ele><time>2022-03-20T10:15:03.000Z</time></trkpt><trkpt lon="5.782699" lat="51.148932"><ele>-2</ele><time>2022-03-20T10:15:04.000Z</time></trkpt><trkpt lon="5.782627" lat="51.14889"><ele>-1.8</ele><time>2022-03-20T10:15:05.000Z</time></trkpt><trkpt lon="5.782563" lat="51.148855"><ele>-1.8</ele><time>2022-03-20T10:15:06.000Z</time></trkpt><trkpt lon="5.782487" lat="51.148809"><ele>-1.8</ele><time>2022-03-20T10:15:07.000Z</time></trkpt><trkpt lon="5.782415" lat="51.148764"><ele>-1.8</ele><time>2022-03-20T10:15:08.000Z</time></trkpt><trkpt lon="5.782345" lat="51.148722"><ele>-1.8</ele><time>2022-03-20T10:15:09.000Z</time></trkpt><trkpt lon="5.782274" lat="51.148683"><ele>-1.8</ele><time>2022-03-20T10:15:10.000Z</time></trkpt><trkpt lon="5.782204" lat="51.148642"><ele>-1.8</ele><time>2022-03-20T10:15:11.000Z</time></trkpt><trkpt lon="5.782136" lat="51.148601"><ele>-1.8</ele><time>2022-03-20T10:15:12.000Z</time></trkpt><trkpt lon="5.782066" lat="51.148562"><ele>-1.8</ele><time>2022-03-20T10:15:13.000Z</time></trkpt><trkpt lon="5.781995" lat="51.148523"><ele>-1.8</ele><time>2022-03-20T10:15:14.000Z</time></trkpt><trkpt lon="5.781925" lat="51.148482"><ele>-1.8</ele><time>2022-03-20T10:15:15.000Z</time></trkpt><trkpt lon="5.781858" lat="51.14844"><ele>-1.8</ele><time>2022-03-20T10:15:16.000Z</time></trkpt><trkpt lon="5.78179" lat="51.148401"><ele>-1.8</ele><time>2022-03-20T10:15:17.000Z</time></trkpt><trkpt lon="5.781722" lat="51.148363"><ele>-1.8</ele><time>2022-03-20T10:15:18.000Z</time></trkpt><trkpt lon="5.781657" lat="51.148324"><ele>-1.8</ele><time>2022-03-20T10:15:19.000Z</time></trkpt><trkpt lon="5.781583" lat="51.148283"><ele>-1.8</ele><time>2022-03-20T10:15:20.000Z</time></trkpt><trkpt lon="5.781512" lat="51.148241"><ele>-1.8</ele><time>2022-03-20T10:15:21.000Z</time></trkpt><trkpt lon="5.781443" lat="51.148199"><ele>-1.8</ele><time>2022-03-20T10:15:22.000Z</time></trkpt><trkpt lon="5.781374" lat="51.148157"><ele>-1.8</ele><time>2022-03-20T10:15:23.000Z</time></trkpt><trkpt lon="5.781307" lat="51.148116"><ele>-1.8</ele><time>2022-03-20T10:15:24.000Z</time></trkpt><trkpt lon="5.781237" lat="51.148074"><ele>-1.8</ele><time>2022-03-20T10:15:25.000Z</time></trkpt><trkpt lon="5.781168" lat="51.148035"><ele>-1.6</ele><time>2022-03-20T10:15:26.000Z</time></trkpt><trkpt lon="5.781098" lat="51.147993"><ele>-1.6</ele><time>2022-03-20T10:15:27.000Z</time></trkpt><trkpt lon="5.781028" lat="51.147951"><ele>-1.4</ele><time>2022-03-20T10:15:28.000Z</time></trkpt><trkpt lon="5.780957" lat="51.147909"><ele>-1.4</ele><time>2022-03-20T10:15:29.000Z</time></trkpt><trkpt lon="5.780891" lat="51.147869"><ele>-1.2</ele><time>2022-03-20T10:15:30.000Z</time></trkpt><trkpt lon="5.780819" lat="51.147826"><ele>-1.2</ele><time>2022-03-20T10:15:31.000Z</time></trkpt><trkpt lon="5.780747" lat="51.147784"><ele>-1.2</ele><time>2022-03-20T10:15:32.000Z</time></trkpt><trkpt lon="5.780675" lat="51.147741"><ele>-1</ele><time>2022-03-20T10:15:33.000Z</time></trkpt><trkpt lon="5.780604" lat="51.1477"><ele>-1</ele><time>2022-03-20T10:15:34.000Z</time></trkpt><trkpt lon="5.780532" lat="51.147658"><ele>-1</ele><time>2022-03-20T10:15:35.000Z</time></trkpt><trkpt lon="5.780471" lat="51.147623"><ele>-1</ele><time>2022-03-20T10:15:36.000Z</time></trkpt><trkpt lon="5.780392" lat="51.147578"><ele>-1</ele><time>2022-03-20T10:15:37.000Z</time></trkpt><trkpt lon="5.780312" lat="51.147532"><ele>-1</ele><time>2022-03-20T10:15:38.000Z</time></trkpt><trkpt lon="5.780233" lat="51.14749"><ele>-1</ele><time>2022-03-20T10:15:39.000Z</time></trkpt><trkpt lon="5.780156" lat="51.147448"><ele>-1</ele><time>2022-03-20T10:15:40.000Z</time></trkpt><trkpt lon="5.78008" lat="51.147406"><ele>-1.2</ele><time>2022-03-20T10:15:41.000Z</time></trkpt><trkpt lon="5.780003" lat="51.147367"><ele>-1.2</ele><time>2022-03-20T10:15:42.000Z</time></trkpt><trkpt lon="5.779925" lat="51.147326"><ele>-1.2</ele><time>2022-03-20T10:15:43.000Z</time></trkpt><trkpt lon="5.779846" lat="51.147284"><ele>-1.2</ele><time>2022-03-20T10:15:44.000Z</time></trkpt><trkpt lon="5.779766" lat="51.147245"><ele>-1.2</ele><time>2022-03-20T10:15:45.000Z</time></trkpt><trkpt lon="5.779686" lat="51.147204"><ele>-1.2</ele><time>2022-03-20T10:15:46.000Z</time></trkpt><trkpt lon="5.779609" lat="51.147162"><ele>-1.2</ele><time>2022-03-20T10:15:47.000Z</time></trkpt><trkpt lon="5.77953" lat="51.147123"><ele>-1.2</ele><time>2022-03-20T10:15:48.000Z</time></trkpt><trkpt lon="5.779455" lat="51.147082"><ele>-1.2</ele><time>2022-03-20T10:15:49.000Z</time></trkpt><trkpt lon="5.779378" lat="51.147043"><ele>-1.2</ele><time>2022-03-20T10:15:50.000Z</time></trkpt><trkpt lon="5.779301" lat="51.147004"><ele>-1.2</ele><time>2022-03-20T10:15:51.000Z</time></trkpt><trkpt lon="5.779225" lat="51.146966"><ele>-1.2</ele><time>2022-03-20T10:15:52.000Z</time></trkpt><trkpt lon="5.779148" lat="51.146931"><ele>-1.4</ele><time>2022-03-20T10:15:53.000Z</time></trkpt><trkpt lon="5.779066" lat="51.146897"><ele>-1.4</ele><time>2022-03-20T10:15:54.000Z</time></trkpt><trkpt lon="5.778979" lat="51.146866"><ele>-1.4</ele><time>2022-03-20T10:15:55.000Z</time></trkpt><trkpt lon="5.778885" lat="51.146844"><ele>-1.6</ele><time>2022-03-20T10:15:56.000Z</time></trkpt><trkpt lon="5.778786" lat="51.146825"><ele>-1.8</ele><time>2022-03-20T10:15:57.000Z</time></trkpt><trkpt lon="5.778684" lat="51.146806"><ele>-1.8</ele><time>2022-03-20T10:15:58.000Z</time></trkpt><trkpt lon="5.778579" lat="51.146787"><ele>-2</ele><time>2022-03-20T10:15:59.000Z</time></trkpt><trkpt lon="5.778475" lat="51.146771"><ele>-2.2</ele><time>2022-03-20T10:16:00.000Z</time></trkpt><trkpt lon="5.778368" lat="51.146752"><ele>-2.4</ele><time>2022-03-20T10:16:01.000Z</time></trkpt><trkpt lon="5.778262" lat="51.146733"><ele>-2.4</ele><time>2022-03-20T10:16:02.000Z</time></trkpt><trkpt lon="5.778154" lat="51.146717"><ele>-2.6</ele><time>2022-03-20T10:16:03.000Z</time></trkpt><trkpt lon="5.778043" lat="51.146699"><ele>-2.6</ele><time>2022-03-20T10:16:04.000Z</time></trkpt><trkpt lon="5.77793" lat="51.14668"><ele>-2.6</ele><time>2022-03-20T10:16:05.000Z</time></trkpt><trkpt lon="5.777837" lat="51.146664"><ele>-2.6</ele><time>2022-03-20T10:16:06.000Z</time></trkpt><trkpt lon="5.777711" lat="51.146644"><ele>-2.6</ele><time>2022-03-20T10:16:07.000Z</time></trkpt><trkpt lon="5.777581" lat="51.146622"><ele>-2.8</ele><time>2022-03-20T10:16:08.000Z</time></trkpt><trkpt lon="5.777462" lat="51.146603"><ele>-2.6</ele><time>2022-03-20T10:16:09.000Z</time></trkpt><trkpt lon="5.777346" lat="51.146587"><ele>-2.6</ele><time>2022-03-20T10:16:10.000Z</time></trkpt><trkpt lon="5.77723" lat="51.146566"><ele>-2.6</ele><time>2022-03-20T10:16:11.000Z</time></trkpt><trkpt lon="5.777114" lat="51.146546"><ele>-2.6</ele><time>2022-03-20T10:16:12.000Z</time></trkpt><trkpt lon="5.777001" lat="51.146527"><ele>-2.6</ele><time>2022-03-20T10:16:13.000Z</time></trkpt><trkpt lon="5.77689" lat="51.146508"><ele>-2.6</ele><time>2022-03-20T10:16:14.000Z</time></trkpt><trkpt lon="5.776783" lat="51.146489"><ele>-2.6</ele><time>2022-03-20T10:16:15.000Z</time></trkpt><trkpt lon="5.776674" lat="51.14647"><ele>-2.6</ele><time>2022-03-20T10:16:16.000Z</time></trkpt><trkpt lon="5.776564" lat="51.146451"><ele>-2.4</ele><time>2022-03-20T10:16:17.000Z</time></trkpt><trkpt lon="5.776457" lat="51.146429"><ele>-2.4</ele><time>2022-03-20T10:16:18.000Z</time></trkpt><trkpt lon="5.776352" lat="51.146412"><ele>-2.4</ele><time>2022-03-20T10:16:19.000Z</time></trkpt><trkpt lon="5.776246" lat="51.146394"><ele>-2.4</ele><time>2022-03-20T10:16:20.000Z</time></trkpt><trkpt lon="5.77614" lat="51.146378"><ele>-2.2</ele><time>2022-03-20T10:16:21.000Z</time></trkpt><trkpt lon="5.776033" lat="51.146362"><ele>-2.2</ele><time>2022-03-20T10:16:22.000Z</time></trkpt><trkpt lon="5.775924" lat="51.146341"><ele>-2.2</ele><time>2022-03-20T10:16:23.000Z</time></trkpt><trkpt lon="5.775813" lat="51.146321"><ele>-2.2</ele><time>2022-03-20T10:16:24.000Z</time></trkpt><trkpt lon="5.775704" lat="51.146302"><ele>-2.2</ele><time>2022-03-20T10:16:25.000Z</time></trkpt><trkpt lon="5.775594" lat="51.146283"><ele>-2.2</ele><time>2022-03-20T10:16:26.000Z</time></trkpt><trkpt lon="5.775485" lat="51.146267"><ele>-2.2</ele><time>2022-03-20T10:16:27.000Z</time></trkpt><trkpt lon="5.775376" lat="51.146252"><ele>-2</ele><time>2022-03-20T10:16:28.000Z</time></trkpt><trkpt lon="5.775266" lat="51.146233"><ele>-2</ele><time>2022-03-20T10:16:29.000Z</time></trkpt><trkpt lon="5.775159" lat="51.146217"><ele>-2</ele><time>2022-03-20T10:16:30.000Z</time></trkpt><trkpt lon="5.775053" lat="51.146199"><ele>-2</ele><time>2022-03-20T10:16:31.000Z</time></trkpt><trkpt lon="5.774951" lat="51.146183"><ele>-2</ele><time>2022-03-20T10:16:32.000Z</time></trkpt><trkpt lon="5.774849" lat="51.146165"><ele>-2</ele><time>2022-03-20T10:16:33.000Z</time></trkpt><trkpt lon="5.774747" lat="51.146146"><ele>-2</ele><time>2022-03-20T10:16:34.000Z</time></trkpt><trkpt lon="5.774644" lat="51.146129"><ele>-2</ele><time>2022-03-20T10:16:35.000Z</time></trkpt><trkpt lon="5.774543" lat="51.146114"><ele>-2</ele><time>2022-03-20T10:16:36.000Z</time></trkpt><trkpt lon="5.774445" lat="51.146099"><ele>-2</ele><time>2022-03-20T10:16:37.000Z</time></trkpt><trkpt lon="5.774345" lat="51.146081"><ele>-2</ele><time>2022-03-20T10:16:38.000Z</time></trkpt><trkpt lon="5.774245" lat="51.146065"><ele>-2</ele><time>2022-03-20T10:16:39.000Z</time></trkpt><trkpt lon="5.774148" lat="51.146046"><ele>-2</ele><time>2022-03-20T10:16:40.000Z</time></trkpt><trkpt lon="5.774049" lat="51.14603"><ele>-2</ele><time>2022-03-20T10:16:41.000Z</time></trkpt><trkpt lon="5.773952" lat="51.146012"><ele>-1.8</ele><time>2022-03-20T10:16:42.000Z</time></trkpt><trkpt lon="5.773856" lat="51.145991"><ele>-1.8</ele><time>2022-03-20T10:16:43.000Z</time></trkpt><trkpt lon="5.773763" lat="51.145956"><ele>-1.8</ele><time>2022-03-20T10:16:44.000Z</time></trkpt><trkpt lon="5.77368" lat="51.145914"><ele>-1.8</ele><time>2022-03-20T10:16:45.000Z</time></trkpt><trkpt lon="5.773608" lat="51.145864"><ele>-1.8</ele><time>2022-03-20T10:16:46.000Z</time></trkpt><trkpt lon="5.773546" lat="51.145805"><ele>-1.8</ele><time>2022-03-20T10:16:47.000Z</time></trkpt><trkpt lon="5.773491" lat="51.145743"><ele>-1.8</ele><time>2022-03-20T10:16:48.000Z</time></trkpt><trkpt lon="5.773439" lat="51.145679"><ele>-1.8</ele><time>2022-03-20T10:16:49.000Z</time></trkpt><trkpt lon="5.773391" lat="51.145615"><ele>-1.6</ele><time>2022-03-20T10:16:50.000Z</time></trkpt><trkpt lon="5.773345" lat="51.145553"><ele>-1.6</ele><time>2022-03-20T10:16:51.000Z</time></trkpt><trkpt lon="5.773299" lat="51.145492"><ele>-1.4</ele><time>2022-03-20T10:16:52.000Z</time></trkpt><trkpt lon="5.773253" lat="51.145429"><ele>-1.4</ele><time>2022-03-20T10:16:53.000Z</time></trkpt><trkpt lon="5.773207" lat="51.145367"><ele>-1.6</ele><time>2022-03-20T10:16:54.000Z</time></trkpt><trkpt lon="5.77316" lat="51.145303"><ele>-1.6</ele><time>2022-03-20T10:16:55.000Z</time></trkpt><trkpt lon="5.773111" lat="51.145243"><ele>-1.6</ele><time>2022-03-20T10:16:56.000Z</time></trkpt><trkpt lon="5.773067" lat="51.145183"><ele>-1.6</ele><time>2022-03-20T10:16:57.000Z</time></trkpt><trkpt lon="5.773023" lat="51.145122"><ele>-1.6</ele><time>2022-03-20T10:16:58.000Z</time></trkpt><trkpt lon="5.772979" lat="51.145061"><ele>-1.8</ele><time>2022-03-20T10:16:59.000Z</time></trkpt><trkpt lon="5.772937" lat="51.145"><ele>-1.8</ele><time>2022-03-20T10:17:00.000Z</time></trkpt><trkpt lon="5.772895" lat="51.144936"><ele>-1.8</ele><time>2022-03-20T10:17:01.000Z</time></trkpt><trkpt lon="5.772852" lat="51.144877"><ele>-1.8</ele><time>2022-03-20T10:17:02.000Z</time></trkpt><trkpt lon="5.772811" lat="51.144816"><ele>-1.8</ele><time>2022-03-20T10:17:03.000Z</time></trkpt><trkpt lon="5.77277" lat="51.144756"><ele>-2</ele><time>2022-03-20T10:17:04.000Z</time></trkpt><trkpt lon="5.772729" lat="51.144695"><ele>-2</ele><time>2022-03-20T10:17:05.000Z</time></trkpt><trkpt lon="5.772697" lat="51.144641"><ele>-2</ele><time>2022-03-20T10:17:06.000Z</time></trkpt><trkpt lon="5.77266" lat="51.144581"><ele>-2</ele><time>2022-03-20T10:17:07.000Z</time></trkpt><trkpt lon="5.772615" lat="51.144509"><ele>-2</ele><time>2022-03-20T10:17:08.000Z</time></trkpt><trkpt lon="5.77257" lat="51.144449"><ele>-2.2</ele><time>2022-03-20T10:17:09.000Z</time></trkpt><trkpt lon="5.77253" lat="51.144393"><ele>-2.2</ele><time>2022-03-20T10:17:10.000Z</time></trkpt><trkpt lon="5.77249" lat="51.144336"><ele>-2.2</ele><time>2022-03-20T10:17:11.000Z</time></trkpt><trkpt lon="5.772452" lat="51.144284"><ele>-2.4</ele><time>2022-03-20T10:17:12.000Z</time></trkpt><trkpt lon="5.772415" lat="51.144231"><ele>-2.4</ele><time>2022-03-20T10:17:13.000Z</time></trkpt><trkpt lon="5.772384" lat="51.144184"><ele>-2.4</ele><time>2022-03-20T10:17:14.000Z</time></trkpt><trkpt lon="5.772356" lat="51.144143"><ele>-2.6</ele><time>2022-03-20T10:17:15.000Z</time></trkpt><trkpt lon="5.772331" lat="51.144106"><ele>-2.6</ele><time>2022-03-20T10:17:16.000Z</time></trkpt><trkpt lon="5.772302" lat="51.14407"><ele>-2.6</ele><time>2022-03-20T10:17:17.000Z</time></trkpt><trkpt lon="5.772265" lat="51.144042"><ele>-2.6</ele><time>2022-03-20T10:17:18.000Z</time></trkpt><trkpt lon="5.772205" lat="51.144032"><ele>-2.4</ele><time>2022-03-20T10:17:19.000Z</time></trkpt><trkpt lon="5.772126" lat="51.144032"><ele>-2.4</ele><time>2022-03-20T10:17:20.000Z</time></trkpt><trkpt lon="5.772032" lat="51.144034"><ele>-2.4</ele><time>2022-03-20T10:17:21.000Z</time></trkpt><trkpt lon="5.771932" lat="51.144041"><ele>-2.4</ele><time>2022-03-20T10:17:22.000Z</time></trkpt><trkpt lon="5.771826" lat="51.144046"><ele>-2.4</ele><time>2022-03-20T10:17:23.000Z</time></trkpt><trkpt lon="5.771714" lat="51.144053"><ele>-2.4</ele><time>2022-03-20T10:17:24.000Z</time></trkpt><trkpt lon="5.771601" lat="51.144057"><ele>-2.4</ele><time>2022-03-20T10:17:25.000Z</time></trkpt><trkpt lon="5.771489" lat="51.144064"><ele>-2.2</ele><time>2022-03-20T10:17:26.000Z</time></trkpt><trkpt lon="5.771378" lat="51.144072"><ele>-2.2</ele><time>2022-03-20T10:17:27.000Z</time></trkpt><trkpt lon="5.771269" lat="51.144079"><ele>-2.2</ele><time>2022-03-20T10:17:28.000Z</time></trkpt><trkpt lon="5.771161" lat="51.144084"><ele>-2.4</ele><time>2022-03-20T10:17:29.000Z</time></trkpt><trkpt lon="5.771052" lat="51.144091"><ele>-2.4</ele><time>2022-03-20T10:17:30.000Z</time></trkpt><trkpt lon="5.770945" lat="51.144098"><ele>-2.4</ele><time>2022-03-20T10:17:31.000Z</time></trkpt><trkpt lon="5.770837" lat="51.144103"><ele>-2.4</ele><time>2022-03-20T10:17:32.000Z</time></trkpt><trkpt lon="5.770732" lat="51.14411"><ele>-2.4</ele><time>2022-03-20T10:17:33.000Z</time></trkpt><trkpt lon="5.770625" lat="51.144117"><ele>-2.4</ele><time>2022-03-20T10:17:34.000Z</time></trkpt><trkpt lon="5.770521" lat="51.144122"><ele>-2.4</ele><time>2022-03-20T10:17:35.000Z</time></trkpt><trkpt lon="5.770423" lat="51.144128"><ele>-2.4</ele><time>2022-03-20T10:17:36.000Z</time></trkpt><trkpt lon="5.770318" lat="51.144136"><ele>-2.4</ele><time>2022-03-20T10:17:37.000Z</time></trkpt><trkpt lon="5.770215" lat="51.144144"><ele>-2.4</ele><time>2022-03-20T10:17:38.000Z</time></trkpt><trkpt lon="5.770118" lat="51.144149"><ele>-2.4</ele><time>2022-03-20T10:17:39.000Z</time></trkpt><trkpt lon="5.770025" lat="51.144153"><ele>-2.4</ele><time>2022-03-20T10:17:40.000Z</time></trkpt><trkpt lon="5.769928" lat="51.144156"><ele>-2.4</ele><time>2022-03-20T10:17:41.000Z</time></trkpt><trkpt lon="5.769823" lat="51.144163"><ele>-2.4</ele><time>2022-03-20T10:17:42.000Z</time></trkpt><trkpt lon="5.769715" lat="51.144174"><ele>-2.4</ele><time>2022-03-20T10:17:43.000Z</time></trkpt><trkpt lon="5.769603" lat="51.144179"><ele>-2.4</ele><time>2022-03-20T10:17:44.000Z</time></trkpt><trkpt lon="5.769488" lat="51.144186"><ele>-2.4</ele><time>2022-03-20T10:17:45.000Z</time></trkpt><trkpt lon="5.769377" lat="51.144194"><ele>-2.4</ele><time>2022-03-20T10:17:46.000Z</time></trkpt><trkpt lon="5.76927" lat="51.144201"><ele>-2.4</ele><time>2022-03-20T10:17:47.000Z</time></trkpt><trkpt lon="5.769162" lat="51.144209"><ele>-2.4</ele><time>2022-03-20T10:17:48.000Z</time></trkpt><trkpt lon="5.769054" lat="51.144217"><ele>-2.4</ele><time>2022-03-20T10:17:49.000Z</time></trkpt><trkpt lon="5.768946" lat="51.144224"><ele>-2.4</ele><time>2022-03-20T10:17:50.000Z</time></trkpt><trkpt lon="5.768834" lat="51.144232"><ele>-2.4</ele><time>2022-03-20T10:17:51.000Z</time></trkpt><trkpt lon="5.768722" lat="51.144239"><ele>-2.4</ele><time>2022-03-20T10:17:52.000Z</time></trkpt><trkpt lon="5.768609" lat="51.144247"><ele>-2.4</ele><time>2022-03-20T10:17:53.000Z</time></trkpt><trkpt lon="5.768497" lat="51.144255"><ele>-2.4</ele><time>2022-03-20T10:17:54.000Z</time></trkpt><trkpt lon="5.768383" lat="51.144259"><ele>-2.4</ele><time>2022-03-20T10:17:55.000Z</time></trkpt><trkpt lon="5.768268" lat="51.144266"><ele>-2.4</ele><time>2022-03-20T10:17:56.000Z</time></trkpt><trkpt lon="5.768153" lat="51.144271"><ele>-2.4</ele><time>2022-03-20T10:17:57.000Z</time></trkpt><trkpt lon="5.76804" lat="51.144278"><ele>-2.4</ele><time>2022-03-20T10:17:58.000Z</time></trkpt><trkpt lon="5.767925" lat="51.144282"><ele>-2.4</ele><time>2022-03-20T10:17:59.000Z</time></trkpt><trkpt lon="5.767813" lat="51.144289"><ele>-2.4</ele><time>2022-03-20T10:18:00.000Z</time></trkpt><trkpt lon="5.7677" lat="51.144297"><ele>-2.4</ele><time>2022-03-20T10:18:01.000Z</time></trkpt><trkpt lon="5.767585" lat="51.144304"><ele>-2.4</ele><time>2022-03-20T10:18:02.000Z</time></trkpt><trkpt lon="5.767473" lat="51.144309"><ele>-2.4</ele><time>2022-03-20T10:18:03.000Z</time></trkpt><trkpt lon="5.767358" lat="51.144316"><ele>-2.4</ele><time>2022-03-20T10:18:04.000Z</time></trkpt><trkpt lon="5.767243" lat="51.144321"><ele>-2.4</ele><time>2022-03-20T10:18:05.000Z</time></trkpt><trkpt lon="5.76713" lat="51.144324"><ele>-2.4</ele><time>2022-03-20T10:18:06.000Z</time></trkpt><trkpt lon="5.767015" lat="51.144331"><ele>-2.4</ele><time>2022-03-20T10:18:07.000Z</time></trkpt><trkpt lon="5.766901" lat="51.144336"><ele>-2.4</ele><time>2022-03-20T10:18:08.000Z</time></trkpt><trkpt lon="5.766785" lat="51.144343"><ele>-2.4</ele><time>2022-03-20T10:18:09.000Z</time></trkpt><trkpt lon="5.766672" lat="51.144347"><ele>-2.4</ele><time>2022-03-20T10:18:10.000Z</time></trkpt><trkpt lon="5.76656" lat="51.144351"><ele>-2.4</ele><time>2022-03-20T10:18:11.000Z</time></trkpt><trkpt lon="5.766447" lat="51.144358"><ele>-2.4</ele><time>2022-03-20T10:18:12.000Z</time></trkpt><trkpt lon="5.766338" lat="51.144362"><ele>-2.4</ele><time>2022-03-20T10:18:13.000Z</time></trkpt><trkpt lon="5.766227" lat="51.144369"><ele>-2.4</ele><time>2022-03-20T10:18:14.000Z</time></trkpt><trkpt lon="5.766116" lat="51.144374"><ele>-2.4</ele><time>2022-03-20T10:18:15.000Z</time></trkpt><trkpt lon="5.766005" lat="51.144381"><ele>-2.4</ele><time>2022-03-20T10:18:16.000Z</time></trkpt><trkpt lon="5.765894" lat="51.144385"><ele>-2.4</ele><time>2022-03-20T10:18:17.000Z</time></trkpt><trkpt lon="5.76578" lat="51.144392"><ele>-2.4</ele><time>2022-03-20T10:18:18.000Z</time></trkpt><trkpt lon="5.765668" lat="51.1444"><ele>-2.4</ele><time>2022-03-20T10:18:19.000Z</time></trkpt><trkpt lon="5.765557" lat="51.144404"><ele>-2.4</ele><time>2022-03-20T10:18:20.000Z</time></trkpt><trkpt lon="5.765447" lat="51.144411"><ele>-2.4</ele><time>2022-03-20T10:18:21.000Z</time></trkpt><trkpt lon="5.765335" lat="51.144416"><ele>-2.4</ele><time>2022-03-20T10:18:22.000Z</time></trkpt><trkpt lon="5.765224" lat="51.144423"><ele>-2.4</ele><time>2022-03-20T10:18:23.000Z</time></trkpt><trkpt lon="5.765115" lat="51.144427"><ele>-2.4</ele><time>2022-03-20T10:18:24.000Z</time></trkpt><trkpt lon="5.765004" lat="51.144434"><ele>-2.4</ele><time>2022-03-20T10:18:25.000Z</time></trkpt><trkpt lon="5.764895" lat="51.144442"><ele>-2.4</ele><time>2022-03-20T10:18:26.000Z</time></trkpt><trkpt lon="5.764788" lat="51.144446"><ele>-2.4</ele><time>2022-03-20T10:18:27.000Z</time></trkpt><trkpt lon="5.764681" lat="51.144453"><ele>-2.6</ele><time>2022-03-20T10:18:28.000Z</time></trkpt><trkpt lon="5.76457" lat="51.144461"><ele>-2.4</ele><time>2022-03-20T10:18:29.000Z</time></trkpt><trkpt lon="5.76446" lat="51.144468"><ele>-2.4</ele><time>2022-03-20T10:18:30.000Z</time></trkpt><trkpt lon="5.764349" lat="51.144473"><ele>-2.4</ele><time>2022-03-20T10:18:31.000Z</time></trkpt><trkpt lon="5.764239" lat="51.14448"><ele>-2.4</ele><time>2022-03-20T10:18:32.000Z</time></trkpt><trkpt lon="5.764131" lat="51.144485"><ele>-2.4</ele><time>2022-03-20T10:18:33.000Z</time></trkpt><trkpt lon="5.764025" lat="51.144491"><ele>-2.4</ele><time>2022-03-20T10:18:34.000Z</time></trkpt><trkpt lon="5.763912" lat="51.144499"><ele>-2.6</ele><time>2022-03-20T10:18:35.000Z</time></trkpt><trkpt lon="5.763809" lat="51.144506"><ele>-2.6</ele><time>2022-03-20T10:18:36.000Z</time></trkpt><trkpt lon="5.763688" lat="51.144514"><ele>-2.6</ele><time>2022-03-20T10:18:37.000Z</time></trkpt><trkpt lon="5.763568" lat="51.144519"><ele>-2.6</ele><time>2022-03-20T10:18:38.000Z</time></trkpt><trkpt lon="5.763457" lat="51.144526"><ele>-2.6</ele><time>2022-03-20T10:18:39.000Z</time></trkpt><trkpt lon="5.763343" lat="51.144533"><ele>-2.6</ele><time>2022-03-20T10:18:40.000Z</time></trkpt><trkpt lon="5.763231" lat="51.144541"><ele>-2.6</ele><time>2022-03-20T10:18:41.000Z</time></trkpt><trkpt lon="5.763119" lat="51.144546"><ele>-2.6</ele><time>2022-03-20T10:18:42.000Z</time></trkpt><trkpt lon="5.763006" lat="51.144552"><ele>-2.6</ele><time>2022-03-20T10:18:43.000Z</time></trkpt><trkpt lon="5.762893" lat="51.14456"><ele>-2.6</ele><time>2022-03-20T10:18:44.000Z</time></trkpt><trkpt lon="5.762779" lat="51.144565"><ele>-2.6</ele><time>2022-03-20T10:18:45.000Z</time></trkpt><trkpt lon="5.762665" lat="51.144571"><ele>-2.6</ele><time>2022-03-20T10:18:46.000Z</time></trkpt><trkpt lon="5.762552" lat="51.144576"><ele>-2.8</ele><time>2022-03-20T10:18:47.000Z</time></trkpt><trkpt lon="5.762441" lat="51.144583"><ele>-2.6</ele><time>2022-03-20T10:18:48.000Z</time></trkpt><trkpt lon="5.762329" lat="51.144588"><ele>-2.6</ele><time>2022-03-20T10:18:49.000Z</time></trkpt><trkpt lon="5.762217" lat="51.144594"><ele>-2.6</ele><time>2022-03-20T10:18:50.000Z</time></trkpt><trkpt lon="5.762106" lat="51.144599"><ele>-2.8</ele><time>2022-03-20T10:18:51.000Z</time></trkpt><trkpt lon="5.761995" lat="51.144606"><ele>-2.8</ele><time>2022-03-20T10:18:52.000Z</time></trkpt><trkpt lon="5.761883" lat="51.144616"><ele>-2.8</ele><time>2022-03-20T10:18:53.000Z</time></trkpt><trkpt lon="5.76177" lat="51.144625"><ele>-2.8</ele><time>2022-03-20T10:18:54.000Z</time></trkpt><trkpt lon="5.761657" lat="51.144632"><ele>-2.8</ele><time>2022-03-20T10:18:55.000Z</time></trkpt><trkpt lon="5.761541" lat="51.14464"><ele>-2.8</ele><time>2022-03-20T10:18:56.000Z</time></trkpt><trkpt lon="5.761425" lat="51.144648"><ele>-2.8</ele><time>2022-03-20T10:18:57.000Z</time></trkpt><trkpt lon="5.761309" lat="51.144652"><ele>-2.8</ele><time>2022-03-20T10:18:58.000Z</time></trkpt><trkpt lon="5.761196" lat="51.144656"><ele>-2.8</ele><time>2022-03-20T10:18:59.000Z</time></trkpt><trkpt lon="5.761084" lat="51.144663"><ele>-2.8</ele><time>2022-03-20T10:19:00.000Z</time></trkpt><trkpt lon="5.760975" lat="51.144668"><ele>-2.8</ele><time>2022-03-20T10:19:01.000Z</time></trkpt><trkpt lon="5.760864" lat="51.144674"><ele>-2.8</ele><time>2022-03-20T10:19:02.000Z</time></trkpt><trkpt lon="5.760752" lat="51.144679"><ele>-2.8</ele><time>2022-03-20T10:19:03.000Z</time></trkpt><trkpt lon="5.760639" lat="51.144686"><ele>-2.8</ele><time>2022-03-20T10:19:04.000Z</time></trkpt><trkpt lon="5.760526" lat="51.144694"><ele>-2.8</ele><time>2022-03-20T10:19:05.000Z</time></trkpt><trkpt lon="5.760416" lat="51.144701"><ele>-2.8</ele><time>2022-03-20T10:19:06.000Z</time></trkpt><trkpt lon="5.760304" lat="51.144709"><ele>-2.8</ele><time>2022-03-20T10:19:07.000Z</time></trkpt><trkpt lon="5.760195" lat="51.144716"><ele>-2.8</ele><time>2022-03-20T10:19:08.000Z</time></trkpt><trkpt lon="5.760086" lat="51.144724"><ele>-2.6</ele><time>2022-03-20T10:19:09.000Z</time></trkpt><trkpt lon="5.759976" lat="51.144729"><ele>-2.6</ele><time>2022-03-20T10:19:10.000Z</time></trkpt><trkpt lon="5.759866" lat="51.144732"><ele>-2.8</ele><time>2022-03-20T10:19:11.000Z</time></trkpt><trkpt lon="5.759749" lat="51.144736"><ele>-2.8</ele><time>2022-03-20T10:19:12.000Z</time></trkpt><trkpt lon="5.759636" lat="51.14474"><ele>-2.8</ele><time>2022-03-20T10:19:13.000Z</time></trkpt><trkpt lon="5.75952" lat="51.144744"><ele>-2.8</ele><time>2022-03-20T10:19:14.000Z</time></trkpt><trkpt lon="5.759401" lat="51.144748"><ele>-2.8</ele><time>2022-03-20T10:19:15.000Z</time></trkpt><trkpt lon="5.759285" lat="51.144752"><ele>-2.8</ele><time>2022-03-20T10:19:16.000Z</time></trkpt><trkpt lon="5.759168" lat="51.144758"><ele>-2.8</ele><time>2022-03-20T10:19:17.000Z</time></trkpt><trkpt lon="5.759052" lat="51.144766"><ele>-2.8</ele><time>2022-03-20T10:19:18.000Z</time></trkpt><trkpt lon="5.758933" lat="51.144774"><ele>-3</ele><time>2022-03-20T10:19:19.000Z</time></trkpt><trkpt lon="5.758816" lat="51.144778"><ele>-3</ele><time>2022-03-20T10:19:20.000Z</time></trkpt><trkpt lon="5.758699" lat="51.144785"><ele>-2.8</ele><time>2022-03-20T10:19:21.000Z</time></trkpt><trkpt lon="5.758582" lat="51.144793"><ele>-2.8</ele><time>2022-03-20T10:19:22.000Z</time></trkpt><trkpt lon="5.758466" lat="51.144797"><ele>-2.8</ele><time>2022-03-20T10:19:23.000Z</time></trkpt><trkpt lon="5.75835" lat="51.144804"><ele>-2.8</ele><time>2022-03-20T10:19:24.000Z</time></trkpt><trkpt lon="5.758236" lat="51.144812"><ele>-2.8</ele><time>2022-03-20T10:19:25.000Z</time></trkpt><trkpt lon="5.758123" lat="51.144819"><ele>-2.8</ele><time>2022-03-20T10:19:26.000Z</time></trkpt><trkpt lon="5.758011" lat="51.144824"><ele>-2.8</ele><time>2022-03-20T10:19:27.000Z</time></trkpt><trkpt lon="5.757897" lat="51.144831"><ele>-2.8</ele><time>2022-03-20T10:19:28.000Z</time></trkpt><trkpt lon="5.757786" lat="51.144838"><ele>-2.8</ele><time>2022-03-20T10:19:29.000Z</time></trkpt><trkpt lon="5.757673" lat="51.144846"><ele>-2.8</ele><time>2022-03-20T10:19:30.000Z</time></trkpt><trkpt lon="5.757561" lat="51.144851"><ele>-2.8</ele><time>2022-03-20T10:19:31.000Z</time></trkpt><trkpt lon="5.757448" lat="51.144857"><ele>-2.8</ele><time>2022-03-20T10:19:32.000Z</time></trkpt><trkpt lon="5.757335" lat="51.144865"><ele>-2.8</ele><time>2022-03-20T10:19:33.000Z</time></trkpt><trkpt lon="5.757222" lat="51.144873"><ele>-2.8</ele><time>2022-03-20T10:19:34.000Z</time></trkpt><trkpt lon="5.757109" lat="51.144877"><ele>-2.8</ele><time>2022-03-20T10:19:35.000Z</time></trkpt><trkpt lon="5.756997" lat="51.144887"><ele>-2.8</ele><time>2022-03-20T10:19:36.000Z</time></trkpt><trkpt lon="5.756885" lat="51.144893"><ele>-2.8</ele><time>2022-03-20T10:19:37.000Z</time></trkpt><trkpt lon="5.756773" lat="51.144899"><ele>-2.8</ele><time>2022-03-20T10:19:38.000Z</time></trkpt><trkpt lon="5.756661" lat="51.144904"><ele>-2.8</ele><time>2022-03-20T10:19:39.000Z</time></trkpt><trkpt lon="5.75655" lat="51.144911"><ele>-2.8</ele><time>2022-03-20T10:19:40.000Z</time></trkpt><trkpt lon="5.756436" lat="51.144919"><ele>-2.8</ele><time>2022-03-20T10:19:41.000Z</time></trkpt><trkpt lon="5.756326" lat="51.144926"><ele>-2.8</ele><time>2022-03-20T10:19:42.000Z</time></trkpt><trkpt lon="5.75621" lat="51.144931"><ele>-2.8</ele><time>2022-03-20T10:19:43.000Z</time></trkpt><trkpt lon="5.756095" lat="51.144938"><ele>-2.8</ele><time>2022-03-20T10:19:44.000Z</time></trkpt><trkpt lon="5.755983" lat="51.144945"><ele>-2.8</ele><time>2022-03-20T10:19:45.000Z</time></trkpt><trkpt lon="5.75587" lat="51.14495"><ele>-2.8</ele><time>2022-03-20T10:19:46.000Z</time></trkpt><trkpt lon="5.755756" lat="51.144957"><ele>-2.8</ele><time>2022-03-20T10:19:47.000Z</time></trkpt><trkpt lon="5.755643" lat="51.144964"><ele>-2.8</ele><time>2022-03-20T10:19:48.000Z</time></trkpt><trkpt lon="5.755529" lat="51.144972"><ele>-2.8</ele><time>2022-03-20T10:19:49.000Z</time></trkpt><trkpt lon="5.755413" lat="51.144977"><ele>-2.6</ele><time>2022-03-20T10:19:50.000Z</time></trkpt><trkpt lon="5.755302" lat="51.144983"><ele>-2.6</ele><time>2022-03-20T10:19:51.000Z</time></trkpt><trkpt lon="5.75519" lat="51.144991"><ele>-2.6</ele><time>2022-03-20T10:19:52.000Z</time></trkpt><trkpt lon="5.755082" lat="51.144996"><ele>-2.6</ele><time>2022-03-20T10:19:53.000Z</time></trkpt><trkpt lon="5.754974" lat="51.144999"><ele>-2.6</ele><time>2022-03-20T10:19:54.000Z</time></trkpt><trkpt lon="5.754865" lat="51.145"><ele>-2.6</ele><time>2022-03-20T10:19:55.000Z</time></trkpt><trkpt lon="5.754755" lat="51.145006"><ele>-2.6</ele><time>2022-03-20T10:19:56.000Z</time></trkpt><trkpt lon="5.754645" lat="51.145011"><ele>-2.6</ele><time>2022-03-20T10:19:57.000Z</time></trkpt><trkpt lon="5.754533" lat="51.14502"><ele>-2.4</ele><time>2022-03-20T10:19:58.000Z</time></trkpt><trkpt lon="5.754423" lat="51.145032"><ele>-2.4</ele><time>2022-03-20T10:19:59.000Z</time></trkpt><trkpt lon="5.754311" lat="51.145041"><ele>-2.4</ele><time>2022-03-20T10:20:00.000Z</time></trkpt><trkpt lon="5.754197" lat="51.145048"><ele>-2.4</ele><time>2022-03-20T10:20:01.000Z</time></trkpt><trkpt lon="5.754084" lat="51.145059"><ele>-2.4</ele><time>2022-03-20T10:20:02.000Z</time></trkpt><trkpt lon="5.753972" lat="51.145064"><ele>-2.4</ele><time>2022-03-20T10:20:03.000Z</time></trkpt><trkpt lon="5.753863" lat="51.145071"><ele>-2.4</ele><time>2022-03-20T10:20:04.000Z</time></trkpt><trkpt lon="5.753753" lat="51.145079"><ele>-2.4</ele><time>2022-03-20T10:20:05.000Z</time></trkpt><trkpt lon="5.753639" lat="51.145086"><ele>-2.4</ele><time>2022-03-20T10:20:06.000Z</time></trkpt><trkpt lon="5.75353" lat="51.145094"><ele>-2.4</ele><time>2022-03-20T10:20:07.000Z</time></trkpt><trkpt lon="5.753417" lat="51.145102"><ele>-2.4</ele><time>2022-03-20T10:20:08.000Z</time></trkpt><trkpt lon="5.753306" lat="51.145112"><ele>-2.4</ele><time>2022-03-20T10:20:09.000Z</time></trkpt><trkpt lon="5.753196" lat="51.14512"><ele>-2.2</ele><time>2022-03-20T10:20:10.000Z</time></trkpt><trkpt lon="5.753083" lat="51.145125"><ele>-2.2</ele><time>2022-03-20T10:20:11.000Z</time></trkpt><trkpt lon="5.752975" lat="51.145129"><ele>-2.2</ele><time>2022-03-20T10:20:12.000Z</time></trkpt><trkpt lon="5.752867" lat="51.145136"><ele>-2.2</ele><time>2022-03-20T10:20:13.000Z</time></trkpt><trkpt lon="5.752756" lat="51.145141"><ele>-2.2</ele><time>2022-03-20T10:20:14.000Z</time></trkpt><trkpt lon="5.752644" lat="51.145144"><ele>-2.2</ele><time>2022-03-20T10:20:15.000Z</time></trkpt><trkpt lon="5.752535" lat="51.145154"><ele>-2.2</ele><time>2022-03-20T10:20:16.000Z</time></trkpt><trkpt lon="5.752425" lat="51.145163"><ele>-2.2</ele><time>2022-03-20T10:20:17.000Z</time></trkpt><trkpt lon="5.752315" lat="51.14517"><ele>-2.2</ele><time>2022-03-20T10:20:18.000Z</time></trkpt><trkpt lon="5.7522" lat="51.145178"><ele>-2.2</ele><time>2022-03-20T10:20:19.000Z</time></trkpt><trkpt lon="5.752085" lat="51.145185"><ele>-2.2</ele><time>2022-03-20T10:20:20.000Z</time></trkpt><trkpt lon="5.751974" lat="51.145193"><ele>-2.2</ele><time>2022-03-20T10:20:21.000Z</time></trkpt><trkpt lon="5.751862" lat="51.145198"><ele>-2.2</ele><time>2022-03-20T10:20:22.000Z</time></trkpt><trkpt lon="5.751753" lat="51.145205"><ele>-2.2</ele><time>2022-03-20T10:20:23.000Z</time></trkpt><trkpt lon="5.75164" lat="51.145209"><ele>-2.2</ele><time>2022-03-20T10:20:24.000Z</time></trkpt><trkpt lon="5.751527" lat="51.145219"><ele>-2.2</ele><time>2022-03-20T10:20:25.000Z</time></trkpt><trkpt lon="5.751414" lat="51.145225"><ele>-2.2</ele><time>2022-03-20T10:20:26.000Z</time></trkpt><trkpt lon="5.751301" lat="51.145231"><ele>-2.2</ele><time>2022-03-20T10:20:27.000Z</time></trkpt><trkpt lon="5.751186" lat="51.145239"><ele>-2.2</ele><time>2022-03-20T10:20:28.000Z</time></trkpt><trkpt lon="5.751074" lat="51.145246"><ele>-2.2</ele><time>2022-03-20T10:20:29.000Z</time></trkpt><trkpt lon="5.75096" lat="51.145248"><ele>-2.2</ele><time>2022-03-20T10:20:30.000Z</time></trkpt><trkpt lon="5.750849" lat="51.145246"><ele>-2.2</ele><time>2022-03-20T10:20:31.000Z</time></trkpt><trkpt lon="5.750738" lat="51.145242"><ele>-2.2</ele><time>2022-03-20T10:20:32.000Z</time></trkpt><trkpt lon="5.750627" lat="51.145244"><ele>-2.2</ele><time>2022-03-20T10:20:33.000Z</time></trkpt><trkpt lon="5.750516" lat="51.14525"><ele>-2.2</ele><time>2022-03-20T10:20:34.000Z</time></trkpt><trkpt lon="5.750405" lat="51.145255"><ele>-2.2</ele><time>2022-03-20T10:20:35.000Z</time></trkpt><trkpt lon="5.750292" lat="51.145262"><ele>-2.2</ele><time>2022-03-20T10:20:36.000Z</time></trkpt><trkpt lon="5.750184" lat="51.145269"><ele>-2.2</ele><time>2022-03-20T10:20:37.000Z</time></trkpt><trkpt lon="5.750072" lat="51.145274"><ele>-2.2</ele><time>2022-03-20T10:20:38.000Z</time></trkpt><trkpt lon="5.749959" lat="51.145281"><ele>-2.2</ele><time>2022-03-20T10:20:39.000Z</time></trkpt><trkpt lon="5.749847" lat="51.145288"><ele>-2.2</ele><time>2022-03-20T10:20:40.000Z</time></trkpt><trkpt lon="5.749731" lat="51.145296"><ele>-2.2</ele><time>2022-03-20T10:20:41.000Z</time></trkpt><trkpt lon="5.749614" lat="51.145304"><ele>-2.2</ele><time>2022-03-20T10:20:42.000Z</time></trkpt><trkpt lon="5.749497" lat="51.145311"><ele>-2.2</ele><time>2022-03-20T10:20:43.000Z</time></trkpt><trkpt lon="5.74938" lat="51.145316"><ele>-2.2</ele><time>2022-03-20T10:20:44.000Z</time></trkpt><trkpt lon="5.749266" lat="51.145323"><ele>-2.2</ele><time>2022-03-20T10:20:45.000Z</time></trkpt><trkpt lon="5.749152" lat="51.14533"><ele>-2.2</ele><time>2022-03-20T10:20:46.000Z</time></trkpt><trkpt lon="5.749038" lat="51.145335"><ele>-2</ele><time>2022-03-20T10:20:47.000Z</time></trkpt><trkpt lon="5.748927" lat="51.145342"><ele>-2</ele><time>2022-03-20T10:20:48.000Z</time></trkpt><trkpt lon="5.748816" lat="51.145349"><ele>-2</ele><time>2022-03-20T10:20:49.000Z</time></trkpt><trkpt lon="5.748707" lat="51.145357"><ele>-2</ele><time>2022-03-20T10:20:50.000Z</time></trkpt><trkpt lon="5.748601" lat="51.145365"><ele>-2</ele><time>2022-03-20T10:20:51.000Z</time></trkpt><trkpt lon="5.748491" lat="51.145372"><ele>-1.8</ele><time>2022-03-20T10:20:52.000Z</time></trkpt><trkpt lon="5.748382" lat="51.145383"><ele>-1.8</ele><time>2022-03-20T10:20:53.000Z</time></trkpt><trkpt lon="5.748274" lat="51.145391"><ele>-2</ele><time>2022-03-20T10:20:54.000Z</time></trkpt><trkpt lon="5.748168" lat="51.145402"><ele>-2</ele><time>2022-03-20T10:20:55.000Z</time></trkpt><trkpt lon="5.74806" lat="51.145413"><ele>-2</ele><time>2022-03-20T10:20:56.000Z</time></trkpt><trkpt lon="5.747957" lat="51.145422"><ele>-2</ele><time>2022-03-20T10:20:57.000Z</time></trkpt><trkpt lon="5.747851" lat="51.14543"><ele>-2</ele><time>2022-03-20T10:20:58.000Z</time></trkpt><trkpt lon="5.747745" lat="51.145443"><ele>-2</ele><time>2022-03-20T10:20:59.000Z</time></trkpt><trkpt lon="5.747636" lat="51.145455"><ele>-2</ele><time>2022-03-20T10:21:00.000Z</time></trkpt><trkpt lon="5.747526" lat="51.145464"><ele>-2</ele><time>2022-03-20T10:21:01.000Z</time></trkpt><trkpt lon="5.747417" lat="51.145474"><ele>-2</ele><time>2022-03-20T10:21:02.000Z</time></trkpt><trkpt lon="5.74731" lat="51.145483"><ele>-2</ele><time>2022-03-20T10:21:03.000Z</time></trkpt><trkpt lon="5.747202" lat="51.145493"><ele>-2</ele><time>2022-03-20T10:21:04.000Z</time></trkpt><trkpt lon="5.74709" lat="51.145502"><ele>-2</ele><time>2022-03-20T10:21:05.000Z</time></trkpt><trkpt lon="5.746983" lat="51.14551"><ele>-2</ele><time>2022-03-20T10:21:06.000Z</time></trkpt><trkpt lon="5.746877" lat="51.14552"><ele>-2</ele><time>2022-03-20T10:21:07.000Z</time></trkpt><trkpt lon="5.746775" lat="51.145529"><ele>-2</ele><time>2022-03-20T10:21:08.000Z</time></trkpt><trkpt lon="5.746667" lat="51.145536"><ele>-2</ele><time>2022-03-20T10:21:09.000Z</time></trkpt><trkpt lon="5.746563" lat="51.145547"><ele>-2</ele><time>2022-03-20T10:21:10.000Z</time></trkpt><trkpt lon="5.746453" lat="51.145555"><ele>-2</ele><time>2022-03-20T10:21:11.000Z</time></trkpt><trkpt lon="5.746347" lat="51.145566"><ele>-2</ele><time>2022-03-20T10:21:12.000Z</time></trkpt><trkpt lon="5.746238" lat="51.145575"><ele>-2</ele><time>2022-03-20T10:21:13.000Z</time></trkpt><trkpt lon="5.746129" lat="51.145585"><ele>-2</ele><time>2022-03-20T10:21:14.000Z</time></trkpt><trkpt lon="5.746023" lat="51.145596"><ele>-2</ele><time>2022-03-20T10:21:15.000Z</time></trkpt><trkpt lon="5.745918" lat="51.145605"><ele>-1.8</ele><time>2022-03-20T10:21:16.000Z</time></trkpt><trkpt lon="5.745813" lat="51.145616"><ele>-1.8</ele><time>2022-03-20T10:21:17.000Z</time></trkpt><trkpt lon="5.745707" lat="51.145624"><ele>-1.8</ele><time>2022-03-20T10:21:18.000Z</time></trkpt><trkpt lon="5.745602" lat="51.145632"><ele>-1.8</ele><time>2022-03-20T10:21:19.000Z</time></trkpt><trkpt lon="5.745496" lat="51.145639"><ele>-1.8</ele><time>2022-03-20T10:21:20.000Z</time></trkpt><trkpt lon="5.745392" lat="51.145647"><ele>-1.8</ele><time>2022-03-20T10:21:21.000Z</time></trkpt><trkpt lon="5.74529" lat="51.145655"><ele>-1.8</ele><time>2022-03-20T10:21:22.000Z</time></trkpt><trkpt lon="5.745185" lat="51.145662"><ele>-1.8</ele><time>2022-03-20T10:21:23.000Z</time></trkpt><trkpt lon="5.745082" lat="51.14567"><ele>-1.8</ele><time>2022-03-20T10:21:24.000Z</time></trkpt><trkpt lon="5.744982" lat="51.145678"><ele>-1.8</ele><time>2022-03-20T10:21:25.000Z</time></trkpt><trkpt lon="5.744882" lat="51.145685"><ele>-1.8</ele><time>2022-03-20T10:21:26.000Z</time></trkpt><trkpt lon="5.744783" lat="51.145693"><ele>-1.8</ele><time>2022-03-20T10:21:27.000Z</time></trkpt><trkpt lon="5.744684" lat="51.145701"><ele>-1.8</ele><time>2022-03-20T10:21:28.000Z</time></trkpt><trkpt lon="5.744589" lat="51.145708"><ele>-1.8</ele><time>2022-03-20T10:21:29.000Z</time></trkpt><trkpt lon="5.744498" lat="51.145715"><ele>-1.6</ele><time>2022-03-20T10:21:30.000Z</time></trkpt><trkpt lon="5.744406" lat="51.145723"><ele>-1.6</ele><time>2022-03-20T10:21:31.000Z</time></trkpt><trkpt lon="5.744322" lat="51.145731"><ele>-1.6</ele><time>2022-03-20T10:21:32.000Z</time></trkpt><trkpt lon="5.744238" lat="51.145738"><ele>-1.6</ele><time>2022-03-20T10:21:33.000Z</time></trkpt></trkseg></trk></gpx>